<?xml version="1.0" encoding="UTF-8" standalone="no" ?>
<gpx xmlns="http://www.topografix.com/GPX/1/1" xmlns:xsi="http://www.w3.org/2001/XMLSchema-instance" xsi:schemaLocation="http://www.topografix.com/GPX/1/1 http://www.topografix.com/GPX/1/1/gpx.xsd" version="1.1" creator="VisuGPX - https://www.visugpx.com">
  <metadata>
    <name>2018-03-24 Bike ride-Georges de Reneins O v50k</name>
    <desc><![CDATA[2018-03-24 Bike ride-Georges de Reneins O v50k]]></desc>
  </metadata>
  <wpt lat="45.92449" lon="4.73761">
    <ele>173</ele>
    <name><![CDATA[2018-03-24 10:33 (Start)]]></name>
  </wpt>
  <wpt lat="45.92461" lon="4.73711">
    <ele>174</ele>
    <name><![CDATA[2018-03-24 10:33 (End)]]></name>
  </wpt>
  <trk>
    <name><![CDATA[2018-03-24 10:33]]></name>
    <trkseg>
      <trkpt lat="45.92449" lon="4.73761">
        <ele>173</ele>
        <time>2018-03-24T09:33:44.268Z</time>
      </trkpt>
      <trkpt lat="45.92458" lon="4.73706">
        <ele>174</ele>
        <time>2018-03-24T09:33:47.975Z</time>
      </trkpt>
      <trkpt lat="45.92466" lon="4.73709">
        <ele>174</ele>
        <time>2018-03-24T09:34:20Z</time>
      </trkpt>
      <trkpt lat="45.92467" lon="4.73707">
        <ele>174</ele>
        <time>2018-03-24T09:34:21Z</time>
      </trkpt>
      <trkpt lat="45.92469" lon="4.73697">
        <ele>174</ele>
        <time>2018-03-24T09:34:24Z</time>
      </trkpt>
      <trkpt lat="45.9247" lon="4.73693">
        <ele>174</ele>
        <time>2018-03-24T09:34:25Z</time>
      </trkpt>
      <trkpt lat="45.9247" lon="4.7368">
        <ele>174</ele>
        <time>2018-03-24T09:34:28Z</time>
      </trkpt>
      <trkpt lat="45.9247" lon="4.73676">
        <ele>174</ele>
        <time>2018-03-24T09:34:29Z</time>
      </trkpt>
      <trkpt lat="45.92471" lon="4.73666">
        <ele>174</ele>
        <time>2018-03-24T09:34:31Z</time>
      </trkpt>
      <trkpt lat="45.92472" lon="4.73654">
        <ele>174</ele>
        <time>2018-03-24T09:34:32Z</time>
      </trkpt>
      <trkpt lat="45.92472" lon="4.73644">
        <ele>174</ele>
        <time>2018-03-24T09:34:34Z</time>
      </trkpt>
      <trkpt lat="45.92473" lon="4.73638">
        <ele>174</ele>
        <time>2018-03-24T09:34:35Z</time>
      </trkpt>
      <trkpt lat="45.92474" lon="4.73627">
        <ele>174</ele>
        <time>2018-03-24T09:34:37Z</time>
      </trkpt>
      <trkpt lat="45.92473" lon="4.73621">
        <ele>174</ele>
        <time>2018-03-24T09:34:38Z</time>
      </trkpt>
      <trkpt lat="45.92471" lon="4.73608">
        <ele>174</ele>
        <time>2018-03-24T09:34:40Z</time>
      </trkpt>
      <trkpt lat="45.92471" lon="4.73602">
        <ele>174</ele>
        <time>2018-03-24T09:34:41Z</time>
      </trkpt>
      <trkpt lat="45.9247" lon="4.7359">
        <ele>174</ele>
        <time>2018-03-24T09:34:43Z</time>
      </trkpt>
      <trkpt lat="45.9247" lon="4.73584">
        <ele>174</ele>
        <time>2018-03-24T09:34:44Z</time>
      </trkpt>
      <trkpt lat="45.92468" lon="4.73573">
        <ele>173</ele>
        <time>2018-03-24T09:34:47Z</time>
      </trkpt>
      <trkpt lat="45.92468" lon="4.73569">
        <ele>173</ele>
        <time>2018-03-24T09:34:48Z</time>
      </trkpt>
      <trkpt lat="45.92467" lon="4.73558">
        <ele>173</ele>
        <time>2018-03-24T09:34:51Z</time>
      </trkpt>
      <trkpt lat="45.92467" lon="4.73554">
        <ele>173</ele>
        <time>2018-03-24T09:34:52Z</time>
      </trkpt>
      <trkpt lat="45.92469" lon="4.73543">
        <ele>173</ele>
        <time>2018-03-24T09:34:55Z</time>
      </trkpt>
      <trkpt lat="45.92469" lon="4.73539">
        <ele>174</ele>
        <time>2018-03-24T09:34:56Z</time>
      </trkpt>
      <trkpt lat="45.92469" lon="4.73527">
        <ele>174</ele>
        <time>2018-03-24T09:34:57Z</time>
      </trkpt>
      <trkpt lat="45.92469" lon="4.73522">
        <ele>174</ele>
        <time>2018-03-24T09:34:58Z</time>
      </trkpt>
      <trkpt lat="45.92468" lon="4.7351">
        <ele>174</ele>
        <time>2018-03-24T09:35:00Z</time>
      </trkpt>
      <trkpt lat="45.92468" lon="4.73504">
        <ele>174</ele>
        <time>2018-03-24T09:35:01Z</time>
      </trkpt>
      <trkpt lat="45.92469" lon="4.73497">
        <ele>173</ele>
        <time>2018-03-24T09:35:02Z</time>
      </trkpt>
      <trkpt lat="45.92469" lon="4.7349">
        <ele>173</ele>
        <time>2018-03-24T09:35:03Z</time>
      </trkpt>
      <trkpt lat="45.92469" lon="4.73483">
        <ele>173</ele>
        <time>2018-03-24T09:35:04Z</time>
      </trkpt>
      <trkpt lat="45.9247" lon="4.73476">
        <ele>173</ele>
        <time>2018-03-24T09:35:05Z</time>
      </trkpt>
      <trkpt lat="45.92469" lon="4.73469">
        <ele>173</ele>
        <time>2018-03-24T09:35:06Z</time>
      </trkpt>
      <trkpt lat="45.92468" lon="4.73462">
        <ele>173</ele>
        <time>2018-03-24T09:35:07Z</time>
      </trkpt>
      <trkpt lat="45.92467" lon="4.73455">
        <ele>173</ele>
        <time>2018-03-24T09:35:08Z</time>
      </trkpt>
      <trkpt lat="45.92466" lon="4.73449">
        <ele>173</ele>
        <time>2018-03-24T09:35:09Z</time>
      </trkpt>
      <trkpt lat="45.92465" lon="4.73442">
        <ele>173</ele>
        <time>2018-03-24T09:35:10Z</time>
      </trkpt>
      <trkpt lat="45.92462" lon="4.73436">
        <ele>173</ele>
        <time>2018-03-24T09:35:11Z</time>
      </trkpt>
      <trkpt lat="45.92458" lon="4.73432">
        <ele>173</ele>
        <time>2018-03-24T09:35:12Z</time>
      </trkpt>
      <trkpt lat="45.92454" lon="4.73427">
        <ele>173</ele>
        <time>2018-03-24T09:35:13Z</time>
      </trkpt>
      <trkpt lat="45.9245" lon="4.73423">
        <ele>173</ele>
        <time>2018-03-24T09:35:14Z</time>
      </trkpt>
      <trkpt lat="45.92446" lon="4.7342">
        <ele>173</ele>
        <time>2018-03-24T09:35:15Z</time>
      </trkpt>
      <trkpt lat="45.92441" lon="4.73417">
        <ele>173</ele>
        <time>2018-03-24T09:35:16Z</time>
      </trkpt>
      <trkpt lat="45.92437" lon="4.73414">
        <ele>172</ele>
        <time>2018-03-24T09:35:17Z</time>
      </trkpt>
      <trkpt lat="45.92433" lon="4.73411">
        <ele>172</ele>
        <time>2018-03-24T09:35:18Z</time>
      </trkpt>
      <trkpt lat="45.92429" lon="4.73406">
        <ele>172</ele>
        <time>2018-03-24T09:35:19Z</time>
      </trkpt>
      <trkpt lat="45.92426" lon="4.734">
        <ele>172</ele>
        <time>2018-03-24T09:35:20Z</time>
      </trkpt>
      <trkpt lat="45.92424" lon="4.73393">
        <ele>172</ele>
        <time>2018-03-24T09:35:21Z</time>
      </trkpt>
      <trkpt lat="45.92423" lon="4.73386">
        <ele>172</ele>
        <time>2018-03-24T09:35:22Z</time>
      </trkpt>
      <trkpt lat="45.92422" lon="4.7338">
        <ele>172</ele>
        <time>2018-03-24T09:35:23Z</time>
      </trkpt>
      <trkpt lat="45.92422" lon="4.73371">
        <ele>172</ele>
        <time>2018-03-24T09:35:24Z</time>
      </trkpt>
      <trkpt lat="45.92421" lon="4.73364">
        <ele>172</ele>
        <time>2018-03-24T09:35:25Z</time>
      </trkpt>
      <trkpt lat="45.9242" lon="4.73356">
        <ele>171</ele>
        <time>2018-03-24T09:35:26Z</time>
      </trkpt>
      <trkpt lat="45.92421" lon="4.73348">
        <ele>171</ele>
        <time>2018-03-24T09:35:27Z</time>
      </trkpt>
      <trkpt lat="45.9242" lon="4.73341">
        <ele>171</ele>
        <time>2018-03-24T09:35:28Z</time>
      </trkpt>
      <trkpt lat="45.92419" lon="4.73334">
        <ele>171</ele>
        <time>2018-03-24T09:35:29Z</time>
      </trkpt>
      <trkpt lat="45.92417" lon="4.73326">
        <ele>171</ele>
        <time>2018-03-24T09:35:30Z</time>
      </trkpt>
      <trkpt lat="45.92416" lon="4.73318">
        <ele>171</ele>
        <time>2018-03-24T09:35:31Z</time>
      </trkpt>
      <trkpt lat="45.92415" lon="4.73311">
        <ele>171</ele>
        <time>2018-03-24T09:35:32Z</time>
      </trkpt>
      <trkpt lat="45.92414" lon="4.73302">
        <ele>171</ele>
        <time>2018-03-24T09:35:33Z</time>
      </trkpt>
      <trkpt lat="45.92414" lon="4.73294">
        <ele>171</ele>
        <time>2018-03-24T09:35:34Z</time>
      </trkpt>
      <trkpt lat="45.92413" lon="4.73286">
        <ele>171</ele>
        <time>2018-03-24T09:35:35Z</time>
      </trkpt>
      <trkpt lat="45.92413" lon="4.73279">
        <ele>171</ele>
        <time>2018-03-24T09:35:36Z</time>
      </trkpt>
      <trkpt lat="45.92413" lon="4.7327">
        <ele>171</ele>
        <time>2018-03-24T09:35:37Z</time>
      </trkpt>
      <trkpt lat="45.92412" lon="4.73263">
        <ele>171</ele>
        <time>2018-03-24T09:35:38Z</time>
      </trkpt>
      <trkpt lat="45.92411" lon="4.73256">
        <ele>171</ele>
        <time>2018-03-24T09:35:39Z</time>
      </trkpt>
      <trkpt lat="45.92411" lon="4.73248">
        <ele>171</ele>
        <time>2018-03-24T09:35:40Z</time>
      </trkpt>
      <trkpt lat="45.92409" lon="4.7324">
        <ele>171</ele>
        <time>2018-03-24T09:35:41Z</time>
      </trkpt>
      <trkpt lat="45.92409" lon="4.73233">
        <ele>171</ele>
        <time>2018-03-24T09:35:42Z</time>
      </trkpt>
      <trkpt lat="45.92408" lon="4.73224">
        <ele>171</ele>
        <time>2018-03-24T09:35:43Z</time>
      </trkpt>
      <trkpt lat="45.92408" lon="4.73217">
        <ele>171</ele>
        <time>2018-03-24T09:35:44Z</time>
      </trkpt>
      <trkpt lat="45.92408" lon="4.73209">
        <ele>171</ele>
        <time>2018-03-24T09:35:45Z</time>
      </trkpt>
      <trkpt lat="45.92407" lon="4.73202">
        <ele>171</ele>
        <time>2018-03-24T09:35:46Z</time>
      </trkpt>
      <trkpt lat="45.92407" lon="4.73195">
        <ele>171</ele>
        <time>2018-03-24T09:35:47Z</time>
      </trkpt>
      <trkpt lat="45.92408" lon="4.73188">
        <ele>171</ele>
        <time>2018-03-24T09:35:48Z</time>
      </trkpt>
      <trkpt lat="45.92407" lon="4.73181">
        <ele>171</ele>
        <time>2018-03-24T09:35:49Z</time>
      </trkpt>
      <trkpt lat="45.92407" lon="4.73174">
        <ele>171</ele>
        <time>2018-03-24T09:35:50Z</time>
      </trkpt>
      <trkpt lat="45.92408" lon="4.73168">
        <ele>170</ele>
        <time>2018-03-24T09:35:51Z</time>
      </trkpt>
      <trkpt lat="45.92408" lon="4.73161">
        <ele>170</ele>
        <time>2018-03-24T09:35:52Z</time>
      </trkpt>
      <trkpt lat="45.92408" lon="4.73153">
        <ele>171</ele>
        <time>2018-03-24T09:35:53Z</time>
      </trkpt>
      <trkpt lat="45.92409" lon="4.73147">
        <ele>171</ele>
        <time>2018-03-24T09:35:54Z</time>
      </trkpt>
      <trkpt lat="45.92409" lon="4.7314">
        <ele>171</ele>
        <time>2018-03-24T09:35:55Z</time>
      </trkpt>
      <trkpt lat="45.92409" lon="4.73132">
        <ele>171</ele>
        <time>2018-03-24T09:35:56Z</time>
      </trkpt>
      <trkpt lat="45.9241" lon="4.73125">
        <ele>171</ele>
        <time>2018-03-24T09:35:57Z</time>
      </trkpt>
      <trkpt lat="45.92413" lon="4.73114">
        <ele>171</ele>
        <time>2018-03-24T09:35:59Z</time>
      </trkpt>
      <trkpt lat="45.92417" lon="4.7311">
        <ele>170</ele>
        <time>2018-03-24T09:36:00Z</time>
      </trkpt>
      <trkpt lat="45.92424" lon="4.73104">
        <ele>171</ele>
        <time>2018-03-24T09:36:02Z</time>
      </trkpt>
      <trkpt lat="45.92429" lon="4.73101">
        <ele>171</ele>
        <time>2018-03-24T09:36:03Z</time>
      </trkpt>
      <trkpt lat="45.92434" lon="4.73097">
        <ele>171</ele>
        <time>2018-03-24T09:36:04Z</time>
      </trkpt>
      <trkpt lat="45.92438" lon="4.73093">
        <ele>171</ele>
        <time>2018-03-24T09:36:05Z</time>
      </trkpt>
      <trkpt lat="45.92442" lon="4.7309">
        <ele>170</ele>
        <time>2018-03-24T09:36:06Z</time>
      </trkpt>
      <trkpt lat="45.92447" lon="4.73086">
        <ele>170</ele>
        <time>2018-03-24T09:36:07Z</time>
      </trkpt>
      <trkpt lat="45.92451" lon="4.73082">
        <ele>170</ele>
        <time>2018-03-24T09:36:08Z</time>
      </trkpt>
      <trkpt lat="45.92456" lon="4.73079">
        <ele>170</ele>
        <time>2018-03-24T09:36:09Z</time>
      </trkpt>
      <trkpt lat="45.92461" lon="4.73075">
        <ele>170</ele>
        <time>2018-03-24T09:36:10Z</time>
      </trkpt>
      <trkpt lat="45.92465" lon="4.73072">
        <ele>170</ele>
        <time>2018-03-24T09:36:11Z</time>
      </trkpt>
      <trkpt lat="45.9247" lon="4.73068">
        <ele>170</ele>
        <time>2018-03-24T09:36:12Z</time>
      </trkpt>
      <trkpt lat="45.92475" lon="4.73064">
        <ele>170</ele>
        <time>2018-03-24T09:36:13Z</time>
      </trkpt>
      <trkpt lat="45.9248" lon="4.7306">
        <ele>170</ele>
        <time>2018-03-24T09:36:14Z</time>
      </trkpt>
      <trkpt lat="45.92484" lon="4.73056">
        <ele>170</ele>
        <time>2018-03-24T09:36:15Z</time>
      </trkpt>
      <trkpt lat="45.92489" lon="4.73052">
        <ele>170</ele>
        <time>2018-03-24T09:36:16Z</time>
      </trkpt>
      <trkpt lat="45.92494" lon="4.73047">
        <ele>170</ele>
        <time>2018-03-24T09:36:17Z</time>
      </trkpt>
      <trkpt lat="45.925" lon="4.73043">
        <ele>170</ele>
        <time>2018-03-24T09:36:18Z</time>
      </trkpt>
      <trkpt lat="45.92505" lon="4.73039">
        <ele>169</ele>
        <time>2018-03-24T09:36:19Z</time>
      </trkpt>
      <trkpt lat="45.9251" lon="4.73036">
        <ele>169</ele>
        <time>2018-03-24T09:36:20Z</time>
      </trkpt>
      <trkpt lat="45.92514" lon="4.73031">
        <ele>169</ele>
        <time>2018-03-24T09:36:21Z</time>
      </trkpt>
      <trkpt lat="45.92519" lon="4.73027">
        <ele>169</ele>
        <time>2018-03-24T09:36:22Z</time>
      </trkpt>
      <trkpt lat="45.92523" lon="4.73022">
        <ele>169</ele>
        <time>2018-03-24T09:36:23Z</time>
      </trkpt>
      <trkpt lat="45.92527" lon="4.73018">
        <ele>169</ele>
        <time>2018-03-24T09:36:24Z</time>
      </trkpt>
      <trkpt lat="45.92532" lon="4.73014">
        <ele>169</ele>
        <time>2018-03-24T09:36:25Z</time>
      </trkpt>
      <trkpt lat="45.92536" lon="4.73009">
        <ele>169</ele>
        <time>2018-03-24T09:36:26Z</time>
      </trkpt>
      <trkpt lat="45.9254" lon="4.73004">
        <ele>169</ele>
        <time>2018-03-24T09:36:27Z</time>
      </trkpt>
      <trkpt lat="45.92545" lon="4.73">
        <ele>169</ele>
        <time>2018-03-24T09:36:28Z</time>
      </trkpt>
      <trkpt lat="45.9255" lon="4.72996">
        <ele>169</ele>
        <time>2018-03-24T09:36:29Z</time>
      </trkpt>
      <trkpt lat="45.92554" lon="4.72991">
        <ele>169</ele>
        <time>2018-03-24T09:36:30Z</time>
      </trkpt>
      <trkpt lat="45.92559" lon="4.72987">
        <ele>169</ele>
        <time>2018-03-24T09:36:31Z</time>
      </trkpt>
      <trkpt lat="45.92564" lon="4.72981">
        <ele>169</ele>
        <time>2018-03-24T09:36:32Z</time>
      </trkpt>
      <trkpt lat="45.92568" lon="4.72975">
        <ele>169</ele>
        <time>2018-03-24T09:36:33Z</time>
      </trkpt>
      <trkpt lat="45.92573" lon="4.72969">
        <ele>169</ele>
        <time>2018-03-24T09:36:34Z</time>
      </trkpt>
      <trkpt lat="45.92577" lon="4.72964">
        <ele>169</ele>
        <time>2018-03-24T09:36:35Z</time>
      </trkpt>
      <trkpt lat="45.92582" lon="4.72959">
        <ele>169</ele>
        <time>2018-03-24T09:36:36Z</time>
      </trkpt>
      <trkpt lat="45.92586" lon="4.72953">
        <ele>169</ele>
        <time>2018-03-24T09:36:37Z</time>
      </trkpt>
      <trkpt lat="45.9259" lon="4.72946">
        <ele>169</ele>
        <time>2018-03-24T09:36:38Z</time>
      </trkpt>
      <trkpt lat="45.92595" lon="4.72941">
        <ele>169</ele>
        <time>2018-03-24T09:36:39Z</time>
      </trkpt>
      <trkpt lat="45.926" lon="4.72936">
        <ele>169</ele>
        <time>2018-03-24T09:36:40Z</time>
      </trkpt>
      <trkpt lat="45.92605" lon="4.72932">
        <ele>169</ele>
        <time>2018-03-24T09:36:41Z</time>
      </trkpt>
      <trkpt lat="45.92609" lon="4.72928">
        <ele>169</ele>
        <time>2018-03-24T09:36:42Z</time>
      </trkpt>
      <trkpt lat="45.92614" lon="4.72923">
        <ele>169</ele>
        <time>2018-03-24T09:36:43Z</time>
      </trkpt>
      <trkpt lat="45.92619" lon="4.72919">
        <ele>169</ele>
        <time>2018-03-24T09:36:44Z</time>
      </trkpt>
      <trkpt lat="45.92623" lon="4.72915">
        <ele>169</ele>
        <time>2018-03-24T09:36:45Z</time>
      </trkpt>
      <trkpt lat="45.92628" lon="4.72912">
        <ele>169</ele>
        <time>2018-03-24T09:36:46Z</time>
      </trkpt>
      <trkpt lat="45.92632" lon="4.72908">
        <ele>169</ele>
        <time>2018-03-24T09:36:47Z</time>
      </trkpt>
      <trkpt lat="45.92638" lon="4.72904">
        <ele>169</ele>
        <time>2018-03-24T09:36:48Z</time>
      </trkpt>
      <trkpt lat="45.92643" lon="4.729">
        <ele>169</ele>
        <time>2018-03-24T09:36:49Z</time>
      </trkpt>
      <trkpt lat="45.92647" lon="4.72896">
        <ele>169</ele>
        <time>2018-03-24T09:36:50Z</time>
      </trkpt>
      <trkpt lat="45.92652" lon="4.72892">
        <ele>169</ele>
        <time>2018-03-24T09:36:51Z</time>
      </trkpt>
      <trkpt lat="45.92657" lon="4.72889">
        <ele>169</ele>
        <time>2018-03-24T09:36:52Z</time>
      </trkpt>
      <trkpt lat="45.92662" lon="4.72884">
        <ele>169</ele>
        <time>2018-03-24T09:36:53Z</time>
      </trkpt>
      <trkpt lat="45.92667" lon="4.72881">
        <ele>170</ele>
        <time>2018-03-24T09:36:54Z</time>
      </trkpt>
      <trkpt lat="45.92672" lon="4.72877">
        <ele>170</ele>
        <time>2018-03-24T09:36:55Z</time>
      </trkpt>
      <trkpt lat="45.92677" lon="4.72873">
        <ele>169</ele>
        <time>2018-03-24T09:36:56Z</time>
      </trkpt>
      <trkpt lat="45.92682" lon="4.72869">
        <ele>169</ele>
        <time>2018-03-24T09:36:57Z</time>
      </trkpt>
      <trkpt lat="45.92687" lon="4.72866">
        <ele>169</ele>
        <time>2018-03-24T09:36:58Z</time>
      </trkpt>
      <trkpt lat="45.92693" lon="4.72863">
        <ele>169</ele>
        <time>2018-03-24T09:36:59Z</time>
      </trkpt>
      <trkpt lat="45.92698" lon="4.72859">
        <ele>169</ele>
        <time>2018-03-24T09:37:00Z</time>
      </trkpt>
      <trkpt lat="45.92703" lon="4.72855">
        <ele>169</ele>
        <time>2018-03-24T09:37:01Z</time>
      </trkpt>
      <trkpt lat="45.92708" lon="4.72852">
        <ele>169</ele>
        <time>2018-03-24T09:37:02Z</time>
      </trkpt>
      <trkpt lat="45.92713" lon="4.72848">
        <ele>169</ele>
        <time>2018-03-24T09:37:03Z</time>
      </trkpt>
      <trkpt lat="45.92718" lon="4.72845">
        <ele>169</ele>
        <time>2018-03-24T09:37:04Z</time>
      </trkpt>
      <trkpt lat="45.92722" lon="4.72841">
        <ele>169</ele>
        <time>2018-03-24T09:37:05Z</time>
      </trkpt>
      <trkpt lat="45.92727" lon="4.72838">
        <ele>169</ele>
        <time>2018-03-24T09:37:06Z</time>
      </trkpt>
      <trkpt lat="45.92732" lon="4.72835">
        <ele>169</ele>
        <time>2018-03-24T09:37:07Z</time>
      </trkpt>
      <trkpt lat="45.92736" lon="4.72831">
        <ele>169</ele>
        <time>2018-03-24T09:37:08Z</time>
      </trkpt>
      <trkpt lat="45.92741" lon="4.72827">
        <ele>169</ele>
        <time>2018-03-24T09:37:09Z</time>
      </trkpt>
      <trkpt lat="45.92747" lon="4.72822">
        <ele>169</ele>
        <time>2018-03-24T09:37:10Z</time>
      </trkpt>
      <trkpt lat="45.92752" lon="4.72818">
        <ele>170</ele>
        <time>2018-03-24T09:37:11Z</time>
      </trkpt>
      <trkpt lat="45.92757" lon="4.72814">
        <ele>170</ele>
        <time>2018-03-24T09:37:12Z</time>
      </trkpt>
      <trkpt lat="45.92762" lon="4.7281">
        <ele>170</ele>
        <time>2018-03-24T09:37:13Z</time>
      </trkpt>
      <trkpt lat="45.92767" lon="4.72807">
        <ele>170</ele>
        <time>2018-03-24T09:37:14Z</time>
      </trkpt>
      <trkpt lat="45.92772" lon="4.72804">
        <ele>170</ele>
        <time>2018-03-24T09:37:15Z</time>
      </trkpt>
      <trkpt lat="45.92777" lon="4.728">
        <ele>170</ele>
        <time>2018-03-24T09:37:16Z</time>
      </trkpt>
      <trkpt lat="45.92781" lon="4.72797">
        <ele>170</ele>
        <time>2018-03-24T09:37:17Z</time>
      </trkpt>
      <trkpt lat="45.92786" lon="4.72792">
        <ele>170</ele>
        <time>2018-03-24T09:37:18Z</time>
      </trkpt>
      <trkpt lat="45.9279" lon="4.72789">
        <ele>171</ele>
        <time>2018-03-24T09:37:19Z</time>
      </trkpt>
      <trkpt lat="45.92798" lon="4.72793">
        <ele>171</ele>
        <time>2018-03-24T09:37:21Z</time>
      </trkpt>
      <trkpt lat="45.92801" lon="4.72799">
        <ele>171</ele>
        <time>2018-03-24T09:37:22Z</time>
      </trkpt>
      <trkpt lat="45.92803" lon="4.72804">
        <ele>171</ele>
        <time>2018-03-24T09:37:23Z</time>
      </trkpt>
      <trkpt lat="45.92804" lon="4.72811">
        <ele>171</ele>
        <time>2018-03-24T09:37:24Z</time>
      </trkpt>
      <trkpt lat="45.92805" lon="4.72818">
        <ele>171</ele>
        <time>2018-03-24T09:37:25Z</time>
      </trkpt>
      <trkpt lat="45.92806" lon="4.72825">
        <ele>171</ele>
        <time>2018-03-24T09:37:26Z</time>
      </trkpt>
      <trkpt lat="45.92806" lon="4.72832">
        <ele>171</ele>
        <time>2018-03-24T09:37:27Z</time>
      </trkpt>
      <trkpt lat="45.92807" lon="4.72839">
        <ele>170</ele>
        <time>2018-03-24T09:37:28Z</time>
      </trkpt>
      <trkpt lat="45.92807" lon="4.72845">
        <ele>170</ele>
        <time>2018-03-24T09:37:29Z</time>
      </trkpt>
      <trkpt lat="45.9281" lon="4.72851">
        <ele>170</ele>
        <time>2018-03-24T09:37:30Z</time>
      </trkpt>
      <trkpt lat="45.92811" lon="4.72858">
        <ele>170</ele>
        <time>2018-03-24T09:37:31Z</time>
      </trkpt>
      <trkpt lat="45.92812" lon="4.72865">
        <ele>170</ele>
        <time>2018-03-24T09:37:32Z</time>
      </trkpt>
      <trkpt lat="45.92813" lon="4.72872">
        <ele>170</ele>
        <time>2018-03-24T09:37:33Z</time>
      </trkpt>
      <trkpt lat="45.92815" lon="4.72879">
        <ele>170</ele>
        <time>2018-03-24T09:37:34Z</time>
      </trkpt>
      <trkpt lat="45.92817" lon="4.72886">
        <ele>170</ele>
        <time>2018-03-24T09:37:35Z</time>
      </trkpt>
      <trkpt lat="45.92818" lon="4.72894">
        <ele>170</ele>
        <time>2018-03-24T09:37:36Z</time>
      </trkpt>
      <trkpt lat="45.9282" lon="4.72901">
        <ele>170</ele>
        <time>2018-03-24T09:37:37Z</time>
      </trkpt>
      <trkpt lat="45.92821" lon="4.72909">
        <ele>170</ele>
        <time>2018-03-24T09:37:38Z</time>
      </trkpt>
      <trkpt lat="45.92822" lon="4.72917">
        <ele>170</ele>
        <time>2018-03-24T09:37:39Z</time>
      </trkpt>
      <trkpt lat="45.92823" lon="4.72926">
        <ele>170</ele>
        <time>2018-03-24T09:37:40Z</time>
      </trkpt>
      <trkpt lat="45.92824" lon="4.72934">
        <ele>170</ele>
        <time>2018-03-24T09:37:41Z</time>
      </trkpt>
      <trkpt lat="45.92825" lon="4.72944">
        <ele>170</ele>
        <time>2018-03-24T09:37:42Z</time>
      </trkpt>
      <trkpt lat="45.92826" lon="4.72953">
        <ele>170</ele>
        <time>2018-03-24T09:37:43Z</time>
      </trkpt>
      <trkpt lat="45.92827" lon="4.72961">
        <ele>170</ele>
        <time>2018-03-24T09:37:44Z</time>
      </trkpt>
      <trkpt lat="45.92828" lon="4.72969">
        <ele>170</ele>
        <time>2018-03-24T09:37:45Z</time>
      </trkpt>
      <trkpt lat="45.92828" lon="4.72977">
        <ele>170</ele>
        <time>2018-03-24T09:37:46Z</time>
      </trkpt>
      <trkpt lat="45.92829" lon="4.72986">
        <ele>170</ele>
        <time>2018-03-24T09:37:47Z</time>
      </trkpt>
      <trkpt lat="45.92831" lon="4.72996">
        <ele>170</ele>
        <time>2018-03-24T09:37:48Z</time>
      </trkpt>
      <trkpt lat="45.92833" lon="4.73004">
        <ele>170</ele>
        <time>2018-03-24T09:37:49Z</time>
      </trkpt>
      <trkpt lat="45.92834" lon="4.73011">
        <ele>171</ele>
        <time>2018-03-24T09:37:50Z</time>
      </trkpt>
      <trkpt lat="45.92835" lon="4.7302">
        <ele>171</ele>
        <time>2018-03-24T09:37:51Z</time>
      </trkpt>
      <trkpt lat="45.92836" lon="4.73029">
        <ele>171</ele>
        <time>2018-03-24T09:37:52Z</time>
      </trkpt>
      <trkpt lat="45.92837" lon="4.73036">
        <ele>171</ele>
        <time>2018-03-24T09:37:53Z</time>
      </trkpt>
      <trkpt lat="45.92839" lon="4.73045">
        <ele>171</ele>
        <time>2018-03-24T09:37:54Z</time>
      </trkpt>
      <trkpt lat="45.9284" lon="4.73052">
        <ele>171</ele>
        <time>2018-03-24T09:37:55Z</time>
      </trkpt>
      <trkpt lat="45.92841" lon="4.7306">
        <ele>171</ele>
        <time>2018-03-24T09:37:56Z</time>
      </trkpt>
      <trkpt lat="45.92842" lon="4.73067">
        <ele>171</ele>
        <time>2018-03-24T09:37:57Z</time>
      </trkpt>
      <trkpt lat="45.92843" lon="4.73075">
        <ele>171</ele>
        <time>2018-03-24T09:37:58Z</time>
      </trkpt>
      <trkpt lat="45.92843" lon="4.73081">
        <ele>171</ele>
        <time>2018-03-24T09:37:59Z</time>
      </trkpt>
      <trkpt lat="45.92844" lon="4.73088">
        <ele>171</ele>
        <time>2018-03-24T09:38:00Z</time>
      </trkpt>
      <trkpt lat="45.92845" lon="4.73094">
        <ele>171</ele>
        <time>2018-03-24T09:38:01Z</time>
      </trkpt>
      <trkpt lat="45.92847" lon="4.73102">
        <ele>171</ele>
        <time>2018-03-24T09:38:02Z</time>
      </trkpt>
      <trkpt lat="45.92852" lon="4.73106">
        <ele>171</ele>
        <time>2018-03-24T09:38:04Z</time>
      </trkpt>
      <trkpt lat="45.92857" lon="4.73104">
        <ele>171</ele>
        <time>2018-03-24T09:38:05Z</time>
      </trkpt>
      <trkpt lat="45.92863" lon="4.73097">
        <ele>171</ele>
        <time>2018-03-24T09:38:07Z</time>
      </trkpt>
      <trkpt lat="45.92866" lon="4.73094">
        <ele>172</ele>
        <time>2018-03-24T09:38:08Z</time>
      </trkpt>
      <trkpt lat="45.92873" lon="4.73088">
        <ele>172</ele>
        <time>2018-03-24T09:38:10Z</time>
      </trkpt>
      <trkpt lat="45.92877" lon="4.73087">
        <ele>172</ele>
        <time>2018-03-24T09:38:11Z</time>
      </trkpt>
      <trkpt lat="45.92885" lon="4.73082">
        <ele>172</ele>
        <time>2018-03-24T09:38:13Z</time>
      </trkpt>
      <trkpt lat="45.92889" lon="4.73077">
        <ele>172</ele>
        <time>2018-03-24T09:38:14Z</time>
      </trkpt>
      <trkpt lat="45.92892" lon="4.73071">
        <ele>172</ele>
        <time>2018-03-24T09:38:15Z</time>
      </trkpt>
      <trkpt lat="45.92896" lon="4.73064">
        <ele>172</ele>
        <time>2018-03-24T09:38:16Z</time>
      </trkpt>
      <trkpt lat="45.92899" lon="4.73058">
        <ele>172</ele>
        <time>2018-03-24T09:38:17Z</time>
      </trkpt>
      <trkpt lat="45.92901" lon="4.73051">
        <ele>172</ele>
        <time>2018-03-24T09:38:18Z</time>
      </trkpt>
      <trkpt lat="45.92905" lon="4.73046">
        <ele>172</ele>
        <time>2018-03-24T09:38:19Z</time>
      </trkpt>
      <trkpt lat="45.92909" lon="4.7304">
        <ele>172</ele>
        <time>2018-03-24T09:38:20Z</time>
      </trkpt>
      <trkpt lat="45.92913" lon="4.73034">
        <ele>172</ele>
        <time>2018-03-24T09:38:21Z</time>
      </trkpt>
      <trkpt lat="45.92917" lon="4.73029">
        <ele>172</ele>
        <time>2018-03-24T09:38:22Z</time>
      </trkpt>
      <trkpt lat="45.92921" lon="4.73024">
        <ele>172</ele>
        <time>2018-03-24T09:38:23Z</time>
      </trkpt>
      <trkpt lat="45.92926" lon="4.73018">
        <ele>171</ele>
        <time>2018-03-24T09:38:24Z</time>
      </trkpt>
      <trkpt lat="45.9293" lon="4.73013">
        <ele>171</ele>
        <time>2018-03-24T09:38:25Z</time>
      </trkpt>
      <trkpt lat="45.92935" lon="4.73008">
        <ele>171</ele>
        <time>2018-03-24T09:38:26Z</time>
      </trkpt>
      <trkpt lat="45.92939" lon="4.73002">
        <ele>171</ele>
        <time>2018-03-24T09:38:27Z</time>
      </trkpt>
      <trkpt lat="45.92944" lon="4.72996">
        <ele>171</ele>
        <time>2018-03-24T09:38:28Z</time>
      </trkpt>
      <trkpt lat="45.92948" lon="4.72991">
        <ele>171</ele>
        <time>2018-03-24T09:38:29Z</time>
      </trkpt>
      <trkpt lat="45.92953" lon="4.72986">
        <ele>171</ele>
        <time>2018-03-24T09:38:30Z</time>
      </trkpt>
      <trkpt lat="45.92958" lon="4.7298">
        <ele>171</ele>
        <time>2018-03-24T09:38:31Z</time>
      </trkpt>
      <trkpt lat="45.92962" lon="4.72976">
        <ele>171</ele>
        <time>2018-03-24T09:38:32Z</time>
      </trkpt>
      <trkpt lat="45.92967" lon="4.7297">
        <ele>171</ele>
        <time>2018-03-24T09:38:33Z</time>
      </trkpt>
      <trkpt lat="45.92971" lon="4.72966">
        <ele>171</ele>
        <time>2018-03-24T09:38:34Z</time>
      </trkpt>
      <trkpt lat="45.92976" lon="4.7296">
        <ele>171</ele>
        <time>2018-03-24T09:38:35Z</time>
      </trkpt>
      <trkpt lat="45.92981" lon="4.72954">
        <ele>171</ele>
        <time>2018-03-24T09:38:36Z</time>
      </trkpt>
      <trkpt lat="45.92985" lon="4.72948">
        <ele>171</ele>
        <time>2018-03-24T09:38:37Z</time>
      </trkpt>
      <trkpt lat="45.9299" lon="4.72943">
        <ele>171</ele>
        <time>2018-03-24T09:38:38Z</time>
      </trkpt>
      <trkpt lat="45.92994" lon="4.72937">
        <ele>171</ele>
        <time>2018-03-24T09:38:39Z</time>
      </trkpt>
      <trkpt lat="45.93" lon="4.72931">
        <ele>170</ele>
        <time>2018-03-24T09:38:40Z</time>
      </trkpt>
      <trkpt lat="45.93004" lon="4.72925">
        <ele>170</ele>
        <time>2018-03-24T09:38:41Z</time>
      </trkpt>
      <trkpt lat="45.93008" lon="4.72919">
        <ele>170</ele>
        <time>2018-03-24T09:38:42Z</time>
      </trkpt>
      <trkpt lat="45.93013" lon="4.72914">
        <ele>171</ele>
        <time>2018-03-24T09:38:43Z</time>
      </trkpt>
      <trkpt lat="45.93017" lon="4.72908">
        <ele>171</ele>
        <time>2018-03-24T09:38:44Z</time>
      </trkpt>
      <trkpt lat="45.93022" lon="4.72901">
        <ele>172</ele>
        <time>2018-03-24T09:38:45Z</time>
      </trkpt>
      <trkpt lat="45.93027" lon="4.72896">
        <ele>172</ele>
        <time>2018-03-24T09:38:46Z</time>
      </trkpt>
      <trkpt lat="45.93031" lon="4.72889">
        <ele>172</ele>
        <time>2018-03-24T09:38:47Z</time>
      </trkpt>
      <trkpt lat="45.93036" lon="4.72884">
        <ele>172</ele>
        <time>2018-03-24T09:38:48Z</time>
      </trkpt>
      <trkpt lat="45.9304" lon="4.72878">
        <ele>172</ele>
        <time>2018-03-24T09:38:49Z</time>
      </trkpt>
      <trkpt lat="45.93045" lon="4.72872">
        <ele>172</ele>
        <time>2018-03-24T09:38:50Z</time>
      </trkpt>
      <trkpt lat="45.93051" lon="4.72867">
        <ele>172</ele>
        <time>2018-03-24T09:38:51Z</time>
      </trkpt>
      <trkpt lat="45.93055" lon="4.72862">
        <ele>172</ele>
        <time>2018-03-24T09:38:52Z</time>
      </trkpt>
      <trkpt lat="45.93059" lon="4.72857">
        <ele>172</ele>
        <time>2018-03-24T09:38:53Z</time>
      </trkpt>
      <trkpt lat="45.93064" lon="4.72852">
        <ele>172</ele>
        <time>2018-03-24T09:38:54Z</time>
      </trkpt>
      <trkpt lat="45.93067" lon="4.72846">
        <ele>172</ele>
        <time>2018-03-24T09:38:55Z</time>
      </trkpt>
      <trkpt lat="45.9307" lon="4.72841">
        <ele>173</ele>
        <time>2018-03-24T09:38:56Z</time>
      </trkpt>
      <trkpt lat="45.93071" lon="4.72834">
        <ele>173</ele>
        <time>2018-03-24T09:38:57Z</time>
      </trkpt>
      <trkpt lat="45.93074" lon="4.7283">
        <ele>173</ele>
        <time>2018-03-24T09:38:58Z</time>
      </trkpt>
      <trkpt lat="45.93077" lon="4.72823">
        <ele>173</ele>
        <time>2018-03-24T09:38:59Z</time>
      </trkpt>
      <trkpt lat="45.9308" lon="4.72818">
        <ele>172</ele>
        <time>2018-03-24T09:39:00Z</time>
      </trkpt>
      <trkpt lat="45.93089" lon="4.7281">
        <ele>172</ele>
        <time>2018-03-24T09:39:01Z</time>
      </trkpt>
      <trkpt lat="45.931" lon="4.72812">
        <ele>172</ele>
        <time>2018-03-24T09:39:02Z</time>
      </trkpt>
      <trkpt lat="45.93105" lon="4.72807">
        <ele>171</ele>
        <time>2018-03-24T09:39:03Z</time>
      </trkpt>
      <trkpt lat="45.93111" lon="4.72801">
        <ele>171</ele>
        <time>2018-03-24T09:39:04Z</time>
      </trkpt>
      <trkpt lat="45.93116" lon="4.72796">
        <ele>171</ele>
        <time>2018-03-24T09:39:05Z</time>
      </trkpt>
      <trkpt lat="45.93121" lon="4.72791">
        <ele>171</ele>
        <time>2018-03-24T09:39:06Z</time>
      </trkpt>
      <trkpt lat="45.93125" lon="4.72785">
        <ele>171</ele>
        <time>2018-03-24T09:39:07Z</time>
      </trkpt>
      <trkpt lat="45.9313" lon="4.7278">
        <ele>171</ele>
        <time>2018-03-24T09:39:08Z</time>
      </trkpt>
      <trkpt lat="45.93134" lon="4.72775">
        <ele>171</ele>
        <time>2018-03-24T09:39:09Z</time>
      </trkpt>
      <trkpt lat="45.93138" lon="4.7277">
        <ele>171</ele>
        <time>2018-03-24T09:39:10Z</time>
      </trkpt>
      <trkpt lat="45.93143" lon="4.72765">
        <ele>171</ele>
        <time>2018-03-24T09:39:11Z</time>
      </trkpt>
      <trkpt lat="45.93147" lon="4.72759">
        <ele>171</ele>
        <time>2018-03-24T09:39:12Z</time>
      </trkpt>
      <trkpt lat="45.93152" lon="4.72753">
        <ele>170</ele>
        <time>2018-03-24T09:39:13Z</time>
      </trkpt>
      <trkpt lat="45.93157" lon="4.72748">
        <ele>170</ele>
        <time>2018-03-24T09:39:14Z</time>
      </trkpt>
      <trkpt lat="45.93161" lon="4.72742">
        <ele>170</ele>
        <time>2018-03-24T09:39:15Z</time>
      </trkpt>
      <trkpt lat="45.93166" lon="4.72736">
        <ele>170</ele>
        <time>2018-03-24T09:39:16Z</time>
      </trkpt>
      <trkpt lat="45.93171" lon="4.72731">
        <ele>170</ele>
        <time>2018-03-24T09:39:17Z</time>
      </trkpt>
      <trkpt lat="45.93175" lon="4.72725">
        <ele>170</ele>
        <time>2018-03-24T09:39:18Z</time>
      </trkpt>
      <trkpt lat="45.9318" lon="4.72719">
        <ele>169</ele>
        <time>2018-03-24T09:39:19Z</time>
      </trkpt>
      <trkpt lat="45.93185" lon="4.72713">
        <ele>169</ele>
        <time>2018-03-24T09:39:20Z</time>
      </trkpt>
      <trkpt lat="45.9319" lon="4.72708">
        <ele>169</ele>
        <time>2018-03-24T09:39:21Z</time>
      </trkpt>
      <trkpt lat="45.93195" lon="4.72702">
        <ele>169</ele>
        <time>2018-03-24T09:39:22Z</time>
      </trkpt>
      <trkpt lat="45.93199" lon="4.72696">
        <ele>169</ele>
        <time>2018-03-24T09:39:23Z</time>
      </trkpt>
      <trkpt lat="45.93204" lon="4.7269">
        <ele>169</ele>
        <time>2018-03-24T09:39:24Z</time>
      </trkpt>
      <trkpt lat="45.93209" lon="4.72683">
        <ele>169</ele>
        <time>2018-03-24T09:39:25Z</time>
      </trkpt>
      <trkpt lat="45.93215" lon="4.72678">
        <ele>169</ele>
        <time>2018-03-24T09:39:26Z</time>
      </trkpt>
      <trkpt lat="45.93219" lon="4.72672">
        <ele>169</ele>
        <time>2018-03-24T09:39:27Z</time>
      </trkpt>
      <trkpt lat="45.93224" lon="4.72666">
        <ele>170</ele>
        <time>2018-03-24T09:39:28Z</time>
      </trkpt>
      <trkpt lat="45.93229" lon="4.7266">
        <ele>169</ele>
        <time>2018-03-24T09:39:29Z</time>
      </trkpt>
      <trkpt lat="45.93234" lon="4.72655">
        <ele>169</ele>
        <time>2018-03-24T09:39:30Z</time>
      </trkpt>
      <trkpt lat="45.93239" lon="4.7265">
        <ele>169</ele>
        <time>2018-03-24T09:39:31Z</time>
      </trkpt>
      <trkpt lat="45.93243" lon="4.72643">
        <ele>170</ele>
        <time>2018-03-24T09:39:32Z</time>
      </trkpt>
      <trkpt lat="45.93248" lon="4.72639">
        <ele>170</ele>
        <time>2018-03-24T09:39:33Z</time>
      </trkpt>
      <trkpt lat="45.93253" lon="4.72633">
        <ele>170</ele>
        <time>2018-03-24T09:39:34Z</time>
      </trkpt>
      <trkpt lat="45.93257" lon="4.72627">
        <ele>170</ele>
        <time>2018-03-24T09:39:35Z</time>
      </trkpt>
      <trkpt lat="45.93262" lon="4.72622">
        <ele>170</ele>
        <time>2018-03-24T09:39:36Z</time>
      </trkpt>
      <trkpt lat="45.93265" lon="4.72617">
        <ele>170</ele>
        <time>2018-03-24T09:39:37Z</time>
      </trkpt>
      <trkpt lat="45.9327" lon="4.72612">
        <ele>170</ele>
        <time>2018-03-24T09:39:38Z</time>
      </trkpt>
      <trkpt lat="45.93275" lon="4.72606">
        <ele>170</ele>
        <time>2018-03-24T09:39:39Z</time>
      </trkpt>
      <trkpt lat="45.9328" lon="4.726">
        <ele>170</ele>
        <time>2018-03-24T09:39:40Z</time>
      </trkpt>
      <trkpt lat="45.93284" lon="4.72594">
        <ele>170</ele>
        <time>2018-03-24T09:39:41Z</time>
      </trkpt>
      <trkpt lat="45.93289" lon="4.72589">
        <ele>170</ele>
        <time>2018-03-24T09:39:42Z</time>
      </trkpt>
      <trkpt lat="45.93294" lon="4.72583">
        <ele>170</ele>
        <time>2018-03-24T09:39:43Z</time>
      </trkpt>
      <trkpt lat="45.93299" lon="4.7258">
        <ele>171</ele>
        <time>2018-03-24T09:39:44Z</time>
      </trkpt>
      <trkpt lat="45.93302" lon="4.72572">
        <ele>171</ele>
        <time>2018-03-24T09:39:45Z</time>
      </trkpt>
      <trkpt lat="45.93307" lon="4.72567">
        <ele>171</ele>
        <time>2018-03-24T09:39:46Z</time>
      </trkpt>
      <trkpt lat="45.93312" lon="4.72562">
        <ele>171</ele>
        <time>2018-03-24T09:39:47Z</time>
      </trkpt>
      <trkpt lat="45.93317" lon="4.72557">
        <ele>171</ele>
        <time>2018-03-24T09:39:48Z</time>
      </trkpt>
      <trkpt lat="45.93321" lon="4.72551">
        <ele>172</ele>
        <time>2018-03-24T09:39:49Z</time>
      </trkpt>
      <trkpt lat="45.93325" lon="4.72546">
        <ele>172</ele>
        <time>2018-03-24T09:39:50Z</time>
      </trkpt>
      <trkpt lat="45.9333" lon="4.72542">
        <ele>172</ele>
        <time>2018-03-24T09:39:51Z</time>
      </trkpt>
      <trkpt lat="45.93334" lon="4.72537">
        <ele>171</ele>
        <time>2018-03-24T09:39:52Z</time>
      </trkpt>
      <trkpt lat="45.93338" lon="4.72532">
        <ele>172</ele>
        <time>2018-03-24T09:39:53Z</time>
      </trkpt>
      <trkpt lat="45.93343" lon="4.72528">
        <ele>172</ele>
        <time>2018-03-24T09:39:54Z</time>
      </trkpt>
      <trkpt lat="45.93347" lon="4.72522">
        <ele>172</ele>
        <time>2018-03-24T09:39:55Z</time>
      </trkpt>
      <trkpt lat="45.9335" lon="4.72517">
        <ele>172</ele>
        <time>2018-03-24T09:39:56Z</time>
      </trkpt>
      <trkpt lat="45.93354" lon="4.72512">
        <ele>172</ele>
        <time>2018-03-24T09:39:57Z</time>
      </trkpt>
      <trkpt lat="45.93359" lon="4.72508">
        <ele>172</ele>
        <time>2018-03-24T09:39:58Z</time>
      </trkpt>
      <trkpt lat="45.93364" lon="4.72503">
        <ele>172</ele>
        <time>2018-03-24T09:39:59Z</time>
      </trkpt>
      <trkpt lat="45.93368" lon="4.72498">
        <ele>173</ele>
        <time>2018-03-24T09:40:00Z</time>
      </trkpt>
      <trkpt lat="45.93373" lon="4.72493">
        <ele>173</ele>
        <time>2018-03-24T09:40:01Z</time>
      </trkpt>
      <trkpt lat="45.93376" lon="4.72487">
        <ele>173</ele>
        <time>2018-03-24T09:40:02Z</time>
      </trkpt>
      <trkpt lat="45.93381" lon="4.72481">
        <ele>173</ele>
        <time>2018-03-24T09:40:03Z</time>
      </trkpt>
      <trkpt lat="45.93385" lon="4.72476">
        <ele>173</ele>
        <time>2018-03-24T09:40:04Z</time>
      </trkpt>
      <trkpt lat="45.9339" lon="4.72471">
        <ele>173</ele>
        <time>2018-03-24T09:40:05Z</time>
      </trkpt>
      <trkpt lat="45.93393" lon="4.72465">
        <ele>173</ele>
        <time>2018-03-24T09:40:06Z</time>
      </trkpt>
      <trkpt lat="45.93395" lon="4.7246">
        <ele>173</ele>
        <time>2018-03-24T09:40:07Z</time>
      </trkpt>
      <trkpt lat="45.93397" lon="4.72453">
        <ele>173</ele>
        <time>2018-03-24T09:40:08Z</time>
      </trkpt>
      <trkpt lat="45.93399" lon="4.72446">
        <ele>173</ele>
        <time>2018-03-24T09:40:09Z</time>
      </trkpt>
      <trkpt lat="45.934" lon="4.7244">
        <ele>173</ele>
        <time>2018-03-24T09:40:10Z</time>
      </trkpt>
      <trkpt lat="45.93405" lon="4.7243">
        <ele>173</ele>
        <time>2018-03-24T09:40:12Z</time>
      </trkpt>
      <trkpt lat="45.93408" lon="4.72424">
        <ele>174</ele>
        <time>2018-03-24T09:40:13Z</time>
      </trkpt>
      <trkpt lat="45.93412" lon="4.7242">
        <ele>174</ele>
        <time>2018-03-24T09:40:14Z</time>
      </trkpt>
      <trkpt lat="45.93416" lon="4.72417">
        <ele>174</ele>
        <time>2018-03-24T09:40:15Z</time>
      </trkpt>
      <trkpt lat="45.9342" lon="4.72415">
        <ele>174</ele>
        <time>2018-03-24T09:40:16Z</time>
      </trkpt>
      <trkpt lat="45.93425" lon="4.72411">
        <ele>174</ele>
        <time>2018-03-24T09:40:17Z</time>
      </trkpt>
      <trkpt lat="45.9343" lon="4.72409">
        <ele>174</ele>
        <time>2018-03-24T09:40:18Z</time>
      </trkpt>
      <trkpt lat="45.93435" lon="4.72406">
        <ele>174</ele>
        <time>2018-03-24T09:40:19Z</time>
      </trkpt>
      <trkpt lat="45.9344" lon="4.72404">
        <ele>173</ele>
        <time>2018-03-24T09:40:20Z</time>
      </trkpt>
      <trkpt lat="45.93445" lon="4.724">
        <ele>173</ele>
        <time>2018-03-24T09:40:21Z</time>
      </trkpt>
      <trkpt lat="45.9345" lon="4.72397">
        <ele>173</ele>
        <time>2018-03-24T09:40:22Z</time>
      </trkpt>
      <trkpt lat="45.93457" lon="4.72391">
        <ele>173</ele>
        <time>2018-03-24T09:40:23Z</time>
      </trkpt>
      <trkpt lat="45.93462" lon="4.72386">
        <ele>173</ele>
        <time>2018-03-24T09:40:24Z</time>
      </trkpt>
      <trkpt lat="45.93467" lon="4.7238">
        <ele>173</ele>
        <time>2018-03-24T09:40:25Z</time>
      </trkpt>
      <trkpt lat="45.93471" lon="4.72375">
        <ele>173</ele>
        <time>2018-03-24T09:40:26Z</time>
      </trkpt>
      <trkpt lat="45.93474" lon="4.72369">
        <ele>173</ele>
        <time>2018-03-24T09:40:27Z</time>
      </trkpt>
      <trkpt lat="45.93478" lon="4.72364">
        <ele>173</ele>
        <time>2018-03-24T09:40:28Z</time>
      </trkpt>
      <trkpt lat="45.93482" lon="4.72358">
        <ele>173</ele>
        <time>2018-03-24T09:40:29Z</time>
      </trkpt>
      <trkpt lat="45.93486" lon="4.72353">
        <ele>173</ele>
        <time>2018-03-24T09:40:30Z</time>
      </trkpt>
      <trkpt lat="45.93491" lon="4.72348">
        <ele>173</ele>
        <time>2018-03-24T09:40:31Z</time>
      </trkpt>
      <trkpt lat="45.93496" lon="4.72343">
        <ele>173</ele>
        <time>2018-03-24T09:40:32Z</time>
      </trkpt>
      <trkpt lat="45.93502" lon="4.72337">
        <ele>173</ele>
        <time>2018-03-24T09:40:33Z</time>
      </trkpt>
      <trkpt lat="45.93506" lon="4.72332">
        <ele>173</ele>
        <time>2018-03-24T09:40:34Z</time>
      </trkpt>
      <trkpt lat="45.9351" lon="4.72326">
        <ele>173</ele>
        <time>2018-03-24T09:40:35Z</time>
      </trkpt>
      <trkpt lat="45.93513" lon="4.72321">
        <ele>173</ele>
        <time>2018-03-24T09:40:36Z</time>
      </trkpt>
      <trkpt lat="45.93517" lon="4.72315">
        <ele>173</ele>
        <time>2018-03-24T09:40:37Z</time>
      </trkpt>
      <trkpt lat="45.93521" lon="4.72305">
        <ele>173</ele>
        <time>2018-03-24T09:40:39Z</time>
      </trkpt>
      <trkpt lat="45.93523" lon="4.72299">
        <ele>172</ele>
        <time>2018-03-24T09:40:40Z</time>
      </trkpt>
      <trkpt lat="45.93525" lon="4.72293">
        <ele>172</ele>
        <time>2018-03-24T09:40:41Z</time>
      </trkpt>
      <trkpt lat="45.93528" lon="4.72287">
        <ele>172</ele>
        <time>2018-03-24T09:40:42Z</time>
      </trkpt>
      <trkpt lat="45.9353" lon="4.7228">
        <ele>172</ele>
        <time>2018-03-24T09:40:43Z</time>
      </trkpt>
      <trkpt lat="45.93532" lon="4.72275">
        <ele>172</ele>
        <time>2018-03-24T09:40:44Z</time>
      </trkpt>
      <trkpt lat="45.93535" lon="4.72269">
        <ele>172</ele>
        <time>2018-03-24T09:40:45Z</time>
      </trkpt>
      <trkpt lat="45.93537" lon="4.72263">
        <ele>172</ele>
        <time>2018-03-24T09:40:46Z</time>
      </trkpt>
      <trkpt lat="45.93539" lon="4.72257">
        <ele>172</ele>
        <time>2018-03-24T09:40:47Z</time>
      </trkpt>
      <trkpt lat="45.93542" lon="4.72251">
        <ele>172</ele>
        <time>2018-03-24T09:40:48Z</time>
      </trkpt>
      <trkpt lat="45.93545" lon="4.72245">
        <ele>172</ele>
        <time>2018-03-24T09:40:49Z</time>
      </trkpt>
      <trkpt lat="45.93547" lon="4.72239">
        <ele>172</ele>
        <time>2018-03-24T09:40:50Z</time>
      </trkpt>
      <trkpt lat="45.9355" lon="4.72233">
        <ele>172</ele>
        <time>2018-03-24T09:40:51Z</time>
      </trkpt>
      <trkpt lat="45.93554" lon="4.72226">
        <ele>173</ele>
        <time>2018-03-24T09:40:52Z</time>
      </trkpt>
      <trkpt lat="45.93557" lon="4.7222">
        <ele>173</ele>
        <time>2018-03-24T09:40:53Z</time>
      </trkpt>
      <trkpt lat="45.93562" lon="4.72215">
        <ele>173</ele>
        <time>2018-03-24T09:40:54Z</time>
      </trkpt>
      <trkpt lat="45.93566" lon="4.7221">
        <ele>173</ele>
        <time>2018-03-24T09:40:55Z</time>
      </trkpt>
      <trkpt lat="45.93571" lon="4.72205">
        <ele>173</ele>
        <time>2018-03-24T09:40:56Z</time>
      </trkpt>
      <trkpt lat="45.93575" lon="4.72201">
        <ele>173</ele>
        <time>2018-03-24T09:40:57Z</time>
      </trkpt>
      <trkpt lat="45.9358" lon="4.72196">
        <ele>173</ele>
        <time>2018-03-24T09:40:58Z</time>
      </trkpt>
      <trkpt lat="45.93585" lon="4.72192">
        <ele>173</ele>
        <time>2018-03-24T09:40:59Z</time>
      </trkpt>
      <trkpt lat="45.93589" lon="4.72189">
        <ele>173</ele>
        <time>2018-03-24T09:41:00Z</time>
      </trkpt>
      <trkpt lat="45.93593" lon="4.72184">
        <ele>173</ele>
        <time>2018-03-24T09:41:01Z</time>
      </trkpt>
      <trkpt lat="45.93598" lon="4.72181">
        <ele>173</ele>
        <time>2018-03-24T09:41:02Z</time>
      </trkpt>
      <trkpt lat="45.93603" lon="4.72177">
        <ele>173</ele>
        <time>2018-03-24T09:41:03Z</time>
      </trkpt>
      <trkpt lat="45.93608" lon="4.72173">
        <ele>173</ele>
        <time>2018-03-24T09:41:04Z</time>
      </trkpt>
      <trkpt lat="45.93613" lon="4.7217">
        <ele>173</ele>
        <time>2018-03-24T09:41:05Z</time>
      </trkpt>
      <trkpt lat="45.93616" lon="4.72167">
        <ele>173</ele>
        <time>2018-03-24T09:41:06Z</time>
      </trkpt>
      <trkpt lat="45.93623" lon="4.7216">
        <ele>173</ele>
        <time>2018-03-24T09:41:07Z</time>
      </trkpt>
      <trkpt lat="45.93628" lon="4.72155">
        <ele>173</ele>
        <time>2018-03-24T09:41:08Z</time>
      </trkpt>
      <trkpt lat="45.93631" lon="4.72149">
        <ele>173</ele>
        <time>2018-03-24T09:41:09Z</time>
      </trkpt>
      <trkpt lat="45.93634" lon="4.72144">
        <ele>173</ele>
        <time>2018-03-24T09:41:10Z</time>
      </trkpt>
      <trkpt lat="45.93638" lon="4.72138">
        <ele>173</ele>
        <time>2018-03-24T09:41:11Z</time>
      </trkpt>
      <trkpt lat="45.93641" lon="4.72132">
        <ele>173</ele>
        <time>2018-03-24T09:41:12Z</time>
      </trkpt>
      <trkpt lat="45.93645" lon="4.72127">
        <ele>173</ele>
        <time>2018-03-24T09:41:13Z</time>
      </trkpt>
      <trkpt lat="45.9365" lon="4.7212">
        <ele>173</ele>
        <time>2018-03-24T09:41:14Z</time>
      </trkpt>
      <trkpt lat="45.93653" lon="4.72114">
        <ele>173</ele>
        <time>2018-03-24T09:41:15Z</time>
      </trkpt>
      <trkpt lat="45.93658" lon="4.72106">
        <ele>173</ele>
        <time>2018-03-24T09:41:16Z</time>
      </trkpt>
      <trkpt lat="45.93661" lon="4.721">
        <ele>173</ele>
        <time>2018-03-24T09:41:17Z</time>
      </trkpt>
      <trkpt lat="45.93665" lon="4.72093">
        <ele>172</ele>
        <time>2018-03-24T09:41:18Z</time>
      </trkpt>
      <trkpt lat="45.93668" lon="4.72087">
        <ele>172</ele>
        <time>2018-03-24T09:41:19Z</time>
      </trkpt>
      <trkpt lat="45.93671" lon="4.72083">
        <ele>172</ele>
        <time>2018-03-24T09:41:20Z</time>
      </trkpt>
      <trkpt lat="45.93676" lon="4.72077">
        <ele>172</ele>
        <time>2018-03-24T09:41:21Z</time>
      </trkpt>
      <trkpt lat="45.9368" lon="4.72069">
        <ele>172</ele>
        <time>2018-03-24T09:41:22Z</time>
      </trkpt>
      <trkpt lat="45.93684" lon="4.72063">
        <ele>172</ele>
        <time>2018-03-24T09:41:23Z</time>
      </trkpt>
      <trkpt lat="45.93687" lon="4.72058">
        <ele>172</ele>
        <time>2018-03-24T09:41:24Z</time>
      </trkpt>
      <trkpt lat="45.9369" lon="4.7205">
        <ele>172</ele>
        <time>2018-03-24T09:41:25Z</time>
      </trkpt>
      <trkpt lat="45.93694" lon="4.72044">
        <ele>173</ele>
        <time>2018-03-24T09:41:26Z</time>
      </trkpt>
      <trkpt lat="45.93697" lon="4.72037">
        <ele>172</ele>
        <time>2018-03-24T09:41:27Z</time>
      </trkpt>
      <trkpt lat="45.93701" lon="4.72031">
        <ele>172</ele>
        <time>2018-03-24T09:41:28Z</time>
      </trkpt>
      <trkpt lat="45.93704" lon="4.72025">
        <ele>172</ele>
        <time>2018-03-24T09:41:29Z</time>
      </trkpt>
      <trkpt lat="45.93708" lon="4.72019">
        <ele>172</ele>
        <time>2018-03-24T09:41:30Z</time>
      </trkpt>
      <trkpt lat="45.93712" lon="4.72013">
        <ele>172</ele>
        <time>2018-03-24T09:41:31Z</time>
      </trkpt>
      <trkpt lat="45.93715" lon="4.72008">
        <ele>172</ele>
        <time>2018-03-24T09:41:32Z</time>
      </trkpt>
      <trkpt lat="45.93719" lon="4.72001">
        <ele>172</ele>
        <time>2018-03-24T09:41:33Z</time>
      </trkpt>
      <trkpt lat="45.93722" lon="4.71993">
        <ele>172</ele>
        <time>2018-03-24T09:41:34Z</time>
      </trkpt>
      <trkpt lat="45.93725" lon="4.71987">
        <ele>172</ele>
        <time>2018-03-24T09:41:35Z</time>
      </trkpt>
      <trkpt lat="45.93729" lon="4.71981">
        <ele>172</ele>
        <time>2018-03-24T09:41:36Z</time>
      </trkpt>
      <trkpt lat="45.93731" lon="4.71976">
        <ele>172</ele>
        <time>2018-03-24T09:41:37Z</time>
      </trkpt>
      <trkpt lat="45.93735" lon="4.7197">
        <ele>172</ele>
        <time>2018-03-24T09:41:38Z</time>
      </trkpt>
      <trkpt lat="45.93742" lon="4.71964">
        <ele>172</ele>
        <time>2018-03-24T09:41:40Z</time>
      </trkpt>
      <trkpt lat="45.93746" lon="4.71961">
        <ele>172</ele>
        <time>2018-03-24T09:41:41Z</time>
      </trkpt>
      <trkpt lat="45.93751" lon="4.71958">
        <ele>171</ele>
        <time>2018-03-24T09:41:42Z</time>
      </trkpt>
      <trkpt lat="45.93755" lon="4.71955">
        <ele>171</ele>
        <time>2018-03-24T09:41:43Z</time>
      </trkpt>
      <trkpt lat="45.93761" lon="4.71945">
        <ele>171</ele>
        <time>2018-03-24T09:41:53Z</time>
      </trkpt>
      <trkpt lat="45.93761" lon="4.71945">
        <ele>171</ele>
        <time>2018-03-24T09:41:54Z</time>
      </trkpt>
      <trkpt lat="45.93765" lon="4.71936">
        <ele>171</ele>
        <time>2018-03-24T09:42:06Z</time>
      </trkpt>
      <trkpt lat="45.93767" lon="4.71934">
        <ele>171</ele>
        <time>2018-03-24T09:42:07Z</time>
      </trkpt>
      <trkpt lat="45.93771" lon="4.71928">
        <ele>171</ele>
        <time>2018-03-24T09:42:09Z</time>
      </trkpt>
      <trkpt lat="45.93775" lon="4.71919">
        <ele>171</ele>
        <time>2018-03-24T09:42:10Z</time>
      </trkpt>
      <trkpt lat="45.9378" lon="4.71908">
        <ele>172</ele>
        <time>2018-03-24T09:42:12Z</time>
      </trkpt>
      <trkpt lat="45.93782" lon="4.71903">
        <ele>172</ele>
        <time>2018-03-24T09:42:13Z</time>
      </trkpt>
      <trkpt lat="45.93784" lon="4.71891">
        <ele>172</ele>
        <time>2018-03-24T09:42:15Z</time>
      </trkpt>
      <trkpt lat="45.93784" lon="4.71884">
        <ele>172</ele>
        <time>2018-03-24T09:42:16Z</time>
      </trkpt>
      <trkpt lat="45.93786" lon="4.71877">
        <ele>172</ele>
        <time>2018-03-24T09:42:17Z</time>
      </trkpt>
      <trkpt lat="45.93789" lon="4.71871">
        <ele>172</ele>
        <time>2018-03-24T09:42:18Z</time>
      </trkpt>
      <trkpt lat="45.93793" lon="4.71865">
        <ele>172</ele>
        <time>2018-03-24T09:42:19Z</time>
      </trkpt>
      <trkpt lat="45.93796" lon="4.71859">
        <ele>172</ele>
        <time>2018-03-24T09:42:20Z</time>
      </trkpt>
      <trkpt lat="45.938" lon="4.71854">
        <ele>172</ele>
        <time>2018-03-24T09:42:21Z</time>
      </trkpt>
      <trkpt lat="45.93804" lon="4.71848">
        <ele>172</ele>
        <time>2018-03-24T09:42:22Z</time>
      </trkpt>
      <trkpt lat="45.93807" lon="4.71842">
        <ele>172</ele>
        <time>2018-03-24T09:42:23Z</time>
      </trkpt>
      <trkpt lat="45.9381" lon="4.71836">
        <ele>172</ele>
        <time>2018-03-24T09:42:24Z</time>
      </trkpt>
      <trkpt lat="45.93813" lon="4.7183">
        <ele>173</ele>
        <time>2018-03-24T09:42:25Z</time>
      </trkpt>
      <trkpt lat="45.93818" lon="4.71824">
        <ele>173</ele>
        <time>2018-03-24T09:42:26Z</time>
      </trkpt>
      <trkpt lat="45.93821" lon="4.71818">
        <ele>173</ele>
        <time>2018-03-24T09:42:27Z</time>
      </trkpt>
      <trkpt lat="45.93824" lon="4.71812">
        <ele>173</ele>
        <time>2018-03-24T09:42:28Z</time>
      </trkpt>
      <trkpt lat="45.93828" lon="4.71806">
        <ele>173</ele>
        <time>2018-03-24T09:42:29Z</time>
      </trkpt>
      <trkpt lat="45.93832" lon="4.718">
        <ele>174</ele>
        <time>2018-03-24T09:42:30Z</time>
      </trkpt>
      <trkpt lat="45.93835" lon="4.71793">
        <ele>173</ele>
        <time>2018-03-24T09:42:31Z</time>
      </trkpt>
      <trkpt lat="45.93839" lon="4.71787">
        <ele>173</ele>
        <time>2018-03-24T09:42:32Z</time>
      </trkpt>
      <trkpt lat="45.93842" lon="4.71782">
        <ele>173</ele>
        <time>2018-03-24T09:42:33Z</time>
      </trkpt>
      <trkpt lat="45.93848" lon="4.71777">
        <ele>173</ele>
        <time>2018-03-24T09:42:34Z</time>
      </trkpt>
      <trkpt lat="45.93853" lon="4.71771">
        <ele>173</ele>
        <time>2018-03-24T09:42:35Z</time>
      </trkpt>
      <trkpt lat="45.93857" lon="4.71764">
        <ele>173</ele>
        <time>2018-03-24T09:42:36Z</time>
      </trkpt>
      <trkpt lat="45.93861" lon="4.71758">
        <ele>173</ele>
        <time>2018-03-24T09:42:37Z</time>
      </trkpt>
      <trkpt lat="45.93864" lon="4.71753">
        <ele>173</ele>
        <time>2018-03-24T09:42:38Z</time>
      </trkpt>
      <trkpt lat="45.93867" lon="4.71747">
        <ele>174</ele>
        <time>2018-03-24T09:42:39Z</time>
      </trkpt>
      <trkpt lat="45.93872" lon="4.71741">
        <ele>174</ele>
        <time>2018-03-24T09:42:40Z</time>
      </trkpt>
      <trkpt lat="45.93876" lon="4.71737">
        <ele>174</ele>
        <time>2018-03-24T09:42:41Z</time>
      </trkpt>
      <trkpt lat="45.93881" lon="4.71733">
        <ele>174</ele>
        <time>2018-03-24T09:42:42Z</time>
      </trkpt>
      <trkpt lat="45.93885" lon="4.71728">
        <ele>174</ele>
        <time>2018-03-24T09:42:43Z</time>
      </trkpt>
      <trkpt lat="45.9389" lon="4.71723">
        <ele>174</ele>
        <time>2018-03-24T09:42:44Z</time>
      </trkpt>
      <trkpt lat="45.93895" lon="4.7172">
        <ele>174</ele>
        <time>2018-03-24T09:42:45Z</time>
      </trkpt>
      <trkpt lat="45.939" lon="4.71715">
        <ele>174</ele>
        <time>2018-03-24T09:42:46Z</time>
      </trkpt>
      <trkpt lat="45.93904" lon="4.71709">
        <ele>174</ele>
        <time>2018-03-24T09:42:47Z</time>
      </trkpt>
      <trkpt lat="45.93909" lon="4.71705">
        <ele>174</ele>
        <time>2018-03-24T09:42:48Z</time>
      </trkpt>
      <trkpt lat="45.93914" lon="4.71701">
        <ele>174</ele>
        <time>2018-03-24T09:42:49Z</time>
      </trkpt>
      <trkpt lat="45.93919" lon="4.71698">
        <ele>174</ele>
        <time>2018-03-24T09:42:50Z</time>
      </trkpt>
      <trkpt lat="45.93926" lon="4.71695">
        <ele>174</ele>
        <time>2018-03-24T09:42:51Z</time>
      </trkpt>
      <trkpt lat="45.93932" lon="4.71693">
        <ele>175</ele>
        <time>2018-03-24T09:42:52Z</time>
      </trkpt>
      <trkpt lat="45.93937" lon="4.71692">
        <ele>175</ele>
        <time>2018-03-24T09:42:53Z</time>
      </trkpt>
      <trkpt lat="45.93944" lon="4.7169">
        <ele>175</ele>
        <time>2018-03-24T09:42:54Z</time>
      </trkpt>
      <trkpt lat="45.93949" lon="4.71686">
        <ele>175</ele>
        <time>2018-03-24T09:42:55Z</time>
      </trkpt>
      <trkpt lat="45.93955" lon="4.71683">
        <ele>175</ele>
        <time>2018-03-24T09:42:56Z</time>
      </trkpt>
      <trkpt lat="45.9396" lon="4.71681">
        <ele>175</ele>
        <time>2018-03-24T09:42:57Z</time>
      </trkpt>
      <trkpt lat="45.93965" lon="4.71679">
        <ele>175</ele>
        <time>2018-03-24T09:42:58Z</time>
      </trkpt>
      <trkpt lat="45.9397" lon="4.71675">
        <ele>175</ele>
        <time>2018-03-24T09:42:59Z</time>
      </trkpt>
      <trkpt lat="45.93976" lon="4.71673">
        <ele>175</ele>
        <time>2018-03-24T09:43:00Z</time>
      </trkpt>
      <trkpt lat="45.93981" lon="4.71672">
        <ele>176</ele>
        <time>2018-03-24T09:43:01Z</time>
      </trkpt>
      <trkpt lat="45.93985" lon="4.71672">
        <ele>176</ele>
        <time>2018-03-24T09:43:02Z</time>
      </trkpt>
      <trkpt lat="45.93993" lon="4.71676">
        <ele>176</ele>
        <time>2018-03-24T09:43:07Z</time>
      </trkpt>
      <trkpt lat="45.93994" lon="4.71678">
        <ele>176</ele>
        <time>2018-03-24T09:43:08Z</time>
      </trkpt>
      <trkpt lat="45.93995" lon="4.7168">
        <ele>176</ele>
        <time>2018-03-24T09:43:09Z</time>
      </trkpt>
      <trkpt lat="45.94001" lon="4.71687">
        <ele>175</ele>
        <time>2018-03-24T09:43:10Z</time>
      </trkpt>
      <trkpt lat="45.94009" lon="4.71691">
        <ele>175</ele>
        <time>2018-03-24T09:43:12Z</time>
      </trkpt>
      <trkpt lat="45.94013" lon="4.71689">
        <ele>175</ele>
        <time>2018-03-24T09:43:13Z</time>
      </trkpt>
      <trkpt lat="45.9402" lon="4.71683">
        <ele>175</ele>
        <time>2018-03-24T09:43:15Z</time>
      </trkpt>
      <trkpt lat="45.94022" lon="4.71677">
        <ele>175</ele>
        <time>2018-03-24T09:43:16Z</time>
      </trkpt>
      <trkpt lat="45.94024" lon="4.71665">
        <ele>176</ele>
        <time>2018-03-24T09:43:18Z</time>
      </trkpt>
      <trkpt lat="45.94026" lon="4.7166">
        <ele>175</ele>
        <time>2018-03-24T09:43:19Z</time>
      </trkpt>
      <trkpt lat="45.94031" lon="4.71656">
        <ele>175</ele>
        <time>2018-03-24T09:43:20Z</time>
      </trkpt>
      <trkpt lat="45.94036" lon="4.71653">
        <ele>175</ele>
        <time>2018-03-24T09:43:21Z</time>
      </trkpt>
      <trkpt lat="45.94041" lon="4.7165">
        <ele>175</ele>
        <time>2018-03-24T09:43:22Z</time>
      </trkpt>
      <trkpt lat="45.94046" lon="4.71648">
        <ele>175</ele>
        <time>2018-03-24T09:43:23Z</time>
      </trkpt>
      <trkpt lat="45.94051" lon="4.71645">
        <ele>175</ele>
        <time>2018-03-24T09:43:24Z</time>
      </trkpt>
      <trkpt lat="45.94056" lon="4.71643">
        <ele>174</ele>
        <time>2018-03-24T09:43:25Z</time>
      </trkpt>
      <trkpt lat="45.94061" lon="4.7164">
        <ele>174</ele>
        <time>2018-03-24T09:43:26Z</time>
      </trkpt>
      <trkpt lat="45.94067" lon="4.71638">
        <ele>174</ele>
        <time>2018-03-24T09:43:27Z</time>
      </trkpt>
      <trkpt lat="45.94072" lon="4.71635">
        <ele>174</ele>
        <time>2018-03-24T09:43:28Z</time>
      </trkpt>
      <trkpt lat="45.94077" lon="4.71633">
        <ele>174</ele>
        <time>2018-03-24T09:43:29Z</time>
      </trkpt>
      <trkpt lat="45.94082" lon="4.71631">
        <ele>174</ele>
        <time>2018-03-24T09:43:30Z</time>
      </trkpt>
      <trkpt lat="45.94088" lon="4.71628">
        <ele>173</ele>
        <time>2018-03-24T09:43:31Z</time>
      </trkpt>
      <trkpt lat="45.94093" lon="4.71626">
        <ele>173</ele>
        <time>2018-03-24T09:43:32Z</time>
      </trkpt>
      <trkpt lat="45.94099" lon="4.71624">
        <ele>173</ele>
        <time>2018-03-24T09:43:33Z</time>
      </trkpt>
      <trkpt lat="45.94104" lon="4.71622">
        <ele>173</ele>
        <time>2018-03-24T09:43:34Z</time>
      </trkpt>
      <trkpt lat="45.9411" lon="4.71622">
        <ele>173</ele>
        <time>2018-03-24T09:43:35Z</time>
      </trkpt>
      <trkpt lat="45.94115" lon="4.71619">
        <ele>173</ele>
        <time>2018-03-24T09:43:36Z</time>
      </trkpt>
      <trkpt lat="45.9412" lon="4.71618">
        <ele>173</ele>
        <time>2018-03-24T09:43:37Z</time>
      </trkpt>
      <trkpt lat="45.94125" lon="4.71616">
        <ele>173</ele>
        <time>2018-03-24T09:43:38Z</time>
      </trkpt>
      <trkpt lat="45.9413" lon="4.71613">
        <ele>173</ele>
        <time>2018-03-24T09:43:39Z</time>
      </trkpt>
      <trkpt lat="45.94136" lon="4.71612">
        <ele>173</ele>
        <time>2018-03-24T09:43:40Z</time>
      </trkpt>
      <trkpt lat="45.94142" lon="4.71609">
        <ele>173</ele>
        <time>2018-03-24T09:43:41Z</time>
      </trkpt>
      <trkpt lat="45.94147" lon="4.71607">
        <ele>173</ele>
        <time>2018-03-24T09:43:42Z</time>
      </trkpt>
      <trkpt lat="45.94153" lon="4.71605">
        <ele>173</ele>
        <time>2018-03-24T09:43:43Z</time>
      </trkpt>
      <trkpt lat="45.94162" lon="4.71602">
        <ele>173</ele>
        <time>2018-03-24T09:43:45Z</time>
      </trkpt>
      <trkpt lat="45.94167" lon="4.71599">
        <ele>173</ele>
        <time>2018-03-24T09:43:46Z</time>
      </trkpt>
      <trkpt lat="45.94173" lon="4.71597">
        <ele>173</ele>
        <time>2018-03-24T09:43:47Z</time>
      </trkpt>
      <trkpt lat="45.94178" lon="4.71595">
        <ele>173</ele>
        <time>2018-03-24T09:43:48Z</time>
      </trkpt>
      <trkpt lat="45.94183" lon="4.71593">
        <ele>173</ele>
        <time>2018-03-24T09:43:49Z</time>
      </trkpt>
      <trkpt lat="45.94188" lon="4.71592">
        <ele>173</ele>
        <time>2018-03-24T09:43:50Z</time>
      </trkpt>
      <trkpt lat="45.94194" lon="4.7159">
        <ele>173</ele>
        <time>2018-03-24T09:43:51Z</time>
      </trkpt>
      <trkpt lat="45.94199" lon="4.71588">
        <ele>173</ele>
        <time>2018-03-24T09:43:52Z</time>
      </trkpt>
      <trkpt lat="45.94204" lon="4.71586">
        <ele>173</ele>
        <time>2018-03-24T09:43:53Z</time>
      </trkpt>
      <trkpt lat="45.94208" lon="4.71584">
        <ele>173</ele>
        <time>2018-03-24T09:43:54Z</time>
      </trkpt>
      <trkpt lat="45.94213" lon="4.71583">
        <ele>174</ele>
        <time>2018-03-24T09:43:55Z</time>
      </trkpt>
      <trkpt lat="45.94218" lon="4.7158">
        <ele>174</ele>
        <time>2018-03-24T09:43:56Z</time>
      </trkpt>
      <trkpt lat="45.94224" lon="4.71579">
        <ele>174</ele>
        <time>2018-03-24T09:43:57Z</time>
      </trkpt>
      <trkpt lat="45.94228" lon="4.71576">
        <ele>174</ele>
        <time>2018-03-24T09:43:58Z</time>
      </trkpt>
      <trkpt lat="45.94233" lon="4.71574">
        <ele>174</ele>
        <time>2018-03-24T09:43:59Z</time>
      </trkpt>
      <trkpt lat="45.94238" lon="4.71572">
        <ele>174</ele>
        <time>2018-03-24T09:44:00Z</time>
      </trkpt>
      <trkpt lat="45.94242" lon="4.71568">
        <ele>174</ele>
        <time>2018-03-24T09:44:01Z</time>
      </trkpt>
      <trkpt lat="45.94247" lon="4.71566">
        <ele>174</ele>
        <time>2018-03-24T09:44:02Z</time>
      </trkpt>
      <trkpt lat="45.94252" lon="4.71563">
        <ele>175</ele>
        <time>2018-03-24T09:44:03Z</time>
      </trkpt>
      <trkpt lat="45.94257" lon="4.71561">
        <ele>175</ele>
        <time>2018-03-24T09:44:04Z</time>
      </trkpt>
      <trkpt lat="45.94265" lon="4.71558">
        <ele>175</ele>
        <time>2018-03-24T09:44:06Z</time>
      </trkpt>
      <trkpt lat="45.9427" lon="4.71556">
        <ele>175</ele>
        <time>2018-03-24T09:44:07Z</time>
      </trkpt>
      <trkpt lat="45.94275" lon="4.71554">
        <ele>175</ele>
        <time>2018-03-24T09:44:08Z</time>
      </trkpt>
      <trkpt lat="45.94279" lon="4.71552">
        <ele>175</ele>
        <time>2018-03-24T09:44:09Z</time>
      </trkpt>
      <trkpt lat="45.94284" lon="4.71551">
        <ele>175</ele>
        <time>2018-03-24T09:44:10Z</time>
      </trkpt>
      <trkpt lat="45.9429" lon="4.71549">
        <ele>175</ele>
        <time>2018-03-24T09:44:11Z</time>
      </trkpt>
      <trkpt lat="45.94297" lon="4.71542">
        <ele>175</ele>
        <time>2018-03-24T09:44:13Z</time>
      </trkpt>
      <trkpt lat="45.94302" lon="4.71541">
        <ele>175</ele>
        <time>2018-03-24T09:44:14Z</time>
      </trkpt>
      <trkpt lat="45.94308" lon="4.7154">
        <ele>175</ele>
        <time>2018-03-24T09:44:16Z</time>
      </trkpt>
      <trkpt lat="45.94311" lon="4.71542">
        <ele>175</ele>
        <time>2018-03-24T09:44:17Z</time>
      </trkpt>
      <trkpt lat="45.94314" lon="4.71544">
        <ele>175</ele>
        <time>2018-03-24T09:44:18Z</time>
      </trkpt>
      <trkpt lat="45.94322" lon="4.71548">
        <ele>175</ele>
        <time>2018-03-24T09:44:19Z</time>
      </trkpt>
      <trkpt lat="45.94328" lon="4.71544">
        <ele>176</ele>
        <time>2018-03-24T09:44:20Z</time>
      </trkpt>
      <trkpt lat="45.94334" lon="4.71542">
        <ele>176</ele>
        <time>2018-03-24T09:44:21Z</time>
      </trkpt>
      <trkpt lat="45.94339" lon="4.7154">
        <ele>176</ele>
        <time>2018-03-24T09:44:22Z</time>
      </trkpt>
      <trkpt lat="45.94344" lon="4.71539">
        <ele>176</ele>
        <time>2018-03-24T09:44:23Z</time>
      </trkpt>
      <trkpt lat="45.94349" lon="4.71537">
        <ele>176</ele>
        <time>2018-03-24T09:44:24Z</time>
      </trkpt>
      <trkpt lat="45.94353" lon="4.71535">
        <ele>176</ele>
        <time>2018-03-24T09:44:25Z</time>
      </trkpt>
      <trkpt lat="45.94359" lon="4.71533">
        <ele>176</ele>
        <time>2018-03-24T09:44:26Z</time>
      </trkpt>
      <trkpt lat="45.94363" lon="4.71529">
        <ele>176</ele>
        <time>2018-03-24T09:44:27Z</time>
      </trkpt>
      <trkpt lat="45.94368" lon="4.71527">
        <ele>176</ele>
        <time>2018-03-24T09:44:28Z</time>
      </trkpt>
      <trkpt lat="45.94374" lon="4.71525">
        <ele>176</ele>
        <time>2018-03-24T09:44:29Z</time>
      </trkpt>
      <trkpt lat="45.94379" lon="4.71522">
        <ele>176</ele>
        <time>2018-03-24T09:44:30Z</time>
      </trkpt>
      <trkpt lat="45.94385" lon="4.7152">
        <ele>177</ele>
        <time>2018-03-24T09:44:31Z</time>
      </trkpt>
      <trkpt lat="45.94394" lon="4.71516">
        <ele>177</ele>
        <time>2018-03-24T09:44:33Z</time>
      </trkpt>
      <trkpt lat="45.94398" lon="4.71512">
        <ele>177</ele>
        <time>2018-03-24T09:44:34Z</time>
      </trkpt>
      <trkpt lat="45.94402" lon="4.71511">
        <ele>177</ele>
        <time>2018-03-24T09:44:35Z</time>
      </trkpt>
      <trkpt lat="45.94407" lon="4.71508">
        <ele>177</ele>
        <time>2018-03-24T09:44:36Z</time>
      </trkpt>
      <trkpt lat="45.94411" lon="4.71506">
        <ele>177</ele>
        <time>2018-03-24T09:44:37Z</time>
      </trkpt>
      <trkpt lat="45.94417" lon="4.71503">
        <ele>178</ele>
        <time>2018-03-24T09:44:38Z</time>
      </trkpt>
      <trkpt lat="45.94421" lon="4.71501">
        <ele>178</ele>
        <time>2018-03-24T09:44:39Z</time>
      </trkpt>
      <trkpt lat="45.94426" lon="4.71498">
        <ele>178</ele>
        <time>2018-03-24T09:44:40Z</time>
      </trkpt>
      <trkpt lat="45.9443" lon="4.71496">
        <ele>178</ele>
        <time>2018-03-24T09:44:41Z</time>
      </trkpt>
      <trkpt lat="45.94434" lon="4.71493">
        <ele>178</ele>
        <time>2018-03-24T09:44:42Z</time>
      </trkpt>
      <trkpt lat="45.94439" lon="4.71491">
        <ele>178</ele>
        <time>2018-03-24T09:44:43Z</time>
      </trkpt>
      <trkpt lat="45.94444" lon="4.7149">
        <ele>179</ele>
        <time>2018-03-24T09:44:44Z</time>
      </trkpt>
      <trkpt lat="45.9445" lon="4.71487">
        <ele>179</ele>
        <time>2018-03-24T09:44:45Z</time>
      </trkpt>
      <trkpt lat="45.94455" lon="4.71485">
        <ele>179</ele>
        <time>2018-03-24T09:44:46Z</time>
      </trkpt>
      <trkpt lat="45.9446" lon="4.71483">
        <ele>179</ele>
        <time>2018-03-24T09:44:47Z</time>
      </trkpt>
      <trkpt lat="45.94466" lon="4.71481">
        <ele>179</ele>
        <time>2018-03-24T09:44:48Z</time>
      </trkpt>
      <trkpt lat="45.9447" lon="4.7148">
        <ele>179</ele>
        <time>2018-03-24T09:44:49Z</time>
      </trkpt>
      <trkpt lat="45.94475" lon="4.71478">
        <ele>179</ele>
        <time>2018-03-24T09:44:50Z</time>
      </trkpt>
      <trkpt lat="45.9448" lon="4.71476">
        <ele>179</ele>
        <time>2018-03-24T09:44:51Z</time>
      </trkpt>
      <trkpt lat="45.94485" lon="4.71474">
        <ele>179</ele>
        <time>2018-03-24T09:44:52Z</time>
      </trkpt>
      <trkpt lat="45.9449" lon="4.71472">
        <ele>179</ele>
        <time>2018-03-24T09:44:53Z</time>
      </trkpt>
      <trkpt lat="45.94495" lon="4.7147">
        <ele>179</ele>
        <time>2018-03-24T09:44:54Z</time>
      </trkpt>
      <trkpt lat="45.94501" lon="4.71467">
        <ele>179</ele>
        <time>2018-03-24T09:44:56Z</time>
      </trkpt>
      <trkpt lat="45.94506" lon="4.71464">
        <ele>180</ele>
        <time>2018-03-24T09:44:57Z</time>
      </trkpt>
      <trkpt lat="45.94513" lon="4.7146">
        <ele>180</ele>
        <time>2018-03-24T09:44:59Z</time>
      </trkpt>
      <trkpt lat="45.94519" lon="4.71458">
        <ele>180</ele>
        <time>2018-03-24T09:45:00Z</time>
      </trkpt>
      <trkpt lat="45.94524" lon="4.71457">
        <ele>180</ele>
        <time>2018-03-24T09:45:01Z</time>
      </trkpt>
      <trkpt lat="45.9453" lon="4.71455">
        <ele>180</ele>
        <time>2018-03-24T09:45:02Z</time>
      </trkpt>
      <trkpt lat="45.94535" lon="4.71454">
        <ele>180</ele>
        <time>2018-03-24T09:45:03Z</time>
      </trkpt>
      <trkpt lat="45.9454" lon="4.71453">
        <ele>180</ele>
        <time>2018-03-24T09:45:04Z</time>
      </trkpt>
      <trkpt lat="45.94547" lon="4.7145">
        <ele>180</ele>
        <time>2018-03-24T09:45:06Z</time>
      </trkpt>
      <trkpt lat="45.94551" lon="4.71448">
        <ele>181</ele>
        <time>2018-03-24T09:45:07Z</time>
      </trkpt>
      <trkpt lat="45.94557" lon="4.71447">
        <ele>181</ele>
        <time>2018-03-24T09:45:08Z</time>
      </trkpt>
      <trkpt lat="45.94561" lon="4.71447">
        <ele>181</ele>
        <time>2018-03-24T09:45:09Z</time>
      </trkpt>
      <trkpt lat="45.94569" lon="4.71444">
        <ele>181</ele>
        <time>2018-03-24T09:45:11Z</time>
      </trkpt>
      <trkpt lat="45.94574" lon="4.71444">
        <ele>181</ele>
        <time>2018-03-24T09:45:12Z</time>
      </trkpt>
      <trkpt lat="45.9458" lon="4.71443">
        <ele>181</ele>
        <time>2018-03-24T09:45:13Z</time>
      </trkpt>
      <trkpt lat="45.94584" lon="4.71442">
        <ele>182</ele>
        <time>2018-03-24T09:45:14Z</time>
      </trkpt>
      <trkpt lat="45.94589" lon="4.71442">
        <ele>182</ele>
        <time>2018-03-24T09:45:15Z</time>
      </trkpt>
      <trkpt lat="45.94593" lon="4.71442">
        <ele>182</ele>
        <time>2018-03-24T09:45:16Z</time>
      </trkpt>
      <trkpt lat="45.94599" lon="4.71443">
        <ele>182</ele>
        <time>2018-03-24T09:45:17Z</time>
      </trkpt>
      <trkpt lat="45.94603" lon="4.71443">
        <ele>181</ele>
        <time>2018-03-24T09:45:18Z</time>
      </trkpt>
      <trkpt lat="45.94607" lon="4.71444">
        <ele>181</ele>
        <time>2018-03-24T09:45:19Z</time>
      </trkpt>
      <trkpt lat="45.94612" lon="4.71444">
        <ele>181</ele>
        <time>2018-03-24T09:45:20Z</time>
      </trkpt>
      <trkpt lat="45.94617" lon="4.71444">
        <ele>181</ele>
        <time>2018-03-24T09:45:21Z</time>
      </trkpt>
      <trkpt lat="45.94622" lon="4.71445">
        <ele>181</ele>
        <time>2018-03-24T09:45:22Z</time>
      </trkpt>
      <trkpt lat="45.94627" lon="4.71446">
        <ele>181</ele>
        <time>2018-03-24T09:45:23Z</time>
      </trkpt>
      <trkpt lat="45.94632" lon="4.71446">
        <ele>181</ele>
        <time>2018-03-24T09:45:24Z</time>
      </trkpt>
      <trkpt lat="45.94636" lon="4.71444">
        <ele>181</ele>
        <time>2018-03-24T09:45:25Z</time>
      </trkpt>
      <trkpt lat="45.94641" lon="4.71445">
        <ele>181</ele>
        <time>2018-03-24T09:45:26Z</time>
      </trkpt>
      <trkpt lat="45.94647" lon="4.71444">
        <ele>181</ele>
        <time>2018-03-24T09:45:27Z</time>
      </trkpt>
      <trkpt lat="45.94651" lon="4.71445">
        <ele>181</ele>
        <time>2018-03-24T09:45:28Z</time>
      </trkpt>
      <trkpt lat="45.94656" lon="4.71446">
        <ele>181</ele>
        <time>2018-03-24T09:45:29Z</time>
      </trkpt>
      <trkpt lat="45.94661" lon="4.71447">
        <ele>181</ele>
        <time>2018-03-24T09:45:30Z</time>
      </trkpt>
      <trkpt lat="45.94666" lon="4.71446">
        <ele>181</ele>
        <time>2018-03-24T09:45:31Z</time>
      </trkpt>
      <trkpt lat="45.94671" lon="4.71446">
        <ele>182</ele>
        <time>2018-03-24T09:45:32Z</time>
      </trkpt>
      <trkpt lat="45.94676" lon="4.71447">
        <ele>182</ele>
        <time>2018-03-24T09:45:33Z</time>
      </trkpt>
      <trkpt lat="45.94681" lon="4.71447">
        <ele>182</ele>
        <time>2018-03-24T09:45:34Z</time>
      </trkpt>
      <trkpt lat="45.94686" lon="4.71448">
        <ele>182</ele>
        <time>2018-03-24T09:45:35Z</time>
      </trkpt>
      <trkpt lat="45.94691" lon="4.71448">
        <ele>182</ele>
        <time>2018-03-24T09:45:36Z</time>
      </trkpt>
      <trkpt lat="45.94697" lon="4.71449">
        <ele>182</ele>
        <time>2018-03-24T09:45:37Z</time>
      </trkpt>
      <trkpt lat="45.94702" lon="4.7145">
        <ele>182</ele>
        <time>2018-03-24T09:45:38Z</time>
      </trkpt>
      <trkpt lat="45.94707" lon="4.71451">
        <ele>182</ele>
        <time>2018-03-24T09:45:39Z</time>
      </trkpt>
      <trkpt lat="45.94713" lon="4.71452">
        <ele>182</ele>
        <time>2018-03-24T09:45:40Z</time>
      </trkpt>
      <trkpt lat="45.94717" lon="4.71453">
        <ele>182</ele>
        <time>2018-03-24T09:45:41Z</time>
      </trkpt>
      <trkpt lat="45.94723" lon="4.71455">
        <ele>182</ele>
        <time>2018-03-24T09:45:42Z</time>
      </trkpt>
      <trkpt lat="45.94729" lon="4.71455">
        <ele>182</ele>
        <time>2018-03-24T09:45:43Z</time>
      </trkpt>
      <trkpt lat="45.94734" lon="4.71455">
        <ele>182</ele>
        <time>2018-03-24T09:45:44Z</time>
      </trkpt>
      <trkpt lat="45.94741" lon="4.71457">
        <ele>182</ele>
        <time>2018-03-24T09:45:45Z</time>
      </trkpt>
      <trkpt lat="45.94746" lon="4.71458">
        <ele>182</ele>
        <time>2018-03-24T09:45:46Z</time>
      </trkpt>
      <trkpt lat="45.94752" lon="4.71457">
        <ele>183</ele>
        <time>2018-03-24T09:45:47Z</time>
      </trkpt>
      <trkpt lat="45.94758" lon="4.71457">
        <ele>183</ele>
        <time>2018-03-24T09:45:48Z</time>
      </trkpt>
      <trkpt lat="45.94764" lon="4.71458">
        <ele>183</ele>
        <time>2018-03-24T09:45:49Z</time>
      </trkpt>
      <trkpt lat="45.9477" lon="4.71459">
        <ele>183</ele>
        <time>2018-03-24T09:45:50Z</time>
      </trkpt>
      <trkpt lat="45.94776" lon="4.71458">
        <ele>183</ele>
        <time>2018-03-24T09:45:51Z</time>
      </trkpt>
      <trkpt lat="45.94782" lon="4.71458">
        <ele>183</ele>
        <time>2018-03-24T09:45:52Z</time>
      </trkpt>
      <trkpt lat="45.94788" lon="4.71459">
        <ele>183</ele>
        <time>2018-03-24T09:45:53Z</time>
      </trkpt>
      <trkpt lat="45.94795" lon="4.7146">
        <ele>183</ele>
        <time>2018-03-24T09:45:54Z</time>
      </trkpt>
      <trkpt lat="45.94801" lon="4.71461">
        <ele>183</ele>
        <time>2018-03-24T09:45:55Z</time>
      </trkpt>
      <trkpt lat="45.94807" lon="4.71461">
        <ele>183</ele>
        <time>2018-03-24T09:45:56Z</time>
      </trkpt>
      <trkpt lat="45.94813" lon="4.71462">
        <ele>183</ele>
        <time>2018-03-24T09:45:57Z</time>
      </trkpt>
      <trkpt lat="45.94819" lon="4.71462">
        <ele>183</ele>
        <time>2018-03-24T09:45:58Z</time>
      </trkpt>
      <trkpt lat="45.94824" lon="4.71463">
        <ele>183</ele>
        <time>2018-03-24T09:45:59Z</time>
      </trkpt>
      <trkpt lat="45.94831" lon="4.71464">
        <ele>183</ele>
        <time>2018-03-24T09:46:00Z</time>
      </trkpt>
      <trkpt lat="45.94837" lon="4.71466">
        <ele>183</ele>
        <time>2018-03-24T09:46:01Z</time>
      </trkpt>
      <trkpt lat="45.94843" lon="4.71465">
        <ele>183</ele>
        <time>2018-03-24T09:46:02Z</time>
      </trkpt>
      <trkpt lat="45.94848" lon="4.71466">
        <ele>183</ele>
        <time>2018-03-24T09:46:03Z</time>
      </trkpt>
      <trkpt lat="45.94854" lon="4.71466">
        <ele>183</ele>
        <time>2018-03-24T09:46:04Z</time>
      </trkpt>
      <trkpt lat="45.94859" lon="4.71466">
        <ele>183</ele>
        <time>2018-03-24T09:46:05Z</time>
      </trkpt>
      <trkpt lat="45.94864" lon="4.71468">
        <ele>183</ele>
        <time>2018-03-24T09:46:06Z</time>
      </trkpt>
      <trkpt lat="45.94871" lon="4.71469">
        <ele>183</ele>
        <time>2018-03-24T09:46:07Z</time>
      </trkpt>
      <trkpt lat="45.94877" lon="4.71469">
        <ele>183</ele>
        <time>2018-03-24T09:46:08Z</time>
      </trkpt>
      <trkpt lat="45.94884" lon="4.7147">
        <ele>183</ele>
        <time>2018-03-24T09:46:09Z</time>
      </trkpt>
      <trkpt lat="45.9489" lon="4.7147">
        <ele>183</ele>
        <time>2018-03-24T09:46:10Z</time>
      </trkpt>
      <trkpt lat="45.94895" lon="4.71471">
        <ele>183</ele>
        <time>2018-03-24T09:46:11Z</time>
      </trkpt>
      <trkpt lat="45.94901" lon="4.71472">
        <ele>183</ele>
        <time>2018-03-24T09:46:12Z</time>
      </trkpt>
      <trkpt lat="45.94907" lon="4.71472">
        <ele>183</ele>
        <time>2018-03-24T09:46:13Z</time>
      </trkpt>
      <trkpt lat="45.94913" lon="4.71472">
        <ele>183</ele>
        <time>2018-03-24T09:46:14Z</time>
      </trkpt>
      <trkpt lat="45.9492" lon="4.71471">
        <ele>183</ele>
        <time>2018-03-24T09:46:15Z</time>
      </trkpt>
      <trkpt lat="45.94925" lon="4.71471">
        <ele>183</ele>
        <time>2018-03-24T09:46:16Z</time>
      </trkpt>
      <trkpt lat="45.9493" lon="4.71471">
        <ele>183</ele>
        <time>2018-03-24T09:46:17Z</time>
      </trkpt>
      <trkpt lat="45.94935" lon="4.71471">
        <ele>183</ele>
        <time>2018-03-24T09:46:18Z</time>
      </trkpt>
      <trkpt lat="45.94941" lon="4.71471">
        <ele>183</ele>
        <time>2018-03-24T09:46:19Z</time>
      </trkpt>
      <trkpt lat="45.94945" lon="4.71471">
        <ele>183</ele>
        <time>2018-03-24T09:46:20Z</time>
      </trkpt>
      <trkpt lat="45.9495" lon="4.71473">
        <ele>183</ele>
        <time>2018-03-24T09:46:21Z</time>
      </trkpt>
      <trkpt lat="45.94954" lon="4.71476">
        <ele>183</ele>
        <time>2018-03-24T09:46:22Z</time>
      </trkpt>
      <trkpt lat="45.94958" lon="4.71481">
        <ele>183</ele>
        <time>2018-03-24T09:46:23Z</time>
      </trkpt>
      <trkpt lat="45.94963" lon="4.71484">
        <ele>183</ele>
        <time>2018-03-24T09:46:24Z</time>
      </trkpt>
      <trkpt lat="45.94968" lon="4.71487">
        <ele>182</ele>
        <time>2018-03-24T09:46:25Z</time>
      </trkpt>
      <trkpt lat="45.94973" lon="4.71486">
        <ele>182</ele>
        <time>2018-03-24T09:46:26Z</time>
      </trkpt>
      <trkpt lat="45.94978" lon="4.71485">
        <ele>182</ele>
        <time>2018-03-24T09:46:27Z</time>
      </trkpt>
      <trkpt lat="45.94983" lon="4.71483">
        <ele>182</ele>
        <time>2018-03-24T09:46:28Z</time>
      </trkpt>
      <trkpt lat="45.94988" lon="4.71481">
        <ele>182</ele>
        <time>2018-03-24T09:46:29Z</time>
      </trkpt>
      <trkpt lat="45.94993" lon="4.71479">
        <ele>182</ele>
        <time>2018-03-24T09:46:30Z</time>
      </trkpt>
      <trkpt lat="45.94998" lon="4.71477">
        <ele>182</ele>
        <time>2018-03-24T09:46:31Z</time>
      </trkpt>
      <trkpt lat="45.95003" lon="4.71477">
        <ele>181</ele>
        <time>2018-03-24T09:46:32Z</time>
      </trkpt>
      <trkpt lat="45.95009" lon="4.71477">
        <ele>181</ele>
        <time>2018-03-24T09:46:33Z</time>
      </trkpt>
      <trkpt lat="45.95014" lon="4.71478">
        <ele>181</ele>
        <time>2018-03-24T09:46:34Z</time>
      </trkpt>
      <trkpt lat="45.9502" lon="4.71478">
        <ele>181</ele>
        <time>2018-03-24T09:46:35Z</time>
      </trkpt>
      <trkpt lat="45.95026" lon="4.71479">
        <ele>181</ele>
        <time>2018-03-24T09:46:36Z</time>
      </trkpt>
      <trkpt lat="45.95032" lon="4.71481">
        <ele>181</ele>
        <time>2018-03-24T09:46:37Z</time>
      </trkpt>
      <trkpt lat="45.95039" lon="4.71481">
        <ele>181</ele>
        <time>2018-03-24T09:46:38Z</time>
      </trkpt>
      <trkpt lat="45.95046" lon="4.71481">
        <ele>181</ele>
        <time>2018-03-24T09:46:39Z</time>
      </trkpt>
      <trkpt lat="45.95054" lon="4.71482">
        <ele>181</ele>
        <time>2018-03-24T09:46:40Z</time>
      </trkpt>
      <trkpt lat="45.95061" lon="4.71482">
        <ele>181</ele>
        <time>2018-03-24T09:46:41Z</time>
      </trkpt>
      <trkpt lat="45.95069" lon="4.71482">
        <ele>181</ele>
        <time>2018-03-24T09:46:42Z</time>
      </trkpt>
      <trkpt lat="45.95077" lon="4.71481">
        <ele>180</ele>
        <time>2018-03-24T09:46:43Z</time>
      </trkpt>
      <trkpt lat="45.95085" lon="4.71482">
        <ele>179</ele>
        <time>2018-03-24T09:46:44Z</time>
      </trkpt>
      <trkpt lat="45.95094" lon="4.71483">
        <ele>179</ele>
        <time>2018-03-24T09:46:45Z</time>
      </trkpt>
      <trkpt lat="45.95102" lon="4.71483">
        <ele>179</ele>
        <time>2018-03-24T09:46:46Z</time>
      </trkpt>
      <trkpt lat="45.95111" lon="4.71483">
        <ele>179</ele>
        <time>2018-03-24T09:46:47Z</time>
      </trkpt>
      <trkpt lat="45.95119" lon="4.71484">
        <ele>178</ele>
        <time>2018-03-24T09:46:48Z</time>
      </trkpt>
      <trkpt lat="45.95128" lon="4.71484">
        <ele>178</ele>
        <time>2018-03-24T09:46:49Z</time>
      </trkpt>
      <trkpt lat="45.95135" lon="4.71483">
        <ele>178</ele>
        <time>2018-03-24T09:46:50Z</time>
      </trkpt>
      <trkpt lat="45.95144" lon="4.71483">
        <ele>178</ele>
        <time>2018-03-24T09:46:51Z</time>
      </trkpt>
      <trkpt lat="45.95152" lon="4.71483">
        <ele>178</ele>
        <time>2018-03-24T09:46:52Z</time>
      </trkpt>
      <trkpt lat="45.95161" lon="4.71484">
        <ele>178</ele>
        <time>2018-03-24T09:46:53Z</time>
      </trkpt>
      <trkpt lat="45.9517" lon="4.71486">
        <ele>177</ele>
        <time>2018-03-24T09:46:54Z</time>
      </trkpt>
      <trkpt lat="45.95179" lon="4.71486">
        <ele>177</ele>
        <time>2018-03-24T09:46:55Z</time>
      </trkpt>
      <trkpt lat="45.95188" lon="4.71486">
        <ele>177</ele>
        <time>2018-03-24T09:46:56Z</time>
      </trkpt>
      <trkpt lat="45.95196" lon="4.71486">
        <ele>177</ele>
        <time>2018-03-24T09:46:57Z</time>
      </trkpt>
      <trkpt lat="45.95205" lon="4.71487">
        <ele>177</ele>
        <time>2018-03-24T09:46:58Z</time>
      </trkpt>
      <trkpt lat="45.95215" lon="4.71488">
        <ele>177</ele>
        <time>2018-03-24T09:46:59Z</time>
      </trkpt>
      <trkpt lat="45.95224" lon="4.7149">
        <ele>177</ele>
        <time>2018-03-24T09:47:00Z</time>
      </trkpt>
      <trkpt lat="45.95232" lon="4.71489">
        <ele>177</ele>
        <time>2018-03-24T09:47:01Z</time>
      </trkpt>
      <trkpt lat="45.95239" lon="4.7149">
        <ele>177</ele>
        <time>2018-03-24T09:47:02Z</time>
      </trkpt>
      <trkpt lat="45.95246" lon="4.7149">
        <ele>177</ele>
        <time>2018-03-24T09:47:03Z</time>
      </trkpt>
      <trkpt lat="45.95255" lon="4.71489">
        <ele>176</ele>
        <time>2018-03-24T09:47:04Z</time>
      </trkpt>
      <trkpt lat="45.95265" lon="4.7149">
        <ele>176</ele>
        <time>2018-03-24T09:47:05Z</time>
      </trkpt>
      <trkpt lat="45.95272" lon="4.71491">
        <ele>176</ele>
        <time>2018-03-24T09:47:06Z</time>
      </trkpt>
      <trkpt lat="45.95279" lon="4.71491">
        <ele>176</ele>
        <time>2018-03-24T09:47:07Z</time>
      </trkpt>
      <trkpt lat="45.95287" lon="4.71493">
        <ele>176</ele>
        <time>2018-03-24T09:47:08Z</time>
      </trkpt>
      <trkpt lat="45.95296" lon="4.71495">
        <ele>176</ele>
        <time>2018-03-24T09:47:09Z</time>
      </trkpt>
      <trkpt lat="45.95304" lon="4.71494">
        <ele>175</ele>
        <time>2018-03-24T09:47:10Z</time>
      </trkpt>
      <trkpt lat="45.95312" lon="4.71494">
        <ele>175</ele>
        <time>2018-03-24T09:47:11Z</time>
      </trkpt>
      <trkpt lat="45.9532" lon="4.71494">
        <ele>175</ele>
        <time>2018-03-24T09:47:12Z</time>
      </trkpt>
      <trkpt lat="45.95327" lon="4.71496">
        <ele>174</ele>
        <time>2018-03-24T09:47:13Z</time>
      </trkpt>
      <trkpt lat="45.95334" lon="4.71496">
        <ele>174</ele>
        <time>2018-03-24T09:47:14Z</time>
      </trkpt>
      <trkpt lat="45.9534" lon="4.71498">
        <ele>174</ele>
        <time>2018-03-24T09:47:15Z</time>
      </trkpt>
      <trkpt lat="45.95347" lon="4.71498">
        <ele>174</ele>
        <time>2018-03-24T09:47:16Z</time>
      </trkpt>
      <trkpt lat="45.95353" lon="4.71499">
        <ele>175</ele>
        <time>2018-03-24T09:47:17Z</time>
      </trkpt>
      <trkpt lat="45.9536" lon="4.71499">
        <ele>175</ele>
        <time>2018-03-24T09:47:18Z</time>
      </trkpt>
      <trkpt lat="45.95366" lon="4.71499">
        <ele>175</ele>
        <time>2018-03-24T09:47:19Z</time>
      </trkpt>
      <trkpt lat="45.95373" lon="4.715">
        <ele>175</ele>
        <time>2018-03-24T09:47:20Z</time>
      </trkpt>
      <trkpt lat="45.9538" lon="4.715">
        <ele>174</ele>
        <time>2018-03-24T09:47:21Z</time>
      </trkpt>
      <trkpt lat="45.95386" lon="4.71501">
        <ele>174</ele>
        <time>2018-03-24T09:47:22Z</time>
      </trkpt>
      <trkpt lat="45.95393" lon="4.71502">
        <ele>174</ele>
        <time>2018-03-24T09:47:23Z</time>
      </trkpt>
      <trkpt lat="45.954" lon="4.71502">
        <ele>174</ele>
        <time>2018-03-24T09:47:24Z</time>
      </trkpt>
      <trkpt lat="45.95406" lon="4.71502">
        <ele>174</ele>
        <time>2018-03-24T09:47:25Z</time>
      </trkpt>
      <trkpt lat="45.95413" lon="4.71502">
        <ele>174</ele>
        <time>2018-03-24T09:47:26Z</time>
      </trkpt>
      <trkpt lat="45.9542" lon="4.71503">
        <ele>174</ele>
        <time>2018-03-24T09:47:27Z</time>
      </trkpt>
      <trkpt lat="45.95427" lon="4.71503">
        <ele>174</ele>
        <time>2018-03-24T09:47:28Z</time>
      </trkpt>
      <trkpt lat="45.95434" lon="4.71503">
        <ele>175</ele>
        <time>2018-03-24T09:47:29Z</time>
      </trkpt>
      <trkpt lat="45.9544" lon="4.71504">
        <ele>175</ele>
        <time>2018-03-24T09:47:30Z</time>
      </trkpt>
      <trkpt lat="45.95446" lon="4.71505">
        <ele>175</ele>
        <time>2018-03-24T09:47:31Z</time>
      </trkpt>
      <trkpt lat="45.95452" lon="4.71505">
        <ele>175</ele>
        <time>2018-03-24T09:47:32Z</time>
      </trkpt>
      <trkpt lat="45.95459" lon="4.71506">
        <ele>175</ele>
        <time>2018-03-24T09:47:33Z</time>
      </trkpt>
      <trkpt lat="45.95465" lon="4.71506">
        <ele>175</ele>
        <time>2018-03-24T09:47:34Z</time>
      </trkpt>
      <trkpt lat="45.95472" lon="4.71507">
        <ele>176</ele>
        <time>2018-03-24T09:47:35Z</time>
      </trkpt>
      <trkpt lat="45.95478" lon="4.71508">
        <ele>176</ele>
        <time>2018-03-24T09:47:36Z</time>
      </trkpt>
      <trkpt lat="45.95484" lon="4.71508">
        <ele>176</ele>
        <time>2018-03-24T09:47:37Z</time>
      </trkpt>
      <trkpt lat="45.95489" lon="4.71508">
        <ele>176</ele>
        <time>2018-03-24T09:47:38Z</time>
      </trkpt>
      <trkpt lat="45.95496" lon="4.71509">
        <ele>176</ele>
        <time>2018-03-24T09:47:39Z</time>
      </trkpt>
      <trkpt lat="45.95502" lon="4.7151">
        <ele>177</ele>
        <time>2018-03-24T09:47:40Z</time>
      </trkpt>
      <trkpt lat="45.95508" lon="4.7151">
        <ele>177</ele>
        <time>2018-03-24T09:47:41Z</time>
      </trkpt>
      <trkpt lat="45.95514" lon="4.71511">
        <ele>177</ele>
        <time>2018-03-24T09:47:42Z</time>
      </trkpt>
      <trkpt lat="45.9552" lon="4.71511">
        <ele>177</ele>
        <time>2018-03-24T09:47:43Z</time>
      </trkpt>
      <trkpt lat="45.95526" lon="4.71512">
        <ele>177</ele>
        <time>2018-03-24T09:47:44Z</time>
      </trkpt>
      <trkpt lat="45.95531" lon="4.71512">
        <ele>177</ele>
        <time>2018-03-24T09:47:45Z</time>
      </trkpt>
      <trkpt lat="45.95537" lon="4.71513">
        <ele>177</ele>
        <time>2018-03-24T09:47:46Z</time>
      </trkpt>
      <trkpt lat="45.95543" lon="4.71514">
        <ele>177</ele>
        <time>2018-03-24T09:47:47Z</time>
      </trkpt>
      <trkpt lat="45.95548" lon="4.71514">
        <ele>178</ele>
        <time>2018-03-24T09:47:48Z</time>
      </trkpt>
      <trkpt lat="45.95554" lon="4.71513">
        <ele>178</ele>
        <time>2018-03-24T09:47:49Z</time>
      </trkpt>
      <trkpt lat="45.9556" lon="4.71513">
        <ele>178</ele>
        <time>2018-03-24T09:47:50Z</time>
      </trkpt>
      <trkpt lat="45.95566" lon="4.71514">
        <ele>178</ele>
        <time>2018-03-24T09:47:51Z</time>
      </trkpt>
      <trkpt lat="45.95571" lon="4.71515">
        <ele>178</ele>
        <time>2018-03-24T09:47:52Z</time>
      </trkpt>
      <trkpt lat="45.95577" lon="4.71517">
        <ele>178</ele>
        <time>2018-03-24T09:47:53Z</time>
      </trkpt>
      <trkpt lat="45.95583" lon="4.71518">
        <ele>178</ele>
        <time>2018-03-24T09:47:54Z</time>
      </trkpt>
      <trkpt lat="45.95589" lon="4.71519">
        <ele>179</ele>
        <time>2018-03-24T09:47:55Z</time>
      </trkpt>
      <trkpt lat="45.95594" lon="4.7152">
        <ele>179</ele>
        <time>2018-03-24T09:47:56Z</time>
      </trkpt>
      <trkpt lat="45.956" lon="4.7152">
        <ele>179</ele>
        <time>2018-03-24T09:47:57Z</time>
      </trkpt>
      <trkpt lat="45.95606" lon="4.71516">
        <ele>179</ele>
        <time>2018-03-24T09:47:58Z</time>
      </trkpt>
      <trkpt lat="45.95612" lon="4.71517">
        <ele>179</ele>
        <time>2018-03-24T09:47:59Z</time>
      </trkpt>
      <trkpt lat="45.95618" lon="4.71519">
        <ele>179</ele>
        <time>2018-03-24T09:48:00Z</time>
      </trkpt>
      <trkpt lat="45.95622" lon="4.71517">
        <ele>179</ele>
        <time>2018-03-24T09:48:01Z</time>
      </trkpt>
      <trkpt lat="45.95627" lon="4.71517">
        <ele>179</ele>
        <time>2018-03-24T09:48:02Z</time>
      </trkpt>
      <trkpt lat="45.95632" lon="4.71517">
        <ele>179</ele>
        <time>2018-03-24T09:48:03Z</time>
      </trkpt>
      <trkpt lat="45.95637" lon="4.71518">
        <ele>180</ele>
        <time>2018-03-24T09:48:04Z</time>
      </trkpt>
      <trkpt lat="45.95642" lon="4.71517">
        <ele>180</ele>
        <time>2018-03-24T09:48:05Z</time>
      </trkpt>
      <trkpt lat="45.95648" lon="4.71517">
        <ele>180</ele>
        <time>2018-03-24T09:48:06Z</time>
      </trkpt>
      <trkpt lat="45.95654" lon="4.71516">
        <ele>180</ele>
        <time>2018-03-24T09:48:07Z</time>
      </trkpt>
      <trkpt lat="45.9566" lon="4.71516">
        <ele>180</ele>
        <time>2018-03-24T09:48:08Z</time>
      </trkpt>
      <trkpt lat="45.95665" lon="4.71517">
        <ele>180</ele>
        <time>2018-03-24T09:48:09Z</time>
      </trkpt>
      <trkpt lat="45.9567" lon="4.71518">
        <ele>181</ele>
        <time>2018-03-24T09:48:10Z</time>
      </trkpt>
      <trkpt lat="45.95675" lon="4.71516">
        <ele>181</ele>
        <time>2018-03-24T09:48:11Z</time>
      </trkpt>
      <trkpt lat="45.95681" lon="4.71517">
        <ele>180</ele>
        <time>2018-03-24T09:48:12Z</time>
      </trkpt>
      <trkpt lat="45.95686" lon="4.71517">
        <ele>180</ele>
        <time>2018-03-24T09:48:13Z</time>
      </trkpt>
      <trkpt lat="45.95691" lon="4.71519">
        <ele>180</ele>
        <time>2018-03-24T09:48:14Z</time>
      </trkpt>
      <trkpt lat="45.95696" lon="4.7152">
        <ele>180</ele>
        <time>2018-03-24T09:48:15Z</time>
      </trkpt>
      <trkpt lat="45.957" lon="4.7152">
        <ele>180</ele>
        <time>2018-03-24T09:48:16Z</time>
      </trkpt>
      <trkpt lat="45.95705" lon="4.71521">
        <ele>180</ele>
        <time>2018-03-24T09:48:17Z</time>
      </trkpt>
      <trkpt lat="45.95713" lon="4.71521">
        <ele>180</ele>
        <time>2018-03-24T09:48:19Z</time>
      </trkpt>
      <trkpt lat="45.95718" lon="4.71522">
        <ele>180</ele>
        <time>2018-03-24T09:48:20Z</time>
      </trkpt>
      <trkpt lat="45.95723" lon="4.71522">
        <ele>180</ele>
        <time>2018-03-24T09:48:21Z</time>
      </trkpt>
      <trkpt lat="45.95727" lon="4.71522">
        <ele>180</ele>
        <time>2018-03-24T09:48:22Z</time>
      </trkpt>
      <trkpt lat="45.95732" lon="4.71522">
        <ele>180</ele>
        <time>2018-03-24T09:48:23Z</time>
      </trkpt>
      <trkpt lat="45.95737" lon="4.71523">
        <ele>180</ele>
        <time>2018-03-24T09:48:24Z</time>
      </trkpt>
      <trkpt lat="45.95742" lon="4.71523">
        <ele>180</ele>
        <time>2018-03-24T09:48:25Z</time>
      </trkpt>
      <trkpt lat="45.95746" lon="4.71522">
        <ele>180</ele>
        <time>2018-03-24T09:48:26Z</time>
      </trkpt>
      <trkpt lat="45.95751" lon="4.71523">
        <ele>181</ele>
        <time>2018-03-24T09:48:27Z</time>
      </trkpt>
      <trkpt lat="45.95757" lon="4.71524">
        <ele>181</ele>
        <time>2018-03-24T09:48:28Z</time>
      </trkpt>
      <trkpt lat="45.95762" lon="4.71525">
        <ele>181</ele>
        <time>2018-03-24T09:48:29Z</time>
      </trkpt>
      <trkpt lat="45.95766" lon="4.71525">
        <ele>181</ele>
        <time>2018-03-24T09:48:30Z</time>
      </trkpt>
      <trkpt lat="45.95771" lon="4.71526">
        <ele>181</ele>
        <time>2018-03-24T09:48:31Z</time>
      </trkpt>
      <trkpt lat="45.95775" lon="4.71524">
        <ele>181</ele>
        <time>2018-03-24T09:48:32Z</time>
      </trkpt>
      <trkpt lat="45.95781" lon="4.71525">
        <ele>181</ele>
        <time>2018-03-24T09:48:33Z</time>
      </trkpt>
      <trkpt lat="45.95786" lon="4.71525">
        <ele>181</ele>
        <time>2018-03-24T09:48:34Z</time>
      </trkpt>
      <trkpt lat="45.95791" lon="4.71526">
        <ele>181</ele>
        <time>2018-03-24T09:48:35Z</time>
      </trkpt>
      <trkpt lat="45.95795" lon="4.71527">
        <ele>181</ele>
        <time>2018-03-24T09:48:36Z</time>
      </trkpt>
      <trkpt lat="45.95801" lon="4.71527">
        <ele>181</ele>
        <time>2018-03-24T09:48:37Z</time>
      </trkpt>
      <trkpt lat="45.95805" lon="4.71528">
        <ele>181</ele>
        <time>2018-03-24T09:48:38Z</time>
      </trkpt>
      <trkpt lat="45.95813" lon="4.7153">
        <ele>181</ele>
        <time>2018-03-24T09:48:40Z</time>
      </trkpt>
      <trkpt lat="45.95818" lon="4.7153">
        <ele>181</ele>
        <time>2018-03-24T09:48:41Z</time>
      </trkpt>
      <trkpt lat="45.95823" lon="4.71531">
        <ele>181</ele>
        <time>2018-03-24T09:48:42Z</time>
      </trkpt>
      <trkpt lat="45.95829" lon="4.71531">
        <ele>181</ele>
        <time>2018-03-24T09:48:43Z</time>
      </trkpt>
      <trkpt lat="45.95838" lon="4.71531">
        <ele>182</ele>
        <time>2018-03-24T09:48:45Z</time>
      </trkpt>
      <trkpt lat="45.95843" lon="4.71532">
        <ele>182</ele>
        <time>2018-03-24T09:48:46Z</time>
      </trkpt>
      <trkpt lat="45.95848" lon="4.71531">
        <ele>182</ele>
        <time>2018-03-24T09:48:47Z</time>
      </trkpt>
      <trkpt lat="45.95853" lon="4.71529">
        <ele>182</ele>
        <time>2018-03-24T09:48:48Z</time>
      </trkpt>
      <trkpt lat="45.95858" lon="4.7153">
        <ele>182</ele>
        <time>2018-03-24T09:48:49Z</time>
      </trkpt>
      <trkpt lat="45.95863" lon="4.71532">
        <ele>182</ele>
        <time>2018-03-24T09:48:50Z</time>
      </trkpt>
      <trkpt lat="45.9587" lon="4.71535">
        <ele>181</ele>
        <time>2018-03-24T09:48:51Z</time>
      </trkpt>
      <trkpt lat="45.95875" lon="4.71535">
        <ele>181</ele>
        <time>2018-03-24T09:48:52Z</time>
      </trkpt>
      <trkpt lat="45.9588" lon="4.71535">
        <ele>182</ele>
        <time>2018-03-24T09:48:53Z</time>
      </trkpt>
      <trkpt lat="45.95885" lon="4.71534">
        <ele>182</ele>
        <time>2018-03-24T09:48:54Z</time>
      </trkpt>
      <trkpt lat="45.9589" lon="4.71536">
        <ele>182</ele>
        <time>2018-03-24T09:48:55Z</time>
      </trkpt>
      <trkpt lat="45.95894" lon="4.71536">
        <ele>182</ele>
        <time>2018-03-24T09:48:56Z</time>
      </trkpt>
      <trkpt lat="45.95899" lon="4.71536">
        <ele>182</ele>
        <time>2018-03-24T09:48:57Z</time>
      </trkpt>
      <trkpt lat="45.95904" lon="4.71537">
        <ele>182</ele>
        <time>2018-03-24T09:48:58Z</time>
      </trkpt>
      <trkpt lat="45.95912" lon="4.71538">
        <ele>182</ele>
        <time>2018-03-24T09:49:00Z</time>
      </trkpt>
      <trkpt lat="45.95918" lon="4.71539">
        <ele>183</ele>
        <time>2018-03-24T09:49:01Z</time>
      </trkpt>
      <trkpt lat="45.95923" lon="4.7154">
        <ele>183</ele>
        <time>2018-03-24T09:49:02Z</time>
      </trkpt>
      <trkpt lat="45.95928" lon="4.7154">
        <ele>183</ele>
        <time>2018-03-24T09:49:03Z</time>
      </trkpt>
      <trkpt lat="45.95937" lon="4.71539">
        <ele>183</ele>
        <time>2018-03-24T09:49:05Z</time>
      </trkpt>
      <trkpt lat="45.95942" lon="4.71539">
        <ele>183</ele>
        <time>2018-03-24T09:49:06Z</time>
      </trkpt>
      <trkpt lat="45.9595" lon="4.71541">
        <ele>183</ele>
        <time>2018-03-24T09:49:08Z</time>
      </trkpt>
      <trkpt lat="45.95955" lon="4.71543">
        <ele>183</ele>
        <time>2018-03-24T09:49:09Z</time>
      </trkpt>
      <trkpt lat="45.95959" lon="4.71543">
        <ele>183</ele>
        <time>2018-03-24T09:49:10Z</time>
      </trkpt>
      <trkpt lat="45.95964" lon="4.71545">
        <ele>183</ele>
        <time>2018-03-24T09:49:11Z</time>
      </trkpt>
      <trkpt lat="45.95971" lon="4.71549">
        <ele>183</ele>
        <time>2018-03-24T09:49:13Z</time>
      </trkpt>
      <trkpt lat="45.95975" lon="4.71551">
        <ele>183</ele>
        <time>2018-03-24T09:49:14Z</time>
      </trkpt>
      <trkpt lat="45.95983" lon="4.71551">
        <ele>183</ele>
        <time>2018-03-24T09:49:16Z</time>
      </trkpt>
      <trkpt lat="45.95988" lon="4.7155">
        <ele>183</ele>
        <time>2018-03-24T09:49:17Z</time>
      </trkpt>
      <trkpt lat="45.95996" lon="4.71547">
        <ele>184</ele>
        <time>2018-03-24T09:49:19Z</time>
      </trkpt>
      <trkpt lat="45.96" lon="4.71545">
        <ele>185</ele>
        <time>2018-03-24T09:49:20Z</time>
      </trkpt>
      <trkpt lat="45.96006" lon="4.71545">
        <ele>185</ele>
        <time>2018-03-24T09:49:21Z</time>
      </trkpt>
      <trkpt lat="45.9601" lon="4.71545">
        <ele>185</ele>
        <time>2018-03-24T09:49:22Z</time>
      </trkpt>
      <trkpt lat="45.96014" lon="4.71546">
        <ele>185</ele>
        <time>2018-03-24T09:49:23Z</time>
      </trkpt>
      <trkpt lat="45.96019" lon="4.71546">
        <ele>185</ele>
        <time>2018-03-24T09:49:24Z</time>
      </trkpt>
      <trkpt lat="45.96024" lon="4.71545">
        <ele>185</ele>
        <time>2018-03-24T09:49:25Z</time>
      </trkpt>
      <trkpt lat="45.96029" lon="4.71546">
        <ele>185</ele>
        <time>2018-03-24T09:49:26Z</time>
      </trkpt>
      <trkpt lat="45.96034" lon="4.71546">
        <ele>185</ele>
        <time>2018-03-24T09:49:27Z</time>
      </trkpt>
      <trkpt lat="45.96039" lon="4.71547">
        <ele>185</ele>
        <time>2018-03-24T09:49:28Z</time>
      </trkpt>
      <trkpt lat="45.96044" lon="4.71548">
        <ele>185</ele>
        <time>2018-03-24T09:49:29Z</time>
      </trkpt>
      <trkpt lat="45.9605" lon="4.71549">
        <ele>185</ele>
        <time>2018-03-24T09:49:30Z</time>
      </trkpt>
      <trkpt lat="45.96056" lon="4.7155">
        <ele>185</ele>
        <time>2018-03-24T09:49:31Z</time>
      </trkpt>
      <trkpt lat="45.96063" lon="4.71551">
        <ele>185</ele>
        <time>2018-03-24T09:49:32Z</time>
      </trkpt>
      <trkpt lat="45.96068" lon="4.71552">
        <ele>185</ele>
        <time>2018-03-24T09:49:33Z</time>
      </trkpt>
      <trkpt lat="45.96074" lon="4.71553">
        <ele>185</ele>
        <time>2018-03-24T09:49:34Z</time>
      </trkpt>
      <trkpt lat="45.96081" lon="4.71553">
        <ele>185</ele>
        <time>2018-03-24T09:49:35Z</time>
      </trkpt>
      <trkpt lat="45.96086" lon="4.71554">
        <ele>184</ele>
        <time>2018-03-24T09:49:36Z</time>
      </trkpt>
      <trkpt lat="45.96093" lon="4.71555">
        <ele>184</ele>
        <time>2018-03-24T09:49:37Z</time>
      </trkpt>
      <trkpt lat="45.96099" lon="4.71556">
        <ele>184</ele>
        <time>2018-03-24T09:49:38Z</time>
      </trkpt>
      <trkpt lat="45.96105" lon="4.71557">
        <ele>184</ele>
        <time>2018-03-24T09:49:39Z</time>
      </trkpt>
      <trkpt lat="45.96111" lon="4.71558">
        <ele>184</ele>
        <time>2018-03-24T09:49:40Z</time>
      </trkpt>
      <trkpt lat="45.96118" lon="4.71559">
        <ele>184</ele>
        <time>2018-03-24T09:49:41Z</time>
      </trkpt>
      <trkpt lat="45.96125" lon="4.7156">
        <ele>184</ele>
        <time>2018-03-24T09:49:42Z</time>
      </trkpt>
      <trkpt lat="45.96131" lon="4.71562">
        <ele>184</ele>
        <time>2018-03-24T09:49:43Z</time>
      </trkpt>
      <trkpt lat="45.96139" lon="4.71563">
        <ele>184</ele>
        <time>2018-03-24T09:49:44Z</time>
      </trkpt>
      <trkpt lat="45.96145" lon="4.71564">
        <ele>183</ele>
        <time>2018-03-24T09:49:45Z</time>
      </trkpt>
      <trkpt lat="45.96152" lon="4.71566">
        <ele>183</ele>
        <time>2018-03-24T09:49:46Z</time>
      </trkpt>
      <trkpt lat="45.9616" lon="4.71568">
        <ele>182</ele>
        <time>2018-03-24T09:49:47Z</time>
      </trkpt>
      <trkpt lat="45.96167" lon="4.71569">
        <ele>182</ele>
        <time>2018-03-24T09:49:48Z</time>
      </trkpt>
      <trkpt lat="45.96174" lon="4.7157">
        <ele>182</ele>
        <time>2018-03-24T09:49:49Z</time>
      </trkpt>
      <trkpt lat="45.96181" lon="4.71571">
        <ele>182</ele>
        <time>2018-03-24T09:49:50Z</time>
      </trkpt>
      <trkpt lat="45.96188" lon="4.71573">
        <ele>182</ele>
        <time>2018-03-24T09:49:51Z</time>
      </trkpt>
      <trkpt lat="45.96194" lon="4.71573">
        <ele>183</ele>
        <time>2018-03-24T09:49:52Z</time>
      </trkpt>
      <trkpt lat="45.96201" lon="4.71574">
        <ele>183</ele>
        <time>2018-03-24T09:49:53Z</time>
      </trkpt>
      <trkpt lat="45.96207" lon="4.71575">
        <ele>183</ele>
        <time>2018-03-24T09:49:54Z</time>
      </trkpt>
      <trkpt lat="45.96214" lon="4.71576">
        <ele>183</ele>
        <time>2018-03-24T09:49:55Z</time>
      </trkpt>
      <trkpt lat="45.9622" lon="4.71576">
        <ele>183</ele>
        <time>2018-03-24T09:49:56Z</time>
      </trkpt>
      <trkpt lat="45.96226" lon="4.71578">
        <ele>183</ele>
        <time>2018-03-24T09:49:57Z</time>
      </trkpt>
      <trkpt lat="45.96232" lon="4.71579">
        <ele>183</ele>
        <time>2018-03-24T09:49:58Z</time>
      </trkpt>
      <trkpt lat="45.96238" lon="4.7158">
        <ele>182</ele>
        <time>2018-03-24T09:49:59Z</time>
      </trkpt>
      <trkpt lat="45.96244" lon="4.7158">
        <ele>182</ele>
        <time>2018-03-24T09:50:00Z</time>
      </trkpt>
      <trkpt lat="45.96251" lon="4.71583">
        <ele>181</ele>
        <time>2018-03-24T09:50:01Z</time>
      </trkpt>
      <trkpt lat="45.96257" lon="4.71584">
        <ele>181</ele>
        <time>2018-03-24T09:50:02Z</time>
      </trkpt>
      <trkpt lat="45.96264" lon="4.71586">
        <ele>181</ele>
        <time>2018-03-24T09:50:03Z</time>
      </trkpt>
      <trkpt lat="45.96269" lon="4.71585">
        <ele>180</ele>
        <time>2018-03-24T09:50:04Z</time>
      </trkpt>
      <trkpt lat="45.96276" lon="4.71584">
        <ele>180</ele>
        <time>2018-03-24T09:50:05Z</time>
      </trkpt>
      <trkpt lat="45.96282" lon="4.71586">
        <ele>180</ele>
        <time>2018-03-24T09:50:06Z</time>
      </trkpt>
      <trkpt lat="45.96289" lon="4.71587">
        <ele>181</ele>
        <time>2018-03-24T09:50:07Z</time>
      </trkpt>
      <trkpt lat="45.96295" lon="4.71589">
        <ele>181</ele>
        <time>2018-03-24T09:50:08Z</time>
      </trkpt>
      <trkpt lat="45.96301" lon="4.7159">
        <ele>181</ele>
        <time>2018-03-24T09:50:09Z</time>
      </trkpt>
      <trkpt lat="45.96306" lon="4.7159">
        <ele>181</ele>
        <time>2018-03-24T09:50:10Z</time>
      </trkpt>
      <trkpt lat="45.96312" lon="4.71591">
        <ele>181</ele>
        <time>2018-03-24T09:50:11Z</time>
      </trkpt>
      <trkpt lat="45.96318" lon="4.71592">
        <ele>181</ele>
        <time>2018-03-24T09:50:12Z</time>
      </trkpt>
      <trkpt lat="45.96324" lon="4.71592">
        <ele>182</ele>
        <time>2018-03-24T09:50:13Z</time>
      </trkpt>
      <trkpt lat="45.9633" lon="4.71592">
        <ele>182</ele>
        <time>2018-03-24T09:50:14Z</time>
      </trkpt>
      <trkpt lat="45.96336" lon="4.71593">
        <ele>182</ele>
        <time>2018-03-24T09:50:15Z</time>
      </trkpt>
      <trkpt lat="45.96342" lon="4.71594">
        <ele>182</ele>
        <time>2018-03-24T09:50:16Z</time>
      </trkpt>
      <trkpt lat="45.96348" lon="4.71595">
        <ele>182</ele>
        <time>2018-03-24T09:50:17Z</time>
      </trkpt>
      <trkpt lat="45.96353" lon="4.71595">
        <ele>182</ele>
        <time>2018-03-24T09:50:18Z</time>
      </trkpt>
      <trkpt lat="45.96359" lon="4.71597">
        <ele>182</ele>
        <time>2018-03-24T09:50:19Z</time>
      </trkpt>
      <trkpt lat="45.96366" lon="4.71598">
        <ele>182</ele>
        <time>2018-03-24T09:50:20Z</time>
      </trkpt>
      <trkpt lat="45.96373" lon="4.71599">
        <ele>182</ele>
        <time>2018-03-24T09:50:21Z</time>
      </trkpt>
      <trkpt lat="45.96379" lon="4.71601">
        <ele>182</ele>
        <time>2018-03-24T09:50:22Z</time>
      </trkpt>
      <trkpt lat="45.96385" lon="4.71602">
        <ele>182</ele>
        <time>2018-03-24T09:50:23Z</time>
      </trkpt>
      <trkpt lat="45.96391" lon="4.71603">
        <ele>182</ele>
        <time>2018-03-24T09:50:24Z</time>
      </trkpt>
      <trkpt lat="45.96397" lon="4.71604">
        <ele>183</ele>
        <time>2018-03-24T09:50:25Z</time>
      </trkpt>
      <trkpt lat="45.96404" lon="4.71605">
        <ele>183</ele>
        <time>2018-03-24T09:50:26Z</time>
      </trkpt>
      <trkpt lat="45.96409" lon="4.71606">
        <ele>183</ele>
        <time>2018-03-24T09:50:27Z</time>
      </trkpt>
      <trkpt lat="45.96415" lon="4.71606">
        <ele>183</ele>
        <time>2018-03-24T09:50:28Z</time>
      </trkpt>
      <trkpt lat="45.96421" lon="4.71607">
        <ele>183</ele>
        <time>2018-03-24T09:50:29Z</time>
      </trkpt>
      <trkpt lat="45.96427" lon="4.71608">
        <ele>183</ele>
        <time>2018-03-24T09:50:30Z</time>
      </trkpt>
      <trkpt lat="45.96433" lon="4.71609">
        <ele>183</ele>
        <time>2018-03-24T09:50:31Z</time>
      </trkpt>
      <trkpt lat="45.96438" lon="4.71609">
        <ele>183</ele>
        <time>2018-03-24T09:50:32Z</time>
      </trkpt>
      <trkpt lat="45.96442" lon="4.7161">
        <ele>183</ele>
        <time>2018-03-24T09:50:33Z</time>
      </trkpt>
      <trkpt lat="45.96448" lon="4.71611">
        <ele>183</ele>
        <time>2018-03-24T09:50:34Z</time>
      </trkpt>
      <trkpt lat="45.96453" lon="4.71612">
        <ele>183</ele>
        <time>2018-03-24T09:50:35Z</time>
      </trkpt>
      <trkpt lat="45.96458" lon="4.71613">
        <ele>183</ele>
        <time>2018-03-24T09:50:36Z</time>
      </trkpt>
      <trkpt lat="45.96463" lon="4.71614">
        <ele>183</ele>
        <time>2018-03-24T09:50:37Z</time>
      </trkpt>
      <trkpt lat="45.96468" lon="4.71615">
        <ele>183</ele>
        <time>2018-03-24T09:50:38Z</time>
      </trkpt>
      <trkpt lat="45.96474" lon="4.71616">
        <ele>183</ele>
        <time>2018-03-24T09:50:39Z</time>
      </trkpt>
      <trkpt lat="45.96479" lon="4.71617">
        <ele>183</ele>
        <time>2018-03-24T09:50:40Z</time>
      </trkpt>
      <trkpt lat="45.96485" lon="4.71618">
        <ele>183</ele>
        <time>2018-03-24T09:50:41Z</time>
      </trkpt>
      <trkpt lat="45.9649" lon="4.71619">
        <ele>183</ele>
        <time>2018-03-24T09:50:42Z</time>
      </trkpt>
      <trkpt lat="45.96495" lon="4.7162">
        <ele>183</ele>
        <time>2018-03-24T09:50:43Z</time>
      </trkpt>
      <trkpt lat="45.965" lon="4.71621">
        <ele>184</ele>
        <time>2018-03-24T09:50:44Z</time>
      </trkpt>
      <trkpt lat="45.96505" lon="4.71623">
        <ele>184</ele>
        <time>2018-03-24T09:50:45Z</time>
      </trkpt>
      <trkpt lat="45.96509" lon="4.71626">
        <ele>184</ele>
        <time>2018-03-24T09:50:46Z</time>
      </trkpt>
      <trkpt lat="45.96513" lon="4.7163">
        <ele>183</ele>
        <time>2018-03-24T09:50:47Z</time>
      </trkpt>
      <trkpt lat="45.96518" lon="4.71635">
        <ele>183</ele>
        <time>2018-03-24T09:50:48Z</time>
      </trkpt>
      <trkpt lat="45.96523" lon="4.71639">
        <ele>183</ele>
        <time>2018-03-24T09:50:49Z</time>
      </trkpt>
      <trkpt lat="45.96528" lon="4.7164">
        <ele>183</ele>
        <time>2018-03-24T09:50:50Z</time>
      </trkpt>
      <trkpt lat="45.96533" lon="4.71641">
        <ele>184</ele>
        <time>2018-03-24T09:50:51Z</time>
      </trkpt>
      <trkpt lat="45.96539" lon="4.71639">
        <ele>184</ele>
        <time>2018-03-24T09:50:52Z</time>
      </trkpt>
      <trkpt lat="45.96543" lon="4.71636">
        <ele>184</ele>
        <time>2018-03-24T09:50:53Z</time>
      </trkpt>
      <trkpt lat="45.96548" lon="4.71633">
        <ele>184</ele>
        <time>2018-03-24T09:50:54Z</time>
      </trkpt>
      <trkpt lat="45.96553" lon="4.71629">
        <ele>184</ele>
        <time>2018-03-24T09:50:55Z</time>
      </trkpt>
      <trkpt lat="45.96557" lon="4.71628">
        <ele>184</ele>
        <time>2018-03-24T09:50:56Z</time>
      </trkpt>
      <trkpt lat="45.96562" lon="4.71629">
        <ele>184</ele>
        <time>2018-03-24T09:50:57Z</time>
      </trkpt>
      <trkpt lat="45.96568" lon="4.71631">
        <ele>184</ele>
        <time>2018-03-24T09:50:58Z</time>
      </trkpt>
      <trkpt lat="45.96573" lon="4.71632">
        <ele>184</ele>
        <time>2018-03-24T09:50:59Z</time>
      </trkpt>
      <trkpt lat="45.96577" lon="4.71634">
        <ele>184</ele>
        <time>2018-03-24T09:51:00Z</time>
      </trkpt>
      <trkpt lat="45.96582" lon="4.71634">
        <ele>184</ele>
        <time>2018-03-24T09:51:01Z</time>
      </trkpt>
      <trkpt lat="45.96587" lon="4.71635">
        <ele>187</ele>
        <time>2018-03-24T09:51:02Z</time>
      </trkpt>
      <trkpt lat="45.96592" lon="4.71636">
        <ele>187</ele>
        <time>2018-03-24T09:51:03Z</time>
      </trkpt>
      <trkpt lat="45.96598" lon="4.71637">
        <ele>187</ele>
        <time>2018-03-24T09:51:04Z</time>
      </trkpt>
      <trkpt lat="45.96603" lon="4.71638">
        <ele>187</ele>
        <time>2018-03-24T09:51:05Z</time>
      </trkpt>
      <trkpt lat="45.96607" lon="4.71639">
        <ele>187</ele>
        <time>2018-03-24T09:51:06Z</time>
      </trkpt>
      <trkpt lat="45.96613" lon="4.7164">
        <ele>187</ele>
        <time>2018-03-24T09:51:07Z</time>
      </trkpt>
      <trkpt lat="45.96618" lon="4.71641">
        <ele>187</ele>
        <time>2018-03-24T09:51:08Z</time>
      </trkpt>
      <trkpt lat="45.96623" lon="4.71642">
        <ele>187</ele>
        <time>2018-03-24T09:51:09Z</time>
      </trkpt>
      <trkpt lat="45.96629" lon="4.71643">
        <ele>187</ele>
        <time>2018-03-24T09:51:10Z</time>
      </trkpt>
      <trkpt lat="45.96634" lon="4.71644">
        <ele>187</ele>
        <time>2018-03-24T09:51:11Z</time>
      </trkpt>
      <trkpt lat="45.96639" lon="4.71645">
        <ele>187</ele>
        <time>2018-03-24T09:51:12Z</time>
      </trkpt>
      <trkpt lat="45.96644" lon="4.71646">
        <ele>187</ele>
        <time>2018-03-24T09:51:13Z</time>
      </trkpt>
      <trkpt lat="45.9665" lon="4.71647">
        <ele>188</ele>
        <time>2018-03-24T09:51:14Z</time>
      </trkpt>
      <trkpt lat="45.96659" lon="4.71647">
        <ele>188</ele>
        <time>2018-03-24T09:51:16Z</time>
      </trkpt>
      <trkpt lat="45.96664" lon="4.71648">
        <ele>188</ele>
        <time>2018-03-24T09:51:17Z</time>
      </trkpt>
      <trkpt lat="45.96669" lon="4.71649">
        <ele>189</ele>
        <time>2018-03-24T09:51:18Z</time>
      </trkpt>
      <trkpt lat="45.96674" lon="4.71649">
        <ele>189</ele>
        <time>2018-03-24T09:51:19Z</time>
      </trkpt>
      <trkpt lat="45.9668" lon="4.7165">
        <ele>189</ele>
        <time>2018-03-24T09:51:20Z</time>
      </trkpt>
      <trkpt lat="45.96684" lon="4.71649">
        <ele>189</ele>
        <time>2018-03-24T09:51:21Z</time>
      </trkpt>
      <trkpt lat="45.96689" lon="4.7165">
        <ele>189</ele>
        <time>2018-03-24T09:51:22Z</time>
      </trkpt>
      <trkpt lat="45.96693" lon="4.71651">
        <ele>189</ele>
        <time>2018-03-24T09:51:23Z</time>
      </trkpt>
      <trkpt lat="45.96698" lon="4.71651">
        <ele>190</ele>
        <time>2018-03-24T09:51:24Z</time>
      </trkpt>
      <trkpt lat="45.96704" lon="4.71652">
        <ele>190</ele>
        <time>2018-03-24T09:51:25Z</time>
      </trkpt>
      <trkpt lat="45.96708" lon="4.71652">
        <ele>190</ele>
        <time>2018-03-24T09:51:26Z</time>
      </trkpt>
      <trkpt lat="45.96713" lon="4.71653">
        <ele>190</ele>
        <time>2018-03-24T09:51:27Z</time>
      </trkpt>
      <trkpt lat="45.96718" lon="4.71654">
        <ele>190</ele>
        <time>2018-03-24T09:51:28Z</time>
      </trkpt>
      <trkpt lat="45.96724" lon="4.71656">
        <ele>190</ele>
        <time>2018-03-24T09:51:29Z</time>
      </trkpt>
      <trkpt lat="45.96731" lon="4.71657">
        <ele>190</ele>
        <time>2018-03-24T09:51:30Z</time>
      </trkpt>
      <trkpt lat="45.96735" lon="4.71658">
        <ele>190</ele>
        <time>2018-03-24T09:51:31Z</time>
      </trkpt>
      <trkpt lat="45.96741" lon="4.71659">
        <ele>190</ele>
        <time>2018-03-24T09:51:32Z</time>
      </trkpt>
      <trkpt lat="45.96746" lon="4.71659">
        <ele>189</ele>
        <time>2018-03-24T09:51:33Z</time>
      </trkpt>
      <trkpt lat="45.96751" lon="4.71659">
        <ele>190</ele>
        <time>2018-03-24T09:51:34Z</time>
      </trkpt>
      <trkpt lat="45.96756" lon="4.71659">
        <ele>190</ele>
        <time>2018-03-24T09:51:35Z</time>
      </trkpt>
      <trkpt lat="45.96761" lon="4.7166">
        <ele>191</ele>
        <time>2018-03-24T09:51:36Z</time>
      </trkpt>
      <trkpt lat="45.96766" lon="4.71661">
        <ele>191</ele>
        <time>2018-03-24T09:51:37Z</time>
      </trkpt>
      <trkpt lat="45.96771" lon="4.71662">
        <ele>191</ele>
        <time>2018-03-24T09:51:38Z</time>
      </trkpt>
      <trkpt lat="45.96776" lon="4.71663">
        <ele>192</ele>
        <time>2018-03-24T09:51:39Z</time>
      </trkpt>
      <trkpt lat="45.96781" lon="4.71663">
        <ele>192</ele>
        <time>2018-03-24T09:51:40Z</time>
      </trkpt>
      <trkpt lat="45.96786" lon="4.71664">
        <ele>192</ele>
        <time>2018-03-24T09:51:41Z</time>
      </trkpt>
      <trkpt lat="45.96791" lon="4.71665">
        <ele>192</ele>
        <time>2018-03-24T09:51:42Z</time>
      </trkpt>
      <trkpt lat="45.96796" lon="4.71666">
        <ele>192</ele>
        <time>2018-03-24T09:51:43Z</time>
      </trkpt>
      <trkpt lat="45.96801" lon="4.71667">
        <ele>192</ele>
        <time>2018-03-24T09:51:44Z</time>
      </trkpt>
      <trkpt lat="45.96806" lon="4.71668">
        <ele>189</ele>
        <time>2018-03-24T09:51:45Z</time>
      </trkpt>
      <trkpt lat="45.96811" lon="4.71669">
        <ele>189</ele>
        <time>2018-03-24T09:51:46Z</time>
      </trkpt>
      <trkpt lat="45.96817" lon="4.7167">
        <ele>189</ele>
        <time>2018-03-24T09:51:47Z</time>
      </trkpt>
      <trkpt lat="45.96821" lon="4.71671">
        <ele>190</ele>
        <time>2018-03-24T09:51:48Z</time>
      </trkpt>
      <trkpt lat="45.96826" lon="4.71671">
        <ele>190</ele>
        <time>2018-03-24T09:51:49Z</time>
      </trkpt>
      <trkpt lat="45.96835" lon="4.71673">
        <ele>191</ele>
        <time>2018-03-24T09:51:51Z</time>
      </trkpt>
      <trkpt lat="45.96839" lon="4.71672">
        <ele>191</ele>
        <time>2018-03-24T09:51:52Z</time>
      </trkpt>
      <trkpt lat="45.96843" lon="4.71673">
        <ele>191</ele>
        <time>2018-03-24T09:51:53Z</time>
      </trkpt>
      <trkpt lat="45.96848" lon="4.71674">
        <ele>191</ele>
        <time>2018-03-24T09:51:54Z</time>
      </trkpt>
      <trkpt lat="45.96853" lon="4.71675">
        <ele>190</ele>
        <time>2018-03-24T09:51:55Z</time>
      </trkpt>
      <trkpt lat="45.96858" lon="4.71675">
        <ele>190</ele>
        <time>2018-03-24T09:51:56Z</time>
      </trkpt>
      <trkpt lat="45.96862" lon="4.71675">
        <ele>190</ele>
        <time>2018-03-24T09:51:57Z</time>
      </trkpt>
      <trkpt lat="45.96867" lon="4.71676">
        <ele>190</ele>
        <time>2018-03-24T09:51:58Z</time>
      </trkpt>
      <trkpt lat="45.96872" lon="4.71677">
        <ele>190</ele>
        <time>2018-03-24T09:51:59Z</time>
      </trkpt>
      <trkpt lat="45.96877" lon="4.71676">
        <ele>190</ele>
        <time>2018-03-24T09:52:00Z</time>
      </trkpt>
      <trkpt lat="45.96882" lon="4.71677">
        <ele>190</ele>
        <time>2018-03-24T09:52:01Z</time>
      </trkpt>
      <trkpt lat="45.96886" lon="4.71678">
        <ele>191</ele>
        <time>2018-03-24T09:52:02Z</time>
      </trkpt>
      <trkpt lat="45.96893" lon="4.7168">
        <ele>191</ele>
        <time>2018-03-24T09:52:03Z</time>
      </trkpt>
      <trkpt lat="45.96897" lon="4.71681">
        <ele>191</ele>
        <time>2018-03-24T09:52:04Z</time>
      </trkpt>
      <trkpt lat="45.96902" lon="4.71681">
        <ele>191</ele>
        <time>2018-03-24T09:52:05Z</time>
      </trkpt>
      <trkpt lat="45.96906" lon="4.71681">
        <ele>192</ele>
        <time>2018-03-24T09:52:06Z</time>
      </trkpt>
      <trkpt lat="45.96914" lon="4.71683">
        <ele>192</ele>
        <time>2018-03-24T09:52:08Z</time>
      </trkpt>
      <trkpt lat="45.96919" lon="4.71684">
        <ele>193</ele>
        <time>2018-03-24T09:52:09Z</time>
      </trkpt>
      <trkpt lat="45.96924" lon="4.71684">
        <ele>192</ele>
        <time>2018-03-24T09:52:10Z</time>
      </trkpt>
      <trkpt lat="45.96928" lon="4.71683">
        <ele>192</ele>
        <time>2018-03-24T09:52:11Z</time>
      </trkpt>
      <trkpt lat="45.96933" lon="4.71684">
        <ele>192</ele>
        <time>2018-03-24T09:52:12Z</time>
      </trkpt>
      <trkpt lat="45.96939" lon="4.71685">
        <ele>192</ele>
        <time>2018-03-24T09:52:13Z</time>
      </trkpt>
      <trkpt lat="45.96944" lon="4.71685">
        <ele>192</ele>
        <time>2018-03-24T09:52:14Z</time>
      </trkpt>
      <trkpt lat="45.9695" lon="4.71686">
        <ele>192</ele>
        <time>2018-03-24T09:52:15Z</time>
      </trkpt>
      <trkpt lat="45.96956" lon="4.71687">
        <ele>191</ele>
        <time>2018-03-24T09:52:16Z</time>
      </trkpt>
      <trkpt lat="45.96961" lon="4.71688">
        <ele>191</ele>
        <time>2018-03-24T09:52:17Z</time>
      </trkpt>
      <trkpt lat="45.96966" lon="4.71689">
        <ele>191</ele>
        <time>2018-03-24T09:52:18Z</time>
      </trkpt>
      <trkpt lat="45.96971" lon="4.71689">
        <ele>191</ele>
        <time>2018-03-24T09:52:19Z</time>
      </trkpt>
      <trkpt lat="45.9698" lon="4.71689">
        <ele>192</ele>
        <time>2018-03-24T09:52:21Z</time>
      </trkpt>
      <trkpt lat="45.96986" lon="4.71692">
        <ele>192</ele>
        <time>2018-03-24T09:52:22Z</time>
      </trkpt>
      <trkpt lat="45.96991" lon="4.71692">
        <ele>192</ele>
        <time>2018-03-24T09:52:23Z</time>
      </trkpt>
      <trkpt lat="45.96996" lon="4.71692">
        <ele>192</ele>
        <time>2018-03-24T09:52:24Z</time>
      </trkpt>
      <trkpt lat="45.97004" lon="4.71692">
        <ele>193</ele>
        <time>2018-03-24T09:52:26Z</time>
      </trkpt>
      <trkpt lat="45.9701" lon="4.71692">
        <ele>193</ele>
        <time>2018-03-24T09:52:27Z</time>
      </trkpt>
      <trkpt lat="45.97016" lon="4.71691">
        <ele>193</ele>
        <time>2018-03-24T09:52:29Z</time>
      </trkpt>
      <trkpt lat="45.97022" lon="4.71693">
        <ele>192</ele>
        <time>2018-03-24T09:52:30Z</time>
      </trkpt>
      <trkpt lat="45.97027" lon="4.71694">
        <ele>192</ele>
        <time>2018-03-24T09:52:31Z</time>
      </trkpt>
      <trkpt lat="45.97032" lon="4.71693">
        <ele>192</ele>
        <time>2018-03-24T09:52:32Z</time>
      </trkpt>
      <trkpt lat="45.97037" lon="4.71694">
        <ele>192</ele>
        <time>2018-03-24T09:52:33Z</time>
      </trkpt>
      <trkpt lat="45.97042" lon="4.71694">
        <ele>192</ele>
        <time>2018-03-24T09:52:34Z</time>
      </trkpt>
      <trkpt lat="45.97047" lon="4.71694">
        <ele>192</ele>
        <time>2018-03-24T09:52:35Z</time>
      </trkpt>
      <trkpt lat="45.97052" lon="4.71694">
        <ele>193</ele>
        <time>2018-03-24T09:52:36Z</time>
      </trkpt>
      <trkpt lat="45.97057" lon="4.71695">
        <ele>193</ele>
        <time>2018-03-24T09:52:37Z</time>
      </trkpt>
      <trkpt lat="45.97062" lon="4.71695">
        <ele>193</ele>
        <time>2018-03-24T09:52:38Z</time>
      </trkpt>
      <trkpt lat="45.97068" lon="4.71696">
        <ele>193</ele>
        <time>2018-03-24T09:52:39Z</time>
      </trkpt>
      <trkpt lat="45.97073" lon="4.71696">
        <ele>193</ele>
        <time>2018-03-24T09:52:40Z</time>
      </trkpt>
      <trkpt lat="45.97078" lon="4.71697">
        <ele>193</ele>
        <time>2018-03-24T09:52:41Z</time>
      </trkpt>
      <trkpt lat="45.97084" lon="4.71697">
        <ele>194</ele>
        <time>2018-03-24T09:52:42Z</time>
      </trkpt>
      <trkpt lat="45.9709" lon="4.71698">
        <ele>194</ele>
        <time>2018-03-24T09:52:43Z</time>
      </trkpt>
      <trkpt lat="45.97094" lon="4.71697">
        <ele>194</ele>
        <time>2018-03-24T09:52:44Z</time>
      </trkpt>
      <trkpt lat="45.971" lon="4.71698">
        <ele>194</ele>
        <time>2018-03-24T09:52:45Z</time>
      </trkpt>
      <trkpt lat="45.97105" lon="4.71698">
        <ele>194</ele>
        <time>2018-03-24T09:52:46Z</time>
      </trkpt>
      <trkpt lat="45.9711" lon="4.71699">
        <ele>194</ele>
        <time>2018-03-24T09:52:47Z</time>
      </trkpt>
      <trkpt lat="45.97114" lon="4.717">
        <ele>194</ele>
        <time>2018-03-24T09:52:48Z</time>
      </trkpt>
      <trkpt lat="45.9712" lon="4.71699">
        <ele>194</ele>
        <time>2018-03-24T09:52:49Z</time>
      </trkpt>
      <trkpt lat="45.97126" lon="4.717">
        <ele>194</ele>
        <time>2018-03-24T09:52:50Z</time>
      </trkpt>
      <trkpt lat="45.9713" lon="4.717">
        <ele>194</ele>
        <time>2018-03-24T09:52:51Z</time>
      </trkpt>
      <trkpt lat="45.97136" lon="4.71702">
        <ele>194</ele>
        <time>2018-03-24T09:52:52Z</time>
      </trkpt>
      <trkpt lat="45.97141" lon="4.71701">
        <ele>195</ele>
        <time>2018-03-24T09:52:53Z</time>
      </trkpt>
      <trkpt lat="45.97147" lon="4.71701">
        <ele>195</ele>
        <time>2018-03-24T09:52:54Z</time>
      </trkpt>
      <trkpt lat="45.97152" lon="4.71701">
        <ele>195</ele>
        <time>2018-03-24T09:52:55Z</time>
      </trkpt>
      <trkpt lat="45.97158" lon="4.71702">
        <ele>195</ele>
        <time>2018-03-24T09:52:56Z</time>
      </trkpt>
      <trkpt lat="45.97163" lon="4.71703">
        <ele>195</ele>
        <time>2018-03-24T09:52:57Z</time>
      </trkpt>
      <trkpt lat="45.97168" lon="4.71702">
        <ele>196</ele>
        <time>2018-03-24T09:52:58Z</time>
      </trkpt>
      <trkpt lat="45.97173" lon="4.71701">
        <ele>196</ele>
        <time>2018-03-24T09:52:59Z</time>
      </trkpt>
      <trkpt lat="45.97178" lon="4.71702">
        <ele>196</ele>
        <time>2018-03-24T09:53:00Z</time>
      </trkpt>
      <trkpt lat="45.97182" lon="4.71702">
        <ele>196</ele>
        <time>2018-03-24T09:53:01Z</time>
      </trkpt>
      <trkpt lat="45.97187" lon="4.71703">
        <ele>196</ele>
        <time>2018-03-24T09:53:02Z</time>
      </trkpt>
      <trkpt lat="45.97193" lon="4.71704">
        <ele>196</ele>
        <time>2018-03-24T09:53:03Z</time>
      </trkpt>
      <trkpt lat="45.97199" lon="4.71705">
        <ele>196</ele>
        <time>2018-03-24T09:53:04Z</time>
      </trkpt>
      <trkpt lat="45.97204" lon="4.71706">
        <ele>196</ele>
        <time>2018-03-24T09:53:05Z</time>
      </trkpt>
      <trkpt lat="45.97208" lon="4.71706">
        <ele>196</ele>
        <time>2018-03-24T09:53:06Z</time>
      </trkpt>
      <trkpt lat="45.97213" lon="4.71706">
        <ele>196</ele>
        <time>2018-03-24T09:53:07Z</time>
      </trkpt>
      <trkpt lat="45.97218" lon="4.71707">
        <ele>196</ele>
        <time>2018-03-24T09:53:08Z</time>
      </trkpt>
      <trkpt lat="45.97223" lon="4.71708">
        <ele>196</ele>
        <time>2018-03-24T09:53:09Z</time>
      </trkpt>
      <trkpt lat="45.97229" lon="4.71709">
        <ele>196</ele>
        <time>2018-03-24T09:53:10Z</time>
      </trkpt>
      <trkpt lat="45.97234" lon="4.7171">
        <ele>196</ele>
        <time>2018-03-24T09:53:11Z</time>
      </trkpt>
      <trkpt lat="45.97239" lon="4.71711">
        <ele>196</ele>
        <time>2018-03-24T09:53:12Z</time>
      </trkpt>
      <trkpt lat="45.97244" lon="4.71711">
        <ele>196</ele>
        <time>2018-03-24T09:53:13Z</time>
      </trkpt>
      <trkpt lat="45.97249" lon="4.7171">
        <ele>196</ele>
        <time>2018-03-24T09:53:14Z</time>
      </trkpt>
      <trkpt lat="45.97254" lon="4.71712">
        <ele>196</ele>
        <time>2018-03-24T09:53:15Z</time>
      </trkpt>
      <trkpt lat="45.97259" lon="4.71713">
        <ele>196</ele>
        <time>2018-03-24T09:53:16Z</time>
      </trkpt>
      <trkpt lat="45.97263" lon="4.71713">
        <ele>196</ele>
        <time>2018-03-24T09:53:17Z</time>
      </trkpt>
      <trkpt lat="45.97268" lon="4.71714">
        <ele>196</ele>
        <time>2018-03-24T09:53:18Z</time>
      </trkpt>
      <trkpt lat="45.97276" lon="4.71717">
        <ele>196</ele>
        <time>2018-03-24T09:53:20Z</time>
      </trkpt>
      <trkpt lat="45.9728" lon="4.7172">
        <ele>196</ele>
        <time>2018-03-24T09:53:21Z</time>
      </trkpt>
      <trkpt lat="45.97286" lon="4.71727">
        <ele>196</ele>
        <time>2018-03-24T09:53:23Z</time>
      </trkpt>
      <trkpt lat="45.97289" lon="4.71731">
        <ele>196</ele>
        <time>2018-03-24T09:53:24Z</time>
      </trkpt>
      <trkpt lat="45.97296" lon="4.71736">
        <ele>196</ele>
        <time>2018-03-24T09:53:26Z</time>
      </trkpt>
      <trkpt lat="45.97301" lon="4.71739">
        <ele>196</ele>
        <time>2018-03-24T09:53:27Z</time>
      </trkpt>
      <trkpt lat="45.97306" lon="4.71739">
        <ele>195</ele>
        <time>2018-03-24T09:53:28Z</time>
      </trkpt>
      <trkpt lat="45.9731" lon="4.71738">
        <ele>195</ele>
        <time>2018-03-24T09:53:29Z</time>
      </trkpt>
      <trkpt lat="45.97314" lon="4.71734">
        <ele>195</ele>
        <time>2018-03-24T09:53:30Z</time>
      </trkpt>
      <trkpt lat="45.97318" lon="4.7173">
        <ele>195</ele>
        <time>2018-03-24T09:53:31Z</time>
      </trkpt>
      <trkpt lat="45.97323" lon="4.71725">
        <ele>196</ele>
        <time>2018-03-24T09:53:32Z</time>
      </trkpt>
      <trkpt lat="45.97328" lon="4.71722">
        <ele>196</ele>
        <time>2018-03-24T09:53:33Z</time>
      </trkpt>
      <trkpt lat="45.97332" lon="4.71721">
        <ele>196</ele>
        <time>2018-03-24T09:53:34Z</time>
      </trkpt>
      <trkpt lat="45.97337" lon="4.71719">
        <ele>195</ele>
        <time>2018-03-24T09:53:35Z</time>
      </trkpt>
      <trkpt lat="45.97341" lon="4.7172">
        <ele>195</ele>
        <time>2018-03-24T09:53:36Z</time>
      </trkpt>
      <trkpt lat="45.97346" lon="4.71721">
        <ele>195</ele>
        <time>2018-03-24T09:53:37Z</time>
      </trkpt>
      <trkpt lat="45.97354" lon="4.71721">
        <ele>195</ele>
        <time>2018-03-24T09:53:39Z</time>
      </trkpt>
      <trkpt lat="45.97359" lon="4.71722">
        <ele>195</ele>
        <time>2018-03-24T09:53:40Z</time>
      </trkpt>
      <trkpt lat="45.97364" lon="4.71722">
        <ele>195</ele>
        <time>2018-03-24T09:53:41Z</time>
      </trkpt>
      <trkpt lat="45.9737" lon="4.71723">
        <ele>195</ele>
        <time>2018-03-24T09:53:42Z</time>
      </trkpt>
      <trkpt lat="45.97375" lon="4.71724">
        <ele>195</ele>
        <time>2018-03-24T09:53:43Z</time>
      </trkpt>
      <trkpt lat="45.9738" lon="4.71724">
        <ele>195</ele>
        <time>2018-03-24T09:53:44Z</time>
      </trkpt>
      <trkpt lat="45.97386" lon="4.71724">
        <ele>195</ele>
        <time>2018-03-24T09:53:45Z</time>
      </trkpt>
      <trkpt lat="45.97391" lon="4.71724">
        <ele>195</ele>
        <time>2018-03-24T09:53:46Z</time>
      </trkpt>
      <trkpt lat="45.97397" lon="4.71723">
        <ele>195</ele>
        <time>2018-03-24T09:53:47Z</time>
      </trkpt>
      <trkpt lat="45.97402" lon="4.71723">
        <ele>195</ele>
        <time>2018-03-24T09:53:48Z</time>
      </trkpt>
      <trkpt lat="45.97407" lon="4.71723">
        <ele>195</ele>
        <time>2018-03-24T09:53:49Z</time>
      </trkpt>
      <trkpt lat="45.97412" lon="4.71722">
        <ele>195</ele>
        <time>2018-03-24T09:53:50Z</time>
      </trkpt>
      <trkpt lat="45.97418" lon="4.71723">
        <ele>196</ele>
        <time>2018-03-24T09:53:51Z</time>
      </trkpt>
      <trkpt lat="45.97423" lon="4.71723">
        <ele>196</ele>
        <time>2018-03-24T09:53:52Z</time>
      </trkpt>
      <trkpt lat="45.97429" lon="4.71725">
        <ele>196</ele>
        <time>2018-03-24T09:53:53Z</time>
      </trkpt>
      <trkpt lat="45.97434" lon="4.71725">
        <ele>196</ele>
        <time>2018-03-24T09:53:54Z</time>
      </trkpt>
      <trkpt lat="45.97439" lon="4.71726">
        <ele>196</ele>
        <time>2018-03-24T09:53:55Z</time>
      </trkpt>
      <trkpt lat="45.97443" lon="4.71726">
        <ele>196</ele>
        <time>2018-03-24T09:53:56Z</time>
      </trkpt>
      <trkpt lat="45.97448" lon="4.71728">
        <ele>196</ele>
        <time>2018-03-24T09:53:57Z</time>
      </trkpt>
      <trkpt lat="45.97453" lon="4.71727">
        <ele>196</ele>
        <time>2018-03-24T09:53:58Z</time>
      </trkpt>
      <trkpt lat="45.97457" lon="4.71727">
        <ele>197</ele>
        <time>2018-03-24T09:53:59Z</time>
      </trkpt>
      <trkpt lat="45.97463" lon="4.71727">
        <ele>197</ele>
        <time>2018-03-24T09:54:00Z</time>
      </trkpt>
      <trkpt lat="45.97469" lon="4.71729">
        <ele>197</ele>
        <time>2018-03-24T09:54:01Z</time>
      </trkpt>
      <trkpt lat="45.97473" lon="4.7173">
        <ele>197</ele>
        <time>2018-03-24T09:54:02Z</time>
      </trkpt>
      <trkpt lat="45.97479" lon="4.71731">
        <ele>197</ele>
        <time>2018-03-24T09:54:03Z</time>
      </trkpt>
      <trkpt lat="45.97484" lon="4.71732">
        <ele>197</ele>
        <time>2018-03-24T09:54:04Z</time>
      </trkpt>
      <trkpt lat="45.97489" lon="4.71732">
        <ele>197</ele>
        <time>2018-03-24T09:54:05Z</time>
      </trkpt>
      <trkpt lat="45.97495" lon="4.71733">
        <ele>197</ele>
        <time>2018-03-24T09:54:06Z</time>
      </trkpt>
      <trkpt lat="45.97501" lon="4.71734">
        <ele>197</ele>
        <time>2018-03-24T09:54:07Z</time>
      </trkpt>
      <trkpt lat="45.97506" lon="4.71733">
        <ele>197</ele>
        <time>2018-03-24T09:54:08Z</time>
      </trkpt>
      <trkpt lat="45.97511" lon="4.71734">
        <ele>197</ele>
        <time>2018-03-24T09:54:09Z</time>
      </trkpt>
      <trkpt lat="45.97516" lon="4.71734">
        <ele>198</ele>
        <time>2018-03-24T09:54:10Z</time>
      </trkpt>
      <trkpt lat="45.97521" lon="4.71735">
        <ele>198</ele>
        <time>2018-03-24T09:54:11Z</time>
      </trkpt>
      <trkpt lat="45.97526" lon="4.71736">
        <ele>198</ele>
        <time>2018-03-24T09:54:12Z</time>
      </trkpt>
      <trkpt lat="45.97531" lon="4.71735">
        <ele>198</ele>
        <time>2018-03-24T09:54:13Z</time>
      </trkpt>
      <trkpt lat="45.97536" lon="4.71736">
        <ele>198</ele>
        <time>2018-03-24T09:54:14Z</time>
      </trkpt>
      <trkpt lat="45.9754" lon="4.71736">
        <ele>198</ele>
        <time>2018-03-24T09:54:15Z</time>
      </trkpt>
      <trkpt lat="45.97545" lon="4.71736">
        <ele>198</ele>
        <time>2018-03-24T09:54:16Z</time>
      </trkpt>
      <trkpt lat="45.97551" lon="4.71737">
        <ele>197</ele>
        <time>2018-03-24T09:54:17Z</time>
      </trkpt>
      <trkpt lat="45.97557" lon="4.71737">
        <ele>197</ele>
        <time>2018-03-24T09:54:18Z</time>
      </trkpt>
      <trkpt lat="45.97562" lon="4.71737">
        <ele>197</ele>
        <time>2018-03-24T09:54:19Z</time>
      </trkpt>
      <trkpt lat="45.97568" lon="4.71738">
        <ele>197</ele>
        <time>2018-03-24T09:54:20Z</time>
      </trkpt>
      <trkpt lat="45.97574" lon="4.71737">
        <ele>197</ele>
        <time>2018-03-24T09:54:21Z</time>
      </trkpt>
      <trkpt lat="45.97579" lon="4.71737">
        <ele>196</ele>
        <time>2018-03-24T09:54:22Z</time>
      </trkpt>
      <trkpt lat="45.97585" lon="4.71738">
        <ele>196</ele>
        <time>2018-03-24T09:54:23Z</time>
      </trkpt>
      <trkpt lat="45.9759" lon="4.71739">
        <ele>196</ele>
        <time>2018-03-24T09:54:24Z</time>
      </trkpt>
      <trkpt lat="45.97594" lon="4.71743">
        <ele>196</ele>
        <time>2018-03-24T09:54:25Z</time>
      </trkpt>
      <trkpt lat="45.97599" lon="4.71748">
        <ele>196</ele>
        <time>2018-03-24T09:54:26Z</time>
      </trkpt>
      <trkpt lat="45.97602" lon="4.71754">
        <ele>194</ele>
        <time>2018-03-24T09:54:27Z</time>
      </trkpt>
      <trkpt lat="45.97607" lon="4.71759">
        <ele>194</ele>
        <time>2018-03-24T09:54:28Z</time>
      </trkpt>
      <trkpt lat="45.97613" lon="4.71762">
        <ele>194</ele>
        <time>2018-03-24T09:54:29Z</time>
      </trkpt>
      <trkpt lat="45.97619" lon="4.71761">
        <ele>194</ele>
        <time>2018-03-24T09:54:30Z</time>
      </trkpt>
      <trkpt lat="45.97625" lon="4.7176">
        <ele>194</ele>
        <time>2018-03-24T09:54:31Z</time>
      </trkpt>
      <trkpt lat="45.9763" lon="4.71756">
        <ele>194</ele>
        <time>2018-03-24T09:54:32Z</time>
      </trkpt>
      <trkpt lat="45.97635" lon="4.71752">
        <ele>194</ele>
        <time>2018-03-24T09:54:33Z</time>
      </trkpt>
      <trkpt lat="45.97641" lon="4.71749">
        <ele>196</ele>
        <time>2018-03-24T09:54:34Z</time>
      </trkpt>
      <trkpt lat="45.97647" lon="4.71747">
        <ele>196</ele>
        <time>2018-03-24T09:54:35Z</time>
      </trkpt>
      <trkpt lat="45.97653" lon="4.71749">
        <ele>195</ele>
        <time>2018-03-24T09:54:36Z</time>
      </trkpt>
      <trkpt lat="45.97659" lon="4.71749">
        <ele>195</ele>
        <time>2018-03-24T09:54:37Z</time>
      </trkpt>
      <trkpt lat="45.97664" lon="4.71751">
        <ele>194</ele>
        <time>2018-03-24T09:54:38Z</time>
      </trkpt>
      <trkpt lat="45.97669" lon="4.71751">
        <ele>194</ele>
        <time>2018-03-24T09:54:39Z</time>
      </trkpt>
      <trkpt lat="45.97675" lon="4.71751">
        <ele>194</ele>
        <time>2018-03-24T09:54:40Z</time>
      </trkpt>
      <trkpt lat="45.97681" lon="4.7175">
        <ele>194</ele>
        <time>2018-03-24T09:54:41Z</time>
      </trkpt>
      <trkpt lat="45.97687" lon="4.71751">
        <ele>194</ele>
        <time>2018-03-24T09:54:42Z</time>
      </trkpt>
      <trkpt lat="45.97694" lon="4.71752">
        <ele>195</ele>
        <time>2018-03-24T09:54:43Z</time>
      </trkpt>
      <trkpt lat="45.97699" lon="4.71753">
        <ele>195</ele>
        <time>2018-03-24T09:54:44Z</time>
      </trkpt>
      <trkpt lat="45.97705" lon="4.71753">
        <ele>195</ele>
        <time>2018-03-24T09:54:45Z</time>
      </trkpt>
      <trkpt lat="45.97712" lon="4.71755">
        <ele>195</ele>
        <time>2018-03-24T09:54:46Z</time>
      </trkpt>
      <trkpt lat="45.97718" lon="4.71756">
        <ele>195</ele>
        <time>2018-03-24T09:54:47Z</time>
      </trkpt>
      <trkpt lat="45.97724" lon="4.71757">
        <ele>195</ele>
        <time>2018-03-24T09:54:48Z</time>
      </trkpt>
      <trkpt lat="45.9773" lon="4.71757">
        <ele>195</ele>
        <time>2018-03-24T09:54:49Z</time>
      </trkpt>
      <trkpt lat="45.97736" lon="4.71758">
        <ele>195</ele>
        <time>2018-03-24T09:54:50Z</time>
      </trkpt>
      <trkpt lat="45.97742" lon="4.71757">
        <ele>196</ele>
        <time>2018-03-24T09:54:51Z</time>
      </trkpt>
      <trkpt lat="45.97748" lon="4.71757">
        <ele>196</ele>
        <time>2018-03-24T09:54:52Z</time>
      </trkpt>
      <trkpt lat="45.97754" lon="4.71756">
        <ele>196</ele>
        <time>2018-03-24T09:54:53Z</time>
      </trkpt>
      <trkpt lat="45.97759" lon="4.71757">
        <ele>196</ele>
        <time>2018-03-24T09:54:54Z</time>
      </trkpt>
      <trkpt lat="45.97765" lon="4.71759">
        <ele>196</ele>
        <time>2018-03-24T09:54:55Z</time>
      </trkpt>
      <trkpt lat="45.9777" lon="4.71759">
        <ele>195</ele>
        <time>2018-03-24T09:54:56Z</time>
      </trkpt>
      <trkpt lat="45.97777" lon="4.7176">
        <ele>195</ele>
        <time>2018-03-24T09:54:57Z</time>
      </trkpt>
      <trkpt lat="45.97782" lon="4.71761">
        <ele>195</ele>
        <time>2018-03-24T09:54:58Z</time>
      </trkpt>
      <trkpt lat="45.97788" lon="4.71761">
        <ele>195</ele>
        <time>2018-03-24T09:54:59Z</time>
      </trkpt>
      <trkpt lat="45.97794" lon="4.71761">
        <ele>195</ele>
        <time>2018-03-24T09:55:00Z</time>
      </trkpt>
      <trkpt lat="45.97799" lon="4.71761">
        <ele>195</ele>
        <time>2018-03-24T09:55:01Z</time>
      </trkpt>
      <trkpt lat="45.97805" lon="4.71762">
        <ele>195</ele>
        <time>2018-03-24T09:55:02Z</time>
      </trkpt>
      <trkpt lat="45.97812" lon="4.71763">
        <ele>195</ele>
        <time>2018-03-24T09:55:03Z</time>
      </trkpt>
      <trkpt lat="45.97819" lon="4.71763">
        <ele>195</ele>
        <time>2018-03-24T09:55:04Z</time>
      </trkpt>
      <trkpt lat="45.97824" lon="4.71762">
        <ele>195</ele>
        <time>2018-03-24T09:55:05Z</time>
      </trkpt>
      <trkpt lat="45.9783" lon="4.71762">
        <ele>195</ele>
        <time>2018-03-24T09:55:06Z</time>
      </trkpt>
      <trkpt lat="45.97835" lon="4.71763">
        <ele>195</ele>
        <time>2018-03-24T09:55:07Z</time>
      </trkpt>
      <trkpt lat="45.97841" lon="4.71763">
        <ele>195</ele>
        <time>2018-03-24T09:55:08Z</time>
      </trkpt>
      <trkpt lat="45.97846" lon="4.71764">
        <ele>195</ele>
        <time>2018-03-24T09:55:09Z</time>
      </trkpt>
      <trkpt lat="45.97851" lon="4.71767">
        <ele>195</ele>
        <time>2018-03-24T09:55:10Z</time>
      </trkpt>
      <trkpt lat="45.97855" lon="4.71771">
        <ele>194</ele>
        <time>2018-03-24T09:55:11Z</time>
      </trkpt>
      <trkpt lat="45.9786" lon="4.71774">
        <ele>194</ele>
        <time>2018-03-24T09:55:12Z</time>
      </trkpt>
      <trkpt lat="45.97863" lon="4.71779">
        <ele>194</ele>
        <time>2018-03-24T09:55:13Z</time>
      </trkpt>
      <trkpt lat="45.97867" lon="4.71783">
        <ele>194</ele>
        <time>2018-03-24T09:55:14Z</time>
      </trkpt>
      <trkpt lat="45.97872" lon="4.71785">
        <ele>194</ele>
        <time>2018-03-24T09:55:15Z</time>
      </trkpt>
      <trkpt lat="45.97877" lon="4.71785">
        <ele>194</ele>
        <time>2018-03-24T09:55:16Z</time>
      </trkpt>
      <trkpt lat="45.97883" lon="4.71784">
        <ele>194</ele>
        <time>2018-03-24T09:55:17Z</time>
      </trkpt>
      <trkpt lat="45.97887" lon="4.71779">
        <ele>194</ele>
        <time>2018-03-24T09:55:18Z</time>
      </trkpt>
      <trkpt lat="45.97891" lon="4.71774">
        <ele>194</ele>
        <time>2018-03-24T09:55:19Z</time>
      </trkpt>
      <trkpt lat="45.97896" lon="4.71767">
        <ele>194</ele>
        <time>2018-03-24T09:55:20Z</time>
      </trkpt>
      <trkpt lat="45.97899" lon="4.71758">
        <ele>195</ele>
        <time>2018-03-24T09:55:21Z</time>
      </trkpt>
      <trkpt lat="45.97901" lon="4.7175">
        <ele>195</ele>
        <time>2018-03-24T09:55:22Z</time>
      </trkpt>
      <trkpt lat="45.97899" lon="4.71738">
        <ele>196</ele>
        <time>2018-03-24T09:55:24Z</time>
      </trkpt>
      <trkpt lat="45.97899" lon="4.71731">
        <ele>196</ele>
        <time>2018-03-24T09:55:25Z</time>
      </trkpt>
      <trkpt lat="45.97898" lon="4.71721">
        <ele>196</ele>
        <time>2018-03-24T09:55:26Z</time>
      </trkpt>
      <trkpt lat="45.97899" lon="4.71714">
        <ele>196</ele>
        <time>2018-03-24T09:55:27Z</time>
      </trkpt>
      <trkpt lat="45.97901" lon="4.71706">
        <ele>196</ele>
        <time>2018-03-24T09:55:28Z</time>
      </trkpt>
      <trkpt lat="45.97904" lon="4.717">
        <ele>196</ele>
        <time>2018-03-24T09:55:29Z</time>
      </trkpt>
      <trkpt lat="45.97906" lon="4.71697">
        <ele>196</ele>
        <time>2018-03-24T09:55:30Z</time>
      </trkpt>
      <trkpt lat="45.97913" lon="4.71689">
        <ele>196</ele>
        <time>2018-03-24T09:55:31Z</time>
      </trkpt>
      <trkpt lat="45.97917" lon="4.71685">
        <ele>196</ele>
        <time>2018-03-24T09:55:32Z</time>
      </trkpt>
      <trkpt lat="45.97922" lon="4.7168">
        <ele>197</ele>
        <time>2018-03-24T09:55:33Z</time>
      </trkpt>
      <trkpt lat="45.97928" lon="4.71678">
        <ele>197</ele>
        <time>2018-03-24T09:55:34Z</time>
      </trkpt>
      <trkpt lat="45.97933" lon="4.71674">
        <ele>197</ele>
        <time>2018-03-24T09:55:35Z</time>
      </trkpt>
      <trkpt lat="45.97939" lon="4.71669">
        <ele>197</ele>
        <time>2018-03-24T09:55:36Z</time>
      </trkpt>
      <trkpt lat="45.97944" lon="4.71665">
        <ele>197</ele>
        <time>2018-03-24T09:55:37Z</time>
      </trkpt>
      <trkpt lat="45.97949" lon="4.7166">
        <ele>197</ele>
        <time>2018-03-24T09:55:38Z</time>
      </trkpt>
      <trkpt lat="45.97954" lon="4.71657">
        <ele>197</ele>
        <time>2018-03-24T09:55:39Z</time>
      </trkpt>
      <trkpt lat="45.97959" lon="4.71654">
        <ele>197</ele>
        <time>2018-03-24T09:55:40Z</time>
      </trkpt>
      <trkpt lat="45.97963" lon="4.71649">
        <ele>197</ele>
        <time>2018-03-24T09:55:41Z</time>
      </trkpt>
      <trkpt lat="45.97968" lon="4.71646">
        <ele>197</ele>
        <time>2018-03-24T09:55:42Z</time>
      </trkpt>
      <trkpt lat="45.97974" lon="4.71643">
        <ele>197</ele>
        <time>2018-03-24T09:55:43Z</time>
      </trkpt>
      <trkpt lat="45.97979" lon="4.71639">
        <ele>197</ele>
        <time>2018-03-24T09:55:44Z</time>
      </trkpt>
      <trkpt lat="45.97985" lon="4.71635">
        <ele>197</ele>
        <time>2018-03-24T09:55:45Z</time>
      </trkpt>
      <trkpt lat="45.9799" lon="4.71631">
        <ele>198</ele>
        <time>2018-03-24T09:55:46Z</time>
      </trkpt>
      <trkpt lat="45.97995" lon="4.71628">
        <ele>198</ele>
        <time>2018-03-24T09:55:47Z</time>
      </trkpt>
      <trkpt lat="45.98" lon="4.71624">
        <ele>198</ele>
        <time>2018-03-24T09:55:48Z</time>
      </trkpt>
      <trkpt lat="45.98005" lon="4.7162">
        <ele>198</ele>
        <time>2018-03-24T09:55:49Z</time>
      </trkpt>
      <trkpt lat="45.98011" lon="4.71617">
        <ele>198</ele>
        <time>2018-03-24T09:55:50Z</time>
      </trkpt>
      <trkpt lat="45.98017" lon="4.71612">
        <ele>198</ele>
        <time>2018-03-24T09:55:51Z</time>
      </trkpt>
      <trkpt lat="45.98022" lon="4.71607">
        <ele>198</ele>
        <time>2018-03-24T09:55:52Z</time>
      </trkpt>
      <trkpt lat="45.98027" lon="4.71604">
        <ele>198</ele>
        <time>2018-03-24T09:55:53Z</time>
      </trkpt>
      <trkpt lat="45.98034" lon="4.71601">
        <ele>198</ele>
        <time>2018-03-24T09:55:54Z</time>
      </trkpt>
      <trkpt lat="45.98038" lon="4.71596">
        <ele>198</ele>
        <time>2018-03-24T09:55:55Z</time>
      </trkpt>
      <trkpt lat="45.98044" lon="4.71591">
        <ele>198</ele>
        <time>2018-03-24T09:55:56Z</time>
      </trkpt>
      <trkpt lat="45.9805" lon="4.71587">
        <ele>198</ele>
        <time>2018-03-24T09:55:57Z</time>
      </trkpt>
      <trkpt lat="45.98056" lon="4.71582">
        <ele>198</ele>
        <time>2018-03-24T09:55:58Z</time>
      </trkpt>
      <trkpt lat="45.98062" lon="4.71578">
        <ele>198</ele>
        <time>2018-03-24T09:55:59Z</time>
      </trkpt>
      <trkpt lat="45.98066" lon="4.71575">
        <ele>198</ele>
        <time>2018-03-24T09:56:00Z</time>
      </trkpt>
      <trkpt lat="45.98072" lon="4.7157">
        <ele>198</ele>
        <time>2018-03-24T09:56:01Z</time>
      </trkpt>
      <trkpt lat="45.98075" lon="4.71566">
        <ele>198</ele>
        <time>2018-03-24T09:56:02Z</time>
      </trkpt>
      <trkpt lat="45.98081" lon="4.71562">
        <ele>198</ele>
        <time>2018-03-24T09:56:03Z</time>
      </trkpt>
      <trkpt lat="45.98089" lon="4.71556">
        <ele>198</ele>
        <time>2018-03-24T09:56:05Z</time>
      </trkpt>
      <trkpt lat="45.98092" lon="4.71554">
        <ele>198</ele>
        <time>2018-03-24T09:56:06Z</time>
      </trkpt>
      <trkpt lat="45.98096" lon="4.71551">
        <ele>197</ele>
        <time>2018-03-24T09:56:07Z</time>
      </trkpt>
      <trkpt lat="45.98101" lon="4.71548">
        <ele>197</ele>
        <time>2018-03-24T09:56:08Z</time>
      </trkpt>
      <trkpt lat="45.98104" lon="4.71548">
        <ele>197</ele>
        <time>2018-03-24T09:56:09Z</time>
      </trkpt>
      <trkpt lat="45.9811" lon="4.71547">
        <ele>197</ele>
        <time>2018-03-24T09:56:10Z</time>
      </trkpt>
      <trkpt lat="45.98114" lon="4.71543">
        <ele>197</ele>
        <time>2018-03-24T09:56:11Z</time>
      </trkpt>
      <trkpt lat="45.98118" lon="4.71537">
        <ele>197</ele>
        <time>2018-03-24T09:56:12Z</time>
      </trkpt>
      <trkpt lat="45.98124" lon="4.71534">
        <ele>197</ele>
        <time>2018-03-24T09:56:13Z</time>
      </trkpt>
      <trkpt lat="45.98129" lon="4.7153">
        <ele>197</ele>
        <time>2018-03-24T09:56:14Z</time>
      </trkpt>
      <trkpt lat="45.98134" lon="4.71526">
        <ele>197</ele>
        <time>2018-03-24T09:56:15Z</time>
      </trkpt>
      <trkpt lat="45.98139" lon="4.71523">
        <ele>197</ele>
        <time>2018-03-24T09:56:16Z</time>
      </trkpt>
      <trkpt lat="45.98143" lon="4.71519">
        <ele>197</ele>
        <time>2018-03-24T09:56:17Z</time>
      </trkpt>
      <trkpt lat="45.98148" lon="4.71516">
        <ele>197</ele>
        <time>2018-03-24T09:56:18Z</time>
      </trkpt>
      <trkpt lat="45.98154" lon="4.71512">
        <ele>197</ele>
        <time>2018-03-24T09:56:19Z</time>
      </trkpt>
      <trkpt lat="45.98159" lon="4.71509">
        <ele>197</ele>
        <time>2018-03-24T09:56:20Z</time>
      </trkpt>
      <trkpt lat="45.98165" lon="4.71507">
        <ele>197</ele>
        <time>2018-03-24T09:56:21Z</time>
      </trkpt>
      <trkpt lat="45.9817" lon="4.71503">
        <ele>197</ele>
        <time>2018-03-24T09:56:22Z</time>
      </trkpt>
      <trkpt lat="45.98177" lon="4.71497">
        <ele>197</ele>
        <time>2018-03-24T09:56:24Z</time>
      </trkpt>
      <trkpt lat="45.98183" lon="4.71497">
        <ele>197</ele>
        <time>2018-03-24T09:56:25Z</time>
      </trkpt>
      <trkpt lat="45.98189" lon="4.71498">
        <ele>197</ele>
        <time>2018-03-24T09:56:26Z</time>
      </trkpt>
      <trkpt lat="45.98195" lon="4.71499">
        <ele>197</ele>
        <time>2018-03-24T09:56:27Z</time>
      </trkpt>
      <trkpt lat="45.98201" lon="4.715">
        <ele>197</ele>
        <time>2018-03-24T09:56:28Z</time>
      </trkpt>
      <trkpt lat="45.98206" lon="4.71501">
        <ele>197</ele>
        <time>2018-03-24T09:56:29Z</time>
      </trkpt>
      <trkpt lat="45.98212" lon="4.71504">
        <ele>196</ele>
        <time>2018-03-24T09:56:30Z</time>
      </trkpt>
      <trkpt lat="45.98218" lon="4.71508">
        <ele>196</ele>
        <time>2018-03-24T09:56:31Z</time>
      </trkpt>
      <trkpt lat="45.98224" lon="4.71511">
        <ele>196</ele>
        <time>2018-03-24T09:56:32Z</time>
      </trkpt>
      <trkpt lat="45.98229" lon="4.71514">
        <ele>196</ele>
        <time>2018-03-24T09:56:33Z</time>
      </trkpt>
      <trkpt lat="45.98235" lon="4.71517">
        <ele>196</ele>
        <time>2018-03-24T09:56:34Z</time>
      </trkpt>
      <trkpt lat="45.9824" lon="4.7152">
        <ele>196</ele>
        <time>2018-03-24T09:56:35Z</time>
      </trkpt>
      <trkpt lat="45.98248" lon="4.71526">
        <ele>196</ele>
        <time>2018-03-24T09:56:36Z</time>
      </trkpt>
      <trkpt lat="45.98252" lon="4.71529">
        <ele>197</ele>
        <time>2018-03-24T09:56:37Z</time>
      </trkpt>
      <trkpt lat="45.98258" lon="4.71533">
        <ele>197</ele>
        <time>2018-03-24T09:56:38Z</time>
      </trkpt>
      <trkpt lat="45.98263" lon="4.71537">
        <ele>197</ele>
        <time>2018-03-24T09:56:39Z</time>
      </trkpt>
      <trkpt lat="45.98269" lon="4.71544">
        <ele>197</ele>
        <time>2018-03-24T09:56:40Z</time>
      </trkpt>
      <trkpt lat="45.98275" lon="4.71547">
        <ele>198</ele>
        <time>2018-03-24T09:56:41Z</time>
      </trkpt>
      <trkpt lat="45.98279" lon="4.71551">
        <ele>198</ele>
        <time>2018-03-24T09:56:42Z</time>
      </trkpt>
      <trkpt lat="45.98285" lon="4.71556">
        <ele>198</ele>
        <time>2018-03-24T09:56:43Z</time>
      </trkpt>
      <trkpt lat="45.9829" lon="4.71559">
        <ele>198</ele>
        <time>2018-03-24T09:56:44Z</time>
      </trkpt>
      <trkpt lat="45.98295" lon="4.71563">
        <ele>198</ele>
        <time>2018-03-24T09:56:45Z</time>
      </trkpt>
      <trkpt lat="45.983" lon="4.71565">
        <ele>198</ele>
        <time>2018-03-24T09:56:46Z</time>
      </trkpt>
      <trkpt lat="45.98306" lon="4.71568">
        <ele>198</ele>
        <time>2018-03-24T09:56:47Z</time>
      </trkpt>
      <trkpt lat="45.9831" lon="4.7157">
        <ele>198</ele>
        <time>2018-03-24T09:56:48Z</time>
      </trkpt>
      <trkpt lat="45.98316" lon="4.71574">
        <ele>198</ele>
        <time>2018-03-24T09:56:49Z</time>
      </trkpt>
      <trkpt lat="45.98322" lon="4.71577">
        <ele>198</ele>
        <time>2018-03-24T09:56:50Z</time>
      </trkpt>
      <trkpt lat="45.98326" lon="4.7158">
        <ele>199</ele>
        <time>2018-03-24T09:56:51Z</time>
      </trkpt>
      <trkpt lat="45.98332" lon="4.71583">
        <ele>199</ele>
        <time>2018-03-24T09:56:52Z</time>
      </trkpt>
      <trkpt lat="45.98336" lon="4.71586">
        <ele>199</ele>
        <time>2018-03-24T09:56:53Z</time>
      </trkpt>
      <trkpt lat="45.98341" lon="4.71589">
        <ele>199</ele>
        <time>2018-03-24T09:56:54Z</time>
      </trkpt>
      <trkpt lat="45.98346" lon="4.71591">
        <ele>198</ele>
        <time>2018-03-24T09:56:55Z</time>
      </trkpt>
      <trkpt lat="45.98352" lon="4.71595">
        <ele>198</ele>
        <time>2018-03-24T09:56:56Z</time>
      </trkpt>
      <trkpt lat="45.98356" lon="4.71597">
        <ele>198</ele>
        <time>2018-03-24T09:56:57Z</time>
      </trkpt>
      <trkpt lat="45.98362" lon="4.71601">
        <ele>198</ele>
        <time>2018-03-24T09:56:58Z</time>
      </trkpt>
      <trkpt lat="45.98367" lon="4.71603">
        <ele>198</ele>
        <time>2018-03-24T09:56:59Z</time>
      </trkpt>
      <trkpt lat="45.98376" lon="4.71605">
        <ele>198</ele>
        <time>2018-03-24T09:57:01Z</time>
      </trkpt>
      <trkpt lat="45.98378" lon="4.71604">
        <ele>198</ele>
        <time>2018-03-24T09:57:02Z</time>
      </trkpt>
      <trkpt lat="45.98386" lon="4.71604">
        <ele>198</ele>
        <time>2018-03-24T09:57:05Z</time>
      </trkpt>
      <trkpt lat="45.98389" lon="4.71602">
        <ele>198</ele>
        <time>2018-03-24T09:57:06Z</time>
      </trkpt>
      <trkpt lat="45.98396" lon="4.71596">
        <ele>198</ele>
        <time>2018-03-24T09:57:07Z</time>
      </trkpt>
      <trkpt lat="45.98401" lon="4.71592">
        <ele>197</ele>
        <time>2018-03-24T09:57:08Z</time>
      </trkpt>
      <trkpt lat="45.98405" lon="4.71587">
        <ele>197</ele>
        <time>2018-03-24T09:57:09Z</time>
      </trkpt>
      <trkpt lat="45.98408" lon="4.71583">
        <ele>197</ele>
        <time>2018-03-24T09:57:10Z</time>
      </trkpt>
      <trkpt lat="45.98413" lon="4.71575">
        <ele>197</ele>
        <time>2018-03-24T09:57:12Z</time>
      </trkpt>
      <trkpt lat="45.98415" lon="4.71574">
        <ele>198</ele>
        <time>2018-03-24T09:57:13Z</time>
      </trkpt>
      <trkpt lat="45.9842" lon="4.71567">
        <ele>197</ele>
        <time>2018-03-24T09:57:14Z</time>
      </trkpt>
      <trkpt lat="45.98424" lon="4.71563">
        <ele>197</ele>
        <time>2018-03-24T09:57:15Z</time>
      </trkpt>
      <trkpt lat="45.98428" lon="4.71558">
        <ele>197</ele>
        <time>2018-03-24T09:57:16Z</time>
      </trkpt>
      <trkpt lat="45.98433" lon="4.71553">
        <ele>197</ele>
        <time>2018-03-24T09:57:17Z</time>
      </trkpt>
      <trkpt lat="45.98437" lon="4.71549">
        <ele>197</ele>
        <time>2018-03-24T09:57:18Z</time>
      </trkpt>
      <trkpt lat="45.9844" lon="4.71544">
        <ele>197</ele>
        <time>2018-03-24T09:57:19Z</time>
      </trkpt>
      <trkpt lat="45.98447" lon="4.71543">
        <ele>197</ele>
        <time>2018-03-24T09:57:20Z</time>
      </trkpt>
      <trkpt lat="45.98453" lon="4.7154">
        <ele>197</ele>
        <time>2018-03-24T09:57:21Z</time>
      </trkpt>
      <trkpt lat="45.98461" lon="4.71537">
        <ele>197</ele>
        <time>2018-03-24T09:57:23Z</time>
      </trkpt>
      <trkpt lat="45.98466" lon="4.71537">
        <ele>197</ele>
        <time>2018-03-24T09:57:24Z</time>
      </trkpt>
      <trkpt lat="45.98474" lon="4.71533">
        <ele>196</ele>
        <time>2018-03-24T09:57:27Z</time>
      </trkpt>
      <trkpt lat="45.98476" lon="4.71532">
        <ele>196</ele>
        <time>2018-03-24T09:57:28Z</time>
      </trkpt>
      <trkpt lat="45.98484" lon="4.71529">
        <ele>196</ele>
        <time>2018-03-24T09:57:32Z</time>
      </trkpt>
      <trkpt lat="45.98485" lon="4.71529">
        <ele>196</ele>
        <time>2018-03-24T09:57:33Z</time>
      </trkpt>
      <trkpt lat="45.98492" lon="4.7153">
        <ele>196</ele>
        <time>2018-03-24T09:57:44Z</time>
      </trkpt>
      <trkpt lat="45.98495" lon="4.7153">
        <ele>196</ele>
        <time>2018-03-24T09:57:45Z</time>
      </trkpt>
      <trkpt lat="45.98504" lon="4.71528">
        <ele>195</ele>
        <time>2018-03-24T09:57:46Z</time>
      </trkpt>
      <trkpt lat="45.98508" lon="4.71527">
        <ele>195</ele>
        <time>2018-03-24T09:57:47Z</time>
      </trkpt>
      <trkpt lat="45.98513" lon="4.71524">
        <ele>195</ele>
        <time>2018-03-24T09:57:48Z</time>
      </trkpt>
      <trkpt lat="45.98517" lon="4.71522">
        <ele>194</ele>
        <time>2018-03-24T09:57:49Z</time>
      </trkpt>
      <trkpt lat="45.98522" lon="4.7152">
        <ele>194</ele>
        <time>2018-03-24T09:57:50Z</time>
      </trkpt>
      <trkpt lat="45.98528" lon="4.71517">
        <ele>194</ele>
        <time>2018-03-24T09:57:51Z</time>
      </trkpt>
      <trkpt lat="45.98537" lon="4.71516">
        <ele>194</ele>
        <time>2018-03-24T09:57:53Z</time>
      </trkpt>
      <trkpt lat="45.98541" lon="4.71516">
        <ele>194</ele>
        <time>2018-03-24T09:57:54Z</time>
      </trkpt>
      <trkpt lat="45.98549" lon="4.71514">
        <ele>194</ele>
        <time>2018-03-24T09:57:56Z</time>
      </trkpt>
      <trkpt lat="45.98552" lon="4.71513">
        <ele>194</ele>
        <time>2018-03-24T09:57:57Z</time>
      </trkpt>
      <trkpt lat="45.98554" lon="4.71513">
        <ele>194</ele>
        <time>2018-03-24T09:57:58Z</time>
      </trkpt>
      <trkpt lat="45.98561" lon="4.7151">
        <ele>193</ele>
        <time>2018-03-24T09:57:59Z</time>
      </trkpt>
      <trkpt lat="45.98568" lon="4.71508">
        <ele>193</ele>
        <time>2018-03-24T09:58:01Z</time>
      </trkpt>
      <trkpt lat="45.9857" lon="4.71507">
        <ele>193</ele>
        <time>2018-03-24T09:58:02Z</time>
      </trkpt>
      <trkpt lat="45.98578" lon="4.71506">
        <ele>193</ele>
        <time>2018-03-24T09:58:04Z</time>
      </trkpt>
      <trkpt lat="45.98582" lon="4.71507">
        <ele>193</ele>
        <time>2018-03-24T09:58:05Z</time>
      </trkpt>
      <trkpt lat="45.9859" lon="4.71508">
        <ele>192</ele>
        <time>2018-03-24T09:58:07Z</time>
      </trkpt>
      <trkpt lat="45.98592" lon="4.71508">
        <ele>192</ele>
        <time>2018-03-24T09:58:08Z</time>
      </trkpt>
      <trkpt lat="45.98603" lon="4.71507">
        <ele>192</ele>
        <time>2018-03-24T09:58:09Z</time>
      </trkpt>
      <trkpt lat="45.98608" lon="4.71505">
        <ele>191</ele>
        <time>2018-03-24T09:58:10Z</time>
      </trkpt>
      <trkpt lat="45.98615" lon="4.71505">
        <ele>191</ele>
        <time>2018-03-24T09:58:11Z</time>
      </trkpt>
      <trkpt lat="45.98621" lon="4.71504">
        <ele>191</ele>
        <time>2018-03-24T09:58:12Z</time>
      </trkpt>
      <trkpt lat="45.98626" lon="4.71502">
        <ele>191</ele>
        <time>2018-03-24T09:58:13Z</time>
      </trkpt>
      <trkpt lat="45.98633" lon="4.71501">
        <ele>191</ele>
        <time>2018-03-24T09:58:14Z</time>
      </trkpt>
      <trkpt lat="45.98639" lon="4.71497">
        <ele>190</ele>
        <time>2018-03-24T09:58:15Z</time>
      </trkpt>
      <trkpt lat="45.98643" lon="4.71498">
        <ele>190</ele>
        <time>2018-03-24T09:58:16Z</time>
      </trkpt>
      <trkpt lat="45.98648" lon="4.71497">
        <ele>190</ele>
        <time>2018-03-24T09:58:17Z</time>
      </trkpt>
      <trkpt lat="45.98655" lon="4.71494">
        <ele>190</ele>
        <time>2018-03-24T09:58:19Z</time>
      </trkpt>
      <trkpt lat="45.98657" lon="4.71495">
        <ele>189</ele>
        <time>2018-03-24T09:58:20Z</time>
      </trkpt>
      <trkpt lat="45.98665" lon="4.71498">
        <ele>189</ele>
        <time>2018-03-24T09:58:24Z</time>
      </trkpt>
      <trkpt lat="45.98666" lon="4.71499">
        <ele>189</ele>
        <time>2018-03-24T09:58:25Z</time>
      </trkpt>
      <trkpt lat="45.98671" lon="4.71504">
        <ele>189</ele>
        <time>2018-03-24T09:58:39Z</time>
      </trkpt>
      <trkpt lat="45.98677" lon="4.71506">
        <ele>188</ele>
        <time>2018-03-24T09:58:40Z</time>
      </trkpt>
      <trkpt lat="45.98684" lon="4.71505">
        <ele>188</ele>
        <time>2018-03-24T09:58:42Z</time>
      </trkpt>
      <trkpt lat="45.98689" lon="4.71505">
        <ele>188</ele>
        <time>2018-03-24T09:58:43Z</time>
      </trkpt>
      <trkpt lat="45.98693" lon="4.71503">
        <ele>188</ele>
        <time>2018-03-24T09:58:44Z</time>
      </trkpt>
      <trkpt lat="45.98699" lon="4.71504">
        <ele>187</ele>
        <time>2018-03-24T09:58:45Z</time>
      </trkpt>
      <trkpt lat="45.98705" lon="4.71504">
        <ele>187</ele>
        <time>2018-03-24T09:58:46Z</time>
      </trkpt>
      <trkpt lat="45.98712" lon="4.71504">
        <ele>187</ele>
        <time>2018-03-24T09:58:47Z</time>
      </trkpt>
      <trkpt lat="45.98718" lon="4.71505">
        <ele>187</ele>
        <time>2018-03-24T09:58:48Z</time>
      </trkpt>
      <trkpt lat="45.98725" lon="4.71504">
        <ele>186</ele>
        <time>2018-03-24T09:58:49Z</time>
      </trkpt>
      <trkpt lat="45.98732" lon="4.71505">
        <ele>186</ele>
        <time>2018-03-24T09:58:50Z</time>
      </trkpt>
      <trkpt lat="45.98739" lon="4.71505">
        <ele>185</ele>
        <time>2018-03-24T09:58:51Z</time>
      </trkpt>
      <trkpt lat="45.98746" lon="4.71505">
        <ele>185</ele>
        <time>2018-03-24T09:58:52Z</time>
      </trkpt>
      <trkpt lat="45.98753" lon="4.71506">
        <ele>184</ele>
        <time>2018-03-24T09:58:53Z</time>
      </trkpt>
      <trkpt lat="45.9876" lon="4.71507">
        <ele>184</ele>
        <time>2018-03-24T09:58:54Z</time>
      </trkpt>
      <trkpt lat="45.98767" lon="4.71506">
        <ele>184</ele>
        <time>2018-03-24T09:58:55Z</time>
      </trkpt>
      <trkpt lat="45.98774" lon="4.71507">
        <ele>184</ele>
        <time>2018-03-24T09:58:56Z</time>
      </trkpt>
      <trkpt lat="45.98781" lon="4.71506">
        <ele>184</ele>
        <time>2018-03-24T09:58:57Z</time>
      </trkpt>
      <trkpt lat="45.98787" lon="4.71507">
        <ele>184</ele>
        <time>2018-03-24T09:58:58Z</time>
      </trkpt>
      <trkpt lat="45.98794" lon="4.71507">
        <ele>184</ele>
        <time>2018-03-24T09:58:59Z</time>
      </trkpt>
      <trkpt lat="45.98801" lon="4.71508">
        <ele>184</ele>
        <time>2018-03-24T09:59:00Z</time>
      </trkpt>
      <trkpt lat="45.98808" lon="4.71507">
        <ele>184</ele>
        <time>2018-03-24T09:59:01Z</time>
      </trkpt>
      <trkpt lat="45.98815" lon="4.71507">
        <ele>184</ele>
        <time>2018-03-24T09:59:02Z</time>
      </trkpt>
      <trkpt lat="45.98821" lon="4.71506">
        <ele>184</ele>
        <time>2018-03-24T09:59:03Z</time>
      </trkpt>
      <trkpt lat="45.98826" lon="4.71508">
        <ele>184</ele>
        <time>2018-03-24T09:59:04Z</time>
      </trkpt>
      <trkpt lat="45.98831" lon="4.71509">
        <ele>184</ele>
        <time>2018-03-24T09:59:05Z</time>
      </trkpt>
      <trkpt lat="45.98837" lon="4.71507">
        <ele>184</ele>
        <time>2018-03-24T09:59:06Z</time>
      </trkpt>
      <trkpt lat="45.98843" lon="4.71507">
        <ele>184</ele>
        <time>2018-03-24T09:59:07Z</time>
      </trkpt>
      <trkpt lat="45.98848" lon="4.71507">
        <ele>184</ele>
        <time>2018-03-24T09:59:08Z</time>
      </trkpt>
      <trkpt lat="45.98855" lon="4.71507">
        <ele>185</ele>
        <time>2018-03-24T09:59:09Z</time>
      </trkpt>
      <trkpt lat="45.98862" lon="4.71507">
        <ele>185</ele>
        <time>2018-03-24T09:59:10Z</time>
      </trkpt>
      <trkpt lat="45.98868" lon="4.71508">
        <ele>185</ele>
        <time>2018-03-24T09:59:11Z</time>
      </trkpt>
      <trkpt lat="45.98874" lon="4.71508">
        <ele>185</ele>
        <time>2018-03-24T09:59:12Z</time>
      </trkpt>
      <trkpt lat="45.9888" lon="4.7151">
        <ele>185</ele>
        <time>2018-03-24T09:59:13Z</time>
      </trkpt>
      <trkpt lat="45.98886" lon="4.71511">
        <ele>185</ele>
        <time>2018-03-24T09:59:14Z</time>
      </trkpt>
      <trkpt lat="45.98891" lon="4.71511">
        <ele>185</ele>
        <time>2018-03-24T09:59:15Z</time>
      </trkpt>
      <trkpt lat="45.98897" lon="4.71512">
        <ele>185</ele>
        <time>2018-03-24T09:59:16Z</time>
      </trkpt>
      <trkpt lat="45.98901" lon="4.71515">
        <ele>185</ele>
        <time>2018-03-24T09:59:17Z</time>
      </trkpt>
      <trkpt lat="45.98907" lon="4.71516">
        <ele>185</ele>
        <time>2018-03-24T09:59:18Z</time>
      </trkpt>
      <trkpt lat="45.98911" lon="4.71517">
        <ele>185</ele>
        <time>2018-03-24T09:59:19Z</time>
      </trkpt>
      <trkpt lat="45.98917" lon="4.71518">
        <ele>186</ele>
        <time>2018-03-24T09:59:20Z</time>
      </trkpt>
      <trkpt lat="45.98921" lon="4.71519">
        <ele>186</ele>
        <time>2018-03-24T09:59:21Z</time>
      </trkpt>
      <trkpt lat="45.98926" lon="4.71519">
        <ele>186</ele>
        <time>2018-03-24T09:59:22Z</time>
      </trkpt>
      <trkpt lat="45.9893" lon="4.71518">
        <ele>186</ele>
        <time>2018-03-24T09:59:23Z</time>
      </trkpt>
      <trkpt lat="45.98938" lon="4.71518">
        <ele>186</ele>
        <time>2018-03-24T09:59:26Z</time>
      </trkpt>
      <trkpt lat="45.9894" lon="4.71518">
        <ele>186</ele>
        <time>2018-03-24T09:59:27Z</time>
      </trkpt>
      <trkpt lat="45.98948" lon="4.71518">
        <ele>186</ele>
        <time>2018-03-24T10:00:03Z</time>
      </trkpt>
      <trkpt lat="45.9895" lon="4.71518">
        <ele>186</ele>
        <time>2018-03-24T10:00:04Z</time>
      </trkpt>
      <trkpt lat="45.98956" lon="4.7152">
        <ele>186</ele>
        <time>2018-03-24T10:00:07Z</time>
      </trkpt>
      <trkpt lat="45.98959" lon="4.71521">
        <ele>186</ele>
        <time>2018-03-24T10:00:08Z</time>
      </trkpt>
      <trkpt lat="45.98965" lon="4.7152">
        <ele>186</ele>
        <time>2018-03-24T10:00:10Z</time>
      </trkpt>
      <trkpt lat="45.98975" lon="4.71519">
        <ele>186</ele>
        <time>2018-03-24T10:00:11Z</time>
      </trkpt>
      <trkpt lat="45.98982" lon="4.71517">
        <ele>186</ele>
        <time>2018-03-24T10:00:13Z</time>
      </trkpt>
      <trkpt lat="45.98986" lon="4.71516">
        <ele>186</ele>
        <time>2018-03-24T10:00:14Z</time>
      </trkpt>
      <trkpt lat="45.98995" lon="4.71515">
        <ele>186</ele>
        <time>2018-03-24T10:00:16Z</time>
      </trkpt>
      <trkpt lat="45.98996" lon="4.71515">
        <ele>187</ele>
        <time>2018-03-24T10:00:17Z</time>
      </trkpt>
      <trkpt lat="45.99005" lon="4.71515">
        <ele>188</ele>
        <time>2018-03-24T10:00:19Z</time>
      </trkpt>
      <trkpt lat="45.9901" lon="4.71516">
        <ele>188</ele>
        <time>2018-03-24T10:00:20Z</time>
      </trkpt>
      <trkpt lat="45.99015" lon="4.71516">
        <ele>188</ele>
        <time>2018-03-24T10:00:22Z</time>
      </trkpt>
      <trkpt lat="45.99021" lon="4.71516">
        <ele>188</ele>
        <time>2018-03-24T10:00:23Z</time>
      </trkpt>
      <trkpt lat="45.99029" lon="4.71516">
        <ele>188</ele>
        <time>2018-03-24T10:00:25Z</time>
      </trkpt>
      <trkpt lat="45.9903" lon="4.71516">
        <ele>188</ele>
        <time>2018-03-24T10:00:26Z</time>
      </trkpt>
      <trkpt lat="45.99035" lon="4.71515">
        <ele>188</ele>
        <time>2018-03-24T10:00:28Z</time>
      </trkpt>
      <trkpt lat="45.99042" lon="4.71514">
        <ele>189</ele>
        <time>2018-03-24T10:00:29Z</time>
      </trkpt>
      <trkpt lat="45.99049" lon="4.71515">
        <ele>189</ele>
        <time>2018-03-24T10:00:32Z</time>
      </trkpt>
      <trkpt lat="45.99052" lon="4.71515">
        <ele>189</ele>
        <time>2018-03-24T10:00:33Z</time>
      </trkpt>
      <trkpt lat="45.9906" lon="4.71516">
        <ele>189</ele>
        <time>2018-03-24T10:00:34Z</time>
      </trkpt>
      <trkpt lat="45.99061" lon="4.71516">
        <ele>189</ele>
        <time>2018-03-24T10:00:35Z</time>
      </trkpt>
      <trkpt lat="45.99067" lon="4.71514">
        <ele>189</ele>
        <time>2018-03-24T10:00:36Z</time>
      </trkpt>
      <trkpt lat="45.99071" lon="4.71514">
        <ele>189</ele>
        <time>2018-03-24T10:00:37Z</time>
      </trkpt>
      <trkpt lat="45.99078" lon="4.71514">
        <ele>189</ele>
        <time>2018-03-24T10:00:39Z</time>
      </trkpt>
      <trkpt lat="45.99083" lon="4.71515">
        <ele>189</ele>
        <time>2018-03-24T10:00:40Z</time>
      </trkpt>
      <trkpt lat="45.9909" lon="4.71514">
        <ele>191</ele>
        <time>2018-03-24T10:00:42Z</time>
      </trkpt>
      <trkpt lat="45.99093" lon="4.71514">
        <ele>191</ele>
        <time>2018-03-24T10:00:43Z</time>
      </trkpt>
      <trkpt lat="45.99102" lon="4.71514">
        <ele>191</ele>
        <time>2018-03-24T10:00:45Z</time>
      </trkpt>
      <trkpt lat="45.99106" lon="4.71514">
        <ele>191</ele>
        <time>2018-03-24T10:00:46Z</time>
      </trkpt>
      <trkpt lat="45.99114" lon="4.71514">
        <ele>191</ele>
        <time>2018-03-24T10:00:48Z</time>
      </trkpt>
      <trkpt lat="45.99118" lon="4.71513">
        <ele>192</ele>
        <time>2018-03-24T10:00:49Z</time>
      </trkpt>
      <trkpt lat="45.99125" lon="4.71512">
        <ele>192</ele>
        <time>2018-03-24T10:00:51Z</time>
      </trkpt>
      <trkpt lat="45.99129" lon="4.71512">
        <ele>192</ele>
        <time>2018-03-24T10:00:52Z</time>
      </trkpt>
      <trkpt lat="45.99137" lon="4.71513">
        <ele>192</ele>
        <time>2018-03-24T10:00:54Z</time>
      </trkpt>
      <trkpt lat="45.99141" lon="4.71512">
        <ele>192</ele>
        <time>2018-03-24T10:00:55Z</time>
      </trkpt>
      <trkpt lat="45.99148" lon="4.71512">
        <ele>192</ele>
        <time>2018-03-24T10:00:57Z</time>
      </trkpt>
      <trkpt lat="45.99152" lon="4.71513">
        <ele>192</ele>
        <time>2018-03-24T10:00:58Z</time>
      </trkpt>
      <trkpt lat="45.99161" lon="4.71514">
        <ele>192</ele>
        <time>2018-03-24T10:01:00Z</time>
      </trkpt>
      <trkpt lat="45.99164" lon="4.71513">
        <ele>193</ele>
        <time>2018-03-24T10:01:01Z</time>
      </trkpt>
      <trkpt lat="45.99172" lon="4.71512">
        <ele>194</ele>
        <time>2018-03-24T10:01:03Z</time>
      </trkpt>
      <trkpt lat="45.99176" lon="4.71512">
        <ele>194</ele>
        <time>2018-03-24T10:01:04Z</time>
      </trkpt>
      <trkpt lat="45.99184" lon="4.71513">
        <ele>194</ele>
        <time>2018-03-24T10:01:06Z</time>
      </trkpt>
      <trkpt lat="45.99188" lon="4.71513">
        <ele>194</ele>
        <time>2018-03-24T10:01:07Z</time>
      </trkpt>
      <trkpt lat="45.99196" lon="4.71513">
        <ele>195</ele>
        <time>2018-03-24T10:01:09Z</time>
      </trkpt>
      <trkpt lat="45.99198" lon="4.71513">
        <ele>195</ele>
        <time>2018-03-24T10:01:10Z</time>
      </trkpt>
      <trkpt lat="45.99203" lon="4.71513">
        <ele>195</ele>
        <time>2018-03-24T10:01:11Z</time>
      </trkpt>
      <trkpt lat="45.99207" lon="4.71513">
        <ele>195</ele>
        <time>2018-03-24T10:01:12Z</time>
      </trkpt>
      <trkpt lat="45.99214" lon="4.71513">
        <ele>195</ele>
        <time>2018-03-24T10:01:14Z</time>
      </trkpt>
      <trkpt lat="45.99216" lon="4.71512">
        <ele>195</ele>
        <time>2018-03-24T10:01:15Z</time>
      </trkpt>
      <trkpt lat="45.99222" lon="4.71512">
        <ele>195</ele>
        <time>2018-03-24T10:01:16Z</time>
      </trkpt>
      <trkpt lat="45.99225" lon="4.71511">
        <ele>195</ele>
        <time>2018-03-24T10:01:17Z</time>
      </trkpt>
      <trkpt lat="45.99229" lon="4.71511">
        <ele>196</ele>
        <time>2018-03-24T10:01:19Z</time>
      </trkpt>
      <trkpt lat="45.99236" lon="4.71511">
        <ele>196</ele>
        <time>2018-03-24T10:01:20Z</time>
      </trkpt>
      <trkpt lat="45.99244" lon="4.71511">
        <ele>196</ele>
        <time>2018-03-24T10:01:23Z</time>
      </trkpt>
      <trkpt lat="45.99246" lon="4.71511">
        <ele>196</ele>
        <time>2018-03-24T10:01:24Z</time>
      </trkpt>
      <trkpt lat="45.99255" lon="4.71513">
        <ele>197</ele>
        <time>2018-03-24T10:01:28Z</time>
      </trkpt>
      <trkpt lat="45.99257" lon="4.71514">
        <ele>197</ele>
        <time>2018-03-24T10:01:29Z</time>
      </trkpt>
      <trkpt lat="45.99263" lon="4.71517">
        <ele>198</ele>
        <time>2018-03-24T10:01:32Z</time>
      </trkpt>
      <trkpt lat="45.99265" lon="4.71518">
        <ele>198</ele>
        <time>2018-03-24T10:01:33Z</time>
      </trkpt>
      <trkpt lat="45.99273" lon="4.71519">
        <ele>198</ele>
        <time>2018-03-24T10:01:36Z</time>
      </trkpt>
      <trkpt lat="45.99275" lon="4.71519">
        <ele>198</ele>
        <time>2018-03-24T10:01:37Z</time>
      </trkpt>
      <trkpt lat="45.99281" lon="4.71517">
        <ele>199</ele>
        <time>2018-03-24T10:01:39Z</time>
      </trkpt>
      <trkpt lat="45.99284" lon="4.71517">
        <ele>199</ele>
        <time>2018-03-24T10:01:40Z</time>
      </trkpt>
      <trkpt lat="45.9929" lon="4.71515">
        <ele>199</ele>
        <time>2018-03-24T10:01:42Z</time>
      </trkpt>
      <trkpt lat="45.99294" lon="4.71515">
        <ele>199</ele>
        <time>2018-03-24T10:01:43Z</time>
      </trkpt>
      <trkpt lat="45.99297" lon="4.71515">
        <ele>199</ele>
        <time>2018-03-24T10:01:44Z</time>
      </trkpt>
      <trkpt lat="45.99306" lon="4.71515">
        <ele>199</ele>
        <time>2018-03-24T10:01:45Z</time>
      </trkpt>
      <trkpt lat="45.99314" lon="4.71514">
        <ele>199</ele>
        <time>2018-03-24T10:01:47Z</time>
      </trkpt>
      <trkpt lat="45.99316" lon="4.71514">
        <ele>200</ele>
        <time>2018-03-24T10:01:48Z</time>
      </trkpt>
      <trkpt lat="45.99322" lon="4.71514">
        <ele>200</ele>
        <time>2018-03-24T10:01:49Z</time>
      </trkpt>
      <trkpt lat="45.99326" lon="4.71514">
        <ele>200</ele>
        <time>2018-03-24T10:01:50Z</time>
      </trkpt>
      <trkpt lat="45.99335" lon="4.71513">
        <ele>200</ele>
        <time>2018-03-24T10:01:52Z</time>
      </trkpt>
      <trkpt lat="45.99337" lon="4.71513">
        <ele>200</ele>
        <time>2018-03-24T10:01:53Z</time>
      </trkpt>
      <trkpt lat="45.99339" lon="4.71513">
        <ele>200</ele>
        <time>2018-03-24T10:01:54Z</time>
      </trkpt>
      <trkpt lat="45.99349" lon="4.71514">
        <ele>200</ele>
        <time>2018-03-24T10:01:55Z</time>
      </trkpt>
      <trkpt lat="45.99356" lon="4.71513">
        <ele>200</ele>
        <time>2018-03-24T10:01:57Z</time>
      </trkpt>
      <trkpt lat="45.9936" lon="4.71513">
        <ele>200</ele>
        <time>2018-03-24T10:01:58Z</time>
      </trkpt>
      <trkpt lat="45.99367" lon="4.71513">
        <ele>200</ele>
        <time>2018-03-24T10:02:00Z</time>
      </trkpt>
      <trkpt lat="45.99373" lon="4.71513">
        <ele>200</ele>
        <time>2018-03-24T10:02:01Z</time>
      </trkpt>
      <trkpt lat="45.99382" lon="4.71513">
        <ele>200</ele>
        <time>2018-03-24T10:02:03Z</time>
      </trkpt>
      <trkpt lat="45.99386" lon="4.71512">
        <ele>200</ele>
        <time>2018-03-24T10:02:04Z</time>
      </trkpt>
      <trkpt lat="45.99394" lon="4.71512">
        <ele>200</ele>
        <time>2018-03-24T10:02:06Z</time>
      </trkpt>
      <trkpt lat="45.99398" lon="4.71512">
        <ele>200</ele>
        <time>2018-03-24T10:02:07Z</time>
      </trkpt>
      <trkpt lat="45.99406" lon="4.71511">
        <ele>200</ele>
        <time>2018-03-24T10:02:09Z</time>
      </trkpt>
      <trkpt lat="45.99411" lon="4.71511">
        <ele>199</ele>
        <time>2018-03-24T10:02:10Z</time>
      </trkpt>
      <trkpt lat="45.99418" lon="4.71511">
        <ele>199</ele>
        <time>2018-03-24T10:02:12Z</time>
      </trkpt>
      <trkpt lat="45.99423" lon="4.71513">
        <ele>199</ele>
        <time>2018-03-24T10:02:13Z</time>
      </trkpt>
      <trkpt lat="45.99431" lon="4.71513">
        <ele>199</ele>
        <time>2018-03-24T10:02:15Z</time>
      </trkpt>
      <trkpt lat="45.99435" lon="4.71513">
        <ele>199</ele>
        <time>2018-03-24T10:02:16Z</time>
      </trkpt>
      <trkpt lat="45.99444" lon="4.71512">
        <ele>199</ele>
        <time>2018-03-24T10:02:19Z</time>
      </trkpt>
      <trkpt lat="45.99446" lon="4.71512">
        <ele>199</ele>
        <time>2018-03-24T10:02:20Z</time>
      </trkpt>
      <trkpt lat="45.99452" lon="4.71512">
        <ele>199</ele>
        <time>2018-03-24T10:02:22Z</time>
      </trkpt>
      <trkpt lat="45.99461" lon="4.71512">
        <ele>199</ele>
        <time>2018-03-24T10:02:23Z</time>
      </trkpt>
      <trkpt lat="45.99468" lon="4.71512">
        <ele>199</ele>
        <time>2018-03-24T10:02:25Z</time>
      </trkpt>
      <trkpt lat="45.99472" lon="4.71512">
        <ele>199</ele>
        <time>2018-03-24T10:02:26Z</time>
      </trkpt>
      <trkpt lat="45.9948" lon="4.71512">
        <ele>199</ele>
        <time>2018-03-24T10:02:28Z</time>
      </trkpt>
      <trkpt lat="45.99484" lon="4.71512">
        <ele>199</ele>
        <time>2018-03-24T10:02:29Z</time>
      </trkpt>
      <trkpt lat="45.99492" lon="4.71511">
        <ele>199</ele>
        <time>2018-03-24T10:02:31Z</time>
      </trkpt>
      <trkpt lat="45.99496" lon="4.71511">
        <ele>199</ele>
        <time>2018-03-24T10:02:32Z</time>
      </trkpt>
      <trkpt lat="45.99504" lon="4.71512">
        <ele>199</ele>
        <time>2018-03-24T10:02:34Z</time>
      </trkpt>
      <trkpt lat="45.99508" lon="4.71512">
        <ele>199</ele>
        <time>2018-03-24T10:02:35Z</time>
      </trkpt>
      <trkpt lat="45.99515" lon="4.71512">
        <ele>199</ele>
        <time>2018-03-24T10:02:37Z</time>
      </trkpt>
      <trkpt lat="45.99519" lon="4.71511">
        <ele>198</ele>
        <time>2018-03-24T10:02:38Z</time>
      </trkpt>
      <trkpt lat="45.99524" lon="4.71511">
        <ele>198</ele>
        <time>2018-03-24T10:02:39Z</time>
      </trkpt>
      <trkpt lat="45.99532" lon="4.71512">
        <ele>198</ele>
        <time>2018-03-24T10:02:40Z</time>
      </trkpt>
      <trkpt lat="45.99538" lon="4.71512">
        <ele>198</ele>
        <time>2018-03-24T10:02:41Z</time>
      </trkpt>
      <trkpt lat="45.99542" lon="4.71513">
        <ele>198</ele>
        <time>2018-03-24T10:02:42Z</time>
      </trkpt>
      <trkpt lat="45.99549" lon="4.71512">
        <ele>198</ele>
        <time>2018-03-24T10:02:43Z</time>
      </trkpt>
      <trkpt lat="45.99555" lon="4.71513">
        <ele>198</ele>
        <time>2018-03-24T10:02:44Z</time>
      </trkpt>
      <trkpt lat="45.99561" lon="4.71512">
        <ele>198</ele>
        <time>2018-03-24T10:02:45Z</time>
      </trkpt>
      <trkpt lat="45.99565" lon="4.71512">
        <ele>197</ele>
        <time>2018-03-24T10:02:46Z</time>
      </trkpt>
      <trkpt lat="45.99569" lon="4.71512">
        <ele>197</ele>
        <time>2018-03-24T10:02:47Z</time>
      </trkpt>
      <trkpt lat="45.99575" lon="4.71512">
        <ele>197</ele>
        <time>2018-03-24T10:02:48Z</time>
      </trkpt>
      <trkpt lat="45.9958" lon="4.71514">
        <ele>197</ele>
        <time>2018-03-24T10:02:49Z</time>
      </trkpt>
      <trkpt lat="45.99584" lon="4.71518">
        <ele>197</ele>
        <time>2018-03-24T10:02:50Z</time>
      </trkpt>
      <trkpt lat="45.99586" lon="4.71524">
        <ele>197</ele>
        <time>2018-03-24T10:02:51Z</time>
      </trkpt>
      <trkpt lat="45.99589" lon="4.71529">
        <ele>197</ele>
        <time>2018-03-24T10:02:52Z</time>
      </trkpt>
      <trkpt lat="45.99595" lon="4.71538">
        <ele>198</ele>
        <time>2018-03-24T10:02:54Z</time>
      </trkpt>
      <trkpt lat="45.99599" lon="4.71539">
        <ele>198</ele>
        <time>2018-03-24T10:02:55Z</time>
      </trkpt>
      <trkpt lat="45.99606" lon="4.71533">
        <ele>198</ele>
        <time>2018-03-24T10:02:57Z</time>
      </trkpt>
      <trkpt lat="45.9961" lon="4.71529">
        <ele>197</ele>
        <time>2018-03-24T10:02:58Z</time>
      </trkpt>
      <trkpt lat="45.99612" lon="4.71522">
        <ele>197</ele>
        <time>2018-03-24T10:02:59Z</time>
      </trkpt>
      <trkpt lat="45.99613" lon="4.71515">
        <ele>197</ele>
        <time>2018-03-24T10:03:00Z</time>
      </trkpt>
      <trkpt lat="45.99612" lon="4.71507">
        <ele>197</ele>
        <time>2018-03-24T10:03:01Z</time>
      </trkpt>
      <trkpt lat="45.9961" lon="4.715">
        <ele>197</ele>
        <time>2018-03-24T10:03:02Z</time>
      </trkpt>
      <trkpt lat="45.99611" lon="4.71492">
        <ele>197</ele>
        <time>2018-03-24T10:03:03Z</time>
      </trkpt>
      <trkpt lat="45.99611" lon="4.71483">
        <ele>197</ele>
        <time>2018-03-24T10:03:04Z</time>
      </trkpt>
      <trkpt lat="45.99613" lon="4.71476">
        <ele>197</ele>
        <time>2018-03-24T10:03:05Z</time>
      </trkpt>
      <trkpt lat="45.99615" lon="4.71469">
        <ele>197</ele>
        <time>2018-03-24T10:03:06Z</time>
      </trkpt>
      <trkpt lat="45.9962" lon="4.71462">
        <ele>197</ele>
        <time>2018-03-24T10:03:07Z</time>
      </trkpt>
      <trkpt lat="45.99624" lon="4.71456">
        <ele>197</ele>
        <time>2018-03-24T10:03:08Z</time>
      </trkpt>
      <trkpt lat="45.99628" lon="4.71449">
        <ele>197</ele>
        <time>2018-03-24T10:03:09Z</time>
      </trkpt>
      <trkpt lat="45.99632" lon="4.71442">
        <ele>197</ele>
        <time>2018-03-24T10:03:10Z</time>
      </trkpt>
      <trkpt lat="45.99636" lon="4.71436">
        <ele>197</ele>
        <time>2018-03-24T10:03:11Z</time>
      </trkpt>
      <trkpt lat="45.99639" lon="4.71429">
        <ele>197</ele>
        <time>2018-03-24T10:03:12Z</time>
      </trkpt>
      <trkpt lat="45.99643" lon="4.71423">
        <ele>197</ele>
        <time>2018-03-24T10:03:13Z</time>
      </trkpt>
      <trkpt lat="45.99646" lon="4.71416">
        <ele>198</ele>
        <time>2018-03-24T10:03:14Z</time>
      </trkpt>
      <trkpt lat="45.99649" lon="4.7141">
        <ele>198</ele>
        <time>2018-03-24T10:03:15Z</time>
      </trkpt>
      <trkpt lat="45.99653" lon="4.71404">
        <ele>198</ele>
        <time>2018-03-24T10:03:16Z</time>
      </trkpt>
      <trkpt lat="45.99656" lon="4.71397">
        <ele>198</ele>
        <time>2018-03-24T10:03:17Z</time>
      </trkpt>
      <trkpt lat="45.9966" lon="4.71389">
        <ele>198</ele>
        <time>2018-03-24T10:03:18Z</time>
      </trkpt>
      <trkpt lat="45.99663" lon="4.71383">
        <ele>198</ele>
        <time>2018-03-24T10:03:19Z</time>
      </trkpt>
      <trkpt lat="45.99666" lon="4.71375">
        <ele>198</ele>
        <time>2018-03-24T10:03:20Z</time>
      </trkpt>
      <trkpt lat="45.99669" lon="4.71368">
        <ele>197</ele>
        <time>2018-03-24T10:03:21Z</time>
      </trkpt>
      <trkpt lat="45.99673" lon="4.71362">
        <ele>197</ele>
        <time>2018-03-24T10:03:22Z</time>
      </trkpt>
      <trkpt lat="45.99677" lon="4.71355">
        <ele>197</ele>
        <time>2018-03-24T10:03:23Z</time>
      </trkpt>
      <trkpt lat="45.99681" lon="4.71349">
        <ele>197</ele>
        <time>2018-03-24T10:03:24Z</time>
      </trkpt>
      <trkpt lat="45.99684" lon="4.71343">
        <ele>197</ele>
        <time>2018-03-24T10:03:25Z</time>
      </trkpt>
      <trkpt lat="45.99688" lon="4.71336">
        <ele>197</ele>
        <time>2018-03-24T10:03:26Z</time>
      </trkpt>
      <trkpt lat="45.99691" lon="4.71329">
        <ele>197</ele>
        <time>2018-03-24T10:03:27Z</time>
      </trkpt>
      <trkpt lat="45.99695" lon="4.71321">
        <ele>198</ele>
        <time>2018-03-24T10:03:28Z</time>
      </trkpt>
      <trkpt lat="45.99699" lon="4.71315">
        <ele>198</ele>
        <time>2018-03-24T10:03:29Z</time>
      </trkpt>
      <trkpt lat="45.99702" lon="4.71307">
        <ele>198</ele>
        <time>2018-03-24T10:03:30Z</time>
      </trkpt>
      <trkpt lat="45.99706" lon="4.71301">
        <ele>198</ele>
        <time>2018-03-24T10:03:31Z</time>
      </trkpt>
      <trkpt lat="45.9971" lon="4.71294">
        <ele>198</ele>
        <time>2018-03-24T10:03:32Z</time>
      </trkpt>
      <trkpt lat="45.99715" lon="4.71287">
        <ele>198</ele>
        <time>2018-03-24T10:03:33Z</time>
      </trkpt>
      <trkpt lat="45.99718" lon="4.71279">
        <ele>198</ele>
        <time>2018-03-24T10:03:34Z</time>
      </trkpt>
      <trkpt lat="45.99721" lon="4.71272">
        <ele>198</ele>
        <time>2018-03-24T10:03:35Z</time>
      </trkpt>
      <trkpt lat="45.99725" lon="4.71267">
        <ele>198</ele>
        <time>2018-03-24T10:03:36Z</time>
      </trkpt>
      <trkpt lat="45.99729" lon="4.7126">
        <ele>198</ele>
        <time>2018-03-24T10:03:37Z</time>
      </trkpt>
      <trkpt lat="45.99732" lon="4.71253">
        <ele>198</ele>
        <time>2018-03-24T10:03:38Z</time>
      </trkpt>
      <trkpt lat="45.99737" lon="4.71245">
        <ele>198</ele>
        <time>2018-03-24T10:03:39Z</time>
      </trkpt>
      <trkpt lat="45.9974" lon="4.71238">
        <ele>198</ele>
        <time>2018-03-24T10:03:40Z</time>
      </trkpt>
      <trkpt lat="45.99743" lon="4.7123">
        <ele>198</ele>
        <time>2018-03-24T10:03:41Z</time>
      </trkpt>
      <trkpt lat="45.99747" lon="4.71223">
        <ele>198</ele>
        <time>2018-03-24T10:03:42Z</time>
      </trkpt>
      <trkpt lat="45.9975" lon="4.71216">
        <ele>199</ele>
        <time>2018-03-24T10:03:43Z</time>
      </trkpt>
      <trkpt lat="45.99755" lon="4.71209">
        <ele>199</ele>
        <time>2018-03-24T10:03:44Z</time>
      </trkpt>
      <trkpt lat="45.99758" lon="4.71201">
        <ele>198</ele>
        <time>2018-03-24T10:03:45Z</time>
      </trkpt>
      <trkpt lat="45.99761" lon="4.71194">
        <ele>198</ele>
        <time>2018-03-24T10:03:46Z</time>
      </trkpt>
      <trkpt lat="45.99765" lon="4.71186">
        <ele>198</ele>
        <time>2018-03-24T10:03:47Z</time>
      </trkpt>
      <trkpt lat="45.99768" lon="4.71181">
        <ele>198</ele>
        <time>2018-03-24T10:03:48Z</time>
      </trkpt>
      <trkpt lat="45.99771" lon="4.71175">
        <ele>198</ele>
        <time>2018-03-24T10:03:49Z</time>
      </trkpt>
      <trkpt lat="45.99774" lon="4.71169">
        <ele>198</ele>
        <time>2018-03-24T10:03:50Z</time>
      </trkpt>
      <trkpt lat="45.99778" lon="4.71162">
        <ele>198</ele>
        <time>2018-03-24T10:03:52Z</time>
      </trkpt>
      <trkpt lat="45.99782" lon="4.71155">
        <ele>198</ele>
        <time>2018-03-24T10:03:53Z</time>
      </trkpt>
      <trkpt lat="45.99786" lon="4.71144">
        <ele>198</ele>
        <time>2018-03-24T10:04:02Z</time>
      </trkpt>
      <trkpt lat="45.99786" lon="4.71144">
        <ele>198</ele>
        <time>2018-03-24T10:04:03Z</time>
      </trkpt>
      <trkpt lat="45.99792" lon="4.71136">
        <ele>198</ele>
        <time>2018-03-24T10:04:22Z</time>
      </trkpt>
      <trkpt lat="45.99793" lon="4.71134">
        <ele>198</ele>
        <time>2018-03-24T10:04:23Z</time>
      </trkpt>
      <trkpt lat="45.99798" lon="4.71124">
        <ele>198</ele>
        <time>2018-03-24T10:04:26Z</time>
      </trkpt>
      <trkpt lat="45.99799" lon="4.71121">
        <ele>198</ele>
        <time>2018-03-24T10:04:27Z</time>
      </trkpt>
      <trkpt lat="45.998" lon="4.71116">
        <ele>198</ele>
        <time>2018-03-24T10:04:28Z</time>
      </trkpt>
      <trkpt lat="45.99803" lon="4.71105">
        <ele>198</ele>
        <time>2018-03-24T10:04:29Z</time>
      </trkpt>
      <trkpt lat="45.99803" lon="4.71093">
        <ele>198</ele>
        <time>2018-03-24T10:04:31Z</time>
      </trkpt>
      <trkpt lat="45.99804" lon="4.71087">
        <ele>198</ele>
        <time>2018-03-24T10:04:32Z</time>
      </trkpt>
      <trkpt lat="45.99805" lon="4.7108">
        <ele>199</ele>
        <time>2018-03-24T10:04:33Z</time>
      </trkpt>
      <trkpt lat="45.99807" lon="4.71073">
        <ele>199</ele>
        <time>2018-03-24T10:04:34Z</time>
      </trkpt>
      <trkpt lat="45.99808" lon="4.7106">
        <ele>199</ele>
        <time>2018-03-24T10:04:36Z</time>
      </trkpt>
      <trkpt lat="45.9981" lon="4.71054">
        <ele>199</ele>
        <time>2018-03-24T10:04:37Z</time>
      </trkpt>
      <trkpt lat="45.99812" lon="4.71047">
        <ele>199</ele>
        <time>2018-03-24T10:04:38Z</time>
      </trkpt>
      <trkpt lat="45.99813" lon="4.7104">
        <ele>199</ele>
        <time>2018-03-24T10:04:39Z</time>
      </trkpt>
      <trkpt lat="45.99814" lon="4.71032">
        <ele>199</ele>
        <time>2018-03-24T10:04:40Z</time>
      </trkpt>
      <trkpt lat="45.99816" lon="4.71025">
        <ele>199</ele>
        <time>2018-03-24T10:04:41Z</time>
      </trkpt>
      <trkpt lat="45.99817" lon="4.71018">
        <ele>200</ele>
        <time>2018-03-24T10:04:42Z</time>
      </trkpt>
      <trkpt lat="45.99819" lon="4.7101">
        <ele>200</ele>
        <time>2018-03-24T10:04:43Z</time>
      </trkpt>
      <trkpt lat="45.9982" lon="4.71003">
        <ele>200</ele>
        <time>2018-03-24T10:04:44Z</time>
      </trkpt>
      <trkpt lat="45.99822" lon="4.70996">
        <ele>200</ele>
        <time>2018-03-24T10:04:45Z</time>
      </trkpt>
      <trkpt lat="45.99822" lon="4.70988">
        <ele>200</ele>
        <time>2018-03-24T10:04:46Z</time>
      </trkpt>
      <trkpt lat="45.99823" lon="4.70982">
        <ele>200</ele>
        <time>2018-03-24T10:04:47Z</time>
      </trkpt>
      <trkpt lat="45.99824" lon="4.70975">
        <ele>200</ele>
        <time>2018-03-24T10:04:48Z</time>
      </trkpt>
      <trkpt lat="45.99825" lon="4.70967">
        <ele>200</ele>
        <time>2018-03-24T10:04:49Z</time>
      </trkpt>
      <trkpt lat="45.99826" lon="4.70959">
        <ele>200</ele>
        <time>2018-03-24T10:04:50Z</time>
      </trkpt>
      <trkpt lat="45.99827" lon="4.70952">
        <ele>199</ele>
        <time>2018-03-24T10:04:51Z</time>
      </trkpt>
      <trkpt lat="45.99829" lon="4.70945">
        <ele>199</ele>
        <time>2018-03-24T10:04:52Z</time>
      </trkpt>
      <trkpt lat="45.9983" lon="4.70938">
        <ele>199</ele>
        <time>2018-03-24T10:04:53Z</time>
      </trkpt>
      <trkpt lat="45.99831" lon="4.70931">
        <ele>199</ele>
        <time>2018-03-24T10:04:54Z</time>
      </trkpt>
      <trkpt lat="45.99833" lon="4.70922">
        <ele>199</ele>
        <time>2018-03-24T10:04:55Z</time>
      </trkpt>
      <trkpt lat="45.99834" lon="4.70915">
        <ele>199</ele>
        <time>2018-03-24T10:04:56Z</time>
      </trkpt>
      <trkpt lat="45.99836" lon="4.70909">
        <ele>199</ele>
        <time>2018-03-24T10:04:57Z</time>
      </trkpt>
      <trkpt lat="45.99837" lon="4.70903">
        <ele>199</ele>
        <time>2018-03-24T10:04:58Z</time>
      </trkpt>
      <trkpt lat="45.99838" lon="4.70896">
        <ele>199</ele>
        <time>2018-03-24T10:04:59Z</time>
      </trkpt>
      <trkpt lat="45.9984" lon="4.70889">
        <ele>199</ele>
        <time>2018-03-24T10:05:00Z</time>
      </trkpt>
      <trkpt lat="45.99842" lon="4.70882">
        <ele>199</ele>
        <time>2018-03-24T10:05:01Z</time>
      </trkpt>
      <trkpt lat="45.99843" lon="4.70874">
        <ele>200</ele>
        <time>2018-03-24T10:05:02Z</time>
      </trkpt>
      <trkpt lat="45.99845" lon="4.70866">
        <ele>200</ele>
        <time>2018-03-24T10:05:03Z</time>
      </trkpt>
      <trkpt lat="45.99846" lon="4.70859">
        <ele>200</ele>
        <time>2018-03-24T10:05:04Z</time>
      </trkpt>
      <trkpt lat="45.99848" lon="4.70851">
        <ele>200</ele>
        <time>2018-03-24T10:05:05Z</time>
      </trkpt>
      <trkpt lat="45.99848" lon="4.70844">
        <ele>201</ele>
        <time>2018-03-24T10:05:06Z</time>
      </trkpt>
      <trkpt lat="45.9985" lon="4.70835">
        <ele>201</ele>
        <time>2018-03-24T10:05:07Z</time>
      </trkpt>
      <trkpt lat="45.99851" lon="4.70827">
        <ele>201</ele>
        <time>2018-03-24T10:05:08Z</time>
      </trkpt>
      <trkpt lat="45.99853" lon="4.70821">
        <ele>201</ele>
        <time>2018-03-24T10:05:09Z</time>
      </trkpt>
      <trkpt lat="45.99855" lon="4.70814">
        <ele>201</ele>
        <time>2018-03-24T10:05:10Z</time>
      </trkpt>
      <trkpt lat="45.99857" lon="4.70806">
        <ele>201</ele>
        <time>2018-03-24T10:05:11Z</time>
      </trkpt>
      <trkpt lat="45.99857" lon="4.70799">
        <ele>201</ele>
        <time>2018-03-24T10:05:12Z</time>
      </trkpt>
      <trkpt lat="45.99859" lon="4.70792">
        <ele>200</ele>
        <time>2018-03-24T10:05:13Z</time>
      </trkpt>
      <trkpt lat="45.99861" lon="4.70785">
        <ele>200</ele>
        <time>2018-03-24T10:05:14Z</time>
      </trkpt>
      <trkpt lat="45.99862" lon="4.70777">
        <ele>200</ele>
        <time>2018-03-24T10:05:15Z</time>
      </trkpt>
      <trkpt lat="45.99863" lon="4.7077">
        <ele>200</ele>
        <time>2018-03-24T10:05:16Z</time>
      </trkpt>
      <trkpt lat="45.99864" lon="4.70762">
        <ele>200</ele>
        <time>2018-03-24T10:05:17Z</time>
      </trkpt>
      <trkpt lat="45.99866" lon="4.70755">
        <ele>200</ele>
        <time>2018-03-24T10:05:18Z</time>
      </trkpt>
      <trkpt lat="45.99867" lon="4.70747">
        <ele>200</ele>
        <time>2018-03-24T10:05:19Z</time>
      </trkpt>
      <trkpt lat="45.99869" lon="4.70739">
        <ele>200</ele>
        <time>2018-03-24T10:05:20Z</time>
      </trkpt>
      <trkpt lat="45.9987" lon="4.70731">
        <ele>200</ele>
        <time>2018-03-24T10:05:21Z</time>
      </trkpt>
      <trkpt lat="45.99872" lon="4.70722">
        <ele>200</ele>
        <time>2018-03-24T10:05:22Z</time>
      </trkpt>
      <trkpt lat="45.99874" lon="4.70714">
        <ele>200</ele>
        <time>2018-03-24T10:05:23Z</time>
      </trkpt>
      <trkpt lat="45.99876" lon="4.70704">
        <ele>200</ele>
        <time>2018-03-24T10:05:24Z</time>
      </trkpt>
      <trkpt lat="45.99877" lon="4.70697">
        <ele>200</ele>
        <time>2018-03-24T10:05:25Z</time>
      </trkpt>
      <trkpt lat="45.99878" lon="4.70688">
        <ele>200</ele>
        <time>2018-03-24T10:05:26Z</time>
      </trkpt>
      <trkpt lat="45.99879" lon="4.7068">
        <ele>200</ele>
        <time>2018-03-24T10:05:27Z</time>
      </trkpt>
      <trkpt lat="45.99881" lon="4.7067">
        <ele>200</ele>
        <time>2018-03-24T10:05:28Z</time>
      </trkpt>
      <trkpt lat="45.99883" lon="4.70664">
        <ele>200</ele>
        <time>2018-03-24T10:05:29Z</time>
      </trkpt>
      <trkpt lat="45.99884" lon="4.70655">
        <ele>200</ele>
        <time>2018-03-24T10:05:30Z</time>
      </trkpt>
      <trkpt lat="45.9989" lon="4.70652">
        <ele>200</ele>
        <time>2018-03-24T10:05:31Z</time>
      </trkpt>
      <trkpt lat="45.99896" lon="4.7065">
        <ele>200</ele>
        <time>2018-03-24T10:05:32Z</time>
      </trkpt>
      <trkpt lat="45.99902" lon="4.70644">
        <ele>200</ele>
        <time>2018-03-24T10:05:33Z</time>
      </trkpt>
      <trkpt lat="45.99908" lon="4.70642">
        <ele>200</ele>
        <time>2018-03-24T10:05:34Z</time>
      </trkpt>
      <trkpt lat="45.99913" lon="4.7064">
        <ele>200</ele>
        <time>2018-03-24T10:05:35Z</time>
      </trkpt>
      <trkpt lat="45.99918" lon="4.7064">
        <ele>199</ele>
        <time>2018-03-24T10:05:36Z</time>
      </trkpt>
      <trkpt lat="45.99924" lon="4.70639">
        <ele>199</ele>
        <time>2018-03-24T10:05:37Z</time>
      </trkpt>
      <trkpt lat="45.99931" lon="4.70638">
        <ele>199</ele>
        <time>2018-03-24T10:05:38Z</time>
      </trkpt>
      <trkpt lat="45.99936" lon="4.70636">
        <ele>199</ele>
        <time>2018-03-24T10:05:39Z</time>
      </trkpt>
      <trkpt lat="45.99942" lon="4.70634">
        <ele>199</ele>
        <time>2018-03-24T10:05:40Z</time>
      </trkpt>
      <trkpt lat="45.99946" lon="4.70632">
        <ele>199</ele>
        <time>2018-03-24T10:05:41Z</time>
      </trkpt>
      <trkpt lat="45.99952" lon="4.70632">
        <ele>199</ele>
        <time>2018-03-24T10:05:42Z</time>
      </trkpt>
      <trkpt lat="45.99956" lon="4.7063">
        <ele>199</ele>
        <time>2018-03-24T10:05:43Z</time>
      </trkpt>
      <trkpt lat="45.9996" lon="4.70629">
        <ele>199</ele>
        <time>2018-03-24T10:05:44Z</time>
      </trkpt>
      <trkpt lat="45.99966" lon="4.70629">
        <ele>199</ele>
        <time>2018-03-24T10:05:45Z</time>
      </trkpt>
      <trkpt lat="45.99971" lon="4.70628">
        <ele>199</ele>
        <time>2018-03-24T10:05:46Z</time>
      </trkpt>
      <trkpt lat="45.99976" lon="4.70628">
        <ele>199</ele>
        <time>2018-03-24T10:05:47Z</time>
      </trkpt>
      <trkpt lat="45.99982" lon="4.70627">
        <ele>199</ele>
        <time>2018-03-24T10:05:48Z</time>
      </trkpt>
      <trkpt lat="45.99988" lon="4.70626">
        <ele>199</ele>
        <time>2018-03-24T10:05:49Z</time>
      </trkpt>
      <trkpt lat="45.99993" lon="4.70623">
        <ele>199</ele>
        <time>2018-03-24T10:05:50Z</time>
      </trkpt>
      <trkpt lat="45.99999" lon="4.70621">
        <ele>199</ele>
        <time>2018-03-24T10:05:51Z</time>
      </trkpt>
      <trkpt lat="46.00004" lon="4.7062">
        <ele>199</ele>
        <time>2018-03-24T10:05:52Z</time>
      </trkpt>
      <trkpt lat="46.00011" lon="4.70618">
        <ele>199</ele>
        <time>2018-03-24T10:05:53Z</time>
      </trkpt>
      <trkpt lat="46.00017" lon="4.70617">
        <ele>199</ele>
        <time>2018-03-24T10:05:54Z</time>
      </trkpt>
      <trkpt lat="46.00024" lon="4.70616">
        <ele>199</ele>
        <time>2018-03-24T10:05:55Z</time>
      </trkpt>
      <trkpt lat="46.0003" lon="4.70614">
        <ele>199</ele>
        <time>2018-03-24T10:05:56Z</time>
      </trkpt>
      <trkpt lat="46.00036" lon="4.70614">
        <ele>199</ele>
        <time>2018-03-24T10:05:57Z</time>
      </trkpt>
      <trkpt lat="46.00041" lon="4.70612">
        <ele>199</ele>
        <time>2018-03-24T10:05:58Z</time>
      </trkpt>
      <trkpt lat="46.00048" lon="4.70612">
        <ele>198</ele>
        <time>2018-03-24T10:05:59Z</time>
      </trkpt>
      <trkpt lat="46.00053" lon="4.70611">
        <ele>198</ele>
        <time>2018-03-24T10:06:00Z</time>
      </trkpt>
      <trkpt lat="46.00057" lon="4.70612">
        <ele>198</ele>
        <time>2018-03-24T10:06:01Z</time>
      </trkpt>
      <trkpt lat="46.00062" lon="4.70611">
        <ele>198</ele>
        <time>2018-03-24T10:06:02Z</time>
      </trkpt>
      <trkpt lat="46.00068" lon="4.70609">
        <ele>198</ele>
        <time>2018-03-24T10:06:03Z</time>
      </trkpt>
      <trkpt lat="46.00072" lon="4.70609">
        <ele>198</ele>
        <time>2018-03-24T10:06:04Z</time>
      </trkpt>
      <trkpt lat="46.00077" lon="4.70608">
        <ele>198</ele>
        <time>2018-03-24T10:06:05Z</time>
      </trkpt>
      <trkpt lat="46.00082" lon="4.70607">
        <ele>198</ele>
        <time>2018-03-24T10:06:06Z</time>
      </trkpt>
      <trkpt lat="46.00088" lon="4.70604">
        <ele>198</ele>
        <time>2018-03-24T10:06:07Z</time>
      </trkpt>
      <trkpt lat="46.00093" lon="4.70601">
        <ele>198</ele>
        <time>2018-03-24T10:06:08Z</time>
      </trkpt>
      <trkpt lat="46.00097" lon="4.70596">
        <ele>198</ele>
        <time>2018-03-24T10:06:09Z</time>
      </trkpt>
      <trkpt lat="46.00102" lon="4.70591">
        <ele>198</ele>
        <time>2018-03-24T10:06:10Z</time>
      </trkpt>
      <trkpt lat="46.00107" lon="4.70588">
        <ele>198</ele>
        <time>2018-03-24T10:06:11Z</time>
      </trkpt>
      <trkpt lat="46.00113" lon="4.70585">
        <ele>198</ele>
        <time>2018-03-24T10:06:12Z</time>
      </trkpt>
      <trkpt lat="46.00119" lon="4.70582">
        <ele>198</ele>
        <time>2018-03-24T10:06:13Z</time>
      </trkpt>
      <trkpt lat="46.00123" lon="4.70578">
        <ele>198</ele>
        <time>2018-03-24T10:06:14Z</time>
      </trkpt>
      <trkpt lat="46.00128" lon="4.70574">
        <ele>198</ele>
        <time>2018-03-24T10:06:15Z</time>
      </trkpt>
      <trkpt lat="46.00132" lon="4.7057">
        <ele>198</ele>
        <time>2018-03-24T10:06:16Z</time>
      </trkpt>
      <trkpt lat="46.00137" lon="4.70566">
        <ele>198</ele>
        <time>2018-03-24T10:06:17Z</time>
      </trkpt>
      <trkpt lat="46.00142" lon="4.70564">
        <ele>198</ele>
        <time>2018-03-24T10:06:18Z</time>
      </trkpt>
      <trkpt lat="46.00147" lon="4.70562">
        <ele>198</ele>
        <time>2018-03-24T10:06:19Z</time>
      </trkpt>
      <trkpt lat="46.00152" lon="4.70559">
        <ele>198</ele>
        <time>2018-03-24T10:06:20Z</time>
      </trkpt>
      <trkpt lat="46.00156" lon="4.70557">
        <ele>198</ele>
        <time>2018-03-24T10:06:21Z</time>
      </trkpt>
      <trkpt lat="46.00162" lon="4.70553">
        <ele>198</ele>
        <time>2018-03-24T10:06:22Z</time>
      </trkpt>
      <trkpt lat="46.00167" lon="4.70549">
        <ele>198</ele>
        <time>2018-03-24T10:06:23Z</time>
      </trkpt>
      <trkpt lat="46.00172" lon="4.70545">
        <ele>198</ele>
        <time>2018-03-24T10:06:24Z</time>
      </trkpt>
      <trkpt lat="46.00177" lon="4.70542">
        <ele>198</ele>
        <time>2018-03-24T10:06:25Z</time>
      </trkpt>
      <trkpt lat="46.00182" lon="4.70539">
        <ele>198</ele>
        <time>2018-03-24T10:06:26Z</time>
      </trkpt>
      <trkpt lat="46.00189" lon="4.70537">
        <ele>198</ele>
        <time>2018-03-24T10:06:27Z</time>
      </trkpt>
      <trkpt lat="46.00195" lon="4.70538">
        <ele>198</ele>
        <time>2018-03-24T10:06:28Z</time>
      </trkpt>
      <trkpt lat="46.00201" lon="4.70538">
        <ele>198</ele>
        <time>2018-03-24T10:06:29Z</time>
      </trkpt>
      <trkpt lat="46.00207" lon="4.70537">
        <ele>198</ele>
        <time>2018-03-24T10:06:30Z</time>
      </trkpt>
      <trkpt lat="46.00213" lon="4.70535">
        <ele>198</ele>
        <time>2018-03-24T10:06:31Z</time>
      </trkpt>
      <trkpt lat="46.00218" lon="4.70533">
        <ele>198</ele>
        <time>2018-03-24T10:06:32Z</time>
      </trkpt>
      <trkpt lat="46.00223" lon="4.70531">
        <ele>198</ele>
        <time>2018-03-24T10:06:33Z</time>
      </trkpt>
      <trkpt lat="46.00229" lon="4.70529">
        <ele>198</ele>
        <time>2018-03-24T10:06:34Z</time>
      </trkpt>
      <trkpt lat="46.00233" lon="4.70528">
        <ele>198</ele>
        <time>2018-03-24T10:06:35Z</time>
      </trkpt>
      <trkpt lat="46.00239" lon="4.70526">
        <ele>198</ele>
        <time>2018-03-24T10:06:36Z</time>
      </trkpt>
      <trkpt lat="46.00244" lon="4.70525">
        <ele>198</ele>
        <time>2018-03-24T10:06:37Z</time>
      </trkpt>
      <trkpt lat="46.0025" lon="4.70524">
        <ele>197</ele>
        <time>2018-03-24T10:06:38Z</time>
      </trkpt>
      <trkpt lat="46.00257" lon="4.70523">
        <ele>197</ele>
        <time>2018-03-24T10:06:39Z</time>
      </trkpt>
      <trkpt lat="46.00263" lon="4.70521">
        <ele>197</ele>
        <time>2018-03-24T10:06:40Z</time>
      </trkpt>
      <trkpt lat="46.00268" lon="4.7052">
        <ele>197</ele>
        <time>2018-03-24T10:06:41Z</time>
      </trkpt>
      <trkpt lat="46.00274" lon="4.70518">
        <ele>197</ele>
        <time>2018-03-24T10:06:42Z</time>
      </trkpt>
      <trkpt lat="46.00279" lon="4.70517">
        <ele>197</ele>
        <time>2018-03-24T10:06:43Z</time>
      </trkpt>
      <trkpt lat="46.00284" lon="4.70515">
        <ele>197</ele>
        <time>2018-03-24T10:06:44Z</time>
      </trkpt>
      <trkpt lat="46.00289" lon="4.70513">
        <ele>197</ele>
        <time>2018-03-24T10:06:45Z</time>
      </trkpt>
      <trkpt lat="46.00294" lon="4.70512">
        <ele>197</ele>
        <time>2018-03-24T10:06:46Z</time>
      </trkpt>
      <trkpt lat="46.00299" lon="4.70509">
        <ele>197</ele>
        <time>2018-03-24T10:06:47Z</time>
      </trkpt>
      <trkpt lat="46.00305" lon="4.70509">
        <ele>197</ele>
        <time>2018-03-24T10:06:48Z</time>
      </trkpt>
      <trkpt lat="46.0031" lon="4.70506">
        <ele>197</ele>
        <time>2018-03-24T10:06:49Z</time>
      </trkpt>
      <trkpt lat="46.00314" lon="4.70503">
        <ele>198</ele>
        <time>2018-03-24T10:06:50Z</time>
      </trkpt>
      <trkpt lat="46.0032" lon="4.70503">
        <ele>198</ele>
        <time>2018-03-24T10:06:51Z</time>
      </trkpt>
      <trkpt lat="46.00326" lon="4.70502">
        <ele>198</ele>
        <time>2018-03-24T10:06:52Z</time>
      </trkpt>
      <trkpt lat="46.00332" lon="4.70501">
        <ele>198</ele>
        <time>2018-03-24T10:06:53Z</time>
      </trkpt>
      <trkpt lat="46.00338" lon="4.705">
        <ele>198</ele>
        <time>2018-03-24T10:06:54Z</time>
      </trkpt>
      <trkpt lat="46.00343" lon="4.70499">
        <ele>199</ele>
        <time>2018-03-24T10:06:55Z</time>
      </trkpt>
      <trkpt lat="46.00347" lon="4.70499">
        <ele>199</ele>
        <time>2018-03-24T10:06:56Z</time>
      </trkpt>
      <trkpt lat="46.00354" lon="4.70498">
        <ele>199</ele>
        <time>2018-03-24T10:06:57Z</time>
      </trkpt>
      <trkpt lat="46.00359" lon="4.70498">
        <ele>200</ele>
        <time>2018-03-24T10:06:58Z</time>
      </trkpt>
      <trkpt lat="46.00364" lon="4.70497">
        <ele>200</ele>
        <time>2018-03-24T10:06:59Z</time>
      </trkpt>
      <trkpt lat="46.0037" lon="4.70497">
        <ele>200</ele>
        <time>2018-03-24T10:07:00Z</time>
      </trkpt>
      <trkpt lat="46.00376" lon="4.70497">
        <ele>200</ele>
        <time>2018-03-24T10:07:01Z</time>
      </trkpt>
      <trkpt lat="46.00381" lon="4.70496">
        <ele>200</ele>
        <time>2018-03-24T10:07:02Z</time>
      </trkpt>
      <trkpt lat="46.00388" lon="4.70496">
        <ele>200</ele>
        <time>2018-03-24T10:07:03Z</time>
      </trkpt>
      <trkpt lat="46.00394" lon="4.70493">
        <ele>200</ele>
        <time>2018-03-24T10:07:04Z</time>
      </trkpt>
      <trkpt lat="46.00398" lon="4.70492">
        <ele>200</ele>
        <time>2018-03-24T10:07:05Z</time>
      </trkpt>
      <trkpt lat="46.00404" lon="4.70493">
        <ele>200</ele>
        <time>2018-03-24T10:07:06Z</time>
      </trkpt>
      <trkpt lat="46.00409" lon="4.70493">
        <ele>200</ele>
        <time>2018-03-24T10:07:07Z</time>
      </trkpt>
      <trkpt lat="46.00415" lon="4.70493">
        <ele>200</ele>
        <time>2018-03-24T10:07:08Z</time>
      </trkpt>
      <trkpt lat="46.0042" lon="4.70493">
        <ele>201</ele>
        <time>2018-03-24T10:07:09Z</time>
      </trkpt>
      <trkpt lat="46.00426" lon="4.70494">
        <ele>201</ele>
        <time>2018-03-24T10:07:10Z</time>
      </trkpt>
      <trkpt lat="46.00431" lon="4.70494">
        <ele>202</ele>
        <time>2018-03-24T10:07:11Z</time>
      </trkpt>
      <trkpt lat="46.00436" lon="4.70495">
        <ele>202</ele>
        <time>2018-03-24T10:07:12Z</time>
      </trkpt>
      <trkpt lat="46.00441" lon="4.70495">
        <ele>202</ele>
        <time>2018-03-24T10:07:13Z</time>
      </trkpt>
      <trkpt lat="46.00446" lon="4.70497">
        <ele>202</ele>
        <time>2018-03-24T10:07:14Z</time>
      </trkpt>
      <trkpt lat="46.00451" lon="4.70498">
        <ele>202</ele>
        <time>2018-03-24T10:07:15Z</time>
      </trkpt>
      <trkpt lat="46.00454" lon="4.70502">
        <ele>201</ele>
        <time>2018-03-24T10:07:16Z</time>
      </trkpt>
      <trkpt lat="46.00458" lon="4.70505">
        <ele>201</ele>
        <time>2018-03-24T10:07:17Z</time>
      </trkpt>
      <trkpt lat="46.00463" lon="4.7051">
        <ele>201</ele>
        <time>2018-03-24T10:07:18Z</time>
      </trkpt>
      <trkpt lat="46.00466" lon="4.70515">
        <ele>201</ele>
        <time>2018-03-24T10:07:19Z</time>
      </trkpt>
      <trkpt lat="46.00468" lon="4.70521">
        <ele>201</ele>
        <time>2018-03-24T10:07:20Z</time>
      </trkpt>
      <trkpt lat="46.00471" lon="4.70528">
        <ele>201</ele>
        <time>2018-03-24T10:07:21Z</time>
      </trkpt>
      <trkpt lat="46.00474" lon="4.70534">
        <ele>201</ele>
        <time>2018-03-24T10:07:22Z</time>
      </trkpt>
      <trkpt lat="46.00477" lon="4.7054">
        <ele>201</ele>
        <time>2018-03-24T10:07:23Z</time>
      </trkpt>
      <trkpt lat="46.00481" lon="4.70544">
        <ele>201</ele>
        <time>2018-03-24T10:07:24Z</time>
      </trkpt>
      <trkpt lat="46.00486" lon="4.70547">
        <ele>201</ele>
        <time>2018-03-24T10:07:25Z</time>
      </trkpt>
      <trkpt lat="46.00495" lon="4.70545">
        <ele>201</ele>
        <time>2018-03-24T10:07:27Z</time>
      </trkpt>
      <trkpt lat="46.00498" lon="4.70541">
        <ele>201</ele>
        <time>2018-03-24T10:07:28Z</time>
      </trkpt>
      <trkpt lat="46.005" lon="4.70536">
        <ele>203</ele>
        <time>2018-03-24T10:07:29Z</time>
      </trkpt>
      <trkpt lat="46.00503" lon="4.70529">
        <ele>203</ele>
        <time>2018-03-24T10:07:30Z</time>
      </trkpt>
      <trkpt lat="46.00509" lon="4.7052">
        <ele>203</ele>
        <time>2018-03-24T10:07:32Z</time>
      </trkpt>
      <trkpt lat="46.00513" lon="4.70517">
        <ele>204</ele>
        <time>2018-03-24T10:07:33Z</time>
      </trkpt>
      <trkpt lat="46.00521" lon="4.70515">
        <ele>204</ele>
        <time>2018-03-24T10:07:35Z</time>
      </trkpt>
      <trkpt lat="46.00526" lon="4.70515">
        <ele>204</ele>
        <time>2018-03-24T10:07:36Z</time>
      </trkpt>
      <trkpt lat="46.00534" lon="4.70515">
        <ele>204</ele>
        <time>2018-03-24T10:07:38Z</time>
      </trkpt>
      <trkpt lat="46.00538" lon="4.70514">
        <ele>204</ele>
        <time>2018-03-24T10:07:39Z</time>
      </trkpt>
      <trkpt lat="46.00544" lon="4.70515">
        <ele>204</ele>
        <time>2018-03-24T10:07:40Z</time>
      </trkpt>
      <trkpt lat="46.00548" lon="4.70516">
        <ele>204</ele>
        <time>2018-03-24T10:07:41Z</time>
      </trkpt>
      <trkpt lat="46.00556" lon="4.70516">
        <ele>204</ele>
        <time>2018-03-24T10:07:43Z</time>
      </trkpt>
      <trkpt lat="46.00559" lon="4.70517">
        <ele>204</ele>
        <time>2018-03-24T10:07:44Z</time>
      </trkpt>
      <trkpt lat="46.00567" lon="4.70517">
        <ele>205</ele>
        <time>2018-03-24T10:07:46Z</time>
      </trkpt>
      <trkpt lat="46.00571" lon="4.70516">
        <ele>205</ele>
        <time>2018-03-24T10:07:47Z</time>
      </trkpt>
      <trkpt lat="46.00578" lon="4.70514">
        <ele>205</ele>
        <time>2018-03-24T10:07:49Z</time>
      </trkpt>
      <trkpt lat="46.00582" lon="4.70514">
        <ele>205</ele>
        <time>2018-03-24T10:07:50Z</time>
      </trkpt>
      <trkpt lat="46.00589" lon="4.70512">
        <ele>207</ele>
        <time>2018-03-24T10:07:52Z</time>
      </trkpt>
      <trkpt lat="46.00593" lon="4.70512">
        <ele>207</ele>
        <time>2018-03-24T10:07:53Z</time>
      </trkpt>
      <trkpt lat="46.006" lon="4.7051">
        <ele>207</ele>
        <time>2018-03-24T10:07:55Z</time>
      </trkpt>
      <trkpt lat="46.00605" lon="4.70509">
        <ele>207</ele>
        <time>2018-03-24T10:07:56Z</time>
      </trkpt>
      <trkpt lat="46.00612" lon="4.70507">
        <ele>207</ele>
        <time>2018-03-24T10:07:58Z</time>
      </trkpt>
      <trkpt lat="46.00616" lon="4.70506">
        <ele>207</ele>
        <time>2018-03-24T10:07:59Z</time>
      </trkpt>
      <trkpt lat="46.00622" lon="4.70505">
        <ele>207</ele>
        <time>2018-03-24T10:08:01Z</time>
      </trkpt>
      <trkpt lat="46.00628" lon="4.70504">
        <ele>207</ele>
        <time>2018-03-24T10:08:02Z</time>
      </trkpt>
      <trkpt lat="46.00636" lon="4.70501">
        <ele>208</ele>
        <time>2018-03-24T10:08:04Z</time>
      </trkpt>
      <trkpt lat="46.0064" lon="4.705">
        <ele>211</ele>
        <time>2018-03-24T10:08:05Z</time>
      </trkpt>
      <trkpt lat="46.00644" lon="4.70497">
        <ele>211</ele>
        <time>2018-03-24T10:08:06Z</time>
      </trkpt>
      <trkpt lat="46.00649" lon="4.70497">
        <ele>211</ele>
        <time>2018-03-24T10:08:07Z</time>
      </trkpt>
      <trkpt lat="46.00654" lon="4.70497">
        <ele>212</ele>
        <time>2018-03-24T10:08:08Z</time>
      </trkpt>
      <trkpt lat="46.00659" lon="4.70498">
        <ele>212</ele>
        <time>2018-03-24T10:08:09Z</time>
      </trkpt>
      <trkpt lat="46.00663" lon="4.70497">
        <ele>212</ele>
        <time>2018-03-24T10:08:10Z</time>
      </trkpt>
      <trkpt lat="46.00668" lon="4.70497">
        <ele>212</ele>
        <time>2018-03-24T10:08:11Z</time>
      </trkpt>
      <trkpt lat="46.00676" lon="4.70498">
        <ele>212</ele>
        <time>2018-03-24T10:08:13Z</time>
      </trkpt>
      <trkpt lat="46.00682" lon="4.70498">
        <ele>211</ele>
        <time>2018-03-24T10:08:14Z</time>
      </trkpt>
      <trkpt lat="46.00686" lon="4.70499">
        <ele>211</ele>
        <time>2018-03-24T10:08:15Z</time>
      </trkpt>
      <trkpt lat="46.00691" lon="4.705">
        <ele>211</ele>
        <time>2018-03-24T10:08:16Z</time>
      </trkpt>
      <trkpt lat="46.00695" lon="4.705">
        <ele>208</ele>
        <time>2018-03-24T10:08:17Z</time>
      </trkpt>
      <trkpt lat="46.00701" lon="4.705">
        <ele>208</ele>
        <time>2018-03-24T10:08:18Z</time>
      </trkpt>
      <trkpt lat="46.00706" lon="4.705">
        <ele>211</ele>
        <time>2018-03-24T10:08:19Z</time>
      </trkpt>
      <trkpt lat="46.00713" lon="4.70499">
        <ele>210</ele>
        <time>2018-03-24T10:08:20Z</time>
      </trkpt>
      <trkpt lat="46.00718" lon="4.705">
        <ele>210</ele>
        <time>2018-03-24T10:08:21Z</time>
      </trkpt>
      <trkpt lat="46.00724" lon="4.70501">
        <ele>207</ele>
        <time>2018-03-24T10:08:22Z</time>
      </trkpt>
      <trkpt lat="46.00729" lon="4.70502">
        <ele>207</ele>
        <time>2018-03-24T10:08:23Z</time>
      </trkpt>
      <trkpt lat="46.00735" lon="4.70504">
        <ele>207</ele>
        <time>2018-03-24T10:08:24Z</time>
      </trkpt>
      <trkpt lat="46.00741" lon="4.70505">
        <ele>207</ele>
        <time>2018-03-24T10:08:25Z</time>
      </trkpt>
      <trkpt lat="46.00747" lon="4.70502">
        <ele>208</ele>
        <time>2018-03-24T10:08:26Z</time>
      </trkpt>
      <trkpt lat="46.00752" lon="4.70499">
        <ele>208</ele>
        <time>2018-03-24T10:08:27Z</time>
      </trkpt>
      <trkpt lat="46.00757" lon="4.70495">
        <ele>208</ele>
        <time>2018-03-24T10:08:28Z</time>
      </trkpt>
      <trkpt lat="46.00763" lon="4.70491">
        <ele>208</ele>
        <time>2018-03-24T10:08:29Z</time>
      </trkpt>
      <trkpt lat="46.00767" lon="4.70487">
        <ele>208</ele>
        <time>2018-03-24T10:08:30Z</time>
      </trkpt>
      <trkpt lat="46.00772" lon="4.70484">
        <ele>208</ele>
        <time>2018-03-24T10:08:31Z</time>
      </trkpt>
      <trkpt lat="46.00775" lon="4.70483">
        <ele>208</ele>
        <time>2018-03-24T10:08:32Z</time>
      </trkpt>
      <trkpt lat="46.00783" lon="4.70482">
        <ele>208</ele>
        <time>2018-03-24T10:08:34Z</time>
      </trkpt>
      <trkpt lat="46.00787" lon="4.70482">
        <ele>208</ele>
        <time>2018-03-24T10:08:35Z</time>
      </trkpt>
      <trkpt lat="46.00794" lon="4.7048">
        <ele>208</ele>
        <time>2018-03-24T10:08:39Z</time>
      </trkpt>
      <trkpt lat="46.00796" lon="4.7048">
        <ele>208</ele>
        <time>2018-03-24T10:08:40Z</time>
      </trkpt>
      <trkpt lat="46.00805" lon="4.70482">
        <ele>208</ele>
        <time>2018-03-24T10:09:14Z</time>
      </trkpt>
      <trkpt lat="46.00805" lon="4.70482">
        <ele>208</ele>
        <time>2018-03-24T10:09:15Z</time>
      </trkpt>
      <trkpt lat="46.00805" lon="4.70482">
        <ele>208</ele>
        <time>2018-03-24T10:09:17Z</time>
      </trkpt>
      <trkpt lat="46.00805" lon="4.70482">
        <ele>208</ele>
        <time>2018-03-24T10:09:18Z</time>
      </trkpt>
      <trkpt lat="46.00805" lon="4.70482">
        <ele>208</ele>
        <time>2018-03-24T10:09:51Z</time>
      </trkpt>
      <trkpt lat="46.00805" lon="4.70482">
        <ele>208</ele>
        <time>2018-03-24T10:09:52Z</time>
      </trkpt>
      <trkpt lat="46.00802" lon="4.70481">
        <ele>208</ele>
        <time>2018-03-24T10:10:05Z</time>
      </trkpt>
      <trkpt lat="46.00802" lon="4.70481">
        <ele>208</ele>
        <time>2018-03-24T10:10:06Z</time>
      </trkpt>
      <trkpt lat="46.00799" lon="4.7048">
        <ele>208</ele>
        <time>2018-03-24T10:10:28Z</time>
      </trkpt>
      <trkpt lat="46.008" lon="4.7048">
        <ele>208</ele>
        <time>2018-03-24T10:10:29Z</time>
      </trkpt>
      <trkpt lat="46.00801" lon="4.70483">
        <ele>208</ele>
        <time>2018-03-24T10:10:36Z</time>
      </trkpt>
      <trkpt lat="46.00801" lon="4.70483">
        <ele>208</ele>
        <time>2018-03-24T10:10:37Z</time>
      </trkpt>
      <trkpt lat="46.00801" lon="4.70484">
        <ele>208</ele>
        <time>2018-03-24T10:10:38Z</time>
      </trkpt>
      <trkpt lat="46.00798" lon="4.70494">
        <ele>207</ele>
        <time>2018-03-24T10:10:46Z</time>
      </trkpt>
      <trkpt lat="46.00798" lon="4.70498">
        <ele>207</ele>
        <time>2018-03-24T10:10:47Z</time>
      </trkpt>
      <trkpt lat="46.00796" lon="4.7051">
        <ele>204</ele>
        <time>2018-03-24T10:10:51Z</time>
      </trkpt>
      <trkpt lat="46.00796" lon="4.70512">
        <ele>204</ele>
        <time>2018-03-24T10:10:52Z</time>
      </trkpt>
      <trkpt lat="46.00793" lon="4.70521">
        <ele>204</ele>
        <time>2018-03-24T10:11:20Z</time>
      </trkpt>
      <trkpt lat="46.00793" lon="4.70524">
        <ele>204</ele>
        <time>2018-03-24T10:11:21Z</time>
      </trkpt>
      <trkpt lat="46.00796" lon="4.7053">
        <ele>204</ele>
        <time>2018-03-24T10:11:23Z</time>
      </trkpt>
      <trkpt lat="46.00802" lon="4.70536">
        <ele>204</ele>
        <time>2018-03-24T10:11:24Z</time>
      </trkpt>
      <trkpt lat="46.0081" lon="4.70539">
        <ele>203</ele>
        <time>2018-03-24T10:11:26Z</time>
      </trkpt>
      <trkpt lat="46.00815" lon="4.7054">
        <ele>203</ele>
        <time>2018-03-24T10:11:27Z</time>
      </trkpt>
      <trkpt lat="46.0082" lon="4.70543">
        <ele>203</ele>
        <time>2018-03-24T10:11:28Z</time>
      </trkpt>
      <trkpt lat="46.00825" lon="4.70545">
        <ele>203</ele>
        <time>2018-03-24T10:11:29Z</time>
      </trkpt>
      <trkpt lat="46.0083" lon="4.70546">
        <ele>203</ele>
        <time>2018-03-24T10:11:30Z</time>
      </trkpt>
      <trkpt lat="46.00834" lon="4.70549">
        <ele>201</ele>
        <time>2018-03-24T10:11:31Z</time>
      </trkpt>
      <trkpt lat="46.00839" lon="4.70551">
        <ele>201</ele>
        <time>2018-03-24T10:11:32Z</time>
      </trkpt>
      <trkpt lat="46.00844" lon="4.70554">
        <ele>201</ele>
        <time>2018-03-24T10:11:33Z</time>
      </trkpt>
      <trkpt lat="46.0085" lon="4.70557">
        <ele>201</ele>
        <time>2018-03-24T10:11:34Z</time>
      </trkpt>
      <trkpt lat="46.00857" lon="4.7056">
        <ele>201</ele>
        <time>2018-03-24T10:11:35Z</time>
      </trkpt>
      <trkpt lat="46.00863" lon="4.70564">
        <ele>201</ele>
        <time>2018-03-24T10:11:36Z</time>
      </trkpt>
      <trkpt lat="46.00869" lon="4.70568">
        <ele>201</ele>
        <time>2018-03-24T10:11:37Z</time>
      </trkpt>
      <trkpt lat="46.00876" lon="4.70572">
        <ele>200</ele>
        <time>2018-03-24T10:11:38Z</time>
      </trkpt>
      <trkpt lat="46.00884" lon="4.70574">
        <ele>200</ele>
        <time>2018-03-24T10:11:39Z</time>
      </trkpt>
      <trkpt lat="46.00891" lon="4.70577">
        <ele>200</ele>
        <time>2018-03-24T10:11:40Z</time>
      </trkpt>
      <trkpt lat="46.00897" lon="4.7058">
        <ele>200</ele>
        <time>2018-03-24T10:11:41Z</time>
      </trkpt>
      <trkpt lat="46.00904" lon="4.70583">
        <ele>198</ele>
        <time>2018-03-24T10:11:42Z</time>
      </trkpt>
      <trkpt lat="46.00911" lon="4.70587">
        <ele>198</ele>
        <time>2018-03-24T10:11:43Z</time>
      </trkpt>
      <trkpt lat="46.00918" lon="4.7059">
        <ele>198</ele>
        <time>2018-03-24T10:11:44Z</time>
      </trkpt>
      <trkpt lat="46.00925" lon="4.70593">
        <ele>198</ele>
        <time>2018-03-24T10:11:45Z</time>
      </trkpt>
      <trkpt lat="46.00932" lon="4.70596">
        <ele>198</ele>
        <time>2018-03-24T10:11:46Z</time>
      </trkpt>
      <trkpt lat="46.00939" lon="4.70599">
        <ele>198</ele>
        <time>2018-03-24T10:11:47Z</time>
      </trkpt>
      <trkpt lat="46.00946" lon="4.70602">
        <ele>197</ele>
        <time>2018-03-24T10:11:48Z</time>
      </trkpt>
      <trkpt lat="46.00953" lon="4.70604">
        <ele>197</ele>
        <time>2018-03-24T10:11:49Z</time>
      </trkpt>
      <trkpt lat="46.0096" lon="4.70607">
        <ele>197</ele>
        <time>2018-03-24T10:11:50Z</time>
      </trkpt>
      <trkpt lat="46.00967" lon="4.70611">
        <ele>197</ele>
        <time>2018-03-24T10:11:51Z</time>
      </trkpt>
      <trkpt lat="46.00974" lon="4.70614">
        <ele>197</ele>
        <time>2018-03-24T10:11:52Z</time>
      </trkpt>
      <trkpt lat="46.00981" lon="4.70618">
        <ele>197</ele>
        <time>2018-03-24T10:11:53Z</time>
      </trkpt>
      <trkpt lat="46.00988" lon="4.70621">
        <ele>197</ele>
        <time>2018-03-24T10:11:54Z</time>
      </trkpt>
      <trkpt lat="46.00995" lon="4.70624">
        <ele>197</ele>
        <time>2018-03-24T10:11:55Z</time>
      </trkpt>
      <trkpt lat="46.01003" lon="4.70627">
        <ele>196</ele>
        <time>2018-03-24T10:11:56Z</time>
      </trkpt>
      <trkpt lat="46.0101" lon="4.7063">
        <ele>196</ele>
        <time>2018-03-24T10:11:57Z</time>
      </trkpt>
      <trkpt lat="46.01017" lon="4.70633">
        <ele>196</ele>
        <time>2018-03-24T10:11:58Z</time>
      </trkpt>
      <trkpt lat="46.01024" lon="4.70635">
        <ele>196</ele>
        <time>2018-03-24T10:11:59Z</time>
      </trkpt>
      <trkpt lat="46.01032" lon="4.70639">
        <ele>196</ele>
        <time>2018-03-24T10:12:00Z</time>
      </trkpt>
      <trkpt lat="46.01039" lon="4.70642">
        <ele>196</ele>
        <time>2018-03-24T10:12:01Z</time>
      </trkpt>
      <trkpt lat="46.01046" lon="4.70646">
        <ele>195</ele>
        <time>2018-03-24T10:12:02Z</time>
      </trkpt>
      <trkpt lat="46.01053" lon="4.70649">
        <ele>195</ele>
        <time>2018-03-24T10:12:03Z</time>
      </trkpt>
      <trkpt lat="46.01061" lon="4.70652">
        <ele>195</ele>
        <time>2018-03-24T10:12:04Z</time>
      </trkpt>
      <trkpt lat="46.01068" lon="4.70655">
        <ele>195</ele>
        <time>2018-03-24T10:12:05Z</time>
      </trkpt>
      <trkpt lat="46.01076" lon="4.70658">
        <ele>195</ele>
        <time>2018-03-24T10:12:06Z</time>
      </trkpt>
      <trkpt lat="46.01084" lon="4.70661">
        <ele>195</ele>
        <time>2018-03-24T10:12:07Z</time>
      </trkpt>
      <trkpt lat="46.01091" lon="4.70665">
        <ele>195</ele>
        <time>2018-03-24T10:12:08Z</time>
      </trkpt>
      <trkpt lat="46.01099" lon="4.70668">
        <ele>195</ele>
        <time>2018-03-24T10:12:09Z</time>
      </trkpt>
      <trkpt lat="46.01106" lon="4.70672">
        <ele>195</ele>
        <time>2018-03-24T10:12:10Z</time>
      </trkpt>
      <trkpt lat="46.01112" lon="4.70676">
        <ele>195</ele>
        <time>2018-03-24T10:12:11Z</time>
      </trkpt>
      <trkpt lat="46.0112" lon="4.70678">
        <ele>195</ele>
        <time>2018-03-24T10:12:12Z</time>
      </trkpt>
      <trkpt lat="46.01126" lon="4.70681">
        <ele>194</ele>
        <time>2018-03-24T10:12:13Z</time>
      </trkpt>
      <trkpt lat="46.01133" lon="4.70685">
        <ele>194</ele>
        <time>2018-03-24T10:12:14Z</time>
      </trkpt>
      <trkpt lat="46.0114" lon="4.70688">
        <ele>194</ele>
        <time>2018-03-24T10:12:15Z</time>
      </trkpt>
      <trkpt lat="46.01147" lon="4.7069">
        <ele>194</ele>
        <time>2018-03-24T10:12:16Z</time>
      </trkpt>
      <trkpt lat="46.01154" lon="4.70693">
        <ele>194</ele>
        <time>2018-03-24T10:12:17Z</time>
      </trkpt>
      <trkpt lat="46.01161" lon="4.70697">
        <ele>194</ele>
        <time>2018-03-24T10:12:18Z</time>
      </trkpt>
      <trkpt lat="46.01168" lon="4.70699">
        <ele>194</ele>
        <time>2018-03-24T10:12:19Z</time>
      </trkpt>
      <trkpt lat="46.01175" lon="4.70703">
        <ele>194</ele>
        <time>2018-03-24T10:12:20Z</time>
      </trkpt>
      <trkpt lat="46.01182" lon="4.70707">
        <ele>194</ele>
        <time>2018-03-24T10:12:21Z</time>
      </trkpt>
      <trkpt lat="46.01189" lon="4.70711">
        <ele>194</ele>
        <time>2018-03-24T10:12:22Z</time>
      </trkpt>
      <trkpt lat="46.01196" lon="4.70713">
        <ele>194</ele>
        <time>2018-03-24T10:12:23Z</time>
      </trkpt>
      <trkpt lat="46.01203" lon="4.70716">
        <ele>194</ele>
        <time>2018-03-24T10:12:24Z</time>
      </trkpt>
      <trkpt lat="46.01211" lon="4.70719">
        <ele>194</ele>
        <time>2018-03-24T10:12:25Z</time>
      </trkpt>
      <trkpt lat="46.01218" lon="4.70722">
        <ele>194</ele>
        <time>2018-03-24T10:12:26Z</time>
      </trkpt>
      <trkpt lat="46.01225" lon="4.70726">
        <ele>194</ele>
        <time>2018-03-24T10:12:27Z</time>
      </trkpt>
      <trkpt lat="46.01232" lon="4.70728">
        <ele>194</ele>
        <time>2018-03-24T10:12:28Z</time>
      </trkpt>
      <trkpt lat="46.01239" lon="4.70731">
        <ele>193</ele>
        <time>2018-03-24T10:12:29Z</time>
      </trkpt>
      <trkpt lat="46.01247" lon="4.70733">
        <ele>193</ele>
        <time>2018-03-24T10:12:30Z</time>
      </trkpt>
      <trkpt lat="46.01254" lon="4.70735">
        <ele>192</ele>
        <time>2018-03-24T10:12:31Z</time>
      </trkpt>
      <trkpt lat="46.01262" lon="4.70737">
        <ele>192</ele>
        <time>2018-03-24T10:12:32Z</time>
      </trkpt>
      <trkpt lat="46.01269" lon="4.70739">
        <ele>192</ele>
        <time>2018-03-24T10:12:33Z</time>
      </trkpt>
      <trkpt lat="46.01277" lon="4.70741">
        <ele>192</ele>
        <time>2018-03-24T10:12:34Z</time>
      </trkpt>
      <trkpt lat="46.01285" lon="4.70743">
        <ele>191</ele>
        <time>2018-03-24T10:12:35Z</time>
      </trkpt>
      <trkpt lat="46.01293" lon="4.70744">
        <ele>191</ele>
        <time>2018-03-24T10:12:36Z</time>
      </trkpt>
      <trkpt lat="46.013" lon="4.70745">
        <ele>191</ele>
        <time>2018-03-24T10:12:37Z</time>
      </trkpt>
      <trkpt lat="46.01308" lon="4.70746">
        <ele>191</ele>
        <time>2018-03-24T10:12:38Z</time>
      </trkpt>
      <trkpt lat="46.01315" lon="4.70748">
        <ele>190</ele>
        <time>2018-03-24T10:12:39Z</time>
      </trkpt>
      <trkpt lat="46.01322" lon="4.70749">
        <ele>190</ele>
        <time>2018-03-24T10:12:40Z</time>
      </trkpt>
      <trkpt lat="46.0133" lon="4.7075">
        <ele>189</ele>
        <time>2018-03-24T10:12:41Z</time>
      </trkpt>
      <trkpt lat="46.01338" lon="4.70751">
        <ele>189</ele>
        <time>2018-03-24T10:12:42Z</time>
      </trkpt>
      <trkpt lat="46.01346" lon="4.70751">
        <ele>189</ele>
        <time>2018-03-24T10:12:43Z</time>
      </trkpt>
      <trkpt lat="46.01353" lon="4.70752">
        <ele>189</ele>
        <time>2018-03-24T10:12:44Z</time>
      </trkpt>
      <trkpt lat="46.0136" lon="4.70752">
        <ele>189</ele>
        <time>2018-03-24T10:12:45Z</time>
      </trkpt>
      <trkpt lat="46.01367" lon="4.70753">
        <ele>189</ele>
        <time>2018-03-24T10:12:46Z</time>
      </trkpt>
      <trkpt lat="46.01374" lon="4.70751">
        <ele>189</ele>
        <time>2018-03-24T10:12:47Z</time>
      </trkpt>
      <trkpt lat="46.01381" lon="4.70751">
        <ele>189</ele>
        <time>2018-03-24T10:12:48Z</time>
      </trkpt>
      <trkpt lat="46.01387" lon="4.70749">
        <ele>189</ele>
        <time>2018-03-24T10:12:49Z</time>
      </trkpt>
      <trkpt lat="46.01394" lon="4.70748">
        <ele>189</ele>
        <time>2018-03-24T10:12:50Z</time>
      </trkpt>
      <trkpt lat="46.01402" lon="4.70748">
        <ele>189</ele>
        <time>2018-03-24T10:12:51Z</time>
      </trkpt>
      <trkpt lat="46.01409" lon="4.70747">
        <ele>189</ele>
        <time>2018-03-24T10:12:52Z</time>
      </trkpt>
      <trkpt lat="46.01416" lon="4.70747">
        <ele>189</ele>
        <time>2018-03-24T10:12:53Z</time>
      </trkpt>
      <trkpt lat="46.01423" lon="4.70746">
        <ele>189</ele>
        <time>2018-03-24T10:12:54Z</time>
      </trkpt>
      <trkpt lat="46.0143" lon="4.70746">
        <ele>189</ele>
        <time>2018-03-24T10:12:55Z</time>
      </trkpt>
      <trkpt lat="46.01438" lon="4.70745">
        <ele>189</ele>
        <time>2018-03-24T10:12:56Z</time>
      </trkpt>
      <trkpt lat="46.01445" lon="4.70744">
        <ele>189</ele>
        <time>2018-03-24T10:12:57Z</time>
      </trkpt>
      <trkpt lat="46.01452" lon="4.70742">
        <ele>189</ele>
        <time>2018-03-24T10:12:58Z</time>
      </trkpt>
      <trkpt lat="46.01459" lon="4.70741">
        <ele>190</ele>
        <time>2018-03-24T10:12:59Z</time>
      </trkpt>
      <trkpt lat="46.01467" lon="4.70741">
        <ele>190</ele>
        <time>2018-03-24T10:13:00Z</time>
      </trkpt>
      <trkpt lat="46.01475" lon="4.7074">
        <ele>190</ele>
        <time>2018-03-24T10:13:01Z</time>
      </trkpt>
      <trkpt lat="46.01482" lon="4.70738">
        <ele>190</ele>
        <time>2018-03-24T10:13:02Z</time>
      </trkpt>
      <trkpt lat="46.0149" lon="4.70736">
        <ele>190</ele>
        <time>2018-03-24T10:13:03Z</time>
      </trkpt>
      <trkpt lat="46.01498" lon="4.70735">
        <ele>190</ele>
        <time>2018-03-24T10:13:04Z</time>
      </trkpt>
      <trkpt lat="46.01505" lon="4.70734">
        <ele>190</ele>
        <time>2018-03-24T10:13:05Z</time>
      </trkpt>
      <trkpt lat="46.01512" lon="4.70734">
        <ele>190</ele>
        <time>2018-03-24T10:13:06Z</time>
      </trkpt>
      <trkpt lat="46.0152" lon="4.70733">
        <ele>190</ele>
        <time>2018-03-24T10:13:07Z</time>
      </trkpt>
      <trkpt lat="46.01527" lon="4.70732">
        <ele>190</ele>
        <time>2018-03-24T10:13:08Z</time>
      </trkpt>
      <trkpt lat="46.01534" lon="4.70731">
        <ele>190</ele>
        <time>2018-03-24T10:13:09Z</time>
      </trkpt>
      <trkpt lat="46.01542" lon="4.70731">
        <ele>190</ele>
        <time>2018-03-24T10:13:10Z</time>
      </trkpt>
      <trkpt lat="46.01549" lon="4.7073">
        <ele>190</ele>
        <time>2018-03-24T10:13:11Z</time>
      </trkpt>
      <trkpt lat="46.01556" lon="4.7073">
        <ele>190</ele>
        <time>2018-03-24T10:13:12Z</time>
      </trkpt>
      <trkpt lat="46.01564" lon="4.7073">
        <ele>190</ele>
        <time>2018-03-24T10:13:13Z</time>
      </trkpt>
      <trkpt lat="46.01571" lon="4.70729">
        <ele>190</ele>
        <time>2018-03-24T10:13:14Z</time>
      </trkpt>
      <trkpt lat="46.01579" lon="4.70728">
        <ele>190</ele>
        <time>2018-03-24T10:13:15Z</time>
      </trkpt>
      <trkpt lat="46.01586" lon="4.70727">
        <ele>190</ele>
        <time>2018-03-24T10:13:16Z</time>
      </trkpt>
      <trkpt lat="46.01594" lon="4.70726">
        <ele>190</ele>
        <time>2018-03-24T10:13:17Z</time>
      </trkpt>
      <trkpt lat="46.01601" lon="4.70725">
        <ele>190</ele>
        <time>2018-03-24T10:13:18Z</time>
      </trkpt>
      <trkpt lat="46.01608" lon="4.70725">
        <ele>190</ele>
        <time>2018-03-24T10:13:19Z</time>
      </trkpt>
      <trkpt lat="46.01616" lon="4.70724">
        <ele>190</ele>
        <time>2018-03-24T10:13:20Z</time>
      </trkpt>
      <trkpt lat="46.01623" lon="4.70723">
        <ele>190</ele>
        <time>2018-03-24T10:13:21Z</time>
      </trkpt>
      <trkpt lat="46.0163" lon="4.70722">
        <ele>190</ele>
        <time>2018-03-24T10:13:22Z</time>
      </trkpt>
      <trkpt lat="46.01638" lon="4.70722">
        <ele>190</ele>
        <time>2018-03-24T10:13:23Z</time>
      </trkpt>
      <trkpt lat="46.01645" lon="4.70722">
        <ele>190</ele>
        <time>2018-03-24T10:13:24Z</time>
      </trkpt>
      <trkpt lat="46.01652" lon="4.70721">
        <ele>190</ele>
        <time>2018-03-24T10:13:25Z</time>
      </trkpt>
      <trkpt lat="46.0166" lon="4.7072">
        <ele>190</ele>
        <time>2018-03-24T10:13:26Z</time>
      </trkpt>
      <trkpt lat="46.01667" lon="4.70718">
        <ele>189</ele>
        <time>2018-03-24T10:13:27Z</time>
      </trkpt>
      <trkpt lat="46.01674" lon="4.70718">
        <ele>189</ele>
        <time>2018-03-24T10:13:28Z</time>
      </trkpt>
      <trkpt lat="46.01682" lon="4.70717">
        <ele>189</ele>
        <time>2018-03-24T10:13:29Z</time>
      </trkpt>
      <trkpt lat="46.01689" lon="4.70717">
        <ele>189</ele>
        <time>2018-03-24T10:13:30Z</time>
      </trkpt>
      <trkpt lat="46.01697" lon="4.70715">
        <ele>189</ele>
        <time>2018-03-24T10:13:31Z</time>
      </trkpt>
      <trkpt lat="46.01704" lon="4.70714">
        <ele>189</ele>
        <time>2018-03-24T10:13:32Z</time>
      </trkpt>
      <trkpt lat="46.01711" lon="4.70712">
        <ele>188</ele>
        <time>2018-03-24T10:13:33Z</time>
      </trkpt>
      <trkpt lat="46.01717" lon="4.70711">
        <ele>188</ele>
        <time>2018-03-24T10:13:34Z</time>
      </trkpt>
      <trkpt lat="46.01725" lon="4.70709">
        <ele>188</ele>
        <time>2018-03-24T10:13:35Z</time>
      </trkpt>
      <trkpt lat="46.01735" lon="4.70709">
        <ele>188</ele>
        <time>2018-03-24T10:13:36Z</time>
      </trkpt>
      <trkpt lat="46.01743" lon="4.70708">
        <ele>188</ele>
        <time>2018-03-24T10:13:37Z</time>
      </trkpt>
      <trkpt lat="46.0175" lon="4.70707">
        <ele>187</ele>
        <time>2018-03-24T10:13:38Z</time>
      </trkpt>
      <trkpt lat="46.01758" lon="4.70706">
        <ele>187</ele>
        <time>2018-03-24T10:13:39Z</time>
      </trkpt>
      <trkpt lat="46.01766" lon="4.70705">
        <ele>187</ele>
        <time>2018-03-24T10:13:40Z</time>
      </trkpt>
      <trkpt lat="46.01773" lon="4.70705">
        <ele>187</ele>
        <time>2018-03-24T10:13:41Z</time>
      </trkpt>
      <trkpt lat="46.01782" lon="4.70705">
        <ele>187</ele>
        <time>2018-03-24T10:13:42Z</time>
      </trkpt>
      <trkpt lat="46.0179" lon="4.70704">
        <ele>187</ele>
        <time>2018-03-24T10:13:43Z</time>
      </trkpt>
      <trkpt lat="46.01798" lon="4.70704">
        <ele>187</ele>
        <time>2018-03-24T10:13:44Z</time>
      </trkpt>
      <trkpt lat="46.01805" lon="4.70704">
        <ele>187</ele>
        <time>2018-03-24T10:13:45Z</time>
      </trkpt>
      <trkpt lat="46.01812" lon="4.70703">
        <ele>187</ele>
        <time>2018-03-24T10:13:46Z</time>
      </trkpt>
      <trkpt lat="46.0182" lon="4.70703">
        <ele>187</ele>
        <time>2018-03-24T10:13:47Z</time>
      </trkpt>
      <trkpt lat="46.01828" lon="4.70702">
        <ele>187</ele>
        <time>2018-03-24T10:13:48Z</time>
      </trkpt>
      <trkpt lat="46.01836" lon="4.70701">
        <ele>185</ele>
        <time>2018-03-24T10:13:49Z</time>
      </trkpt>
      <trkpt lat="46.01843" lon="4.707">
        <ele>185</ele>
        <time>2018-03-24T10:13:50Z</time>
      </trkpt>
      <trkpt lat="46.01851" lon="4.70699">
        <ele>185</ele>
        <time>2018-03-24T10:13:51Z</time>
      </trkpt>
      <trkpt lat="46.0186" lon="4.70697">
        <ele>185</ele>
        <time>2018-03-24T10:13:52Z</time>
      </trkpt>
      <trkpt lat="46.01869" lon="4.70696">
        <ele>185</ele>
        <time>2018-03-24T10:13:53Z</time>
      </trkpt>
      <trkpt lat="46.01877" lon="4.70696">
        <ele>185</ele>
        <time>2018-03-24T10:13:54Z</time>
      </trkpt>
      <trkpt lat="46.01885" lon="4.70696">
        <ele>184</ele>
        <time>2018-03-24T10:13:55Z</time>
      </trkpt>
      <trkpt lat="46.01894" lon="4.70696">
        <ele>184</ele>
        <time>2018-03-24T10:13:56Z</time>
      </trkpt>
      <trkpt lat="46.01901" lon="4.70697">
        <ele>184</ele>
        <time>2018-03-24T10:13:57Z</time>
      </trkpt>
      <trkpt lat="46.0191" lon="4.70697">
        <ele>184</ele>
        <time>2018-03-24T10:13:58Z</time>
      </trkpt>
      <trkpt lat="46.01918" lon="4.70698">
        <ele>182</ele>
        <time>2018-03-24T10:13:59Z</time>
      </trkpt>
      <trkpt lat="46.01925" lon="4.707">
        <ele>182</ele>
        <time>2018-03-24T10:14:00Z</time>
      </trkpt>
      <trkpt lat="46.01933" lon="4.70701">
        <ele>182</ele>
        <time>2018-03-24T10:14:01Z</time>
      </trkpt>
      <trkpt lat="46.01941" lon="4.70702">
        <ele>182</ele>
        <time>2018-03-24T10:14:02Z</time>
      </trkpt>
      <trkpt lat="46.01948" lon="4.70705">
        <ele>181</ele>
        <time>2018-03-24T10:14:03Z</time>
      </trkpt>
      <trkpt lat="46.01956" lon="4.70706">
        <ele>181</ele>
        <time>2018-03-24T10:14:04Z</time>
      </trkpt>
      <trkpt lat="46.01964" lon="4.70707">
        <ele>181</ele>
        <time>2018-03-24T10:14:05Z</time>
      </trkpt>
      <trkpt lat="46.01971" lon="4.70709">
        <ele>181</ele>
        <time>2018-03-24T10:14:06Z</time>
      </trkpt>
      <trkpt lat="46.01979" lon="4.7071">
        <ele>181</ele>
        <time>2018-03-24T10:14:07Z</time>
      </trkpt>
      <trkpt lat="46.01986" lon="4.70712">
        <ele>181</ele>
        <time>2018-03-24T10:14:08Z</time>
      </trkpt>
      <trkpt lat="46.01993" lon="4.70713">
        <ele>181</ele>
        <time>2018-03-24T10:14:09Z</time>
      </trkpt>
      <trkpt lat="46.02" lon="4.70715">
        <ele>181</ele>
        <time>2018-03-24T10:14:10Z</time>
      </trkpt>
      <trkpt lat="46.02008" lon="4.70717">
        <ele>179</ele>
        <time>2018-03-24T10:14:11Z</time>
      </trkpt>
      <trkpt lat="46.02016" lon="4.70718">
        <ele>179</ele>
        <time>2018-03-24T10:14:12Z</time>
      </trkpt>
      <trkpt lat="46.02024" lon="4.7072">
        <ele>179</ele>
        <time>2018-03-24T10:14:13Z</time>
      </trkpt>
      <trkpt lat="46.02032" lon="4.70721">
        <ele>179</ele>
        <time>2018-03-24T10:14:14Z</time>
      </trkpt>
      <trkpt lat="46.0204" lon="4.70723">
        <ele>179</ele>
        <time>2018-03-24T10:14:15Z</time>
      </trkpt>
      <trkpt lat="46.02048" lon="4.70724">
        <ele>179</ele>
        <time>2018-03-24T10:14:16Z</time>
      </trkpt>
      <trkpt lat="46.02055" lon="4.70725">
        <ele>179</ele>
        <time>2018-03-24T10:14:17Z</time>
      </trkpt>
      <trkpt lat="46.02063" lon="4.70726">
        <ele>179</ele>
        <time>2018-03-24T10:14:18Z</time>
      </trkpt>
      <trkpt lat="46.0207" lon="4.70728">
        <ele>178</ele>
        <time>2018-03-24T10:14:19Z</time>
      </trkpt>
      <trkpt lat="46.02077" lon="4.70729">
        <ele>178</ele>
        <time>2018-03-24T10:14:20Z</time>
      </trkpt>
      <trkpt lat="46.02085" lon="4.70729">
        <ele>178</ele>
        <time>2018-03-24T10:14:21Z</time>
      </trkpt>
      <trkpt lat="46.02092" lon="4.70731">
        <ele>178</ele>
        <time>2018-03-24T10:14:22Z</time>
      </trkpt>
      <trkpt lat="46.02099" lon="4.70731">
        <ele>178</ele>
        <time>2018-03-24T10:14:23Z</time>
      </trkpt>
      <trkpt lat="46.02106" lon="4.70733">
        <ele>178</ele>
        <time>2018-03-24T10:14:24Z</time>
      </trkpt>
      <trkpt lat="46.02114" lon="4.70734">
        <ele>179</ele>
        <time>2018-03-24T10:14:25Z</time>
      </trkpt>
      <trkpt lat="46.02121" lon="4.70735">
        <ele>179</ele>
        <time>2018-03-24T10:14:26Z</time>
      </trkpt>
      <trkpt lat="46.02129" lon="4.70737">
        <ele>179</ele>
        <time>2018-03-24T10:14:27Z</time>
      </trkpt>
      <trkpt lat="46.02136" lon="4.70738">
        <ele>179</ele>
        <time>2018-03-24T10:14:28Z</time>
      </trkpt>
      <trkpt lat="46.02144" lon="4.7074">
        <ele>179</ele>
        <time>2018-03-24T10:14:29Z</time>
      </trkpt>
      <trkpt lat="46.0215" lon="4.70739">
        <ele>179</ele>
        <time>2018-03-24T10:14:30Z</time>
      </trkpt>
      <trkpt lat="46.02158" lon="4.7074">
        <ele>179</ele>
        <time>2018-03-24T10:14:31Z</time>
      </trkpt>
      <trkpt lat="46.02165" lon="4.70742">
        <ele>179</ele>
        <time>2018-03-24T10:14:32Z</time>
      </trkpt>
      <trkpt lat="46.02173" lon="4.70743">
        <ele>179</ele>
        <time>2018-03-24T10:14:33Z</time>
      </trkpt>
      <trkpt lat="46.0218" lon="4.70744">
        <ele>180</ele>
        <time>2018-03-24T10:14:34Z</time>
      </trkpt>
      <trkpt lat="46.02188" lon="4.70745">
        <ele>180</ele>
        <time>2018-03-24T10:14:35Z</time>
      </trkpt>
      <trkpt lat="46.02196" lon="4.70746">
        <ele>180</ele>
        <time>2018-03-24T10:14:36Z</time>
      </trkpt>
      <trkpt lat="46.02203" lon="4.70748">
        <ele>180</ele>
        <time>2018-03-24T10:14:37Z</time>
      </trkpt>
      <trkpt lat="46.02211" lon="4.70749">
        <ele>180</ele>
        <time>2018-03-24T10:14:38Z</time>
      </trkpt>
      <trkpt lat="46.02218" lon="4.70751">
        <ele>180</ele>
        <time>2018-03-24T10:14:39Z</time>
      </trkpt>
      <trkpt lat="46.02225" lon="4.70752">
        <ele>180</ele>
        <time>2018-03-24T10:14:40Z</time>
      </trkpt>
      <trkpt lat="46.02232" lon="4.70754">
        <ele>180</ele>
        <time>2018-03-24T10:14:41Z</time>
      </trkpt>
      <trkpt lat="46.02239" lon="4.70755">
        <ele>180</ele>
        <time>2018-03-24T10:14:42Z</time>
      </trkpt>
      <trkpt lat="46.02245" lon="4.70756">
        <ele>181</ele>
        <time>2018-03-24T10:14:43Z</time>
      </trkpt>
      <trkpt lat="46.02251" lon="4.70758">
        <ele>181</ele>
        <time>2018-03-24T10:14:44Z</time>
      </trkpt>
      <trkpt lat="46.02257" lon="4.7076">
        <ele>181</ele>
        <time>2018-03-24T10:14:45Z</time>
      </trkpt>
      <trkpt lat="46.02264" lon="4.70761">
        <ele>181</ele>
        <time>2018-03-24T10:14:46Z</time>
      </trkpt>
      <trkpt lat="46.0227" lon="4.70762">
        <ele>181</ele>
        <time>2018-03-24T10:14:47Z</time>
      </trkpt>
      <trkpt lat="46.02276" lon="4.70763">
        <ele>181</ele>
        <time>2018-03-24T10:14:48Z</time>
      </trkpt>
      <trkpt lat="46.02282" lon="4.70764">
        <ele>181</ele>
        <time>2018-03-24T10:14:49Z</time>
      </trkpt>
      <trkpt lat="46.02288" lon="4.70765">
        <ele>181</ele>
        <time>2018-03-24T10:14:50Z</time>
      </trkpt>
      <trkpt lat="46.02294" lon="4.70766">
        <ele>180</ele>
        <time>2018-03-24T10:14:51Z</time>
      </trkpt>
      <trkpt lat="46.02299" lon="4.70767">
        <ele>180</ele>
        <time>2018-03-24T10:14:52Z</time>
      </trkpt>
      <trkpt lat="46.02305" lon="4.70768">
        <ele>180</ele>
        <time>2018-03-24T10:14:53Z</time>
      </trkpt>
      <trkpt lat="46.0231" lon="4.70769">
        <ele>180</ele>
        <time>2018-03-24T10:14:54Z</time>
      </trkpt>
      <trkpt lat="46.02315" lon="4.7077">
        <ele>180</ele>
        <time>2018-03-24T10:14:55Z</time>
      </trkpt>
      <trkpt lat="46.02319" lon="4.7077">
        <ele>180</ele>
        <time>2018-03-24T10:14:56Z</time>
      </trkpt>
      <trkpt lat="46.02324" lon="4.70772">
        <ele>180</ele>
        <time>2018-03-24T10:14:57Z</time>
      </trkpt>
      <trkpt lat="46.02329" lon="4.70772">
        <ele>180</ele>
        <time>2018-03-24T10:14:58Z</time>
      </trkpt>
      <trkpt lat="46.02338" lon="4.70774">
        <ele>182</ele>
        <time>2018-03-24T10:15:00Z</time>
      </trkpt>
      <trkpt lat="46.02342" lon="4.70776">
        <ele>182</ele>
        <time>2018-03-24T10:15:01Z</time>
      </trkpt>
      <trkpt lat="46.02347" lon="4.70776">
        <ele>183</ele>
        <time>2018-03-24T10:15:02Z</time>
      </trkpt>
      <trkpt lat="46.02351" lon="4.70777">
        <ele>183</ele>
        <time>2018-03-24T10:15:03Z</time>
      </trkpt>
      <trkpt lat="46.02356" lon="4.70778">
        <ele>183</ele>
        <time>2018-03-24T10:15:04Z</time>
      </trkpt>
      <trkpt lat="46.0236" lon="4.70778">
        <ele>183</ele>
        <time>2018-03-24T10:15:05Z</time>
      </trkpt>
      <trkpt lat="46.02365" lon="4.70778">
        <ele>183</ele>
        <time>2018-03-24T10:15:06Z</time>
      </trkpt>
      <trkpt lat="46.0237" lon="4.70779">
        <ele>184</ele>
        <time>2018-03-24T10:15:07Z</time>
      </trkpt>
      <trkpt lat="46.02379" lon="4.70779">
        <ele>184</ele>
        <time>2018-03-24T10:15:09Z</time>
      </trkpt>
      <trkpt lat="46.02382" lon="4.7078">
        <ele>184</ele>
        <time>2018-03-24T10:15:10Z</time>
      </trkpt>
      <trkpt lat="46.0239" lon="4.70782">
        <ele>184</ele>
        <time>2018-03-24T10:15:12Z</time>
      </trkpt>
      <trkpt lat="46.02394" lon="4.70782">
        <ele>185</ele>
        <time>2018-03-24T10:15:13Z</time>
      </trkpt>
      <trkpt lat="46.024" lon="4.70783">
        <ele>185</ele>
        <time>2018-03-24T10:15:15Z</time>
      </trkpt>
      <trkpt lat="46.02406" lon="4.70782">
        <ele>185</ele>
        <time>2018-03-24T10:15:16Z</time>
      </trkpt>
      <trkpt lat="46.02414" lon="4.7078">
        <ele>185</ele>
        <time>2018-03-24T10:15:18Z</time>
      </trkpt>
      <trkpt lat="46.02418" lon="4.70779">
        <ele>189</ele>
        <time>2018-03-24T10:15:19Z</time>
      </trkpt>
      <trkpt lat="46.02425" lon="4.70778">
        <ele>189</ele>
        <time>2018-03-24T10:15:21Z</time>
      </trkpt>
      <trkpt lat="46.02428" lon="4.70777">
        <ele>189</ele>
        <time>2018-03-24T10:15:22Z</time>
      </trkpt>
      <trkpt lat="46.02434" lon="4.70774">
        <ele>189</ele>
        <time>2018-03-24T10:15:25Z</time>
      </trkpt>
      <trkpt lat="46.0244" lon="4.70769">
        <ele>189</ele>
        <time>2018-03-24T10:15:26Z</time>
      </trkpt>
      <trkpt lat="46.02443" lon="4.70759">
        <ele>190</ele>
        <time>2018-03-24T10:15:28Z</time>
      </trkpt>
      <trkpt lat="46.02445" lon="4.70753">
        <ele>190</ele>
        <time>2018-03-24T10:15:29Z</time>
      </trkpt>
      <trkpt lat="46.0245" lon="4.70743">
        <ele>190</ele>
        <time>2018-03-24T10:15:31Z</time>
      </trkpt>
      <trkpt lat="46.02452" lon="4.70738">
        <ele>190</ele>
        <time>2018-03-24T10:15:32Z</time>
      </trkpt>
      <trkpt lat="46.02456" lon="4.70726">
        <ele>190</ele>
        <time>2018-03-24T10:15:34Z</time>
      </trkpt>
      <trkpt lat="46.02457" lon="4.7072">
        <ele>190</ele>
        <time>2018-03-24T10:15:35Z</time>
      </trkpt>
      <trkpt lat="46.02459" lon="4.70707">
        <ele>190</ele>
        <time>2018-03-24T10:15:37Z</time>
      </trkpt>
      <trkpt lat="46.0246" lon="4.707">
        <ele>190</ele>
        <time>2018-03-24T10:15:38Z</time>
      </trkpt>
      <trkpt lat="46.02463" lon="4.70688">
        <ele>190</ele>
        <time>2018-03-24T10:15:40Z</time>
      </trkpt>
      <trkpt lat="46.02465" lon="4.70682">
        <ele>190</ele>
        <time>2018-03-24T10:15:41Z</time>
      </trkpt>
      <trkpt lat="46.02467" lon="4.70675">
        <ele>190</ele>
        <time>2018-03-24T10:15:42Z</time>
      </trkpt>
      <trkpt lat="46.02468" lon="4.70668">
        <ele>190</ele>
        <time>2018-03-24T10:15:43Z</time>
      </trkpt>
      <trkpt lat="46.02469" lon="4.7066">
        <ele>189</ele>
        <time>2018-03-24T10:15:44Z</time>
      </trkpt>
      <trkpt lat="46.02468" lon="4.70654">
        <ele>189</ele>
        <time>2018-03-24T10:15:45Z</time>
      </trkpt>
      <trkpt lat="46.02468" lon="4.70647">
        <ele>188</ele>
        <time>2018-03-24T10:15:46Z</time>
      </trkpt>
      <trkpt lat="46.02469" lon="4.7064">
        <ele>188</ele>
        <time>2018-03-24T10:15:47Z</time>
      </trkpt>
      <trkpt lat="46.02471" lon="4.70631">
        <ele>188</ele>
        <time>2018-03-24T10:15:48Z</time>
      </trkpt>
      <trkpt lat="46.02473" lon="4.70625">
        <ele>188</ele>
        <time>2018-03-24T10:15:49Z</time>
      </trkpt>
      <trkpt lat="46.02477" lon="4.7062">
        <ele>188</ele>
        <time>2018-03-24T10:15:50Z</time>
      </trkpt>
      <trkpt lat="46.02483" lon="4.70616">
        <ele>188</ele>
        <time>2018-03-24T10:15:51Z</time>
      </trkpt>
      <trkpt lat="46.02487" lon="4.70613">
        <ele>188</ele>
        <time>2018-03-24T10:15:52Z</time>
      </trkpt>
      <trkpt lat="46.02493" lon="4.70614">
        <ele>188</ele>
        <time>2018-03-24T10:15:53Z</time>
      </trkpt>
      <trkpt lat="46.02499" lon="4.70615">
        <ele>188</ele>
        <time>2018-03-24T10:15:54Z</time>
      </trkpt>
      <trkpt lat="46.02503" lon="4.70617">
        <ele>189</ele>
        <time>2018-03-24T10:15:55Z</time>
      </trkpt>
      <trkpt lat="46.02508" lon="4.70619">
        <ele>189</ele>
        <time>2018-03-24T10:15:56Z</time>
      </trkpt>
      <trkpt lat="46.02513" lon="4.70621">
        <ele>189</ele>
        <time>2018-03-24T10:15:57Z</time>
      </trkpt>
      <trkpt lat="46.02517" lon="4.70625">
        <ele>189</ele>
        <time>2018-03-24T10:15:58Z</time>
      </trkpt>
      <trkpt lat="46.02522" lon="4.70628">
        <ele>189</ele>
        <time>2018-03-24T10:15:59Z</time>
      </trkpt>
      <trkpt lat="46.02527" lon="4.70629">
        <ele>189</ele>
        <time>2018-03-24T10:16:00Z</time>
      </trkpt>
      <trkpt lat="46.02532" lon="4.70631">
        <ele>189</ele>
        <time>2018-03-24T10:16:01Z</time>
      </trkpt>
      <trkpt lat="46.02536" lon="4.70633">
        <ele>189</ele>
        <time>2018-03-24T10:16:02Z</time>
      </trkpt>
      <trkpt lat="46.02541" lon="4.70635">
        <ele>189</ele>
        <time>2018-03-24T10:16:03Z</time>
      </trkpt>
      <trkpt lat="46.0255" lon="4.70637">
        <ele>189</ele>
        <time>2018-03-24T10:16:05Z</time>
      </trkpt>
      <trkpt lat="46.02554" lon="4.70638">
        <ele>189</ele>
        <time>2018-03-24T10:16:06Z</time>
      </trkpt>
      <trkpt lat="46.02559" lon="4.7064">
        <ele>189</ele>
        <time>2018-03-24T10:16:07Z</time>
      </trkpt>
      <trkpt lat="46.02564" lon="4.70642">
        <ele>189</ele>
        <time>2018-03-24T10:16:08Z</time>
      </trkpt>
      <trkpt lat="46.02572" lon="4.70646">
        <ele>190</ele>
        <time>2018-03-24T10:16:10Z</time>
      </trkpt>
      <trkpt lat="46.02577" lon="4.70647">
        <ele>190</ele>
        <time>2018-03-24T10:16:11Z</time>
      </trkpt>
      <trkpt lat="46.02582" lon="4.70647">
        <ele>190</ele>
        <time>2018-03-24T10:16:12Z</time>
      </trkpt>
      <trkpt lat="46.02588" lon="4.70647">
        <ele>190</ele>
        <time>2018-03-24T10:16:13Z</time>
      </trkpt>
      <trkpt lat="46.02592" lon="4.70648">
        <ele>190</ele>
        <time>2018-03-24T10:16:14Z</time>
      </trkpt>
      <trkpt lat="46.02597" lon="4.70648">
        <ele>190</ele>
        <time>2018-03-24T10:16:15Z</time>
      </trkpt>
      <trkpt lat="46.02602" lon="4.70649">
        <ele>190</ele>
        <time>2018-03-24T10:16:16Z</time>
      </trkpt>
      <trkpt lat="46.02607" lon="4.70649">
        <ele>190</ele>
        <time>2018-03-24T10:16:17Z</time>
      </trkpt>
      <trkpt lat="46.02611" lon="4.70652">
        <ele>190</ele>
        <time>2018-03-24T10:16:18Z</time>
      </trkpt>
      <trkpt lat="46.02616" lon="4.70654">
        <ele>190</ele>
        <time>2018-03-24T10:16:19Z</time>
      </trkpt>
      <trkpt lat="46.02621" lon="4.70654">
        <ele>190</ele>
        <time>2018-03-24T10:16:20Z</time>
      </trkpt>
      <trkpt lat="46.02626" lon="4.70656">
        <ele>190</ele>
        <time>2018-03-24T10:16:21Z</time>
      </trkpt>
      <trkpt lat="46.02632" lon="4.70656">
        <ele>190</ele>
        <time>2018-03-24T10:16:22Z</time>
      </trkpt>
      <trkpt lat="46.02637" lon="4.70657">
        <ele>190</ele>
        <time>2018-03-24T10:16:23Z</time>
      </trkpt>
      <trkpt lat="46.02642" lon="4.70657">
        <ele>190</ele>
        <time>2018-03-24T10:16:24Z</time>
      </trkpt>
      <trkpt lat="46.02648" lon="4.70658">
        <ele>190</ele>
        <time>2018-03-24T10:16:25Z</time>
      </trkpt>
      <trkpt lat="46.02654" lon="4.70658">
        <ele>190</ele>
        <time>2018-03-24T10:16:26Z</time>
      </trkpt>
      <trkpt lat="46.02659" lon="4.70657">
        <ele>190</ele>
        <time>2018-03-24T10:16:27Z</time>
      </trkpt>
      <trkpt lat="46.02664" lon="4.70658">
        <ele>190</ele>
        <time>2018-03-24T10:16:28Z</time>
      </trkpt>
      <trkpt lat="46.0267" lon="4.70659">
        <ele>190</ele>
        <time>2018-03-24T10:16:29Z</time>
      </trkpt>
      <trkpt lat="46.02675" lon="4.70659">
        <ele>190</ele>
        <time>2018-03-24T10:16:30Z</time>
      </trkpt>
      <trkpt lat="46.02681" lon="4.70657">
        <ele>190</ele>
        <time>2018-03-24T10:16:31Z</time>
      </trkpt>
      <trkpt lat="46.02687" lon="4.70657">
        <ele>190</ele>
        <time>2018-03-24T10:16:32Z</time>
      </trkpt>
      <trkpt lat="46.02692" lon="4.70659">
        <ele>189</ele>
        <time>2018-03-24T10:16:33Z</time>
      </trkpt>
      <trkpt lat="46.02698" lon="4.70659">
        <ele>189</ele>
        <time>2018-03-24T10:16:34Z</time>
      </trkpt>
      <trkpt lat="46.02704" lon="4.70659">
        <ele>189</ele>
        <time>2018-03-24T10:16:35Z</time>
      </trkpt>
      <trkpt lat="46.02709" lon="4.70661">
        <ele>189</ele>
        <time>2018-03-24T10:16:36Z</time>
      </trkpt>
      <trkpt lat="46.02714" lon="4.70661">
        <ele>189</ele>
        <time>2018-03-24T10:16:37Z</time>
      </trkpt>
      <trkpt lat="46.02719" lon="4.70662">
        <ele>189</ele>
        <time>2018-03-24T10:16:38Z</time>
      </trkpt>
      <trkpt lat="46.02724" lon="4.70664">
        <ele>189</ele>
        <time>2018-03-24T10:16:39Z</time>
      </trkpt>
      <trkpt lat="46.02729" lon="4.70666">
        <ele>189</ele>
        <time>2018-03-24T10:16:40Z</time>
      </trkpt>
      <trkpt lat="46.02733" lon="4.70667">
        <ele>189</ele>
        <time>2018-03-24T10:16:41Z</time>
      </trkpt>
      <trkpt lat="46.02738" lon="4.70668">
        <ele>189</ele>
        <time>2018-03-24T10:16:42Z</time>
      </trkpt>
      <trkpt lat="46.02743" lon="4.70668">
        <ele>189</ele>
        <time>2018-03-24T10:16:43Z</time>
      </trkpt>
      <trkpt lat="46.02748" lon="4.70669">
        <ele>189</ele>
        <time>2018-03-24T10:16:44Z</time>
      </trkpt>
      <trkpt lat="46.02753" lon="4.7067">
        <ele>189</ele>
        <time>2018-03-24T10:16:45Z</time>
      </trkpt>
      <trkpt lat="46.02758" lon="4.7067">
        <ele>189</ele>
        <time>2018-03-24T10:16:46Z</time>
      </trkpt>
      <trkpt lat="46.02763" lon="4.70671">
        <ele>189</ele>
        <time>2018-03-24T10:16:47Z</time>
      </trkpt>
      <trkpt lat="46.02768" lon="4.70672">
        <ele>189</ele>
        <time>2018-03-24T10:16:48Z</time>
      </trkpt>
      <trkpt lat="46.02773" lon="4.70673">
        <ele>189</ele>
        <time>2018-03-24T10:16:49Z</time>
      </trkpt>
      <trkpt lat="46.02778" lon="4.70674">
        <ele>189</ele>
        <time>2018-03-24T10:16:50Z</time>
      </trkpt>
      <trkpt lat="46.02783" lon="4.70675">
        <ele>189</ele>
        <time>2018-03-24T10:16:51Z</time>
      </trkpt>
      <trkpt lat="46.02789" lon="4.70675">
        <ele>189</ele>
        <time>2018-03-24T10:16:52Z</time>
      </trkpt>
      <trkpt lat="46.02794" lon="4.70676">
        <ele>189</ele>
        <time>2018-03-24T10:16:53Z</time>
      </trkpt>
      <trkpt lat="46.02799" lon="4.70676">
        <ele>189</ele>
        <time>2018-03-24T10:16:54Z</time>
      </trkpt>
      <trkpt lat="46.02805" lon="4.70676">
        <ele>189</ele>
        <time>2018-03-24T10:16:55Z</time>
      </trkpt>
      <trkpt lat="46.0281" lon="4.70674">
        <ele>189</ele>
        <time>2018-03-24T10:16:56Z</time>
      </trkpt>
      <trkpt lat="46.02815" lon="4.70673">
        <ele>189</ele>
        <time>2018-03-24T10:16:57Z</time>
      </trkpt>
      <trkpt lat="46.02821" lon="4.70672">
        <ele>189</ele>
        <time>2018-03-24T10:16:58Z</time>
      </trkpt>
      <trkpt lat="46.02825" lon="4.70671">
        <ele>189</ele>
        <time>2018-03-24T10:16:59Z</time>
      </trkpt>
      <trkpt lat="46.0283" lon="4.7067">
        <ele>189</ele>
        <time>2018-03-24T10:17:00Z</time>
      </trkpt>
      <trkpt lat="46.02836" lon="4.70669">
        <ele>189</ele>
        <time>2018-03-24T10:17:01Z</time>
      </trkpt>
      <trkpt lat="46.02841" lon="4.70668">
        <ele>189</ele>
        <time>2018-03-24T10:17:02Z</time>
      </trkpt>
      <trkpt lat="46.02847" lon="4.70667">
        <ele>189</ele>
        <time>2018-03-24T10:17:03Z</time>
      </trkpt>
      <trkpt lat="46.02851" lon="4.70665">
        <ele>190</ele>
        <time>2018-03-24T10:17:04Z</time>
      </trkpt>
      <trkpt lat="46.02855" lon="4.70664">
        <ele>190</ele>
        <time>2018-03-24T10:17:05Z</time>
      </trkpt>
      <trkpt lat="46.02861" lon="4.70664">
        <ele>190</ele>
        <time>2018-03-24T10:17:06Z</time>
      </trkpt>
      <trkpt lat="46.02866" lon="4.70663">
        <ele>190</ele>
        <time>2018-03-24T10:17:07Z</time>
      </trkpt>
      <trkpt lat="46.02871" lon="4.70663">
        <ele>190</ele>
        <time>2018-03-24T10:17:08Z</time>
      </trkpt>
      <trkpt lat="46.02876" lon="4.70663">
        <ele>190</ele>
        <time>2018-03-24T10:17:09Z</time>
      </trkpt>
      <trkpt lat="46.02881" lon="4.70664">
        <ele>190</ele>
        <time>2018-03-24T10:17:10Z</time>
      </trkpt>
      <trkpt lat="46.02887" lon="4.70663">
        <ele>190</ele>
        <time>2018-03-24T10:17:11Z</time>
      </trkpt>
      <trkpt lat="46.02891" lon="4.70664">
        <ele>190</ele>
        <time>2018-03-24T10:17:12Z</time>
      </trkpt>
      <trkpt lat="46.02897" lon="4.70663">
        <ele>191</ele>
        <time>2018-03-24T10:17:13Z</time>
      </trkpt>
      <trkpt lat="46.02902" lon="4.70663">
        <ele>191</ele>
        <time>2018-03-24T10:17:14Z</time>
      </trkpt>
      <trkpt lat="46.02906" lon="4.70662">
        <ele>191</ele>
        <time>2018-03-24T10:17:15Z</time>
      </trkpt>
      <trkpt lat="46.02911" lon="4.70661">
        <ele>191</ele>
        <time>2018-03-24T10:17:16Z</time>
      </trkpt>
      <trkpt lat="46.02916" lon="4.70659">
        <ele>191</ele>
        <time>2018-03-24T10:17:17Z</time>
      </trkpt>
      <trkpt lat="46.02921" lon="4.70656">
        <ele>191</ele>
        <time>2018-03-24T10:17:18Z</time>
      </trkpt>
      <trkpt lat="46.02926" lon="4.70651">
        <ele>191</ele>
        <time>2018-03-24T10:17:19Z</time>
      </trkpt>
      <trkpt lat="46.02929" lon="4.70645">
        <ele>192</ele>
        <time>2018-03-24T10:17:20Z</time>
      </trkpt>
      <trkpt lat="46.0293" lon="4.70639">
        <ele>192</ele>
        <time>2018-03-24T10:17:21Z</time>
      </trkpt>
      <trkpt lat="46.02933" lon="4.70632">
        <ele>192</ele>
        <time>2018-03-24T10:17:22Z</time>
      </trkpt>
      <trkpt lat="46.02934" lon="4.70625">
        <ele>192</ele>
        <time>2018-03-24T10:17:23Z</time>
      </trkpt>
      <trkpt lat="46.02936" lon="4.70618">
        <ele>192</ele>
        <time>2018-03-24T10:17:24Z</time>
      </trkpt>
      <trkpt lat="46.02937" lon="4.70611">
        <ele>192</ele>
        <time>2018-03-24T10:17:25Z</time>
      </trkpt>
      <trkpt lat="46.0294" lon="4.70603">
        <ele>192</ele>
        <time>2018-03-24T10:17:26Z</time>
      </trkpt>
      <trkpt lat="46.02942" lon="4.70597">
        <ele>192</ele>
        <time>2018-03-24T10:17:27Z</time>
      </trkpt>
      <trkpt lat="46.02944" lon="4.7059">
        <ele>192</ele>
        <time>2018-03-24T10:17:28Z</time>
      </trkpt>
      <trkpt lat="46.02946" lon="4.70583">
        <ele>191</ele>
        <time>2018-03-24T10:17:29Z</time>
      </trkpt>
      <trkpt lat="46.02948" lon="4.70576">
        <ele>191</ele>
        <time>2018-03-24T10:17:30Z</time>
      </trkpt>
      <trkpt lat="46.02951" lon="4.7057">
        <ele>191</ele>
        <time>2018-03-24T10:17:31Z</time>
      </trkpt>
      <trkpt lat="46.02954" lon="4.70563">
        <ele>191</ele>
        <time>2018-03-24T10:17:32Z</time>
      </trkpt>
      <trkpt lat="46.02959" lon="4.70558">
        <ele>191</ele>
        <time>2018-03-24T10:17:33Z</time>
      </trkpt>
      <trkpt lat="46.02963" lon="4.70552">
        <ele>191</ele>
        <time>2018-03-24T10:17:34Z</time>
      </trkpt>
      <trkpt lat="46.02967" lon="4.70547">
        <ele>191</ele>
        <time>2018-03-24T10:17:35Z</time>
      </trkpt>
      <trkpt lat="46.02972" lon="4.70542">
        <ele>191</ele>
        <time>2018-03-24T10:17:36Z</time>
      </trkpt>
      <trkpt lat="46.02977" lon="4.70536">
        <ele>191</ele>
        <time>2018-03-24T10:17:37Z</time>
      </trkpt>
      <trkpt lat="46.02982" lon="4.70532">
        <ele>191</ele>
        <time>2018-03-24T10:17:38Z</time>
      </trkpt>
      <trkpt lat="46.02986" lon="4.70529">
        <ele>191</ele>
        <time>2018-03-24T10:17:39Z</time>
      </trkpt>
      <trkpt lat="46.02992" lon="4.70525">
        <ele>191</ele>
        <time>2018-03-24T10:17:40Z</time>
      </trkpt>
      <trkpt lat="46.02997" lon="4.7052">
        <ele>191</ele>
        <time>2018-03-24T10:17:41Z</time>
      </trkpt>
      <trkpt lat="46.03001" lon="4.70516">
        <ele>191</ele>
        <time>2018-03-24T10:17:42Z</time>
      </trkpt>
      <trkpt lat="46.03006" lon="4.70512">
        <ele>191</ele>
        <time>2018-03-24T10:17:43Z</time>
      </trkpt>
      <trkpt lat="46.03011" lon="4.70508">
        <ele>191</ele>
        <time>2018-03-24T10:17:44Z</time>
      </trkpt>
      <trkpt lat="46.03015" lon="4.70504">
        <ele>191</ele>
        <time>2018-03-24T10:17:45Z</time>
      </trkpt>
      <trkpt lat="46.03019" lon="4.70499">
        <ele>191</ele>
        <time>2018-03-24T10:17:46Z</time>
      </trkpt>
      <trkpt lat="46.03024" lon="4.70496">
        <ele>191</ele>
        <time>2018-03-24T10:17:47Z</time>
      </trkpt>
      <trkpt lat="46.03028" lon="4.70491">
        <ele>191</ele>
        <time>2018-03-24T10:17:48Z</time>
      </trkpt>
      <trkpt lat="46.03033" lon="4.70487">
        <ele>191</ele>
        <time>2018-03-24T10:17:49Z</time>
      </trkpt>
      <trkpt lat="46.03037" lon="4.70483">
        <ele>191</ele>
        <time>2018-03-24T10:17:50Z</time>
      </trkpt>
      <trkpt lat="46.03041" lon="4.70478">
        <ele>191</ele>
        <time>2018-03-24T10:17:51Z</time>
      </trkpt>
      <trkpt lat="46.03045" lon="4.70474">
        <ele>191</ele>
        <time>2018-03-24T10:17:52Z</time>
      </trkpt>
      <trkpt lat="46.03049" lon="4.70471">
        <ele>191</ele>
        <time>2018-03-24T10:17:53Z</time>
      </trkpt>
      <trkpt lat="46.03052" lon="4.70466">
        <ele>191</ele>
        <time>2018-03-24T10:17:54Z</time>
      </trkpt>
      <trkpt lat="46.03056" lon="4.70462">
        <ele>191</ele>
        <time>2018-03-24T10:17:55Z</time>
      </trkpt>
      <trkpt lat="46.0306" lon="4.70458">
        <ele>191</ele>
        <time>2018-03-24T10:17:56Z</time>
      </trkpt>
      <trkpt lat="46.03065" lon="4.70455">
        <ele>191</ele>
        <time>2018-03-24T10:17:57Z</time>
      </trkpt>
      <trkpt lat="46.03071" lon="4.70451">
        <ele>191</ele>
        <time>2018-03-24T10:17:58Z</time>
      </trkpt>
      <trkpt lat="46.03076" lon="4.70449">
        <ele>191</ele>
        <time>2018-03-24T10:17:59Z</time>
      </trkpt>
      <trkpt lat="46.03081" lon="4.70446">
        <ele>191</ele>
        <time>2018-03-24T10:18:00Z</time>
      </trkpt>
      <trkpt lat="46.03085" lon="4.70445">
        <ele>192</ele>
        <time>2018-03-24T10:18:01Z</time>
      </trkpt>
      <trkpt lat="46.0309" lon="4.70442">
        <ele>192</ele>
        <time>2018-03-24T10:18:02Z</time>
      </trkpt>
      <trkpt lat="46.03095" lon="4.7044">
        <ele>192</ele>
        <time>2018-03-24T10:18:03Z</time>
      </trkpt>
      <trkpt lat="46.03099" lon="4.70437">
        <ele>192</ele>
        <time>2018-03-24T10:18:04Z</time>
      </trkpt>
      <trkpt lat="46.03104" lon="4.70435">
        <ele>192</ele>
        <time>2018-03-24T10:18:05Z</time>
      </trkpt>
      <trkpt lat="46.03109" lon="4.70433">
        <ele>192</ele>
        <time>2018-03-24T10:18:06Z</time>
      </trkpt>
      <trkpt lat="46.03113" lon="4.70431">
        <ele>192</ele>
        <time>2018-03-24T10:18:07Z</time>
      </trkpt>
      <trkpt lat="46.03119" lon="4.70429">
        <ele>192</ele>
        <time>2018-03-24T10:18:08Z</time>
      </trkpt>
      <trkpt lat="46.03125" lon="4.70426">
        <ele>192</ele>
        <time>2018-03-24T10:18:09Z</time>
      </trkpt>
      <trkpt lat="46.0313" lon="4.70423">
        <ele>192</ele>
        <time>2018-03-24T10:18:10Z</time>
      </trkpt>
      <trkpt lat="46.03135" lon="4.70421">
        <ele>192</ele>
        <time>2018-03-24T10:18:11Z</time>
      </trkpt>
      <trkpt lat="46.0314" lon="4.70419">
        <ele>192</ele>
        <time>2018-03-24T10:18:12Z</time>
      </trkpt>
      <trkpt lat="46.03146" lon="4.70416">
        <ele>192</ele>
        <time>2018-03-24T10:18:13Z</time>
      </trkpt>
      <trkpt lat="46.03151" lon="4.70414">
        <ele>192</ele>
        <time>2018-03-24T10:18:14Z</time>
      </trkpt>
      <trkpt lat="46.03156" lon="4.70411">
        <ele>192</ele>
        <time>2018-03-24T10:18:15Z</time>
      </trkpt>
      <trkpt lat="46.03162" lon="4.70407">
        <ele>192</ele>
        <time>2018-03-24T10:18:16Z</time>
      </trkpt>
      <trkpt lat="46.03168" lon="4.70405">
        <ele>192</ele>
        <time>2018-03-24T10:18:17Z</time>
      </trkpt>
      <trkpt lat="46.03174" lon="4.70402">
        <ele>192</ele>
        <time>2018-03-24T10:18:18Z</time>
      </trkpt>
      <trkpt lat="46.03179" lon="4.704">
        <ele>192</ele>
        <time>2018-03-24T10:18:19Z</time>
      </trkpt>
      <trkpt lat="46.03185" lon="4.70396">
        <ele>192</ele>
        <time>2018-03-24T10:18:20Z</time>
      </trkpt>
      <trkpt lat="46.0319" lon="4.70394">
        <ele>192</ele>
        <time>2018-03-24T10:18:21Z</time>
      </trkpt>
      <trkpt lat="46.03195" lon="4.70391">
        <ele>192</ele>
        <time>2018-03-24T10:18:22Z</time>
      </trkpt>
      <trkpt lat="46.032" lon="4.70387">
        <ele>192</ele>
        <time>2018-03-24T10:18:23Z</time>
      </trkpt>
      <trkpt lat="46.03206" lon="4.70384">
        <ele>192</ele>
        <time>2018-03-24T10:18:24Z</time>
      </trkpt>
      <trkpt lat="46.03211" lon="4.70382">
        <ele>192</ele>
        <time>2018-03-24T10:18:25Z</time>
      </trkpt>
      <trkpt lat="46.03216" lon="4.7038">
        <ele>192</ele>
        <time>2018-03-24T10:18:26Z</time>
      </trkpt>
      <trkpt lat="46.03221" lon="4.70378">
        <ele>192</ele>
        <time>2018-03-24T10:18:27Z</time>
      </trkpt>
      <trkpt lat="46.03226" lon="4.70375">
        <ele>192</ele>
        <time>2018-03-24T10:18:28Z</time>
      </trkpt>
      <trkpt lat="46.03232" lon="4.70372">
        <ele>192</ele>
        <time>2018-03-24T10:18:29Z</time>
      </trkpt>
      <trkpt lat="46.03237" lon="4.7037">
        <ele>192</ele>
        <time>2018-03-24T10:18:30Z</time>
      </trkpt>
      <trkpt lat="46.03243" lon="4.70368">
        <ele>192</ele>
        <time>2018-03-24T10:18:31Z</time>
      </trkpt>
      <trkpt lat="46.03248" lon="4.70365">
        <ele>192</ele>
        <time>2018-03-24T10:18:32Z</time>
      </trkpt>
      <trkpt lat="46.03252" lon="4.70363">
        <ele>191</ele>
        <time>2018-03-24T10:18:33Z</time>
      </trkpt>
      <trkpt lat="46.03259" lon="4.7036">
        <ele>191</ele>
        <time>2018-03-24T10:18:34Z</time>
      </trkpt>
      <trkpt lat="46.03264" lon="4.70357">
        <ele>191</ele>
        <time>2018-03-24T10:18:35Z</time>
      </trkpt>
      <trkpt lat="46.0327" lon="4.70355">
        <ele>191</ele>
        <time>2018-03-24T10:18:36Z</time>
      </trkpt>
      <trkpt lat="46.03277" lon="4.70352">
        <ele>191</ele>
        <time>2018-03-24T10:18:37Z</time>
      </trkpt>
      <trkpt lat="46.03283" lon="4.7035">
        <ele>191</ele>
        <time>2018-03-24T10:18:38Z</time>
      </trkpt>
      <trkpt lat="46.03289" lon="4.70348">
        <ele>191</ele>
        <time>2018-03-24T10:18:39Z</time>
      </trkpt>
      <trkpt lat="46.03296" lon="4.70344">
        <ele>191</ele>
        <time>2018-03-24T10:18:40Z</time>
      </trkpt>
      <trkpt lat="46.03303" lon="4.70342">
        <ele>191</ele>
        <time>2018-03-24T10:18:41Z</time>
      </trkpt>
      <trkpt lat="46.03309" lon="4.70339">
        <ele>191</ele>
        <time>2018-03-24T10:18:42Z</time>
      </trkpt>
      <trkpt lat="46.03316" lon="4.70336">
        <ele>191</ele>
        <time>2018-03-24T10:18:43Z</time>
      </trkpt>
      <trkpt lat="46.03323" lon="4.70334">
        <ele>191</ele>
        <time>2018-03-24T10:18:44Z</time>
      </trkpt>
      <trkpt lat="46.0333" lon="4.70332">
        <ele>191</ele>
        <time>2018-03-24T10:18:45Z</time>
      </trkpt>
      <trkpt lat="46.03337" lon="4.70328">
        <ele>191</ele>
        <time>2018-03-24T10:18:46Z</time>
      </trkpt>
      <trkpt lat="46.03343" lon="4.70326">
        <ele>191</ele>
        <time>2018-03-24T10:18:47Z</time>
      </trkpt>
      <trkpt lat="46.0335" lon="4.70324">
        <ele>191</ele>
        <time>2018-03-24T10:18:48Z</time>
      </trkpt>
      <trkpt lat="46.03356" lon="4.70321">
        <ele>191</ele>
        <time>2018-03-24T10:18:49Z</time>
      </trkpt>
      <trkpt lat="46.03362" lon="4.70319">
        <ele>191</ele>
        <time>2018-03-24T10:18:50Z</time>
      </trkpt>
      <trkpt lat="46.03369" lon="4.70316">
        <ele>191</ele>
        <time>2018-03-24T10:18:51Z</time>
      </trkpt>
      <trkpt lat="46.03376" lon="4.70313">
        <ele>191</ele>
        <time>2018-03-24T10:18:52Z</time>
      </trkpt>
      <trkpt lat="46.03382" lon="4.7031">
        <ele>191</ele>
        <time>2018-03-24T10:18:53Z</time>
      </trkpt>
      <trkpt lat="46.03389" lon="4.70308">
        <ele>191</ele>
        <time>2018-03-24T10:18:54Z</time>
      </trkpt>
      <trkpt lat="46.03395" lon="4.70306">
        <ele>190</ele>
        <time>2018-03-24T10:18:55Z</time>
      </trkpt>
      <trkpt lat="46.03401" lon="4.70304">
        <ele>190</ele>
        <time>2018-03-24T10:18:56Z</time>
      </trkpt>
      <trkpt lat="46.03408" lon="4.70301">
        <ele>190</ele>
        <time>2018-03-24T10:18:57Z</time>
      </trkpt>
      <trkpt lat="46.03414" lon="4.70299">
        <ele>190</ele>
        <time>2018-03-24T10:18:58Z</time>
      </trkpt>
      <trkpt lat="46.03421" lon="4.70295">
        <ele>188</ele>
        <time>2018-03-24T10:18:59Z</time>
      </trkpt>
      <trkpt lat="46.03427" lon="4.70293">
        <ele>188</ele>
        <time>2018-03-24T10:19:00Z</time>
      </trkpt>
      <trkpt lat="46.03434" lon="4.7029">
        <ele>188</ele>
        <time>2018-03-24T10:19:01Z</time>
      </trkpt>
      <trkpt lat="46.03441" lon="4.70288">
        <ele>188</ele>
        <time>2018-03-24T10:19:02Z</time>
      </trkpt>
      <trkpt lat="46.03447" lon="4.70284">
        <ele>188</ele>
        <time>2018-03-24T10:19:03Z</time>
      </trkpt>
      <trkpt lat="46.03453" lon="4.70282">
        <ele>188</ele>
        <time>2018-03-24T10:19:04Z</time>
      </trkpt>
      <trkpt lat="46.0346" lon="4.70281">
        <ele>188</ele>
        <time>2018-03-24T10:19:05Z</time>
      </trkpt>
      <trkpt lat="46.03466" lon="4.70279">
        <ele>188</ele>
        <time>2018-03-24T10:19:06Z</time>
      </trkpt>
      <trkpt lat="46.03471" lon="4.70277">
        <ele>188</ele>
        <time>2018-03-24T10:19:07Z</time>
      </trkpt>
      <trkpt lat="46.03477" lon="4.70275">
        <ele>188</ele>
        <time>2018-03-24T10:19:08Z</time>
      </trkpt>
      <trkpt lat="46.03482" lon="4.70272">
        <ele>188</ele>
        <time>2018-03-24T10:19:09Z</time>
      </trkpt>
      <trkpt lat="46.03491" lon="4.7027">
        <ele>188</ele>
        <time>2018-03-24T10:19:10Z</time>
      </trkpt>
      <trkpt lat="46.03497" lon="4.70267">
        <ele>187</ele>
        <time>2018-03-24T10:19:11Z</time>
      </trkpt>
      <trkpt lat="46.03501" lon="4.70266">
        <ele>187</ele>
        <time>2018-03-24T10:19:12Z</time>
      </trkpt>
      <trkpt lat="46.03507" lon="4.70263">
        <ele>187</ele>
        <time>2018-03-24T10:19:13Z</time>
      </trkpt>
      <trkpt lat="46.03514" lon="4.70259">
        <ele>187</ele>
        <time>2018-03-24T10:19:14Z</time>
      </trkpt>
      <trkpt lat="46.03519" lon="4.70257">
        <ele>187</ele>
        <time>2018-03-24T10:19:15Z</time>
      </trkpt>
      <trkpt lat="46.03525" lon="4.70256">
        <ele>187</ele>
        <time>2018-03-24T10:19:16Z</time>
      </trkpt>
      <trkpt lat="46.03529" lon="4.70255">
        <ele>187</ele>
        <time>2018-03-24T10:19:17Z</time>
      </trkpt>
      <trkpt lat="46.03536" lon="4.70254">
        <ele>188</ele>
        <time>2018-03-24T10:19:18Z</time>
      </trkpt>
      <trkpt lat="46.03541" lon="4.7025">
        <ele>189</ele>
        <time>2018-03-24T10:19:19Z</time>
      </trkpt>
      <trkpt lat="46.03546" lon="4.70248">
        <ele>189</ele>
        <time>2018-03-24T10:19:20Z</time>
      </trkpt>
      <trkpt lat="46.03552" lon="4.70246">
        <ele>190</ele>
        <time>2018-03-24T10:19:21Z</time>
      </trkpt>
      <trkpt lat="46.03557" lon="4.70245">
        <ele>190</ele>
        <time>2018-03-24T10:19:22Z</time>
      </trkpt>
      <trkpt lat="46.03564" lon="4.70243">
        <ele>190</ele>
        <time>2018-03-24T10:19:23Z</time>
      </trkpt>
      <trkpt lat="46.03568" lon="4.70242">
        <ele>190</ele>
        <time>2018-03-24T10:19:24Z</time>
      </trkpt>
      <trkpt lat="46.03574" lon="4.70239">
        <ele>190</ele>
        <time>2018-03-24T10:19:25Z</time>
      </trkpt>
      <trkpt lat="46.03579" lon="4.70236">
        <ele>190</ele>
        <time>2018-03-24T10:19:26Z</time>
      </trkpt>
      <trkpt lat="46.03584" lon="4.70234">
        <ele>190</ele>
        <time>2018-03-24T10:19:27Z</time>
      </trkpt>
      <trkpt lat="46.03589" lon="4.70232">
        <ele>190</ele>
        <time>2018-03-24T10:19:28Z</time>
      </trkpt>
      <trkpt lat="46.03595" lon="4.70226">
        <ele>190</ele>
        <time>2018-03-24T10:19:29Z</time>
      </trkpt>
      <trkpt lat="46.036" lon="4.70225">
        <ele>190</ele>
        <time>2018-03-24T10:19:30Z</time>
      </trkpt>
      <trkpt lat="46.03605" lon="4.70226">
        <ele>190</ele>
        <time>2018-03-24T10:19:31Z</time>
      </trkpt>
      <trkpt lat="46.03611" lon="4.70223">
        <ele>190</ele>
        <time>2018-03-24T10:19:32Z</time>
      </trkpt>
      <trkpt lat="46.03616" lon="4.70222">
        <ele>190</ele>
        <time>2018-03-24T10:19:33Z</time>
      </trkpt>
      <trkpt lat="46.03621" lon="4.70223">
        <ele>190</ele>
        <time>2018-03-24T10:19:34Z</time>
      </trkpt>
      <trkpt lat="46.03626" lon="4.70221">
        <ele>190</ele>
        <time>2018-03-24T10:19:35Z</time>
      </trkpt>
      <trkpt lat="46.03632" lon="4.70221">
        <ele>190</ele>
        <time>2018-03-24T10:19:36Z</time>
      </trkpt>
      <trkpt lat="46.03637" lon="4.70222">
        <ele>190</ele>
        <time>2018-03-24T10:19:37Z</time>
      </trkpt>
      <trkpt lat="46.03643" lon="4.70217">
        <ele>190</ele>
        <time>2018-03-24T10:19:38Z</time>
      </trkpt>
      <trkpt lat="46.0365" lon="4.70216">
        <ele>190</ele>
        <time>2018-03-24T10:19:39Z</time>
      </trkpt>
      <trkpt lat="46.03658" lon="4.70213">
        <ele>190</ele>
        <time>2018-03-24T10:19:40Z</time>
      </trkpt>
      <trkpt lat="46.03664" lon="4.70206">
        <ele>190</ele>
        <time>2018-03-24T10:19:41Z</time>
      </trkpt>
      <trkpt lat="46.03671" lon="4.70204">
        <ele>189</ele>
        <time>2018-03-24T10:19:42Z</time>
      </trkpt>
      <trkpt lat="46.03677" lon="4.70202">
        <ele>189</ele>
        <time>2018-03-24T10:19:43Z</time>
      </trkpt>
      <trkpt lat="46.03684" lon="4.702">
        <ele>189</ele>
        <time>2018-03-24T10:19:44Z</time>
      </trkpt>
      <trkpt lat="46.03691" lon="4.70196">
        <ele>189</ele>
        <time>2018-03-24T10:19:45Z</time>
      </trkpt>
      <trkpt lat="46.03698" lon="4.70193">
        <ele>189</ele>
        <time>2018-03-24T10:19:46Z</time>
      </trkpt>
      <trkpt lat="46.03706" lon="4.70191">
        <ele>188</ele>
        <time>2018-03-24T10:19:47Z</time>
      </trkpt>
      <trkpt lat="46.03711" lon="4.70189">
        <ele>188</ele>
        <time>2018-03-24T10:19:48Z</time>
      </trkpt>
      <trkpt lat="46.03717" lon="4.70186">
        <ele>188</ele>
        <time>2018-03-24T10:19:49Z</time>
      </trkpt>
      <trkpt lat="46.03723" lon="4.70183">
        <ele>188</ele>
        <time>2018-03-24T10:19:50Z</time>
      </trkpt>
      <trkpt lat="46.03729" lon="4.70181">
        <ele>188</ele>
        <time>2018-03-24T10:19:51Z</time>
      </trkpt>
      <trkpt lat="46.03736" lon="4.70179">
        <ele>188</ele>
        <time>2018-03-24T10:19:52Z</time>
      </trkpt>
      <trkpt lat="46.03741" lon="4.70177">
        <ele>188</ele>
        <time>2018-03-24T10:19:53Z</time>
      </trkpt>
      <trkpt lat="46.03748" lon="4.70175">
        <ele>187</ele>
        <time>2018-03-24T10:19:54Z</time>
      </trkpt>
      <trkpt lat="46.03754" lon="4.70173">
        <ele>188</ele>
        <time>2018-03-24T10:19:55Z</time>
      </trkpt>
      <trkpt lat="46.03759" lon="4.70173">
        <ele>188</ele>
        <time>2018-03-24T10:19:56Z</time>
      </trkpt>
      <trkpt lat="46.03765" lon="4.70167">
        <ele>188</ele>
        <time>2018-03-24T10:19:57Z</time>
      </trkpt>
      <trkpt lat="46.03771" lon="4.70167">
        <ele>188</ele>
        <time>2018-03-24T10:19:58Z</time>
      </trkpt>
      <trkpt lat="46.03776" lon="4.70168">
        <ele>189</ele>
        <time>2018-03-24T10:19:59Z</time>
      </trkpt>
      <trkpt lat="46.03781" lon="4.70166">
        <ele>189</ele>
        <time>2018-03-24T10:20:00Z</time>
      </trkpt>
      <trkpt lat="46.03787" lon="4.70165">
        <ele>189</ele>
        <time>2018-03-24T10:20:01Z</time>
      </trkpt>
      <trkpt lat="46.03793" lon="4.70163">
        <ele>189</ele>
        <time>2018-03-24T10:20:02Z</time>
      </trkpt>
      <trkpt lat="46.03799" lon="4.70158">
        <ele>189</ele>
        <time>2018-03-24T10:20:03Z</time>
      </trkpt>
      <trkpt lat="46.03806" lon="4.70157">
        <ele>190</ele>
        <time>2018-03-24T10:20:04Z</time>
      </trkpt>
      <trkpt lat="46.03811" lon="4.70155">
        <ele>190</ele>
        <time>2018-03-24T10:20:05Z</time>
      </trkpt>
      <trkpt lat="46.03818" lon="4.70154">
        <ele>190</ele>
        <time>2018-03-24T10:20:06Z</time>
      </trkpt>
      <trkpt lat="46.03823" lon="4.70153">
        <ele>190</ele>
        <time>2018-03-24T10:20:07Z</time>
      </trkpt>
      <trkpt lat="46.0383" lon="4.70149">
        <ele>190</ele>
        <time>2018-03-24T10:20:08Z</time>
      </trkpt>
      <trkpt lat="46.03835" lon="4.70146">
        <ele>192</ele>
        <time>2018-03-24T10:20:09Z</time>
      </trkpt>
      <trkpt lat="46.03838" lon="4.70145">
        <ele>192</ele>
        <time>2018-03-24T10:20:10Z</time>
      </trkpt>
      <trkpt lat="46.03843" lon="4.70142">
        <ele>192</ele>
        <time>2018-03-24T10:20:11Z</time>
      </trkpt>
      <trkpt lat="46.03849" lon="4.70139">
        <ele>192</ele>
        <time>2018-03-24T10:20:12Z</time>
      </trkpt>
      <trkpt lat="46.03853" lon="4.70138">
        <ele>193</ele>
        <time>2018-03-24T10:20:13Z</time>
      </trkpt>
      <trkpt lat="46.03858" lon="4.70139">
        <ele>193</ele>
        <time>2018-03-24T10:20:14Z</time>
      </trkpt>
      <trkpt lat="46.03867" lon="4.7014">
        <ele>193</ele>
        <time>2018-03-24T10:20:16Z</time>
      </trkpt>
      <trkpt lat="46.03871" lon="4.7014">
        <ele>193</ele>
        <time>2018-03-24T10:20:17Z</time>
      </trkpt>
      <trkpt lat="46.03877" lon="4.70135">
        <ele>193</ele>
        <time>2018-03-24T10:20:20Z</time>
      </trkpt>
      <trkpt lat="46.03885" lon="4.70133">
        <ele>193</ele>
        <time>2018-03-24T10:20:21Z</time>
      </trkpt>
      <trkpt lat="46.0389" lon="4.7013">
        <ele>193</ele>
        <time>2018-03-24T10:20:22Z</time>
      </trkpt>
      <trkpt lat="46.03895" lon="4.70127">
        <ele>194</ele>
        <time>2018-03-24T10:20:23Z</time>
      </trkpt>
      <trkpt lat="46.039" lon="4.70126">
        <ele>194</ele>
        <time>2018-03-24T10:20:24Z</time>
      </trkpt>
      <trkpt lat="46.03904" lon="4.70123">
        <ele>194</ele>
        <time>2018-03-24T10:20:25Z</time>
      </trkpt>
      <trkpt lat="46.03911" lon="4.70121">
        <ele>194</ele>
        <time>2018-03-24T10:20:26Z</time>
      </trkpt>
      <trkpt lat="46.03915" lon="4.7012">
        <ele>194</ele>
        <time>2018-03-24T10:20:27Z</time>
      </trkpt>
      <trkpt lat="46.0392" lon="4.70118">
        <ele>196</ele>
        <time>2018-03-24T10:20:28Z</time>
      </trkpt>
      <trkpt lat="46.03925" lon="4.70117">
        <ele>196</ele>
        <time>2018-03-24T10:20:29Z</time>
      </trkpt>
      <trkpt lat="46.03929" lon="4.70115">
        <ele>196</ele>
        <time>2018-03-24T10:20:30Z</time>
      </trkpt>
      <trkpt lat="46.03936" lon="4.70113">
        <ele>196</ele>
        <time>2018-03-24T10:20:31Z</time>
      </trkpt>
      <trkpt lat="46.03943" lon="4.7011">
        <ele>196</ele>
        <time>2018-03-24T10:20:33Z</time>
      </trkpt>
      <trkpt lat="46.03946" lon="4.70108">
        <ele>196</ele>
        <time>2018-03-24T10:20:34Z</time>
      </trkpt>
      <trkpt lat="46.0395" lon="4.70108">
        <ele>196</ele>
        <time>2018-03-24T10:20:36Z</time>
      </trkpt>
      <trkpt lat="46.03958" lon="4.70107">
        <ele>196</ele>
        <time>2018-03-24T10:20:37Z</time>
      </trkpt>
      <trkpt lat="46.03966" lon="4.70107">
        <ele>196</ele>
        <time>2018-03-24T10:20:41Z</time>
      </trkpt>
      <trkpt lat="46.03974" lon="4.70106">
        <ele>196</ele>
        <time>2018-03-24T10:20:42Z</time>
      </trkpt>
      <trkpt lat="46.03982" lon="4.70101">
        <ele>196</ele>
        <time>2018-03-24T10:20:43Z</time>
      </trkpt>
      <trkpt lat="46.03988" lon="4.70099">
        <ele>196</ele>
        <time>2018-03-24T10:20:44Z</time>
      </trkpt>
      <trkpt lat="46.03993" lon="4.70098">
        <ele>196</ele>
        <time>2018-03-24T10:20:45Z</time>
      </trkpt>
      <trkpt lat="46.03998" lon="4.70098">
        <ele>196</ele>
        <time>2018-03-24T10:20:46Z</time>
      </trkpt>
      <trkpt lat="46.04006" lon="4.70098">
        <ele>196</ele>
        <time>2018-03-24T10:20:48Z</time>
      </trkpt>
      <trkpt lat="46.04011" lon="4.70098">
        <ele>195</ele>
        <time>2018-03-24T10:20:49Z</time>
      </trkpt>
      <trkpt lat="46.04019" lon="4.70095">
        <ele>195</ele>
        <time>2018-03-24T10:20:51Z</time>
      </trkpt>
      <trkpt lat="46.04026" lon="4.70094">
        <ele>195</ele>
        <time>2018-03-24T10:20:52Z</time>
      </trkpt>
      <trkpt lat="46.04031" lon="4.70096">
        <ele>195</ele>
        <time>2018-03-24T10:20:53Z</time>
      </trkpt>
      <trkpt lat="46.04036" lon="4.70095">
        <ele>195</ele>
        <time>2018-03-24T10:20:54Z</time>
      </trkpt>
      <trkpt lat="46.04042" lon="4.70096">
        <ele>195</ele>
        <time>2018-03-24T10:20:55Z</time>
      </trkpt>
      <trkpt lat="46.04049" lon="4.70095">
        <ele>195</ele>
        <time>2018-03-24T10:20:56Z</time>
      </trkpt>
      <trkpt lat="46.04055" lon="4.70094">
        <ele>195</ele>
        <time>2018-03-24T10:20:57Z</time>
      </trkpt>
      <trkpt lat="46.04059" lon="4.70093">
        <ele>195</ele>
        <time>2018-03-24T10:20:58Z</time>
      </trkpt>
      <trkpt lat="46.04068" lon="4.70095">
        <ele>195</ele>
        <time>2018-03-24T10:21:00Z</time>
      </trkpt>
      <trkpt lat="46.0407" lon="4.70095">
        <ele>195</ele>
        <time>2018-03-24T10:21:01Z</time>
      </trkpt>
      <trkpt lat="46.04078" lon="4.70094">
        <ele>194</ele>
        <time>2018-03-24T10:21:03Z</time>
      </trkpt>
      <trkpt lat="46.04084" lon="4.70094">
        <ele>193</ele>
        <time>2018-03-24T10:21:04Z</time>
      </trkpt>
      <trkpt lat="46.04091" lon="4.70089">
        <ele>193</ele>
        <time>2018-03-24T10:21:05Z</time>
      </trkpt>
      <trkpt lat="46.04096" lon="4.70088">
        <ele>193</ele>
        <time>2018-03-24T10:21:06Z</time>
      </trkpt>
      <trkpt lat="46.041" lon="4.70089">
        <ele>193</ele>
        <time>2018-03-24T10:21:07Z</time>
      </trkpt>
      <trkpt lat="46.04106" lon="4.70084">
        <ele>192</ele>
        <time>2018-03-24T10:21:08Z</time>
      </trkpt>
      <trkpt lat="46.04113" lon="4.70078">
        <ele>192</ele>
        <time>2018-03-24T10:21:10Z</time>
      </trkpt>
      <trkpt lat="46.04115" lon="4.70077">
        <ele>192</ele>
        <time>2018-03-24T10:21:11Z</time>
      </trkpt>
      <trkpt lat="46.04124" lon="4.70073">
        <ele>192</ele>
        <time>2018-03-24T10:21:12Z</time>
      </trkpt>
      <trkpt lat="46.04131" lon="4.70069">
        <ele>192</ele>
        <time>2018-03-24T10:21:14Z</time>
      </trkpt>
      <trkpt lat="46.04133" lon="4.70069">
        <ele>192</ele>
        <time>2018-03-24T10:21:15Z</time>
      </trkpt>
      <trkpt lat="46.04137" lon="4.70067">
        <ele>192</ele>
        <time>2018-03-24T10:21:16Z</time>
      </trkpt>
      <trkpt lat="46.04147" lon="4.70062">
        <ele>191</ele>
        <time>2018-03-24T10:21:17Z</time>
      </trkpt>
      <trkpt lat="46.04153" lon="4.70056">
        <ele>191</ele>
        <time>2018-03-24T10:21:18Z</time>
      </trkpt>
      <trkpt lat="46.04161" lon="4.7005">
        <ele>191</ele>
        <time>2018-03-24T10:21:19Z</time>
      </trkpt>
      <trkpt lat="46.04167" lon="4.70046">
        <ele>191</ele>
        <time>2018-03-24T10:21:20Z</time>
      </trkpt>
      <trkpt lat="46.04172" lon="4.70041">
        <ele>189</ele>
        <time>2018-03-24T10:21:21Z</time>
      </trkpt>
      <trkpt lat="46.04176" lon="4.70038">
        <ele>189</ele>
        <time>2018-03-24T10:21:22Z</time>
      </trkpt>
      <trkpt lat="46.04184" lon="4.70033">
        <ele>189</ele>
        <time>2018-03-24T10:21:23Z</time>
      </trkpt>
      <trkpt lat="46.04186" lon="4.7003">
        <ele>189</ele>
        <time>2018-03-24T10:21:24Z</time>
      </trkpt>
      <trkpt lat="46.04191" lon="4.70025">
        <ele>188</ele>
        <time>2018-03-24T10:21:25Z</time>
      </trkpt>
      <trkpt lat="46.04196" lon="4.70021">
        <ele>188</ele>
        <time>2018-03-24T10:21:26Z</time>
      </trkpt>
      <trkpt lat="46.042" lon="4.70017">
        <ele>188</ele>
        <time>2018-03-24T10:21:27Z</time>
      </trkpt>
      <trkpt lat="46.04208" lon="4.7001">
        <ele>188</ele>
        <time>2018-03-24T10:21:30Z</time>
      </trkpt>
      <trkpt lat="46.04216" lon="4.70004">
        <ele>188</ele>
        <time>2018-03-24T10:21:31Z</time>
      </trkpt>
      <trkpt lat="46.04221" lon="4.7">
        <ele>188</ele>
        <time>2018-03-24T10:21:32Z</time>
      </trkpt>
      <trkpt lat="46.04225" lon="4.69997">
        <ele>188</ele>
        <time>2018-03-24T10:21:33Z</time>
      </trkpt>
      <trkpt lat="46.0423" lon="4.69993">
        <ele>188</ele>
        <time>2018-03-24T10:21:34Z</time>
      </trkpt>
      <trkpt lat="46.04234" lon="4.69989">
        <ele>188</ele>
        <time>2018-03-24T10:21:35Z</time>
      </trkpt>
      <trkpt lat="46.0424" lon="4.69979">
        <ele>188</ele>
        <time>2018-03-24T10:21:37Z</time>
      </trkpt>
      <trkpt lat="46.04244" lon="4.69976">
        <ele>188</ele>
        <time>2018-03-24T10:21:38Z</time>
      </trkpt>
      <trkpt lat="46.04248" lon="4.69972">
        <ele>188</ele>
        <time>2018-03-24T10:21:39Z</time>
      </trkpt>
      <trkpt lat="46.04251" lon="4.69968">
        <ele>188</ele>
        <time>2018-03-24T10:21:40Z</time>
      </trkpt>
      <trkpt lat="46.04256" lon="4.69963">
        <ele>188</ele>
        <time>2018-03-24T10:21:41Z</time>
      </trkpt>
      <trkpt lat="46.0426" lon="4.6996">
        <ele>188</ele>
        <time>2018-03-24T10:21:42Z</time>
      </trkpt>
      <trkpt lat="46.04264" lon="4.69956">
        <ele>188</ele>
        <time>2018-03-24T10:21:43Z</time>
      </trkpt>
      <trkpt lat="46.04268" lon="4.69951">
        <ele>188</ele>
        <time>2018-03-24T10:21:44Z</time>
      </trkpt>
      <trkpt lat="46.04273" lon="4.69947">
        <ele>189</ele>
        <time>2018-03-24T10:21:45Z</time>
      </trkpt>
      <trkpt lat="46.04277" lon="4.69943">
        <ele>189</ele>
        <time>2018-03-24T10:21:46Z</time>
      </trkpt>
      <trkpt lat="46.04281" lon="4.69938">
        <ele>189</ele>
        <time>2018-03-24T10:21:47Z</time>
      </trkpt>
      <trkpt lat="46.04284" lon="4.69935">
        <ele>189</ele>
        <time>2018-03-24T10:21:48Z</time>
      </trkpt>
      <trkpt lat="46.04288" lon="4.6993">
        <ele>189</ele>
        <time>2018-03-24T10:21:49Z</time>
      </trkpt>
      <trkpt lat="46.04292" lon="4.69925">
        <ele>189</ele>
        <time>2018-03-24T10:21:50Z</time>
      </trkpt>
      <trkpt lat="46.04297" lon="4.69921">
        <ele>189</ele>
        <time>2018-03-24T10:21:51Z</time>
      </trkpt>
      <trkpt lat="46.043" lon="4.69917">
        <ele>189</ele>
        <time>2018-03-24T10:21:52Z</time>
      </trkpt>
      <trkpt lat="46.04304" lon="4.69913">
        <ele>190</ele>
        <time>2018-03-24T10:21:53Z</time>
      </trkpt>
      <trkpt lat="46.04307" lon="4.69908">
        <ele>190</ele>
        <time>2018-03-24T10:21:54Z</time>
      </trkpt>
      <trkpt lat="46.0431" lon="4.69902">
        <ele>190</ele>
        <time>2018-03-24T10:21:55Z</time>
      </trkpt>
      <trkpt lat="46.04313" lon="4.69897">
        <ele>190</ele>
        <time>2018-03-24T10:21:56Z</time>
      </trkpt>
      <trkpt lat="46.04317" lon="4.69892">
        <ele>190</ele>
        <time>2018-03-24T10:21:57Z</time>
      </trkpt>
      <trkpt lat="46.04319" lon="4.69886">
        <ele>190</ele>
        <time>2018-03-24T10:21:58Z</time>
      </trkpt>
      <trkpt lat="46.04324" lon="4.69876">
        <ele>190</ele>
        <time>2018-03-24T10:22:00Z</time>
      </trkpt>
      <trkpt lat="46.04327" lon="4.69869">
        <ele>191</ele>
        <time>2018-03-24T10:22:01Z</time>
      </trkpt>
      <trkpt lat="46.04333" lon="4.6986">
        <ele>191</ele>
        <time>2018-03-24T10:22:03Z</time>
      </trkpt>
      <trkpt lat="46.04336" lon="4.69856">
        <ele>192</ele>
        <time>2018-03-24T10:22:04Z</time>
      </trkpt>
      <trkpt lat="46.04343" lon="4.69849">
        <ele>192</ele>
        <time>2018-03-24T10:22:06Z</time>
      </trkpt>
      <trkpt lat="46.04346" lon="4.69846">
        <ele>193</ele>
        <time>2018-03-24T10:22:07Z</time>
      </trkpt>
      <trkpt lat="46.04354" lon="4.69841">
        <ele>193</ele>
        <time>2018-03-24T10:22:09Z</time>
      </trkpt>
      <trkpt lat="46.04357" lon="4.69838">
        <ele>193</ele>
        <time>2018-03-24T10:22:10Z</time>
      </trkpt>
      <trkpt lat="46.04363" lon="4.69833">
        <ele>193</ele>
        <time>2018-03-24T10:22:12Z</time>
      </trkpt>
      <trkpt lat="46.04365" lon="4.69832">
        <ele>193</ele>
        <time>2018-03-24T10:22:13Z</time>
      </trkpt>
      <trkpt lat="46.0437" lon="4.69829">
        <ele>194</ele>
        <time>2018-03-24T10:22:14Z</time>
      </trkpt>
      <trkpt lat="46.04373" lon="4.69827">
        <ele>194</ele>
        <time>2018-03-24T10:22:15Z</time>
      </trkpt>
      <trkpt lat="46.0438" lon="4.69824">
        <ele>194</ele>
        <time>2018-03-24T10:22:17Z</time>
      </trkpt>
      <trkpt lat="46.04382" lon="4.69823">
        <ele>194</ele>
        <time>2018-03-24T10:22:18Z</time>
      </trkpt>
      <trkpt lat="46.04389" lon="4.6982">
        <ele>194</ele>
        <time>2018-03-24T10:22:21Z</time>
      </trkpt>
      <trkpt lat="46.04392" lon="4.69818">
        <ele>194</ele>
        <time>2018-03-24T10:22:22Z</time>
      </trkpt>
      <trkpt lat="46.04401" lon="4.69815">
        <ele>194</ele>
        <time>2018-03-24T10:22:25Z</time>
      </trkpt>
      <trkpt lat="46.04404" lon="4.69813">
        <ele>194</ele>
        <time>2018-03-24T10:22:26Z</time>
      </trkpt>
      <trkpt lat="46.04412" lon="4.69811">
        <ele>194</ele>
        <time>2018-03-24T10:22:29Z</time>
      </trkpt>
      <trkpt lat="46.04415" lon="4.6981">
        <ele>194</ele>
        <time>2018-03-24T10:22:30Z</time>
      </trkpt>
      <trkpt lat="46.04422" lon="4.69808">
        <ele>196</ele>
        <time>2018-03-24T10:22:32Z</time>
      </trkpt>
      <trkpt lat="46.04425" lon="4.69807">
        <ele>196</ele>
        <time>2018-03-24T10:22:33Z</time>
      </trkpt>
      <trkpt lat="46.04431" lon="4.69806">
        <ele>196</ele>
        <time>2018-03-24T10:22:35Z</time>
      </trkpt>
      <trkpt lat="46.04435" lon="4.69805">
        <ele>196</ele>
        <time>2018-03-24T10:22:36Z</time>
      </trkpt>
      <trkpt lat="46.04441" lon="4.69803">
        <ele>196</ele>
        <time>2018-03-24T10:22:38Z</time>
      </trkpt>
      <trkpt lat="46.04444" lon="4.69802">
        <ele>196</ele>
        <time>2018-03-24T10:22:39Z</time>
      </trkpt>
      <trkpt lat="46.0445" lon="4.69801">
        <ele>196</ele>
        <time>2018-03-24T10:22:41Z</time>
      </trkpt>
      <trkpt lat="46.04454" lon="4.698">
        <ele>196</ele>
        <time>2018-03-24T10:22:42Z</time>
      </trkpt>
      <trkpt lat="46.0446" lon="4.69799">
        <ele>197</ele>
        <time>2018-03-24T10:22:44Z</time>
      </trkpt>
      <trkpt lat="46.04463" lon="4.69798">
        <ele>197</ele>
        <time>2018-03-24T10:22:45Z</time>
      </trkpt>
      <trkpt lat="46.0447" lon="4.69797">
        <ele>197</ele>
        <time>2018-03-24T10:22:47Z</time>
      </trkpt>
      <trkpt lat="46.04473" lon="4.69796">
        <ele>197</ele>
        <time>2018-03-24T10:22:48Z</time>
      </trkpt>
      <trkpt lat="46.0448" lon="4.69795">
        <ele>197</ele>
        <time>2018-03-24T10:22:50Z</time>
      </trkpt>
      <trkpt lat="46.04483" lon="4.69794">
        <ele>197</ele>
        <time>2018-03-24T10:22:51Z</time>
      </trkpt>
      <trkpt lat="46.04489" lon="4.69792">
        <ele>197</ele>
        <time>2018-03-24T10:22:53Z</time>
      </trkpt>
      <trkpt lat="46.04493" lon="4.69791">
        <ele>197</ele>
        <time>2018-03-24T10:22:54Z</time>
      </trkpt>
      <trkpt lat="46.04499" lon="4.69789">
        <ele>197</ele>
        <time>2018-03-24T10:22:56Z</time>
      </trkpt>
      <trkpt lat="46.04502" lon="4.69789">
        <ele>199</ele>
        <time>2018-03-24T10:22:57Z</time>
      </trkpt>
      <trkpt lat="46.04509" lon="4.69789">
        <ele>199</ele>
        <time>2018-03-24T10:22:59Z</time>
      </trkpt>
      <trkpt lat="46.04511" lon="4.69789">
        <ele>199</ele>
        <time>2018-03-24T10:23:00Z</time>
      </trkpt>
      <trkpt lat="46.0452" lon="4.69789">
        <ele>199</ele>
        <time>2018-03-24T10:23:03Z</time>
      </trkpt>
      <trkpt lat="46.04523" lon="4.6979">
        <ele>199</ele>
        <time>2018-03-24T10:23:04Z</time>
      </trkpt>
      <trkpt lat="46.0453" lon="4.69791">
        <ele>199</ele>
        <time>2018-03-24T10:23:07Z</time>
      </trkpt>
      <trkpt lat="46.04533" lon="4.69791">
        <ele>199</ele>
        <time>2018-03-24T10:23:08Z</time>
      </trkpt>
      <trkpt lat="46.0454" lon="4.69792">
        <ele>199</ele>
        <time>2018-03-24T10:23:11Z</time>
      </trkpt>
      <trkpt lat="46.04543" lon="4.69792">
        <ele>199</ele>
        <time>2018-03-24T10:23:12Z</time>
      </trkpt>
      <trkpt lat="46.04548" lon="4.69794">
        <ele>199</ele>
        <time>2018-03-24T10:23:14Z</time>
      </trkpt>
      <trkpt lat="46.04556" lon="4.69797">
        <ele>199</ele>
        <time>2018-03-24T10:23:15Z</time>
      </trkpt>
      <trkpt lat="46.04564" lon="4.69799">
        <ele>200</ele>
        <time>2018-03-24T10:23:17Z</time>
      </trkpt>
      <trkpt lat="46.04568" lon="4.698">
        <ele>200</ele>
        <time>2018-03-24T10:23:18Z</time>
      </trkpt>
      <trkpt lat="46.04576" lon="4.69802">
        <ele>200</ele>
        <time>2018-03-24T10:23:20Z</time>
      </trkpt>
      <trkpt lat="46.0458" lon="4.69803">
        <ele>200</ele>
        <time>2018-03-24T10:23:21Z</time>
      </trkpt>
      <trkpt lat="46.04588" lon="4.69806">
        <ele>201</ele>
        <time>2018-03-24T10:23:23Z</time>
      </trkpt>
      <trkpt lat="46.04592" lon="4.69808">
        <ele>201</ele>
        <time>2018-03-24T10:23:24Z</time>
      </trkpt>
      <trkpt lat="46.046" lon="4.69811">
        <ele>201</ele>
        <time>2018-03-24T10:23:26Z</time>
      </trkpt>
      <trkpt lat="46.04604" lon="4.69812">
        <ele>201</ele>
        <time>2018-03-24T10:23:27Z</time>
      </trkpt>
      <trkpt lat="46.04612" lon="4.69814">
        <ele>201</ele>
        <time>2018-03-24T10:23:29Z</time>
      </trkpt>
      <trkpt lat="46.04615" lon="4.69816">
        <ele>201</ele>
        <time>2018-03-24T10:23:30Z</time>
      </trkpt>
      <trkpt lat="46.04623" lon="4.69818">
        <ele>202</ele>
        <time>2018-03-24T10:23:32Z</time>
      </trkpt>
      <trkpt lat="46.04627" lon="4.6982">
        <ele>202</ele>
        <time>2018-03-24T10:23:33Z</time>
      </trkpt>
      <trkpt lat="46.04636" lon="4.69823">
        <ele>202</ele>
        <time>2018-03-24T10:23:35Z</time>
      </trkpt>
      <trkpt lat="46.0464" lon="4.69825">
        <ele>202</ele>
        <time>2018-03-24T10:23:36Z</time>
      </trkpt>
      <trkpt lat="46.04645" lon="4.69826">
        <ele>202</ele>
        <time>2018-03-24T10:23:37Z</time>
      </trkpt>
      <trkpt lat="46.04649" lon="4.69828">
        <ele>202</ele>
        <time>2018-03-24T10:23:38Z</time>
      </trkpt>
      <trkpt lat="46.04657" lon="4.69832">
        <ele>203</ele>
        <time>2018-03-24T10:23:40Z</time>
      </trkpt>
      <trkpt lat="46.04662" lon="4.69832">
        <ele>203</ele>
        <time>2018-03-24T10:23:41Z</time>
      </trkpt>
      <trkpt lat="46.0467" lon="4.69835">
        <ele>203</ele>
        <time>2018-03-24T10:23:43Z</time>
      </trkpt>
      <trkpt lat="46.04674" lon="4.69837">
        <ele>203</ele>
        <time>2018-03-24T10:23:44Z</time>
      </trkpt>
      <trkpt lat="46.04682" lon="4.69839">
        <ele>202</ele>
        <time>2018-03-24T10:23:46Z</time>
      </trkpt>
      <trkpt lat="46.04686" lon="4.6984">
        <ele>202</ele>
        <time>2018-03-24T10:23:47Z</time>
      </trkpt>
      <trkpt lat="46.04694" lon="4.69842">
        <ele>202</ele>
        <time>2018-03-24T10:23:49Z</time>
      </trkpt>
      <trkpt lat="46.04698" lon="4.69842">
        <ele>202</ele>
        <time>2018-03-24T10:23:50Z</time>
      </trkpt>
      <trkpt lat="46.04706" lon="4.69845">
        <ele>202</ele>
        <time>2018-03-24T10:23:52Z</time>
      </trkpt>
      <trkpt lat="46.04711" lon="4.69845">
        <ele>203</ele>
        <time>2018-03-24T10:23:53Z</time>
      </trkpt>
      <trkpt lat="46.04719" lon="4.69846">
        <ele>203</ele>
        <time>2018-03-24T10:23:55Z</time>
      </trkpt>
      <trkpt lat="46.04723" lon="4.69845">
        <ele>203</ele>
        <time>2018-03-24T10:23:56Z</time>
      </trkpt>
      <trkpt lat="46.04732" lon="4.69844">
        <ele>203</ele>
        <time>2018-03-24T10:23:58Z</time>
      </trkpt>
      <trkpt lat="46.04736" lon="4.69845">
        <ele>203</ele>
        <time>2018-03-24T10:23:59Z</time>
      </trkpt>
      <trkpt lat="46.04741" lon="4.69845">
        <ele>204</ele>
        <time>2018-03-24T10:24:00Z</time>
      </trkpt>
      <trkpt lat="46.04746" lon="4.69845">
        <ele>204</ele>
        <time>2018-03-24T10:24:01Z</time>
      </trkpt>
      <trkpt lat="46.04753" lon="4.69849">
        <ele>204</ele>
        <time>2018-03-24T10:24:03Z</time>
      </trkpt>
      <trkpt lat="46.04756" lon="4.69849">
        <ele>204</ele>
        <time>2018-03-24T10:24:04Z</time>
      </trkpt>
      <trkpt lat="46.04763" lon="4.69849">
        <ele>204</ele>
        <time>2018-03-24T10:24:06Z</time>
      </trkpt>
      <trkpt lat="46.04768" lon="4.69852">
        <ele>204</ele>
        <time>2018-03-24T10:24:07Z</time>
      </trkpt>
      <trkpt lat="46.04775" lon="4.69849">
        <ele>204</ele>
        <time>2018-03-24T10:24:09Z</time>
      </trkpt>
      <trkpt lat="46.04779" lon="4.69849">
        <ele>204</ele>
        <time>2018-03-24T10:24:10Z</time>
      </trkpt>
      <trkpt lat="46.04786" lon="4.6985">
        <ele>204</ele>
        <time>2018-03-24T10:24:12Z</time>
      </trkpt>
      <trkpt lat="46.0479" lon="4.69848">
        <ele>205</ele>
        <time>2018-03-24T10:24:13Z</time>
      </trkpt>
      <trkpt lat="46.04796" lon="4.69843">
        <ele>205</ele>
        <time>2018-03-24T10:24:15Z</time>
      </trkpt>
      <trkpt lat="46.04798" lon="4.6984">
        <ele>205</ele>
        <time>2018-03-24T10:24:16Z</time>
      </trkpt>
      <trkpt lat="46.04801" lon="4.69833">
        <ele>206</ele>
        <time>2018-03-24T10:24:17Z</time>
      </trkpt>
      <trkpt lat="46.04801" lon="4.69828">
        <ele>206</ele>
        <time>2018-03-24T10:24:18Z</time>
      </trkpt>
      <trkpt lat="46.04805" lon="4.69816">
        <ele>206</ele>
        <time>2018-03-24T10:24:22Z</time>
      </trkpt>
      <trkpt lat="46.04807" lon="4.69814">
        <ele>206</ele>
        <time>2018-03-24T10:24:23Z</time>
      </trkpt>
      <trkpt lat="46.04814" lon="4.69815">
        <ele>207</ele>
        <time>2018-03-24T10:24:26Z</time>
      </trkpt>
      <trkpt lat="46.04817" lon="4.69815">
        <ele>207</ele>
        <time>2018-03-24T10:24:27Z</time>
      </trkpt>
      <trkpt lat="46.0482" lon="4.69816">
        <ele>207</ele>
        <time>2018-03-24T10:24:28Z</time>
      </trkpt>
      <trkpt lat="46.04827" lon="4.69819">
        <ele>207</ele>
        <time>2018-03-24T10:24:29Z</time>
      </trkpt>
      <trkpt lat="46.04831" lon="4.69821">
        <ele>207</ele>
        <time>2018-03-24T10:24:31Z</time>
      </trkpt>
      <trkpt lat="46.04836" lon="4.69824">
        <ele>207</ele>
        <time>2018-03-24T10:24:32Z</time>
      </trkpt>
      <trkpt lat="46.04844" lon="4.69828">
        <ele>207</ele>
        <time>2018-03-24T10:24:34Z</time>
      </trkpt>
      <trkpt lat="46.04848" lon="4.6983">
        <ele>207</ele>
        <time>2018-03-24T10:24:35Z</time>
      </trkpt>
      <trkpt lat="46.04852" lon="4.69832">
        <ele>207</ele>
        <time>2018-03-24T10:24:36Z</time>
      </trkpt>
      <trkpt lat="46.04857" lon="4.69835">
        <ele>206</ele>
        <time>2018-03-24T10:24:37Z</time>
      </trkpt>
      <trkpt lat="46.04865" lon="4.6984">
        <ele>206</ele>
        <time>2018-03-24T10:24:39Z</time>
      </trkpt>
      <trkpt lat="46.04869" lon="4.69843">
        <ele>206</ele>
        <time>2018-03-24T10:24:40Z</time>
      </trkpt>
      <trkpt lat="46.04876" lon="4.69849">
        <ele>206</ele>
        <time>2018-03-24T10:24:42Z</time>
      </trkpt>
      <trkpt lat="46.04881" lon="4.6985">
        <ele>206</ele>
        <time>2018-03-24T10:24:43Z</time>
      </trkpt>
      <trkpt lat="46.04885" lon="4.69853">
        <ele>206</ele>
        <time>2018-03-24T10:24:44Z</time>
      </trkpt>
      <trkpt lat="46.04889" lon="4.69855">
        <ele>206</ele>
        <time>2018-03-24T10:24:45Z</time>
      </trkpt>
      <trkpt lat="46.04898" lon="4.6986">
        <ele>206</ele>
        <time>2018-03-24T10:24:47Z</time>
      </trkpt>
      <trkpt lat="46.04903" lon="4.69862">
        <ele>206</ele>
        <time>2018-03-24T10:24:48Z</time>
      </trkpt>
      <trkpt lat="46.04908" lon="4.69864">
        <ele>206</ele>
        <time>2018-03-24T10:24:49Z</time>
      </trkpt>
      <trkpt lat="46.04913" lon="4.69867">
        <ele>206</ele>
        <time>2018-03-24T10:24:50Z</time>
      </trkpt>
      <trkpt lat="46.04918" lon="4.6987">
        <ele>207</ele>
        <time>2018-03-24T10:24:51Z</time>
      </trkpt>
      <trkpt lat="46.04922" lon="4.69872">
        <ele>207</ele>
        <time>2018-03-24T10:24:52Z</time>
      </trkpt>
      <trkpt lat="46.04929" lon="4.69878">
        <ele>207</ele>
        <time>2018-03-24T10:24:54Z</time>
      </trkpt>
      <trkpt lat="46.04934" lon="4.69886">
        <ele>207</ele>
        <time>2018-03-24T10:24:55Z</time>
      </trkpt>
      <trkpt lat="46.04941" lon="4.69891">
        <ele>207</ele>
        <time>2018-03-24T10:24:57Z</time>
      </trkpt>
      <trkpt lat="46.04943" lon="4.69896">
        <ele>207</ele>
        <time>2018-03-24T10:24:58Z</time>
      </trkpt>
      <trkpt lat="46.04951" lon="4.69902">
        <ele>207</ele>
        <time>2018-03-24T10:25:00Z</time>
      </trkpt>
      <trkpt lat="46.04954" lon="4.69905">
        <ele>207</ele>
        <time>2018-03-24T10:25:01Z</time>
      </trkpt>
      <trkpt lat="46.04957" lon="4.6991">
        <ele>207</ele>
        <time>2018-03-24T10:25:02Z</time>
      </trkpt>
      <trkpt lat="46.04961" lon="4.69917">
        <ele>206</ele>
        <time>2018-03-24T10:25:03Z</time>
      </trkpt>
      <trkpt lat="46.04966" lon="4.69923">
        <ele>206</ele>
        <time>2018-03-24T10:25:05Z</time>
      </trkpt>
      <trkpt lat="46.04973" lon="4.6993">
        <ele>206</ele>
        <time>2018-03-24T10:25:06Z</time>
      </trkpt>
      <trkpt lat="46.04977" lon="4.69935">
        <ele>206</ele>
        <time>2018-03-24T10:25:07Z</time>
      </trkpt>
      <trkpt lat="46.04979" lon="4.6994">
        <ele>206</ele>
        <time>2018-03-24T10:25:08Z</time>
      </trkpt>
      <trkpt lat="46.04981" lon="4.69947">
        <ele>206</ele>
        <time>2018-03-24T10:25:09Z</time>
      </trkpt>
      <trkpt lat="46.04985" lon="4.69952">
        <ele>206</ele>
        <time>2018-03-24T10:25:10Z</time>
      </trkpt>
      <trkpt lat="46.04989" lon="4.69955">
        <ele>206</ele>
        <time>2018-03-24T10:25:11Z</time>
      </trkpt>
      <trkpt lat="46.04993" lon="4.69962">
        <ele>205</ele>
        <time>2018-03-24T10:25:12Z</time>
      </trkpt>
      <trkpt lat="46.04998" lon="4.6997">
        <ele>205</ele>
        <time>2018-03-24T10:25:14Z</time>
      </trkpt>
      <trkpt lat="46.05003" lon="4.69974">
        <ele>205</ele>
        <time>2018-03-24T10:25:15Z</time>
      </trkpt>
      <trkpt lat="46.05006" lon="4.6998">
        <ele>205</ele>
        <time>2018-03-24T10:25:16Z</time>
      </trkpt>
      <trkpt lat="46.05009" lon="4.69985">
        <ele>205</ele>
        <time>2018-03-24T10:25:17Z</time>
      </trkpt>
      <trkpt lat="46.05012" lon="4.69991">
        <ele>205</ele>
        <time>2018-03-24T10:25:18Z</time>
      </trkpt>
      <trkpt lat="46.05016" lon="4.69996">
        <ele>205</ele>
        <time>2018-03-24T10:25:19Z</time>
      </trkpt>
      <trkpt lat="46.0502" lon="4.70002">
        <ele>204</ele>
        <time>2018-03-24T10:25:20Z</time>
      </trkpt>
      <trkpt lat="46.05026" lon="4.70006">
        <ele>204</ele>
        <time>2018-03-24T10:25:21Z</time>
      </trkpt>
      <trkpt lat="46.0503" lon="4.70011">
        <ele>204</ele>
        <time>2018-03-24T10:25:22Z</time>
      </trkpt>
      <trkpt lat="46.05034" lon="4.70015">
        <ele>204</ele>
        <time>2018-03-24T10:25:23Z</time>
      </trkpt>
      <trkpt lat="46.05038" lon="4.70018">
        <ele>204</ele>
        <time>2018-03-24T10:25:24Z</time>
      </trkpt>
      <trkpt lat="46.05043" lon="4.70022">
        <ele>204</ele>
        <time>2018-03-24T10:25:25Z</time>
      </trkpt>
      <trkpt lat="46.05047" lon="4.70026">
        <ele>204</ele>
        <time>2018-03-24T10:25:26Z</time>
      </trkpt>
      <trkpt lat="46.05052" lon="4.70029">
        <ele>204</ele>
        <time>2018-03-24T10:25:27Z</time>
      </trkpt>
      <trkpt lat="46.05057" lon="4.70031">
        <ele>204</ele>
        <time>2018-03-24T10:25:28Z</time>
      </trkpt>
      <trkpt lat="46.05062" lon="4.70033">
        <ele>204</ele>
        <time>2018-03-24T10:25:29Z</time>
      </trkpt>
      <trkpt lat="46.05067" lon="4.70036">
        <ele>204</ele>
        <time>2018-03-24T10:25:30Z</time>
      </trkpt>
      <trkpt lat="46.05072" lon="4.70036">
        <ele>204</ele>
        <time>2018-03-24T10:25:31Z</time>
      </trkpt>
      <trkpt lat="46.05078" lon="4.70035">
        <ele>204</ele>
        <time>2018-03-24T10:25:32Z</time>
      </trkpt>
      <trkpt lat="46.05084" lon="4.70033">
        <ele>203</ele>
        <time>2018-03-24T10:25:33Z</time>
      </trkpt>
      <trkpt lat="46.05088" lon="4.70029">
        <ele>203</ele>
        <time>2018-03-24T10:25:34Z</time>
      </trkpt>
      <trkpt lat="46.05092" lon="4.70023">
        <ele>203</ele>
        <time>2018-03-24T10:25:35Z</time>
      </trkpt>
      <trkpt lat="46.05095" lon="4.70017">
        <ele>203</ele>
        <time>2018-03-24T10:25:36Z</time>
      </trkpt>
      <trkpt lat="46.05097" lon="4.70011">
        <ele>203</ele>
        <time>2018-03-24T10:25:37Z</time>
      </trkpt>
      <trkpt lat="46.05099" lon="4.70003">
        <ele>203</ele>
        <time>2018-03-24T10:25:38Z</time>
      </trkpt>
      <trkpt lat="46.05101" lon="4.69996">
        <ele>204</ele>
        <time>2018-03-24T10:25:39Z</time>
      </trkpt>
      <trkpt lat="46.05105" lon="4.69989">
        <ele>203</ele>
        <time>2018-03-24T10:25:40Z</time>
      </trkpt>
      <trkpt lat="46.05106" lon="4.69981">
        <ele>203</ele>
        <time>2018-03-24T10:25:41Z</time>
      </trkpt>
      <trkpt lat="46.05109" lon="4.69974">
        <ele>203</ele>
        <time>2018-03-24T10:25:42Z</time>
      </trkpt>
      <trkpt lat="46.0511" lon="4.69966">
        <ele>203</ele>
        <time>2018-03-24T10:25:43Z</time>
      </trkpt>
      <trkpt lat="46.05109" lon="4.69958">
        <ele>203</ele>
        <time>2018-03-24T10:25:44Z</time>
      </trkpt>
      <trkpt lat="46.05109" lon="4.6995">
        <ele>203</ele>
        <time>2018-03-24T10:25:45Z</time>
      </trkpt>
      <trkpt lat="46.05111" lon="4.69941">
        <ele>203</ele>
        <time>2018-03-24T10:25:46Z</time>
      </trkpt>
      <trkpt lat="46.05113" lon="4.69934">
        <ele>203</ele>
        <time>2018-03-24T10:25:47Z</time>
      </trkpt>
      <trkpt lat="46.05114" lon="4.69926">
        <ele>203</ele>
        <time>2018-03-24T10:25:48Z</time>
      </trkpt>
      <trkpt lat="46.05116" lon="4.69918">
        <ele>203</ele>
        <time>2018-03-24T10:25:49Z</time>
      </trkpt>
      <trkpt lat="46.05117" lon="4.6991">
        <ele>203</ele>
        <time>2018-03-24T10:25:50Z</time>
      </trkpt>
      <trkpt lat="46.05118" lon="4.69903">
        <ele>203</ele>
        <time>2018-03-24T10:25:51Z</time>
      </trkpt>
      <trkpt lat="46.05119" lon="4.69896">
        <ele>203</ele>
        <time>2018-03-24T10:25:52Z</time>
      </trkpt>
      <trkpt lat="46.0512" lon="4.69889">
        <ele>203</ele>
        <time>2018-03-24T10:25:53Z</time>
      </trkpt>
      <trkpt lat="46.05121" lon="4.69883">
        <ele>204</ele>
        <time>2018-03-24T10:25:54Z</time>
      </trkpt>
      <trkpt lat="46.05121" lon="4.69876">
        <ele>204</ele>
        <time>2018-03-24T10:25:55Z</time>
      </trkpt>
      <trkpt lat="46.05122" lon="4.6987">
        <ele>204</ele>
        <time>2018-03-24T10:25:56Z</time>
      </trkpt>
      <trkpt lat="46.05123" lon="4.69863">
        <ele>204</ele>
        <time>2018-03-24T10:25:57Z</time>
      </trkpt>
      <trkpt lat="46.05125" lon="4.69851">
        <ele>204</ele>
        <time>2018-03-24T10:25:59Z</time>
      </trkpt>
      <trkpt lat="46.05126" lon="4.69845">
        <ele>204</ele>
        <time>2018-03-24T10:26:00Z</time>
      </trkpt>
      <trkpt lat="46.05128" lon="4.69838">
        <ele>204</ele>
        <time>2018-03-24T10:26:01Z</time>
      </trkpt>
      <trkpt lat="46.05131" lon="4.69832">
        <ele>204</ele>
        <time>2018-03-24T10:26:02Z</time>
      </trkpt>
      <trkpt lat="46.05135" lon="4.69828">
        <ele>204</ele>
        <time>2018-03-24T10:26:03Z</time>
      </trkpt>
      <trkpt lat="46.05139" lon="4.69824">
        <ele>204</ele>
        <time>2018-03-24T10:26:04Z</time>
      </trkpt>
      <trkpt lat="46.05145" lon="4.69824">
        <ele>204</ele>
        <time>2018-03-24T10:26:05Z</time>
      </trkpt>
      <trkpt lat="46.0515" lon="4.69825">
        <ele>204</ele>
        <time>2018-03-24T10:26:06Z</time>
      </trkpt>
      <trkpt lat="46.05155" lon="4.69828">
        <ele>204</ele>
        <time>2018-03-24T10:26:07Z</time>
      </trkpt>
      <trkpt lat="46.0516" lon="4.69829">
        <ele>203</ele>
        <time>2018-03-24T10:26:08Z</time>
      </trkpt>
      <trkpt lat="46.05166" lon="4.69831">
        <ele>203</ele>
        <time>2018-03-24T10:26:09Z</time>
      </trkpt>
      <trkpt lat="46.05171" lon="4.69834">
        <ele>203</ele>
        <time>2018-03-24T10:26:10Z</time>
      </trkpt>
      <trkpt lat="46.05177" lon="4.69836">
        <ele>202</ele>
        <time>2018-03-24T10:26:11Z</time>
      </trkpt>
      <trkpt lat="46.05183" lon="4.69838">
        <ele>202</ele>
        <time>2018-03-24T10:26:12Z</time>
      </trkpt>
      <trkpt lat="46.05188" lon="4.6984">
        <ele>202</ele>
        <time>2018-03-24T10:26:13Z</time>
      </trkpt>
      <trkpt lat="46.05195" lon="4.69842">
        <ele>202</ele>
        <time>2018-03-24T10:26:14Z</time>
      </trkpt>
      <trkpt lat="46.05202" lon="4.69844">
        <ele>201</ele>
        <time>2018-03-24T10:26:15Z</time>
      </trkpt>
      <trkpt lat="46.05208" lon="4.69847">
        <ele>201</ele>
        <time>2018-03-24T10:26:16Z</time>
      </trkpt>
      <trkpt lat="46.05214" lon="4.69849">
        <ele>201</ele>
        <time>2018-03-24T10:26:17Z</time>
      </trkpt>
      <trkpt lat="46.05221" lon="4.69853">
        <ele>201</ele>
        <time>2018-03-24T10:26:18Z</time>
      </trkpt>
      <trkpt lat="46.05227" lon="4.69855">
        <ele>201</ele>
        <time>2018-03-24T10:26:19Z</time>
      </trkpt>
      <trkpt lat="46.05233" lon="4.69856">
        <ele>201</ele>
        <time>2018-03-24T10:26:20Z</time>
      </trkpt>
      <trkpt lat="46.0524" lon="4.69859">
        <ele>201</ele>
        <time>2018-03-24T10:26:21Z</time>
      </trkpt>
      <trkpt lat="46.05247" lon="4.6986">
        <ele>201</ele>
        <time>2018-03-24T10:26:22Z</time>
      </trkpt>
      <trkpt lat="46.05253" lon="4.69862">
        <ele>199</ele>
        <time>2018-03-24T10:26:23Z</time>
      </trkpt>
      <trkpt lat="46.0526" lon="4.69864">
        <ele>199</ele>
        <time>2018-03-24T10:26:24Z</time>
      </trkpt>
      <trkpt lat="46.05265" lon="4.69867">
        <ele>199</ele>
        <time>2018-03-24T10:26:25Z</time>
      </trkpt>
      <trkpt lat="46.05272" lon="4.6987">
        <ele>199</ele>
        <time>2018-03-24T10:26:26Z</time>
      </trkpt>
      <trkpt lat="46.05279" lon="4.69871">
        <ele>199</ele>
        <time>2018-03-24T10:26:27Z</time>
      </trkpt>
      <trkpt lat="46.05285" lon="4.69872">
        <ele>199</ele>
        <time>2018-03-24T10:26:28Z</time>
      </trkpt>
      <trkpt lat="46.05292" lon="4.69874">
        <ele>199</ele>
        <time>2018-03-24T10:26:29Z</time>
      </trkpt>
      <trkpt lat="46.05298" lon="4.69875">
        <ele>199</ele>
        <time>2018-03-24T10:26:30Z</time>
      </trkpt>
      <trkpt lat="46.05304" lon="4.69877">
        <ele>199</ele>
        <time>2018-03-24T10:26:31Z</time>
      </trkpt>
      <trkpt lat="46.0531" lon="4.69878">
        <ele>199</ele>
        <time>2018-03-24T10:26:32Z</time>
      </trkpt>
      <trkpt lat="46.05316" lon="4.6988">
        <ele>199</ele>
        <time>2018-03-24T10:26:33Z</time>
      </trkpt>
      <trkpt lat="46.05322" lon="4.6988">
        <ele>199</ele>
        <time>2018-03-24T10:26:34Z</time>
      </trkpt>
      <trkpt lat="46.05329" lon="4.69881">
        <ele>199</ele>
        <time>2018-03-24T10:26:35Z</time>
      </trkpt>
      <trkpt lat="46.05335" lon="4.69882">
        <ele>199</ele>
        <time>2018-03-24T10:26:36Z</time>
      </trkpt>
      <trkpt lat="46.05342" lon="4.69883">
        <ele>199</ele>
        <time>2018-03-24T10:26:37Z</time>
      </trkpt>
      <trkpt lat="46.05348" lon="4.69885">
        <ele>199</ele>
        <time>2018-03-24T10:26:38Z</time>
      </trkpt>
      <trkpt lat="46.05354" lon="4.69886">
        <ele>199</ele>
        <time>2018-03-24T10:26:39Z</time>
      </trkpt>
      <trkpt lat="46.0536" lon="4.69888">
        <ele>199</ele>
        <time>2018-03-24T10:26:40Z</time>
      </trkpt>
      <trkpt lat="46.05366" lon="4.69891">
        <ele>199</ele>
        <time>2018-03-24T10:26:41Z</time>
      </trkpt>
      <trkpt lat="46.05372" lon="4.69894">
        <ele>199</ele>
        <time>2018-03-24T10:26:42Z</time>
      </trkpt>
      <trkpt lat="46.05378" lon="4.69897">
        <ele>199</ele>
        <time>2018-03-24T10:26:43Z</time>
      </trkpt>
      <trkpt lat="46.05385" lon="4.69899">
        <ele>199</ele>
        <time>2018-03-24T10:26:44Z</time>
      </trkpt>
      <trkpt lat="46.05391" lon="4.699">
        <ele>199</ele>
        <time>2018-03-24T10:26:45Z</time>
      </trkpt>
      <trkpt lat="46.05396" lon="4.69904">
        <ele>199</ele>
        <time>2018-03-24T10:26:46Z</time>
      </trkpt>
      <trkpt lat="46.05402" lon="4.69905">
        <ele>199</ele>
        <time>2018-03-24T10:26:47Z</time>
      </trkpt>
      <trkpt lat="46.05407" lon="4.69906">
        <ele>199</ele>
        <time>2018-03-24T10:26:48Z</time>
      </trkpt>
      <trkpt lat="46.05413" lon="4.69905">
        <ele>199</ele>
        <time>2018-03-24T10:26:49Z</time>
      </trkpt>
      <trkpt lat="46.05419" lon="4.69904">
        <ele>199</ele>
        <time>2018-03-24T10:26:50Z</time>
      </trkpt>
      <trkpt lat="46.05424" lon="4.69903">
        <ele>199</ele>
        <time>2018-03-24T10:26:51Z</time>
      </trkpt>
      <trkpt lat="46.05429" lon="4.69901">
        <ele>199</ele>
        <time>2018-03-24T10:26:52Z</time>
      </trkpt>
      <trkpt lat="46.05433" lon="4.699">
        <ele>199</ele>
        <time>2018-03-24T10:26:53Z</time>
      </trkpt>
      <trkpt lat="46.05439" lon="4.69899">
        <ele>199</ele>
        <time>2018-03-24T10:26:54Z</time>
      </trkpt>
      <trkpt lat="46.05444" lon="4.69897">
        <ele>199</ele>
        <time>2018-03-24T10:26:55Z</time>
      </trkpt>
      <trkpt lat="46.05449" lon="4.69896">
        <ele>199</ele>
        <time>2018-03-24T10:26:56Z</time>
      </trkpt>
      <trkpt lat="46.05454" lon="4.69895">
        <ele>199</ele>
        <time>2018-03-24T10:26:57Z</time>
      </trkpt>
      <trkpt lat="46.05459" lon="4.69893">
        <ele>199</ele>
        <time>2018-03-24T10:26:58Z</time>
      </trkpt>
      <trkpt lat="46.05464" lon="4.6989">
        <ele>199</ele>
        <time>2018-03-24T10:26:59Z</time>
      </trkpt>
      <trkpt lat="46.05469" lon="4.69888">
        <ele>199</ele>
        <time>2018-03-24T10:27:00Z</time>
      </trkpt>
      <trkpt lat="46.05474" lon="4.69886">
        <ele>199</ele>
        <time>2018-03-24T10:27:01Z</time>
      </trkpt>
      <trkpt lat="46.05479" lon="4.69884">
        <ele>199</ele>
        <time>2018-03-24T10:27:02Z</time>
      </trkpt>
      <trkpt lat="46.05484" lon="4.69883">
        <ele>199</ele>
        <time>2018-03-24T10:27:03Z</time>
      </trkpt>
      <trkpt lat="46.05489" lon="4.69881">
        <ele>199</ele>
        <time>2018-03-24T10:27:04Z</time>
      </trkpt>
      <trkpt lat="46.05494" lon="4.69879">
        <ele>199</ele>
        <time>2018-03-24T10:27:05Z</time>
      </trkpt>
      <trkpt lat="46.05498" lon="4.69877">
        <ele>199</ele>
        <time>2018-03-24T10:27:06Z</time>
      </trkpt>
      <trkpt lat="46.05503" lon="4.69876">
        <ele>199</ele>
        <time>2018-03-24T10:27:07Z</time>
      </trkpt>
      <trkpt lat="46.05507" lon="4.69874">
        <ele>199</ele>
        <time>2018-03-24T10:27:08Z</time>
      </trkpt>
      <trkpt lat="46.05512" lon="4.69872">
        <ele>199</ele>
        <time>2018-03-24T10:27:09Z</time>
      </trkpt>
      <trkpt lat="46.05517" lon="4.6987">
        <ele>199</ele>
        <time>2018-03-24T10:27:10Z</time>
      </trkpt>
      <trkpt lat="46.05522" lon="4.69868">
        <ele>199</ele>
        <time>2018-03-24T10:27:11Z</time>
      </trkpt>
      <trkpt lat="46.05527" lon="4.69865">
        <ele>200</ele>
        <time>2018-03-24T10:27:12Z</time>
      </trkpt>
      <trkpt lat="46.05533" lon="4.69864">
        <ele>200</ele>
        <time>2018-03-24T10:27:13Z</time>
      </trkpt>
      <trkpt lat="46.05538" lon="4.69862">
        <ele>200</ele>
        <time>2018-03-24T10:27:14Z</time>
      </trkpt>
      <trkpt lat="46.05543" lon="4.6986">
        <ele>200</ele>
        <time>2018-03-24T10:27:15Z</time>
      </trkpt>
      <trkpt lat="46.05547" lon="4.69857">
        <ele>200</ele>
        <time>2018-03-24T10:27:16Z</time>
      </trkpt>
      <trkpt lat="46.05552" lon="4.69854">
        <ele>200</ele>
        <time>2018-03-24T10:27:17Z</time>
      </trkpt>
      <trkpt lat="46.05558" lon="4.69852">
        <ele>200</ele>
        <time>2018-03-24T10:27:18Z</time>
      </trkpt>
      <trkpt lat="46.05563" lon="4.69851">
        <ele>200</ele>
        <time>2018-03-24T10:27:19Z</time>
      </trkpt>
      <trkpt lat="46.05569" lon="4.69851">
        <ele>200</ele>
        <time>2018-03-24T10:27:20Z</time>
      </trkpt>
      <trkpt lat="46.05574" lon="4.69853">
        <ele>200</ele>
        <time>2018-03-24T10:27:21Z</time>
      </trkpt>
      <trkpt lat="46.05577" lon="4.69858">
        <ele>200</ele>
        <time>2018-03-24T10:27:22Z</time>
      </trkpt>
      <trkpt lat="46.0558" lon="4.69865">
        <ele>200</ele>
        <time>2018-03-24T10:27:23Z</time>
      </trkpt>
      <trkpt lat="46.05583" lon="4.69872">
        <ele>200</ele>
        <time>2018-03-24T10:27:24Z</time>
      </trkpt>
      <trkpt lat="46.05585" lon="4.69879">
        <ele>201</ele>
        <time>2018-03-24T10:27:25Z</time>
      </trkpt>
      <trkpt lat="46.05589" lon="4.69886">
        <ele>201</ele>
        <time>2018-03-24T10:27:26Z</time>
      </trkpt>
      <trkpt lat="46.05592" lon="4.69893">
        <ele>201</ele>
        <time>2018-03-24T10:27:27Z</time>
      </trkpt>
      <trkpt lat="46.05595" lon="4.699">
        <ele>201</ele>
        <time>2018-03-24T10:27:28Z</time>
      </trkpt>
      <trkpt lat="46.05599" lon="4.69906">
        <ele>201</ele>
        <time>2018-03-24T10:27:29Z</time>
      </trkpt>
      <trkpt lat="46.05602" lon="4.69912">
        <ele>201</ele>
        <time>2018-03-24T10:27:30Z</time>
      </trkpt>
      <trkpt lat="46.05606" lon="4.6992">
        <ele>201</ele>
        <time>2018-03-24T10:27:31Z</time>
      </trkpt>
      <trkpt lat="46.0561" lon="4.69927">
        <ele>201</ele>
        <time>2018-03-24T10:27:32Z</time>
      </trkpt>
      <trkpt lat="46.05614" lon="4.69934">
        <ele>201</ele>
        <time>2018-03-24T10:27:33Z</time>
      </trkpt>
      <trkpt lat="46.05619" lon="4.69942">
        <ele>200</ele>
        <time>2018-03-24T10:27:34Z</time>
      </trkpt>
      <trkpt lat="46.05621" lon="4.69947">
        <ele>200</ele>
        <time>2018-03-24T10:27:35Z</time>
      </trkpt>
      <trkpt lat="46.05624" lon="4.69953">
        <ele>200</ele>
        <time>2018-03-24T10:27:36Z</time>
      </trkpt>
      <trkpt lat="46.05629" lon="4.69962">
        <ele>200</ele>
        <time>2018-03-24T10:27:38Z</time>
      </trkpt>
      <trkpt lat="46.05633" lon="4.69968">
        <ele>200</ele>
        <time>2018-03-24T10:27:39Z</time>
      </trkpt>
      <trkpt lat="46.05635" lon="4.69974">
        <ele>200</ele>
        <time>2018-03-24T10:27:40Z</time>
      </trkpt>
      <trkpt lat="46.05638" lon="4.69981">
        <ele>200</ele>
        <time>2018-03-24T10:27:41Z</time>
      </trkpt>
      <trkpt lat="46.05641" lon="4.69987">
        <ele>200</ele>
        <time>2018-03-24T10:27:42Z</time>
      </trkpt>
      <trkpt lat="46.05644" lon="4.69993">
        <ele>200</ele>
        <time>2018-03-24T10:27:43Z</time>
      </trkpt>
      <trkpt lat="46.05647" lon="4.69999">
        <ele>200</ele>
        <time>2018-03-24T10:27:44Z</time>
      </trkpt>
      <trkpt lat="46.05651" lon="4.70004">
        <ele>200</ele>
        <time>2018-03-24T10:27:45Z</time>
      </trkpt>
      <trkpt lat="46.05655" lon="4.70013">
        <ele>200</ele>
        <time>2018-03-24T10:27:47Z</time>
      </trkpt>
      <trkpt lat="46.05659" lon="4.70019">
        <ele>200</ele>
        <time>2018-03-24T10:27:48Z</time>
      </trkpt>
      <trkpt lat="46.05662" lon="4.70024">
        <ele>200</ele>
        <time>2018-03-24T10:27:49Z</time>
      </trkpt>
      <trkpt lat="46.05665" lon="4.70033">
        <ele>200</ele>
        <time>2018-03-24T10:27:50Z</time>
      </trkpt>
      <trkpt lat="46.05668" lon="4.7004">
        <ele>199</ele>
        <time>2018-03-24T10:27:51Z</time>
      </trkpt>
      <trkpt lat="46.05671" lon="4.70046">
        <ele>199</ele>
        <time>2018-03-24T10:27:52Z</time>
      </trkpt>
      <trkpt lat="46.05673" lon="4.70053">
        <ele>199</ele>
        <time>2018-03-24T10:27:53Z</time>
      </trkpt>
      <trkpt lat="46.05677" lon="4.70061">
        <ele>199</ele>
        <time>2018-03-24T10:27:54Z</time>
      </trkpt>
      <trkpt lat="46.05679" lon="4.70068">
        <ele>199</ele>
        <time>2018-03-24T10:27:55Z</time>
      </trkpt>
      <trkpt lat="46.05683" lon="4.70073">
        <ele>199</ele>
        <time>2018-03-24T10:27:56Z</time>
      </trkpt>
      <trkpt lat="46.05687" lon="4.7008">
        <ele>199</ele>
        <time>2018-03-24T10:27:57Z</time>
      </trkpt>
      <trkpt lat="46.05691" lon="4.70088">
        <ele>198</ele>
        <time>2018-03-24T10:27:58Z</time>
      </trkpt>
      <trkpt lat="46.05695" lon="4.70094">
        <ele>198</ele>
        <time>2018-03-24T10:27:59Z</time>
      </trkpt>
      <trkpt lat="46.05698" lon="4.70101">
        <ele>198</ele>
        <time>2018-03-24T10:28:00Z</time>
      </trkpt>
      <trkpt lat="46.05702" lon="4.70109">
        <ele>198</ele>
        <time>2018-03-24T10:28:01Z</time>
      </trkpt>
      <trkpt lat="46.05704" lon="4.70115">
        <ele>198</ele>
        <time>2018-03-24T10:28:02Z</time>
      </trkpt>
      <trkpt lat="46.05707" lon="4.70121">
        <ele>198</ele>
        <time>2018-03-24T10:28:03Z</time>
      </trkpt>
      <trkpt lat="46.05711" lon="4.70128">
        <ele>198</ele>
        <time>2018-03-24T10:28:04Z</time>
      </trkpt>
      <trkpt lat="46.05714" lon="4.70135">
        <ele>198</ele>
        <time>2018-03-24T10:28:05Z</time>
      </trkpt>
      <trkpt lat="46.05718" lon="4.70142">
        <ele>198</ele>
        <time>2018-03-24T10:28:06Z</time>
      </trkpt>
      <trkpt lat="46.05722" lon="4.70148">
        <ele>198</ele>
        <time>2018-03-24T10:28:07Z</time>
      </trkpt>
      <trkpt lat="46.05725" lon="4.70155">
        <ele>198</ele>
        <time>2018-03-24T10:28:08Z</time>
      </trkpt>
      <trkpt lat="46.05728" lon="4.70161">
        <ele>198</ele>
        <time>2018-03-24T10:28:09Z</time>
      </trkpt>
      <trkpt lat="46.05731" lon="4.70167">
        <ele>198</ele>
        <time>2018-03-24T10:28:10Z</time>
      </trkpt>
      <trkpt lat="46.05734" lon="4.70174">
        <ele>198</ele>
        <time>2018-03-24T10:28:11Z</time>
      </trkpt>
      <trkpt lat="46.0574" lon="4.70181">
        <ele>198</ele>
        <time>2018-03-24T10:28:12Z</time>
      </trkpt>
      <trkpt lat="46.05744" lon="4.70189">
        <ele>198</ele>
        <time>2018-03-24T10:28:13Z</time>
      </trkpt>
      <trkpt lat="46.05748" lon="4.70195">
        <ele>198</ele>
        <time>2018-03-24T10:28:14Z</time>
      </trkpt>
      <trkpt lat="46.05752" lon="4.70202">
        <ele>198</ele>
        <time>2018-03-24T10:28:15Z</time>
      </trkpt>
      <trkpt lat="46.05756" lon="4.70208">
        <ele>198</ele>
        <time>2018-03-24T10:28:16Z</time>
      </trkpt>
      <trkpt lat="46.0576" lon="4.70215">
        <ele>198</ele>
        <time>2018-03-24T10:28:17Z</time>
      </trkpt>
      <trkpt lat="46.05764" lon="4.7022">
        <ele>198</ele>
        <time>2018-03-24T10:28:18Z</time>
      </trkpt>
      <trkpt lat="46.05768" lon="4.70227">
        <ele>198</ele>
        <time>2018-03-24T10:28:19Z</time>
      </trkpt>
      <trkpt lat="46.05772" lon="4.70235">
        <ele>198</ele>
        <time>2018-03-24T10:28:20Z</time>
      </trkpt>
      <trkpt lat="46.05776" lon="4.70243">
        <ele>198</ele>
        <time>2018-03-24T10:28:21Z</time>
      </trkpt>
      <trkpt lat="46.0578" lon="4.7025">
        <ele>198</ele>
        <time>2018-03-24T10:28:22Z</time>
      </trkpt>
      <trkpt lat="46.05784" lon="4.70256">
        <ele>198</ele>
        <time>2018-03-24T10:28:23Z</time>
      </trkpt>
      <trkpt lat="46.05789" lon="4.70263">
        <ele>198</ele>
        <time>2018-03-24T10:28:24Z</time>
      </trkpt>
      <trkpt lat="46.05794" lon="4.70267">
        <ele>197</ele>
        <time>2018-03-24T10:28:25Z</time>
      </trkpt>
      <trkpt lat="46.05798" lon="4.70274">
        <ele>197</ele>
        <time>2018-03-24T10:28:26Z</time>
      </trkpt>
      <trkpt lat="46.05801" lon="4.70277">
        <ele>197</ele>
        <time>2018-03-24T10:28:27Z</time>
      </trkpt>
      <trkpt lat="46.05805" lon="4.70283">
        <ele>197</ele>
        <time>2018-03-24T10:28:28Z</time>
      </trkpt>
      <trkpt lat="46.0581" lon="4.70292">
        <ele>197</ele>
        <time>2018-03-24T10:28:29Z</time>
      </trkpt>
      <trkpt lat="46.05813" lon="4.70299">
        <ele>197</ele>
        <time>2018-03-24T10:28:30Z</time>
      </trkpt>
      <trkpt lat="46.05817" lon="4.70306">
        <ele>197</ele>
        <time>2018-03-24T10:28:31Z</time>
      </trkpt>
      <trkpt lat="46.05821" lon="4.70312">
        <ele>197</ele>
        <time>2018-03-24T10:28:32Z</time>
      </trkpt>
      <trkpt lat="46.05826" lon="4.70319">
        <ele>197</ele>
        <time>2018-03-24T10:28:33Z</time>
      </trkpt>
      <trkpt lat="46.0583" lon="4.70324">
        <ele>197</ele>
        <time>2018-03-24T10:28:34Z</time>
      </trkpt>
      <trkpt lat="46.05834" lon="4.7033">
        <ele>197</ele>
        <time>2018-03-24T10:28:35Z</time>
      </trkpt>
      <trkpt lat="46.05838" lon="4.70337">
        <ele>197</ele>
        <time>2018-03-24T10:28:36Z</time>
      </trkpt>
      <trkpt lat="46.05844" lon="4.70344">
        <ele>197</ele>
        <time>2018-03-24T10:28:37Z</time>
      </trkpt>
      <trkpt lat="46.05849" lon="4.7035">
        <ele>196</ele>
        <time>2018-03-24T10:28:38Z</time>
      </trkpt>
      <trkpt lat="46.05853" lon="4.70357">
        <ele>196</ele>
        <time>2018-03-24T10:28:39Z</time>
      </trkpt>
      <trkpt lat="46.05857" lon="4.70363">
        <ele>196</ele>
        <time>2018-03-24T10:28:40Z</time>
      </trkpt>
      <trkpt lat="46.05862" lon="4.7037">
        <ele>196</ele>
        <time>2018-03-24T10:28:41Z</time>
      </trkpt>
      <trkpt lat="46.05866" lon="4.70376">
        <ele>196</ele>
        <time>2018-03-24T10:28:42Z</time>
      </trkpt>
      <trkpt lat="46.05871" lon="4.70382">
        <ele>196</ele>
        <time>2018-03-24T10:28:43Z</time>
      </trkpt>
      <trkpt lat="46.05875" lon="4.70388">
        <ele>196</ele>
        <time>2018-03-24T10:28:44Z</time>
      </trkpt>
      <trkpt lat="46.05879" lon="4.70393">
        <ele>196</ele>
        <time>2018-03-24T10:28:45Z</time>
      </trkpt>
      <trkpt lat="46.05884" lon="4.70401">
        <ele>196</ele>
        <time>2018-03-24T10:28:46Z</time>
      </trkpt>
      <trkpt lat="46.05889" lon="4.70407">
        <ele>196</ele>
        <time>2018-03-24T10:28:47Z</time>
      </trkpt>
      <trkpt lat="46.0589" lon="4.70414">
        <ele>196</ele>
        <time>2018-03-24T10:28:48Z</time>
      </trkpt>
      <trkpt lat="46.05894" lon="4.70421">
        <ele>195</ele>
        <time>2018-03-24T10:28:49Z</time>
      </trkpt>
      <trkpt lat="46.05898" lon="4.70426">
        <ele>195</ele>
        <time>2018-03-24T10:28:50Z</time>
      </trkpt>
      <trkpt lat="46.05902" lon="4.70433">
        <ele>195</ele>
        <time>2018-03-24T10:28:51Z</time>
      </trkpt>
      <trkpt lat="46.05906" lon="4.7044">
        <ele>195</ele>
        <time>2018-03-24T10:28:52Z</time>
      </trkpt>
      <trkpt lat="46.05911" lon="4.70445">
        <ele>195</ele>
        <time>2018-03-24T10:28:53Z</time>
      </trkpt>
      <trkpt lat="46.05915" lon="4.70453">
        <ele>195</ele>
        <time>2018-03-24T10:28:54Z</time>
      </trkpt>
      <trkpt lat="46.05918" lon="4.70459">
        <ele>195</ele>
        <time>2018-03-24T10:28:55Z</time>
      </trkpt>
      <trkpt lat="46.05922" lon="4.70467">
        <ele>195</ele>
        <time>2018-03-24T10:28:56Z</time>
      </trkpt>
      <trkpt lat="46.05925" lon="4.70475">
        <ele>195</ele>
        <time>2018-03-24T10:28:57Z</time>
      </trkpt>
      <trkpt lat="46.05927" lon="4.70482">
        <ele>195</ele>
        <time>2018-03-24T10:28:58Z</time>
      </trkpt>
      <trkpt lat="46.05929" lon="4.7049">
        <ele>195</ele>
        <time>2018-03-24T10:28:59Z</time>
      </trkpt>
      <trkpt lat="46.0593" lon="4.70498">
        <ele>196</ele>
        <time>2018-03-24T10:29:00Z</time>
      </trkpt>
      <trkpt lat="46.05931" lon="4.70506">
        <ele>195</ele>
        <time>2018-03-24T10:29:01Z</time>
      </trkpt>
      <trkpt lat="46.05929" lon="4.70515">
        <ele>195</ele>
        <time>2018-03-24T10:29:02Z</time>
      </trkpt>
      <trkpt lat="46.05927" lon="4.70523">
        <ele>195</ele>
        <time>2018-03-24T10:29:03Z</time>
      </trkpt>
      <trkpt lat="46.05926" lon="4.7053">
        <ele>195</ele>
        <time>2018-03-24T10:29:04Z</time>
      </trkpt>
      <trkpt lat="46.05924" lon="4.70538">
        <ele>195</ele>
        <time>2018-03-24T10:29:05Z</time>
      </trkpt>
      <trkpt lat="46.05922" lon="4.70545">
        <ele>195</ele>
        <time>2018-03-24T10:29:06Z</time>
      </trkpt>
      <trkpt lat="46.05918" lon="4.70552">
        <ele>195</ele>
        <time>2018-03-24T10:29:07Z</time>
      </trkpt>
      <trkpt lat="46.05915" lon="4.7056">
        <ele>195</ele>
        <time>2018-03-24T10:29:08Z</time>
      </trkpt>
      <trkpt lat="46.05913" lon="4.70567">
        <ele>195</ele>
        <time>2018-03-24T10:29:09Z</time>
      </trkpt>
      <trkpt lat="46.05911" lon="4.70575">
        <ele>195</ele>
        <time>2018-03-24T10:29:10Z</time>
      </trkpt>
      <trkpt lat="46.0591" lon="4.70584">
        <ele>195</ele>
        <time>2018-03-24T10:29:11Z</time>
      </trkpt>
      <trkpt lat="46.05908" lon="4.70593">
        <ele>194</ele>
        <time>2018-03-24T10:29:12Z</time>
      </trkpt>
      <trkpt lat="46.05908" lon="4.70602">
        <ele>194</ele>
        <time>2018-03-24T10:29:13Z</time>
      </trkpt>
      <trkpt lat="46.05907" lon="4.7061">
        <ele>194</ele>
        <time>2018-03-24T10:29:14Z</time>
      </trkpt>
      <trkpt lat="46.05906" lon="4.70619">
        <ele>194</ele>
        <time>2018-03-24T10:29:15Z</time>
      </trkpt>
      <trkpt lat="46.05905" lon="4.70627">
        <ele>194</ele>
        <time>2018-03-24T10:29:16Z</time>
      </trkpt>
      <trkpt lat="46.05904" lon="4.70635">
        <ele>194</ele>
        <time>2018-03-24T10:29:17Z</time>
      </trkpt>
      <trkpt lat="46.05903" lon="4.70643">
        <ele>194</ele>
        <time>2018-03-24T10:29:18Z</time>
      </trkpt>
      <trkpt lat="46.05902" lon="4.7065">
        <ele>194</ele>
        <time>2018-03-24T10:29:19Z</time>
      </trkpt>
      <trkpt lat="46.05902" lon="4.70658">
        <ele>194</ele>
        <time>2018-03-24T10:29:20Z</time>
      </trkpt>
      <trkpt lat="46.05901" lon="4.70666">
        <ele>194</ele>
        <time>2018-03-24T10:29:21Z</time>
      </trkpt>
      <trkpt lat="46.059" lon="4.70675">
        <ele>194</ele>
        <time>2018-03-24T10:29:22Z</time>
      </trkpt>
      <trkpt lat="46.05901" lon="4.70682">
        <ele>194</ele>
        <time>2018-03-24T10:29:23Z</time>
      </trkpt>
      <trkpt lat="46.05901" lon="4.70689">
        <ele>194</ele>
        <time>2018-03-24T10:29:24Z</time>
      </trkpt>
      <trkpt lat="46.05902" lon="4.70696">
        <ele>194</ele>
        <time>2018-03-24T10:29:25Z</time>
      </trkpt>
      <trkpt lat="46.05904" lon="4.70705">
        <ele>194</ele>
        <time>2018-03-24T10:29:26Z</time>
      </trkpt>
      <trkpt lat="46.05906" lon="4.70713">
        <ele>194</ele>
        <time>2018-03-24T10:29:27Z</time>
      </trkpt>
      <trkpt lat="46.05908" lon="4.7072">
        <ele>194</ele>
        <time>2018-03-24T10:29:28Z</time>
      </trkpt>
      <trkpt lat="46.0591" lon="4.70729">
        <ele>194</ele>
        <time>2018-03-24T10:29:29Z</time>
      </trkpt>
      <trkpt lat="46.05912" lon="4.70738">
        <ele>194</ele>
        <time>2018-03-24T10:29:30Z</time>
      </trkpt>
      <trkpt lat="46.05913" lon="4.70747">
        <ele>194</ele>
        <time>2018-03-24T10:29:31Z</time>
      </trkpt>
      <trkpt lat="46.05915" lon="4.70755">
        <ele>194</ele>
        <time>2018-03-24T10:29:32Z</time>
      </trkpt>
      <trkpt lat="46.05916" lon="4.70765">
        <ele>194</ele>
        <time>2018-03-24T10:29:33Z</time>
      </trkpt>
      <trkpt lat="46.05917" lon="4.70773">
        <ele>194</ele>
        <time>2018-03-24T10:29:34Z</time>
      </trkpt>
      <trkpt lat="46.05918" lon="4.7078">
        <ele>194</ele>
        <time>2018-03-24T10:29:35Z</time>
      </trkpt>
      <trkpt lat="46.05918" lon="4.70789">
        <ele>194</ele>
        <time>2018-03-24T10:29:36Z</time>
      </trkpt>
      <trkpt lat="46.05919" lon="4.70797">
        <ele>194</ele>
        <time>2018-03-24T10:29:37Z</time>
      </trkpt>
      <trkpt lat="46.05921" lon="4.70805">
        <ele>194</ele>
        <time>2018-03-24T10:29:38Z</time>
      </trkpt>
      <trkpt lat="46.05922" lon="4.70813">
        <ele>194</ele>
        <time>2018-03-24T10:29:39Z</time>
      </trkpt>
      <trkpt lat="46.05923" lon="4.70819">
        <ele>195</ele>
        <time>2018-03-24T10:29:40Z</time>
      </trkpt>
      <trkpt lat="46.05923" lon="4.70827">
        <ele>195</ele>
        <time>2018-03-24T10:29:41Z</time>
      </trkpt>
      <trkpt lat="46.05924" lon="4.70835">
        <ele>195</ele>
        <time>2018-03-24T10:29:42Z</time>
      </trkpt>
      <trkpt lat="46.05925" lon="4.70844">
        <ele>194</ele>
        <time>2018-03-24T10:29:43Z</time>
      </trkpt>
      <trkpt lat="46.05926" lon="4.70852">
        <ele>194</ele>
        <time>2018-03-24T10:29:44Z</time>
      </trkpt>
      <trkpt lat="46.05928" lon="4.7086">
        <ele>194</ele>
        <time>2018-03-24T10:29:45Z</time>
      </trkpt>
      <trkpt lat="46.05928" lon="4.70868">
        <ele>194</ele>
        <time>2018-03-24T10:29:46Z</time>
      </trkpt>
      <trkpt lat="46.05928" lon="4.70876">
        <ele>194</ele>
        <time>2018-03-24T10:29:47Z</time>
      </trkpt>
      <trkpt lat="46.05929" lon="4.70883">
        <ele>194</ele>
        <time>2018-03-24T10:29:48Z</time>
      </trkpt>
      <trkpt lat="46.05931" lon="4.70891">
        <ele>194</ele>
        <time>2018-03-24T10:29:49Z</time>
      </trkpt>
      <trkpt lat="46.05931" lon="4.70899">
        <ele>194</ele>
        <time>2018-03-24T10:29:50Z</time>
      </trkpt>
      <trkpt lat="46.05933" lon="4.70908">
        <ele>194</ele>
        <time>2018-03-24T10:29:51Z</time>
      </trkpt>
      <trkpt lat="46.05934" lon="4.70916">
        <ele>194</ele>
        <time>2018-03-24T10:29:52Z</time>
      </trkpt>
      <trkpt lat="46.05936" lon="4.70925">
        <ele>194</ele>
        <time>2018-03-24T10:29:53Z</time>
      </trkpt>
      <trkpt lat="46.05937" lon="4.70934">
        <ele>194</ele>
        <time>2018-03-24T10:29:54Z</time>
      </trkpt>
      <trkpt lat="46.05939" lon="4.70943">
        <ele>193</ele>
        <time>2018-03-24T10:29:55Z</time>
      </trkpt>
      <trkpt lat="46.05942" lon="4.70952">
        <ele>193</ele>
        <time>2018-03-24T10:29:56Z</time>
      </trkpt>
      <trkpt lat="46.05944" lon="4.7096">
        <ele>193</ele>
        <time>2018-03-24T10:29:57Z</time>
      </trkpt>
      <trkpt lat="46.05947" lon="4.70968">
        <ele>193</ele>
        <time>2018-03-24T10:29:58Z</time>
      </trkpt>
      <trkpt lat="46.05949" lon="4.70976">
        <ele>193</ele>
        <time>2018-03-24T10:29:59Z</time>
      </trkpt>
      <trkpt lat="46.0595" lon="4.70984">
        <ele>193</ele>
        <time>2018-03-24T10:30:00Z</time>
      </trkpt>
      <trkpt lat="46.05952" lon="4.70991">
        <ele>193</ele>
        <time>2018-03-24T10:30:01Z</time>
      </trkpt>
      <trkpt lat="46.05955" lon="4.70999">
        <ele>193</ele>
        <time>2018-03-24T10:30:02Z</time>
      </trkpt>
      <trkpt lat="46.05958" lon="4.71008">
        <ele>193</ele>
        <time>2018-03-24T10:30:03Z</time>
      </trkpt>
      <trkpt lat="46.05961" lon="4.71016">
        <ele>193</ele>
        <time>2018-03-24T10:30:04Z</time>
      </trkpt>
      <trkpt lat="46.05963" lon="4.71024">
        <ele>193</ele>
        <time>2018-03-24T10:30:05Z</time>
      </trkpt>
      <trkpt lat="46.05966" lon="4.71031">
        <ele>193</ele>
        <time>2018-03-24T10:30:06Z</time>
      </trkpt>
      <trkpt lat="46.0597" lon="4.71039">
        <ele>193</ele>
        <time>2018-03-24T10:30:07Z</time>
      </trkpt>
      <trkpt lat="46.05973" lon="4.71046">
        <ele>192</ele>
        <time>2018-03-24T10:30:08Z</time>
      </trkpt>
      <trkpt lat="46.05975" lon="4.71053">
        <ele>193</ele>
        <time>2018-03-24T10:30:09Z</time>
      </trkpt>
      <trkpt lat="46.05978" lon="4.71059">
        <ele>193</ele>
        <time>2018-03-24T10:30:10Z</time>
      </trkpt>
      <trkpt lat="46.05981" lon="4.71066">
        <ele>193</ele>
        <time>2018-03-24T10:30:11Z</time>
      </trkpt>
      <trkpt lat="46.05984" lon="4.71073">
        <ele>193</ele>
        <time>2018-03-24T10:30:12Z</time>
      </trkpt>
      <trkpt lat="46.05986" lon="4.7108">
        <ele>193</ele>
        <time>2018-03-24T10:30:13Z</time>
      </trkpt>
      <trkpt lat="46.0599" lon="4.71087">
        <ele>193</ele>
        <time>2018-03-24T10:30:14Z</time>
      </trkpt>
      <trkpt lat="46.05993" lon="4.71094">
        <ele>193</ele>
        <time>2018-03-24T10:30:15Z</time>
      </trkpt>
      <trkpt lat="46.05996" lon="4.71102">
        <ele>193</ele>
        <time>2018-03-24T10:30:16Z</time>
      </trkpt>
      <trkpt lat="46.05998" lon="4.71109">
        <ele>193</ele>
        <time>2018-03-24T10:30:17Z</time>
      </trkpt>
      <trkpt lat="46.06001" lon="4.71117">
        <ele>193</ele>
        <time>2018-03-24T10:30:18Z</time>
      </trkpt>
      <trkpt lat="46.06004" lon="4.71124">
        <ele>193</ele>
        <time>2018-03-24T10:30:19Z</time>
      </trkpt>
      <trkpt lat="46.06007" lon="4.71132">
        <ele>193</ele>
        <time>2018-03-24T10:30:20Z</time>
      </trkpt>
      <trkpt lat="46.0601" lon="4.7114">
        <ele>193</ele>
        <time>2018-03-24T10:30:21Z</time>
      </trkpt>
      <trkpt lat="46.06013" lon="4.71147">
        <ele>194</ele>
        <time>2018-03-24T10:30:22Z</time>
      </trkpt>
      <trkpt lat="46.06015" lon="4.71155">
        <ele>194</ele>
        <time>2018-03-24T10:30:23Z</time>
      </trkpt>
      <trkpt lat="46.06019" lon="4.71162">
        <ele>194</ele>
        <time>2018-03-24T10:30:24Z</time>
      </trkpt>
      <trkpt lat="46.06021" lon="4.71169">
        <ele>194</ele>
        <time>2018-03-24T10:30:25Z</time>
      </trkpt>
      <trkpt lat="46.06024" lon="4.71176">
        <ele>193</ele>
        <time>2018-03-24T10:30:26Z</time>
      </trkpt>
      <trkpt lat="46.06026" lon="4.71182">
        <ele>193</ele>
        <time>2018-03-24T10:30:27Z</time>
      </trkpt>
      <trkpt lat="46.06029" lon="4.71189">
        <ele>193</ele>
        <time>2018-03-24T10:30:28Z</time>
      </trkpt>
      <trkpt lat="46.06031" lon="4.71196">
        <ele>193</ele>
        <time>2018-03-24T10:30:29Z</time>
      </trkpt>
      <trkpt lat="46.06033" lon="4.71203">
        <ele>193</ele>
        <time>2018-03-24T10:30:30Z</time>
      </trkpt>
      <trkpt lat="46.06036" lon="4.7121">
        <ele>193</ele>
        <time>2018-03-24T10:30:31Z</time>
      </trkpt>
      <trkpt lat="46.06038" lon="4.71218">
        <ele>193</ele>
        <time>2018-03-24T10:30:32Z</time>
      </trkpt>
      <trkpt lat="46.06041" lon="4.71224">
        <ele>193</ele>
        <time>2018-03-24T10:30:33Z</time>
      </trkpt>
      <trkpt lat="46.06044" lon="4.71232">
        <ele>193</ele>
        <time>2018-03-24T10:30:34Z</time>
      </trkpt>
      <trkpt lat="46.06046" lon="4.71239">
        <ele>193</ele>
        <time>2018-03-24T10:30:35Z</time>
      </trkpt>
      <trkpt lat="46.06049" lon="4.71245">
        <ele>193</ele>
        <time>2018-03-24T10:30:36Z</time>
      </trkpt>
      <trkpt lat="46.06052" lon="4.71252">
        <ele>193</ele>
        <time>2018-03-24T10:30:37Z</time>
      </trkpt>
      <trkpt lat="46.06054" lon="4.71259">
        <ele>193</ele>
        <time>2018-03-24T10:30:38Z</time>
      </trkpt>
      <trkpt lat="46.06056" lon="4.71266">
        <ele>193</ele>
        <time>2018-03-24T10:30:39Z</time>
      </trkpt>
      <trkpt lat="46.06059" lon="4.71274">
        <ele>193</ele>
        <time>2018-03-24T10:30:40Z</time>
      </trkpt>
      <trkpt lat="46.06061" lon="4.71281">
        <ele>193</ele>
        <time>2018-03-24T10:30:41Z</time>
      </trkpt>
      <trkpt lat="46.06063" lon="4.71287">
        <ele>193</ele>
        <time>2018-03-24T10:30:42Z</time>
      </trkpt>
      <trkpt lat="46.06066" lon="4.71294">
        <ele>193</ele>
        <time>2018-03-24T10:30:43Z</time>
      </trkpt>
      <trkpt lat="46.06069" lon="4.713">
        <ele>193</ele>
        <time>2018-03-24T10:30:44Z</time>
      </trkpt>
      <trkpt lat="46.06071" lon="4.71307">
        <ele>193</ele>
        <time>2018-03-24T10:30:45Z</time>
      </trkpt>
      <trkpt lat="46.06073" lon="4.71313">
        <ele>193</ele>
        <time>2018-03-24T10:30:46Z</time>
      </trkpt>
      <trkpt lat="46.06075" lon="4.7132">
        <ele>193</ele>
        <time>2018-03-24T10:30:47Z</time>
      </trkpt>
      <trkpt lat="46.06077" lon="4.71327">
        <ele>193</ele>
        <time>2018-03-24T10:30:48Z</time>
      </trkpt>
      <trkpt lat="46.0608" lon="4.71335">
        <ele>193</ele>
        <time>2018-03-24T10:30:49Z</time>
      </trkpt>
      <trkpt lat="46.06083" lon="4.71344">
        <ele>193</ele>
        <time>2018-03-24T10:30:50Z</time>
      </trkpt>
      <trkpt lat="46.06085" lon="4.71351">
        <ele>193</ele>
        <time>2018-03-24T10:30:51Z</time>
      </trkpt>
      <trkpt lat="46.06087" lon="4.71357">
        <ele>193</ele>
        <time>2018-03-24T10:30:52Z</time>
      </trkpt>
      <trkpt lat="46.06089" lon="4.71365">
        <ele>193</ele>
        <time>2018-03-24T10:30:53Z</time>
      </trkpt>
      <trkpt lat="46.06092" lon="4.71374">
        <ele>193</ele>
        <time>2018-03-24T10:30:54Z</time>
      </trkpt>
      <trkpt lat="46.06094" lon="4.71381">
        <ele>193</ele>
        <time>2018-03-24T10:30:55Z</time>
      </trkpt>
      <trkpt lat="46.06096" lon="4.71389">
        <ele>193</ele>
        <time>2018-03-24T10:30:56Z</time>
      </trkpt>
      <trkpt lat="46.06099" lon="4.71397">
        <ele>193</ele>
        <time>2018-03-24T10:30:57Z</time>
      </trkpt>
      <trkpt lat="46.06101" lon="4.71405">
        <ele>193</ele>
        <time>2018-03-24T10:30:58Z</time>
      </trkpt>
      <trkpt lat="46.06103" lon="4.71412">
        <ele>193</ele>
        <time>2018-03-24T10:30:59Z</time>
      </trkpt>
      <trkpt lat="46.06106" lon="4.7142">
        <ele>193</ele>
        <time>2018-03-24T10:31:00Z</time>
      </trkpt>
      <trkpt lat="46.06107" lon="4.71429">
        <ele>193</ele>
        <time>2018-03-24T10:31:01Z</time>
      </trkpt>
      <trkpt lat="46.06111" lon="4.71438">
        <ele>193</ele>
        <time>2018-03-24T10:31:02Z</time>
      </trkpt>
      <trkpt lat="46.06114" lon="4.71448">
        <ele>193</ele>
        <time>2018-03-24T10:31:03Z</time>
      </trkpt>
      <trkpt lat="46.06116" lon="4.71457">
        <ele>193</ele>
        <time>2018-03-24T10:31:04Z</time>
      </trkpt>
      <trkpt lat="46.06119" lon="4.71465">
        <ele>193</ele>
        <time>2018-03-24T10:31:05Z</time>
      </trkpt>
      <trkpt lat="46.06122" lon="4.71475">
        <ele>193</ele>
        <time>2018-03-24T10:31:06Z</time>
      </trkpt>
      <trkpt lat="46.06125" lon="4.71484">
        <ele>193</ele>
        <time>2018-03-24T10:31:07Z</time>
      </trkpt>
      <trkpt lat="46.06127" lon="4.71491">
        <ele>192</ele>
        <time>2018-03-24T10:31:08Z</time>
      </trkpt>
      <trkpt lat="46.06129" lon="4.71498">
        <ele>192</ele>
        <time>2018-03-24T10:31:09Z</time>
      </trkpt>
      <trkpt lat="46.06132" lon="4.71506">
        <ele>192</ele>
        <time>2018-03-24T10:31:10Z</time>
      </trkpt>
      <trkpt lat="46.06135" lon="4.71513">
        <ele>192</ele>
        <time>2018-03-24T10:31:11Z</time>
      </trkpt>
      <trkpt lat="46.06138" lon="4.7152">
        <ele>192</ele>
        <time>2018-03-24T10:31:12Z</time>
      </trkpt>
      <trkpt lat="46.06142" lon="4.71527">
        <ele>192</ele>
        <time>2018-03-24T10:31:13Z</time>
      </trkpt>
      <trkpt lat="46.06145" lon="4.71533">
        <ele>192</ele>
        <time>2018-03-24T10:31:14Z</time>
      </trkpt>
      <trkpt lat="46.06149" lon="4.71539">
        <ele>192</ele>
        <time>2018-03-24T10:31:15Z</time>
      </trkpt>
      <trkpt lat="46.06154" lon="4.71545">
        <ele>192</ele>
        <time>2018-03-24T10:31:16Z</time>
      </trkpt>
      <trkpt lat="46.06159" lon="4.71552">
        <ele>192</ele>
        <time>2018-03-24T10:31:17Z</time>
      </trkpt>
      <trkpt lat="46.06165" lon="4.71559">
        <ele>192</ele>
        <time>2018-03-24T10:31:18Z</time>
      </trkpt>
      <trkpt lat="46.06169" lon="4.71565">
        <ele>191</ele>
        <time>2018-03-24T10:31:19Z</time>
      </trkpt>
      <trkpt lat="46.06175" lon="4.71572">
        <ele>191</ele>
        <time>2018-03-24T10:31:20Z</time>
      </trkpt>
      <trkpt lat="46.0618" lon="4.7158">
        <ele>191</ele>
        <time>2018-03-24T10:31:21Z</time>
      </trkpt>
      <trkpt lat="46.06186" lon="4.71588">
        <ele>191</ele>
        <time>2018-03-24T10:31:22Z</time>
      </trkpt>
      <trkpt lat="46.06191" lon="4.71595">
        <ele>191</ele>
        <time>2018-03-24T10:31:23Z</time>
      </trkpt>
      <trkpt lat="46.06195" lon="4.71602">
        <ele>191</ele>
        <time>2018-03-24T10:31:24Z</time>
      </trkpt>
      <trkpt lat="46.06199" lon="4.7161">
        <ele>191</ele>
        <time>2018-03-24T10:31:25Z</time>
      </trkpt>
      <trkpt lat="46.06204" lon="4.71617">
        <ele>191</ele>
        <time>2018-03-24T10:31:26Z</time>
      </trkpt>
      <trkpt lat="46.06209" lon="4.71625">
        <ele>191</ele>
        <time>2018-03-24T10:31:27Z</time>
      </trkpt>
      <trkpt lat="46.06213" lon="4.71632">
        <ele>191</ele>
        <time>2018-03-24T10:31:28Z</time>
      </trkpt>
      <trkpt lat="46.06217" lon="4.71639">
        <ele>191</ele>
        <time>2018-03-24T10:31:29Z</time>
      </trkpt>
      <trkpt lat="46.06222" lon="4.71646">
        <ele>191</ele>
        <time>2018-03-24T10:31:30Z</time>
      </trkpt>
      <trkpt lat="46.06226" lon="4.71653">
        <ele>191</ele>
        <time>2018-03-24T10:31:31Z</time>
      </trkpt>
      <trkpt lat="46.0623" lon="4.71661">
        <ele>191</ele>
        <time>2018-03-24T10:31:32Z</time>
      </trkpt>
      <trkpt lat="46.06234" lon="4.71669">
        <ele>191</ele>
        <time>2018-03-24T10:31:33Z</time>
      </trkpt>
      <trkpt lat="46.06236" lon="4.71675">
        <ele>191</ele>
        <time>2018-03-24T10:31:34Z</time>
      </trkpt>
      <trkpt lat="46.0624" lon="4.71684">
        <ele>191</ele>
        <time>2018-03-24T10:31:35Z</time>
      </trkpt>
      <trkpt lat="46.06241" lon="4.71691">
        <ele>191</ele>
        <time>2018-03-24T10:31:36Z</time>
      </trkpt>
      <trkpt lat="46.06245" lon="4.717">
        <ele>191</ele>
        <time>2018-03-24T10:31:37Z</time>
      </trkpt>
      <trkpt lat="46.06249" lon="4.71709">
        <ele>191</ele>
        <time>2018-03-24T10:31:38Z</time>
      </trkpt>
      <trkpt lat="46.06252" lon="4.71718">
        <ele>190</ele>
        <time>2018-03-24T10:31:39Z</time>
      </trkpt>
      <trkpt lat="46.06254" lon="4.71727">
        <ele>190</ele>
        <time>2018-03-24T10:31:40Z</time>
      </trkpt>
      <trkpt lat="46.06258" lon="4.71736">
        <ele>190</ele>
        <time>2018-03-24T10:31:41Z</time>
      </trkpt>
      <trkpt lat="46.06261" lon="4.71744">
        <ele>190</ele>
        <time>2018-03-24T10:31:42Z</time>
      </trkpt>
      <trkpt lat="46.06264" lon="4.71753">
        <ele>190</ele>
        <time>2018-03-24T10:31:43Z</time>
      </trkpt>
      <trkpt lat="46.06267" lon="4.71762">
        <ele>190</ele>
        <time>2018-03-24T10:31:44Z</time>
      </trkpt>
      <trkpt lat="46.0627" lon="4.71771">
        <ele>190</ele>
        <time>2018-03-24T10:31:45Z</time>
      </trkpt>
      <trkpt lat="46.06272" lon="4.71779">
        <ele>190</ele>
        <time>2018-03-24T10:31:46Z</time>
      </trkpt>
      <trkpt lat="46.06274" lon="4.71788">
        <ele>190</ele>
        <time>2018-03-24T10:31:47Z</time>
      </trkpt>
      <trkpt lat="46.06276" lon="4.71795">
        <ele>190</ele>
        <time>2018-03-24T10:31:48Z</time>
      </trkpt>
      <trkpt lat="46.06278" lon="4.71804">
        <ele>190</ele>
        <time>2018-03-24T10:31:49Z</time>
      </trkpt>
      <trkpt lat="46.0628" lon="4.71813">
        <ele>190</ele>
        <time>2018-03-24T10:31:50Z</time>
      </trkpt>
      <trkpt lat="46.06282" lon="4.71822">
        <ele>190</ele>
        <time>2018-03-24T10:31:51Z</time>
      </trkpt>
      <trkpt lat="46.06284" lon="4.71831">
        <ele>189</ele>
        <time>2018-03-24T10:31:52Z</time>
      </trkpt>
      <trkpt lat="46.06286" lon="4.71841">
        <ele>189</ele>
        <time>2018-03-24T10:31:53Z</time>
      </trkpt>
      <trkpt lat="46.06287" lon="4.7185">
        <ele>189</ele>
        <time>2018-03-24T10:31:54Z</time>
      </trkpt>
      <trkpt lat="46.0629" lon="4.71858">
        <ele>189</ele>
        <time>2018-03-24T10:31:55Z</time>
      </trkpt>
      <trkpt lat="46.06293" lon="4.71868">
        <ele>189</ele>
        <time>2018-03-24T10:31:56Z</time>
      </trkpt>
      <trkpt lat="46.06296" lon="4.71877">
        <ele>189</ele>
        <time>2018-03-24T10:31:57Z</time>
      </trkpt>
      <trkpt lat="46.063" lon="4.71887">
        <ele>189</ele>
        <time>2018-03-24T10:31:58Z</time>
      </trkpt>
      <trkpt lat="46.06302" lon="4.71895">
        <ele>189</ele>
        <time>2018-03-24T10:31:59Z</time>
      </trkpt>
      <trkpt lat="46.06305" lon="4.71905">
        <ele>189</ele>
        <time>2018-03-24T10:32:00Z</time>
      </trkpt>
      <trkpt lat="46.06309" lon="4.71914">
        <ele>189</ele>
        <time>2018-03-24T10:32:01Z</time>
      </trkpt>
      <trkpt lat="46.0631" lon="4.71921">
        <ele>190</ele>
        <time>2018-03-24T10:32:02Z</time>
      </trkpt>
      <trkpt lat="46.06313" lon="4.71929">
        <ele>190</ele>
        <time>2018-03-24T10:32:03Z</time>
      </trkpt>
      <trkpt lat="46.06314" lon="4.71936">
        <ele>190</ele>
        <time>2018-03-24T10:32:04Z</time>
      </trkpt>
      <trkpt lat="46.06317" lon="4.71943">
        <ele>190</ele>
        <time>2018-03-24T10:32:05Z</time>
      </trkpt>
      <trkpt lat="46.06319" lon="4.71951">
        <ele>190</ele>
        <time>2018-03-24T10:32:06Z</time>
      </trkpt>
      <trkpt lat="46.06319" lon="4.71957">
        <ele>190</ele>
        <time>2018-03-24T10:32:07Z</time>
      </trkpt>
      <trkpt lat="46.06321" lon="4.71963">
        <ele>190</ele>
        <time>2018-03-24T10:32:08Z</time>
      </trkpt>
      <trkpt lat="46.06323" lon="4.71968">
        <ele>190</ele>
        <time>2018-03-24T10:32:09Z</time>
      </trkpt>
      <trkpt lat="46.06325" lon="4.71975">
        <ele>190</ele>
        <time>2018-03-24T10:32:10Z</time>
      </trkpt>
      <trkpt lat="46.06326" lon="4.71983">
        <ele>190</ele>
        <time>2018-03-24T10:32:11Z</time>
      </trkpt>
      <trkpt lat="46.06328" lon="4.7199">
        <ele>189</ele>
        <time>2018-03-24T10:32:12Z</time>
      </trkpt>
      <trkpt lat="46.0633" lon="4.71997">
        <ele>189</ele>
        <time>2018-03-24T10:32:13Z</time>
      </trkpt>
      <trkpt lat="46.06331" lon="4.72004">
        <ele>189</ele>
        <time>2018-03-24T10:32:14Z</time>
      </trkpt>
      <trkpt lat="46.06335" lon="4.72012">
        <ele>189</ele>
        <time>2018-03-24T10:32:15Z</time>
      </trkpt>
      <trkpt lat="46.06337" lon="4.72018">
        <ele>189</ele>
        <time>2018-03-24T10:32:16Z</time>
      </trkpt>
      <trkpt lat="46.0634" lon="4.72027">
        <ele>189</ele>
        <time>2018-03-24T10:32:17Z</time>
      </trkpt>
      <trkpt lat="46.06341" lon="4.72035">
        <ele>189</ele>
        <time>2018-03-24T10:32:18Z</time>
      </trkpt>
      <trkpt lat="46.06343" lon="4.72044">
        <ele>189</ele>
        <time>2018-03-24T10:32:19Z</time>
      </trkpt>
      <trkpt lat="46.06345" lon="4.72052">
        <ele>189</ele>
        <time>2018-03-24T10:32:20Z</time>
      </trkpt>
      <trkpt lat="46.06348" lon="4.7206">
        <ele>189</ele>
        <time>2018-03-24T10:32:21Z</time>
      </trkpt>
      <trkpt lat="46.06351" lon="4.72069">
        <ele>189</ele>
        <time>2018-03-24T10:32:22Z</time>
      </trkpt>
      <trkpt lat="46.06355" lon="4.72077">
        <ele>189</ele>
        <time>2018-03-24T10:32:23Z</time>
      </trkpt>
      <trkpt lat="46.06358" lon="4.72086">
        <ele>189</ele>
        <time>2018-03-24T10:32:24Z</time>
      </trkpt>
      <trkpt lat="46.0636" lon="4.72093">
        <ele>189</ele>
        <time>2018-03-24T10:32:25Z</time>
      </trkpt>
      <trkpt lat="46.06362" lon="4.72101">
        <ele>189</ele>
        <time>2018-03-24T10:32:26Z</time>
      </trkpt>
      <trkpt lat="46.06365" lon="4.72108">
        <ele>189</ele>
        <time>2018-03-24T10:32:27Z</time>
      </trkpt>
      <trkpt lat="46.06367" lon="4.72116">
        <ele>189</ele>
        <time>2018-03-24T10:32:28Z</time>
      </trkpt>
      <trkpt lat="46.06371" lon="4.72123">
        <ele>189</ele>
        <time>2018-03-24T10:32:29Z</time>
      </trkpt>
      <trkpt lat="46.06372" lon="4.72131">
        <ele>189</ele>
        <time>2018-03-24T10:32:30Z</time>
      </trkpt>
      <trkpt lat="46.06376" lon="4.72138">
        <ele>189</ele>
        <time>2018-03-24T10:32:31Z</time>
      </trkpt>
      <trkpt lat="46.06378" lon="4.72145">
        <ele>189</ele>
        <time>2018-03-24T10:32:32Z</time>
      </trkpt>
      <trkpt lat="46.06381" lon="4.72152">
        <ele>189</ele>
        <time>2018-03-24T10:32:33Z</time>
      </trkpt>
      <trkpt lat="46.06382" lon="4.72159">
        <ele>189</ele>
        <time>2018-03-24T10:32:34Z</time>
      </trkpt>
      <trkpt lat="46.06384" lon="4.72166">
        <ele>189</ele>
        <time>2018-03-24T10:32:35Z</time>
      </trkpt>
      <trkpt lat="46.06387" lon="4.72173">
        <ele>189</ele>
        <time>2018-03-24T10:32:36Z</time>
      </trkpt>
      <trkpt lat="46.06389" lon="4.72181">
        <ele>189</ele>
        <time>2018-03-24T10:32:37Z</time>
      </trkpt>
      <trkpt lat="46.06391" lon="4.72189">
        <ele>189</ele>
        <time>2018-03-24T10:32:38Z</time>
      </trkpt>
      <trkpt lat="46.06393" lon="4.72196">
        <ele>190</ele>
        <time>2018-03-24T10:32:39Z</time>
      </trkpt>
      <trkpt lat="46.06395" lon="4.72202">
        <ele>190</ele>
        <time>2018-03-24T10:32:40Z</time>
      </trkpt>
      <trkpt lat="46.06399" lon="4.7221">
        <ele>190</ele>
        <time>2018-03-24T10:32:41Z</time>
      </trkpt>
      <trkpt lat="46.06401" lon="4.72216">
        <ele>190</ele>
        <time>2018-03-24T10:32:42Z</time>
      </trkpt>
      <trkpt lat="46.06406" lon="4.72226">
        <ele>190</ele>
        <time>2018-03-24T10:32:44Z</time>
      </trkpt>
      <trkpt lat="46.06407" lon="4.72229">
        <ele>190</ele>
        <time>2018-03-24T10:32:45Z</time>
      </trkpt>
      <trkpt lat="46.06409" lon="4.72238">
        <ele>190</ele>
        <time>2018-03-24T10:32:47Z</time>
      </trkpt>
      <trkpt lat="46.06411" lon="4.72246">
        <ele>189</ele>
        <time>2018-03-24T10:32:48Z</time>
      </trkpt>
      <trkpt lat="46.06413" lon="4.72256">
        <ele>190</ele>
        <time>2018-03-24T10:32:50Z</time>
      </trkpt>
      <trkpt lat="46.06414" lon="4.72261">
        <ele>190</ele>
        <time>2018-03-24T10:32:51Z</time>
      </trkpt>
      <trkpt lat="46.06415" lon="4.72273">
        <ele>191</ele>
        <time>2018-03-24T10:32:53Z</time>
      </trkpt>
      <trkpt lat="46.06415" lon="4.72278">
        <ele>192</ele>
        <time>2018-03-24T10:32:54Z</time>
      </trkpt>
      <trkpt lat="46.06418" lon="4.72288">
        <ele>190</ele>
        <time>2018-03-24T10:32:56Z</time>
      </trkpt>
      <trkpt lat="46.06423" lon="4.72289">
        <ele>190</ele>
        <time>2018-03-24T10:32:57Z</time>
      </trkpt>
      <trkpt lat="46.06431" lon="4.72291">
        <ele>190</ele>
        <time>2018-03-24T10:32:59Z</time>
      </trkpt>
      <trkpt lat="46.06436" lon="4.72292">
        <ele>190</ele>
        <time>2018-03-24T10:33:00Z</time>
      </trkpt>
      <trkpt lat="46.06442" lon="4.72294">
        <ele>190</ele>
        <time>2018-03-24T10:33:01Z</time>
      </trkpt>
      <trkpt lat="46.06447" lon="4.72296">
        <ele>190</ele>
        <time>2018-03-24T10:33:02Z</time>
      </trkpt>
      <trkpt lat="46.06447" lon="4.72304">
        <ele>191</ele>
        <time>2018-03-24T10:33:03Z</time>
      </trkpt>
      <trkpt lat="46.06449" lon="4.72311">
        <ele>191</ele>
        <time>2018-03-24T10:33:04Z</time>
      </trkpt>
      <trkpt lat="46.06449" lon="4.72318">
        <ele>191</ele>
        <time>2018-03-24T10:33:05Z</time>
      </trkpt>
      <trkpt lat="46.06448" lon="4.72324">
        <ele>191</ele>
        <time>2018-03-24T10:33:06Z</time>
      </trkpt>
      <trkpt lat="46.06445" lon="4.7233">
        <ele>191</ele>
        <time>2018-03-24T10:33:07Z</time>
      </trkpt>
      <trkpt lat="46.06442" lon="4.72335">
        <ele>194</ele>
        <time>2018-03-24T10:33:08Z</time>
      </trkpt>
      <trkpt lat="46.06442" lon="4.72345">
        <ele>194</ele>
        <time>2018-03-24T10:33:10Z</time>
      </trkpt>
      <trkpt lat="46.06441" lon="4.72351">
        <ele>194</ele>
        <time>2018-03-24T10:33:11Z</time>
      </trkpt>
      <trkpt lat="46.06439" lon="4.72363">
        <ele>194</ele>
        <time>2018-03-24T10:33:15Z</time>
      </trkpt>
      <trkpt lat="46.06438" lon="4.72367">
        <ele>194</ele>
        <time>2018-03-24T10:33:16Z</time>
      </trkpt>
      <trkpt lat="46.06434" lon="4.72379">
        <ele>195</ele>
        <time>2018-03-24T10:33:19Z</time>
      </trkpt>
      <trkpt lat="46.06433" lon="4.72383">
        <ele>195</ele>
        <time>2018-03-24T10:33:20Z</time>
      </trkpt>
      <trkpt lat="46.06431" lon="4.72392">
        <ele>195</ele>
        <time>2018-03-24T10:33:22Z</time>
      </trkpt>
      <trkpt lat="46.0643" lon="4.72396">
        <ele>195</ele>
        <time>2018-03-24T10:33:23Z</time>
      </trkpt>
      <trkpt lat="46.06428" lon="4.72405">
        <ele>195</ele>
        <time>2018-03-24T10:33:25Z</time>
      </trkpt>
      <trkpt lat="46.06426" lon="4.72409">
        <ele>195</ele>
        <time>2018-03-24T10:33:26Z</time>
      </trkpt>
      <trkpt lat="46.06422" lon="4.72421">
        <ele>196</ele>
        <time>2018-03-24T10:33:27Z</time>
      </trkpt>
      <trkpt lat="46.06421" lon="4.72423">
        <ele>196</ele>
        <time>2018-03-24T10:33:28Z</time>
      </trkpt>
      <trkpt lat="46.06417" lon="4.72433">
        <ele>197</ele>
        <time>2018-03-24T10:33:31Z</time>
      </trkpt>
      <trkpt lat="46.06415" lon="4.72437">
        <ele>197</ele>
        <time>2018-03-24T10:33:32Z</time>
      </trkpt>
      <trkpt lat="46.06413" lon="4.72441">
        <ele>197</ele>
        <time>2018-03-24T10:33:33Z</time>
      </trkpt>
      <trkpt lat="46.06409" lon="4.72451">
        <ele>197</ele>
        <time>2018-03-24T10:33:34Z</time>
      </trkpt>
      <trkpt lat="46.06403" lon="4.7246">
        <ele>197</ele>
        <time>2018-03-24T10:33:37Z</time>
      </trkpt>
      <trkpt lat="46.06399" lon="4.72466">
        <ele>197</ele>
        <time>2018-03-24T10:33:38Z</time>
      </trkpt>
      <trkpt lat="46.06399" lon="4.72473">
        <ele>198</ele>
        <time>2018-03-24T10:33:39Z</time>
      </trkpt>
      <trkpt lat="46.06399" lon="4.72479">
        <ele>198</ele>
        <time>2018-03-24T10:33:40Z</time>
      </trkpt>
      <trkpt lat="46.064" lon="4.72485">
        <ele>198</ele>
        <time>2018-03-24T10:33:41Z</time>
      </trkpt>
      <trkpt lat="46.06402" lon="4.72492">
        <ele>198</ele>
        <time>2018-03-24T10:33:42Z</time>
      </trkpt>
      <trkpt lat="46.06404" lon="4.72501">
        <ele>198</ele>
        <time>2018-03-24T10:33:43Z</time>
      </trkpt>
      <trkpt lat="46.06407" lon="4.72509">
        <ele>198</ele>
        <time>2018-03-24T10:33:44Z</time>
      </trkpt>
      <trkpt lat="46.06408" lon="4.72517">
        <ele>198</ele>
        <time>2018-03-24T10:33:45Z</time>
      </trkpt>
      <trkpt lat="46.06409" lon="4.72525">
        <ele>197</ele>
        <time>2018-03-24T10:33:46Z</time>
      </trkpt>
      <trkpt lat="46.0641" lon="4.72533">
        <ele>197</ele>
        <time>2018-03-24T10:33:47Z</time>
      </trkpt>
      <trkpt lat="46.06411" lon="4.72542">
        <ele>197</ele>
        <time>2018-03-24T10:33:48Z</time>
      </trkpt>
      <trkpt lat="46.06412" lon="4.7255">
        <ele>196</ele>
        <time>2018-03-24T10:33:49Z</time>
      </trkpt>
      <trkpt lat="46.06413" lon="4.72558">
        <ele>196</ele>
        <time>2018-03-24T10:33:50Z</time>
      </trkpt>
      <trkpt lat="46.06415" lon="4.72567">
        <ele>196</ele>
        <time>2018-03-24T10:33:51Z</time>
      </trkpt>
      <trkpt lat="46.06417" lon="4.72577">
        <ele>195</ele>
        <time>2018-03-24T10:33:52Z</time>
      </trkpt>
      <trkpt lat="46.06418" lon="4.72586">
        <ele>195</ele>
        <time>2018-03-24T10:33:53Z</time>
      </trkpt>
      <trkpt lat="46.0642" lon="4.72595">
        <ele>194</ele>
        <time>2018-03-24T10:33:54Z</time>
      </trkpt>
      <trkpt lat="46.0642" lon="4.72604">
        <ele>193</ele>
        <time>2018-03-24T10:33:55Z</time>
      </trkpt>
      <trkpt lat="46.06422" lon="4.72613">
        <ele>193</ele>
        <time>2018-03-24T10:33:56Z</time>
      </trkpt>
      <trkpt lat="46.06424" lon="4.72622">
        <ele>193</ele>
        <time>2018-03-24T10:33:57Z</time>
      </trkpt>
      <trkpt lat="46.06427" lon="4.72632">
        <ele>193</ele>
        <time>2018-03-24T10:33:58Z</time>
      </trkpt>
      <trkpt lat="46.06428" lon="4.72641">
        <ele>192</ele>
        <time>2018-03-24T10:33:59Z</time>
      </trkpt>
      <trkpt lat="46.0643" lon="4.7265">
        <ele>192</ele>
        <time>2018-03-24T10:34:00Z</time>
      </trkpt>
      <trkpt lat="46.0643" lon="4.72658">
        <ele>192</ele>
        <time>2018-03-24T10:34:01Z</time>
      </trkpt>
      <trkpt lat="46.06432" lon="4.72667">
        <ele>191</ele>
        <time>2018-03-24T10:34:02Z</time>
      </trkpt>
      <trkpt lat="46.06435" lon="4.72678">
        <ele>191</ele>
        <time>2018-03-24T10:34:03Z</time>
      </trkpt>
      <trkpt lat="46.06436" lon="4.72687">
        <ele>190</ele>
        <time>2018-03-24T10:34:04Z</time>
      </trkpt>
      <trkpt lat="46.06437" lon="4.72696">
        <ele>190</ele>
        <time>2018-03-24T10:34:05Z</time>
      </trkpt>
      <trkpt lat="46.06439" lon="4.72705">
        <ele>190</ele>
        <time>2018-03-24T10:34:06Z</time>
      </trkpt>
      <trkpt lat="46.06441" lon="4.72714">
        <ele>190</ele>
        <time>2018-03-24T10:34:07Z</time>
      </trkpt>
      <trkpt lat="46.06443" lon="4.72723">
        <ele>190</ele>
        <time>2018-03-24T10:34:08Z</time>
      </trkpt>
      <trkpt lat="46.06444" lon="4.72732">
        <ele>189</ele>
        <time>2018-03-24T10:34:09Z</time>
      </trkpt>
      <trkpt lat="46.06445" lon="4.72742">
        <ele>189</ele>
        <time>2018-03-24T10:34:10Z</time>
      </trkpt>
      <trkpt lat="46.06446" lon="4.72751">
        <ele>188</ele>
        <time>2018-03-24T10:34:11Z</time>
      </trkpt>
      <trkpt lat="46.06447" lon="4.7276">
        <ele>188</ele>
        <time>2018-03-24T10:34:12Z</time>
      </trkpt>
      <trkpt lat="46.06448" lon="4.7277">
        <ele>188</ele>
        <time>2018-03-24T10:34:13Z</time>
      </trkpt>
      <trkpt lat="46.06449" lon="4.72778">
        <ele>188</ele>
        <time>2018-03-24T10:34:14Z</time>
      </trkpt>
      <trkpt lat="46.0645" lon="4.72787">
        <ele>188</ele>
        <time>2018-03-24T10:34:15Z</time>
      </trkpt>
      <trkpt lat="46.06452" lon="4.72796">
        <ele>188</ele>
        <time>2018-03-24T10:34:16Z</time>
      </trkpt>
      <trkpt lat="46.06454" lon="4.72804">
        <ele>188</ele>
        <time>2018-03-24T10:34:17Z</time>
      </trkpt>
      <trkpt lat="46.06456" lon="4.72813">
        <ele>188</ele>
        <time>2018-03-24T10:34:18Z</time>
      </trkpt>
      <trkpt lat="46.06457" lon="4.72821">
        <ele>188</ele>
        <time>2018-03-24T10:34:19Z</time>
      </trkpt>
      <trkpt lat="46.06459" lon="4.72829">
        <ele>188</ele>
        <time>2018-03-24T10:34:20Z</time>
      </trkpt>
      <trkpt lat="46.06461" lon="4.7284">
        <ele>188</ele>
        <time>2018-03-24T10:34:21Z</time>
      </trkpt>
      <trkpt lat="46.06462" lon="4.72848">
        <ele>188</ele>
        <time>2018-03-24T10:34:22Z</time>
      </trkpt>
      <trkpt lat="46.06465" lon="4.72856">
        <ele>188</ele>
        <time>2018-03-24T10:34:23Z</time>
      </trkpt>
      <trkpt lat="46.06466" lon="4.72866">
        <ele>188</ele>
        <time>2018-03-24T10:34:24Z</time>
      </trkpt>
      <trkpt lat="46.06467" lon="4.72874">
        <ele>188</ele>
        <time>2018-03-24T10:34:25Z</time>
      </trkpt>
      <trkpt lat="46.06467" lon="4.72883">
        <ele>188</ele>
        <time>2018-03-24T10:34:26Z</time>
      </trkpt>
      <trkpt lat="46.06469" lon="4.72892">
        <ele>188</ele>
        <time>2018-03-24T10:34:27Z</time>
      </trkpt>
      <trkpt lat="46.0647" lon="4.72901">
        <ele>188</ele>
        <time>2018-03-24T10:34:28Z</time>
      </trkpt>
      <trkpt lat="46.06472" lon="4.72909">
        <ele>188</ele>
        <time>2018-03-24T10:34:29Z</time>
      </trkpt>
      <trkpt lat="46.06474" lon="4.72918">
        <ele>188</ele>
        <time>2018-03-24T10:34:30Z</time>
      </trkpt>
      <trkpt lat="46.06476" lon="4.72927">
        <ele>188</ele>
        <time>2018-03-24T10:34:31Z</time>
      </trkpt>
      <trkpt lat="46.06477" lon="4.72936">
        <ele>188</ele>
        <time>2018-03-24T10:34:32Z</time>
      </trkpt>
      <trkpt lat="46.06478" lon="4.72943">
        <ele>188</ele>
        <time>2018-03-24T10:34:33Z</time>
      </trkpt>
      <trkpt lat="46.06479" lon="4.7295">
        <ele>188</ele>
        <time>2018-03-24T10:34:34Z</time>
      </trkpt>
      <trkpt lat="46.06481" lon="4.72961">
        <ele>188</ele>
        <time>2018-03-24T10:34:36Z</time>
      </trkpt>
      <trkpt lat="46.06481" lon="4.72964">
        <ele>188</ele>
        <time>2018-03-24T10:34:37Z</time>
      </trkpt>
      <trkpt lat="46.0648" lon="4.72977">
        <ele>188</ele>
        <time>2018-03-24T10:34:42Z</time>
      </trkpt>
      <trkpt lat="46.06478" lon="4.72986">
        <ele>189</ele>
        <time>2018-03-24T10:34:43Z</time>
      </trkpt>
      <trkpt lat="46.0648" lon="4.72998">
        <ele>189</ele>
        <time>2018-03-24T10:34:45Z</time>
      </trkpt>
      <trkpt lat="46.06482" lon="4.73003">
        <ele>189</ele>
        <time>2018-03-24T10:34:46Z</time>
      </trkpt>
      <trkpt lat="46.06486" lon="4.73006">
        <ele>189</ele>
        <time>2018-03-24T10:34:47Z</time>
      </trkpt>
      <trkpt lat="46.06492" lon="4.73008">
        <ele>189</ele>
        <time>2018-03-24T10:34:48Z</time>
      </trkpt>
      <trkpt lat="46.06494" lon="4.73013">
        <ele>189</ele>
        <time>2018-03-24T10:34:49Z</time>
      </trkpt>
      <trkpt lat="46.06497" lon="4.7302">
        <ele>189</ele>
        <time>2018-03-24T10:34:50Z</time>
      </trkpt>
      <trkpt lat="46.065" lon="4.73027">
        <ele>189</ele>
        <time>2018-03-24T10:34:51Z</time>
      </trkpt>
      <trkpt lat="46.06503" lon="4.73036">
        <ele>189</ele>
        <time>2018-03-24T10:34:52Z</time>
      </trkpt>
      <trkpt lat="46.06505" lon="4.73042">
        <ele>189</ele>
        <time>2018-03-24T10:34:53Z</time>
      </trkpt>
      <trkpt lat="46.06508" lon="4.7305">
        <ele>188</ele>
        <time>2018-03-24T10:34:54Z</time>
      </trkpt>
      <trkpt lat="46.06511" lon="4.73059">
        <ele>188</ele>
        <time>2018-03-24T10:34:55Z</time>
      </trkpt>
      <trkpt lat="46.06513" lon="4.73068">
        <ele>189</ele>
        <time>2018-03-24T10:34:56Z</time>
      </trkpt>
      <trkpt lat="46.06517" lon="4.73077">
        <ele>189</ele>
        <time>2018-03-24T10:34:57Z</time>
      </trkpt>
      <trkpt lat="46.0652" lon="4.73085">
        <ele>188</ele>
        <time>2018-03-24T10:34:58Z</time>
      </trkpt>
      <trkpt lat="46.06524" lon="4.73092">
        <ele>188</ele>
        <time>2018-03-24T10:34:59Z</time>
      </trkpt>
      <trkpt lat="46.06527" lon="4.731">
        <ele>188</ele>
        <time>2018-03-24T10:35:00Z</time>
      </trkpt>
      <trkpt lat="46.06532" lon="4.73109">
        <ele>188</ele>
        <time>2018-03-24T10:35:01Z</time>
      </trkpt>
      <trkpt lat="46.06535" lon="4.73118">
        <ele>188</ele>
        <time>2018-03-24T10:35:02Z</time>
      </trkpt>
      <trkpt lat="46.06541" lon="4.73128">
        <ele>188</ele>
        <time>2018-03-24T10:35:03Z</time>
      </trkpt>
      <trkpt lat="46.06544" lon="4.73137">
        <ele>187</ele>
        <time>2018-03-24T10:35:04Z</time>
      </trkpt>
      <trkpt lat="46.06544" lon="4.73145">
        <ele>187</ele>
        <time>2018-03-24T10:35:05Z</time>
      </trkpt>
      <trkpt lat="46.06546" lon="4.73153">
        <ele>187</ele>
        <time>2018-03-24T10:35:06Z</time>
      </trkpt>
      <trkpt lat="46.06547" lon="4.73162">
        <ele>187</ele>
        <time>2018-03-24T10:35:07Z</time>
      </trkpt>
      <trkpt lat="46.06547" lon="4.7317">
        <ele>187</ele>
        <time>2018-03-24T10:35:08Z</time>
      </trkpt>
      <trkpt lat="46.06547" lon="4.73179">
        <ele>187</ele>
        <time>2018-03-24T10:35:09Z</time>
      </trkpt>
      <trkpt lat="46.06548" lon="4.73187">
        <ele>187</ele>
        <time>2018-03-24T10:35:10Z</time>
      </trkpt>
      <trkpt lat="46.06548" lon="4.73195">
        <ele>187</ele>
        <time>2018-03-24T10:35:11Z</time>
      </trkpt>
      <trkpt lat="46.06549" lon="4.73204">
        <ele>186</ele>
        <time>2018-03-24T10:35:12Z</time>
      </trkpt>
      <trkpt lat="46.0655" lon="4.73212">
        <ele>186</ele>
        <time>2018-03-24T10:35:13Z</time>
      </trkpt>
      <trkpt lat="46.06552" lon="4.7322">
        <ele>186</ele>
        <time>2018-03-24T10:35:14Z</time>
      </trkpt>
      <trkpt lat="46.06554" lon="4.73229">
        <ele>186</ele>
        <time>2018-03-24T10:35:15Z</time>
      </trkpt>
      <trkpt lat="46.06556" lon="4.73237">
        <ele>186</ele>
        <time>2018-03-24T10:35:16Z</time>
      </trkpt>
      <trkpt lat="46.0656" lon="4.73245">
        <ele>186</ele>
        <time>2018-03-24T10:35:17Z</time>
      </trkpt>
      <trkpt lat="46.06563" lon="4.73251">
        <ele>184</ele>
        <time>2018-03-24T10:35:18Z</time>
      </trkpt>
      <trkpt lat="46.06565" lon="4.73261">
        <ele>184</ele>
        <time>2018-03-24T10:35:19Z</time>
      </trkpt>
      <trkpt lat="46.06568" lon="4.73269">
        <ele>184</ele>
        <time>2018-03-24T10:35:20Z</time>
      </trkpt>
      <trkpt lat="46.06571" lon="4.73277">
        <ele>184</ele>
        <time>2018-03-24T10:35:21Z</time>
      </trkpt>
      <trkpt lat="46.06574" lon="4.73285">
        <ele>184</ele>
        <time>2018-03-24T10:35:22Z</time>
      </trkpt>
      <trkpt lat="46.06577" lon="4.73293">
        <ele>184</ele>
        <time>2018-03-24T10:35:23Z</time>
      </trkpt>
      <trkpt lat="46.06579" lon="4.73301">
        <ele>183</ele>
        <time>2018-03-24T10:35:24Z</time>
      </trkpt>
      <trkpt lat="46.06582" lon="4.7331">
        <ele>183</ele>
        <time>2018-03-24T10:35:25Z</time>
      </trkpt>
      <trkpt lat="46.06583" lon="4.73319">
        <ele>183</ele>
        <time>2018-03-24T10:35:26Z</time>
      </trkpt>
      <trkpt lat="46.06584" lon="4.73328">
        <ele>182</ele>
        <time>2018-03-24T10:35:27Z</time>
      </trkpt>
      <trkpt lat="46.06587" lon="4.73336">
        <ele>182</ele>
        <time>2018-03-24T10:35:28Z</time>
      </trkpt>
      <trkpt lat="46.06596" lon="4.73342">
        <ele>182</ele>
        <time>2018-03-24T10:35:29Z</time>
      </trkpt>
      <trkpt lat="46.06602" lon="4.73346">
        <ele>182</ele>
        <time>2018-03-24T10:35:30Z</time>
      </trkpt>
      <trkpt lat="46.06609" lon="4.7335">
        <ele>182</ele>
        <time>2018-03-24T10:35:31Z</time>
      </trkpt>
      <trkpt lat="46.06616" lon="4.73354">
        <ele>182</ele>
        <time>2018-03-24T10:35:32Z</time>
      </trkpt>
      <trkpt lat="46.06622" lon="4.73358">
        <ele>182</ele>
        <time>2018-03-24T10:35:33Z</time>
      </trkpt>
      <trkpt lat="46.06629" lon="4.73362">
        <ele>182</ele>
        <time>2018-03-24T10:35:34Z</time>
      </trkpt>
      <trkpt lat="46.06635" lon="4.73367">
        <ele>182</ele>
        <time>2018-03-24T10:35:35Z</time>
      </trkpt>
      <trkpt lat="46.06642" lon="4.73373">
        <ele>182</ele>
        <time>2018-03-24T10:35:36Z</time>
      </trkpt>
      <trkpt lat="46.06648" lon="4.73379">
        <ele>182</ele>
        <time>2018-03-24T10:35:37Z</time>
      </trkpt>
      <trkpt lat="46.06655" lon="4.73387">
        <ele>182</ele>
        <time>2018-03-24T10:35:38Z</time>
      </trkpt>
      <trkpt lat="46.06661" lon="4.73396">
        <ele>182</ele>
        <time>2018-03-24T10:35:39Z</time>
      </trkpt>
      <trkpt lat="46.06666" lon="4.73404">
        <ele>182</ele>
        <time>2018-03-24T10:35:40Z</time>
      </trkpt>
      <trkpt lat="46.06672" lon="4.73413">
        <ele>182</ele>
        <time>2018-03-24T10:35:41Z</time>
      </trkpt>
      <trkpt lat="46.06678" lon="4.73421">
        <ele>181</ele>
        <time>2018-03-24T10:35:42Z</time>
      </trkpt>
      <trkpt lat="46.06683" lon="4.73429">
        <ele>181</ele>
        <time>2018-03-24T10:35:43Z</time>
      </trkpt>
      <trkpt lat="46.06689" lon="4.73437">
        <ele>181</ele>
        <time>2018-03-24T10:35:44Z</time>
      </trkpt>
      <trkpt lat="46.06695" lon="4.73444">
        <ele>181</ele>
        <time>2018-03-24T10:35:45Z</time>
      </trkpt>
      <trkpt lat="46.067" lon="4.73452">
        <ele>180</ele>
        <time>2018-03-24T10:35:46Z</time>
      </trkpt>
      <trkpt lat="46.06705" lon="4.73459">
        <ele>180</ele>
        <time>2018-03-24T10:35:47Z</time>
      </trkpt>
      <trkpt lat="46.0671" lon="4.73466">
        <ele>180</ele>
        <time>2018-03-24T10:35:48Z</time>
      </trkpt>
      <trkpt lat="46.06715" lon="4.73473">
        <ele>180</ele>
        <time>2018-03-24T10:35:49Z</time>
      </trkpt>
      <trkpt lat="46.0672" lon="4.7348">
        <ele>180</ele>
        <time>2018-03-24T10:35:50Z</time>
      </trkpt>
      <trkpt lat="46.06726" lon="4.73486">
        <ele>180</ele>
        <time>2018-03-24T10:35:51Z</time>
      </trkpt>
      <trkpt lat="46.0673" lon="4.73493">
        <ele>180</ele>
        <time>2018-03-24T10:35:52Z</time>
      </trkpt>
      <trkpt lat="46.06736" lon="4.735">
        <ele>180</ele>
        <time>2018-03-24T10:35:53Z</time>
      </trkpt>
      <trkpt lat="46.06738" lon="4.73507">
        <ele>180</ele>
        <time>2018-03-24T10:35:54Z</time>
      </trkpt>
      <trkpt lat="46.06739" lon="4.73515">
        <ele>180</ele>
        <time>2018-03-24T10:35:55Z</time>
      </trkpt>
      <trkpt lat="46.06742" lon="4.73523">
        <ele>180</ele>
        <time>2018-03-24T10:35:56Z</time>
      </trkpt>
      <trkpt lat="46.06747" lon="4.73529">
        <ele>180</ele>
        <time>2018-03-24T10:35:57Z</time>
      </trkpt>
      <trkpt lat="46.06752" lon="4.73536">
        <ele>179</ele>
        <time>2018-03-24T10:35:58Z</time>
      </trkpt>
      <trkpt lat="46.06757" lon="4.73543">
        <ele>179</ele>
        <time>2018-03-24T10:35:59Z</time>
      </trkpt>
      <trkpt lat="46.06762" lon="4.7355">
        <ele>179</ele>
        <time>2018-03-24T10:36:00Z</time>
      </trkpt>
      <trkpt lat="46.06765" lon="4.73557">
        <ele>180</ele>
        <time>2018-03-24T10:36:01Z</time>
      </trkpt>
      <trkpt lat="46.06768" lon="4.73566">
        <ele>180</ele>
        <time>2018-03-24T10:36:02Z</time>
      </trkpt>
      <trkpt lat="46.06773" lon="4.73574">
        <ele>180</ele>
        <time>2018-03-24T10:36:03Z</time>
      </trkpt>
      <trkpt lat="46.06778" lon="4.73582">
        <ele>180</ele>
        <time>2018-03-24T10:36:04Z</time>
      </trkpt>
      <trkpt lat="46.06783" lon="4.73592">
        <ele>179</ele>
        <time>2018-03-24T10:36:05Z</time>
      </trkpt>
      <trkpt lat="46.06788" lon="4.73598">
        <ele>179</ele>
        <time>2018-03-24T10:36:06Z</time>
      </trkpt>
      <trkpt lat="46.06795" lon="4.73605">
        <ele>178</ele>
        <time>2018-03-24T10:36:07Z</time>
      </trkpt>
      <trkpt lat="46.06799" lon="4.73612">
        <ele>178</ele>
        <time>2018-03-24T10:36:08Z</time>
      </trkpt>
      <trkpt lat="46.06804" lon="4.73619">
        <ele>178</ele>
        <time>2018-03-24T10:36:09Z</time>
      </trkpt>
      <trkpt lat="46.06809" lon="4.73625">
        <ele>178</ele>
        <time>2018-03-24T10:36:10Z</time>
      </trkpt>
      <trkpt lat="46.06814" lon="4.73631">
        <ele>178</ele>
        <time>2018-03-24T10:36:11Z</time>
      </trkpt>
      <trkpt lat="46.06818" lon="4.73637">
        <ele>178</ele>
        <time>2018-03-24T10:36:12Z</time>
      </trkpt>
      <trkpt lat="46.06823" lon="4.73643">
        <ele>177</ele>
        <time>2018-03-24T10:36:13Z</time>
      </trkpt>
      <trkpt lat="46.06829" lon="4.73648">
        <ele>177</ele>
        <time>2018-03-24T10:36:14Z</time>
      </trkpt>
      <trkpt lat="46.06835" lon="4.73654">
        <ele>176</ele>
        <time>2018-03-24T10:36:15Z</time>
      </trkpt>
      <trkpt lat="46.06841" lon="4.73659">
        <ele>176</ele>
        <time>2018-03-24T10:36:16Z</time>
      </trkpt>
      <trkpt lat="46.06848" lon="4.73665">
        <ele>176</ele>
        <time>2018-03-24T10:36:17Z</time>
      </trkpt>
      <trkpt lat="46.06853" lon="4.73672">
        <ele>176</ele>
        <time>2018-03-24T10:36:18Z</time>
      </trkpt>
      <trkpt lat="46.06859" lon="4.73677">
        <ele>176</ele>
        <time>2018-03-24T10:36:19Z</time>
      </trkpt>
      <trkpt lat="46.06865" lon="4.73682">
        <ele>176</ele>
        <time>2018-03-24T10:36:20Z</time>
      </trkpt>
      <trkpt lat="46.06869" lon="4.73687">
        <ele>176</ele>
        <time>2018-03-24T10:36:21Z</time>
      </trkpt>
      <trkpt lat="46.06874" lon="4.73694">
        <ele>176</ele>
        <time>2018-03-24T10:36:22Z</time>
      </trkpt>
      <trkpt lat="46.0688" lon="4.73701">
        <ele>176</ele>
        <time>2018-03-24T10:36:23Z</time>
      </trkpt>
      <trkpt lat="46.06885" lon="4.73707">
        <ele>176</ele>
        <time>2018-03-24T10:36:24Z</time>
      </trkpt>
      <trkpt lat="46.06889" lon="4.73713">
        <ele>176</ele>
        <time>2018-03-24T10:36:25Z</time>
      </trkpt>
      <trkpt lat="46.06895" lon="4.73718">
        <ele>176</ele>
        <time>2018-03-24T10:36:26Z</time>
      </trkpt>
      <trkpt lat="46.06898" lon="4.73724">
        <ele>176</ele>
        <time>2018-03-24T10:36:27Z</time>
      </trkpt>
      <trkpt lat="46.06902" lon="4.7373">
        <ele>177</ele>
        <time>2018-03-24T10:36:28Z</time>
      </trkpt>
      <trkpt lat="46.06907" lon="4.73737">
        <ele>177</ele>
        <time>2018-03-24T10:36:29Z</time>
      </trkpt>
      <trkpt lat="46.06911" lon="4.73743">
        <ele>177</ele>
        <time>2018-03-24T10:36:30Z</time>
      </trkpt>
      <trkpt lat="46.06915" lon="4.73751">
        <ele>177</ele>
        <time>2018-03-24T10:36:31Z</time>
      </trkpt>
      <trkpt lat="46.06919" lon="4.73757">
        <ele>177</ele>
        <time>2018-03-24T10:36:32Z</time>
      </trkpt>
      <trkpt lat="46.06924" lon="4.73762">
        <ele>177</ele>
        <time>2018-03-24T10:36:33Z</time>
      </trkpt>
      <trkpt lat="46.06929" lon="4.73767">
        <ele>176</ele>
        <time>2018-03-24T10:36:34Z</time>
      </trkpt>
      <trkpt lat="46.06934" lon="4.73772">
        <ele>176</ele>
        <time>2018-03-24T10:36:35Z</time>
      </trkpt>
      <trkpt lat="46.0694" lon="4.73776">
        <ele>176</ele>
        <time>2018-03-24T10:36:36Z</time>
      </trkpt>
      <trkpt lat="46.06946" lon="4.7378">
        <ele>176</ele>
        <time>2018-03-24T10:36:37Z</time>
      </trkpt>
      <trkpt lat="46.06952" lon="4.73783">
        <ele>176</ele>
        <time>2018-03-24T10:36:38Z</time>
      </trkpt>
      <trkpt lat="46.06956" lon="4.73785">
        <ele>176</ele>
        <time>2018-03-24T10:36:39Z</time>
      </trkpt>
      <trkpt lat="46.06962" lon="4.73786">
        <ele>176</ele>
        <time>2018-03-24T10:36:40Z</time>
      </trkpt>
      <trkpt lat="46.06969" lon="4.73788">
        <ele>176</ele>
        <time>2018-03-24T10:36:41Z</time>
      </trkpt>
      <trkpt lat="46.06975" lon="4.73789">
        <ele>176</ele>
        <time>2018-03-24T10:36:42Z</time>
      </trkpt>
      <trkpt lat="46.06982" lon="4.73791">
        <ele>176</ele>
        <time>2018-03-24T10:36:43Z</time>
      </trkpt>
      <trkpt lat="46.06989" lon="4.73792">
        <ele>176</ele>
        <time>2018-03-24T10:36:44Z</time>
      </trkpt>
      <trkpt lat="46.06996" lon="4.73793">
        <ele>176</ele>
        <time>2018-03-24T10:36:45Z</time>
      </trkpt>
      <trkpt lat="46.07002" lon="4.73794">
        <ele>177</ele>
        <time>2018-03-24T10:36:46Z</time>
      </trkpt>
      <trkpt lat="46.07008" lon="4.73795">
        <ele>177</ele>
        <time>2018-03-24T10:36:47Z</time>
      </trkpt>
      <trkpt lat="46.07014" lon="4.73795">
        <ele>177</ele>
        <time>2018-03-24T10:36:48Z</time>
      </trkpt>
      <trkpt lat="46.07021" lon="4.73796">
        <ele>177</ele>
        <time>2018-03-24T10:36:49Z</time>
      </trkpt>
      <trkpt lat="46.07028" lon="4.73796">
        <ele>177</ele>
        <time>2018-03-24T10:36:50Z</time>
      </trkpt>
      <trkpt lat="46.07036" lon="4.73797">
        <ele>177</ele>
        <time>2018-03-24T10:36:51Z</time>
      </trkpt>
      <trkpt lat="46.07043" lon="4.73799">
        <ele>177</ele>
        <time>2018-03-24T10:36:52Z</time>
      </trkpt>
      <trkpt lat="46.07049" lon="4.73801">
        <ele>177</ele>
        <time>2018-03-24T10:36:53Z</time>
      </trkpt>
      <trkpt lat="46.07055" lon="4.73803">
        <ele>177</ele>
        <time>2018-03-24T10:36:54Z</time>
      </trkpt>
      <trkpt lat="46.07061" lon="4.73804">
        <ele>177</ele>
        <time>2018-03-24T10:36:55Z</time>
      </trkpt>
      <trkpt lat="46.07067" lon="4.73806">
        <ele>178</ele>
        <time>2018-03-24T10:36:56Z</time>
      </trkpt>
      <trkpt lat="46.07073" lon="4.73809">
        <ele>178</ele>
        <time>2018-03-24T10:36:57Z</time>
      </trkpt>
      <trkpt lat="46.07078" lon="4.73811">
        <ele>178</ele>
        <time>2018-03-24T10:36:58Z</time>
      </trkpt>
      <trkpt lat="46.07084" lon="4.73815">
        <ele>178</ele>
        <time>2018-03-24T10:36:59Z</time>
      </trkpt>
      <trkpt lat="46.0709" lon="4.73818">
        <ele>178</ele>
        <time>2018-03-24T10:37:00Z</time>
      </trkpt>
      <trkpt lat="46.07096" lon="4.73822">
        <ele>178</ele>
        <time>2018-03-24T10:37:01Z</time>
      </trkpt>
      <trkpt lat="46.07101" lon="4.73827">
        <ele>178</ele>
        <time>2018-03-24T10:37:02Z</time>
      </trkpt>
      <trkpt lat="46.07107" lon="4.73831">
        <ele>178</ele>
        <time>2018-03-24T10:37:03Z</time>
      </trkpt>
      <trkpt lat="46.07112" lon="4.73836">
        <ele>177</ele>
        <time>2018-03-24T10:37:04Z</time>
      </trkpt>
      <trkpt lat="46.07116" lon="4.73843">
        <ele>177</ele>
        <time>2018-03-24T10:37:05Z</time>
      </trkpt>
      <trkpt lat="46.07121" lon="4.73849">
        <ele>177</ele>
        <time>2018-03-24T10:37:06Z</time>
      </trkpt>
      <trkpt lat="46.07126" lon="4.73854">
        <ele>176</ele>
        <time>2018-03-24T10:37:07Z</time>
      </trkpt>
      <trkpt lat="46.0713" lon="4.73861">
        <ele>176</ele>
        <time>2018-03-24T10:37:08Z</time>
      </trkpt>
      <trkpt lat="46.07135" lon="4.73867">
        <ele>176</ele>
        <time>2018-03-24T10:37:09Z</time>
      </trkpt>
      <trkpt lat="46.07139" lon="4.73874">
        <ele>176</ele>
        <time>2018-03-24T10:37:10Z</time>
      </trkpt>
      <trkpt lat="46.07143" lon="4.73881">
        <ele>176</ele>
        <time>2018-03-24T10:37:11Z</time>
      </trkpt>
      <trkpt lat="46.07147" lon="4.73888">
        <ele>176</ele>
        <time>2018-03-24T10:37:12Z</time>
      </trkpt>
      <trkpt lat="46.0715" lon="4.73895">
        <ele>177</ele>
        <time>2018-03-24T10:37:13Z</time>
      </trkpt>
      <trkpt lat="46.07153" lon="4.73903">
        <ele>177</ele>
        <time>2018-03-24T10:37:14Z</time>
      </trkpt>
      <trkpt lat="46.07156" lon="4.7391">
        <ele>177</ele>
        <time>2018-03-24T10:37:15Z</time>
      </trkpt>
      <trkpt lat="46.07158" lon="4.73919">
        <ele>177</ele>
        <time>2018-03-24T10:37:16Z</time>
      </trkpt>
      <trkpt lat="46.07161" lon="4.73927">
        <ele>177</ele>
        <time>2018-03-24T10:37:17Z</time>
      </trkpt>
      <trkpt lat="46.07164" lon="4.73935">
        <ele>177</ele>
        <time>2018-03-24T10:37:18Z</time>
      </trkpt>
      <trkpt lat="46.07167" lon="4.73943">
        <ele>177</ele>
        <time>2018-03-24T10:37:19Z</time>
      </trkpt>
      <trkpt lat="46.07169" lon="4.7395">
        <ele>177</ele>
        <time>2018-03-24T10:37:20Z</time>
      </trkpt>
      <trkpt lat="46.07172" lon="4.73958">
        <ele>177</ele>
        <time>2018-03-24T10:37:21Z</time>
      </trkpt>
      <trkpt lat="46.07175" lon="4.73965">
        <ele>178</ele>
        <time>2018-03-24T10:37:22Z</time>
      </trkpt>
      <trkpt lat="46.07177" lon="4.73973">
        <ele>178</ele>
        <time>2018-03-24T10:37:23Z</time>
      </trkpt>
      <trkpt lat="46.07179" lon="4.7398">
        <ele>178</ele>
        <time>2018-03-24T10:37:24Z</time>
      </trkpt>
      <trkpt lat="46.07181" lon="4.73987">
        <ele>178</ele>
        <time>2018-03-24T10:37:25Z</time>
      </trkpt>
      <trkpt lat="46.07184" lon="4.73993">
        <ele>178</ele>
        <time>2018-03-24T10:37:26Z</time>
      </trkpt>
      <trkpt lat="46.07187" lon="4.74">
        <ele>178</ele>
        <time>2018-03-24T10:37:27Z</time>
      </trkpt>
      <trkpt lat="46.0719" lon="4.7401">
        <ele>178</ele>
        <time>2018-03-24T10:37:29Z</time>
      </trkpt>
      <trkpt lat="46.07191" lon="4.74014">
        <ele>178</ele>
        <time>2018-03-24T10:37:30Z</time>
      </trkpt>
      <trkpt lat="46.07194" lon="4.74023">
        <ele>178</ele>
        <time>2018-03-24T10:37:32Z</time>
      </trkpt>
      <trkpt lat="46.07195" lon="4.74028">
        <ele>178</ele>
        <time>2018-03-24T10:37:33Z</time>
      </trkpt>
      <trkpt lat="46.072" lon="4.74039">
        <ele>178</ele>
        <time>2018-03-24T10:37:36Z</time>
      </trkpt>
      <trkpt lat="46.07202" lon="4.74049">
        <ele>178</ele>
        <time>2018-03-24T10:37:37Z</time>
      </trkpt>
      <trkpt lat="46.07205" lon="4.74059">
        <ele>178</ele>
        <time>2018-03-24T10:37:40Z</time>
      </trkpt>
      <trkpt lat="46.07206" lon="4.74062">
        <ele>178</ele>
        <time>2018-03-24T10:37:41Z</time>
      </trkpt>
      <trkpt lat="46.07209" lon="4.74072">
        <ele>177</ele>
        <time>2018-03-24T10:37:42Z</time>
      </trkpt>
      <trkpt lat="46.07211" lon="4.74077">
        <ele>177</ele>
        <time>2018-03-24T10:37:43Z</time>
      </trkpt>
      <trkpt lat="46.07214" lon="4.74087">
        <ele>177</ele>
        <time>2018-03-24T10:37:45Z</time>
      </trkpt>
      <trkpt lat="46.07216" lon="4.74093">
        <ele>177</ele>
        <time>2018-03-24T10:37:46Z</time>
      </trkpt>
      <trkpt lat="46.0722" lon="4.74099">
        <ele>177</ele>
        <time>2018-03-24T10:37:47Z</time>
      </trkpt>
      <trkpt lat="46.07221" lon="4.74106">
        <ele>177</ele>
        <time>2018-03-24T10:37:48Z</time>
      </trkpt>
      <trkpt lat="46.07223" lon="4.74112">
        <ele>177</ele>
        <time>2018-03-24T10:37:49Z</time>
      </trkpt>
      <trkpt lat="46.07224" lon="4.74118">
        <ele>177</ele>
        <time>2018-03-24T10:37:50Z</time>
      </trkpt>
      <trkpt lat="46.07227" lon="4.74124">
        <ele>177</ele>
        <time>2018-03-24T10:37:51Z</time>
      </trkpt>
      <trkpt lat="46.07229" lon="4.74131">
        <ele>177</ele>
        <time>2018-03-24T10:37:52Z</time>
      </trkpt>
      <trkpt lat="46.07232" lon="4.74138">
        <ele>177</ele>
        <time>2018-03-24T10:37:53Z</time>
      </trkpt>
      <trkpt lat="46.07234" lon="4.74145">
        <ele>177</ele>
        <time>2018-03-24T10:37:54Z</time>
      </trkpt>
      <trkpt lat="46.07236" lon="4.74151">
        <ele>177</ele>
        <time>2018-03-24T10:37:55Z</time>
      </trkpt>
      <trkpt lat="46.07238" lon="4.74159">
        <ele>177</ele>
        <time>2018-03-24T10:37:56Z</time>
      </trkpt>
      <trkpt lat="46.07241" lon="4.74167">
        <ele>177</ele>
        <time>2018-03-24T10:37:57Z</time>
      </trkpt>
      <trkpt lat="46.07244" lon="4.74175">
        <ele>176</ele>
        <time>2018-03-24T10:37:58Z</time>
      </trkpt>
      <trkpt lat="46.07247" lon="4.74182">
        <ele>176</ele>
        <time>2018-03-24T10:37:59Z</time>
      </trkpt>
      <trkpt lat="46.0725" lon="4.74192">
        <ele>176</ele>
        <time>2018-03-24T10:38:00Z</time>
      </trkpt>
      <trkpt lat="46.07253" lon="4.742">
        <ele>176</ele>
        <time>2018-03-24T10:38:01Z</time>
      </trkpt>
      <trkpt lat="46.07256" lon="4.74208">
        <ele>176</ele>
        <time>2018-03-24T10:38:02Z</time>
      </trkpt>
      <trkpt lat="46.07259" lon="4.74217">
        <ele>176</ele>
        <time>2018-03-24T10:38:03Z</time>
      </trkpt>
      <trkpt lat="46.07262" lon="4.74225">
        <ele>176</ele>
        <time>2018-03-24T10:38:04Z</time>
      </trkpt>
      <trkpt lat="46.07265" lon="4.74235">
        <ele>175</ele>
        <time>2018-03-24T10:38:05Z</time>
      </trkpt>
      <trkpt lat="46.07269" lon="4.74245">
        <ele>175</ele>
        <time>2018-03-24T10:38:06Z</time>
      </trkpt>
      <trkpt lat="46.07274" lon="4.74256">
        <ele>175</ele>
        <time>2018-03-24T10:38:07Z</time>
      </trkpt>
      <trkpt lat="46.07277" lon="4.74269">
        <ele>175</ele>
        <time>2018-03-24T10:38:08Z</time>
      </trkpt>
      <trkpt lat="46.0728" lon="4.74281">
        <ele>175</ele>
        <time>2018-03-24T10:38:09Z</time>
      </trkpt>
      <trkpt lat="46.07283" lon="4.74292">
        <ele>174</ele>
        <time>2018-03-24T10:38:10Z</time>
      </trkpt>
      <trkpt lat="46.07286" lon="4.74304">
        <ele>174</ele>
        <time>2018-03-24T10:38:11Z</time>
      </trkpt>
      <trkpt lat="46.07287" lon="4.74314">
        <ele>174</ele>
        <time>2018-03-24T10:38:12Z</time>
      </trkpt>
      <trkpt lat="46.0729" lon="4.74326">
        <ele>174</ele>
        <time>2018-03-24T10:38:13Z</time>
      </trkpt>
      <trkpt lat="46.07292" lon="4.74338">
        <ele>174</ele>
        <time>2018-03-24T10:38:14Z</time>
      </trkpt>
      <trkpt lat="46.07293" lon="4.74349">
        <ele>174</ele>
        <time>2018-03-24T10:38:15Z</time>
      </trkpt>
      <trkpt lat="46.07294" lon="4.74359">
        <ele>174</ele>
        <time>2018-03-24T10:38:16Z</time>
      </trkpt>
      <trkpt lat="46.07295" lon="4.74371">
        <ele>174</ele>
        <time>2018-03-24T10:38:17Z</time>
      </trkpt>
      <trkpt lat="46.07296" lon="4.74381">
        <ele>174</ele>
        <time>2018-03-24T10:38:18Z</time>
      </trkpt>
      <trkpt lat="46.07297" lon="4.74391">
        <ele>174</ele>
        <time>2018-03-24T10:38:19Z</time>
      </trkpt>
      <trkpt lat="46.07298" lon="4.74401">
        <ele>174</ele>
        <time>2018-03-24T10:38:20Z</time>
      </trkpt>
      <trkpt lat="46.07298" lon="4.74411">
        <ele>174</ele>
        <time>2018-03-24T10:38:21Z</time>
      </trkpt>
      <trkpt lat="46.073" lon="4.74421">
        <ele>175</ele>
        <time>2018-03-24T10:38:22Z</time>
      </trkpt>
      <trkpt lat="46.07302" lon="4.74431">
        <ele>175</ele>
        <time>2018-03-24T10:38:23Z</time>
      </trkpt>
      <trkpt lat="46.07303" lon="4.74441">
        <ele>175</ele>
        <time>2018-03-24T10:38:24Z</time>
      </trkpt>
      <trkpt lat="46.07307" lon="4.74451">
        <ele>175</ele>
        <time>2018-03-24T10:38:25Z</time>
      </trkpt>
      <trkpt lat="46.0731" lon="4.7446">
        <ele>175</ele>
        <time>2018-03-24T10:38:26Z</time>
      </trkpt>
      <trkpt lat="46.07313" lon="4.74468">
        <ele>175</ele>
        <time>2018-03-24T10:38:27Z</time>
      </trkpt>
      <trkpt lat="46.07316" lon="4.74477">
        <ele>175</ele>
        <time>2018-03-24T10:38:28Z</time>
      </trkpt>
      <trkpt lat="46.07319" lon="4.74486">
        <ele>175</ele>
        <time>2018-03-24T10:38:29Z</time>
      </trkpt>
      <trkpt lat="46.07322" lon="4.74493">
        <ele>175</ele>
        <time>2018-03-24T10:38:30Z</time>
      </trkpt>
      <trkpt lat="46.0733" lon="4.74501">
        <ele>176</ele>
        <time>2018-03-24T10:38:31Z</time>
      </trkpt>
      <trkpt lat="46.07334" lon="4.74509">
        <ele>176</ele>
        <time>2018-03-24T10:38:32Z</time>
      </trkpt>
      <trkpt lat="46.07338" lon="4.74516">
        <ele>175</ele>
        <time>2018-03-24T10:38:33Z</time>
      </trkpt>
      <trkpt lat="46.07341" lon="4.74524">
        <ele>175</ele>
        <time>2018-03-24T10:38:34Z</time>
      </trkpt>
      <trkpt lat="46.07345" lon="4.74531">
        <ele>175</ele>
        <time>2018-03-24T10:38:35Z</time>
      </trkpt>
      <trkpt lat="46.0735" lon="4.74539">
        <ele>175</ele>
        <time>2018-03-24T10:38:36Z</time>
      </trkpt>
      <trkpt lat="46.07355" lon="4.74546">
        <ele>175</ele>
        <time>2018-03-24T10:38:37Z</time>
      </trkpt>
      <trkpt lat="46.07359" lon="4.74553">
        <ele>175</ele>
        <time>2018-03-24T10:38:38Z</time>
      </trkpt>
      <trkpt lat="46.07365" lon="4.74562">
        <ele>175</ele>
        <time>2018-03-24T10:38:39Z</time>
      </trkpt>
      <trkpt lat="46.07369" lon="4.74569">
        <ele>175</ele>
        <time>2018-03-24T10:38:40Z</time>
      </trkpt>
      <trkpt lat="46.07373" lon="4.74577">
        <ele>175</ele>
        <time>2018-03-24T10:38:41Z</time>
      </trkpt>
      <trkpt lat="46.07377" lon="4.74586">
        <ele>174</ele>
        <time>2018-03-24T10:38:42Z</time>
      </trkpt>
      <trkpt lat="46.07381" lon="4.74594">
        <ele>174</ele>
        <time>2018-03-24T10:38:43Z</time>
      </trkpt>
      <trkpt lat="46.07384" lon="4.74603">
        <ele>174</ele>
        <time>2018-03-24T10:38:44Z</time>
      </trkpt>
      <trkpt lat="46.07389" lon="4.74613">
        <ele>174</ele>
        <time>2018-03-24T10:38:45Z</time>
      </trkpt>
      <trkpt lat="46.07392" lon="4.74624">
        <ele>174</ele>
        <time>2018-03-24T10:38:47Z</time>
      </trkpt>
      <trkpt lat="46.07396" lon="4.74633">
        <ele>174</ele>
        <time>2018-03-24T10:38:48Z</time>
      </trkpt>
      <trkpt lat="46.074" lon="4.74641">
        <ele>174</ele>
        <time>2018-03-24T10:38:49Z</time>
      </trkpt>
      <trkpt lat="46.07405" lon="4.7465">
        <ele>173</ele>
        <time>2018-03-24T10:38:50Z</time>
      </trkpt>
      <trkpt lat="46.07409" lon="4.74658">
        <ele>173</ele>
        <time>2018-03-24T10:38:51Z</time>
      </trkpt>
      <trkpt lat="46.07414" lon="4.74666">
        <ele>172</ele>
        <time>2018-03-24T10:38:52Z</time>
      </trkpt>
      <trkpt lat="46.07418" lon="4.74674">
        <ele>172</ele>
        <time>2018-03-24T10:38:53Z</time>
      </trkpt>
      <trkpt lat="46.07421" lon="4.74681">
        <ele>172</ele>
        <time>2018-03-24T10:38:54Z</time>
      </trkpt>
      <trkpt lat="46.07424" lon="4.74689">
        <ele>173</ele>
        <time>2018-03-24T10:38:55Z</time>
      </trkpt>
      <trkpt lat="46.07427" lon="4.74697">
        <ele>173</ele>
        <time>2018-03-24T10:38:56Z</time>
      </trkpt>
      <trkpt lat="46.07431" lon="4.74704">
        <ele>173</ele>
        <time>2018-03-24T10:38:57Z</time>
      </trkpt>
      <trkpt lat="46.07435" lon="4.74713">
        <ele>173</ele>
        <time>2018-03-24T10:38:58Z</time>
      </trkpt>
      <trkpt lat="46.0744" lon="4.74721">
        <ele>173</ele>
        <time>2018-03-24T10:38:59Z</time>
      </trkpt>
      <trkpt lat="46.07445" lon="4.7473">
        <ele>173</ele>
        <time>2018-03-24T10:39:00Z</time>
      </trkpt>
      <trkpt lat="46.07448" lon="4.74738">
        <ele>173</ele>
        <time>2018-03-24T10:39:01Z</time>
      </trkpt>
      <trkpt lat="46.07452" lon="4.74745">
        <ele>173</ele>
        <time>2018-03-24T10:39:02Z</time>
      </trkpt>
      <trkpt lat="46.07457" lon="4.74751">
        <ele>174</ele>
        <time>2018-03-24T10:39:03Z</time>
      </trkpt>
      <trkpt lat="46.07462" lon="4.74757">
        <ele>173</ele>
        <time>2018-03-24T10:39:04Z</time>
      </trkpt>
      <trkpt lat="46.07468" lon="4.74764">
        <ele>173</ele>
        <time>2018-03-24T10:39:05Z</time>
      </trkpt>
      <trkpt lat="46.07474" lon="4.7477">
        <ele>173</ele>
        <time>2018-03-24T10:39:06Z</time>
      </trkpt>
      <trkpt lat="46.07478" lon="4.74775">
        <ele>173</ele>
        <time>2018-03-24T10:39:07Z</time>
      </trkpt>
      <trkpt lat="46.07483" lon="4.7478">
        <ele>173</ele>
        <time>2018-03-24T10:39:08Z</time>
      </trkpt>
      <trkpt lat="46.07489" lon="4.74786">
        <ele>173</ele>
        <time>2018-03-24T10:39:09Z</time>
      </trkpt>
      <trkpt lat="46.07496" lon="4.7479">
        <ele>173</ele>
        <time>2018-03-24T10:39:10Z</time>
      </trkpt>
      <trkpt lat="46.07503" lon="4.74796">
        <ele>172</ele>
        <time>2018-03-24T10:39:11Z</time>
      </trkpt>
      <trkpt lat="46.07508" lon="4.74801">
        <ele>172</ele>
        <time>2018-03-24T10:39:12Z</time>
      </trkpt>
      <trkpt lat="46.07514" lon="4.74805">
        <ele>172</ele>
        <time>2018-03-24T10:39:13Z</time>
      </trkpt>
      <trkpt lat="46.0752" lon="4.7481">
        <ele>172</ele>
        <time>2018-03-24T10:39:14Z</time>
      </trkpt>
      <trkpt lat="46.07526" lon="4.74812">
        <ele>172</ele>
        <time>2018-03-24T10:39:15Z</time>
      </trkpt>
      <trkpt lat="46.07532" lon="4.74817">
        <ele>172</ele>
        <time>2018-03-24T10:39:16Z</time>
      </trkpt>
      <trkpt lat="46.07538" lon="4.7482">
        <ele>172</ele>
        <time>2018-03-24T10:39:17Z</time>
      </trkpt>
      <trkpt lat="46.07543" lon="4.74825">
        <ele>172</ele>
        <time>2018-03-24T10:39:18Z</time>
      </trkpt>
      <trkpt lat="46.07549" lon="4.7483">
        <ele>172</ele>
        <time>2018-03-24T10:39:19Z</time>
      </trkpt>
      <trkpt lat="46.07555" lon="4.74835">
        <ele>171</ele>
        <time>2018-03-24T10:39:20Z</time>
      </trkpt>
      <trkpt lat="46.07561" lon="4.7484">
        <ele>171</ele>
        <time>2018-03-24T10:39:21Z</time>
      </trkpt>
      <trkpt lat="46.07567" lon="4.74845">
        <ele>171</ele>
        <time>2018-03-24T10:39:22Z</time>
      </trkpt>
      <trkpt lat="46.07573" lon="4.74848">
        <ele>171</ele>
        <time>2018-03-24T10:39:23Z</time>
      </trkpt>
      <trkpt lat="46.07579" lon="4.74852">
        <ele>171</ele>
        <time>2018-03-24T10:39:24Z</time>
      </trkpt>
      <trkpt lat="46.07584" lon="4.74857">
        <ele>171</ele>
        <time>2018-03-24T10:39:25Z</time>
      </trkpt>
      <trkpt lat="46.07589" lon="4.74861">
        <ele>171</ele>
        <time>2018-03-24T10:39:26Z</time>
      </trkpt>
      <trkpt lat="46.07594" lon="4.74865">
        <ele>171</ele>
        <time>2018-03-24T10:39:27Z</time>
      </trkpt>
      <trkpt lat="46.07599" lon="4.7487">
        <ele>171</ele>
        <time>2018-03-24T10:39:28Z</time>
      </trkpt>
      <trkpt lat="46.07604" lon="4.74874">
        <ele>171</ele>
        <time>2018-03-24T10:39:29Z</time>
      </trkpt>
      <trkpt lat="46.07608" lon="4.74879">
        <ele>171</ele>
        <time>2018-03-24T10:39:30Z</time>
      </trkpt>
      <trkpt lat="46.07613" lon="4.74883">
        <ele>171</ele>
        <time>2018-03-24T10:39:31Z</time>
      </trkpt>
      <trkpt lat="46.07617" lon="4.74889">
        <ele>171</ele>
        <time>2018-03-24T10:39:32Z</time>
      </trkpt>
      <trkpt lat="46.07623" lon="4.74893">
        <ele>171</ele>
        <time>2018-03-24T10:39:33Z</time>
      </trkpt>
      <trkpt lat="46.07628" lon="4.74897">
        <ele>171</ele>
        <time>2018-03-24T10:39:34Z</time>
      </trkpt>
      <trkpt lat="46.07633" lon="4.74901">
        <ele>171</ele>
        <time>2018-03-24T10:39:35Z</time>
      </trkpt>
      <trkpt lat="46.07638" lon="4.74905">
        <ele>171</ele>
        <time>2018-03-24T10:39:36Z</time>
      </trkpt>
      <trkpt lat="46.07643" lon="4.74909">
        <ele>171</ele>
        <time>2018-03-24T10:39:37Z</time>
      </trkpt>
      <trkpt lat="46.07648" lon="4.74913">
        <ele>171</ele>
        <time>2018-03-24T10:39:38Z</time>
      </trkpt>
      <trkpt lat="46.07653" lon="4.74918">
        <ele>172</ele>
        <time>2018-03-24T10:39:39Z</time>
      </trkpt>
      <trkpt lat="46.07658" lon="4.74923">
        <ele>172</ele>
        <time>2018-03-24T10:39:40Z</time>
      </trkpt>
      <trkpt lat="46.07664" lon="4.74927">
        <ele>172</ele>
        <time>2018-03-24T10:39:41Z</time>
      </trkpt>
      <trkpt lat="46.07669" lon="4.7493">
        <ele>172</ele>
        <time>2018-03-24T10:39:42Z</time>
      </trkpt>
      <trkpt lat="46.07673" lon="4.74934">
        <ele>172</ele>
        <time>2018-03-24T10:39:43Z</time>
      </trkpt>
      <trkpt lat="46.07678" lon="4.74937">
        <ele>172</ele>
        <time>2018-03-24T10:39:44Z</time>
      </trkpt>
      <trkpt lat="46.07682" lon="4.74942">
        <ele>172</ele>
        <time>2018-03-24T10:39:45Z</time>
      </trkpt>
      <trkpt lat="46.07687" lon="4.74946">
        <ele>172</ele>
        <time>2018-03-24T10:39:46Z</time>
      </trkpt>
      <trkpt lat="46.07692" lon="4.74951">
        <ele>172</ele>
        <time>2018-03-24T10:39:47Z</time>
      </trkpt>
      <trkpt lat="46.07697" lon="4.74955">
        <ele>172</ele>
        <time>2018-03-24T10:39:48Z</time>
      </trkpt>
      <trkpt lat="46.07701" lon="4.7496">
        <ele>172</ele>
        <time>2018-03-24T10:39:49Z</time>
      </trkpt>
      <trkpt lat="46.07706" lon="4.74963">
        <ele>172</ele>
        <time>2018-03-24T10:39:50Z</time>
      </trkpt>
      <trkpt lat="46.07712" lon="4.74967">
        <ele>172</ele>
        <time>2018-03-24T10:39:51Z</time>
      </trkpt>
      <trkpt lat="46.07716" lon="4.74971">
        <ele>172</ele>
        <time>2018-03-24T10:39:52Z</time>
      </trkpt>
      <trkpt lat="46.07723" lon="4.74974">
        <ele>172</ele>
        <time>2018-03-24T10:39:53Z</time>
      </trkpt>
      <trkpt lat="46.07728" lon="4.74978">
        <ele>172</ele>
        <time>2018-03-24T10:39:54Z</time>
      </trkpt>
      <trkpt lat="46.07733" lon="4.7498">
        <ele>172</ele>
        <time>2018-03-24T10:39:55Z</time>
      </trkpt>
      <trkpt lat="46.07739" lon="4.74983">
        <ele>173</ele>
        <time>2018-03-24T10:39:56Z</time>
      </trkpt>
      <trkpt lat="46.07743" lon="4.74988">
        <ele>173</ele>
        <time>2018-03-24T10:39:57Z</time>
      </trkpt>
      <trkpt lat="46.07749" lon="4.74992">
        <ele>173</ele>
        <time>2018-03-24T10:39:58Z</time>
      </trkpt>
      <trkpt lat="46.07753" lon="4.74996">
        <ele>173</ele>
        <time>2018-03-24T10:39:59Z</time>
      </trkpt>
      <trkpt lat="46.07757" lon="4.74999">
        <ele>173</ele>
        <time>2018-03-24T10:40:00Z</time>
      </trkpt>
      <trkpt lat="46.07762" lon="4.75004">
        <ele>172</ele>
        <time>2018-03-24T10:40:01Z</time>
      </trkpt>
      <trkpt lat="46.07767" lon="4.75008">
        <ele>172</ele>
        <time>2018-03-24T10:40:02Z</time>
      </trkpt>
      <trkpt lat="46.07772" lon="4.75011">
        <ele>172</ele>
        <time>2018-03-24T10:40:03Z</time>
      </trkpt>
      <trkpt lat="46.07777" lon="4.75016">
        <ele>172</ele>
        <time>2018-03-24T10:40:04Z</time>
      </trkpt>
      <trkpt lat="46.07781" lon="4.75018">
        <ele>172</ele>
        <time>2018-03-24T10:40:05Z</time>
      </trkpt>
      <trkpt lat="46.07786" lon="4.75023">
        <ele>172</ele>
        <time>2018-03-24T10:40:06Z</time>
      </trkpt>
      <trkpt lat="46.07791" lon="4.75026">
        <ele>172</ele>
        <time>2018-03-24T10:40:07Z</time>
      </trkpt>
      <trkpt lat="46.07796" lon="4.75031">
        <ele>171</ele>
        <time>2018-03-24T10:40:08Z</time>
      </trkpt>
      <trkpt lat="46.07801" lon="4.75035">
        <ele>171</ele>
        <time>2018-03-24T10:40:09Z</time>
      </trkpt>
      <trkpt lat="46.07806" lon="4.75039">
        <ele>171</ele>
        <time>2018-03-24T10:40:10Z</time>
      </trkpt>
      <trkpt lat="46.07811" lon="4.75042">
        <ele>171</ele>
        <time>2018-03-24T10:40:11Z</time>
      </trkpt>
      <trkpt lat="46.07815" lon="4.75045">
        <ele>171</ele>
        <time>2018-03-24T10:40:12Z</time>
      </trkpt>
      <trkpt lat="46.0782" lon="4.75048">
        <ele>171</ele>
        <time>2018-03-24T10:40:13Z</time>
      </trkpt>
      <trkpt lat="46.07826" lon="4.75052">
        <ele>171</ele>
        <time>2018-03-24T10:40:14Z</time>
      </trkpt>
      <trkpt lat="46.0783" lon="4.75057">
        <ele>171</ele>
        <time>2018-03-24T10:40:15Z</time>
      </trkpt>
      <trkpt lat="46.07834" lon="4.75063">
        <ele>171</ele>
        <time>2018-03-24T10:40:16Z</time>
      </trkpt>
      <trkpt lat="46.07838" lon="4.75069">
        <ele>171</ele>
        <time>2018-03-24T10:40:17Z</time>
      </trkpt>
      <trkpt lat="46.07842" lon="4.75075">
        <ele>171</ele>
        <time>2018-03-24T10:40:18Z</time>
      </trkpt>
      <trkpt lat="46.07846" lon="4.75082">
        <ele>171</ele>
        <time>2018-03-24T10:40:19Z</time>
      </trkpt>
      <trkpt lat="46.0785" lon="4.75088">
        <ele>171</ele>
        <time>2018-03-24T10:40:20Z</time>
      </trkpt>
      <trkpt lat="46.07855" lon="4.75094">
        <ele>171</ele>
        <time>2018-03-24T10:40:21Z</time>
      </trkpt>
      <trkpt lat="46.07858" lon="4.75099">
        <ele>171</ele>
        <time>2018-03-24T10:40:22Z</time>
      </trkpt>
      <trkpt lat="46.07862" lon="4.75105">
        <ele>171</ele>
        <time>2018-03-24T10:40:23Z</time>
      </trkpt>
      <trkpt lat="46.07866" lon="4.7511">
        <ele>171</ele>
        <time>2018-03-24T10:40:24Z</time>
      </trkpt>
      <trkpt lat="46.07869" lon="4.75115">
        <ele>171</ele>
        <time>2018-03-24T10:40:25Z</time>
      </trkpt>
      <trkpt lat="46.07873" lon="4.75121">
        <ele>171</ele>
        <time>2018-03-24T10:40:26Z</time>
      </trkpt>
      <trkpt lat="46.07878" lon="4.75125">
        <ele>171</ele>
        <time>2018-03-24T10:40:27Z</time>
      </trkpt>
      <trkpt lat="46.07882" lon="4.75131">
        <ele>171</ele>
        <time>2018-03-24T10:40:28Z</time>
      </trkpt>
      <trkpt lat="46.07885" lon="4.75138">
        <ele>171</ele>
        <time>2018-03-24T10:40:29Z</time>
      </trkpt>
      <trkpt lat="46.07888" lon="4.75146">
        <ele>171</ele>
        <time>2018-03-24T10:40:30Z</time>
      </trkpt>
      <trkpt lat="46.07891" lon="4.75152">
        <ele>171</ele>
        <time>2018-03-24T10:40:31Z</time>
      </trkpt>
      <trkpt lat="46.07895" lon="4.75159">
        <ele>171</ele>
        <time>2018-03-24T10:40:32Z</time>
      </trkpt>
      <trkpt lat="46.07898" lon="4.75166">
        <ele>171</ele>
        <time>2018-03-24T10:40:33Z</time>
      </trkpt>
      <trkpt lat="46.07904" lon="4.75173">
        <ele>172</ele>
        <time>2018-03-24T10:40:34Z</time>
      </trkpt>
      <trkpt lat="46.07907" lon="4.75179">
        <ele>172</ele>
        <time>2018-03-24T10:40:35Z</time>
      </trkpt>
      <trkpt lat="46.07911" lon="4.75186">
        <ele>171</ele>
        <time>2018-03-24T10:40:36Z</time>
      </trkpt>
      <trkpt lat="46.07914" lon="4.75194">
        <ele>171</ele>
        <time>2018-03-24T10:40:37Z</time>
      </trkpt>
      <trkpt lat="46.07916" lon="4.75201">
        <ele>171</ele>
        <time>2018-03-24T10:40:38Z</time>
      </trkpt>
      <trkpt lat="46.07919" lon="4.75208">
        <ele>171</ele>
        <time>2018-03-24T10:40:39Z</time>
      </trkpt>
      <trkpt lat="46.07923" lon="4.75216">
        <ele>171</ele>
        <time>2018-03-24T10:40:40Z</time>
      </trkpt>
      <trkpt lat="46.07926" lon="4.75223">
        <ele>171</ele>
        <time>2018-03-24T10:40:41Z</time>
      </trkpt>
      <trkpt lat="46.07928" lon="4.75231">
        <ele>170</ele>
        <time>2018-03-24T10:40:42Z</time>
      </trkpt>
      <trkpt lat="46.07932" lon="4.75237">
        <ele>170</ele>
        <time>2018-03-24T10:40:43Z</time>
      </trkpt>
      <trkpt lat="46.07936" lon="4.75243">
        <ele>170</ele>
        <time>2018-03-24T10:40:44Z</time>
      </trkpt>
      <trkpt lat="46.07938" lon="4.75252">
        <ele>170</ele>
        <time>2018-03-24T10:40:45Z</time>
      </trkpt>
      <trkpt lat="46.07942" lon="4.7526">
        <ele>170</ele>
        <time>2018-03-24T10:40:46Z</time>
      </trkpt>
      <trkpt lat="46.07945" lon="4.75266">
        <ele>169</ele>
        <time>2018-03-24T10:40:47Z</time>
      </trkpt>
      <trkpt lat="46.07948" lon="4.75273">
        <ele>169</ele>
        <time>2018-03-24T10:40:48Z</time>
      </trkpt>
      <trkpt lat="46.07951" lon="4.75279">
        <ele>169</ele>
        <time>2018-03-24T10:40:49Z</time>
      </trkpt>
      <trkpt lat="46.07955" lon="4.75285">
        <ele>169</ele>
        <time>2018-03-24T10:40:50Z</time>
      </trkpt>
      <trkpt lat="46.07958" lon="4.75291">
        <ele>169</ele>
        <time>2018-03-24T10:40:51Z</time>
      </trkpt>
      <trkpt lat="46.07961" lon="4.75297">
        <ele>169</ele>
        <time>2018-03-24T10:40:52Z</time>
      </trkpt>
      <trkpt lat="46.07965" lon="4.75305">
        <ele>169</ele>
        <time>2018-03-24T10:40:53Z</time>
      </trkpt>
      <trkpt lat="46.07967" lon="4.75311">
        <ele>169</ele>
        <time>2018-03-24T10:40:54Z</time>
      </trkpt>
      <trkpt lat="46.07971" lon="4.75322">
        <ele>169</ele>
        <time>2018-03-24T10:40:57Z</time>
      </trkpt>
      <trkpt lat="46.07972" lon="4.75324">
        <ele>169</ele>
        <time>2018-03-24T10:40:58Z</time>
      </trkpt>
      <trkpt lat="46.07977" lon="4.75334">
        <ele>168</ele>
        <time>2018-03-24T10:41:02Z</time>
      </trkpt>
      <trkpt lat="46.07979" lon="4.75337">
        <ele>168</ele>
        <time>2018-03-24T10:41:03Z</time>
      </trkpt>
      <trkpt lat="46.07983" lon="4.75348">
        <ele>168</ele>
        <time>2018-03-24T10:41:06Z</time>
      </trkpt>
      <trkpt lat="46.07988" lon="4.75357">
        <ele>168</ele>
        <time>2018-03-24T10:41:07Z</time>
      </trkpt>
      <trkpt lat="46.07992" lon="4.75366">
        <ele>168</ele>
        <time>2018-03-24T10:41:10Z</time>
      </trkpt>
      <trkpt lat="46.07993" lon="4.7537">
        <ele>168</ele>
        <time>2018-03-24T10:41:11Z</time>
      </trkpt>
      <trkpt lat="46.07996" lon="4.75377">
        <ele>168</ele>
        <time>2018-03-24T10:41:13Z</time>
      </trkpt>
      <trkpt lat="46.07998" lon="4.75381">
        <ele>167</ele>
        <time>2018-03-24T10:41:14Z</time>
      </trkpt>
      <trkpt lat="46.08002" lon="4.75389">
        <ele>167</ele>
        <time>2018-03-24T10:41:16Z</time>
      </trkpt>
      <trkpt lat="46.08003" lon="4.75393">
        <ele>167</ele>
        <time>2018-03-24T10:41:17Z</time>
      </trkpt>
      <trkpt lat="46.08007" lon="4.75401">
        <ele>166</ele>
        <time>2018-03-24T10:41:19Z</time>
      </trkpt>
      <trkpt lat="46.08009" lon="4.75406">
        <ele>166</ele>
        <time>2018-03-24T10:41:20Z</time>
      </trkpt>
      <trkpt lat="46.08012" lon="4.75414">
        <ele>166</ele>
        <time>2018-03-24T10:41:22Z</time>
      </trkpt>
      <trkpt lat="46.08013" lon="4.75418">
        <ele>166</ele>
        <time>2018-03-24T10:41:23Z</time>
      </trkpt>
      <trkpt lat="46.08017" lon="4.75425">
        <ele>166</ele>
        <time>2018-03-24T10:41:25Z</time>
      </trkpt>
      <trkpt lat="46.08019" lon="4.75429">
        <ele>166</ele>
        <time>2018-03-24T10:41:26Z</time>
      </trkpt>
      <trkpt lat="46.08022" lon="4.75436">
        <ele>166</ele>
        <time>2018-03-24T10:41:28Z</time>
      </trkpt>
      <trkpt lat="46.08024" lon="4.75439">
        <ele>166</ele>
        <time>2018-03-24T10:41:29Z</time>
      </trkpt>
      <trkpt lat="46.08028" lon="4.75447">
        <ele>166</ele>
        <time>2018-03-24T10:41:31Z</time>
      </trkpt>
      <trkpt lat="46.0803" lon="4.75451">
        <ele>166</ele>
        <time>2018-03-24T10:41:32Z</time>
      </trkpt>
      <trkpt lat="46.08033" lon="4.75458">
        <ele>166</ele>
        <time>2018-03-24T10:41:34Z</time>
      </trkpt>
      <trkpt lat="46.08035" lon="4.75462">
        <ele>166</ele>
        <time>2018-03-24T10:41:35Z</time>
      </trkpt>
      <trkpt lat="46.08038" lon="4.7547">
        <ele>166</ele>
        <time>2018-03-24T10:41:37Z</time>
      </trkpt>
      <trkpt lat="46.0804" lon="4.75474">
        <ele>166</ele>
        <time>2018-03-24T10:41:38Z</time>
      </trkpt>
      <trkpt lat="46.08043" lon="4.75481">
        <ele>166</ele>
        <time>2018-03-24T10:41:40Z</time>
      </trkpt>
      <trkpt lat="46.08047" lon="4.75492">
        <ele>166</ele>
        <time>2018-03-24T10:41:41Z</time>
      </trkpt>
      <trkpt lat="46.08052" lon="4.75503">
        <ele>167</ele>
        <time>2018-03-24T10:41:43Z</time>
      </trkpt>
      <trkpt lat="46.08054" lon="4.75509">
        <ele>167</ele>
        <time>2018-03-24T10:41:44Z</time>
      </trkpt>
      <trkpt lat="46.08057" lon="4.75516">
        <ele>167</ele>
        <time>2018-03-24T10:41:45Z</time>
      </trkpt>
      <trkpt lat="46.0806" lon="4.75522">
        <ele>168</ele>
        <time>2018-03-24T10:41:46Z</time>
      </trkpt>
      <trkpt lat="46.08064" lon="4.75529">
        <ele>168</ele>
        <time>2018-03-24T10:41:47Z</time>
      </trkpt>
      <trkpt lat="46.08067" lon="4.75535">
        <ele>168</ele>
        <time>2018-03-24T10:41:48Z</time>
      </trkpt>
      <trkpt lat="46.08069" lon="4.75541">
        <ele>169</ele>
        <time>2018-03-24T10:41:49Z</time>
      </trkpt>
      <trkpt lat="46.08073" lon="4.75547">
        <ele>169</ele>
        <time>2018-03-24T10:41:50Z</time>
      </trkpt>
      <trkpt lat="46.08075" lon="4.75553">
        <ele>169</ele>
        <time>2018-03-24T10:41:51Z</time>
      </trkpt>
      <trkpt lat="46.0808" lon="4.7556">
        <ele>170</ele>
        <time>2018-03-24T10:41:52Z</time>
      </trkpt>
      <trkpt lat="46.08084" lon="4.75569">
        <ele>173</ele>
        <time>2018-03-24T10:41:54Z</time>
      </trkpt>
      <trkpt lat="46.08088" lon="4.75574">
        <ele>173</ele>
        <time>2018-03-24T10:41:55Z</time>
      </trkpt>
      <trkpt lat="46.08089" lon="4.75586">
        <ele>174</ele>
        <time>2018-03-24T10:42:01Z</time>
      </trkpt>
      <trkpt lat="46.08088" lon="4.75587">
        <ele>174</ele>
        <time>2018-03-24T10:42:02Z</time>
      </trkpt>
      <trkpt lat="46.08082" lon="4.75596">
        <ele>174</ele>
        <time>2018-03-24T10:42:04Z</time>
      </trkpt>
      <trkpt lat="46.0808" lon="4.75598">
        <ele>174</ele>
        <time>2018-03-24T10:42:05Z</time>
      </trkpt>
      <trkpt lat="46.08075" lon="4.75603">
        <ele>173</ele>
        <time>2018-03-24T10:42:08Z</time>
      </trkpt>
      <trkpt lat="46.08073" lon="4.75605">
        <ele>173</ele>
        <time>2018-03-24T10:42:09Z</time>
      </trkpt>
      <trkpt lat="46.08064" lon="4.75609">
        <ele>173</ele>
        <time>2018-03-24T10:42:14Z</time>
      </trkpt>
      <trkpt lat="46.08062" lon="4.7561">
        <ele>173</ele>
        <time>2018-03-24T10:42:15Z</time>
      </trkpt>
      <trkpt lat="46.08053" lon="4.75613">
        <ele>173</ele>
        <time>2018-03-24T10:42:21Z</time>
      </trkpt>
      <trkpt lat="46.08053" lon="4.75614">
        <ele>173</ele>
        <time>2018-03-24T10:42:22Z</time>
      </trkpt>
      <trkpt lat="46.08049" lon="4.75619">
        <ele>173</ele>
        <time>2018-03-24T10:43:27Z</time>
      </trkpt>
      <trkpt lat="46.08049" lon="4.75619">
        <ele>173</ele>
        <time>2018-03-24T10:43:28Z</time>
      </trkpt>
      <trkpt lat="46.08051" lon="4.7562">
        <ele>173</ele>
        <time>2018-03-24T10:48:25Z</time>
      </trkpt>
      <trkpt lat="46.08051" lon="4.7562">
        <ele>173</ele>
        <time>2018-03-24T10:48:26Z</time>
      </trkpt>
      <trkpt lat="46.08048" lon="4.75616">
        <ele>173</ele>
        <time>2018-03-24T10:55:41Z</time>
      </trkpt>
      <trkpt lat="46.08048" lon="4.75616">
        <ele>173</ele>
        <time>2018-03-24T10:55:42Z</time>
      </trkpt>
      <trkpt lat="46.08049" lon="4.75616">
        <ele>173</ele>
        <time>2018-03-24T10:55:43Z</time>
      </trkpt>
      <trkpt lat="46.08048" lon="4.75628">
        <ele>173</ele>
        <time>2018-03-24T10:56:36Z</time>
      </trkpt>
      <trkpt lat="46.08046" lon="4.75629">
        <ele>173</ele>
        <time>2018-03-24T10:56:37Z</time>
      </trkpt>
      <trkpt lat="46.08039" lon="4.75638">
        <ele>173</ele>
        <time>2018-03-24T10:56:41Z</time>
      </trkpt>
      <trkpt lat="46.08037" lon="4.75641">
        <ele>173</ele>
        <time>2018-03-24T10:56:42Z</time>
      </trkpt>
      <trkpt lat="46.08032" lon="4.75647">
        <ele>174</ele>
        <time>2018-03-24T10:56:44Z</time>
      </trkpt>
      <trkpt lat="46.08029" lon="4.75649">
        <ele>174</ele>
        <time>2018-03-24T10:56:45Z</time>
      </trkpt>
      <trkpt lat="46.08023" lon="4.75652">
        <ele>174</ele>
        <time>2018-03-24T10:56:47Z</time>
      </trkpt>
      <trkpt lat="46.08019" lon="4.75654">
        <ele>174</ele>
        <time>2018-03-24T10:56:48Z</time>
      </trkpt>
      <trkpt lat="46.08012" lon="4.75657">
        <ele>175</ele>
        <time>2018-03-24T10:56:50Z</time>
      </trkpt>
      <trkpt lat="46.08007" lon="4.75659">
        <ele>175</ele>
        <time>2018-03-24T10:56:51Z</time>
      </trkpt>
      <trkpt lat="46.08003" lon="4.75662">
        <ele>175</ele>
        <time>2018-03-24T10:56:52Z</time>
      </trkpt>
      <trkpt lat="46.07994" lon="4.75668">
        <ele>175</ele>
        <time>2018-03-24T10:56:53Z</time>
      </trkpt>
      <trkpt lat="46.07987" lon="4.75675">
        <ele>174</ele>
        <time>2018-03-24T10:56:55Z</time>
      </trkpt>
      <trkpt lat="46.07984" lon="4.75678">
        <ele>174</ele>
        <time>2018-03-24T10:56:56Z</time>
      </trkpt>
      <trkpt lat="46.07977" lon="4.75684">
        <ele>174</ele>
        <time>2018-03-24T10:56:59Z</time>
      </trkpt>
      <trkpt lat="46.07975" lon="4.75687">
        <ele>174</ele>
        <time>2018-03-24T10:57:00Z</time>
      </trkpt>
      <trkpt lat="46.0797" lon="4.75693">
        <ele>173</ele>
        <time>2018-03-24T10:57:01Z</time>
      </trkpt>
      <trkpt lat="46.07966" lon="4.75695">
        <ele>173</ele>
        <time>2018-03-24T10:57:02Z</time>
      </trkpt>
      <trkpt lat="46.0796" lon="4.757">
        <ele>173</ele>
        <time>2018-03-24T10:57:04Z</time>
      </trkpt>
      <trkpt lat="46.07957" lon="4.75703">
        <ele>173</ele>
        <time>2018-03-24T10:57:05Z</time>
      </trkpt>
      <trkpt lat="46.0795" lon="4.7571">
        <ele>173</ele>
        <time>2018-03-24T10:57:07Z</time>
      </trkpt>
      <trkpt lat="46.07947" lon="4.75713">
        <ele>173</ele>
        <time>2018-03-24T10:57:08Z</time>
      </trkpt>
      <trkpt lat="46.0794" lon="4.7572">
        <ele>173</ele>
        <time>2018-03-24T10:57:10Z</time>
      </trkpt>
      <trkpt lat="46.07936" lon="4.75723">
        <ele>173</ele>
        <time>2018-03-24T10:57:11Z</time>
      </trkpt>
      <trkpt lat="46.07932" lon="4.75726">
        <ele>173</ele>
        <time>2018-03-24T10:57:12Z</time>
      </trkpt>
      <trkpt lat="46.07928" lon="4.75729">
        <ele>173</ele>
        <time>2018-03-24T10:57:13Z</time>
      </trkpt>
      <trkpt lat="46.07923" lon="4.75734">
        <ele>173</ele>
        <time>2018-03-24T10:57:15Z</time>
      </trkpt>
      <trkpt lat="46.07919" lon="4.75739">
        <ele>173</ele>
        <time>2018-03-24T10:57:16Z</time>
      </trkpt>
      <trkpt lat="46.07913" lon="4.75747">
        <ele>172</ele>
        <time>2018-03-24T10:57:18Z</time>
      </trkpt>
      <trkpt lat="46.07908" lon="4.75751">
        <ele>172</ele>
        <time>2018-03-24T10:57:19Z</time>
      </trkpt>
      <trkpt lat="46.079" lon="4.75758">
        <ele>172</ele>
        <time>2018-03-24T10:57:21Z</time>
      </trkpt>
      <trkpt lat="46.07897" lon="4.75761">
        <ele>172</ele>
        <time>2018-03-24T10:57:22Z</time>
      </trkpt>
      <trkpt lat="46.07893" lon="4.75764">
        <ele>172</ele>
        <time>2018-03-24T10:57:23Z</time>
      </trkpt>
      <trkpt lat="46.07889" lon="4.75768">
        <ele>172</ele>
        <time>2018-03-24T10:57:24Z</time>
      </trkpt>
      <trkpt lat="46.07885" lon="4.75772">
        <ele>171</ele>
        <time>2018-03-24T10:57:25Z</time>
      </trkpt>
      <trkpt lat="46.0788" lon="4.75776">
        <ele>171</ele>
        <time>2018-03-24T10:57:26Z</time>
      </trkpt>
      <trkpt lat="46.07875" lon="4.7578">
        <ele>171</ele>
        <time>2018-03-24T10:57:27Z</time>
      </trkpt>
      <trkpt lat="46.07872" lon="4.75784">
        <ele>171</ele>
        <time>2018-03-24T10:57:28Z</time>
      </trkpt>
      <trkpt lat="46.07868" lon="4.75789">
        <ele>171</ele>
        <time>2018-03-24T10:57:29Z</time>
      </trkpt>
      <trkpt lat="46.07864" lon="4.75793">
        <ele>171</ele>
        <time>2018-03-24T10:57:30Z</time>
      </trkpt>
      <trkpt lat="46.0786" lon="4.75796">
        <ele>171</ele>
        <time>2018-03-24T10:57:31Z</time>
      </trkpt>
      <trkpt lat="46.07856" lon="4.758">
        <ele>171</ele>
        <time>2018-03-24T10:57:32Z</time>
      </trkpt>
      <trkpt lat="46.07851" lon="4.75804">
        <ele>171</ele>
        <time>2018-03-24T10:57:33Z</time>
      </trkpt>
      <trkpt lat="46.07847" lon="4.75808">
        <ele>172</ele>
        <time>2018-03-24T10:57:34Z</time>
      </trkpt>
      <trkpt lat="46.07843" lon="4.75812">
        <ele>172</ele>
        <time>2018-03-24T10:57:35Z</time>
      </trkpt>
      <trkpt lat="46.07839" lon="4.75816">
        <ele>172</ele>
        <time>2018-03-24T10:57:36Z</time>
      </trkpt>
      <trkpt lat="46.07835" lon="4.75821">
        <ele>172</ele>
        <time>2018-03-24T10:57:37Z</time>
      </trkpt>
      <trkpt lat="46.0783" lon="4.75825">
        <ele>171</ele>
        <time>2018-03-24T10:57:38Z</time>
      </trkpt>
      <trkpt lat="46.07826" lon="4.75829">
        <ele>171</ele>
        <time>2018-03-24T10:57:39Z</time>
      </trkpt>
      <trkpt lat="46.07823" lon="4.75835">
        <ele>173</ele>
        <time>2018-03-24T10:57:40Z</time>
      </trkpt>
      <trkpt lat="46.07819" lon="4.7584">
        <ele>172</ele>
        <time>2018-03-24T10:57:41Z</time>
      </trkpt>
      <trkpt lat="46.07815" lon="4.75844">
        <ele>172</ele>
        <time>2018-03-24T10:57:42Z</time>
      </trkpt>
      <trkpt lat="46.07807" lon="4.75849">
        <ele>172</ele>
        <time>2018-03-24T10:57:44Z</time>
      </trkpt>
      <trkpt lat="46.07803" lon="4.75853">
        <ele>172</ele>
        <time>2018-03-24T10:57:45Z</time>
      </trkpt>
      <trkpt lat="46.07798" lon="4.75857">
        <ele>172</ele>
        <time>2018-03-24T10:57:46Z</time>
      </trkpt>
      <trkpt lat="46.07793" lon="4.75862">
        <ele>172</ele>
        <time>2018-03-24T10:57:47Z</time>
      </trkpt>
      <trkpt lat="46.07789" lon="4.75865">
        <ele>172</ele>
        <time>2018-03-24T10:57:48Z</time>
      </trkpt>
      <trkpt lat="46.07784" lon="4.7587">
        <ele>172</ele>
        <time>2018-03-24T10:57:49Z</time>
      </trkpt>
      <trkpt lat="46.0778" lon="4.75875">
        <ele>172</ele>
        <time>2018-03-24T10:57:50Z</time>
      </trkpt>
      <trkpt lat="46.07776" lon="4.75879">
        <ele>172</ele>
        <time>2018-03-24T10:57:51Z</time>
      </trkpt>
      <trkpt lat="46.07772" lon="4.75883">
        <ele>172</ele>
        <time>2018-03-24T10:57:52Z</time>
      </trkpt>
      <trkpt lat="46.07769" lon="4.75887">
        <ele>172</ele>
        <time>2018-03-24T10:57:53Z</time>
      </trkpt>
      <trkpt lat="46.07764" lon="4.7589">
        <ele>172</ele>
        <time>2018-03-24T10:57:54Z</time>
      </trkpt>
      <trkpt lat="46.0776" lon="4.75894">
        <ele>173</ele>
        <time>2018-03-24T10:57:55Z</time>
      </trkpt>
      <trkpt lat="46.07755" lon="4.75897">
        <ele>173</ele>
        <time>2018-03-24T10:57:56Z</time>
      </trkpt>
      <trkpt lat="46.07751" lon="4.75901">
        <ele>173</ele>
        <time>2018-03-24T10:57:57Z</time>
      </trkpt>
      <trkpt lat="46.07746" lon="4.75905">
        <ele>172</ele>
        <time>2018-03-24T10:57:58Z</time>
      </trkpt>
      <trkpt lat="46.07742" lon="4.75909">
        <ele>172</ele>
        <time>2018-03-24T10:57:59Z</time>
      </trkpt>
      <trkpt lat="46.07738" lon="4.75913">
        <ele>171</ele>
        <time>2018-03-24T10:58:00Z</time>
      </trkpt>
      <trkpt lat="46.07734" lon="4.75917">
        <ele>173</ele>
        <time>2018-03-24T10:58:01Z</time>
      </trkpt>
      <trkpt lat="46.07729" lon="4.7592">
        <ele>173</ele>
        <time>2018-03-24T10:58:02Z</time>
      </trkpt>
      <trkpt lat="46.07724" lon="4.75924">
        <ele>173</ele>
        <time>2018-03-24T10:58:03Z</time>
      </trkpt>
      <trkpt lat="46.07719" lon="4.75927">
        <ele>172</ele>
        <time>2018-03-24T10:58:04Z</time>
      </trkpt>
      <trkpt lat="46.07715" lon="4.75931">
        <ele>172</ele>
        <time>2018-03-24T10:58:05Z</time>
      </trkpt>
      <trkpt lat="46.07708" lon="4.7594">
        <ele>172</ele>
        <time>2018-03-24T10:58:07Z</time>
      </trkpt>
      <trkpt lat="46.07703" lon="4.75942">
        <ele>172</ele>
        <time>2018-03-24T10:58:08Z</time>
      </trkpt>
      <trkpt lat="46.07699" lon="4.75945">
        <ele>172</ele>
        <time>2018-03-24T10:58:09Z</time>
      </trkpt>
      <trkpt lat="46.07695" lon="4.75947">
        <ele>172</ele>
        <time>2018-03-24T10:58:10Z</time>
      </trkpt>
      <trkpt lat="46.0769" lon="4.7595">
        <ele>171</ele>
        <time>2018-03-24T10:58:11Z</time>
      </trkpt>
      <trkpt lat="46.07686" lon="4.75953">
        <ele>171</ele>
        <time>2018-03-24T10:58:12Z</time>
      </trkpt>
      <trkpt lat="46.07681" lon="4.75956">
        <ele>172</ele>
        <time>2018-03-24T10:58:13Z</time>
      </trkpt>
      <trkpt lat="46.07678" lon="4.75962">
        <ele>172</ele>
        <time>2018-03-24T10:58:14Z</time>
      </trkpt>
      <trkpt lat="46.07672" lon="4.75966">
        <ele>172</ele>
        <time>2018-03-24T10:58:15Z</time>
      </trkpt>
      <trkpt lat="46.07667" lon="4.7597">
        <ele>172</ele>
        <time>2018-03-24T10:58:16Z</time>
      </trkpt>
      <trkpt lat="46.07662" lon="4.75973">
        <ele>170</ele>
        <time>2018-03-24T10:58:17Z</time>
      </trkpt>
      <trkpt lat="46.07658" lon="4.75976">
        <ele>170</ele>
        <time>2018-03-24T10:58:18Z</time>
      </trkpt>
      <trkpt lat="46.07651" lon="4.75983">
        <ele>170</ele>
        <time>2018-03-24T10:58:20Z</time>
      </trkpt>
      <trkpt lat="46.07649" lon="4.75984">
        <ele>170</ele>
        <time>2018-03-24T10:58:21Z</time>
      </trkpt>
      <trkpt lat="46.07647" lon="4.75994">
        <ele>170</ele>
        <time>2018-03-24T10:58:23Z</time>
      </trkpt>
      <trkpt lat="46.07647" lon="4.76">
        <ele>170</ele>
        <time>2018-03-24T10:58:24Z</time>
      </trkpt>
      <trkpt lat="46.07649" lon="4.76009">
        <ele>172</ele>
        <time>2018-03-24T10:58:26Z</time>
      </trkpt>
      <trkpt lat="46.0765" lon="4.76019">
        <ele>172</ele>
        <time>2018-03-24T10:58:27Z</time>
      </trkpt>
      <trkpt lat="46.07654" lon="4.76029">
        <ele>172</ele>
        <time>2018-03-24T10:58:29Z</time>
      </trkpt>
      <trkpt lat="46.07656" lon="4.76033">
        <ele>172</ele>
        <time>2018-03-24T10:58:30Z</time>
      </trkpt>
      <trkpt lat="46.07661" lon="4.76042">
        <ele>172</ele>
        <time>2018-03-24T10:58:32Z</time>
      </trkpt>
      <trkpt lat="46.07663" lon="4.76047">
        <ele>172</ele>
        <time>2018-03-24T10:58:33Z</time>
      </trkpt>
      <trkpt lat="46.07667" lon="4.76054">
        <ele>174</ele>
        <time>2018-03-24T10:58:35Z</time>
      </trkpt>
      <trkpt lat="46.07671" lon="4.7606">
        <ele>174</ele>
        <time>2018-03-24T10:58:36Z</time>
      </trkpt>
      <trkpt lat="46.07674" lon="4.76067">
        <ele>174</ele>
        <time>2018-03-24T10:58:38Z</time>
      </trkpt>
      <trkpt lat="46.07677" lon="4.76073">
        <ele>174</ele>
        <time>2018-03-24T10:58:39Z</time>
      </trkpt>
      <trkpt lat="46.07681" lon="4.76083">
        <ele>174</ele>
        <time>2018-03-24T10:58:42Z</time>
      </trkpt>
      <trkpt lat="46.07682" lon="4.76086">
        <ele>173</ele>
        <time>2018-03-24T10:58:43Z</time>
      </trkpt>
      <trkpt lat="46.07682" lon="4.76097">
        <ele>173</ele>
        <time>2018-03-24T10:58:46Z</time>
      </trkpt>
      <trkpt lat="46.07678" lon="4.76108">
        <ele>173</ele>
        <time>2018-03-24T10:58:47Z</time>
      </trkpt>
      <trkpt lat="46.07675" lon="4.76112">
        <ele>173</ele>
        <time>2018-03-24T10:58:48Z</time>
      </trkpt>
      <trkpt lat="46.07671" lon="4.76116">
        <ele>173</ele>
        <time>2018-03-24T10:58:49Z</time>
      </trkpt>
      <trkpt lat="46.07667" lon="4.7612">
        <ele>173</ele>
        <time>2018-03-24T10:58:50Z</time>
      </trkpt>
      <trkpt lat="46.07664" lon="4.76126">
        <ele>172</ele>
        <time>2018-03-24T10:58:51Z</time>
      </trkpt>
      <trkpt lat="46.0766" lon="4.7613">
        <ele>172</ele>
        <time>2018-03-24T10:58:52Z</time>
      </trkpt>
      <trkpt lat="46.07656" lon="4.76135">
        <ele>172</ele>
        <time>2018-03-24T10:58:53Z</time>
      </trkpt>
      <trkpt lat="46.07652" lon="4.76139">
        <ele>172</ele>
        <time>2018-03-24T10:58:54Z</time>
      </trkpt>
      <trkpt lat="46.07648" lon="4.76143">
        <ele>172</ele>
        <time>2018-03-24T10:58:55Z</time>
      </trkpt>
      <trkpt lat="46.07644" lon="4.76147">
        <ele>172</ele>
        <time>2018-03-24T10:58:56Z</time>
      </trkpt>
      <trkpt lat="46.0764" lon="4.76151">
        <ele>172</ele>
        <time>2018-03-24T10:58:57Z</time>
      </trkpt>
      <trkpt lat="46.07635" lon="4.76155">
        <ele>172</ele>
        <time>2018-03-24T10:58:58Z</time>
      </trkpt>
      <trkpt lat="46.07632" lon="4.76159">
        <ele>172</ele>
        <time>2018-03-24T10:58:59Z</time>
      </trkpt>
      <trkpt lat="46.07628" lon="4.76164">
        <ele>172</ele>
        <time>2018-03-24T10:59:00Z</time>
      </trkpt>
      <trkpt lat="46.07624" lon="4.7617">
        <ele>173</ele>
        <time>2018-03-24T10:59:01Z</time>
      </trkpt>
      <trkpt lat="46.07619" lon="4.76175">
        <ele>173</ele>
        <time>2018-03-24T10:59:02Z</time>
      </trkpt>
      <trkpt lat="46.07615" lon="4.76179">
        <ele>173</ele>
        <time>2018-03-24T10:59:03Z</time>
      </trkpt>
      <trkpt lat="46.07611" lon="4.76183">
        <ele>173</ele>
        <time>2018-03-24T10:59:04Z</time>
      </trkpt>
      <trkpt lat="46.07607" lon="4.76188">
        <ele>173</ele>
        <time>2018-03-24T10:59:05Z</time>
      </trkpt>
      <trkpt lat="46.07603" lon="4.76192">
        <ele>173</ele>
        <time>2018-03-24T10:59:06Z</time>
      </trkpt>
      <trkpt lat="46.07595" lon="4.762">
        <ele>173</ele>
        <time>2018-03-24T10:59:07Z</time>
      </trkpt>
      <trkpt lat="46.07592" lon="4.76204">
        <ele>173</ele>
        <time>2018-03-24T10:59:08Z</time>
      </trkpt>
      <trkpt lat="46.07588" lon="4.7621">
        <ele>173</ele>
        <time>2018-03-24T10:59:09Z</time>
      </trkpt>
      <trkpt lat="46.07583" lon="4.76213">
        <ele>173</ele>
        <time>2018-03-24T10:59:10Z</time>
      </trkpt>
      <trkpt lat="46.07579" lon="4.76217">
        <ele>173</ele>
        <time>2018-03-24T10:59:11Z</time>
      </trkpt>
      <trkpt lat="46.07574" lon="4.76221">
        <ele>173</ele>
        <time>2018-03-24T10:59:12Z</time>
      </trkpt>
      <trkpt lat="46.0757" lon="4.76225">
        <ele>173</ele>
        <time>2018-03-24T10:59:13Z</time>
      </trkpt>
      <trkpt lat="46.07565" lon="4.76229">
        <ele>173</ele>
        <time>2018-03-24T10:59:14Z</time>
      </trkpt>
      <trkpt lat="46.07561" lon="4.76233">
        <ele>173</ele>
        <time>2018-03-24T10:59:15Z</time>
      </trkpt>
      <trkpt lat="46.07557" lon="4.76237">
        <ele>173</ele>
        <time>2018-03-24T10:59:16Z</time>
      </trkpt>
      <trkpt lat="46.07552" lon="4.76242">
        <ele>173</ele>
        <time>2018-03-24T10:59:17Z</time>
      </trkpt>
      <trkpt lat="46.07548" lon="4.76247">
        <ele>173</ele>
        <time>2018-03-24T10:59:18Z</time>
      </trkpt>
      <trkpt lat="46.07544" lon="4.76252">
        <ele>174</ele>
        <time>2018-03-24T10:59:19Z</time>
      </trkpt>
      <trkpt lat="46.0754" lon="4.76256">
        <ele>174</ele>
        <time>2018-03-24T10:59:20Z</time>
      </trkpt>
      <trkpt lat="46.07536" lon="4.7626">
        <ele>174</ele>
        <time>2018-03-24T10:59:21Z</time>
      </trkpt>
      <trkpt lat="46.07531" lon="4.76264">
        <ele>174</ele>
        <time>2018-03-24T10:59:22Z</time>
      </trkpt>
      <trkpt lat="46.07527" lon="4.76268">
        <ele>174</ele>
        <time>2018-03-24T10:59:23Z</time>
      </trkpt>
      <trkpt lat="46.07523" lon="4.76273">
        <ele>174</ele>
        <time>2018-03-24T10:59:24Z</time>
      </trkpt>
      <trkpt lat="46.07518" lon="4.76277">
        <ele>174</ele>
        <time>2018-03-24T10:59:25Z</time>
      </trkpt>
      <trkpt lat="46.07515" lon="4.76282">
        <ele>174</ele>
        <time>2018-03-24T10:59:26Z</time>
      </trkpt>
      <trkpt lat="46.0751" lon="4.76286">
        <ele>174</ele>
        <time>2018-03-24T10:59:27Z</time>
      </trkpt>
      <trkpt lat="46.07506" lon="4.76291">
        <ele>174</ele>
        <time>2018-03-24T10:59:28Z</time>
      </trkpt>
      <trkpt lat="46.07501" lon="4.76296">
        <ele>174</ele>
        <time>2018-03-24T10:59:29Z</time>
      </trkpt>
      <trkpt lat="46.07497" lon="4.763">
        <ele>173</ele>
        <time>2018-03-24T10:59:30Z</time>
      </trkpt>
      <trkpt lat="46.07492" lon="4.76304">
        <ele>173</ele>
        <time>2018-03-24T10:59:31Z</time>
      </trkpt>
      <trkpt lat="46.07488" lon="4.76307">
        <ele>173</ele>
        <time>2018-03-24T10:59:32Z</time>
      </trkpt>
      <trkpt lat="46.07482" lon="4.7631">
        <ele>173</ele>
        <time>2018-03-24T10:59:33Z</time>
      </trkpt>
      <trkpt lat="46.07476" lon="4.76312">
        <ele>172</ele>
        <time>2018-03-24T10:59:34Z</time>
      </trkpt>
      <trkpt lat="46.07472" lon="4.76315">
        <ele>172</ele>
        <time>2018-03-24T10:59:35Z</time>
      </trkpt>
      <trkpt lat="46.07467" lon="4.7632">
        <ele>172</ele>
        <time>2018-03-24T10:59:36Z</time>
      </trkpt>
      <trkpt lat="46.07464" lon="4.76327">
        <ele>172</ele>
        <time>2018-03-24T10:59:37Z</time>
      </trkpt>
      <trkpt lat="46.07461" lon="4.76333">
        <ele>172</ele>
        <time>2018-03-24T10:59:38Z</time>
      </trkpt>
      <trkpt lat="46.07459" lon="4.76339">
        <ele>172</ele>
        <time>2018-03-24T10:59:39Z</time>
      </trkpt>
      <trkpt lat="46.07455" lon="4.76346">
        <ele>172</ele>
        <time>2018-03-24T10:59:40Z</time>
      </trkpt>
      <trkpt lat="46.07451" lon="4.7635">
        <ele>172</ele>
        <time>2018-03-24T10:59:41Z</time>
      </trkpt>
      <trkpt lat="46.07447" lon="4.76355">
        <ele>172</ele>
        <time>2018-03-24T10:59:42Z</time>
      </trkpt>
      <trkpt lat="46.07443" lon="4.76359">
        <ele>171</ele>
        <time>2018-03-24T10:59:43Z</time>
      </trkpt>
      <trkpt lat="46.07438" lon="4.76364">
        <ele>171</ele>
        <time>2018-03-24T10:59:44Z</time>
      </trkpt>
      <trkpt lat="46.07434" lon="4.76368">
        <ele>171</ele>
        <time>2018-03-24T10:59:45Z</time>
      </trkpt>
      <trkpt lat="46.0743" lon="4.76373">
        <ele>171</ele>
        <time>2018-03-24T10:59:46Z</time>
      </trkpt>
      <trkpt lat="46.07426" lon="4.76378">
        <ele>171</ele>
        <time>2018-03-24T10:59:47Z</time>
      </trkpt>
      <trkpt lat="46.07422" lon="4.76383">
        <ele>171</ele>
        <time>2018-03-24T10:59:48Z</time>
      </trkpt>
      <trkpt lat="46.07418" lon="4.76387">
        <ele>171</ele>
        <time>2018-03-24T10:59:49Z</time>
      </trkpt>
      <trkpt lat="46.07414" lon="4.76391">
        <ele>170</ele>
        <time>2018-03-24T10:59:50Z</time>
      </trkpt>
      <trkpt lat="46.07409" lon="4.76396">
        <ele>170</ele>
        <time>2018-03-24T10:59:51Z</time>
      </trkpt>
      <trkpt lat="46.07405" lon="4.764">
        <ele>170</ele>
        <time>2018-03-24T10:59:52Z</time>
      </trkpt>
      <trkpt lat="46.07401" lon="4.76405">
        <ele>171</ele>
        <time>2018-03-24T10:59:53Z</time>
      </trkpt>
      <trkpt lat="46.07397" lon="4.76409">
        <ele>170</ele>
        <time>2018-03-24T10:59:54Z</time>
      </trkpt>
      <trkpt lat="46.07392" lon="4.76414">
        <ele>170</ele>
        <time>2018-03-24T10:59:55Z</time>
      </trkpt>
      <trkpt lat="46.07389" lon="4.76418">
        <ele>171</ele>
        <time>2018-03-24T10:59:56Z</time>
      </trkpt>
      <trkpt lat="46.07385" lon="4.76423">
        <ele>171</ele>
        <time>2018-03-24T10:59:57Z</time>
      </trkpt>
      <trkpt lat="46.0738" lon="4.76428">
        <ele>171</ele>
        <time>2018-03-24T10:59:58Z</time>
      </trkpt>
      <trkpt lat="46.07376" lon="4.76433">
        <ele>171</ele>
        <time>2018-03-24T10:59:59Z</time>
      </trkpt>
      <trkpt lat="46.07372" lon="4.76437">
        <ele>171</ele>
        <time>2018-03-24T11:00:00Z</time>
      </trkpt>
      <trkpt lat="46.07368" lon="4.76442">
        <ele>171</ele>
        <time>2018-03-24T11:00:01Z</time>
      </trkpt>
      <trkpt lat="46.07364" lon="4.76447">
        <ele>171</ele>
        <time>2018-03-24T11:00:02Z</time>
      </trkpt>
      <trkpt lat="46.07359" lon="4.76451">
        <ele>171</ele>
        <time>2018-03-24T11:00:03Z</time>
      </trkpt>
      <trkpt lat="46.07355" lon="4.76455">
        <ele>171</ele>
        <time>2018-03-24T11:00:04Z</time>
      </trkpt>
      <trkpt lat="46.0735" lon="4.7646">
        <ele>171</ele>
        <time>2018-03-24T11:00:05Z</time>
      </trkpt>
      <trkpt lat="46.07346" lon="4.76464">
        <ele>171</ele>
        <time>2018-03-24T11:00:06Z</time>
      </trkpt>
      <trkpt lat="46.07342" lon="4.76468">
        <ele>171</ele>
        <time>2018-03-24T11:00:07Z</time>
      </trkpt>
      <trkpt lat="46.07337" lon="4.76473">
        <ele>171</ele>
        <time>2018-03-24T11:00:08Z</time>
      </trkpt>
      <trkpt lat="46.07332" lon="4.76478">
        <ele>170</ele>
        <time>2018-03-24T11:00:09Z</time>
      </trkpt>
      <trkpt lat="46.07328" lon="4.76481">
        <ele>170</ele>
        <time>2018-03-24T11:00:10Z</time>
      </trkpt>
      <trkpt lat="46.07324" lon="4.76485">
        <ele>170</ele>
        <time>2018-03-24T11:00:11Z</time>
      </trkpt>
      <trkpt lat="46.0732" lon="4.7649">
        <ele>170</ele>
        <time>2018-03-24T11:00:12Z</time>
      </trkpt>
      <trkpt lat="46.07315" lon="4.76494">
        <ele>170</ele>
        <time>2018-03-24T11:00:13Z</time>
      </trkpt>
      <trkpt lat="46.07311" lon="4.76498">
        <ele>170</ele>
        <time>2018-03-24T11:00:14Z</time>
      </trkpt>
      <trkpt lat="46.07307" lon="4.76503">
        <ele>170</ele>
        <time>2018-03-24T11:00:15Z</time>
      </trkpt>
      <trkpt lat="46.07303" lon="4.76508">
        <ele>170</ele>
        <time>2018-03-24T11:00:16Z</time>
      </trkpt>
      <trkpt lat="46.07298" lon="4.76512">
        <ele>170</ele>
        <time>2018-03-24T11:00:17Z</time>
      </trkpt>
      <trkpt lat="46.07293" lon="4.76517">
        <ele>170</ele>
        <time>2018-03-24T11:00:18Z</time>
      </trkpt>
      <trkpt lat="46.07289" lon="4.76522">
        <ele>170</ele>
        <time>2018-03-24T11:00:19Z</time>
      </trkpt>
      <trkpt lat="46.07285" lon="4.76527">
        <ele>170</ele>
        <time>2018-03-24T11:00:20Z</time>
      </trkpt>
      <trkpt lat="46.0728" lon="4.76532">
        <ele>170</ele>
        <time>2018-03-24T11:00:21Z</time>
      </trkpt>
      <trkpt lat="46.07276" lon="4.76538">
        <ele>170</ele>
        <time>2018-03-24T11:00:22Z</time>
      </trkpt>
      <trkpt lat="46.07271" lon="4.76542">
        <ele>170</ele>
        <time>2018-03-24T11:00:23Z</time>
      </trkpt>
      <trkpt lat="46.07267" lon="4.76546">
        <ele>170</ele>
        <time>2018-03-24T11:00:24Z</time>
      </trkpt>
      <trkpt lat="46.0726" lon="4.76553">
        <ele>170</ele>
        <time>2018-03-24T11:00:25Z</time>
      </trkpt>
      <trkpt lat="46.07256" lon="4.76559">
        <ele>170</ele>
        <time>2018-03-24T11:00:26Z</time>
      </trkpt>
      <trkpt lat="46.07251" lon="4.76565">
        <ele>170</ele>
        <time>2018-03-24T11:00:27Z</time>
      </trkpt>
      <trkpt lat="46.07247" lon="4.76571">
        <ele>170</ele>
        <time>2018-03-24T11:00:28Z</time>
      </trkpt>
      <trkpt lat="46.07243" lon="4.76575">
        <ele>170</ele>
        <time>2018-03-24T11:00:29Z</time>
      </trkpt>
      <trkpt lat="46.07238" lon="4.7658">
        <ele>170</ele>
        <time>2018-03-24T11:00:30Z</time>
      </trkpt>
      <trkpt lat="46.07234" lon="4.76587">
        <ele>170</ele>
        <time>2018-03-24T11:00:31Z</time>
      </trkpt>
      <trkpt lat="46.07229" lon="4.76593">
        <ele>170</ele>
        <time>2018-03-24T11:00:32Z</time>
      </trkpt>
      <trkpt lat="46.07225" lon="4.76598">
        <ele>170</ele>
        <time>2018-03-24T11:00:33Z</time>
      </trkpt>
      <trkpt lat="46.07221" lon="4.76604">
        <ele>170</ele>
        <time>2018-03-24T11:00:34Z</time>
      </trkpt>
      <trkpt lat="46.07217" lon="4.7661">
        <ele>170</ele>
        <time>2018-03-24T11:00:35Z</time>
      </trkpt>
      <trkpt lat="46.07214" lon="4.76615">
        <ele>170</ele>
        <time>2018-03-24T11:00:36Z</time>
      </trkpt>
      <trkpt lat="46.07209" lon="4.76622">
        <ele>170</ele>
        <time>2018-03-24T11:00:37Z</time>
      </trkpt>
      <trkpt lat="46.07205" lon="4.76627">
        <ele>170</ele>
        <time>2018-03-24T11:00:38Z</time>
      </trkpt>
      <trkpt lat="46.07201" lon="4.76633">
        <ele>170</ele>
        <time>2018-03-24T11:00:39Z</time>
      </trkpt>
      <trkpt lat="46.07197" lon="4.76638">
        <ele>170</ele>
        <time>2018-03-24T11:00:40Z</time>
      </trkpt>
      <trkpt lat="46.07193" lon="4.76644">
        <ele>170</ele>
        <time>2018-03-24T11:00:41Z</time>
      </trkpt>
      <trkpt lat="46.07189" lon="4.7665">
        <ele>170</ele>
        <time>2018-03-24T11:00:42Z</time>
      </trkpt>
      <trkpt lat="46.07186" lon="4.76656">
        <ele>170</ele>
        <time>2018-03-24T11:00:43Z</time>
      </trkpt>
      <trkpt lat="46.07183" lon="4.76662">
        <ele>170</ele>
        <time>2018-03-24T11:00:44Z</time>
      </trkpt>
      <trkpt lat="46.0718" lon="4.7667">
        <ele>170</ele>
        <time>2018-03-24T11:00:45Z</time>
      </trkpt>
      <trkpt lat="46.07176" lon="4.76676">
        <ele>170</ele>
        <time>2018-03-24T11:00:46Z</time>
      </trkpt>
      <trkpt lat="46.07173" lon="4.76683">
        <ele>170</ele>
        <time>2018-03-24T11:00:47Z</time>
      </trkpt>
      <trkpt lat="46.07169" lon="4.76688">
        <ele>170</ele>
        <time>2018-03-24T11:00:48Z</time>
      </trkpt>
      <trkpt lat="46.07165" lon="4.76695">
        <ele>170</ele>
        <time>2018-03-24T11:00:49Z</time>
      </trkpt>
      <trkpt lat="46.07163" lon="4.76701">
        <ele>170</ele>
        <time>2018-03-24T11:00:50Z</time>
      </trkpt>
      <trkpt lat="46.07159" lon="4.76707">
        <ele>170</ele>
        <time>2018-03-24T11:00:51Z</time>
      </trkpt>
      <trkpt lat="46.07156" lon="4.76714">
        <ele>170</ele>
        <time>2018-03-24T11:00:52Z</time>
      </trkpt>
      <trkpt lat="46.07153" lon="4.76721">
        <ele>170</ele>
        <time>2018-03-24T11:00:53Z</time>
      </trkpt>
      <trkpt lat="46.07149" lon="4.76728">
        <ele>171</ele>
        <time>2018-03-24T11:00:54Z</time>
      </trkpt>
      <trkpt lat="46.07146" lon="4.76735">
        <ele>171</ele>
        <time>2018-03-24T11:00:55Z</time>
      </trkpt>
      <trkpt lat="46.07142" lon="4.76742">
        <ele>171</ele>
        <time>2018-03-24T11:00:56Z</time>
      </trkpt>
      <trkpt lat="46.07138" lon="4.76749">
        <ele>171</ele>
        <time>2018-03-24T11:00:57Z</time>
      </trkpt>
      <trkpt lat="46.07135" lon="4.76755">
        <ele>171</ele>
        <time>2018-03-24T11:00:58Z</time>
      </trkpt>
      <trkpt lat="46.07131" lon="4.76763">
        <ele>171</ele>
        <time>2018-03-24T11:00:59Z</time>
      </trkpt>
      <trkpt lat="46.07128" lon="4.76769">
        <ele>171</ele>
        <time>2018-03-24T11:01:00Z</time>
      </trkpt>
      <trkpt lat="46.07124" lon="4.76777">
        <ele>171</ele>
        <time>2018-03-24T11:01:01Z</time>
      </trkpt>
      <trkpt lat="46.07121" lon="4.76784">
        <ele>171</ele>
        <time>2018-03-24T11:01:02Z</time>
      </trkpt>
      <trkpt lat="46.07117" lon="4.7679">
        <ele>171</ele>
        <time>2018-03-24T11:01:03Z</time>
      </trkpt>
      <trkpt lat="46.07113" lon="4.76797">
        <ele>172</ele>
        <time>2018-03-24T11:01:04Z</time>
      </trkpt>
      <trkpt lat="46.0711" lon="4.76803">
        <ele>172</ele>
        <time>2018-03-24T11:01:05Z</time>
      </trkpt>
      <trkpt lat="46.07107" lon="4.7681">
        <ele>172</ele>
        <time>2018-03-24T11:01:06Z</time>
      </trkpt>
      <trkpt lat="46.07102" lon="4.7682">
        <ele>172</ele>
        <time>2018-03-24T11:01:07Z</time>
      </trkpt>
      <trkpt lat="46.07098" lon="4.76826">
        <ele>172</ele>
        <time>2018-03-24T11:01:08Z</time>
      </trkpt>
      <trkpt lat="46.07096" lon="4.76832">
        <ele>172</ele>
        <time>2018-03-24T11:01:09Z</time>
      </trkpt>
      <trkpt lat="46.07093" lon="4.76839">
        <ele>172</ele>
        <time>2018-03-24T11:01:10Z</time>
      </trkpt>
      <trkpt lat="46.0709" lon="4.76844">
        <ele>172</ele>
        <time>2018-03-24T11:01:11Z</time>
      </trkpt>
      <trkpt lat="46.07087" lon="4.7685">
        <ele>172</ele>
        <time>2018-03-24T11:01:12Z</time>
      </trkpt>
      <trkpt lat="46.07084" lon="4.76858">
        <ele>173</ele>
        <time>2018-03-24T11:01:13Z</time>
      </trkpt>
      <trkpt lat="46.07081" lon="4.76863">
        <ele>172</ele>
        <time>2018-03-24T11:01:14Z</time>
      </trkpt>
      <trkpt lat="46.07078" lon="4.76869">
        <ele>172</ele>
        <time>2018-03-24T11:01:15Z</time>
      </trkpt>
      <trkpt lat="46.07075" lon="4.76875">
        <ele>172</ele>
        <time>2018-03-24T11:01:16Z</time>
      </trkpt>
      <trkpt lat="46.07072" lon="4.76881">
        <ele>172</ele>
        <time>2018-03-24T11:01:17Z</time>
      </trkpt>
      <trkpt lat="46.07068" lon="4.76888">
        <ele>172</ele>
        <time>2018-03-24T11:01:18Z</time>
      </trkpt>
      <trkpt lat="46.07064" lon="4.76894">
        <ele>172</ele>
        <time>2018-03-24T11:01:19Z</time>
      </trkpt>
      <trkpt lat="46.07061" lon="4.76901">
        <ele>172</ele>
        <time>2018-03-24T11:01:20Z</time>
      </trkpt>
      <trkpt lat="46.07059" lon="4.76907">
        <ele>172</ele>
        <time>2018-03-24T11:01:21Z</time>
      </trkpt>
      <trkpt lat="46.07056" lon="4.76914">
        <ele>172</ele>
        <time>2018-03-24T11:01:22Z</time>
      </trkpt>
      <trkpt lat="46.07051" lon="4.76922">
        <ele>173</ele>
        <time>2018-03-24T11:01:23Z</time>
      </trkpt>
      <trkpt lat="46.07048" lon="4.76928">
        <ele>173</ele>
        <time>2018-03-24T11:01:24Z</time>
      </trkpt>
      <trkpt lat="46.07045" lon="4.76934">
        <ele>173</ele>
        <time>2018-03-24T11:01:25Z</time>
      </trkpt>
      <trkpt lat="46.07042" lon="4.7694">
        <ele>173</ele>
        <time>2018-03-24T11:01:26Z</time>
      </trkpt>
      <trkpt lat="46.07039" lon="4.76945">
        <ele>173</ele>
        <time>2018-03-24T11:01:27Z</time>
      </trkpt>
      <trkpt lat="46.07035" lon="4.7695">
        <ele>173</ele>
        <time>2018-03-24T11:01:28Z</time>
      </trkpt>
      <trkpt lat="46.07032" lon="4.76955">
        <ele>173</ele>
        <time>2018-03-24T11:01:29Z</time>
      </trkpt>
      <trkpt lat="46.07029" lon="4.76961">
        <ele>173</ele>
        <time>2018-03-24T11:01:30Z</time>
      </trkpt>
      <trkpt lat="46.07026" lon="4.76967">
        <ele>173</ele>
        <time>2018-03-24T11:01:31Z</time>
      </trkpt>
      <trkpt lat="46.07024" lon="4.76973">
        <ele>173</ele>
        <time>2018-03-24T11:01:32Z</time>
      </trkpt>
      <trkpt lat="46.0702" lon="4.76978">
        <ele>173</ele>
        <time>2018-03-24T11:01:33Z</time>
      </trkpt>
      <trkpt lat="46.07018" lon="4.76986">
        <ele>173</ele>
        <time>2018-03-24T11:01:34Z</time>
      </trkpt>
      <trkpt lat="46.07015" lon="4.76991">
        <ele>173</ele>
        <time>2018-03-24T11:01:35Z</time>
      </trkpt>
      <trkpt lat="46.07012" lon="4.76996">
        <ele>173</ele>
        <time>2018-03-24T11:01:36Z</time>
      </trkpt>
      <trkpt lat="46.07009" lon="4.77002">
        <ele>173</ele>
        <time>2018-03-24T11:01:37Z</time>
      </trkpt>
      <trkpt lat="46.07005" lon="4.77009">
        <ele>173</ele>
        <time>2018-03-24T11:01:38Z</time>
      </trkpt>
      <trkpt lat="46.07002" lon="4.77013">
        <ele>174</ele>
        <time>2018-03-24T11:01:39Z</time>
      </trkpt>
      <trkpt lat="46.06997" lon="4.77023">
        <ele>173</ele>
        <time>2018-03-24T11:01:41Z</time>
      </trkpt>
      <trkpt lat="46.06995" lon="4.77028">
        <ele>173</ele>
        <time>2018-03-24T11:01:42Z</time>
      </trkpt>
      <trkpt lat="46.06991" lon="4.77033">
        <ele>173</ele>
        <time>2018-03-24T11:01:43Z</time>
      </trkpt>
      <trkpt lat="46.06988" lon="4.77037">
        <ele>173</ele>
        <time>2018-03-24T11:01:44Z</time>
      </trkpt>
      <trkpt lat="46.06984" lon="4.77046">
        <ele>173</ele>
        <time>2018-03-24T11:01:46Z</time>
      </trkpt>
      <trkpt lat="46.06981" lon="4.7705">
        <ele>173</ele>
        <time>2018-03-24T11:01:47Z</time>
      </trkpt>
      <trkpt lat="46.06977" lon="4.77058">
        <ele>173</ele>
        <time>2018-03-24T11:01:49Z</time>
      </trkpt>
      <trkpt lat="46.06975" lon="4.77063">
        <ele>173</ele>
        <time>2018-03-24T11:01:50Z</time>
      </trkpt>
      <trkpt lat="46.06968" lon="4.77068">
        <ele>173</ele>
        <time>2018-03-24T11:01:52Z</time>
      </trkpt>
      <trkpt lat="46.06964" lon="4.7707">
        <ele>173</ele>
        <time>2018-03-24T11:01:53Z</time>
      </trkpt>
      <trkpt lat="46.0696" lon="4.77071">
        <ele>173</ele>
        <time>2018-03-24T11:01:54Z</time>
      </trkpt>
      <trkpt lat="46.06954" lon="4.77071">
        <ele>173</ele>
        <time>2018-03-24T11:01:55Z</time>
      </trkpt>
      <trkpt lat="46.0695" lon="4.7707">
        <ele>173</ele>
        <time>2018-03-24T11:01:56Z</time>
      </trkpt>
      <trkpt lat="46.06944" lon="4.77071">
        <ele>173</ele>
        <time>2018-03-24T11:01:57Z</time>
      </trkpt>
      <trkpt lat="46.06939" lon="4.77071">
        <ele>173</ele>
        <time>2018-03-24T11:01:58Z</time>
      </trkpt>
      <trkpt lat="46.06934" lon="4.77071">
        <ele>173</ele>
        <time>2018-03-24T11:01:59Z</time>
      </trkpt>
      <trkpt lat="46.06928" lon="4.77071">
        <ele>173</ele>
        <time>2018-03-24T11:02:00Z</time>
      </trkpt>
      <trkpt lat="46.06922" lon="4.77071">
        <ele>173</ele>
        <time>2018-03-24T11:02:01Z</time>
      </trkpt>
      <trkpt lat="46.06916" lon="4.77071">
        <ele>173</ele>
        <time>2018-03-24T11:02:02Z</time>
      </trkpt>
      <trkpt lat="46.06912" lon="4.77072">
        <ele>173</ele>
        <time>2018-03-24T11:02:03Z</time>
      </trkpt>
      <trkpt lat="46.06906" lon="4.77072">
        <ele>173</ele>
        <time>2018-03-24T11:02:04Z</time>
      </trkpt>
      <trkpt lat="46.06901" lon="4.77071">
        <ele>173</ele>
        <time>2018-03-24T11:02:05Z</time>
      </trkpt>
      <trkpt lat="46.06895" lon="4.77071">
        <ele>173</ele>
        <time>2018-03-24T11:02:06Z</time>
      </trkpt>
      <trkpt lat="46.0689" lon="4.77071">
        <ele>173</ele>
        <time>2018-03-24T11:02:07Z</time>
      </trkpt>
      <trkpt lat="46.06885" lon="4.77071">
        <ele>173</ele>
        <time>2018-03-24T11:02:08Z</time>
      </trkpt>
      <trkpt lat="46.0688" lon="4.77071">
        <ele>173</ele>
        <time>2018-03-24T11:02:09Z</time>
      </trkpt>
      <trkpt lat="46.06874" lon="4.77072">
        <ele>173</ele>
        <time>2018-03-24T11:02:10Z</time>
      </trkpt>
      <trkpt lat="46.06869" lon="4.77072">
        <ele>173</ele>
        <time>2018-03-24T11:02:11Z</time>
      </trkpt>
      <trkpt lat="46.06863" lon="4.77074">
        <ele>173</ele>
        <time>2018-03-24T11:02:12Z</time>
      </trkpt>
      <trkpt lat="46.06858" lon="4.77075">
        <ele>173</ele>
        <time>2018-03-24T11:02:13Z</time>
      </trkpt>
      <trkpt lat="46.06854" lon="4.77077">
        <ele>173</ele>
        <time>2018-03-24T11:02:14Z</time>
      </trkpt>
      <trkpt lat="46.06849" lon="4.77079">
        <ele>173</ele>
        <time>2018-03-24T11:02:15Z</time>
      </trkpt>
      <trkpt lat="46.06844" lon="4.77081">
        <ele>173</ele>
        <time>2018-03-24T11:02:16Z</time>
      </trkpt>
      <trkpt lat="46.0684" lon="4.77084">
        <ele>173</ele>
        <time>2018-03-24T11:02:17Z</time>
      </trkpt>
      <trkpt lat="46.06832" lon="4.77089">
        <ele>173</ele>
        <time>2018-03-24T11:02:19Z</time>
      </trkpt>
      <trkpt lat="46.06827" lon="4.77092">
        <ele>173</ele>
        <time>2018-03-24T11:02:20Z</time>
      </trkpt>
      <trkpt lat="46.06823" lon="4.77096">
        <ele>173</ele>
        <time>2018-03-24T11:02:21Z</time>
      </trkpt>
      <trkpt lat="46.06818" lon="4.77099">
        <ele>173</ele>
        <time>2018-03-24T11:02:22Z</time>
      </trkpt>
      <trkpt lat="46.06813" lon="4.77102">
        <ele>172</ele>
        <time>2018-03-24T11:02:23Z</time>
      </trkpt>
      <trkpt lat="46.06807" lon="4.77105">
        <ele>172</ele>
        <time>2018-03-24T11:02:24Z</time>
      </trkpt>
      <trkpt lat="46.06803" lon="4.7711">
        <ele>172</ele>
        <time>2018-03-24T11:02:25Z</time>
      </trkpt>
      <trkpt lat="46.068" lon="4.77113">
        <ele>172</ele>
        <time>2018-03-24T11:02:26Z</time>
      </trkpt>
      <trkpt lat="46.06796" lon="4.77117">
        <ele>172</ele>
        <time>2018-03-24T11:02:27Z</time>
      </trkpt>
      <trkpt lat="46.06791" lon="4.77122">
        <ele>172</ele>
        <time>2018-03-24T11:02:28Z</time>
      </trkpt>
      <trkpt lat="46.06788" lon="4.77128">
        <ele>172</ele>
        <time>2018-03-24T11:02:29Z</time>
      </trkpt>
      <trkpt lat="46.06783" lon="4.77132">
        <ele>172</ele>
        <time>2018-03-24T11:02:30Z</time>
      </trkpt>
      <trkpt lat="46.06779" lon="4.77136">
        <ele>172</ele>
        <time>2018-03-24T11:02:31Z</time>
      </trkpt>
      <trkpt lat="46.06774" lon="4.7714">
        <ele>172</ele>
        <time>2018-03-24T11:02:32Z</time>
      </trkpt>
      <trkpt lat="46.0677" lon="4.77145">
        <ele>172</ele>
        <time>2018-03-24T11:02:33Z</time>
      </trkpt>
      <trkpt lat="46.06766" lon="4.77149">
        <ele>172</ele>
        <time>2018-03-24T11:02:34Z</time>
      </trkpt>
      <trkpt lat="46.06761" lon="4.77154">
        <ele>172</ele>
        <time>2018-03-24T11:02:35Z</time>
      </trkpt>
      <trkpt lat="46.06757" lon="4.77158">
        <ele>172</ele>
        <time>2018-03-24T11:02:36Z</time>
      </trkpt>
      <trkpt lat="46.06753" lon="4.77163">
        <ele>172</ele>
        <time>2018-03-24T11:02:37Z</time>
      </trkpt>
      <trkpt lat="46.06748" lon="4.77168">
        <ele>172</ele>
        <time>2018-03-24T11:02:38Z</time>
      </trkpt>
      <trkpt lat="46.06744" lon="4.77172">
        <ele>172</ele>
        <time>2018-03-24T11:02:39Z</time>
      </trkpt>
      <trkpt lat="46.06739" lon="4.77176">
        <ele>172</ele>
        <time>2018-03-24T11:02:40Z</time>
      </trkpt>
      <trkpt lat="46.06733" lon="4.77179">
        <ele>172</ele>
        <time>2018-03-24T11:02:41Z</time>
      </trkpt>
      <trkpt lat="46.06728" lon="4.77181">
        <ele>172</ele>
        <time>2018-03-24T11:02:42Z</time>
      </trkpt>
      <trkpt lat="46.06723" lon="4.77183">
        <ele>172</ele>
        <time>2018-03-24T11:02:43Z</time>
      </trkpt>
      <trkpt lat="46.06718" lon="4.77186">
        <ele>172</ele>
        <time>2018-03-24T11:02:44Z</time>
      </trkpt>
      <trkpt lat="46.06713" lon="4.77188">
        <ele>172</ele>
        <time>2018-03-24T11:02:45Z</time>
      </trkpt>
      <trkpt lat="46.06709" lon="4.77191">
        <ele>172</ele>
        <time>2018-03-24T11:02:46Z</time>
      </trkpt>
      <trkpt lat="46.06704" lon="4.77193">
        <ele>172</ele>
        <time>2018-03-24T11:02:47Z</time>
      </trkpt>
      <trkpt lat="46.06699" lon="4.77195">
        <ele>172</ele>
        <time>2018-03-24T11:02:48Z</time>
      </trkpt>
      <trkpt lat="46.06693" lon="4.77196">
        <ele>172</ele>
        <time>2018-03-24T11:02:49Z</time>
      </trkpt>
      <trkpt lat="46.06688" lon="4.77197">
        <ele>172</ele>
        <time>2018-03-24T11:02:50Z</time>
      </trkpt>
      <trkpt lat="46.06683" lon="4.77199">
        <ele>172</ele>
        <time>2018-03-24T11:02:51Z</time>
      </trkpt>
      <trkpt lat="46.06679" lon="4.77204">
        <ele>172</ele>
        <time>2018-03-24T11:02:52Z</time>
      </trkpt>
      <trkpt lat="46.06676" lon="4.77209">
        <ele>172</ele>
        <time>2018-03-24T11:02:53Z</time>
      </trkpt>
      <trkpt lat="46.06675" lon="4.77216">
        <ele>172</ele>
        <time>2018-03-24T11:02:54Z</time>
      </trkpt>
      <trkpt lat="46.06674" lon="4.77223">
        <ele>172</ele>
        <time>2018-03-24T11:02:55Z</time>
      </trkpt>
      <trkpt lat="46.06675" lon="4.7723">
        <ele>172</ele>
        <time>2018-03-24T11:02:56Z</time>
      </trkpt>
      <trkpt lat="46.06675" lon="4.77238">
        <ele>173</ele>
        <time>2018-03-24T11:02:57Z</time>
      </trkpt>
      <trkpt lat="46.06673" lon="4.77244">
        <ele>173</ele>
        <time>2018-03-24T11:02:58Z</time>
      </trkpt>
      <trkpt lat="46.06671" lon="4.77251">
        <ele>173</ele>
        <time>2018-03-24T11:02:59Z</time>
      </trkpt>
      <trkpt lat="46.06668" lon="4.77256">
        <ele>173</ele>
        <time>2018-03-24T11:03:00Z</time>
      </trkpt>
      <trkpt lat="46.06666" lon="4.77261">
        <ele>173</ele>
        <time>2018-03-24T11:03:01Z</time>
      </trkpt>
      <trkpt lat="46.06664" lon="4.77267">
        <ele>173</ele>
        <time>2018-03-24T11:03:02Z</time>
      </trkpt>
      <trkpt lat="46.06661" lon="4.77273">
        <ele>174</ele>
        <time>2018-03-24T11:03:03Z</time>
      </trkpt>
      <trkpt lat="46.06659" lon="4.77279">
        <ele>174</ele>
        <time>2018-03-24T11:03:04Z</time>
      </trkpt>
      <trkpt lat="46.06656" lon="4.77285">
        <ele>174</ele>
        <time>2018-03-24T11:03:05Z</time>
      </trkpt>
      <trkpt lat="46.06654" lon="4.77292">
        <ele>174</ele>
        <time>2018-03-24T11:03:06Z</time>
      </trkpt>
      <trkpt lat="46.06651" lon="4.77297">
        <ele>174</ele>
        <time>2018-03-24T11:03:07Z</time>
      </trkpt>
      <trkpt lat="46.06648" lon="4.77303">
        <ele>174</ele>
        <time>2018-03-24T11:03:08Z</time>
      </trkpt>
      <trkpt lat="46.06647" lon="4.7731">
        <ele>174</ele>
        <time>2018-03-24T11:03:09Z</time>
      </trkpt>
      <trkpt lat="46.06645" lon="4.77317">
        <ele>174</ele>
        <time>2018-03-24T11:03:10Z</time>
      </trkpt>
      <trkpt lat="46.06644" lon="4.77323">
        <ele>174</ele>
        <time>2018-03-24T11:03:11Z</time>
      </trkpt>
      <trkpt lat="46.06641" lon="4.77329">
        <ele>174</ele>
        <time>2018-03-24T11:03:12Z</time>
      </trkpt>
      <trkpt lat="46.06637" lon="4.77339">
        <ele>176</ele>
        <time>2018-03-24T11:03:14Z</time>
      </trkpt>
      <trkpt lat="46.06634" lon="4.77346">
        <ele>176</ele>
        <time>2018-03-24T11:03:15Z</time>
      </trkpt>
      <trkpt lat="46.06632" lon="4.77351">
        <ele>176</ele>
        <time>2018-03-24T11:03:16Z</time>
      </trkpt>
      <trkpt lat="46.06629" lon="4.77356">
        <ele>176</ele>
        <time>2018-03-24T11:03:17Z</time>
      </trkpt>
      <trkpt lat="46.06625" lon="4.77367">
        <ele>176</ele>
        <time>2018-03-24T11:03:19Z</time>
      </trkpt>
      <trkpt lat="46.06623" lon="4.77373">
        <ele>176</ele>
        <time>2018-03-24T11:03:20Z</time>
      </trkpt>
      <trkpt lat="46.06622" lon="4.77377">
        <ele>176</ele>
        <time>2018-03-24T11:03:22Z</time>
      </trkpt>
      <trkpt lat="46.06617" lon="4.77386">
        <ele>177</ele>
        <time>2018-03-24T11:03:23Z</time>
      </trkpt>
      <trkpt lat="46.06614" lon="4.77395">
        <ele>177</ele>
        <time>2018-03-24T11:03:26Z</time>
      </trkpt>
      <trkpt lat="46.06612" lon="4.77402">
        <ele>177</ele>
        <time>2018-03-24T11:03:27Z</time>
      </trkpt>
      <trkpt lat="46.06609" lon="4.77409">
        <ele>177</ele>
        <time>2018-03-24T11:03:29Z</time>
      </trkpt>
      <trkpt lat="46.06606" lon="4.77418">
        <ele>179</ele>
        <time>2018-03-24T11:03:30Z</time>
      </trkpt>
      <trkpt lat="46.06605" lon="4.7743">
        <ele>179</ele>
        <time>2018-03-24T11:03:33Z</time>
      </trkpt>
      <trkpt lat="46.06603" lon="4.77437">
        <ele>179</ele>
        <time>2018-03-24T11:03:34Z</time>
      </trkpt>
      <trkpt lat="46.06599" lon="4.77446">
        <ele>180</ele>
        <time>2018-03-24T11:03:37Z</time>
      </trkpt>
      <trkpt lat="46.06595" lon="4.77456">
        <ele>180</ele>
        <time>2018-03-24T11:03:38Z</time>
      </trkpt>
      <trkpt lat="46.06595" lon="4.77462">
        <ele>180</ele>
        <time>2018-03-24T11:03:39Z</time>
      </trkpt>
      <trkpt lat="46.06599" lon="4.77471">
        <ele>181</ele>
        <time>2018-03-24T11:03:40Z</time>
      </trkpt>
      <trkpt lat="46.06601" lon="4.7748">
        <ele>181</ele>
        <time>2018-03-24T11:03:43Z</time>
      </trkpt>
      <trkpt lat="46.06604" lon="4.77489">
        <ele>181</ele>
        <time>2018-03-24T11:03:44Z</time>
      </trkpt>
      <trkpt lat="46.06609" lon="4.77496">
        <ele>181</ele>
        <time>2018-03-24T11:03:47Z</time>
      </trkpt>
      <trkpt lat="46.0661" lon="4.775">
        <ele>181</ele>
        <time>2018-03-24T11:03:48Z</time>
      </trkpt>
      <trkpt lat="46.06614" lon="4.77507">
        <ele>183</ele>
        <time>2018-03-24T11:03:50Z</time>
      </trkpt>
      <trkpt lat="46.06616" lon="4.77512">
        <ele>183</ele>
        <time>2018-03-24T11:03:51Z</time>
      </trkpt>
      <trkpt lat="46.0662" lon="4.7752">
        <ele>183</ele>
        <time>2018-03-24T11:03:53Z</time>
      </trkpt>
      <trkpt lat="46.06621" lon="4.77525">
        <ele>183</ele>
        <time>2018-03-24T11:03:54Z</time>
      </trkpt>
      <trkpt lat="46.06624" lon="4.77533">
        <ele>183</ele>
        <time>2018-03-24T11:03:56Z</time>
      </trkpt>
      <trkpt lat="46.06625" lon="4.77537">
        <ele>183</ele>
        <time>2018-03-24T11:03:57Z</time>
      </trkpt>
      <trkpt lat="46.06627" lon="4.77545">
        <ele>183</ele>
        <time>2018-03-24T11:03:59Z</time>
      </trkpt>
      <trkpt lat="46.06627" lon="4.77549">
        <ele>183</ele>
        <time>2018-03-24T11:04:00Z</time>
      </trkpt>
      <trkpt lat="46.06629" lon="4.77558">
        <ele>183</ele>
        <time>2018-03-24T11:04:02Z</time>
      </trkpt>
      <trkpt lat="46.06629" lon="4.77562">
        <ele>183</ele>
        <time>2018-03-24T11:04:03Z</time>
      </trkpt>
      <trkpt lat="46.06629" lon="4.77575">
        <ele>183</ele>
        <time>2018-03-24T11:04:06Z</time>
      </trkpt>
      <trkpt lat="46.06629" lon="4.77579">
        <ele>183</ele>
        <time>2018-03-24T11:04:07Z</time>
      </trkpt>
      <trkpt lat="46.06629" lon="4.77592">
        <ele>185</ele>
        <time>2018-03-24T11:04:10Z</time>
      </trkpt>
      <trkpt lat="46.06629" lon="4.77596">
        <ele>185</ele>
        <time>2018-03-24T11:04:11Z</time>
      </trkpt>
      <trkpt lat="46.06628" lon="4.77609">
        <ele>185</ele>
        <time>2018-03-24T11:04:14Z</time>
      </trkpt>
      <trkpt lat="46.06627" lon="4.77613">
        <ele>185</ele>
        <time>2018-03-24T11:04:15Z</time>
      </trkpt>
      <trkpt lat="46.06627" lon="4.77624">
        <ele>185</ele>
        <time>2018-03-24T11:04:18Z</time>
      </trkpt>
      <trkpt lat="46.06626" lon="4.77628">
        <ele>185</ele>
        <time>2018-03-24T11:04:19Z</time>
      </trkpt>
      <trkpt lat="46.06624" lon="4.7764">
        <ele>185</ele>
        <time>2018-03-24T11:04:22Z</time>
      </trkpt>
      <trkpt lat="46.06623" lon="4.77644">
        <ele>185</ele>
        <time>2018-03-24T11:04:23Z</time>
      </trkpt>
      <trkpt lat="46.06621" lon="4.77653">
        <ele>185</ele>
        <time>2018-03-24T11:04:25Z</time>
      </trkpt>
      <trkpt lat="46.06619" lon="4.77657">
        <ele>185</ele>
        <time>2018-03-24T11:04:26Z</time>
      </trkpt>
      <trkpt lat="46.06616" lon="4.77665">
        <ele>185</ele>
        <time>2018-03-24T11:04:28Z</time>
      </trkpt>
      <trkpt lat="46.06614" lon="4.77668">
        <ele>187</ele>
        <time>2018-03-24T11:04:29Z</time>
      </trkpt>
      <trkpt lat="46.06609" lon="4.77675">
        <ele>187</ele>
        <time>2018-03-24T11:04:31Z</time>
      </trkpt>
      <trkpt lat="46.06607" lon="4.77678">
        <ele>187</ele>
        <time>2018-03-24T11:04:32Z</time>
      </trkpt>
      <trkpt lat="46.06601" lon="4.77683">
        <ele>187</ele>
        <time>2018-03-24T11:04:34Z</time>
      </trkpt>
      <trkpt lat="46.06599" lon="4.77685">
        <ele>187</ele>
        <time>2018-03-24T11:04:35Z</time>
      </trkpt>
      <trkpt lat="46.06595" lon="4.77687">
        <ele>187</ele>
        <time>2018-03-24T11:04:36Z</time>
      </trkpt>
      <trkpt lat="46.06586" lon="4.77692">
        <ele>187</ele>
        <time>2018-03-24T11:04:37Z</time>
      </trkpt>
      <trkpt lat="46.06577" lon="4.77696">
        <ele>188</ele>
        <time>2018-03-24T11:04:41Z</time>
      </trkpt>
      <trkpt lat="46.06575" lon="4.77697">
        <ele>188</ele>
        <time>2018-03-24T11:04:42Z</time>
      </trkpt>
      <trkpt lat="46.06568" lon="4.77702">
        <ele>189</ele>
        <time>2018-03-24T11:04:45Z</time>
      </trkpt>
      <trkpt lat="46.06566" lon="4.77705">
        <ele>189</ele>
        <time>2018-03-24T11:04:46Z</time>
      </trkpt>
      <trkpt lat="46.06563" lon="4.77708">
        <ele>189</ele>
        <time>2018-03-24T11:04:47Z</time>
      </trkpt>
      <trkpt lat="46.06557" lon="4.77717">
        <ele>189</ele>
        <time>2018-03-24T11:04:48Z</time>
      </trkpt>
      <trkpt lat="46.06551" lon="4.77725">
        <ele>189</ele>
        <time>2018-03-24T11:04:50Z</time>
      </trkpt>
      <trkpt lat="46.06549" lon="4.77729">
        <ele>189</ele>
        <time>2018-03-24T11:04:51Z</time>
      </trkpt>
      <trkpt lat="46.06544" lon="4.77738">
        <ele>190</ele>
        <time>2018-03-24T11:04:53Z</time>
      </trkpt>
      <trkpt lat="46.06541" lon="4.77742">
        <ele>190</ele>
        <time>2018-03-24T11:04:54Z</time>
      </trkpt>
      <trkpt lat="46.06536" lon="4.77751">
        <ele>191</ele>
        <time>2018-03-24T11:04:56Z</time>
      </trkpt>
      <trkpt lat="46.06534" lon="4.77755">
        <ele>191</ele>
        <time>2018-03-24T11:04:57Z</time>
      </trkpt>
      <trkpt lat="46.06529" lon="4.77764">
        <ele>192</ele>
        <time>2018-03-24T11:04:59Z</time>
      </trkpt>
      <trkpt lat="46.06527" lon="4.77766">
        <ele>192</ele>
        <time>2018-03-24T11:05:00Z</time>
      </trkpt>
      <trkpt lat="46.06522" lon="4.77775">
        <ele>192</ele>
        <time>2018-03-24T11:05:02Z</time>
      </trkpt>
      <trkpt lat="46.0652" lon="4.77778">
        <ele>192</ele>
        <time>2018-03-24T11:05:03Z</time>
      </trkpt>
      <trkpt lat="46.06515" lon="4.77788">
        <ele>192</ele>
        <time>2018-03-24T11:05:05Z</time>
      </trkpt>
      <trkpt lat="46.06513" lon="4.77791">
        <ele>192</ele>
        <time>2018-03-24T11:05:06Z</time>
      </trkpt>
      <trkpt lat="46.06509" lon="4.77798">
        <ele>192</ele>
        <time>2018-03-24T11:05:07Z</time>
      </trkpt>
      <trkpt lat="46.06506" lon="4.77803">
        <ele>192</ele>
        <time>2018-03-24T11:05:08Z</time>
      </trkpt>
      <trkpt lat="46.06502" lon="4.77812">
        <ele>192</ele>
        <time>2018-03-24T11:05:10Z</time>
      </trkpt>
      <trkpt lat="46.065" lon="4.77814">
        <ele>192</ele>
        <time>2018-03-24T11:05:11Z</time>
      </trkpt>
      <trkpt lat="46.06499" lon="4.77817">
        <ele>192</ele>
        <time>2018-03-24T11:05:12Z</time>
      </trkpt>
      <trkpt lat="46.06495" lon="4.77825">
        <ele>192</ele>
        <time>2018-03-24T11:05:13Z</time>
      </trkpt>
      <trkpt lat="46.0649" lon="4.77833">
        <ele>192</ele>
        <time>2018-03-24T11:05:15Z</time>
      </trkpt>
      <trkpt lat="46.06489" lon="4.77836">
        <ele>192</ele>
        <time>2018-03-24T11:05:16Z</time>
      </trkpt>
      <trkpt lat="46.06485" lon="4.77846">
        <ele>192</ele>
        <time>2018-03-24T11:05:19Z</time>
      </trkpt>
      <trkpt lat="46.06483" lon="4.7785">
        <ele>192</ele>
        <time>2018-03-24T11:05:20Z</time>
      </trkpt>
      <trkpt lat="46.0648" lon="4.77858">
        <ele>192</ele>
        <time>2018-03-24T11:05:22Z</time>
      </trkpt>
      <trkpt lat="46.06478" lon="4.77863">
        <ele>192</ele>
        <time>2018-03-24T11:05:23Z</time>
      </trkpt>
      <trkpt lat="46.06476" lon="4.77871">
        <ele>193</ele>
        <time>2018-03-24T11:05:25Z</time>
      </trkpt>
      <trkpt lat="46.06474" lon="4.77875">
        <ele>193</ele>
        <time>2018-03-24T11:05:26Z</time>
      </trkpt>
      <trkpt lat="46.06472" lon="4.77883">
        <ele>193</ele>
        <time>2018-03-24T11:05:28Z</time>
      </trkpt>
      <trkpt lat="46.06471" lon="4.77887">
        <ele>193</ele>
        <time>2018-03-24T11:05:29Z</time>
      </trkpt>
      <trkpt lat="46.06467" lon="4.77899">
        <ele>193</ele>
        <time>2018-03-24T11:05:32Z</time>
      </trkpt>
      <trkpt lat="46.06465" lon="4.77902">
        <ele>193</ele>
        <time>2018-03-24T11:05:33Z</time>
      </trkpt>
      <trkpt lat="46.06462" lon="4.77913">
        <ele>193</ele>
        <time>2018-03-24T11:05:36Z</time>
      </trkpt>
      <trkpt lat="46.0646" lon="4.77917">
        <ele>194</ele>
        <time>2018-03-24T11:05:37Z</time>
      </trkpt>
      <trkpt lat="46.06456" lon="4.77928">
        <ele>195</ele>
        <time>2018-03-24T11:05:40Z</time>
      </trkpt>
      <trkpt lat="46.06455" lon="4.77932">
        <ele>195</ele>
        <time>2018-03-24T11:05:41Z</time>
      </trkpt>
      <trkpt lat="46.06451" lon="4.77943">
        <ele>195</ele>
        <time>2018-03-24T11:05:44Z</time>
      </trkpt>
      <trkpt lat="46.06451" lon="4.77947">
        <ele>195</ele>
        <time>2018-03-24T11:05:45Z</time>
      </trkpt>
      <trkpt lat="46.06449" lon="4.77958">
        <ele>195</ele>
        <time>2018-03-24T11:05:48Z</time>
      </trkpt>
      <trkpt lat="46.06448" lon="4.77962">
        <ele>195</ele>
        <time>2018-03-24T11:05:49Z</time>
      </trkpt>
      <trkpt lat="46.06446" lon="4.77974">
        <ele>195</ele>
        <time>2018-03-24T11:05:52Z</time>
      </trkpt>
      <trkpt lat="46.06445" lon="4.77978">
        <ele>195</ele>
        <time>2018-03-24T11:05:53Z</time>
      </trkpt>
      <trkpt lat="46.06444" lon="4.77987">
        <ele>195</ele>
        <time>2018-03-24T11:05:55Z</time>
      </trkpt>
      <trkpt lat="46.06443" lon="4.77991">
        <ele>195</ele>
        <time>2018-03-24T11:05:56Z</time>
      </trkpt>
      <trkpt lat="46.06441" lon="4.78">
        <ele>195</ele>
        <time>2018-03-24T11:05:58Z</time>
      </trkpt>
      <trkpt lat="46.0644" lon="4.78004">
        <ele>197</ele>
        <time>2018-03-24T11:05:59Z</time>
      </trkpt>
      <trkpt lat="46.06437" lon="4.78012">
        <ele>197</ele>
        <time>2018-03-24T11:06:01Z</time>
      </trkpt>
      <trkpt lat="46.06435" lon="4.78016">
        <ele>197</ele>
        <time>2018-03-24T11:06:02Z</time>
      </trkpt>
      <trkpt lat="46.06433" lon="4.7802">
        <ele>197</ele>
        <time>2018-03-24T11:06:03Z</time>
      </trkpt>
      <trkpt lat="46.06428" lon="4.7803">
        <ele>198</ele>
        <time>2018-03-24T11:06:04Z</time>
      </trkpt>
      <trkpt lat="46.06423" lon="4.78036">
        <ele>198</ele>
        <time>2018-03-24T11:06:07Z</time>
      </trkpt>
      <trkpt lat="46.06421" lon="4.78039">
        <ele>198</ele>
        <time>2018-03-24T11:06:08Z</time>
      </trkpt>
      <trkpt lat="46.06419" lon="4.78042">
        <ele>198</ele>
        <time>2018-03-24T11:06:09Z</time>
      </trkpt>
      <trkpt lat="46.06413" lon="4.7805">
        <ele>197</ele>
        <time>2018-03-24T11:06:10Z</time>
      </trkpt>
      <trkpt lat="46.06407" lon="4.78059">
        <ele>198</ele>
        <time>2018-03-24T11:06:13Z</time>
      </trkpt>
      <trkpt lat="46.06405" lon="4.78061">
        <ele>198</ele>
        <time>2018-03-24T11:06:14Z</time>
      </trkpt>
      <trkpt lat="46.064" lon="4.78069">
        <ele>198</ele>
        <time>2018-03-24T11:06:15Z</time>
      </trkpt>
      <trkpt lat="46.06398" lon="4.78074">
        <ele>198</ele>
        <time>2018-03-24T11:06:16Z</time>
      </trkpt>
      <trkpt lat="46.06394" lon="4.78084">
        <ele>200</ele>
        <time>2018-03-24T11:06:18Z</time>
      </trkpt>
      <trkpt lat="46.06392" lon="4.78089">
        <ele>200</ele>
        <time>2018-03-24T11:06:19Z</time>
      </trkpt>
      <trkpt lat="46.06389" lon="4.78099">
        <ele>200</ele>
        <time>2018-03-24T11:06:21Z</time>
      </trkpt>
      <trkpt lat="46.06387" lon="4.78104">
        <ele>200</ele>
        <time>2018-03-24T11:06:22Z</time>
      </trkpt>
      <trkpt lat="46.06385" lon="4.78114">
        <ele>200</ele>
        <time>2018-03-24T11:06:24Z</time>
      </trkpt>
      <trkpt lat="46.06384" lon="4.7812">
        <ele>200</ele>
        <time>2018-03-24T11:06:25Z</time>
      </trkpt>
      <trkpt lat="46.06384" lon="4.78131">
        <ele>201</ele>
        <time>2018-03-24T11:06:27Z</time>
      </trkpt>
      <trkpt lat="46.06385" lon="4.78137">
        <ele>201</ele>
        <time>2018-03-24T11:06:28Z</time>
      </trkpt>
      <trkpt lat="46.06385" lon="4.78149">
        <ele>201</ele>
        <time>2018-03-24T11:06:30Z</time>
      </trkpt>
      <trkpt lat="46.06385" lon="4.78155">
        <ele>201</ele>
        <time>2018-03-24T11:06:31Z</time>
      </trkpt>
      <trkpt lat="46.06385" lon="4.78166">
        <ele>201</ele>
        <time>2018-03-24T11:06:33Z</time>
      </trkpt>
      <trkpt lat="46.06386" lon="4.78172">
        <ele>204</ele>
        <time>2018-03-24T11:06:34Z</time>
      </trkpt>
      <trkpt lat="46.06386" lon="4.78183">
        <ele>204</ele>
        <time>2018-03-24T11:06:36Z</time>
      </trkpt>
      <trkpt lat="46.06386" lon="4.78188">
        <ele>204</ele>
        <time>2018-03-24T11:06:37Z</time>
      </trkpt>
      <trkpt lat="46.06385" lon="4.78198">
        <ele>204</ele>
        <time>2018-03-24T11:06:39Z</time>
      </trkpt>
      <trkpt lat="46.06384" lon="4.78203">
        <ele>204</ele>
        <time>2018-03-24T11:06:40Z</time>
      </trkpt>
      <trkpt lat="46.0638" lon="4.78212">
        <ele>204</ele>
        <time>2018-03-24T11:06:42Z</time>
      </trkpt>
      <trkpt lat="46.06379" lon="4.78214">
        <ele>204</ele>
        <time>2018-03-24T11:06:43Z</time>
      </trkpt>
      <trkpt lat="46.06373" lon="4.7822">
        <ele>204</ele>
        <time>2018-03-24T11:06:45Z</time>
      </trkpt>
      <trkpt lat="46.06371" lon="4.78222">
        <ele>205</ele>
        <time>2018-03-24T11:06:46Z</time>
      </trkpt>
      <trkpt lat="46.06365" lon="4.78228">
        <ele>205</ele>
        <time>2018-03-24T11:06:49Z</time>
      </trkpt>
      <trkpt lat="46.06363" lon="4.7823">
        <ele>205</ele>
        <time>2018-03-24T11:06:50Z</time>
      </trkpt>
      <trkpt lat="46.06358" lon="4.78235">
        <ele>205</ele>
        <time>2018-03-24T11:06:52Z</time>
      </trkpt>
      <trkpt lat="46.06355" lon="4.78237">
        <ele>205</ele>
        <time>2018-03-24T11:06:53Z</time>
      </trkpt>
      <trkpt lat="46.06346" lon="4.78243">
        <ele>205</ele>
        <time>2018-03-24T11:06:54Z</time>
      </trkpt>
      <trkpt lat="46.06342" lon="4.78243">
        <ele>205</ele>
        <time>2018-03-24T11:06:55Z</time>
      </trkpt>
      <trkpt lat="46.06336" lon="4.78239">
        <ele>205</ele>
        <time>2018-03-24T11:06:56Z</time>
      </trkpt>
      <trkpt lat="46.06331" lon="4.78236">
        <ele>206</ele>
        <time>2018-03-24T11:06:57Z</time>
      </trkpt>
      <trkpt lat="46.06327" lon="4.78233">
        <ele>206</ele>
        <time>2018-03-24T11:06:58Z</time>
      </trkpt>
      <trkpt lat="46.06322" lon="4.78232">
        <ele>205</ele>
        <time>2018-03-24T11:06:59Z</time>
      </trkpt>
      <trkpt lat="46.06317" lon="4.78229">
        <ele>205</ele>
        <time>2018-03-24T11:07:00Z</time>
      </trkpt>
      <trkpt lat="46.06309" lon="4.78225">
        <ele>205</ele>
        <time>2018-03-24T11:07:02Z</time>
      </trkpt>
      <trkpt lat="46.06304" lon="4.78222">
        <ele>205</ele>
        <time>2018-03-24T11:07:03Z</time>
      </trkpt>
      <trkpt lat="46.06296" lon="4.78218">
        <ele>205</ele>
        <time>2018-03-24T11:07:05Z</time>
      </trkpt>
      <trkpt lat="46.06293" lon="4.78215">
        <ele>205</ele>
        <time>2018-03-24T11:07:06Z</time>
      </trkpt>
      <trkpt lat="46.06286" lon="4.78209">
        <ele>205</ele>
        <time>2018-03-24T11:07:08Z</time>
      </trkpt>
      <trkpt lat="46.06284" lon="4.78208">
        <ele>205</ele>
        <time>2018-03-24T11:07:09Z</time>
      </trkpt>
      <trkpt lat="46.06279" lon="4.78205">
        <ele>205</ele>
        <time>2018-03-24T11:07:10Z</time>
      </trkpt>
      <trkpt lat="46.06276" lon="4.78203">
        <ele>205</ele>
        <time>2018-03-24T11:07:11Z</time>
      </trkpt>
      <trkpt lat="46.06268" lon="4.78198">
        <ele>205</ele>
        <time>2018-03-24T11:07:13Z</time>
      </trkpt>
      <trkpt lat="46.06264" lon="4.78196">
        <ele>205</ele>
        <time>2018-03-24T11:07:14Z</time>
      </trkpt>
      <trkpt lat="46.06256" lon="4.78191">
        <ele>205</ele>
        <time>2018-03-24T11:07:16Z</time>
      </trkpt>
      <trkpt lat="46.06251" lon="4.78186">
        <ele>205</ele>
        <time>2018-03-24T11:07:17Z</time>
      </trkpt>
      <trkpt lat="46.06244" lon="4.78181">
        <ele>206</ele>
        <time>2018-03-24T11:07:19Z</time>
      </trkpt>
      <trkpt lat="46.0624" lon="4.78178">
        <ele>206</ele>
        <time>2018-03-24T11:07:20Z</time>
      </trkpt>
      <trkpt lat="46.06233" lon="4.78173">
        <ele>206</ele>
        <time>2018-03-24T11:07:22Z</time>
      </trkpt>
      <trkpt lat="46.0623" lon="4.7817">
        <ele>206</ele>
        <time>2018-03-24T11:07:23Z</time>
      </trkpt>
      <trkpt lat="46.06223" lon="4.78165">
        <ele>205</ele>
        <time>2018-03-24T11:07:25Z</time>
      </trkpt>
      <trkpt lat="46.06219" lon="4.78163">
        <ele>205</ele>
        <time>2018-03-24T11:07:26Z</time>
      </trkpt>
      <trkpt lat="46.06212" lon="4.78158">
        <ele>205</ele>
        <time>2018-03-24T11:07:28Z</time>
      </trkpt>
      <trkpt lat="46.06209" lon="4.78156">
        <ele>205</ele>
        <time>2018-03-24T11:07:29Z</time>
      </trkpt>
      <trkpt lat="46.06202" lon="4.78151">
        <ele>205</ele>
        <time>2018-03-24T11:07:31Z</time>
      </trkpt>
      <trkpt lat="46.06198" lon="4.78149">
        <ele>205</ele>
        <time>2018-03-24T11:07:32Z</time>
      </trkpt>
      <trkpt lat="46.06192" lon="4.78144">
        <ele>206</ele>
        <time>2018-03-24T11:07:34Z</time>
      </trkpt>
      <trkpt lat="46.06188" lon="4.78142">
        <ele>206</ele>
        <time>2018-03-24T11:07:35Z</time>
      </trkpt>
      <trkpt lat="46.06181" lon="4.78136">
        <ele>206</ele>
        <time>2018-03-24T11:07:38Z</time>
      </trkpt>
      <trkpt lat="46.06179" lon="4.78134">
        <ele>206</ele>
        <time>2018-03-24T11:07:39Z</time>
      </trkpt>
      <trkpt lat="46.06172" lon="4.78129">
        <ele>206</ele>
        <time>2018-03-24T11:07:42Z</time>
      </trkpt>
      <trkpt lat="46.0617" lon="4.78128">
        <ele>206</ele>
        <time>2018-03-24T11:07:43Z</time>
      </trkpt>
      <trkpt lat="46.06161" lon="4.78123">
        <ele>208</ele>
        <time>2018-03-24T11:07:46Z</time>
      </trkpt>
      <trkpt lat="46.06158" lon="4.78121">
        <ele>208</ele>
        <time>2018-03-24T11:07:47Z</time>
      </trkpt>
      <trkpt lat="46.06152" lon="4.78117">
        <ele>208</ele>
        <time>2018-03-24T11:07:49Z</time>
      </trkpt>
      <trkpt lat="46.0615" lon="4.78115">
        <ele>208</ele>
        <time>2018-03-24T11:07:50Z</time>
      </trkpt>
      <trkpt lat="46.06144" lon="4.78111">
        <ele>208</ele>
        <time>2018-03-24T11:07:52Z</time>
      </trkpt>
      <trkpt lat="46.06141" lon="4.78109">
        <ele>208</ele>
        <time>2018-03-24T11:07:53Z</time>
      </trkpt>
      <trkpt lat="46.06134" lon="4.78102">
        <ele>209</ele>
        <time>2018-03-24T11:07:56Z</time>
      </trkpt>
      <trkpt lat="46.06131" lon="4.781">
        <ele>209</ele>
        <time>2018-03-24T11:07:57Z</time>
      </trkpt>
      <trkpt lat="46.06126" lon="4.78095">
        <ele>209</ele>
        <time>2018-03-24T11:07:59Z</time>
      </trkpt>
      <trkpt lat="46.06123" lon="4.78092">
        <ele>209</ele>
        <time>2018-03-24T11:08:00Z</time>
      </trkpt>
      <trkpt lat="46.06118" lon="4.78086">
        <ele>209</ele>
        <time>2018-03-24T11:08:02Z</time>
      </trkpt>
      <trkpt lat="46.06115" lon="4.78083">
        <ele>210</ele>
        <time>2018-03-24T11:08:03Z</time>
      </trkpt>
      <trkpt lat="46.06109" lon="4.78074">
        <ele>210</ele>
        <time>2018-03-24T11:08:06Z</time>
      </trkpt>
      <trkpt lat="46.06107" lon="4.78072">
        <ele>210</ele>
        <time>2018-03-24T11:08:07Z</time>
      </trkpt>
      <trkpt lat="46.06104" lon="4.78069">
        <ele>210</ele>
        <time>2018-03-24T11:08:08Z</time>
      </trkpt>
      <trkpt lat="46.06098" lon="4.7806">
        <ele>210</ele>
        <time>2018-03-24T11:08:09Z</time>
      </trkpt>
      <trkpt lat="46.06093" lon="4.78053">
        <ele>210</ele>
        <time>2018-03-24T11:08:11Z</time>
      </trkpt>
      <trkpt lat="46.0609" lon="4.7805">
        <ele>210</ele>
        <time>2018-03-24T11:08:12Z</time>
      </trkpt>
      <trkpt lat="46.06083" lon="4.78044">
        <ele>211</ele>
        <time>2018-03-24T11:08:14Z</time>
      </trkpt>
      <trkpt lat="46.06079" lon="4.78042">
        <ele>211</ele>
        <time>2018-03-24T11:08:15Z</time>
      </trkpt>
      <trkpt lat="46.0607" lon="4.78037">
        <ele>211</ele>
        <time>2018-03-24T11:08:17Z</time>
      </trkpt>
      <trkpt lat="46.06066" lon="4.78034">
        <ele>211</ele>
        <time>2018-03-24T11:08:18Z</time>
      </trkpt>
      <trkpt lat="46.06059" lon="4.78027">
        <ele>211</ele>
        <time>2018-03-24T11:08:20Z</time>
      </trkpt>
      <trkpt lat="46.06055" lon="4.78024">
        <ele>211</ele>
        <time>2018-03-24T11:08:21Z</time>
      </trkpt>
      <trkpt lat="46.06049" lon="4.78014">
        <ele>211</ele>
        <time>2018-03-24T11:08:23Z</time>
      </trkpt>
      <trkpt lat="46.06046" lon="4.7801">
        <ele>211</ele>
        <time>2018-03-24T11:08:24Z</time>
      </trkpt>
      <trkpt lat="46.0604" lon="4.78">
        <ele>211</ele>
        <time>2018-03-24T11:08:26Z</time>
      </trkpt>
      <trkpt lat="46.06038" lon="4.77995">
        <ele>211</ele>
        <time>2018-03-24T11:08:27Z</time>
      </trkpt>
      <trkpt lat="46.06031" lon="4.77987">
        <ele>211</ele>
        <time>2018-03-24T11:08:29Z</time>
      </trkpt>
      <trkpt lat="46.06028" lon="4.77983">
        <ele>211</ele>
        <time>2018-03-24T11:08:30Z</time>
      </trkpt>
      <trkpt lat="46.06023" lon="4.77976">
        <ele>211</ele>
        <time>2018-03-24T11:08:32Z</time>
      </trkpt>
      <trkpt lat="46.0602" lon="4.77972">
        <ele>211</ele>
        <time>2018-03-24T11:08:33Z</time>
      </trkpt>
      <trkpt lat="46.06014" lon="4.77965">
        <ele>211</ele>
        <time>2018-03-24T11:08:35Z</time>
      </trkpt>
      <trkpt lat="46.0601" lon="4.77961">
        <ele>211</ele>
        <time>2018-03-24T11:08:36Z</time>
      </trkpt>
      <trkpt lat="46.06004" lon="4.77955">
        <ele>211</ele>
        <time>2018-03-24T11:08:38Z</time>
      </trkpt>
      <trkpt lat="46.06001" lon="4.77951">
        <ele>211</ele>
        <time>2018-03-24T11:08:39Z</time>
      </trkpt>
      <trkpt lat="46.05997" lon="4.77942">
        <ele>212</ele>
        <time>2018-03-24T11:08:41Z</time>
      </trkpt>
      <trkpt lat="46.05995" lon="4.77937">
        <ele>212</ele>
        <time>2018-03-24T11:08:42Z</time>
      </trkpt>
      <trkpt lat="46.05993" lon="4.77925">
        <ele>211</ele>
        <time>2018-03-24T11:08:44Z</time>
      </trkpt>
      <trkpt lat="46.05992" lon="4.77923">
        <ele>211</ele>
        <time>2018-03-24T11:08:45Z</time>
      </trkpt>
      <trkpt lat="46.05988" lon="4.77912">
        <ele>211</ele>
        <time>2018-03-24T11:08:47Z</time>
      </trkpt>
      <trkpt lat="46.05987" lon="4.7791">
        <ele>211</ele>
        <time>2018-03-24T11:08:48Z</time>
      </trkpt>
      <trkpt lat="46.05983" lon="4.77903">
        <ele>211</ele>
        <time>2018-03-24T11:08:49Z</time>
      </trkpt>
      <trkpt lat="46.05981" lon="4.77898">
        <ele>211</ele>
        <time>2018-03-24T11:08:50Z</time>
      </trkpt>
      <trkpt lat="46.05974" lon="4.77891">
        <ele>211</ele>
        <time>2018-03-24T11:08:52Z</time>
      </trkpt>
      <trkpt lat="46.05971" lon="4.77886">
        <ele>211</ele>
        <time>2018-03-24T11:08:53Z</time>
      </trkpt>
      <trkpt lat="46.05968" lon="4.77881">
        <ele>211</ele>
        <time>2018-03-24T11:08:54Z</time>
      </trkpt>
      <trkpt lat="46.05965" lon="4.77875">
        <ele>211</ele>
        <time>2018-03-24T11:08:55Z</time>
      </trkpt>
      <trkpt lat="46.05959" lon="4.77865">
        <ele>211</ele>
        <time>2018-03-24T11:08:57Z</time>
      </trkpt>
      <trkpt lat="46.05957" lon="4.7786">
        <ele>211</ele>
        <time>2018-03-24T11:08:58Z</time>
      </trkpt>
      <trkpt lat="46.05953" lon="4.77854">
        <ele>211</ele>
        <time>2018-03-24T11:08:59Z</time>
      </trkpt>
      <trkpt lat="46.0595" lon="4.7785">
        <ele>211</ele>
        <time>2018-03-24T11:09:00Z</time>
      </trkpt>
      <trkpt lat="46.05946" lon="4.77841">
        <ele>211</ele>
        <time>2018-03-24T11:09:02Z</time>
      </trkpt>
      <trkpt lat="46.05944" lon="4.77836">
        <ele>211</ele>
        <time>2018-03-24T11:09:03Z</time>
      </trkpt>
      <trkpt lat="46.05942" lon="4.77831">
        <ele>210</ele>
        <time>2018-03-24T11:09:04Z</time>
      </trkpt>
      <trkpt lat="46.05938" lon="4.77826">
        <ele>210</ele>
        <time>2018-03-24T11:09:05Z</time>
      </trkpt>
      <trkpt lat="46.05934" lon="4.77822">
        <ele>210</ele>
        <time>2018-03-24T11:09:06Z</time>
      </trkpt>
      <trkpt lat="46.0593" lon="4.77817">
        <ele>210</ele>
        <time>2018-03-24T11:09:07Z</time>
      </trkpt>
      <trkpt lat="46.05928" lon="4.7781">
        <ele>210</ele>
        <time>2018-03-24T11:09:08Z</time>
      </trkpt>
      <trkpt lat="46.05925" lon="4.77805">
        <ele>210</ele>
        <time>2018-03-24T11:09:09Z</time>
      </trkpt>
      <trkpt lat="46.05921" lon="4.778">
        <ele>210</ele>
        <time>2018-03-24T11:09:10Z</time>
      </trkpt>
      <trkpt lat="46.05918" lon="4.77796">
        <ele>210</ele>
        <time>2018-03-24T11:09:11Z</time>
      </trkpt>
      <trkpt lat="46.05915" lon="4.77791">
        <ele>210</ele>
        <time>2018-03-24T11:09:12Z</time>
      </trkpt>
      <trkpt lat="46.05912" lon="4.77785">
        <ele>210</ele>
        <time>2018-03-24T11:09:13Z</time>
      </trkpt>
      <trkpt lat="46.05907" lon="4.77775">
        <ele>210</ele>
        <time>2018-03-24T11:09:15Z</time>
      </trkpt>
      <trkpt lat="46.05903" lon="4.7777">
        <ele>210</ele>
        <time>2018-03-24T11:09:16Z</time>
      </trkpt>
      <trkpt lat="46.059" lon="4.77763">
        <ele>209</ele>
        <time>2018-03-24T11:09:17Z</time>
      </trkpt>
      <trkpt lat="46.05898" lon="4.77756">
        <ele>209</ele>
        <time>2018-03-24T11:09:18Z</time>
      </trkpt>
      <trkpt lat="46.05896" lon="4.77748">
        <ele>209</ele>
        <time>2018-03-24T11:09:19Z</time>
      </trkpt>
      <trkpt lat="46.05893" lon="4.7774">
        <ele>209</ele>
        <time>2018-03-24T11:09:20Z</time>
      </trkpt>
      <trkpt lat="46.05892" lon="4.77731">
        <ele>209</ele>
        <time>2018-03-24T11:09:21Z</time>
      </trkpt>
      <trkpt lat="46.05891" lon="4.77723">
        <ele>209</ele>
        <time>2018-03-24T11:09:22Z</time>
      </trkpt>
      <trkpt lat="46.0589" lon="4.77714">
        <ele>208</ele>
        <time>2018-03-24T11:09:23Z</time>
      </trkpt>
      <trkpt lat="46.05889" lon="4.77706">
        <ele>208</ele>
        <time>2018-03-24T11:09:24Z</time>
      </trkpt>
      <trkpt lat="46.05888" lon="4.77697">
        <ele>208</ele>
        <time>2018-03-24T11:09:25Z</time>
      </trkpt>
      <trkpt lat="46.05887" lon="4.77688">
        <ele>208</ele>
        <time>2018-03-24T11:09:26Z</time>
      </trkpt>
      <trkpt lat="46.05885" lon="4.7768">
        <ele>208</ele>
        <time>2018-03-24T11:09:27Z</time>
      </trkpt>
      <trkpt lat="46.05882" lon="4.77674">
        <ele>208</ele>
        <time>2018-03-24T11:09:28Z</time>
      </trkpt>
      <trkpt lat="46.05879" lon="4.77667">
        <ele>208</ele>
        <time>2018-03-24T11:09:29Z</time>
      </trkpt>
      <trkpt lat="46.05876" lon="4.77662">
        <ele>208</ele>
        <time>2018-03-24T11:09:30Z</time>
      </trkpt>
      <trkpt lat="46.05873" lon="4.77655">
        <ele>208</ele>
        <time>2018-03-24T11:09:31Z</time>
      </trkpt>
      <trkpt lat="46.05869" lon="4.77648">
        <ele>208</ele>
        <time>2018-03-24T11:09:32Z</time>
      </trkpt>
      <trkpt lat="46.05865" lon="4.77644">
        <ele>208</ele>
        <time>2018-03-24T11:09:33Z</time>
      </trkpt>
      <trkpt lat="46.05861" lon="4.7764">
        <ele>208</ele>
        <time>2018-03-24T11:09:34Z</time>
      </trkpt>
      <trkpt lat="46.05857" lon="4.77635">
        <ele>208</ele>
        <time>2018-03-24T11:09:35Z</time>
      </trkpt>
      <trkpt lat="46.05854" lon="4.77631">
        <ele>208</ele>
        <time>2018-03-24T11:09:36Z</time>
      </trkpt>
      <trkpt lat="46.0585" lon="4.77627">
        <ele>208</ele>
        <time>2018-03-24T11:09:37Z</time>
      </trkpt>
      <trkpt lat="46.05846" lon="4.77623">
        <ele>208</ele>
        <time>2018-03-24T11:09:38Z</time>
      </trkpt>
      <trkpt lat="46.05842" lon="4.77618">
        <ele>208</ele>
        <time>2018-03-24T11:09:39Z</time>
      </trkpt>
      <trkpt lat="46.05839" lon="4.77614">
        <ele>208</ele>
        <time>2018-03-24T11:09:40Z</time>
      </trkpt>
      <trkpt lat="46.05834" lon="4.77611">
        <ele>208</ele>
        <time>2018-03-24T11:09:41Z</time>
      </trkpt>
      <trkpt lat="46.0583" lon="4.77607">
        <ele>208</ele>
        <time>2018-03-24T11:09:42Z</time>
      </trkpt>
      <trkpt lat="46.05826" lon="4.77602">
        <ele>208</ele>
        <time>2018-03-24T11:09:43Z</time>
      </trkpt>
      <trkpt lat="46.05821" lon="4.77598">
        <ele>208</ele>
        <time>2018-03-24T11:09:44Z</time>
      </trkpt>
      <trkpt lat="46.05817" lon="4.77595">
        <ele>208</ele>
        <time>2018-03-24T11:09:45Z</time>
      </trkpt>
      <trkpt lat="46.05813" lon="4.77591">
        <ele>208</ele>
        <time>2018-03-24T11:09:46Z</time>
      </trkpt>
      <trkpt lat="46.05809" lon="4.77588">
        <ele>208</ele>
        <time>2018-03-24T11:09:47Z</time>
      </trkpt>
      <trkpt lat="46.05805" lon="4.77584">
        <ele>209</ele>
        <time>2018-03-24T11:09:48Z</time>
      </trkpt>
      <trkpt lat="46.05802" lon="4.7758">
        <ele>208</ele>
        <time>2018-03-24T11:09:49Z</time>
      </trkpt>
      <trkpt lat="46.05798" lon="4.77575">
        <ele>208</ele>
        <time>2018-03-24T11:09:50Z</time>
      </trkpt>
      <trkpt lat="46.05794" lon="4.77569">
        <ele>208</ele>
        <time>2018-03-24T11:09:51Z</time>
      </trkpt>
      <trkpt lat="46.05791" lon="4.77564">
        <ele>208</ele>
        <time>2018-03-24T11:09:52Z</time>
      </trkpt>
      <trkpt lat="46.05788" lon="4.77559">
        <ele>208</ele>
        <time>2018-03-24T11:09:53Z</time>
      </trkpt>
      <trkpt lat="46.05783" lon="4.77554">
        <ele>208</ele>
        <time>2018-03-24T11:09:54Z</time>
      </trkpt>
      <trkpt lat="46.0578" lon="4.77547">
        <ele>208</ele>
        <time>2018-03-24T11:09:55Z</time>
      </trkpt>
      <trkpt lat="46.05775" lon="4.77542">
        <ele>208</ele>
        <time>2018-03-24T11:09:56Z</time>
      </trkpt>
      <trkpt lat="46.05771" lon="4.77536">
        <ele>208</ele>
        <time>2018-03-24T11:09:57Z</time>
      </trkpt>
      <trkpt lat="46.05768" lon="4.77529">
        <ele>208</ele>
        <time>2018-03-24T11:09:58Z</time>
      </trkpt>
      <trkpt lat="46.05766" lon="4.77523">
        <ele>208</ele>
        <time>2018-03-24T11:09:59Z</time>
      </trkpt>
      <trkpt lat="46.05761" lon="4.77515">
        <ele>208</ele>
        <time>2018-03-24T11:10:00Z</time>
      </trkpt>
      <trkpt lat="46.05757" lon="4.77509">
        <ele>208</ele>
        <time>2018-03-24T11:10:01Z</time>
      </trkpt>
      <trkpt lat="46.05753" lon="4.77503">
        <ele>208</ele>
        <time>2018-03-24T11:10:02Z</time>
      </trkpt>
      <trkpt lat="46.05749" lon="4.77497">
        <ele>208</ele>
        <time>2018-03-24T11:10:03Z</time>
      </trkpt>
      <trkpt lat="46.05745" lon="4.77491">
        <ele>208</ele>
        <time>2018-03-24T11:10:04Z</time>
      </trkpt>
      <trkpt lat="46.05742" lon="4.77484">
        <ele>207</ele>
        <time>2018-03-24T11:10:05Z</time>
      </trkpt>
      <trkpt lat="46.05737" lon="4.77479">
        <ele>207</ele>
        <time>2018-03-24T11:10:06Z</time>
      </trkpt>
      <trkpt lat="46.05732" lon="4.77472">
        <ele>207</ele>
        <time>2018-03-24T11:10:07Z</time>
      </trkpt>
      <trkpt lat="46.05728" lon="4.77467">
        <ele>207</ele>
        <time>2018-03-24T11:10:08Z</time>
      </trkpt>
      <trkpt lat="46.05724" lon="4.77462">
        <ele>207</ele>
        <time>2018-03-24T11:10:09Z</time>
      </trkpt>
      <trkpt lat="46.05719" lon="4.77458">
        <ele>207</ele>
        <time>2018-03-24T11:10:10Z</time>
      </trkpt>
      <trkpt lat="46.05714" lon="4.77454">
        <ele>207</ele>
        <time>2018-03-24T11:10:11Z</time>
      </trkpt>
      <trkpt lat="46.05709" lon="4.77448">
        <ele>207</ele>
        <time>2018-03-24T11:10:12Z</time>
      </trkpt>
      <trkpt lat="46.05704" lon="4.77445">
        <ele>207</ele>
        <time>2018-03-24T11:10:13Z</time>
      </trkpt>
      <trkpt lat="46.05698" lon="4.77441">
        <ele>206</ele>
        <time>2018-03-24T11:10:14Z</time>
      </trkpt>
      <trkpt lat="46.05693" lon="4.77437">
        <ele>206</ele>
        <time>2018-03-24T11:10:15Z</time>
      </trkpt>
      <trkpt lat="46.05688" lon="4.77432">
        <ele>206</ele>
        <time>2018-03-24T11:10:16Z</time>
      </trkpt>
      <trkpt lat="46.05682" lon="4.77429">
        <ele>206</ele>
        <time>2018-03-24T11:10:17Z</time>
      </trkpt>
      <trkpt lat="46.05676" lon="4.77425">
        <ele>206</ele>
        <time>2018-03-24T11:10:18Z</time>
      </trkpt>
      <trkpt lat="46.05672" lon="4.77419">
        <ele>205</ele>
        <time>2018-03-24T11:10:19Z</time>
      </trkpt>
      <trkpt lat="46.05667" lon="4.77414">
        <ele>205</ele>
        <time>2018-03-24T11:10:20Z</time>
      </trkpt>
      <trkpt lat="46.05661" lon="4.77409">
        <ele>204</ele>
        <time>2018-03-24T11:10:21Z</time>
      </trkpt>
      <trkpt lat="46.05656" lon="4.77403">
        <ele>204</ele>
        <time>2018-03-24T11:10:22Z</time>
      </trkpt>
      <trkpt lat="46.0565" lon="4.77398">
        <ele>204</ele>
        <time>2018-03-24T11:10:23Z</time>
      </trkpt>
      <trkpt lat="46.05645" lon="4.77393">
        <ele>203</ele>
        <time>2018-03-24T11:10:24Z</time>
      </trkpt>
      <trkpt lat="46.05639" lon="4.77388">
        <ele>203</ele>
        <time>2018-03-24T11:10:25Z</time>
      </trkpt>
      <trkpt lat="46.05632" lon="4.77383">
        <ele>203</ele>
        <time>2018-03-24T11:10:26Z</time>
      </trkpt>
      <trkpt lat="46.05626" lon="4.77378">
        <ele>203</ele>
        <time>2018-03-24T11:10:27Z</time>
      </trkpt>
      <trkpt lat="46.0562" lon="4.77374">
        <ele>203</ele>
        <time>2018-03-24T11:10:28Z</time>
      </trkpt>
      <trkpt lat="46.05614" lon="4.7737">
        <ele>202</ele>
        <time>2018-03-24T11:10:29Z</time>
      </trkpt>
      <trkpt lat="46.05607" lon="4.77365">
        <ele>202</ele>
        <time>2018-03-24T11:10:30Z</time>
      </trkpt>
      <trkpt lat="46.056" lon="4.7736">
        <ele>202</ele>
        <time>2018-03-24T11:10:31Z</time>
      </trkpt>
      <trkpt lat="46.05593" lon="4.77356">
        <ele>202</ele>
        <time>2018-03-24T11:10:32Z</time>
      </trkpt>
      <trkpt lat="46.05586" lon="4.77352">
        <ele>201</ele>
        <time>2018-03-24T11:10:33Z</time>
      </trkpt>
      <trkpt lat="46.05581" lon="4.77346">
        <ele>201</ele>
        <time>2018-03-24T11:10:34Z</time>
      </trkpt>
      <trkpt lat="46.05574" lon="4.77343">
        <ele>201</ele>
        <time>2018-03-24T11:10:35Z</time>
      </trkpt>
      <trkpt lat="46.05569" lon="4.77338">
        <ele>201</ele>
        <time>2018-03-24T11:10:36Z</time>
      </trkpt>
      <trkpt lat="46.05563" lon="4.77332">
        <ele>200</ele>
        <time>2018-03-24T11:10:37Z</time>
      </trkpt>
      <trkpt lat="46.05557" lon="4.77329">
        <ele>200</ele>
        <time>2018-03-24T11:10:38Z</time>
      </trkpt>
      <trkpt lat="46.0555" lon="4.77325">
        <ele>200</ele>
        <time>2018-03-24T11:10:39Z</time>
      </trkpt>
      <trkpt lat="46.05544" lon="4.77321">
        <ele>200</ele>
        <time>2018-03-24T11:10:40Z</time>
      </trkpt>
      <trkpt lat="46.05537" lon="4.77317">
        <ele>200</ele>
        <time>2018-03-24T11:10:41Z</time>
      </trkpt>
      <trkpt lat="46.0553" lon="4.77312">
        <ele>200</ele>
        <time>2018-03-24T11:10:42Z</time>
      </trkpt>
      <trkpt lat="46.05522" lon="4.77309">
        <ele>200</ele>
        <time>2018-03-24T11:10:43Z</time>
      </trkpt>
      <trkpt lat="46.05516" lon="4.77305">
        <ele>200</ele>
        <time>2018-03-24T11:10:44Z</time>
      </trkpt>
      <trkpt lat="46.05509" lon="4.77302">
        <ele>200</ele>
        <time>2018-03-24T11:10:45Z</time>
      </trkpt>
      <trkpt lat="46.05503" lon="4.77299">
        <ele>200</ele>
        <time>2018-03-24T11:10:46Z</time>
      </trkpt>
      <trkpt lat="46.05497" lon="4.77295">
        <ele>201</ele>
        <time>2018-03-24T11:10:47Z</time>
      </trkpt>
      <trkpt lat="46.05492" lon="4.77291">
        <ele>201</ele>
        <time>2018-03-24T11:10:48Z</time>
      </trkpt>
      <trkpt lat="46.05488" lon="4.77289">
        <ele>201</ele>
        <time>2018-03-24T11:10:49Z</time>
      </trkpt>
      <trkpt lat="46.05482" lon="4.77285">
        <ele>201</ele>
        <time>2018-03-24T11:10:50Z</time>
      </trkpt>
      <trkpt lat="46.05476" lon="4.77282">
        <ele>201</ele>
        <time>2018-03-24T11:10:51Z</time>
      </trkpt>
      <trkpt lat="46.05471" lon="4.77279">
        <ele>201</ele>
        <time>2018-03-24T11:10:52Z</time>
      </trkpt>
      <trkpt lat="46.05465" lon="4.77275">
        <ele>201</ele>
        <time>2018-03-24T11:10:53Z</time>
      </trkpt>
      <trkpt lat="46.0546" lon="4.77274">
        <ele>201</ele>
        <time>2018-03-24T11:10:54Z</time>
      </trkpt>
      <trkpt lat="46.05454" lon="4.77271">
        <ele>201</ele>
        <time>2018-03-24T11:10:55Z</time>
      </trkpt>
      <trkpt lat="46.05449" lon="4.77269">
        <ele>201</ele>
        <time>2018-03-24T11:10:56Z</time>
      </trkpt>
      <trkpt lat="46.05443" lon="4.77266">
        <ele>201</ele>
        <time>2018-03-24T11:10:57Z</time>
      </trkpt>
      <trkpt lat="46.05438" lon="4.77263">
        <ele>201</ele>
        <time>2018-03-24T11:10:58Z</time>
      </trkpt>
      <trkpt lat="46.05434" lon="4.77261">
        <ele>201</ele>
        <time>2018-03-24T11:10:59Z</time>
      </trkpt>
      <trkpt lat="46.05428" lon="4.7726">
        <ele>201</ele>
        <time>2018-03-24T11:11:00Z</time>
      </trkpt>
      <trkpt lat="46.05423" lon="4.77258">
        <ele>201</ele>
        <time>2018-03-24T11:11:01Z</time>
      </trkpt>
      <trkpt lat="46.05418" lon="4.77256">
        <ele>201</ele>
        <time>2018-03-24T11:11:02Z</time>
      </trkpt>
      <trkpt lat="46.05413" lon="4.77254">
        <ele>202</ele>
        <time>2018-03-24T11:11:03Z</time>
      </trkpt>
      <trkpt lat="46.05407" lon="4.77251">
        <ele>202</ele>
        <time>2018-03-24T11:11:04Z</time>
      </trkpt>
      <trkpt lat="46.05403" lon="4.77248">
        <ele>202</ele>
        <time>2018-03-24T11:11:05Z</time>
      </trkpt>
      <trkpt lat="46.05398" lon="4.77246">
        <ele>202</ele>
        <time>2018-03-24T11:11:06Z</time>
      </trkpt>
      <trkpt lat="46.05393" lon="4.77243">
        <ele>202</ele>
        <time>2018-03-24T11:11:07Z</time>
      </trkpt>
      <trkpt lat="46.05389" lon="4.7724">
        <ele>202</ele>
        <time>2018-03-24T11:11:08Z</time>
      </trkpt>
      <trkpt lat="46.05381" lon="4.77236">
        <ele>203</ele>
        <time>2018-03-24T11:11:10Z</time>
      </trkpt>
      <trkpt lat="46.05377" lon="4.77234">
        <ele>203</ele>
        <time>2018-03-24T11:11:11Z</time>
      </trkpt>
      <trkpt lat="46.05368" lon="4.7723">
        <ele>203</ele>
        <time>2018-03-24T11:11:13Z</time>
      </trkpt>
      <trkpt lat="46.05364" lon="4.77228">
        <ele>203</ele>
        <time>2018-03-24T11:11:14Z</time>
      </trkpt>
      <trkpt lat="46.05359" lon="4.77225">
        <ele>203</ele>
        <time>2018-03-24T11:11:15Z</time>
      </trkpt>
      <trkpt lat="46.05355" lon="4.77223">
        <ele>203</ele>
        <time>2018-03-24T11:11:16Z</time>
      </trkpt>
      <trkpt lat="46.05346" lon="4.77218">
        <ele>203</ele>
        <time>2018-03-24T11:11:18Z</time>
      </trkpt>
      <trkpt lat="46.05343" lon="4.77215">
        <ele>203</ele>
        <time>2018-03-24T11:11:19Z</time>
      </trkpt>
      <trkpt lat="46.05338" lon="4.77212">
        <ele>203</ele>
        <time>2018-03-24T11:11:20Z</time>
      </trkpt>
      <trkpt lat="46.05334" lon="4.77211">
        <ele>203</ele>
        <time>2018-03-24T11:11:21Z</time>
      </trkpt>
      <trkpt lat="46.05327" lon="4.77204">
        <ele>205</ele>
        <time>2018-03-24T11:11:23Z</time>
      </trkpt>
      <trkpt lat="46.05323" lon="4.772">
        <ele>205</ele>
        <time>2018-03-24T11:11:24Z</time>
      </trkpt>
      <trkpt lat="46.05319" lon="4.77197">
        <ele>205</ele>
        <time>2018-03-24T11:11:25Z</time>
      </trkpt>
      <trkpt lat="46.05314" lon="4.77193">
        <ele>205</ele>
        <time>2018-03-24T11:11:26Z</time>
      </trkpt>
      <trkpt lat="46.05312" lon="4.77188">
        <ele>205</ele>
        <time>2018-03-24T11:11:27Z</time>
      </trkpt>
      <trkpt lat="46.05308" lon="4.77183">
        <ele>205</ele>
        <time>2018-03-24T11:11:28Z</time>
      </trkpt>
      <trkpt lat="46.05301" lon="4.77177">
        <ele>205</ele>
        <time>2018-03-24T11:11:30Z</time>
      </trkpt>
      <trkpt lat="46.05297" lon="4.77173">
        <ele>205</ele>
        <time>2018-03-24T11:11:31Z</time>
      </trkpt>
      <trkpt lat="46.05293" lon="4.77169">
        <ele>205</ele>
        <time>2018-03-24T11:11:32Z</time>
      </trkpt>
      <trkpt lat="46.05288" lon="4.77165">
        <ele>204</ele>
        <time>2018-03-24T11:11:33Z</time>
      </trkpt>
      <trkpt lat="46.05283" lon="4.7716">
        <ele>204</ele>
        <time>2018-03-24T11:11:34Z</time>
      </trkpt>
      <trkpt lat="46.05279" lon="4.77155">
        <ele>204</ele>
        <time>2018-03-24T11:11:35Z</time>
      </trkpt>
      <trkpt lat="46.05275" lon="4.77152">
        <ele>204</ele>
        <time>2018-03-24T11:11:36Z</time>
      </trkpt>
      <trkpt lat="46.05271" lon="4.77148">
        <ele>204</ele>
        <time>2018-03-24T11:11:37Z</time>
      </trkpt>
      <trkpt lat="46.05264" lon="4.77139">
        <ele>204</ele>
        <time>2018-03-24T11:11:39Z</time>
      </trkpt>
      <trkpt lat="46.05261" lon="4.77134">
        <ele>204</ele>
        <time>2018-03-24T11:11:40Z</time>
      </trkpt>
      <trkpt lat="46.05258" lon="4.7713">
        <ele>204</ele>
        <time>2018-03-24T11:11:41Z</time>
      </trkpt>
      <trkpt lat="46.05254" lon="4.77125">
        <ele>204</ele>
        <time>2018-03-24T11:11:42Z</time>
      </trkpt>
      <trkpt lat="46.0525" lon="4.7712">
        <ele>204</ele>
        <time>2018-03-24T11:11:43Z</time>
      </trkpt>
      <trkpt lat="46.05245" lon="4.77114">
        <ele>203</ele>
        <time>2018-03-24T11:11:44Z</time>
      </trkpt>
      <trkpt lat="46.05241" lon="4.77111">
        <ele>203</ele>
        <time>2018-03-24T11:11:45Z</time>
      </trkpt>
      <trkpt lat="46.05236" lon="4.77106">
        <ele>203</ele>
        <time>2018-03-24T11:11:46Z</time>
      </trkpt>
      <trkpt lat="46.05231" lon="4.771">
        <ele>203</ele>
        <time>2018-03-24T11:11:47Z</time>
      </trkpt>
      <trkpt lat="46.05226" lon="4.77093">
        <ele>203</ele>
        <time>2018-03-24T11:11:48Z</time>
      </trkpt>
      <trkpt lat="46.05223" lon="4.77085">
        <ele>203</ele>
        <time>2018-03-24T11:11:49Z</time>
      </trkpt>
      <trkpt lat="46.05221" lon="4.77076">
        <ele>201</ele>
        <time>2018-03-24T11:11:50Z</time>
      </trkpt>
      <trkpt lat="46.05218" lon="4.77068">
        <ele>201</ele>
        <time>2018-03-24T11:11:51Z</time>
      </trkpt>
      <trkpt lat="46.05214" lon="4.77059">
        <ele>201</ele>
        <time>2018-03-24T11:11:52Z</time>
      </trkpt>
      <trkpt lat="46.05212" lon="4.77051">
        <ele>201</ele>
        <time>2018-03-24T11:11:53Z</time>
      </trkpt>
      <trkpt lat="46.05209" lon="4.77042">
        <ele>201</ele>
        <time>2018-03-24T11:11:54Z</time>
      </trkpt>
      <trkpt lat="46.05206" lon="4.77034">
        <ele>200</ele>
        <time>2018-03-24T11:11:55Z</time>
      </trkpt>
      <trkpt lat="46.05203" lon="4.77025">
        <ele>200</ele>
        <time>2018-03-24T11:11:56Z</time>
      </trkpt>
      <trkpt lat="46.052" lon="4.77015">
        <ele>200</ele>
        <time>2018-03-24T11:11:57Z</time>
      </trkpt>
      <trkpt lat="46.05198" lon="4.77007">
        <ele>200</ele>
        <time>2018-03-24T11:11:58Z</time>
      </trkpt>
      <trkpt lat="46.05195" lon="4.76997">
        <ele>198</ele>
        <time>2018-03-24T11:11:59Z</time>
      </trkpt>
      <trkpt lat="46.05191" lon="4.76988">
        <ele>198</ele>
        <time>2018-03-24T11:12:00Z</time>
      </trkpt>
      <trkpt lat="46.05188" lon="4.76979">
        <ele>198</ele>
        <time>2018-03-24T11:12:01Z</time>
      </trkpt>
      <trkpt lat="46.05185" lon="4.7697">
        <ele>198</ele>
        <time>2018-03-24T11:12:02Z</time>
      </trkpt>
      <trkpt lat="46.05181" lon="4.7696">
        <ele>198</ele>
        <time>2018-03-24T11:12:03Z</time>
      </trkpt>
      <trkpt lat="46.05178" lon="4.76951">
        <ele>197</ele>
        <time>2018-03-24T11:12:04Z</time>
      </trkpt>
      <trkpt lat="46.05174" lon="4.76943">
        <ele>197</ele>
        <time>2018-03-24T11:12:05Z</time>
      </trkpt>
      <trkpt lat="46.05169" lon="4.76935">
        <ele>197</ele>
        <time>2018-03-24T11:12:06Z</time>
      </trkpt>
      <trkpt lat="46.05164" lon="4.76926">
        <ele>196</ele>
        <time>2018-03-24T11:12:07Z</time>
      </trkpt>
      <trkpt lat="46.0516" lon="4.76918">
        <ele>196</ele>
        <time>2018-03-24T11:12:08Z</time>
      </trkpt>
      <trkpt lat="46.05155" lon="4.76909">
        <ele>195</ele>
        <time>2018-03-24T11:12:09Z</time>
      </trkpt>
      <trkpt lat="46.0515" lon="4.76901">
        <ele>195</ele>
        <time>2018-03-24T11:12:10Z</time>
      </trkpt>
      <trkpt lat="46.05146" lon="4.76892">
        <ele>195</ele>
        <time>2018-03-24T11:12:11Z</time>
      </trkpt>
      <trkpt lat="46.05141" lon="4.76884">
        <ele>195</ele>
        <time>2018-03-24T11:12:12Z</time>
      </trkpt>
      <trkpt lat="46.05136" lon="4.76876">
        <ele>195</ele>
        <time>2018-03-24T11:12:13Z</time>
      </trkpt>
      <trkpt lat="46.05132" lon="4.76867">
        <ele>195</ele>
        <time>2018-03-24T11:12:14Z</time>
      </trkpt>
      <trkpt lat="46.05128" lon="4.76856">
        <ele>195</ele>
        <time>2018-03-24T11:12:15Z</time>
      </trkpt>
      <trkpt lat="46.05125" lon="4.76849">
        <ele>195</ele>
        <time>2018-03-24T11:12:16Z</time>
      </trkpt>
      <trkpt lat="46.05121" lon="4.7684">
        <ele>195</ele>
        <time>2018-03-24T11:12:17Z</time>
      </trkpt>
      <trkpt lat="46.05117" lon="4.76832">
        <ele>194</ele>
        <time>2018-03-24T11:12:18Z</time>
      </trkpt>
      <trkpt lat="46.05114" lon="4.76823">
        <ele>194</ele>
        <time>2018-03-24T11:12:19Z</time>
      </trkpt>
      <trkpt lat="46.05111" lon="4.76816">
        <ele>194</ele>
        <time>2018-03-24T11:12:20Z</time>
      </trkpt>
      <trkpt lat="46.05108" lon="4.76806">
        <ele>194</ele>
        <time>2018-03-24T11:12:21Z</time>
      </trkpt>
      <trkpt lat="46.05104" lon="4.76798">
        <ele>194</ele>
        <time>2018-03-24T11:12:22Z</time>
      </trkpt>
      <trkpt lat="46.05102" lon="4.7679">
        <ele>194</ele>
        <time>2018-03-24T11:12:23Z</time>
      </trkpt>
      <trkpt lat="46.051" lon="4.76783">
        <ele>194</ele>
        <time>2018-03-24T11:12:24Z</time>
      </trkpt>
      <trkpt lat="46.05097" lon="4.76775">
        <ele>194</ele>
        <time>2018-03-24T11:12:25Z</time>
      </trkpt>
      <trkpt lat="46.05094" lon="4.76766">
        <ele>194</ele>
        <time>2018-03-24T11:12:26Z</time>
      </trkpt>
      <trkpt lat="46.05093" lon="4.76759">
        <ele>194</ele>
        <time>2018-03-24T11:12:27Z</time>
      </trkpt>
      <trkpt lat="46.05091" lon="4.76751">
        <ele>194</ele>
        <time>2018-03-24T11:12:28Z</time>
      </trkpt>
      <trkpt lat="46.0509" lon="4.76743">
        <ele>194</ele>
        <time>2018-03-24T11:12:29Z</time>
      </trkpt>
      <trkpt lat="46.05088" lon="4.76736">
        <ele>193</ele>
        <time>2018-03-24T11:12:30Z</time>
      </trkpt>
      <trkpt lat="46.05087" lon="4.76725">
        <ele>193</ele>
        <time>2018-03-24T11:12:31Z</time>
      </trkpt>
      <trkpt lat="46.05085" lon="4.76717">
        <ele>193</ele>
        <time>2018-03-24T11:12:32Z</time>
      </trkpt>
      <trkpt lat="46.05083" lon="4.76709">
        <ele>193</ele>
        <time>2018-03-24T11:12:33Z</time>
      </trkpt>
      <trkpt lat="46.05082" lon="4.76701">
        <ele>193</ele>
        <time>2018-03-24T11:12:34Z</time>
      </trkpt>
      <trkpt lat="46.05081" lon="4.76694">
        <ele>193</ele>
        <time>2018-03-24T11:12:35Z</time>
      </trkpt>
      <trkpt lat="46.05081" lon="4.76685">
        <ele>193</ele>
        <time>2018-03-24T11:12:36Z</time>
      </trkpt>
      <trkpt lat="46.0508" lon="4.76678">
        <ele>193</ele>
        <time>2018-03-24T11:12:37Z</time>
      </trkpt>
      <trkpt lat="46.0508" lon="4.7667">
        <ele>193</ele>
        <time>2018-03-24T11:12:38Z</time>
      </trkpt>
      <trkpt lat="46.05079" lon="4.76659">
        <ele>193</ele>
        <time>2018-03-24T11:12:40Z</time>
      </trkpt>
      <trkpt lat="46.05079" lon="4.76651">
        <ele>192</ele>
        <time>2018-03-24T11:12:41Z</time>
      </trkpt>
      <trkpt lat="46.05079" lon="4.76638">
        <ele>192</ele>
        <time>2018-03-24T11:12:43Z</time>
      </trkpt>
      <trkpt lat="46.05079" lon="4.76636">
        <ele>192</ele>
        <time>2018-03-24T11:12:44Z</time>
      </trkpt>
      <trkpt lat="46.05078" lon="4.76624">
        <ele>192</ele>
        <time>2018-03-24T11:12:48Z</time>
      </trkpt>
      <trkpt lat="46.05077" lon="4.76622">
        <ele>192</ele>
        <time>2018-03-24T11:12:49Z</time>
      </trkpt>
      <trkpt lat="46.05076" lon="4.76613">
        <ele>191</ele>
        <time>2018-03-24T11:12:52Z</time>
      </trkpt>
      <trkpt lat="46.05075" lon="4.7661">
        <ele>191</ele>
        <time>2018-03-24T11:12:53Z</time>
      </trkpt>
      <trkpt lat="46.05071" lon="4.76603">
        <ele>191</ele>
        <time>2018-03-24T11:12:55Z</time>
      </trkpt>
      <trkpt lat="46.05068" lon="4.766">
        <ele>191</ele>
        <time>2018-03-24T11:12:56Z</time>
      </trkpt>
      <trkpt lat="46.05061" lon="4.76593">
        <ele>191</ele>
        <time>2018-03-24T11:12:57Z</time>
      </trkpt>
      <trkpt lat="46.05057" lon="4.7659">
        <ele>191</ele>
        <time>2018-03-24T11:12:58Z</time>
      </trkpt>
      <trkpt lat="46.0505" lon="4.76585">
        <ele>191</ele>
        <time>2018-03-24T11:13:00Z</time>
      </trkpt>
      <trkpt lat="46.05047" lon="4.76582">
        <ele>190</ele>
        <time>2018-03-24T11:13:01Z</time>
      </trkpt>
      <trkpt lat="46.0504" lon="4.76578">
        <ele>190</ele>
        <time>2018-03-24T11:13:03Z</time>
      </trkpt>
      <trkpt lat="46.05036" lon="4.76575">
        <ele>190</ele>
        <time>2018-03-24T11:13:04Z</time>
      </trkpt>
      <trkpt lat="46.05029" lon="4.7657">
        <ele>190</ele>
        <time>2018-03-24T11:13:06Z</time>
      </trkpt>
      <trkpt lat="46.05025" lon="4.76568">
        <ele>190</ele>
        <time>2018-03-24T11:13:07Z</time>
      </trkpt>
      <trkpt lat="46.05017" lon="4.76564">
        <ele>190</ele>
        <time>2018-03-24T11:13:09Z</time>
      </trkpt>
      <trkpt lat="46.05013" lon="4.76563">
        <ele>190</ele>
        <time>2018-03-24T11:13:10Z</time>
      </trkpt>
      <trkpt lat="46.05006" lon="4.76557">
        <ele>190</ele>
        <time>2018-03-24T11:13:12Z</time>
      </trkpt>
      <trkpt lat="46.05003" lon="4.76552">
        <ele>190</ele>
        <time>2018-03-24T11:13:13Z</time>
      </trkpt>
      <trkpt lat="46.04999" lon="4.76546">
        <ele>192</ele>
        <time>2018-03-24T11:13:14Z</time>
      </trkpt>
      <trkpt lat="46.04996" lon="4.76539">
        <ele>191</ele>
        <time>2018-03-24T11:13:15Z</time>
      </trkpt>
      <trkpt lat="46.04993" lon="4.76533">
        <ele>191</ele>
        <time>2018-03-24T11:13:16Z</time>
      </trkpt>
      <trkpt lat="46.0499" lon="4.76527">
        <ele>191</ele>
        <time>2018-03-24T11:13:17Z</time>
      </trkpt>
      <trkpt lat="46.04988" lon="4.7652">
        <ele>191</ele>
        <time>2018-03-24T11:13:18Z</time>
      </trkpt>
      <trkpt lat="46.04984" lon="4.76512">
        <ele>191</ele>
        <time>2018-03-24T11:13:19Z</time>
      </trkpt>
      <trkpt lat="46.04981" lon="4.76505">
        <ele>191</ele>
        <time>2018-03-24T11:13:20Z</time>
      </trkpt>
      <trkpt lat="46.04979" lon="4.76497">
        <ele>191</ele>
        <time>2018-03-24T11:13:21Z</time>
      </trkpt>
      <trkpt lat="46.04977" lon="4.7649">
        <ele>191</ele>
        <time>2018-03-24T11:13:22Z</time>
      </trkpt>
      <trkpt lat="46.04975" lon="4.76483">
        <ele>191</ele>
        <time>2018-03-24T11:13:23Z</time>
      </trkpt>
      <trkpt lat="46.04973" lon="4.76477">
        <ele>191</ele>
        <time>2018-03-24T11:13:24Z</time>
      </trkpt>
      <trkpt lat="46.0497" lon="4.7647">
        <ele>191</ele>
        <time>2018-03-24T11:13:25Z</time>
      </trkpt>
      <trkpt lat="46.04968" lon="4.76462">
        <ele>191</ele>
        <time>2018-03-24T11:13:26Z</time>
      </trkpt>
      <trkpt lat="46.04967" lon="4.76456">
        <ele>191</ele>
        <time>2018-03-24T11:13:27Z</time>
      </trkpt>
      <trkpt lat="46.04965" lon="4.76449">
        <ele>191</ele>
        <time>2018-03-24T11:13:28Z</time>
      </trkpt>
      <trkpt lat="46.04963" lon="4.76442">
        <ele>190</ele>
        <time>2018-03-24T11:13:29Z</time>
      </trkpt>
      <trkpt lat="46.04959" lon="4.76436">
        <ele>191</ele>
        <time>2018-03-24T11:13:30Z</time>
      </trkpt>
      <trkpt lat="46.04955" lon="4.76433">
        <ele>191</ele>
        <time>2018-03-24T11:13:31Z</time>
      </trkpt>
      <trkpt lat="46.04951" lon="4.76429">
        <ele>191</ele>
        <time>2018-03-24T11:13:32Z</time>
      </trkpt>
      <trkpt lat="46.04946" lon="4.76427">
        <ele>191</ele>
        <time>2018-03-24T11:13:33Z</time>
      </trkpt>
      <trkpt lat="46.04937" lon="4.76425">
        <ele>191</ele>
        <time>2018-03-24T11:13:35Z</time>
      </trkpt>
      <trkpt lat="46.04933" lon="4.76426">
        <ele>191</ele>
        <time>2018-03-24T11:13:36Z</time>
      </trkpt>
      <trkpt lat="46.04928" lon="4.76429">
        <ele>191</ele>
        <time>2018-03-24T11:13:37Z</time>
      </trkpt>
      <trkpt lat="46.04923" lon="4.7643">
        <ele>191</ele>
        <time>2018-03-24T11:13:38Z</time>
      </trkpt>
      <trkpt lat="46.04915" lon="4.76432">
        <ele>193</ele>
        <time>2018-03-24T11:13:40Z</time>
      </trkpt>
      <trkpt lat="46.04911" lon="4.76436">
        <ele>193</ele>
        <time>2018-03-24T11:13:41Z</time>
      </trkpt>
      <trkpt lat="46.04903" lon="4.76441">
        <ele>193</ele>
        <time>2018-03-24T11:13:43Z</time>
      </trkpt>
      <trkpt lat="46.04898" lon="4.76442">
        <ele>193</ele>
        <time>2018-03-24T11:13:44Z</time>
      </trkpt>
      <trkpt lat="46.04891" lon="4.76443">
        <ele>193</ele>
        <time>2018-03-24T11:13:46Z</time>
      </trkpt>
      <trkpt lat="46.04887" lon="4.76442">
        <ele>193</ele>
        <time>2018-03-24T11:13:47Z</time>
      </trkpt>
      <trkpt lat="46.04878" lon="4.76441">
        <ele>193</ele>
        <time>2018-03-24T11:13:49Z</time>
      </trkpt>
      <trkpt lat="46.04874" lon="4.76441">
        <ele>193</ele>
        <time>2018-03-24T11:13:50Z</time>
      </trkpt>
      <trkpt lat="46.04866" lon="4.76441">
        <ele>193</ele>
        <time>2018-03-24T11:13:52Z</time>
      </trkpt>
      <trkpt lat="46.04862" lon="4.7644">
        <ele>193</ele>
        <time>2018-03-24T11:13:53Z</time>
      </trkpt>
      <trkpt lat="46.04857" lon="4.76443">
        <ele>193</ele>
        <time>2018-03-24T11:13:54Z</time>
      </trkpt>
      <trkpt lat="46.04852" lon="4.76443">
        <ele>193</ele>
        <time>2018-03-24T11:13:55Z</time>
      </trkpt>
      <trkpt lat="46.04846" lon="4.76444">
        <ele>193</ele>
        <time>2018-03-24T11:13:56Z</time>
      </trkpt>
      <trkpt lat="46.0484" lon="4.76449">
        <ele>194</ele>
        <time>2018-03-24T11:13:57Z</time>
      </trkpt>
      <trkpt lat="46.04834" lon="4.76442">
        <ele>194</ele>
        <time>2018-03-24T11:13:59Z</time>
      </trkpt>
      <trkpt lat="46.04829" lon="4.7644">
        <ele>193</ele>
        <time>2018-03-24T11:14:00Z</time>
      </trkpt>
      <trkpt lat="46.04825" lon="4.76438">
        <ele>193</ele>
        <time>2018-03-24T11:14:01Z</time>
      </trkpt>
      <trkpt lat="46.04819" lon="4.76435">
        <ele>193</ele>
        <time>2018-03-24T11:14:02Z</time>
      </trkpt>
      <trkpt lat="46.04815" lon="4.76433">
        <ele>193</ele>
        <time>2018-03-24T11:14:03Z</time>
      </trkpt>
      <trkpt lat="46.04808" lon="4.76433">
        <ele>193</ele>
        <time>2018-03-24T11:14:04Z</time>
      </trkpt>
      <trkpt lat="46.048" lon="4.76434">
        <ele>193</ele>
        <time>2018-03-24T11:14:06Z</time>
      </trkpt>
      <trkpt lat="46.04797" lon="4.76435">
        <ele>193</ele>
        <time>2018-03-24T11:14:07Z</time>
      </trkpt>
      <trkpt lat="46.04793" lon="4.76436">
        <ele>193</ele>
        <time>2018-03-24T11:14:08Z</time>
      </trkpt>
      <trkpt lat="46.04785" lon="4.76443">
        <ele>192</ele>
        <time>2018-03-24T11:14:09Z</time>
      </trkpt>
      <trkpt lat="46.04779" lon="4.76446">
        <ele>192</ele>
        <time>2018-03-24T11:14:10Z</time>
      </trkpt>
      <trkpt lat="46.04774" lon="4.76447">
        <ele>192</ele>
        <time>2018-03-24T11:14:11Z</time>
      </trkpt>
      <trkpt lat="46.0477" lon="4.76454">
        <ele>192</ele>
        <time>2018-03-24T11:14:12Z</time>
      </trkpt>
      <trkpt lat="46.04763" lon="4.76457">
        <ele>192</ele>
        <time>2018-03-24T11:14:13Z</time>
      </trkpt>
      <trkpt lat="46.04759" lon="4.7646">
        <ele>192</ele>
        <time>2018-03-24T11:14:14Z</time>
      </trkpt>
      <trkpt lat="46.04754" lon="4.76464">
        <ele>192</ele>
        <time>2018-03-24T11:14:15Z</time>
      </trkpt>
      <trkpt lat="46.04748" lon="4.76467">
        <ele>190</ele>
        <time>2018-03-24T11:14:16Z</time>
      </trkpt>
      <trkpt lat="46.04743" lon="4.7647">
        <ele>190</ele>
        <time>2018-03-24T11:14:17Z</time>
      </trkpt>
      <trkpt lat="46.04736" lon="4.76473">
        <ele>190</ele>
        <time>2018-03-24T11:14:18Z</time>
      </trkpt>
      <trkpt lat="46.0473" lon="4.76476">
        <ele>189</ele>
        <time>2018-03-24T11:14:19Z</time>
      </trkpt>
      <trkpt lat="46.04724" lon="4.76478">
        <ele>189</ele>
        <time>2018-03-24T11:14:20Z</time>
      </trkpt>
      <trkpt lat="46.04719" lon="4.76481">
        <ele>189</ele>
        <time>2018-03-24T11:14:21Z</time>
      </trkpt>
      <trkpt lat="46.04713" lon="4.76483">
        <ele>189</ele>
        <time>2018-03-24T11:14:22Z</time>
      </trkpt>
      <trkpt lat="46.04709" lon="4.76484">
        <ele>189</ele>
        <time>2018-03-24T11:14:23Z</time>
      </trkpt>
      <trkpt lat="46.04701" lon="4.76488">
        <ele>188</ele>
        <time>2018-03-24T11:14:25Z</time>
      </trkpt>
      <trkpt lat="46.04699" lon="4.76488">
        <ele>188</ele>
        <time>2018-03-24T11:14:26Z</time>
      </trkpt>
      <trkpt lat="46.04691" lon="4.76492">
        <ele>188</ele>
        <time>2018-03-24T11:14:42Z</time>
      </trkpt>
      <trkpt lat="46.0469" lon="4.76492">
        <ele>188</ele>
        <time>2018-03-24T11:14:43Z</time>
      </trkpt>
      <trkpt lat="46.04683" lon="4.76497">
        <ele>187</ele>
        <time>2018-03-24T11:14:48Z</time>
      </trkpt>
      <trkpt lat="46.04681" lon="4.76498">
        <ele>187</ele>
        <time>2018-03-24T11:14:49Z</time>
      </trkpt>
      <trkpt lat="46.04676" lon="4.76502">
        <ele>187</ele>
        <time>2018-03-24T11:14:51Z</time>
      </trkpt>
      <trkpt lat="46.0467" lon="4.76507">
        <ele>186</ele>
        <time>2018-03-24T11:14:52Z</time>
      </trkpt>
      <trkpt lat="46.04663" lon="4.76509">
        <ele>186</ele>
        <time>2018-03-24T11:14:54Z</time>
      </trkpt>
      <trkpt lat="46.04658" lon="4.76509">
        <ele>186</ele>
        <time>2018-03-24T11:14:55Z</time>
      </trkpt>
      <trkpt lat="46.04652" lon="4.76511">
        <ele>186</ele>
        <time>2018-03-24T11:14:56Z</time>
      </trkpt>
      <trkpt lat="46.04646" lon="4.76511">
        <ele>186</ele>
        <time>2018-03-24T11:14:57Z</time>
      </trkpt>
      <trkpt lat="46.0464" lon="4.76512">
        <ele>186</ele>
        <time>2018-03-24T11:14:58Z</time>
      </trkpt>
      <trkpt lat="46.04634" lon="4.76513">
        <ele>186</ele>
        <time>2018-03-24T11:14:59Z</time>
      </trkpt>
      <trkpt lat="46.04628" lon="4.76515">
        <ele>186</ele>
        <time>2018-03-24T11:15:00Z</time>
      </trkpt>
      <trkpt lat="46.04622" lon="4.76517">
        <ele>186</ele>
        <time>2018-03-24T11:15:01Z</time>
      </trkpt>
      <trkpt lat="46.04616" lon="4.76519">
        <ele>186</ele>
        <time>2018-03-24T11:15:02Z</time>
      </trkpt>
      <trkpt lat="46.0461" lon="4.76522">
        <ele>186</ele>
        <time>2018-03-24T11:15:03Z</time>
      </trkpt>
      <trkpt lat="46.04604" lon="4.76524">
        <ele>186</ele>
        <time>2018-03-24T11:15:04Z</time>
      </trkpt>
      <trkpt lat="46.04599" lon="4.76526">
        <ele>186</ele>
        <time>2018-03-24T11:15:05Z</time>
      </trkpt>
      <trkpt lat="46.04595" lon="4.76528">
        <ele>186</ele>
        <time>2018-03-24T11:15:06Z</time>
      </trkpt>
      <trkpt lat="46.0459" lon="4.7653">
        <ele>186</ele>
        <time>2018-03-24T11:15:07Z</time>
      </trkpt>
      <trkpt lat="46.04584" lon="4.76534">
        <ele>186</ele>
        <time>2018-03-24T11:15:09Z</time>
      </trkpt>
      <trkpt lat="46.0458" lon="4.76536">
        <ele>187</ele>
        <time>2018-03-24T11:15:10Z</time>
      </trkpt>
      <trkpt lat="46.04575" lon="4.76537">
        <ele>187</ele>
        <time>2018-03-24T11:15:11Z</time>
      </trkpt>
      <trkpt lat="46.0457" lon="4.76539">
        <ele>187</ele>
        <time>2018-03-24T11:15:12Z</time>
      </trkpt>
      <trkpt lat="46.04562" lon="4.76544">
        <ele>187</ele>
        <time>2018-03-24T11:15:14Z</time>
      </trkpt>
      <trkpt lat="46.04558" lon="4.76546">
        <ele>188</ele>
        <time>2018-03-24T11:15:15Z</time>
      </trkpt>
      <trkpt lat="46.04552" lon="4.76548">
        <ele>188</ele>
        <time>2018-03-24T11:15:16Z</time>
      </trkpt>
      <trkpt lat="46.04547" lon="4.76549">
        <ele>188</ele>
        <time>2018-03-24T11:15:17Z</time>
      </trkpt>
      <trkpt lat="46.04542" lon="4.76551">
        <ele>188</ele>
        <time>2018-03-24T11:15:18Z</time>
      </trkpt>
      <trkpt lat="46.04537" lon="4.76552">
        <ele>188</ele>
        <time>2018-03-24T11:15:19Z</time>
      </trkpt>
      <trkpt lat="46.04531" lon="4.76552">
        <ele>188</ele>
        <time>2018-03-24T11:15:21Z</time>
      </trkpt>
      <trkpt lat="46.04527" lon="4.76553">
        <ele>189</ele>
        <time>2018-03-24T11:15:22Z</time>
      </trkpt>
      <trkpt lat="46.04518" lon="4.76555">
        <ele>189</ele>
        <time>2018-03-24T11:15:24Z</time>
      </trkpt>
      <trkpt lat="46.04517" lon="4.76556">
        <ele>189</ele>
        <time>2018-03-24T11:15:25Z</time>
      </trkpt>
      <trkpt lat="46.04512" lon="4.76556">
        <ele>189</ele>
        <time>2018-03-24T11:15:27Z</time>
      </trkpt>
      <trkpt lat="46.04505" lon="4.76556">
        <ele>189</ele>
        <time>2018-03-24T11:15:28Z</time>
      </trkpt>
      <trkpt lat="46.04497" lon="4.76556">
        <ele>192</ele>
        <time>2018-03-24T11:15:31Z</time>
      </trkpt>
      <trkpt lat="46.04494" lon="4.76556">
        <ele>192</ele>
        <time>2018-03-24T11:15:32Z</time>
      </trkpt>
      <trkpt lat="46.04485" lon="4.76558">
        <ele>193</ele>
        <time>2018-03-24T11:15:35Z</time>
      </trkpt>
      <trkpt lat="46.04482" lon="4.76558">
        <ele>193</ele>
        <time>2018-03-24T11:15:36Z</time>
      </trkpt>
      <trkpt lat="46.04474" lon="4.76559">
        <ele>193</ele>
        <time>2018-03-24T11:15:39Z</time>
      </trkpt>
      <trkpt lat="46.04471" lon="4.7656">
        <ele>193</ele>
        <time>2018-03-24T11:15:40Z</time>
      </trkpt>
      <trkpt lat="46.04465" lon="4.76561">
        <ele>194</ele>
        <time>2018-03-24T11:15:42Z</time>
      </trkpt>
      <trkpt lat="46.04462" lon="4.76562">
        <ele>194</ele>
        <time>2018-03-24T11:15:43Z</time>
      </trkpt>
      <trkpt lat="46.04455" lon="4.76562">
        <ele>194</ele>
        <time>2018-03-24T11:15:45Z</time>
      </trkpt>
      <trkpt lat="46.04452" lon="4.76562">
        <ele>194</ele>
        <time>2018-03-24T11:15:46Z</time>
      </trkpt>
      <trkpt lat="46.04443" lon="4.76563">
        <ele>195</ele>
        <time>2018-03-24T11:15:49Z</time>
      </trkpt>
      <trkpt lat="46.0444" lon="4.76562">
        <ele>195</ele>
        <time>2018-03-24T11:15:50Z</time>
      </trkpt>
      <trkpt lat="46.04435" lon="4.76561">
        <ele>195</ele>
        <time>2018-03-24T11:15:52Z</time>
      </trkpt>
      <trkpt lat="46.04431" lon="4.76561">
        <ele>195</ele>
        <time>2018-03-24T11:15:53Z</time>
      </trkpt>
      <trkpt lat="46.04424" lon="4.76561">
        <ele>196</ele>
        <time>2018-03-24T11:15:55Z</time>
      </trkpt>
      <trkpt lat="46.0442" lon="4.76561">
        <ele>196</ele>
        <time>2018-03-24T11:15:56Z</time>
      </trkpt>
      <trkpt lat="46.04412" lon="4.76562">
        <ele>197</ele>
        <time>2018-03-24T11:15:58Z</time>
      </trkpt>
      <trkpt lat="46.04409" lon="4.76562">
        <ele>197</ele>
        <time>2018-03-24T11:15:59Z</time>
      </trkpt>
      <trkpt lat="46.04401" lon="4.76563">
        <ele>197</ele>
        <time>2018-03-24T11:16:01Z</time>
      </trkpt>
      <trkpt lat="46.04397" lon="4.76564">
        <ele>197</ele>
        <time>2018-03-24T11:16:02Z</time>
      </trkpt>
      <trkpt lat="46.04389" lon="4.76565">
        <ele>197</ele>
        <time>2018-03-24T11:16:04Z</time>
      </trkpt>
      <trkpt lat="46.04385" lon="4.76566">
        <ele>197</ele>
        <time>2018-03-24T11:16:05Z</time>
      </trkpt>
      <trkpt lat="46.04378" lon="4.76568">
        <ele>197</ele>
        <time>2018-03-24T11:16:07Z</time>
      </trkpt>
      <trkpt lat="46.04368" lon="4.76571">
        <ele>197</ele>
        <time>2018-03-24T11:16:08Z</time>
      </trkpt>
      <trkpt lat="46.04363" lon="4.76573">
        <ele>197</ele>
        <time>2018-03-24T11:16:10Z</time>
      </trkpt>
      <trkpt lat="46.04357" lon="4.76574">
        <ele>198</ele>
        <time>2018-03-24T11:16:11Z</time>
      </trkpt>
      <trkpt lat="46.04348" lon="4.76574">
        <ele>198</ele>
        <time>2018-03-24T11:16:14Z</time>
      </trkpt>
      <trkpt lat="46.04345" lon="4.76574">
        <ele>198</ele>
        <time>2018-03-24T11:16:15Z</time>
      </trkpt>
      <trkpt lat="46.04342" lon="4.76574">
        <ele>198</ele>
        <time>2018-03-24T11:16:16Z</time>
      </trkpt>
      <trkpt lat="46.04334" lon="4.76575">
        <ele>198</ele>
        <time>2018-03-24T11:16:17Z</time>
      </trkpt>
      <trkpt lat="46.04326" lon="4.76575">
        <ele>198</ele>
        <time>2018-03-24T11:16:19Z</time>
      </trkpt>
      <trkpt lat="46.04322" lon="4.76575">
        <ele>198</ele>
        <time>2018-03-24T11:16:20Z</time>
      </trkpt>
      <trkpt lat="46.04313" lon="4.76574">
        <ele>197</ele>
        <time>2018-03-24T11:16:22Z</time>
      </trkpt>
      <trkpt lat="46.04309" lon="4.76574">
        <ele>197</ele>
        <time>2018-03-24T11:16:23Z</time>
      </trkpt>
      <trkpt lat="46.04301" lon="4.76575">
        <ele>197</ele>
        <time>2018-03-24T11:16:26Z</time>
      </trkpt>
      <trkpt lat="46.04293" lon="4.76576">
        <ele>197</ele>
        <time>2018-03-24T11:16:27Z</time>
      </trkpt>
      <trkpt lat="46.04286" lon="4.76578">
        <ele>197</ele>
        <time>2018-03-24T11:16:30Z</time>
      </trkpt>
      <trkpt lat="46.04279" lon="4.76581">
        <ele>197</ele>
        <time>2018-03-24T11:16:31Z</time>
      </trkpt>
      <trkpt lat="46.04271" lon="4.76584">
        <ele>197</ele>
        <time>2018-03-24T11:16:33Z</time>
      </trkpt>
      <trkpt lat="46.04267" lon="4.76584">
        <ele>197</ele>
        <time>2018-03-24T11:16:34Z</time>
      </trkpt>
      <trkpt lat="46.0426" lon="4.76584">
        <ele>197</ele>
        <time>2018-03-24T11:16:37Z</time>
      </trkpt>
      <trkpt lat="46.04257" lon="4.76584">
        <ele>197</ele>
        <time>2018-03-24T11:16:38Z</time>
      </trkpt>
      <trkpt lat="46.04249" lon="4.76584">
        <ele>197</ele>
        <time>2018-03-24T11:16:41Z</time>
      </trkpt>
      <trkpt lat="46.04246" lon="4.76584">
        <ele>197</ele>
        <time>2018-03-24T11:16:42Z</time>
      </trkpt>
      <trkpt lat="46.04239" lon="4.76584">
        <ele>197</ele>
        <time>2018-03-24T11:16:44Z</time>
      </trkpt>
      <trkpt lat="46.04236" lon="4.76585">
        <ele>197</ele>
        <time>2018-03-24T11:16:45Z</time>
      </trkpt>
      <trkpt lat="46.04228" lon="4.76585">
        <ele>198</ele>
        <time>2018-03-24T11:16:47Z</time>
      </trkpt>
      <trkpt lat="46.04225" lon="4.76585">
        <ele>198</ele>
        <time>2018-03-24T11:16:48Z</time>
      </trkpt>
      <trkpt lat="46.04221" lon="4.76586">
        <ele>198</ele>
        <time>2018-03-24T11:16:49Z</time>
      </trkpt>
      <trkpt lat="46.04212" lon="4.76587">
        <ele>198</ele>
        <time>2018-03-24T11:16:50Z</time>
      </trkpt>
      <trkpt lat="46.04204" lon="4.7659">
        <ele>198</ele>
        <time>2018-03-24T11:16:52Z</time>
      </trkpt>
      <trkpt lat="46.04202" lon="4.76591">
        <ele>198</ele>
        <time>2018-03-24T11:16:53Z</time>
      </trkpt>
      <trkpt lat="46.04195" lon="4.76595">
        <ele>198</ele>
        <time>2018-03-24T11:16:55Z</time>
      </trkpt>
      <trkpt lat="46.04193" lon="4.76596">
        <ele>198</ele>
        <time>2018-03-24T11:16:56Z</time>
      </trkpt>
      <trkpt lat="46.04188" lon="4.766">
        <ele>198</ele>
        <time>2018-03-24T11:16:58Z</time>
      </trkpt>
      <trkpt lat="46.04185" lon="4.76602">
        <ele>198</ele>
        <time>2018-03-24T11:16:59Z</time>
      </trkpt>
      <trkpt lat="46.04182" lon="4.76605">
        <ele>198</ele>
        <time>2018-03-24T11:17:00Z</time>
      </trkpt>
      <trkpt lat="46.04175" lon="4.76611">
        <ele>198</ele>
        <time>2018-03-24T11:17:01Z</time>
      </trkpt>
      <trkpt lat="46.0417" lon="4.76617">
        <ele>198</ele>
        <time>2018-03-24T11:17:04Z</time>
      </trkpt>
      <trkpt lat="46.04168" lon="4.7662">
        <ele>198</ele>
        <time>2018-03-24T11:17:05Z</time>
      </trkpt>
      <trkpt lat="46.04161" lon="4.76626">
        <ele>199</ele>
        <time>2018-03-24T11:17:06Z</time>
      </trkpt>
      <trkpt lat="46.0416" lon="4.76627">
        <ele>199</ele>
        <time>2018-03-24T11:17:07Z</time>
      </trkpt>
      <trkpt lat="46.04155" lon="4.76631">
        <ele>200</ele>
        <time>2018-03-24T11:17:08Z</time>
      </trkpt>
      <trkpt lat="46.04151" lon="4.76634">
        <ele>200</ele>
        <time>2018-03-24T11:17:09Z</time>
      </trkpt>
      <trkpt lat="46.04143" lon="4.76638">
        <ele>200</ele>
        <time>2018-03-24T11:17:11Z</time>
      </trkpt>
      <trkpt lat="46.04141" lon="4.76639">
        <ele>200</ele>
        <time>2018-03-24T11:17:12Z</time>
      </trkpt>
      <trkpt lat="46.04139" lon="4.76641">
        <ele>200</ele>
        <time>2018-03-24T11:17:13Z</time>
      </trkpt>
      <trkpt lat="46.04132" lon="4.76644">
        <ele>200</ele>
        <time>2018-03-24T11:17:14Z</time>
      </trkpt>
      <trkpt lat="46.04125" lon="4.76646">
        <ele>200</ele>
        <time>2018-03-24T11:17:17Z</time>
      </trkpt>
      <trkpt lat="46.04122" lon="4.76647">
        <ele>200</ele>
        <time>2018-03-24T11:17:18Z</time>
      </trkpt>
      <trkpt lat="46.04116" lon="4.76649">
        <ele>200</ele>
        <time>2018-03-24T11:17:20Z</time>
      </trkpt>
      <trkpt lat="46.04107" lon="4.7665">
        <ele>200</ele>
        <time>2018-03-24T11:17:21Z</time>
      </trkpt>
      <trkpt lat="46.04101" lon="4.76652">
        <ele>201</ele>
        <time>2018-03-24T11:17:23Z</time>
      </trkpt>
      <trkpt lat="46.04095" lon="4.76655">
        <ele>201</ele>
        <time>2018-03-24T11:17:24Z</time>
      </trkpt>
      <trkpt lat="46.04089" lon="4.76657">
        <ele>201</ele>
        <time>2018-03-24T11:17:26Z</time>
      </trkpt>
      <trkpt lat="46.04084" lon="4.76659">
        <ele>201</ele>
        <time>2018-03-24T11:17:27Z</time>
      </trkpt>
      <trkpt lat="46.04077" lon="4.76659">
        <ele>202</ele>
        <time>2018-03-24T11:17:30Z</time>
      </trkpt>
      <trkpt lat="46.0407" lon="4.76659">
        <ele>201</ele>
        <time>2018-03-24T11:17:31Z</time>
      </trkpt>
      <trkpt lat="46.04062" lon="4.7666">
        <ele>201</ele>
        <time>2018-03-24T11:17:34Z</time>
      </trkpt>
      <trkpt lat="46.04055" lon="4.76661">
        <ele>201</ele>
        <time>2018-03-24T11:17:35Z</time>
      </trkpt>
      <trkpt lat="46.04047" lon="4.76662">
        <ele>201</ele>
        <time>2018-03-24T11:17:37Z</time>
      </trkpt>
      <trkpt lat="46.04043" lon="4.76662">
        <ele>201</ele>
        <time>2018-03-24T11:17:38Z</time>
      </trkpt>
      <trkpt lat="46.04035" lon="4.76662">
        <ele>201</ele>
        <time>2018-03-24T11:17:40Z</time>
      </trkpt>
      <trkpt lat="46.04031" lon="4.76662">
        <ele>201</ele>
        <time>2018-03-24T11:17:41Z</time>
      </trkpt>
      <trkpt lat="46.04023" lon="4.76663">
        <ele>201</ele>
        <time>2018-03-24T11:17:43Z</time>
      </trkpt>
      <trkpt lat="46.04019" lon="4.76664">
        <ele>201</ele>
        <time>2018-03-24T11:17:44Z</time>
      </trkpt>
      <trkpt lat="46.04014" lon="4.76665">
        <ele>202</ele>
        <time>2018-03-24T11:17:45Z</time>
      </trkpt>
      <trkpt lat="46.0401" lon="4.76665">
        <ele>202</ele>
        <time>2018-03-24T11:17:46Z</time>
      </trkpt>
      <trkpt lat="46.04001" lon="4.76667">
        <ele>202</ele>
        <time>2018-03-24T11:17:48Z</time>
      </trkpt>
      <trkpt lat="46.03996" lon="4.76668">
        <ele>202</ele>
        <time>2018-03-24T11:17:49Z</time>
      </trkpt>
      <trkpt lat="46.03992" lon="4.76669">
        <ele>203</ele>
        <time>2018-03-24T11:17:50Z</time>
      </trkpt>
      <trkpt lat="46.03986" lon="4.76671">
        <ele>203</ele>
        <time>2018-03-24T11:17:51Z</time>
      </trkpt>
      <trkpt lat="46.03981" lon="4.76672">
        <ele>203</ele>
        <time>2018-03-24T11:17:52Z</time>
      </trkpt>
      <trkpt lat="46.03976" lon="4.76673">
        <ele>203</ele>
        <time>2018-03-24T11:17:53Z</time>
      </trkpt>
      <trkpt lat="46.03967" lon="4.76675">
        <ele>203</ele>
        <time>2018-03-24T11:17:55Z</time>
      </trkpt>
      <trkpt lat="46.03963" lon="4.76676">
        <ele>203</ele>
        <time>2018-03-24T11:17:56Z</time>
      </trkpt>
      <trkpt lat="46.03958" lon="4.76677">
        <ele>204</ele>
        <time>2018-03-24T11:17:57Z</time>
      </trkpt>
      <trkpt lat="46.03952" lon="4.76678">
        <ele>204</ele>
        <time>2018-03-24T11:17:58Z</time>
      </trkpt>
      <trkpt lat="46.03948" lon="4.7668">
        <ele>204</ele>
        <time>2018-03-24T11:17:59Z</time>
      </trkpt>
      <trkpt lat="46.03943" lon="4.76682">
        <ele>204</ele>
        <time>2018-03-24T11:18:00Z</time>
      </trkpt>
      <trkpt lat="46.03938" lon="4.76684">
        <ele>204</ele>
        <time>2018-03-24T11:18:01Z</time>
      </trkpt>
      <trkpt lat="46.03933" lon="4.76685">
        <ele>204</ele>
        <time>2018-03-24T11:18:02Z</time>
      </trkpt>
      <trkpt lat="46.03928" lon="4.76686">
        <ele>204</ele>
        <time>2018-03-24T11:18:03Z</time>
      </trkpt>
      <trkpt lat="46.03923" lon="4.76688">
        <ele>204</ele>
        <time>2018-03-24T11:18:04Z</time>
      </trkpt>
      <trkpt lat="46.03915" lon="4.76692">
        <ele>205</ele>
        <time>2018-03-24T11:18:06Z</time>
      </trkpt>
      <trkpt lat="46.0391" lon="4.76694">
        <ele>205</ele>
        <time>2018-03-24T11:18:07Z</time>
      </trkpt>
      <trkpt lat="46.03906" lon="4.76695">
        <ele>205</ele>
        <time>2018-03-24T11:18:08Z</time>
      </trkpt>
      <trkpt lat="46.03901" lon="4.76697">
        <ele>205</ele>
        <time>2018-03-24T11:18:09Z</time>
      </trkpt>
      <trkpt lat="46.03897" lon="4.76698">
        <ele>205</ele>
        <time>2018-03-24T11:18:10Z</time>
      </trkpt>
      <trkpt lat="46.03892" lon="4.767">
        <ele>205</ele>
        <time>2018-03-24T11:18:11Z</time>
      </trkpt>
      <trkpt lat="46.03883" lon="4.76702">
        <ele>205</ele>
        <time>2018-03-24T11:18:13Z</time>
      </trkpt>
      <trkpt lat="46.03879" lon="4.76702">
        <ele>205</ele>
        <time>2018-03-24T11:18:14Z</time>
      </trkpt>
      <trkpt lat="46.03874" lon="4.76703">
        <ele>205</ele>
        <time>2018-03-24T11:18:15Z</time>
      </trkpt>
      <trkpt lat="46.0387" lon="4.76705">
        <ele>205</ele>
        <time>2018-03-24T11:18:16Z</time>
      </trkpt>
      <trkpt lat="46.03866" lon="4.76707">
        <ele>205</ele>
        <time>2018-03-24T11:18:17Z</time>
      </trkpt>
      <trkpt lat="46.03861" lon="4.76709">
        <ele>205</ele>
        <time>2018-03-24T11:18:18Z</time>
      </trkpt>
      <trkpt lat="46.03856" lon="4.7671">
        <ele>205</ele>
        <time>2018-03-24T11:18:19Z</time>
      </trkpt>
      <trkpt lat="46.03852" lon="4.76712">
        <ele>205</ele>
        <time>2018-03-24T11:18:20Z</time>
      </trkpt>
      <trkpt lat="46.03843" lon="4.76712">
        <ele>205</ele>
        <time>2018-03-24T11:18:22Z</time>
      </trkpt>
      <trkpt lat="46.03839" lon="4.76713">
        <ele>205</ele>
        <time>2018-03-24T11:18:23Z</time>
      </trkpt>
      <trkpt lat="46.03834" lon="4.76713">
        <ele>205</ele>
        <time>2018-03-24T11:18:24Z</time>
      </trkpt>
      <trkpt lat="46.03827" lon="4.76713">
        <ele>205</ele>
        <time>2018-03-24T11:18:25Z</time>
      </trkpt>
      <trkpt lat="46.03821" lon="4.76713">
        <ele>205</ele>
        <time>2018-03-24T11:18:26Z</time>
      </trkpt>
      <trkpt lat="46.03815" lon="4.76714">
        <ele>205</ele>
        <time>2018-03-24T11:18:27Z</time>
      </trkpt>
      <trkpt lat="46.03809" lon="4.76715">
        <ele>205</ele>
        <time>2018-03-24T11:18:28Z</time>
      </trkpt>
      <trkpt lat="46.03804" lon="4.76716">
        <ele>205</ele>
        <time>2018-03-24T11:18:29Z</time>
      </trkpt>
      <trkpt lat="46.03798" lon="4.76716">
        <ele>205</ele>
        <time>2018-03-24T11:18:30Z</time>
      </trkpt>
      <trkpt lat="46.03793" lon="4.76717">
        <ele>205</ele>
        <time>2018-03-24T11:18:31Z</time>
      </trkpt>
      <trkpt lat="46.03787" lon="4.76718">
        <ele>205</ele>
        <time>2018-03-24T11:18:32Z</time>
      </trkpt>
      <trkpt lat="46.03782" lon="4.76717">
        <ele>205</ele>
        <time>2018-03-24T11:18:33Z</time>
      </trkpt>
      <trkpt lat="46.03776" lon="4.76717">
        <ele>205</ele>
        <time>2018-03-24T11:18:34Z</time>
      </trkpt>
      <trkpt lat="46.03769" lon="4.76716">
        <ele>205</ele>
        <time>2018-03-24T11:18:35Z</time>
      </trkpt>
      <trkpt lat="46.03764" lon="4.76712">
        <ele>205</ele>
        <time>2018-03-24T11:18:36Z</time>
      </trkpt>
      <trkpt lat="46.03758" lon="4.76709">
        <ele>205</ele>
        <time>2018-03-24T11:18:37Z</time>
      </trkpt>
      <trkpt lat="46.03752" lon="4.76708">
        <ele>205</ele>
        <time>2018-03-24T11:18:38Z</time>
      </trkpt>
      <trkpt lat="46.03747" lon="4.76706">
        <ele>205</ele>
        <time>2018-03-24T11:18:39Z</time>
      </trkpt>
      <trkpt lat="46.03741" lon="4.76704">
        <ele>205</ele>
        <time>2018-03-24T11:18:40Z</time>
      </trkpt>
      <trkpt lat="46.03735" lon="4.76702">
        <ele>205</ele>
        <time>2018-03-24T11:18:41Z</time>
      </trkpt>
      <trkpt lat="46.0373" lon="4.767">
        <ele>205</ele>
        <time>2018-03-24T11:18:42Z</time>
      </trkpt>
      <trkpt lat="46.03725" lon="4.76698">
        <ele>205</ele>
        <time>2018-03-24T11:18:43Z</time>
      </trkpt>
      <trkpt lat="46.03719" lon="4.76697">
        <ele>205</ele>
        <time>2018-03-24T11:18:44Z</time>
      </trkpt>
      <trkpt lat="46.03713" lon="4.76693">
        <ele>205</ele>
        <time>2018-03-24T11:18:45Z</time>
      </trkpt>
      <trkpt lat="46.03707" lon="4.76691">
        <ele>205</ele>
        <time>2018-03-24T11:18:46Z</time>
      </trkpt>
      <trkpt lat="46.03702" lon="4.76688">
        <ele>205</ele>
        <time>2018-03-24T11:18:47Z</time>
      </trkpt>
      <trkpt lat="46.03696" lon="4.7668">
        <ele>205</ele>
        <time>2018-03-24T11:18:49Z</time>
      </trkpt>
      <trkpt lat="46.03692" lon="4.76677">
        <ele>205</ele>
        <time>2018-03-24T11:18:50Z</time>
      </trkpt>
      <trkpt lat="46.0369" lon="4.76673">
        <ele>205</ele>
        <time>2018-03-24T11:18:51Z</time>
      </trkpt>
      <trkpt lat="46.03687" lon="4.76665">
        <ele>204</ele>
        <time>2018-03-24T11:18:52Z</time>
      </trkpt>
      <trkpt lat="46.03685" lon="4.76656">
        <ele>204</ele>
        <time>2018-03-24T11:18:53Z</time>
      </trkpt>
      <trkpt lat="46.03683" lon="4.76648">
        <ele>204</ele>
        <time>2018-03-24T11:18:54Z</time>
      </trkpt>
      <trkpt lat="46.03685" lon="4.76634">
        <ele>203</ele>
        <time>2018-03-24T11:18:55Z</time>
      </trkpt>
      <trkpt lat="46.03683" lon="4.76625">
        <ele>203</ele>
        <time>2018-03-24T11:18:56Z</time>
      </trkpt>
      <trkpt lat="46.0368" lon="4.76614">
        <ele>203</ele>
        <time>2018-03-24T11:18:57Z</time>
      </trkpt>
      <trkpt lat="46.03677" lon="4.76604">
        <ele>203</ele>
        <time>2018-03-24T11:18:58Z</time>
      </trkpt>
      <trkpt lat="46.03672" lon="4.76596">
        <ele>203</ele>
        <time>2018-03-24T11:18:59Z</time>
      </trkpt>
      <trkpt lat="46.03667" lon="4.76589">
        <ele>202</ele>
        <time>2018-03-24T11:19:00Z</time>
      </trkpt>
      <trkpt lat="46.03661" lon="4.76584">
        <ele>202</ele>
        <time>2018-03-24T11:19:01Z</time>
      </trkpt>
      <trkpt lat="46.03657" lon="4.76578">
        <ele>201</ele>
        <time>2018-03-24T11:19:02Z</time>
      </trkpt>
      <trkpt lat="46.03651" lon="4.76571">
        <ele>201</ele>
        <time>2018-03-24T11:19:03Z</time>
      </trkpt>
      <trkpt lat="46.03646" lon="4.76563">
        <ele>201</ele>
        <time>2018-03-24T11:19:04Z</time>
      </trkpt>
      <trkpt lat="46.03643" lon="4.76556">
        <ele>201</ele>
        <time>2018-03-24T11:19:05Z</time>
      </trkpt>
      <trkpt lat="46.03639" lon="4.76548">
        <ele>200</ele>
        <time>2018-03-24T11:19:06Z</time>
      </trkpt>
      <trkpt lat="46.03636" lon="4.76539">
        <ele>200</ele>
        <time>2018-03-24T11:19:07Z</time>
      </trkpt>
      <trkpt lat="46.03633" lon="4.7653">
        <ele>200</ele>
        <time>2018-03-24T11:19:08Z</time>
      </trkpt>
      <trkpt lat="46.03631" lon="4.76522">
        <ele>200</ele>
        <time>2018-03-24T11:19:09Z</time>
      </trkpt>
      <trkpt lat="46.03627" lon="4.76514">
        <ele>200</ele>
        <time>2018-03-24T11:19:10Z</time>
      </trkpt>
      <trkpt lat="46.03623" lon="4.76506">
        <ele>200</ele>
        <time>2018-03-24T11:19:11Z</time>
      </trkpt>
      <trkpt lat="46.03619" lon="4.765">
        <ele>200</ele>
        <time>2018-03-24T11:19:12Z</time>
      </trkpt>
      <trkpt lat="46.03615" lon="4.76496">
        <ele>199</ele>
        <time>2018-03-24T11:19:13Z</time>
      </trkpt>
      <trkpt lat="46.03611" lon="4.7649">
        <ele>199</ele>
        <time>2018-03-24T11:19:14Z</time>
      </trkpt>
      <trkpt lat="46.03607" lon="4.76485">
        <ele>199</ele>
        <time>2018-03-24T11:19:15Z</time>
      </trkpt>
      <trkpt lat="46.03601" lon="4.76479">
        <ele>199</ele>
        <time>2018-03-24T11:19:16Z</time>
      </trkpt>
      <trkpt lat="46.03597" lon="4.76473">
        <ele>199</ele>
        <time>2018-03-24T11:19:17Z</time>
      </trkpt>
      <trkpt lat="46.03594" lon="4.76464">
        <ele>199</ele>
        <time>2018-03-24T11:19:18Z</time>
      </trkpt>
      <trkpt lat="46.03594" lon="4.76453">
        <ele>199</ele>
        <time>2018-03-24T11:19:19Z</time>
      </trkpt>
      <trkpt lat="46.03594" lon="4.76442">
        <ele>199</ele>
        <time>2018-03-24T11:19:20Z</time>
      </trkpt>
      <trkpt lat="46.03596" lon="4.76435">
        <ele>199</ele>
        <time>2018-03-24T11:19:21Z</time>
      </trkpt>
      <trkpt lat="46.03597" lon="4.76428">
        <ele>199</ele>
        <time>2018-03-24T11:19:22Z</time>
      </trkpt>
      <trkpt lat="46.03598" lon="4.76417">
        <ele>198</ele>
        <time>2018-03-24T11:19:23Z</time>
      </trkpt>
      <trkpt lat="46.03598" lon="4.76406">
        <ele>198</ele>
        <time>2018-03-24T11:19:24Z</time>
      </trkpt>
      <trkpt lat="46.03599" lon="4.76394">
        <ele>197</ele>
        <time>2018-03-24T11:19:25Z</time>
      </trkpt>
      <trkpt lat="46.036" lon="4.76382">
        <ele>197</ele>
        <time>2018-03-24T11:19:26Z</time>
      </trkpt>
      <trkpt lat="46.03603" lon="4.76372">
        <ele>197</ele>
        <time>2018-03-24T11:19:27Z</time>
      </trkpt>
      <trkpt lat="46.03604" lon="4.7636">
        <ele>196</ele>
        <time>2018-03-24T11:19:28Z</time>
      </trkpt>
      <trkpt lat="46.03606" lon="4.76348">
        <ele>196</ele>
        <time>2018-03-24T11:19:29Z</time>
      </trkpt>
      <trkpt lat="46.03606" lon="4.76336">
        <ele>196</ele>
        <time>2018-03-24T11:19:30Z</time>
      </trkpt>
      <trkpt lat="46.03607" lon="4.76324">
        <ele>195</ele>
        <time>2018-03-24T11:19:31Z</time>
      </trkpt>
      <trkpt lat="46.03608" lon="4.76313">
        <ele>195</ele>
        <time>2018-03-24T11:19:32Z</time>
      </trkpt>
      <trkpt lat="46.0361" lon="4.76302">
        <ele>195</ele>
        <time>2018-03-24T11:19:33Z</time>
      </trkpt>
      <trkpt lat="46.03611" lon="4.7629">
        <ele>194</ele>
        <time>2018-03-24T11:19:34Z</time>
      </trkpt>
      <trkpt lat="46.03613" lon="4.76279">
        <ele>194</ele>
        <time>2018-03-24T11:19:35Z</time>
      </trkpt>
      <trkpt lat="46.03614" lon="4.76268">
        <ele>194</ele>
        <time>2018-03-24T11:19:36Z</time>
      </trkpt>
      <trkpt lat="46.03616" lon="4.76257">
        <ele>194</ele>
        <time>2018-03-24T11:19:37Z</time>
      </trkpt>
      <trkpt lat="46.03617" lon="4.76247">
        <ele>193</ele>
        <time>2018-03-24T11:19:38Z</time>
      </trkpt>
      <trkpt lat="46.03618" lon="4.76235">
        <ele>193</ele>
        <time>2018-03-24T11:19:39Z</time>
      </trkpt>
      <trkpt lat="46.03619" lon="4.76224">
        <ele>193</ele>
        <time>2018-03-24T11:19:40Z</time>
      </trkpt>
      <trkpt lat="46.03621" lon="4.76214">
        <ele>193</ele>
        <time>2018-03-24T11:19:41Z</time>
      </trkpt>
      <trkpt lat="46.03622" lon="4.76204">
        <ele>193</ele>
        <time>2018-03-24T11:19:42Z</time>
      </trkpt>
      <trkpt lat="46.03623" lon="4.76193">
        <ele>193</ele>
        <time>2018-03-24T11:19:43Z</time>
      </trkpt>
      <trkpt lat="46.03624" lon="4.76182">
        <ele>193</ele>
        <time>2018-03-24T11:19:44Z</time>
      </trkpt>
      <trkpt lat="46.03626" lon="4.76171">
        <ele>192</ele>
        <time>2018-03-24T11:19:45Z</time>
      </trkpt>
      <trkpt lat="46.03627" lon="4.76161">
        <ele>192</ele>
        <time>2018-03-24T11:19:46Z</time>
      </trkpt>
      <trkpt lat="46.03627" lon="4.76151">
        <ele>192</ele>
        <time>2018-03-24T11:19:47Z</time>
      </trkpt>
      <trkpt lat="46.03627" lon="4.76143">
        <ele>192</ele>
        <time>2018-03-24T11:19:48Z</time>
      </trkpt>
      <trkpt lat="46.03628" lon="4.76133">
        <ele>192</ele>
        <time>2018-03-24T11:19:49Z</time>
      </trkpt>
      <trkpt lat="46.03628" lon="4.76123">
        <ele>192</ele>
        <time>2018-03-24T11:19:50Z</time>
      </trkpt>
      <trkpt lat="46.03628" lon="4.76114">
        <ele>192</ele>
        <time>2018-03-24T11:19:51Z</time>
      </trkpt>
      <trkpt lat="46.03626" lon="4.76102">
        <ele>192</ele>
        <time>2018-03-24T11:19:52Z</time>
      </trkpt>
      <trkpt lat="46.03625" lon="4.76091">
        <ele>192</ele>
        <time>2018-03-24T11:19:53Z</time>
      </trkpt>
      <trkpt lat="46.03623" lon="4.76082">
        <ele>191</ele>
        <time>2018-03-24T11:19:54Z</time>
      </trkpt>
      <trkpt lat="46.03622" lon="4.76073">
        <ele>191</ele>
        <time>2018-03-24T11:19:55Z</time>
      </trkpt>
      <trkpt lat="46.03619" lon="4.76065">
        <ele>191</ele>
        <time>2018-03-24T11:19:56Z</time>
      </trkpt>
      <trkpt lat="46.03617" lon="4.76055">
        <ele>191</ele>
        <time>2018-03-24T11:19:57Z</time>
      </trkpt>
      <trkpt lat="46.03615" lon="4.76047">
        <ele>191</ele>
        <time>2018-03-24T11:19:58Z</time>
      </trkpt>
      <trkpt lat="46.03613" lon="4.76038">
        <ele>191</ele>
        <time>2018-03-24T11:19:59Z</time>
      </trkpt>
      <trkpt lat="46.0361" lon="4.76031">
        <ele>191</ele>
        <time>2018-03-24T11:20:00Z</time>
      </trkpt>
      <trkpt lat="46.03608" lon="4.76024">
        <ele>191</ele>
        <time>2018-03-24T11:20:01Z</time>
      </trkpt>
      <trkpt lat="46.03606" lon="4.76016">
        <ele>191</ele>
        <time>2018-03-24T11:20:02Z</time>
      </trkpt>
      <trkpt lat="46.03603" lon="4.76008">
        <ele>191</ele>
        <time>2018-03-24T11:20:03Z</time>
      </trkpt>
      <trkpt lat="46.036" lon="4.76">
        <ele>190</ele>
        <time>2018-03-24T11:20:04Z</time>
      </trkpt>
      <trkpt lat="46.03598" lon="4.75993">
        <ele>190</ele>
        <time>2018-03-24T11:20:05Z</time>
      </trkpt>
      <trkpt lat="46.03595" lon="4.75986">
        <ele>190</ele>
        <time>2018-03-24T11:20:06Z</time>
      </trkpt>
      <trkpt lat="46.03591" lon="4.75978">
        <ele>190</ele>
        <time>2018-03-24T11:20:07Z</time>
      </trkpt>
      <trkpt lat="46.03588" lon="4.75969">
        <ele>190</ele>
        <time>2018-03-24T11:20:08Z</time>
      </trkpt>
      <trkpt lat="46.03585" lon="4.7596">
        <ele>190</ele>
        <time>2018-03-24T11:20:09Z</time>
      </trkpt>
      <trkpt lat="46.03582" lon="4.75951">
        <ele>190</ele>
        <time>2018-03-24T11:20:10Z</time>
      </trkpt>
      <trkpt lat="46.03577" lon="4.75945">
        <ele>190</ele>
        <time>2018-03-24T11:20:11Z</time>
      </trkpt>
      <trkpt lat="46.03575" lon="4.75938">
        <ele>190</ele>
        <time>2018-03-24T11:20:12Z</time>
      </trkpt>
      <trkpt lat="46.03571" lon="4.75929">
        <ele>190</ele>
        <time>2018-03-24T11:20:13Z</time>
      </trkpt>
      <trkpt lat="46.03567" lon="4.75921">
        <ele>190</ele>
        <time>2018-03-24T11:20:14Z</time>
      </trkpt>
      <trkpt lat="46.03563" lon="4.75914">
        <ele>189</ele>
        <time>2018-03-24T11:20:15Z</time>
      </trkpt>
      <trkpt lat="46.0356" lon="4.75906">
        <ele>189</ele>
        <time>2018-03-24T11:20:16Z</time>
      </trkpt>
      <trkpt lat="46.03557" lon="4.75898">
        <ele>189</ele>
        <time>2018-03-24T11:20:17Z</time>
      </trkpt>
      <trkpt lat="46.03553" lon="4.7589">
        <ele>189</ele>
        <time>2018-03-24T11:20:18Z</time>
      </trkpt>
      <trkpt lat="46.03549" lon="4.75881">
        <ele>189</ele>
        <time>2018-03-24T11:20:19Z</time>
      </trkpt>
      <trkpt lat="46.03544" lon="4.75872">
        <ele>189</ele>
        <time>2018-03-24T11:20:20Z</time>
      </trkpt>
      <trkpt lat="46.0354" lon="4.75864">
        <ele>190</ele>
        <time>2018-03-24T11:20:21Z</time>
      </trkpt>
      <trkpt lat="46.03536" lon="4.75856">
        <ele>190</ele>
        <time>2018-03-24T11:20:22Z</time>
      </trkpt>
      <trkpt lat="46.03532" lon="4.75847">
        <ele>190</ele>
        <time>2018-03-24T11:20:23Z</time>
      </trkpt>
      <trkpt lat="46.03528" lon="4.75838">
        <ele>190</ele>
        <time>2018-03-24T11:20:24Z</time>
      </trkpt>
      <trkpt lat="46.03525" lon="4.7583">
        <ele>190</ele>
        <time>2018-03-24T11:20:25Z</time>
      </trkpt>
      <trkpt lat="46.03522" lon="4.75822">
        <ele>190</ele>
        <time>2018-03-24T11:20:26Z</time>
      </trkpt>
      <trkpt lat="46.03518" lon="4.75815">
        <ele>189</ele>
        <time>2018-03-24T11:20:27Z</time>
      </trkpt>
      <trkpt lat="46.03514" lon="4.75806">
        <ele>189</ele>
        <time>2018-03-24T11:20:28Z</time>
      </trkpt>
      <trkpt lat="46.0351" lon="4.75798">
        <ele>189</ele>
        <time>2018-03-24T11:20:29Z</time>
      </trkpt>
      <trkpt lat="46.03506" lon="4.75789">
        <ele>189</ele>
        <time>2018-03-24T11:20:30Z</time>
      </trkpt>
      <trkpt lat="46.03502" lon="4.7578">
        <ele>189</ele>
        <time>2018-03-24T11:20:31Z</time>
      </trkpt>
      <trkpt lat="46.03499" lon="4.75771">
        <ele>189</ele>
        <time>2018-03-24T11:20:32Z</time>
      </trkpt>
      <trkpt lat="46.03496" lon="4.75763">
        <ele>189</ele>
        <time>2018-03-24T11:20:33Z</time>
      </trkpt>
      <trkpt lat="46.03492" lon="4.75756">
        <ele>189</ele>
        <time>2018-03-24T11:20:34Z</time>
      </trkpt>
      <trkpt lat="46.03489" lon="4.75748">
        <ele>189</ele>
        <time>2018-03-24T11:20:35Z</time>
      </trkpt>
      <trkpt lat="46.03486" lon="4.75741">
        <ele>189</ele>
        <time>2018-03-24T11:20:36Z</time>
      </trkpt>
      <trkpt lat="46.03482" lon="4.75734">
        <ele>189</ele>
        <time>2018-03-24T11:20:37Z</time>
      </trkpt>
      <trkpt lat="46.0348" lon="4.75727">
        <ele>189</ele>
        <time>2018-03-24T11:20:38Z</time>
      </trkpt>
      <trkpt lat="46.03477" lon="4.7572">
        <ele>189</ele>
        <time>2018-03-24T11:20:39Z</time>
      </trkpt>
      <trkpt lat="46.03474" lon="4.75714">
        <ele>189</ele>
        <time>2018-03-24T11:20:40Z</time>
      </trkpt>
      <trkpt lat="46.03471" lon="4.75706">
        <ele>189</ele>
        <time>2018-03-24T11:20:41Z</time>
      </trkpt>
      <trkpt lat="46.03469" lon="4.75698">
        <ele>189</ele>
        <time>2018-03-24T11:20:42Z</time>
      </trkpt>
      <trkpt lat="46.03466" lon="4.75691">
        <ele>189</ele>
        <time>2018-03-24T11:20:43Z</time>
      </trkpt>
      <trkpt lat="46.03462" lon="4.75684">
        <ele>189</ele>
        <time>2018-03-24T11:20:44Z</time>
      </trkpt>
      <trkpt lat="46.03458" lon="4.75676">
        <ele>189</ele>
        <time>2018-03-24T11:20:45Z</time>
      </trkpt>
      <trkpt lat="46.03455" lon="4.75669">
        <ele>189</ele>
        <time>2018-03-24T11:20:46Z</time>
      </trkpt>
      <trkpt lat="46.03453" lon="4.75662">
        <ele>188</ele>
        <time>2018-03-24T11:20:47Z</time>
      </trkpt>
      <trkpt lat="46.0345" lon="4.75655">
        <ele>188</ele>
        <time>2018-03-24T11:20:48Z</time>
      </trkpt>
      <trkpt lat="46.03447" lon="4.75648">
        <ele>188</ele>
        <time>2018-03-24T11:20:49Z</time>
      </trkpt>
      <trkpt lat="46.03445" lon="4.75642">
        <ele>188</ele>
        <time>2018-03-24T11:20:50Z</time>
      </trkpt>
      <trkpt lat="46.03443" lon="4.75636">
        <ele>188</ele>
        <time>2018-03-24T11:20:51Z</time>
      </trkpt>
      <trkpt lat="46.03438" lon="4.75626">
        <ele>188</ele>
        <time>2018-03-24T11:20:56Z</time>
      </trkpt>
      <trkpt lat="46.03437" lon="4.75624">
        <ele>188</ele>
        <time>2018-03-24T11:20:57Z</time>
      </trkpt>
      <trkpt lat="46.03431" lon="4.75619">
        <ele>188</ele>
        <time>2018-03-24T11:21:00Z</time>
      </trkpt>
      <trkpt lat="46.03424" lon="4.75615">
        <ele>188</ele>
        <time>2018-03-24T11:21:01Z</time>
      </trkpt>
      <trkpt lat="46.03416" lon="4.75614">
        <ele>188</ele>
        <time>2018-03-24T11:21:03Z</time>
      </trkpt>
      <trkpt lat="46.03412" lon="4.75614">
        <ele>188</ele>
        <time>2018-03-24T11:21:04Z</time>
      </trkpt>
      <trkpt lat="46.03406" lon="4.7562">
        <ele>188</ele>
        <time>2018-03-24T11:21:06Z</time>
      </trkpt>
      <trkpt lat="46.03401" lon="4.75621">
        <ele>188</ele>
        <time>2018-03-24T11:21:07Z</time>
      </trkpt>
      <trkpt lat="46.03397" lon="4.75623">
        <ele>188</ele>
        <time>2018-03-24T11:21:08Z</time>
      </trkpt>
      <trkpt lat="46.03392" lon="4.75625">
        <ele>188</ele>
        <time>2018-03-24T11:21:09Z</time>
      </trkpt>
      <trkpt lat="46.03387" lon="4.75626">
        <ele>188</ele>
        <time>2018-03-24T11:21:10Z</time>
      </trkpt>
      <trkpt lat="46.03381" lon="4.75628">
        <ele>188</ele>
        <time>2018-03-24T11:21:11Z</time>
      </trkpt>
      <trkpt lat="46.03376" lon="4.75628">
        <ele>188</ele>
        <time>2018-03-24T11:21:12Z</time>
      </trkpt>
      <trkpt lat="46.03371" lon="4.75629">
        <ele>188</ele>
        <time>2018-03-24T11:21:13Z</time>
      </trkpt>
      <trkpt lat="46.03365" lon="4.7563">
        <ele>188</ele>
        <time>2018-03-24T11:21:14Z</time>
      </trkpt>
      <trkpt lat="46.03359" lon="4.75629">
        <ele>188</ele>
        <time>2018-03-24T11:21:15Z</time>
      </trkpt>
      <trkpt lat="46.03354" lon="4.75629">
        <ele>188</ele>
        <time>2018-03-24T11:21:16Z</time>
      </trkpt>
      <trkpt lat="46.03348" lon="4.75629">
        <ele>188</ele>
        <time>2018-03-24T11:21:17Z</time>
      </trkpt>
      <trkpt lat="46.03342" lon="4.75629">
        <ele>188</ele>
        <time>2018-03-24T11:21:18Z</time>
      </trkpt>
      <trkpt lat="46.03337" lon="4.7563">
        <ele>188</ele>
        <time>2018-03-24T11:21:19Z</time>
      </trkpt>
      <trkpt lat="46.03331" lon="4.7563">
        <ele>189</ele>
        <time>2018-03-24T11:21:20Z</time>
      </trkpt>
      <trkpt lat="46.03325" lon="4.7563">
        <ele>189</ele>
        <time>2018-03-24T11:21:21Z</time>
      </trkpt>
      <trkpt lat="46.03319" lon="4.7563">
        <ele>189</ele>
        <time>2018-03-24T11:21:22Z</time>
      </trkpt>
      <trkpt lat="46.03313" lon="4.7563">
        <ele>189</ele>
        <time>2018-03-24T11:21:23Z</time>
      </trkpt>
      <trkpt lat="46.03307" lon="4.7563">
        <ele>189</ele>
        <time>2018-03-24T11:21:24Z</time>
      </trkpt>
      <trkpt lat="46.03302" lon="4.7563">
        <ele>189</ele>
        <time>2018-03-24T11:21:25Z</time>
      </trkpt>
      <trkpt lat="46.03296" lon="4.75631">
        <ele>189</ele>
        <time>2018-03-24T11:21:26Z</time>
      </trkpt>
      <trkpt lat="46.0329" lon="4.75635">
        <ele>190</ele>
        <time>2018-03-24T11:21:27Z</time>
      </trkpt>
      <trkpt lat="46.03285" lon="4.7564">
        <ele>190</ele>
        <time>2018-03-24T11:21:28Z</time>
      </trkpt>
      <trkpt lat="46.0328" lon="4.75646">
        <ele>190</ele>
        <time>2018-03-24T11:21:29Z</time>
      </trkpt>
      <trkpt lat="46.03275" lon="4.7565">
        <ele>191</ele>
        <time>2018-03-24T11:21:30Z</time>
      </trkpt>
      <trkpt lat="46.03269" lon="4.75654">
        <ele>191</ele>
        <time>2018-03-24T11:21:31Z</time>
      </trkpt>
      <trkpt lat="46.03264" lon="4.75657">
        <ele>192</ele>
        <time>2018-03-24T11:21:32Z</time>
      </trkpt>
      <trkpt lat="46.03258" lon="4.75659">
        <ele>193</ele>
        <time>2018-03-24T11:21:33Z</time>
      </trkpt>
      <trkpt lat="46.03251" lon="4.7566">
        <ele>194</ele>
        <time>2018-03-24T11:21:34Z</time>
      </trkpt>
      <trkpt lat="46.03245" lon="4.75662">
        <ele>193</ele>
        <time>2018-03-24T11:21:35Z</time>
      </trkpt>
      <trkpt lat="46.03239" lon="4.75662">
        <ele>193</ele>
        <time>2018-03-24T11:21:36Z</time>
      </trkpt>
      <trkpt lat="46.03233" lon="4.75663">
        <ele>192</ele>
        <time>2018-03-24T11:21:37Z</time>
      </trkpt>
      <trkpt lat="46.03229" lon="4.75665">
        <ele>191</ele>
        <time>2018-03-24T11:21:38Z</time>
      </trkpt>
      <trkpt lat="46.03223" lon="4.75664">
        <ele>191</ele>
        <time>2018-03-24T11:21:39Z</time>
      </trkpt>
      <trkpt lat="46.03218" lon="4.75665">
        <ele>190</ele>
        <time>2018-03-24T11:21:40Z</time>
      </trkpt>
      <trkpt lat="46.03212" lon="4.75667">
        <ele>193</ele>
        <time>2018-03-24T11:21:41Z</time>
      </trkpt>
      <trkpt lat="46.03205" lon="4.75668">
        <ele>193</ele>
        <time>2018-03-24T11:21:42Z</time>
      </trkpt>
      <trkpt lat="46.032" lon="4.75668">
        <ele>192</ele>
        <time>2018-03-24T11:21:43Z</time>
      </trkpt>
      <trkpt lat="46.03194" lon="4.75669">
        <ele>192</ele>
        <time>2018-03-24T11:21:44Z</time>
      </trkpt>
      <trkpt lat="46.03187" lon="4.7567">
        <ele>191</ele>
        <time>2018-03-24T11:21:45Z</time>
      </trkpt>
      <trkpt lat="46.03181" lon="4.75669">
        <ele>190</ele>
        <time>2018-03-24T11:21:46Z</time>
      </trkpt>
      <trkpt lat="46.03174" lon="4.7567">
        <ele>190</ele>
        <time>2018-03-24T11:21:47Z</time>
      </trkpt>
      <trkpt lat="46.03168" lon="4.75671">
        <ele>189</ele>
        <time>2018-03-24T11:21:48Z</time>
      </trkpt>
      <trkpt lat="46.03162" lon="4.75672">
        <ele>188</ele>
        <time>2018-03-24T11:21:49Z</time>
      </trkpt>
      <trkpt lat="46.03156" lon="4.75671">
        <ele>188</ele>
        <time>2018-03-24T11:21:50Z</time>
      </trkpt>
      <trkpt lat="46.03149" lon="4.75671">
        <ele>187</ele>
        <time>2018-03-24T11:21:51Z</time>
      </trkpt>
      <trkpt lat="46.03143" lon="4.75672">
        <ele>187</ele>
        <time>2018-03-24T11:21:52Z</time>
      </trkpt>
      <trkpt lat="46.03137" lon="4.75673">
        <ele>187</ele>
        <time>2018-03-24T11:21:53Z</time>
      </trkpt>
      <trkpt lat="46.0313" lon="4.75673">
        <ele>187</ele>
        <time>2018-03-24T11:21:54Z</time>
      </trkpt>
      <trkpt lat="46.03123" lon="4.75673">
        <ele>186</ele>
        <time>2018-03-24T11:21:55Z</time>
      </trkpt>
      <trkpt lat="46.03118" lon="4.75672">
        <ele>186</ele>
        <time>2018-03-24T11:21:56Z</time>
      </trkpt>
      <trkpt lat="46.03111" lon="4.75674">
        <ele>186</ele>
        <time>2018-03-24T11:21:57Z</time>
      </trkpt>
      <trkpt lat="46.03104" lon="4.75675">
        <ele>186</ele>
        <time>2018-03-24T11:21:58Z</time>
      </trkpt>
      <trkpt lat="46.03098" lon="4.75676">
        <ele>185</ele>
        <time>2018-03-24T11:21:59Z</time>
      </trkpt>
      <trkpt lat="46.03091" lon="4.75675">
        <ele>185</ele>
        <time>2018-03-24T11:22:00Z</time>
      </trkpt>
      <trkpt lat="46.03085" lon="4.75677">
        <ele>185</ele>
        <time>2018-03-24T11:22:01Z</time>
      </trkpt>
      <trkpt lat="46.03078" lon="4.75677">
        <ele>184</ele>
        <time>2018-03-24T11:22:02Z</time>
      </trkpt>
      <trkpt lat="46.0307" lon="4.75679">
        <ele>184</ele>
        <time>2018-03-24T11:22:03Z</time>
      </trkpt>
      <trkpt lat="46.03062" lon="4.7568">
        <ele>184</ele>
        <time>2018-03-24T11:22:04Z</time>
      </trkpt>
      <trkpt lat="46.03055" lon="4.75682">
        <ele>184</ele>
        <time>2018-03-24T11:22:05Z</time>
      </trkpt>
      <trkpt lat="46.03048" lon="4.75683">
        <ele>184</ele>
        <time>2018-03-24T11:22:06Z</time>
      </trkpt>
      <trkpt lat="46.03041" lon="4.75686">
        <ele>184</ele>
        <time>2018-03-24T11:22:07Z</time>
      </trkpt>
      <trkpt lat="46.03034" lon="4.75688">
        <ele>183</ele>
        <time>2018-03-24T11:22:08Z</time>
      </trkpt>
      <trkpt lat="46.03027" lon="4.75691">
        <ele>183</ele>
        <time>2018-03-24T11:22:09Z</time>
      </trkpt>
      <trkpt lat="46.03021" lon="4.75694">
        <ele>183</ele>
        <time>2018-03-24T11:22:10Z</time>
      </trkpt>
      <trkpt lat="46.03014" lon="4.75696">
        <ele>183</ele>
        <time>2018-03-24T11:22:11Z</time>
      </trkpt>
      <trkpt lat="46.03008" lon="4.75698">
        <ele>183</ele>
        <time>2018-03-24T11:22:12Z</time>
      </trkpt>
      <trkpt lat="46.03002" lon="4.757">
        <ele>183</ele>
        <time>2018-03-24T11:22:13Z</time>
      </trkpt>
      <trkpt lat="46.02996" lon="4.75703">
        <ele>183</ele>
        <time>2018-03-24T11:22:14Z</time>
      </trkpt>
      <trkpt lat="46.0299" lon="4.75705">
        <ele>183</ele>
        <time>2018-03-24T11:22:15Z</time>
      </trkpt>
      <trkpt lat="46.02984" lon="4.75707">
        <ele>183</ele>
        <time>2018-03-24T11:22:16Z</time>
      </trkpt>
      <trkpt lat="46.02978" lon="4.75709">
        <ele>183</ele>
        <time>2018-03-24T11:22:17Z</time>
      </trkpt>
      <trkpt lat="46.02972" lon="4.75712">
        <ele>183</ele>
        <time>2018-03-24T11:22:18Z</time>
      </trkpt>
      <trkpt lat="46.02966" lon="4.75713">
        <ele>183</ele>
        <time>2018-03-24T11:22:19Z</time>
      </trkpt>
      <trkpt lat="46.02959" lon="4.75714">
        <ele>183</ele>
        <time>2018-03-24T11:22:20Z</time>
      </trkpt>
      <trkpt lat="46.02953" lon="4.75716">
        <ele>183</ele>
        <time>2018-03-24T11:22:21Z</time>
      </trkpt>
      <trkpt lat="46.02947" lon="4.75718">
        <ele>183</ele>
        <time>2018-03-24T11:22:22Z</time>
      </trkpt>
      <trkpt lat="46.02941" lon="4.75719">
        <ele>183</ele>
        <time>2018-03-24T11:22:23Z</time>
      </trkpt>
      <trkpt lat="46.02935" lon="4.7572">
        <ele>183</ele>
        <time>2018-03-24T11:22:24Z</time>
      </trkpt>
      <trkpt lat="46.02929" lon="4.75722">
        <ele>183</ele>
        <time>2018-03-24T11:22:25Z</time>
      </trkpt>
      <trkpt lat="46.02923" lon="4.75722">
        <ele>183</ele>
        <time>2018-03-24T11:22:26Z</time>
      </trkpt>
      <trkpt lat="46.02917" lon="4.75722">
        <ele>183</ele>
        <time>2018-03-24T11:22:27Z</time>
      </trkpt>
      <trkpt lat="46.02912" lon="4.75723">
        <ele>183</ele>
        <time>2018-03-24T11:22:28Z</time>
      </trkpt>
      <trkpt lat="46.02906" lon="4.75724">
        <ele>183</ele>
        <time>2018-03-24T11:22:29Z</time>
      </trkpt>
      <trkpt lat="46.02899" lon="4.75725">
        <ele>183</ele>
        <time>2018-03-24T11:22:30Z</time>
      </trkpt>
      <trkpt lat="46.02892" lon="4.75725">
        <ele>183</ele>
        <time>2018-03-24T11:22:31Z</time>
      </trkpt>
      <trkpt lat="46.02885" lon="4.75727">
        <ele>183</ele>
        <time>2018-03-24T11:22:32Z</time>
      </trkpt>
      <trkpt lat="46.02878" lon="4.75727">
        <ele>183</ele>
        <time>2018-03-24T11:22:33Z</time>
      </trkpt>
      <trkpt lat="46.0287" lon="4.75727">
        <ele>183</ele>
        <time>2018-03-24T11:22:34Z</time>
      </trkpt>
      <trkpt lat="46.02863" lon="4.75727">
        <ele>184</ele>
        <time>2018-03-24T11:22:35Z</time>
      </trkpt>
      <trkpt lat="46.02856" lon="4.75727">
        <ele>184</ele>
        <time>2018-03-24T11:22:36Z</time>
      </trkpt>
      <trkpt lat="46.02849" lon="4.75727">
        <ele>184</ele>
        <time>2018-03-24T11:22:37Z</time>
      </trkpt>
      <trkpt lat="46.02842" lon="4.75726">
        <ele>184</ele>
        <time>2018-03-24T11:22:38Z</time>
      </trkpt>
      <trkpt lat="46.02834" lon="4.75726">
        <ele>184</ele>
        <time>2018-03-24T11:22:39Z</time>
      </trkpt>
      <trkpt lat="46.02828" lon="4.75725">
        <ele>184</ele>
        <time>2018-03-24T11:22:40Z</time>
      </trkpt>
      <trkpt lat="46.02821" lon="4.75724">
        <ele>184</ele>
        <time>2018-03-24T11:22:41Z</time>
      </trkpt>
      <trkpt lat="46.02815" lon="4.75722">
        <ele>184</ele>
        <time>2018-03-24T11:22:42Z</time>
      </trkpt>
      <trkpt lat="46.02807" lon="4.75721">
        <ele>183</ele>
        <time>2018-03-24T11:22:43Z</time>
      </trkpt>
      <trkpt lat="46.02801" lon="4.75718">
        <ele>183</ele>
        <time>2018-03-24T11:22:44Z</time>
      </trkpt>
      <trkpt lat="46.02796" lon="4.75717">
        <ele>183</ele>
        <time>2018-03-24T11:22:45Z</time>
      </trkpt>
      <trkpt lat="46.0279" lon="4.75716">
        <ele>183</ele>
        <time>2018-03-24T11:22:46Z</time>
      </trkpt>
      <trkpt lat="46.02784" lon="4.75716">
        <ele>183</ele>
        <time>2018-03-24T11:22:47Z</time>
      </trkpt>
      <trkpt lat="46.02778" lon="4.75715">
        <ele>183</ele>
        <time>2018-03-24T11:22:48Z</time>
      </trkpt>
      <trkpt lat="46.02772" lon="4.75714">
        <ele>183</ele>
        <time>2018-03-24T11:22:49Z</time>
      </trkpt>
      <trkpt lat="46.02765" lon="4.75714">
        <ele>183</ele>
        <time>2018-03-24T11:22:50Z</time>
      </trkpt>
      <trkpt lat="46.0276" lon="4.75714">
        <ele>183</ele>
        <time>2018-03-24T11:22:51Z</time>
      </trkpt>
      <trkpt lat="46.02751" lon="4.75715">
        <ele>183</ele>
        <time>2018-03-24T11:22:52Z</time>
      </trkpt>
      <trkpt lat="46.02745" lon="4.7572">
        <ele>183</ele>
        <time>2018-03-24T11:22:53Z</time>
      </trkpt>
      <trkpt lat="46.0274" lon="4.75721">
        <ele>183</ele>
        <time>2018-03-24T11:22:54Z</time>
      </trkpt>
      <trkpt lat="46.02734" lon="4.75723">
        <ele>183</ele>
        <time>2018-03-24T11:22:55Z</time>
      </trkpt>
      <trkpt lat="46.02728" lon="4.75725">
        <ele>182</ele>
        <time>2018-03-24T11:22:56Z</time>
      </trkpt>
      <trkpt lat="46.02723" lon="4.75727">
        <ele>182</ele>
        <time>2018-03-24T11:22:57Z</time>
      </trkpt>
      <trkpt lat="46.02718" lon="4.75729">
        <ele>182</ele>
        <time>2018-03-24T11:22:58Z</time>
      </trkpt>
      <trkpt lat="46.02712" lon="4.75732">
        <ele>182</ele>
        <time>2018-03-24T11:22:59Z</time>
      </trkpt>
      <trkpt lat="46.02707" lon="4.75734">
        <ele>182</ele>
        <time>2018-03-24T11:23:00Z</time>
      </trkpt>
      <trkpt lat="46.02701" lon="4.75737">
        <ele>182</ele>
        <time>2018-03-24T11:23:01Z</time>
      </trkpt>
      <trkpt lat="46.02694" lon="4.75739">
        <ele>182</ele>
        <time>2018-03-24T11:23:02Z</time>
      </trkpt>
      <trkpt lat="46.02689" lon="4.75739">
        <ele>182</ele>
        <time>2018-03-24T11:23:03Z</time>
      </trkpt>
      <trkpt lat="46.02684" lon="4.7574">
        <ele>181</ele>
        <time>2018-03-24T11:23:04Z</time>
      </trkpt>
      <trkpt lat="46.02679" lon="4.75739">
        <ele>181</ele>
        <time>2018-03-24T11:23:05Z</time>
      </trkpt>
      <trkpt lat="46.02674" lon="4.75741">
        <ele>181</ele>
        <time>2018-03-24T11:23:06Z</time>
      </trkpt>
      <trkpt lat="46.0267" lon="4.75742">
        <ele>181</ele>
        <time>2018-03-24T11:23:07Z</time>
      </trkpt>
      <trkpt lat="46.02665" lon="4.75743">
        <ele>181</ele>
        <time>2018-03-24T11:23:08Z</time>
      </trkpt>
      <trkpt lat="46.0266" lon="4.75743">
        <ele>181</ele>
        <time>2018-03-24T11:23:09Z</time>
      </trkpt>
      <trkpt lat="46.02652" lon="4.7574">
        <ele>182</ele>
        <time>2018-03-24T11:23:11Z</time>
      </trkpt>
      <trkpt lat="46.02647" lon="4.75741">
        <ele>182</ele>
        <time>2018-03-24T11:23:12Z</time>
      </trkpt>
      <trkpt lat="46.02639" lon="4.75742">
        <ele>182</ele>
        <time>2018-03-24T11:23:14Z</time>
      </trkpt>
      <trkpt lat="46.02637" lon="4.75742">
        <ele>182</ele>
        <time>2018-03-24T11:23:15Z</time>
      </trkpt>
      <trkpt lat="46.0263" lon="4.75743">
        <ele>182</ele>
        <time>2018-03-24T11:23:18Z</time>
      </trkpt>
      <trkpt lat="46.02628" lon="4.75742">
        <ele>182</ele>
        <time>2018-03-24T11:23:19Z</time>
      </trkpt>
      <trkpt lat="46.0262" lon="4.75742">
        <ele>182</ele>
        <time>2018-03-24T11:23:22Z</time>
      </trkpt>
      <trkpt lat="46.02618" lon="4.75741">
        <ele>182</ele>
        <time>2018-03-24T11:23:23Z</time>
      </trkpt>
      <trkpt lat="46.0261" lon="4.75741">
        <ele>182</ele>
        <time>2018-03-24T11:23:26Z</time>
      </trkpt>
      <trkpt lat="46.02607" lon="4.75741">
        <ele>183</ele>
        <time>2018-03-24T11:23:27Z</time>
      </trkpt>
      <trkpt lat="46.026" lon="4.75741">
        <ele>183</ele>
        <time>2018-03-24T11:23:30Z</time>
      </trkpt>
      <trkpt lat="46.02597" lon="4.75741">
        <ele>183</ele>
        <time>2018-03-24T11:23:31Z</time>
      </trkpt>
      <trkpt lat="46.0259" lon="4.75741">
        <ele>183</ele>
        <time>2018-03-24T11:23:34Z</time>
      </trkpt>
      <trkpt lat="46.02587" lon="4.7574">
        <ele>183</ele>
        <time>2018-03-24T11:23:35Z</time>
      </trkpt>
      <trkpt lat="46.0258" lon="4.7574">
        <ele>184</ele>
        <time>2018-03-24T11:23:38Z</time>
      </trkpt>
      <trkpt lat="46.02577" lon="4.7574">
        <ele>184</ele>
        <time>2018-03-24T11:23:39Z</time>
      </trkpt>
      <trkpt lat="46.0257" lon="4.7574">
        <ele>185</ele>
        <time>2018-03-24T11:23:42Z</time>
      </trkpt>
      <trkpt lat="46.02567" lon="4.7574">
        <ele>185</ele>
        <time>2018-03-24T11:23:43Z</time>
      </trkpt>
      <trkpt lat="46.0256" lon="4.7574">
        <ele>185</ele>
        <time>2018-03-24T11:23:46Z</time>
      </trkpt>
      <trkpt lat="46.02558" lon="4.7574">
        <ele>185</ele>
        <time>2018-03-24T11:23:47Z</time>
      </trkpt>
      <trkpt lat="46.0255" lon="4.7574">
        <ele>186</ele>
        <time>2018-03-24T11:23:50Z</time>
      </trkpt>
      <trkpt lat="46.02548" lon="4.7574">
        <ele>186</ele>
        <time>2018-03-24T11:23:51Z</time>
      </trkpt>
      <trkpt lat="46.02541" lon="4.7574">
        <ele>186</ele>
        <time>2018-03-24T11:23:54Z</time>
      </trkpt>
      <trkpt lat="46.02538" lon="4.7574">
        <ele>187</ele>
        <time>2018-03-24T11:23:55Z</time>
      </trkpt>
      <trkpt lat="46.02531" lon="4.7574">
        <ele>187</ele>
        <time>2018-03-24T11:23:58Z</time>
      </trkpt>
      <trkpt lat="46.02528" lon="4.7574">
        <ele>187</ele>
        <time>2018-03-24T11:23:59Z</time>
      </trkpt>
      <trkpt lat="46.02521" lon="4.75741">
        <ele>188</ele>
        <time>2018-03-24T11:24:02Z</time>
      </trkpt>
      <trkpt lat="46.02518" lon="4.75742">
        <ele>188</ele>
        <time>2018-03-24T11:24:03Z</time>
      </trkpt>
      <trkpt lat="46.02511" lon="4.75745">
        <ele>188</ele>
        <time>2018-03-24T11:24:06Z</time>
      </trkpt>
      <trkpt lat="46.02509" lon="4.75746">
        <ele>189</ele>
        <time>2018-03-24T11:24:07Z</time>
      </trkpt>
      <trkpt lat="46.02501" lon="4.75749">
        <ele>190</ele>
        <time>2018-03-24T11:24:10Z</time>
      </trkpt>
      <trkpt lat="46.02499" lon="4.75751">
        <ele>190</ele>
        <time>2018-03-24T11:24:11Z</time>
      </trkpt>
      <trkpt lat="46.02491" lon="4.75755">
        <ele>190</ele>
        <time>2018-03-24T11:24:14Z</time>
      </trkpt>
      <trkpt lat="46.02488" lon="4.75756">
        <ele>190</ele>
        <time>2018-03-24T11:24:15Z</time>
      </trkpt>
      <trkpt lat="46.0248" lon="4.75761">
        <ele>191</ele>
        <time>2018-03-24T11:24:18Z</time>
      </trkpt>
      <trkpt lat="46.02478" lon="4.75762">
        <ele>191</ele>
        <time>2018-03-24T11:24:19Z</time>
      </trkpt>
      <trkpt lat="46.0247" lon="4.75765">
        <ele>191</ele>
        <time>2018-03-24T11:24:22Z</time>
      </trkpt>
      <trkpt lat="46.02468" lon="4.75766">
        <ele>191</ele>
        <time>2018-03-24T11:24:23Z</time>
      </trkpt>
      <trkpt lat="46.02461" lon="4.7577">
        <ele>191</ele>
        <time>2018-03-24T11:24:26Z</time>
      </trkpt>
      <trkpt lat="46.02458" lon="4.75771">
        <ele>191</ele>
        <time>2018-03-24T11:24:27Z</time>
      </trkpt>
      <trkpt lat="46.02451" lon="4.75775">
        <ele>191</ele>
        <time>2018-03-24T11:24:31Z</time>
      </trkpt>
      <trkpt lat="46.02449" lon="4.75776">
        <ele>191</ele>
        <time>2018-03-24T11:24:32Z</time>
      </trkpt>
      <trkpt lat="46.0244" lon="4.75779">
        <ele>191</ele>
        <time>2018-03-24T11:24:36Z</time>
      </trkpt>
      <trkpt lat="46.02438" lon="4.75781">
        <ele>191</ele>
        <time>2018-03-24T11:24:37Z</time>
      </trkpt>
      <trkpt lat="46.02431" lon="4.75785">
        <ele>191</ele>
        <time>2018-03-24T11:24:40Z</time>
      </trkpt>
      <trkpt lat="46.02428" lon="4.75787">
        <ele>191</ele>
        <time>2018-03-24T11:24:41Z</time>
      </trkpt>
      <trkpt lat="46.0242" lon="4.75791">
        <ele>192</ele>
        <time>2018-03-24T11:24:44Z</time>
      </trkpt>
      <trkpt lat="46.02417" lon="4.75792">
        <ele>192</ele>
        <time>2018-03-24T11:24:45Z</time>
      </trkpt>
      <trkpt lat="46.02409" lon="4.75797">
        <ele>192</ele>
        <time>2018-03-24T11:24:48Z</time>
      </trkpt>
      <trkpt lat="46.02407" lon="4.75799">
        <ele>192</ele>
        <time>2018-03-24T11:24:49Z</time>
      </trkpt>
      <trkpt lat="46.02402" lon="4.75803">
        <ele>192</ele>
        <time>2018-03-24T11:24:51Z</time>
      </trkpt>
      <trkpt lat="46.02399" lon="4.75805">
        <ele>192</ele>
        <time>2018-03-24T11:24:52Z</time>
      </trkpt>
      <trkpt lat="46.02393" lon="4.7581">
        <ele>192</ele>
        <time>2018-03-24T11:24:54Z</time>
      </trkpt>
      <trkpt lat="46.0239" lon="4.75812">
        <ele>192</ele>
        <time>2018-03-24T11:24:55Z</time>
      </trkpt>
      <trkpt lat="46.02384" lon="4.75817">
        <ele>192</ele>
        <time>2018-03-24T11:24:57Z</time>
      </trkpt>
      <trkpt lat="46.02382" lon="4.75819">
        <ele>192</ele>
        <time>2018-03-24T11:24:58Z</time>
      </trkpt>
      <trkpt lat="46.02376" lon="4.75825">
        <ele>192</ele>
        <time>2018-03-24T11:25:00Z</time>
      </trkpt>
      <trkpt lat="46.02373" lon="4.75827">
        <ele>192</ele>
        <time>2018-03-24T11:25:01Z</time>
      </trkpt>
      <trkpt lat="46.02365" lon="4.75834">
        <ele>193</ele>
        <time>2018-03-24T11:25:02Z</time>
      </trkpt>
      <trkpt lat="46.02362" lon="4.75837">
        <ele>193</ele>
        <time>2018-03-24T11:25:03Z</time>
      </trkpt>
      <trkpt lat="46.02355" lon="4.75843">
        <ele>193</ele>
        <time>2018-03-24T11:25:05Z</time>
      </trkpt>
      <trkpt lat="46.02351" lon="4.75847">
        <ele>193</ele>
        <time>2018-03-24T11:25:06Z</time>
      </trkpt>
      <trkpt lat="46.02344" lon="4.75853">
        <ele>193</ele>
        <time>2018-03-24T11:25:08Z</time>
      </trkpt>
      <trkpt lat="46.02341" lon="4.75856">
        <ele>193</ele>
        <time>2018-03-24T11:25:09Z</time>
      </trkpt>
      <trkpt lat="46.02337" lon="4.75859">
        <ele>193</ele>
        <time>2018-03-24T11:25:10Z</time>
      </trkpt>
      <trkpt lat="46.02331" lon="4.75863">
        <ele>193</ele>
        <time>2018-03-24T11:25:11Z</time>
      </trkpt>
      <trkpt lat="46.02324" lon="4.7587">
        <ele>193</ele>
        <time>2018-03-24T11:25:13Z</time>
      </trkpt>
      <trkpt lat="46.0232" lon="4.75873">
        <ele>193</ele>
        <time>2018-03-24T11:25:14Z</time>
      </trkpt>
      <trkpt lat="46.02312" lon="4.75879">
        <ele>193</ele>
        <time>2018-03-24T11:25:16Z</time>
      </trkpt>
      <trkpt lat="46.02309" lon="4.75883">
        <ele>193</ele>
        <time>2018-03-24T11:25:17Z</time>
      </trkpt>
      <trkpt lat="46.02305" lon="4.75887">
        <ele>193</ele>
        <time>2018-03-24T11:25:18Z</time>
      </trkpt>
      <trkpt lat="46.02301" lon="4.7589">
        <ele>193</ele>
        <time>2018-03-24T11:25:19Z</time>
      </trkpt>
      <trkpt lat="46.02293" lon="4.75896">
        <ele>193</ele>
        <time>2018-03-24T11:25:21Z</time>
      </trkpt>
      <trkpt lat="46.02289" lon="4.759">
        <ele>193</ele>
        <time>2018-03-24T11:25:22Z</time>
      </trkpt>
      <trkpt lat="46.02282" lon="4.75907">
        <ele>193</ele>
        <time>2018-03-24T11:25:24Z</time>
      </trkpt>
      <trkpt lat="46.02278" lon="4.75911">
        <ele>193</ele>
        <time>2018-03-24T11:25:25Z</time>
      </trkpt>
      <trkpt lat="46.02274" lon="4.75914">
        <ele>193</ele>
        <time>2018-03-24T11:25:26Z</time>
      </trkpt>
      <trkpt lat="46.02269" lon="4.75918">
        <ele>193</ele>
        <time>2018-03-24T11:25:27Z</time>
      </trkpt>
      <trkpt lat="46.02264" lon="4.75921">
        <ele>193</ele>
        <time>2018-03-24T11:25:28Z</time>
      </trkpt>
      <trkpt lat="46.0226" lon="4.75925">
        <ele>193</ele>
        <time>2018-03-24T11:25:29Z</time>
      </trkpt>
      <trkpt lat="46.02256" lon="4.75928">
        <ele>193</ele>
        <time>2018-03-24T11:25:30Z</time>
      </trkpt>
      <trkpt lat="46.02251" lon="4.75932">
        <ele>193</ele>
        <time>2018-03-24T11:25:31Z</time>
      </trkpt>
      <trkpt lat="46.02246" lon="4.75936">
        <ele>193</ele>
        <time>2018-03-24T11:25:32Z</time>
      </trkpt>
      <trkpt lat="46.02241" lon="4.7594">
        <ele>193</ele>
        <time>2018-03-24T11:25:33Z</time>
      </trkpt>
      <trkpt lat="46.02237" lon="4.75945">
        <ele>193</ele>
        <time>2018-03-24T11:25:34Z</time>
      </trkpt>
      <trkpt lat="46.02233" lon="4.75949">
        <ele>193</ele>
        <time>2018-03-24T11:25:35Z</time>
      </trkpt>
      <trkpt lat="46.02227" lon="4.75954">
        <ele>193</ele>
        <time>2018-03-24T11:25:36Z</time>
      </trkpt>
      <trkpt lat="46.02222" lon="4.75959">
        <ele>193</ele>
        <time>2018-03-24T11:25:37Z</time>
      </trkpt>
      <trkpt lat="46.02215" lon="4.75963">
        <ele>192</ele>
        <time>2018-03-24T11:25:38Z</time>
      </trkpt>
      <trkpt lat="46.02209" lon="4.75968">
        <ele>192</ele>
        <time>2018-03-24T11:25:39Z</time>
      </trkpt>
      <trkpt lat="46.02203" lon="4.75973">
        <ele>192</ele>
        <time>2018-03-24T11:25:40Z</time>
      </trkpt>
      <trkpt lat="46.02199" lon="4.75976">
        <ele>192</ele>
        <time>2018-03-24T11:25:41Z</time>
      </trkpt>
      <trkpt lat="46.02194" lon="4.7598">
        <ele>192</ele>
        <time>2018-03-24T11:25:42Z</time>
      </trkpt>
      <trkpt lat="46.02189" lon="4.75984">
        <ele>192</ele>
        <time>2018-03-24T11:25:43Z</time>
      </trkpt>
      <trkpt lat="46.02184" lon="4.75989">
        <ele>192</ele>
        <time>2018-03-24T11:25:44Z</time>
      </trkpt>
      <trkpt lat="46.0218" lon="4.75993">
        <ele>192</ele>
        <time>2018-03-24T11:25:45Z</time>
      </trkpt>
      <trkpt lat="46.02175" lon="4.75998">
        <ele>192</ele>
        <time>2018-03-24T11:25:46Z</time>
      </trkpt>
      <trkpt lat="46.02171" lon="4.76002">
        <ele>192</ele>
        <time>2018-03-24T11:25:47Z</time>
      </trkpt>
      <trkpt lat="46.02167" lon="4.76007">
        <ele>192</ele>
        <time>2018-03-24T11:25:48Z</time>
      </trkpt>
      <trkpt lat="46.02162" lon="4.7601">
        <ele>193</ele>
        <time>2018-03-24T11:25:49Z</time>
      </trkpt>
      <trkpt lat="46.02158" lon="4.76016">
        <ele>193</ele>
        <time>2018-03-24T11:25:50Z</time>
      </trkpt>
      <trkpt lat="46.02154" lon="4.76021">
        <ele>193</ele>
        <time>2018-03-24T11:25:51Z</time>
      </trkpt>
      <trkpt lat="46.02148" lon="4.76026">
        <ele>193</ele>
        <time>2018-03-24T11:25:52Z</time>
      </trkpt>
      <trkpt lat="46.02143" lon="4.76031">
        <ele>193</ele>
        <time>2018-03-24T11:25:53Z</time>
      </trkpt>
      <trkpt lat="46.02138" lon="4.76035">
        <ele>193</ele>
        <time>2018-03-24T11:25:54Z</time>
      </trkpt>
      <trkpt lat="46.02133" lon="4.7604">
        <ele>193</ele>
        <time>2018-03-24T11:25:55Z</time>
      </trkpt>
      <trkpt lat="46.02126" lon="4.76047">
        <ele>194</ele>
        <time>2018-03-24T11:25:57Z</time>
      </trkpt>
      <trkpt lat="46.02121" lon="4.7605">
        <ele>194</ele>
        <time>2018-03-24T11:25:58Z</time>
      </trkpt>
      <trkpt lat="46.02117" lon="4.76054">
        <ele>194</ele>
        <time>2018-03-24T11:25:59Z</time>
      </trkpt>
      <trkpt lat="46.02112" lon="4.76057">
        <ele>194</ele>
        <time>2018-03-24T11:26:00Z</time>
      </trkpt>
      <trkpt lat="46.02108" lon="4.76061">
        <ele>194</ele>
        <time>2018-03-24T11:26:01Z</time>
      </trkpt>
      <trkpt lat="46.02104" lon="4.76065">
        <ele>194</ele>
        <time>2018-03-24T11:26:02Z</time>
      </trkpt>
      <trkpt lat="46.021" lon="4.76068">
        <ele>194</ele>
        <time>2018-03-24T11:26:03Z</time>
      </trkpt>
      <trkpt lat="46.02096" lon="4.76072">
        <ele>195</ele>
        <time>2018-03-24T11:26:04Z</time>
      </trkpt>
      <trkpt lat="46.02089" lon="4.76078">
        <ele>195</ele>
        <time>2018-03-24T11:26:06Z</time>
      </trkpt>
      <trkpt lat="46.02085" lon="4.7608">
        <ele>196</ele>
        <time>2018-03-24T11:26:07Z</time>
      </trkpt>
      <trkpt lat="46.02077" lon="4.76086">
        <ele>196</ele>
        <time>2018-03-24T11:26:09Z</time>
      </trkpt>
      <trkpt lat="46.02073" lon="4.76087">
        <ele>196</ele>
        <time>2018-03-24T11:26:10Z</time>
      </trkpt>
      <trkpt lat="46.02065" lon="4.76088">
        <ele>197</ele>
        <time>2018-03-24T11:26:12Z</time>
      </trkpt>
      <trkpt lat="46.02061" lon="4.76088">
        <ele>197</ele>
        <time>2018-03-24T11:26:13Z</time>
      </trkpt>
      <trkpt lat="46.02052" lon="4.7609">
        <ele>197</ele>
        <time>2018-03-24T11:26:15Z</time>
      </trkpt>
      <trkpt lat="46.02048" lon="4.76091">
        <ele>197</ele>
        <time>2018-03-24T11:26:16Z</time>
      </trkpt>
      <trkpt lat="46.0204" lon="4.76094">
        <ele>197</ele>
        <time>2018-03-24T11:26:18Z</time>
      </trkpt>
      <trkpt lat="46.02036" lon="4.76096">
        <ele>197</ele>
        <time>2018-03-24T11:26:19Z</time>
      </trkpt>
      <trkpt lat="46.02028" lon="4.76097">
        <ele>197</ele>
        <time>2018-03-24T11:26:21Z</time>
      </trkpt>
      <trkpt lat="46.02023" lon="4.76098">
        <ele>197</ele>
        <time>2018-03-24T11:26:22Z</time>
      </trkpt>
      <trkpt lat="46.02015" lon="4.76098">
        <ele>197</ele>
        <time>2018-03-24T11:26:24Z</time>
      </trkpt>
      <trkpt lat="46.02009" lon="4.76098">
        <ele>197</ele>
        <time>2018-03-24T11:26:25Z</time>
      </trkpt>
      <trkpt lat="46.02002" lon="4.76098">
        <ele>197</ele>
        <time>2018-03-24T11:26:27Z</time>
      </trkpt>
      <trkpt lat="46.01999" lon="4.76101">
        <ele>198</ele>
        <time>2018-03-24T11:26:28Z</time>
      </trkpt>
      <trkpt lat="46.0199" lon="4.76102">
        <ele>198</ele>
        <time>2018-03-24T11:26:30Z</time>
      </trkpt>
      <trkpt lat="46.01986" lon="4.76103">
        <ele>198</ele>
        <time>2018-03-24T11:26:31Z</time>
      </trkpt>
      <trkpt lat="46.01978" lon="4.76105">
        <ele>198</ele>
        <time>2018-03-24T11:26:33Z</time>
      </trkpt>
      <trkpt lat="46.01974" lon="4.76105">
        <ele>198</ele>
        <time>2018-03-24T11:26:34Z</time>
      </trkpt>
      <trkpt lat="46.01966" lon="4.76109">
        <ele>198</ele>
        <time>2018-03-24T11:26:36Z</time>
      </trkpt>
      <trkpt lat="46.01962" lon="4.7611">
        <ele>198</ele>
        <time>2018-03-24T11:26:37Z</time>
      </trkpt>
      <trkpt lat="46.01954" lon="4.76112">
        <ele>198</ele>
        <time>2018-03-24T11:26:39Z</time>
      </trkpt>
      <trkpt lat="46.01949" lon="4.76113">
        <ele>198</ele>
        <time>2018-03-24T11:26:40Z</time>
      </trkpt>
      <trkpt lat="46.01941" lon="4.76113">
        <ele>198</ele>
        <time>2018-03-24T11:26:42Z</time>
      </trkpt>
      <trkpt lat="46.01936" lon="4.76113">
        <ele>198</ele>
        <time>2018-03-24T11:26:43Z</time>
      </trkpt>
      <trkpt lat="46.01932" lon="4.76114">
        <ele>198</ele>
        <time>2018-03-24T11:26:44Z</time>
      </trkpt>
      <trkpt lat="46.01926" lon="4.76116">
        <ele>198</ele>
        <time>2018-03-24T11:26:45Z</time>
      </trkpt>
      <trkpt lat="46.01921" lon="4.76118">
        <ele>198</ele>
        <time>2018-03-24T11:26:46Z</time>
      </trkpt>
      <trkpt lat="46.01917" lon="4.76119">
        <ele>198</ele>
        <time>2018-03-24T11:26:47Z</time>
      </trkpt>
      <trkpt lat="46.01914" lon="4.76121">
        <ele>199</ele>
        <time>2018-03-24T11:26:48Z</time>
      </trkpt>
      <trkpt lat="46.01908" lon="4.76123">
        <ele>199</ele>
        <time>2018-03-24T11:26:49Z</time>
      </trkpt>
      <trkpt lat="46.01902" lon="4.76125">
        <ele>199</ele>
        <time>2018-03-24T11:26:51Z</time>
      </trkpt>
      <trkpt lat="46.01897" lon="4.76125">
        <ele>199</ele>
        <time>2018-03-24T11:26:52Z</time>
      </trkpt>
      <trkpt lat="46.01892" lon="4.76127">
        <ele>199</ele>
        <time>2018-03-24T11:26:53Z</time>
      </trkpt>
      <trkpt lat="46.01888" lon="4.76128">
        <ele>199</ele>
        <time>2018-03-24T11:26:54Z</time>
      </trkpt>
      <trkpt lat="46.01882" lon="4.76128">
        <ele>199</ele>
        <time>2018-03-24T11:26:55Z</time>
      </trkpt>
      <trkpt lat="46.01877" lon="4.76129">
        <ele>199</ele>
        <time>2018-03-24T11:26:56Z</time>
      </trkpt>
      <trkpt lat="46.01872" lon="4.7613">
        <ele>199</ele>
        <time>2018-03-24T11:26:57Z</time>
      </trkpt>
      <trkpt lat="46.01867" lon="4.76129">
        <ele>199</ele>
        <time>2018-03-24T11:26:58Z</time>
      </trkpt>
      <trkpt lat="46.01862" lon="4.76129">
        <ele>199</ele>
        <time>2018-03-24T11:26:59Z</time>
      </trkpt>
      <trkpt lat="46.01857" lon="4.76131">
        <ele>199</ele>
        <time>2018-03-24T11:27:00Z</time>
      </trkpt>
      <trkpt lat="46.01849" lon="4.76131">
        <ele>199</ele>
        <time>2018-03-24T11:27:02Z</time>
      </trkpt>
      <trkpt lat="46.01844" lon="4.76132">
        <ele>199</ele>
        <time>2018-03-24T11:27:03Z</time>
      </trkpt>
      <trkpt lat="46.01835" lon="4.76131">
        <ele>199</ele>
        <time>2018-03-24T11:27:06Z</time>
      </trkpt>
      <trkpt lat="46.01829" lon="4.76129">
        <ele>198</ele>
        <time>2018-03-24T11:27:07Z</time>
      </trkpt>
      <trkpt lat="46.0182" lon="4.7613">
        <ele>198</ele>
        <time>2018-03-24T11:27:09Z</time>
      </trkpt>
      <trkpt lat="46.01815" lon="4.7613">
        <ele>198</ele>
        <time>2018-03-24T11:27:10Z</time>
      </trkpt>
      <trkpt lat="46.01807" lon="4.76129">
        <ele>198</ele>
        <time>2018-03-24T11:27:12Z</time>
      </trkpt>
      <trkpt lat="46.01803" lon="4.76129">
        <ele>198</ele>
        <time>2018-03-24T11:27:13Z</time>
      </trkpt>
      <trkpt lat="46.01794" lon="4.76126">
        <ele>198</ele>
        <time>2018-03-24T11:27:15Z</time>
      </trkpt>
      <trkpt lat="46.0179" lon="4.76126">
        <ele>198</ele>
        <time>2018-03-24T11:27:16Z</time>
      </trkpt>
      <trkpt lat="46.01781" lon="4.76127">
        <ele>198</ele>
        <time>2018-03-24T11:27:18Z</time>
      </trkpt>
      <trkpt lat="46.01777" lon="4.76127">
        <ele>198</ele>
        <time>2018-03-24T11:27:19Z</time>
      </trkpt>
      <trkpt lat="46.01768" lon="4.76126">
        <ele>198</ele>
        <time>2018-03-24T11:27:21Z</time>
      </trkpt>
      <trkpt lat="46.01763" lon="4.76127">
        <ele>198</ele>
        <time>2018-03-24T11:27:22Z</time>
      </trkpt>
      <trkpt lat="46.01759" lon="4.76126">
        <ele>198</ele>
        <time>2018-03-24T11:27:23Z</time>
      </trkpt>
      <trkpt lat="46.01754" lon="4.76127">
        <ele>198</ele>
        <time>2018-03-24T11:27:24Z</time>
      </trkpt>
      <trkpt lat="46.01749" lon="4.76126">
        <ele>197</ele>
        <time>2018-03-24T11:27:25Z</time>
      </trkpt>
      <trkpt lat="46.01744" lon="4.76124">
        <ele>197</ele>
        <time>2018-03-24T11:27:26Z</time>
      </trkpt>
      <trkpt lat="46.01735" lon="4.76123">
        <ele>197</ele>
        <time>2018-03-24T11:27:28Z</time>
      </trkpt>
      <trkpt lat="46.0173" lon="4.76123">
        <ele>197</ele>
        <time>2018-03-24T11:27:29Z</time>
      </trkpt>
      <trkpt lat="46.01722" lon="4.76121">
        <ele>197</ele>
        <time>2018-03-24T11:27:31Z</time>
      </trkpt>
      <trkpt lat="46.01717" lon="4.7612">
        <ele>197</ele>
        <time>2018-03-24T11:27:32Z</time>
      </trkpt>
      <trkpt lat="46.0171" lon="4.76118">
        <ele>198</ele>
        <time>2018-03-24T11:27:34Z</time>
      </trkpt>
      <trkpt lat="46.01706" lon="4.76119">
        <ele>198</ele>
        <time>2018-03-24T11:27:35Z</time>
      </trkpt>
      <trkpt lat="46.01698" lon="4.76119">
        <ele>198</ele>
        <time>2018-03-24T11:27:37Z</time>
      </trkpt>
      <trkpt lat="46.01694" lon="4.76119">
        <ele>198</ele>
        <time>2018-03-24T11:27:38Z</time>
      </trkpt>
      <trkpt lat="46.01686" lon="4.76119">
        <ele>198</ele>
        <time>2018-03-24T11:27:40Z</time>
      </trkpt>
      <trkpt lat="46.01682" lon="4.76119">
        <ele>198</ele>
        <time>2018-03-24T11:27:41Z</time>
      </trkpt>
      <trkpt lat="46.01674" lon="4.76116">
        <ele>198</ele>
        <time>2018-03-24T11:27:43Z</time>
      </trkpt>
      <trkpt lat="46.0167" lon="4.76115">
        <ele>198</ele>
        <time>2018-03-24T11:27:44Z</time>
      </trkpt>
      <trkpt lat="46.01662" lon="4.76113">
        <ele>199</ele>
        <time>2018-03-24T11:27:46Z</time>
      </trkpt>
      <trkpt lat="46.01658" lon="4.76113">
        <ele>199</ele>
        <time>2018-03-24T11:27:47Z</time>
      </trkpt>
      <trkpt lat="46.0165" lon="4.76113">
        <ele>199</ele>
        <time>2018-03-24T11:27:49Z</time>
      </trkpt>
      <trkpt lat="46.01646" lon="4.76113">
        <ele>199</ele>
        <time>2018-03-24T11:27:50Z</time>
      </trkpt>
      <trkpt lat="46.01639" lon="4.76111">
        <ele>199</ele>
        <time>2018-03-24T11:27:52Z</time>
      </trkpt>
      <trkpt lat="46.01635" lon="4.76111">
        <ele>199</ele>
        <time>2018-03-24T11:27:53Z</time>
      </trkpt>
      <trkpt lat="46.01627" lon="4.7611">
        <ele>199</ele>
        <time>2018-03-24T11:27:55Z</time>
      </trkpt>
      <trkpt lat="46.01623" lon="4.7611">
        <ele>200</ele>
        <time>2018-03-24T11:27:56Z</time>
      </trkpt>
      <trkpt lat="46.01615" lon="4.76108">
        <ele>200</ele>
        <time>2018-03-24T11:27:58Z</time>
      </trkpt>
      <trkpt lat="46.01611" lon="4.76108">
        <ele>200</ele>
        <time>2018-03-24T11:27:59Z</time>
      </trkpt>
      <trkpt lat="46.01603" lon="4.76107">
        <ele>200</ele>
        <time>2018-03-24T11:28:01Z</time>
      </trkpt>
      <trkpt lat="46.01601" lon="4.76107">
        <ele>200</ele>
        <time>2018-03-24T11:28:02Z</time>
      </trkpt>
      <trkpt lat="46.01593" lon="4.76105">
        <ele>200</ele>
        <time>2018-03-24T11:28:05Z</time>
      </trkpt>
      <trkpt lat="46.0159" lon="4.76105">
        <ele>200</ele>
        <time>2018-03-24T11:28:06Z</time>
      </trkpt>
      <trkpt lat="46.01584" lon="4.76104">
        <ele>200</ele>
        <time>2018-03-24T11:28:08Z</time>
      </trkpt>
      <trkpt lat="46.01581" lon="4.76104">
        <ele>202</ele>
        <time>2018-03-24T11:28:09Z</time>
      </trkpt>
      <trkpt lat="46.01577" lon="4.76104">
        <ele>202</ele>
        <time>2018-03-24T11:28:10Z</time>
      </trkpt>
      <trkpt lat="46.01569" lon="4.76103">
        <ele>202</ele>
        <time>2018-03-24T11:28:11Z</time>
      </trkpt>
      <trkpt lat="46.01561" lon="4.761">
        <ele>202</ele>
        <time>2018-03-24T11:28:13Z</time>
      </trkpt>
      <trkpt lat="46.01558" lon="4.76098">
        <ele>202</ele>
        <time>2018-03-24T11:28:14Z</time>
      </trkpt>
      <trkpt lat="46.0155" lon="4.76094">
        <ele>202</ele>
        <time>2018-03-24T11:28:16Z</time>
      </trkpt>
      <trkpt lat="46.01546" lon="4.76092">
        <ele>202</ele>
        <time>2018-03-24T11:28:17Z</time>
      </trkpt>
      <trkpt lat="46.01538" lon="4.76089">
        <ele>202</ele>
        <time>2018-03-24T11:28:19Z</time>
      </trkpt>
      <trkpt lat="46.01534" lon="4.76087">
        <ele>202</ele>
        <time>2018-03-24T11:28:20Z</time>
      </trkpt>
      <trkpt lat="46.01525" lon="4.76085">
        <ele>202</ele>
        <time>2018-03-24T11:28:22Z</time>
      </trkpt>
      <trkpt lat="46.01521" lon="4.76085">
        <ele>203</ele>
        <time>2018-03-24T11:28:23Z</time>
      </trkpt>
      <trkpt lat="46.01512" lon="4.76085">
        <ele>203</ele>
        <time>2018-03-24T11:28:25Z</time>
      </trkpt>
      <trkpt lat="46.01507" lon="4.76083">
        <ele>203</ele>
        <time>2018-03-24T11:28:26Z</time>
      </trkpt>
      <trkpt lat="46.01503" lon="4.76083">
        <ele>203</ele>
        <time>2018-03-24T11:28:27Z</time>
      </trkpt>
      <trkpt lat="46.01498" lon="4.76082">
        <ele>203</ele>
        <time>2018-03-24T11:28:28Z</time>
      </trkpt>
      <trkpt lat="46.01494" lon="4.7608">
        <ele>203</ele>
        <time>2018-03-24T11:28:29Z</time>
      </trkpt>
      <trkpt lat="46.01489" lon="4.7608">
        <ele>203</ele>
        <time>2018-03-24T11:28:30Z</time>
      </trkpt>
      <trkpt lat="46.01481" lon="4.76077">
        <ele>203</ele>
        <time>2018-03-24T11:28:32Z</time>
      </trkpt>
      <trkpt lat="46.01476" lon="4.76075">
        <ele>203</ele>
        <time>2018-03-24T11:28:33Z</time>
      </trkpt>
      <trkpt lat="46.01472" lon="4.76074">
        <ele>203</ele>
        <time>2018-03-24T11:28:34Z</time>
      </trkpt>
      <trkpt lat="46.01467" lon="4.76072">
        <ele>203</ele>
        <time>2018-03-24T11:28:35Z</time>
      </trkpt>
      <trkpt lat="46.01463" lon="4.7607">
        <ele>203</ele>
        <time>2018-03-24T11:28:36Z</time>
      </trkpt>
      <trkpt lat="46.01458" lon="4.7607">
        <ele>203</ele>
        <time>2018-03-24T11:28:37Z</time>
      </trkpt>
      <trkpt lat="46.01454" lon="4.76068">
        <ele>203</ele>
        <time>2018-03-24T11:28:38Z</time>
      </trkpt>
      <trkpt lat="46.0145" lon="4.76065">
        <ele>203</ele>
        <time>2018-03-24T11:28:39Z</time>
      </trkpt>
      <trkpt lat="46.01442" lon="4.7606">
        <ele>203</ele>
        <time>2018-03-24T11:28:41Z</time>
      </trkpt>
      <trkpt lat="46.01439" lon="4.76058">
        <ele>203</ele>
        <time>2018-03-24T11:28:42Z</time>
      </trkpt>
      <trkpt lat="46.01433" lon="4.76056">
        <ele>203</ele>
        <time>2018-03-24T11:28:43Z</time>
      </trkpt>
      <trkpt lat="46.0143" lon="4.76053">
        <ele>204</ele>
        <time>2018-03-24T11:28:44Z</time>
      </trkpt>
      <trkpt lat="46.01425" lon="4.7605">
        <ele>204</ele>
        <time>2018-03-24T11:28:45Z</time>
      </trkpt>
      <trkpt lat="46.01421" lon="4.76047">
        <ele>204</ele>
        <time>2018-03-24T11:28:46Z</time>
      </trkpt>
      <trkpt lat="46.01416" lon="4.76045">
        <ele>203</ele>
        <time>2018-03-24T11:28:47Z</time>
      </trkpt>
      <trkpt lat="46.01413" lon="4.76042">
        <ele>204</ele>
        <time>2018-03-24T11:28:48Z</time>
      </trkpt>
      <trkpt lat="46.01408" lon="4.76039">
        <ele>204</ele>
        <time>2018-03-24T11:28:49Z</time>
      </trkpt>
      <trkpt lat="46.01404" lon="4.76036">
        <ele>204</ele>
        <time>2018-03-24T11:28:50Z</time>
      </trkpt>
      <trkpt lat="46.01396" lon="4.76034">
        <ele>204</ele>
        <time>2018-03-24T11:28:52Z</time>
      </trkpt>
      <trkpt lat="46.01392" lon="4.76033">
        <ele>203</ele>
        <time>2018-03-24T11:28:53Z</time>
      </trkpt>
      <trkpt lat="46.01383" lon="4.76034">
        <ele>203</ele>
        <time>2018-03-24T11:28:55Z</time>
      </trkpt>
      <trkpt lat="46.01379" lon="4.76036">
        <ele>203</ele>
        <time>2018-03-24T11:28:56Z</time>
      </trkpt>
      <trkpt lat="46.01374" lon="4.76037">
        <ele>203</ele>
        <time>2018-03-24T11:28:57Z</time>
      </trkpt>
      <trkpt lat="46.01369" lon="4.76038">
        <ele>203</ele>
        <time>2018-03-24T11:28:58Z</time>
      </trkpt>
      <trkpt lat="46.01364" lon="4.7604">
        <ele>203</ele>
        <time>2018-03-24T11:28:59Z</time>
      </trkpt>
      <trkpt lat="46.0136" lon="4.76041">
        <ele>203</ele>
        <time>2018-03-24T11:29:00Z</time>
      </trkpt>
      <trkpt lat="46.01355" lon="4.76043">
        <ele>203</ele>
        <time>2018-03-24T11:29:01Z</time>
      </trkpt>
      <trkpt lat="46.01351" lon="4.76045">
        <ele>203</ele>
        <time>2018-03-24T11:29:02Z</time>
      </trkpt>
      <trkpt lat="46.01346" lon="4.76047">
        <ele>203</ele>
        <time>2018-03-24T11:29:03Z</time>
      </trkpt>
      <trkpt lat="46.01342" lon="4.76049">
        <ele>203</ele>
        <time>2018-03-24T11:29:04Z</time>
      </trkpt>
      <trkpt lat="46.01334" lon="4.76051">
        <ele>203</ele>
        <time>2018-03-24T11:29:06Z</time>
      </trkpt>
      <trkpt lat="46.0133" lon="4.76052">
        <ele>203</ele>
        <time>2018-03-24T11:29:07Z</time>
      </trkpt>
      <trkpt lat="46.01326" lon="4.76053">
        <ele>203</ele>
        <time>2018-03-24T11:29:08Z</time>
      </trkpt>
      <trkpt lat="46.01321" lon="4.76055">
        <ele>203</ele>
        <time>2018-03-24T11:29:09Z</time>
      </trkpt>
      <trkpt lat="46.01316" lon="4.76055">
        <ele>203</ele>
        <time>2018-03-24T11:29:10Z</time>
      </trkpt>
      <trkpt lat="46.01311" lon="4.76056">
        <ele>203</ele>
        <time>2018-03-24T11:29:11Z</time>
      </trkpt>
      <trkpt lat="46.01303" lon="4.76057">
        <ele>203</ele>
        <time>2018-03-24T11:29:13Z</time>
      </trkpt>
      <trkpt lat="46.01298" lon="4.76058">
        <ele>204</ele>
        <time>2018-03-24T11:29:14Z</time>
      </trkpt>
      <trkpt lat="46.0129" lon="4.7606">
        <ele>204</ele>
        <time>2018-03-24T11:29:16Z</time>
      </trkpt>
      <trkpt lat="46.01285" lon="4.7606">
        <ele>204</ele>
        <time>2018-03-24T11:29:17Z</time>
      </trkpt>
      <trkpt lat="46.01277" lon="4.76062">
        <ele>204</ele>
        <time>2018-03-24T11:29:19Z</time>
      </trkpt>
      <trkpt lat="46.01272" lon="4.76064">
        <ele>204</ele>
        <time>2018-03-24T11:29:20Z</time>
      </trkpt>
      <trkpt lat="46.01264" lon="4.76066">
        <ele>204</ele>
        <time>2018-03-24T11:29:22Z</time>
      </trkpt>
      <trkpt lat="46.0126" lon="4.76067">
        <ele>204</ele>
        <time>2018-03-24T11:29:23Z</time>
      </trkpt>
      <trkpt lat="46.01251" lon="4.76066">
        <ele>204</ele>
        <time>2018-03-24T11:29:25Z</time>
      </trkpt>
      <trkpt lat="46.01247" lon="4.76067">
        <ele>205</ele>
        <time>2018-03-24T11:29:26Z</time>
      </trkpt>
      <trkpt lat="46.01238" lon="4.76067">
        <ele>205</ele>
        <time>2018-03-24T11:29:28Z</time>
      </trkpt>
      <trkpt lat="46.01235" lon="4.76067">
        <ele>205</ele>
        <time>2018-03-24T11:29:29Z</time>
      </trkpt>
      <trkpt lat="46.01228" lon="4.76065">
        <ele>206</ele>
        <time>2018-03-24T11:29:31Z</time>
      </trkpt>
      <trkpt lat="46.01224" lon="4.76064">
        <ele>206</ele>
        <time>2018-03-24T11:29:32Z</time>
      </trkpt>
      <trkpt lat="46.01216" lon="4.76063">
        <ele>206</ele>
        <time>2018-03-24T11:29:34Z</time>
      </trkpt>
      <trkpt lat="46.01212" lon="4.76063">
        <ele>206</ele>
        <time>2018-03-24T11:29:35Z</time>
      </trkpt>
      <trkpt lat="46.01204" lon="4.76062">
        <ele>206</ele>
        <time>2018-03-24T11:29:37Z</time>
      </trkpt>
      <trkpt lat="46.01203" lon="4.76061">
        <ele>206</ele>
        <time>2018-03-24T11:29:38Z</time>
      </trkpt>
      <trkpt lat="46.01197" lon="4.76059">
        <ele>206</ele>
        <time>2018-03-24T11:29:39Z</time>
      </trkpt>
      <trkpt lat="46.01193" lon="4.76058">
        <ele>206</ele>
        <time>2018-03-24T11:29:40Z</time>
      </trkpt>
      <trkpt lat="46.01185" lon="4.76055">
        <ele>206</ele>
        <time>2018-03-24T11:29:42Z</time>
      </trkpt>
      <trkpt lat="46.01181" lon="4.76054">
        <ele>207</ele>
        <time>2018-03-24T11:29:43Z</time>
      </trkpt>
      <trkpt lat="46.01175" lon="4.76052">
        <ele>207</ele>
        <time>2018-03-24T11:29:45Z</time>
      </trkpt>
      <trkpt lat="46.01171" lon="4.7605">
        <ele>207</ele>
        <time>2018-03-24T11:29:46Z</time>
      </trkpt>
      <trkpt lat="46.01162" lon="4.76048">
        <ele>208</ele>
        <time>2018-03-24T11:29:51Z</time>
      </trkpt>
      <trkpt lat="46.0116" lon="4.76048">
        <ele>208</ele>
        <time>2018-03-24T11:29:52Z</time>
      </trkpt>
      <trkpt lat="46.01154" lon="4.76048">
        <ele>208</ele>
        <time>2018-03-24T11:29:55Z</time>
      </trkpt>
      <trkpt lat="46.01144" lon="4.76049">
        <ele>208</ele>
        <time>2018-03-24T11:29:56Z</time>
      </trkpt>
      <trkpt lat="46.01142" lon="4.76049">
        <ele>208</ele>
        <time>2018-03-24T11:29:57Z</time>
      </trkpt>
      <trkpt lat="46.0113" lon="4.76052">
        <ele>208</ele>
        <time>2018-03-24T11:29:58Z</time>
      </trkpt>
      <trkpt lat="46.01121" lon="4.76052">
        <ele>208</ele>
        <time>2018-03-24T11:30:00Z</time>
      </trkpt>
      <trkpt lat="46.01116" lon="4.76052">
        <ele>208</ele>
        <time>2018-03-24T11:30:01Z</time>
      </trkpt>
      <trkpt lat="46.01111" lon="4.76054">
        <ele>208</ele>
        <time>2018-03-24T11:30:02Z</time>
      </trkpt>
      <trkpt lat="46.01106" lon="4.76054">
        <ele>208</ele>
        <time>2018-03-24T11:30:03Z</time>
      </trkpt>
      <trkpt lat="46.01098" lon="4.76057">
        <ele>208</ele>
        <time>2018-03-24T11:30:05Z</time>
      </trkpt>
      <trkpt lat="46.01094" lon="4.76059">
        <ele>208</ele>
        <time>2018-03-24T11:30:06Z</time>
      </trkpt>
      <trkpt lat="46.01086" lon="4.7606">
        <ele>208</ele>
        <time>2018-03-24T11:30:08Z</time>
      </trkpt>
      <trkpt lat="46.01082" lon="4.7606">
        <ele>209</ele>
        <time>2018-03-24T11:30:09Z</time>
      </trkpt>
      <trkpt lat="46.01074" lon="4.76061">
        <ele>209</ele>
        <time>2018-03-24T11:30:12Z</time>
      </trkpt>
      <trkpt lat="46.01072" lon="4.76061">
        <ele>209</ele>
        <time>2018-03-24T11:30:13Z</time>
      </trkpt>
      <trkpt lat="46.01064" lon="4.76062">
        <ele>209</ele>
        <time>2018-03-24T11:30:16Z</time>
      </trkpt>
      <trkpt lat="46.01061" lon="4.76063">
        <ele>209</ele>
        <time>2018-03-24T11:30:17Z</time>
      </trkpt>
      <trkpt lat="46.01053" lon="4.76064">
        <ele>210</ele>
        <time>2018-03-24T11:30:20Z</time>
      </trkpt>
      <trkpt lat="46.0105" lon="4.76065">
        <ele>210</ele>
        <time>2018-03-24T11:30:21Z</time>
      </trkpt>
      <trkpt lat="46.01044" lon="4.76064">
        <ele>210</ele>
        <time>2018-03-24T11:30:23Z</time>
      </trkpt>
      <trkpt lat="46.01041" lon="4.76064">
        <ele>210</ele>
        <time>2018-03-24T11:30:24Z</time>
      </trkpt>
      <trkpt lat="46.01034" lon="4.76065">
        <ele>210</ele>
        <time>2018-03-24T11:30:26Z</time>
      </trkpt>
      <trkpt lat="46.01031" lon="4.76065">
        <ele>210</ele>
        <time>2018-03-24T11:30:27Z</time>
      </trkpt>
      <trkpt lat="46.01022" lon="4.76065">
        <ele>210</ele>
        <time>2018-03-24T11:30:30Z</time>
      </trkpt>
      <trkpt lat="46.0102" lon="4.76066">
        <ele>210</ele>
        <time>2018-03-24T11:30:31Z</time>
      </trkpt>
      <trkpt lat="46.01014" lon="4.76067">
        <ele>211</ele>
        <time>2018-03-24T11:30:33Z</time>
      </trkpt>
      <trkpt lat="46.0101" lon="4.76067">
        <ele>211</ele>
        <time>2018-03-24T11:30:34Z</time>
      </trkpt>
      <trkpt lat="46.01004" lon="4.76068">
        <ele>211</ele>
        <time>2018-03-24T11:30:36Z</time>
      </trkpt>
      <trkpt lat="46.01" lon="4.76068">
        <ele>211</ele>
        <time>2018-03-24T11:30:37Z</time>
      </trkpt>
      <trkpt lat="46.00994" lon="4.76069">
        <ele>212</ele>
        <time>2018-03-24T11:30:39Z</time>
      </trkpt>
      <trkpt lat="46.00991" lon="4.76069">
        <ele>212</ele>
        <time>2018-03-24T11:30:40Z</time>
      </trkpt>
      <trkpt lat="46.00984" lon="4.76069">
        <ele>212</ele>
        <time>2018-03-24T11:30:42Z</time>
      </trkpt>
      <trkpt lat="46.00981" lon="4.7607">
        <ele>212</ele>
        <time>2018-03-24T11:30:43Z</time>
      </trkpt>
      <trkpt lat="46.00974" lon="4.76071">
        <ele>212</ele>
        <time>2018-03-24T11:30:45Z</time>
      </trkpt>
      <trkpt lat="46.0097" lon="4.76071">
        <ele>212</ele>
        <time>2018-03-24T11:30:46Z</time>
      </trkpt>
      <trkpt lat="46.00964" lon="4.76073">
        <ele>212</ele>
        <time>2018-03-24T11:30:48Z</time>
      </trkpt>
      <trkpt lat="46.0096" lon="4.76074">
        <ele>212</ele>
        <time>2018-03-24T11:30:49Z</time>
      </trkpt>
      <trkpt lat="46.00953" lon="4.76076">
        <ele>212</ele>
        <time>2018-03-24T11:30:51Z</time>
      </trkpt>
      <trkpt lat="46.0095" lon="4.76077">
        <ele>212</ele>
        <time>2018-03-24T11:30:52Z</time>
      </trkpt>
      <trkpt lat="46.00943" lon="4.76078">
        <ele>212</ele>
        <time>2018-03-24T11:30:54Z</time>
      </trkpt>
      <trkpt lat="46.0094" lon="4.76078">
        <ele>212</ele>
        <time>2018-03-24T11:30:55Z</time>
      </trkpt>
      <trkpt lat="46.00934" lon="4.76079">
        <ele>212</ele>
        <time>2018-03-24T11:30:57Z</time>
      </trkpt>
      <trkpt lat="46.00931" lon="4.7608">
        <ele>213</ele>
        <time>2018-03-24T11:30:58Z</time>
      </trkpt>
      <trkpt lat="46.00924" lon="4.76081">
        <ele>213</ele>
        <time>2018-03-24T11:31:00Z</time>
      </trkpt>
      <trkpt lat="46.00921" lon="4.76082">
        <ele>213</ele>
        <time>2018-03-24T11:31:01Z</time>
      </trkpt>
      <trkpt lat="46.00913" lon="4.76084">
        <ele>213</ele>
        <time>2018-03-24T11:31:04Z</time>
      </trkpt>
      <trkpt lat="46.00909" lon="4.76084">
        <ele>214</ele>
        <time>2018-03-24T11:31:05Z</time>
      </trkpt>
      <trkpt lat="46.00903" lon="4.76085">
        <ele>214</ele>
        <time>2018-03-24T11:31:07Z</time>
      </trkpt>
      <trkpt lat="46.009" lon="4.76085">
        <ele>214</ele>
        <time>2018-03-24T11:31:08Z</time>
      </trkpt>
      <trkpt lat="46.00894" lon="4.76086">
        <ele>214</ele>
        <time>2018-03-24T11:31:10Z</time>
      </trkpt>
      <trkpt lat="46.0089" lon="4.76087">
        <ele>215</ele>
        <time>2018-03-24T11:31:11Z</time>
      </trkpt>
      <trkpt lat="46.00884" lon="4.76088">
        <ele>215</ele>
        <time>2018-03-24T11:31:13Z</time>
      </trkpt>
      <trkpt lat="46.00881" lon="4.76089">
        <ele>215</ele>
        <time>2018-03-24T11:31:14Z</time>
      </trkpt>
      <trkpt lat="46.00875" lon="4.76091">
        <ele>215</ele>
        <time>2018-03-24T11:31:16Z</time>
      </trkpt>
      <trkpt lat="46.00872" lon="4.76092">
        <ele>215</ele>
        <time>2018-03-24T11:31:17Z</time>
      </trkpt>
      <trkpt lat="46.00864" lon="4.76094">
        <ele>215</ele>
        <time>2018-03-24T11:31:20Z</time>
      </trkpt>
      <trkpt lat="46.00861" lon="4.76094">
        <ele>215</ele>
        <time>2018-03-24T11:31:21Z</time>
      </trkpt>
      <trkpt lat="46.00854" lon="4.76096">
        <ele>215</ele>
        <time>2018-03-24T11:31:24Z</time>
      </trkpt>
      <trkpt lat="46.00851" lon="4.76097">
        <ele>216</ele>
        <time>2018-03-24T11:31:25Z</time>
      </trkpt>
      <trkpt lat="46.00844" lon="4.76098">
        <ele>216</ele>
        <time>2018-03-24T11:31:28Z</time>
      </trkpt>
      <trkpt lat="46.00842" lon="4.76099">
        <ele>216</ele>
        <time>2018-03-24T11:31:29Z</time>
      </trkpt>
      <trkpt lat="46.00835" lon="4.761">
        <ele>216</ele>
        <time>2018-03-24T11:31:32Z</time>
      </trkpt>
      <trkpt lat="46.00832" lon="4.76101">
        <ele>217</ele>
        <time>2018-03-24T11:31:33Z</time>
      </trkpt>
      <trkpt lat="46.00825" lon="4.76101">
        <ele>217</ele>
        <time>2018-03-24T11:31:36Z</time>
      </trkpt>
      <trkpt lat="46.00822" lon="4.76101">
        <ele>218</ele>
        <time>2018-03-24T11:31:37Z</time>
      </trkpt>
      <trkpt lat="46.00814" lon="4.76102">
        <ele>218</ele>
        <time>2018-03-24T11:31:40Z</time>
      </trkpt>
      <trkpt lat="46.00812" lon="4.76102">
        <ele>218</ele>
        <time>2018-03-24T11:31:41Z</time>
      </trkpt>
      <trkpt lat="46.00804" lon="4.76102">
        <ele>218</ele>
        <time>2018-03-24T11:31:44Z</time>
      </trkpt>
      <trkpt lat="46.00801" lon="4.76102">
        <ele>218</ele>
        <time>2018-03-24T11:31:45Z</time>
      </trkpt>
      <trkpt lat="46.00794" lon="4.76102">
        <ele>218</ele>
        <time>2018-03-24T11:31:48Z</time>
      </trkpt>
      <trkpt lat="46.00791" lon="4.76102">
        <ele>219</ele>
        <time>2018-03-24T11:31:49Z</time>
      </trkpt>
      <trkpt lat="46.00784" lon="4.76103">
        <ele>219</ele>
        <time>2018-03-24T11:31:52Z</time>
      </trkpt>
      <trkpt lat="46.00782" lon="4.76104">
        <ele>219</ele>
        <time>2018-03-24T11:31:53Z</time>
      </trkpt>
      <trkpt lat="46.00774" lon="4.76105">
        <ele>219</ele>
        <time>2018-03-24T11:31:57Z</time>
      </trkpt>
      <trkpt lat="46.00772" lon="4.76105">
        <ele>219</ele>
        <time>2018-03-24T11:31:58Z</time>
      </trkpt>
      <trkpt lat="46.00765" lon="4.76106">
        <ele>219</ele>
        <time>2018-03-24T11:32:01Z</time>
      </trkpt>
      <trkpt lat="46.00762" lon="4.76106">
        <ele>219</ele>
        <time>2018-03-24T11:32:02Z</time>
      </trkpt>
      <trkpt lat="46.00754" lon="4.76107">
        <ele>219</ele>
        <time>2018-03-24T11:32:06Z</time>
      </trkpt>
      <trkpt lat="46.00752" lon="4.76107">
        <ele>219</ele>
        <time>2018-03-24T11:32:07Z</time>
      </trkpt>
      <trkpt lat="46.00744" lon="4.7611">
        <ele>223</ele>
        <time>2018-03-24T11:32:12Z</time>
      </trkpt>
      <trkpt lat="46.00743" lon="4.7611">
        <ele>223</ele>
        <time>2018-03-24T11:32:13Z</time>
      </trkpt>
      <trkpt lat="46.00734" lon="4.7611">
        <ele>223</ele>
        <time>2018-03-24T11:32:21Z</time>
      </trkpt>
      <trkpt lat="46.00733" lon="4.7611">
        <ele>223</ele>
        <time>2018-03-24T11:32:22Z</time>
      </trkpt>
      <trkpt lat="46.00725" lon="4.76112">
        <ele>224</ele>
        <time>2018-03-24T11:32:27Z</time>
      </trkpt>
      <trkpt lat="46.00723" lon="4.76112">
        <ele>224</ele>
        <time>2018-03-24T11:32:28Z</time>
      </trkpt>
      <trkpt lat="46.00715" lon="4.76111">
        <ele>224</ele>
        <time>2018-03-24T11:32:33Z</time>
      </trkpt>
      <trkpt lat="46.00713" lon="4.76111">
        <ele>224</ele>
        <time>2018-03-24T11:32:34Z</time>
      </trkpt>
      <trkpt lat="46.00704" lon="4.76112">
        <ele>225</ele>
        <time>2018-03-24T11:32:39Z</time>
      </trkpt>
      <trkpt lat="46.00703" lon="4.76112">
        <ele>225</ele>
        <time>2018-03-24T11:32:40Z</time>
      </trkpt>
      <trkpt lat="46.00694" lon="4.76112">
        <ele>225</ele>
        <time>2018-03-24T11:32:46Z</time>
      </trkpt>
      <trkpt lat="46.00692" lon="4.76113">
        <ele>225</ele>
        <time>2018-03-24T11:32:47Z</time>
      </trkpt>
      <trkpt lat="46.00684" lon="4.76114">
        <ele>225</ele>
        <time>2018-03-24T11:32:51Z</time>
      </trkpt>
      <trkpt lat="46.00683" lon="4.76114">
        <ele>225</ele>
        <time>2018-03-24T11:32:52Z</time>
      </trkpt>
      <trkpt lat="46.00675" lon="4.76117">
        <ele>226</ele>
        <time>2018-03-24T11:32:57Z</time>
      </trkpt>
      <trkpt lat="46.00673" lon="4.76118">
        <ele>226</ele>
        <time>2018-03-24T11:32:58Z</time>
      </trkpt>
      <trkpt lat="46.00665" lon="4.76122">
        <ele>228</ele>
        <time>2018-03-24T11:33:03Z</time>
      </trkpt>
      <trkpt lat="46.00663" lon="4.76123">
        <ele>228</ele>
        <time>2018-03-24T11:33:04Z</time>
      </trkpt>
      <trkpt lat="46.00655" lon="4.76123">
        <ele>228</ele>
        <time>2018-03-24T11:33:09Z</time>
      </trkpt>
      <trkpt lat="46.00654" lon="4.76122">
        <ele>228</ele>
        <time>2018-03-24T11:33:10Z</time>
      </trkpt>
      <trkpt lat="46.00646" lon="4.76121">
        <ele>228</ele>
        <time>2018-03-24T11:33:15Z</time>
      </trkpt>
      <trkpt lat="46.00644" lon="4.76121">
        <ele>228</ele>
        <time>2018-03-24T11:33:16Z</time>
      </trkpt>
      <trkpt lat="46.00638" lon="4.76114">
        <ele>228</ele>
        <time>2018-03-24T11:33:23Z</time>
      </trkpt>
      <trkpt lat="46.00636" lon="4.76113">
        <ele>228</ele>
        <time>2018-03-24T11:33:24Z</time>
      </trkpt>
      <trkpt lat="46.00628" lon="4.76117">
        <ele>228</ele>
        <time>2018-03-24T11:33:29Z</time>
      </trkpt>
      <trkpt lat="46.00627" lon="4.7612">
        <ele>228</ele>
        <time>2018-03-24T11:33:30Z</time>
      </trkpt>
      <trkpt lat="46.00627" lon="4.7613">
        <ele>228</ele>
        <time>2018-03-24T11:33:33Z</time>
      </trkpt>
      <trkpt lat="46.00627" lon="4.76134">
        <ele>228</ele>
        <time>2018-03-24T11:33:34Z</time>
      </trkpt>
      <trkpt lat="46.00627" lon="4.76145">
        <ele>228</ele>
        <time>2018-03-24T11:33:37Z</time>
      </trkpt>
      <trkpt lat="46.00627" lon="4.76149">
        <ele>228</ele>
        <time>2018-03-24T11:33:38Z</time>
      </trkpt>
      <trkpt lat="46.00627" lon="4.76159">
        <ele>228</ele>
        <time>2018-03-24T11:33:41Z</time>
      </trkpt>
      <trkpt lat="46.00627" lon="4.76164">
        <ele>228</ele>
        <time>2018-03-24T11:33:42Z</time>
      </trkpt>
      <trkpt lat="46.00627" lon="4.76176">
        <ele>230</ele>
        <time>2018-03-24T11:33:45Z</time>
      </trkpt>
      <trkpt lat="46.00626" lon="4.7618">
        <ele>230</ele>
        <time>2018-03-24T11:33:46Z</time>
      </trkpt>
      <trkpt lat="46.00625" lon="4.7619">
        <ele>230</ele>
        <time>2018-03-24T11:33:49Z</time>
      </trkpt>
      <trkpt lat="46.00624" lon="4.76194">
        <ele>230</ele>
        <time>2018-03-24T11:33:50Z</time>
      </trkpt>
      <trkpt lat="46.00619" lon="4.76199">
        <ele>230</ele>
        <time>2018-03-24T11:33:52Z</time>
      </trkpt>
      <trkpt lat="46.00612" lon="4.76201">
        <ele>230</ele>
        <time>2018-03-24T11:33:53Z</time>
      </trkpt>
      <trkpt lat="46.00604" lon="4.76196">
        <ele>230</ele>
        <time>2018-03-24T11:33:55Z</time>
      </trkpt>
      <trkpt lat="46.00599" lon="4.76192">
        <ele>230</ele>
        <time>2018-03-24T11:33:56Z</time>
      </trkpt>
      <trkpt lat="46.00594" lon="4.76191">
        <ele>230</ele>
        <time>2018-03-24T11:33:57Z</time>
      </trkpt>
      <trkpt lat="46.00589" lon="4.76189">
        <ele>230</ele>
        <time>2018-03-24T11:33:58Z</time>
      </trkpt>
      <trkpt lat="46.00584" lon="4.76188">
        <ele>230</ele>
        <time>2018-03-24T11:33:59Z</time>
      </trkpt>
      <trkpt lat="46.00578" lon="4.76186">
        <ele>230</ele>
        <time>2018-03-24T11:34:00Z</time>
      </trkpt>
      <trkpt lat="46.00572" lon="4.76184">
        <ele>230</ele>
        <time>2018-03-24T11:34:01Z</time>
      </trkpt>
      <trkpt lat="46.00566" lon="4.76182">
        <ele>230</ele>
        <time>2018-03-24T11:34:02Z</time>
      </trkpt>
      <trkpt lat="46.0056" lon="4.76179">
        <ele>230</ele>
        <time>2018-03-24T11:34:03Z</time>
      </trkpt>
      <trkpt lat="46.00554" lon="4.76177">
        <ele>230</ele>
        <time>2018-03-24T11:34:04Z</time>
      </trkpt>
      <trkpt lat="46.00548" lon="4.76173">
        <ele>230</ele>
        <time>2018-03-24T11:34:05Z</time>
      </trkpt>
      <trkpt lat="46.00542" lon="4.7617">
        <ele>230</ele>
        <time>2018-03-24T11:34:06Z</time>
      </trkpt>
      <trkpt lat="46.00535" lon="4.76166">
        <ele>228</ele>
        <time>2018-03-24T11:34:07Z</time>
      </trkpt>
      <trkpt lat="46.00528" lon="4.76161">
        <ele>228</ele>
        <time>2018-03-24T11:34:08Z</time>
      </trkpt>
      <trkpt lat="46.00522" lon="4.76156">
        <ele>228</ele>
        <time>2018-03-24T11:34:09Z</time>
      </trkpt>
      <trkpt lat="46.00515" lon="4.76149">
        <ele>228</ele>
        <time>2018-03-24T11:34:10Z</time>
      </trkpt>
      <trkpt lat="46.00509" lon="4.76142">
        <ele>228</ele>
        <time>2018-03-24T11:34:11Z</time>
      </trkpt>
      <trkpt lat="46.00502" lon="4.76134">
        <ele>227</ele>
        <time>2018-03-24T11:34:12Z</time>
      </trkpt>
      <trkpt lat="46.00495" lon="4.76127">
        <ele>227</ele>
        <time>2018-03-24T11:34:13Z</time>
      </trkpt>
      <trkpt lat="46.00488" lon="4.7612">
        <ele>227</ele>
        <time>2018-03-24T11:34:14Z</time>
      </trkpt>
      <trkpt lat="46.00482" lon="4.76112">
        <ele>227</ele>
        <time>2018-03-24T11:34:15Z</time>
      </trkpt>
      <trkpt lat="46.00474" lon="4.76105">
        <ele>227</ele>
        <time>2018-03-24T11:34:16Z</time>
      </trkpt>
      <trkpt lat="46.00466" lon="4.76098">
        <ele>227</ele>
        <time>2018-03-24T11:34:17Z</time>
      </trkpt>
      <trkpt lat="46.00458" lon="4.76092">
        <ele>227</ele>
        <time>2018-03-24T11:34:18Z</time>
      </trkpt>
      <trkpt lat="46.00451" lon="4.76087">
        <ele>227</ele>
        <time>2018-03-24T11:34:19Z</time>
      </trkpt>
      <trkpt lat="46.00442" lon="4.76082">
        <ele>224</ele>
        <time>2018-03-24T11:34:20Z</time>
      </trkpt>
      <trkpt lat="46.00434" lon="4.76078">
        <ele>224</ele>
        <time>2018-03-24T11:34:21Z</time>
      </trkpt>
      <trkpt lat="46.00427" lon="4.76074">
        <ele>225</ele>
        <time>2018-03-24T11:34:22Z</time>
      </trkpt>
      <trkpt lat="46.00417" lon="4.76071">
        <ele>225</ele>
        <time>2018-03-24T11:34:23Z</time>
      </trkpt>
      <trkpt lat="46.00408" lon="4.76071">
        <ele>226</ele>
        <time>2018-03-24T11:34:24Z</time>
      </trkpt>
      <trkpt lat="46.00399" lon="4.7607">
        <ele>226</ele>
        <time>2018-03-24T11:34:25Z</time>
      </trkpt>
      <trkpt lat="46.00392" lon="4.76071">
        <ele>226</ele>
        <time>2018-03-24T11:34:26Z</time>
      </trkpt>
      <trkpt lat="46.00385" lon="4.76072">
        <ele>226</ele>
        <time>2018-03-24T11:34:27Z</time>
      </trkpt>
      <trkpt lat="46.00379" lon="4.76071">
        <ele>226</ele>
        <time>2018-03-24T11:34:28Z</time>
      </trkpt>
      <trkpt lat="46.00374" lon="4.76067">
        <ele>226</ele>
        <time>2018-03-24T11:34:29Z</time>
      </trkpt>
      <trkpt lat="46.00371" lon="4.76061">
        <ele>226</ele>
        <time>2018-03-24T11:34:30Z</time>
      </trkpt>
      <trkpt lat="46.0037" lon="4.76054">
        <ele>226</ele>
        <time>2018-03-24T11:34:31Z</time>
      </trkpt>
      <trkpt lat="46.00371" lon="4.76046">
        <ele>225</ele>
        <time>2018-03-24T11:34:32Z</time>
      </trkpt>
      <trkpt lat="46.00376" lon="4.76039">
        <ele>225</ele>
        <time>2018-03-24T11:34:33Z</time>
      </trkpt>
      <trkpt lat="46.00382" lon="4.76034">
        <ele>225</ele>
        <time>2018-03-24T11:34:34Z</time>
      </trkpt>
      <trkpt lat="46.00387" lon="4.76028">
        <ele>225</ele>
        <time>2018-03-24T11:34:35Z</time>
      </trkpt>
      <trkpt lat="46.00392" lon="4.76022">
        <ele>224</ele>
        <time>2018-03-24T11:34:36Z</time>
      </trkpt>
      <trkpt lat="46.00398" lon="4.76016">
        <ele>224</ele>
        <time>2018-03-24T11:34:37Z</time>
      </trkpt>
      <trkpt lat="46.00405" lon="4.76011">
        <ele>223</ele>
        <time>2018-03-24T11:34:38Z</time>
      </trkpt>
      <trkpt lat="46.00411" lon="4.76005">
        <ele>222</ele>
        <time>2018-03-24T11:34:39Z</time>
      </trkpt>
      <trkpt lat="46.00418" lon="4.76">
        <ele>221</ele>
        <time>2018-03-24T11:34:40Z</time>
      </trkpt>
      <trkpt lat="46.00425" lon="4.75994">
        <ele>220</ele>
        <time>2018-03-24T11:34:41Z</time>
      </trkpt>
      <trkpt lat="46.0043" lon="4.75986">
        <ele>220</ele>
        <time>2018-03-24T11:34:42Z</time>
      </trkpt>
      <trkpt lat="46.00434" lon="4.75976">
        <ele>219</ele>
        <time>2018-03-24T11:34:43Z</time>
      </trkpt>
      <trkpt lat="46.00441" lon="4.75966">
        <ele>219</ele>
        <time>2018-03-24T11:34:44Z</time>
      </trkpt>
      <trkpt lat="46.00443" lon="4.75953">
        <ele>219</ele>
        <time>2018-03-24T11:34:45Z</time>
      </trkpt>
      <trkpt lat="46.00445" lon="4.7594">
        <ele>218</ele>
        <time>2018-03-24T11:34:46Z</time>
      </trkpt>
      <trkpt lat="46.00442" lon="4.75926">
        <ele>218</ele>
        <time>2018-03-24T11:34:47Z</time>
      </trkpt>
      <trkpt lat="46.00439" lon="4.75915">
        <ele>217</ele>
        <time>2018-03-24T11:34:48Z</time>
      </trkpt>
      <trkpt lat="46.00434" lon="4.75903">
        <ele>217</ele>
        <time>2018-03-24T11:34:49Z</time>
      </trkpt>
      <trkpt lat="46.00428" lon="4.75892">
        <ele>217</ele>
        <time>2018-03-24T11:34:50Z</time>
      </trkpt>
      <trkpt lat="46.00425" lon="4.75881">
        <ele>217</ele>
        <time>2018-03-24T11:34:51Z</time>
      </trkpt>
      <trkpt lat="46.0042" lon="4.7587">
        <ele>216</ele>
        <time>2018-03-24T11:34:52Z</time>
      </trkpt>
      <trkpt lat="46.00415" lon="4.75859">
        <ele>215</ele>
        <time>2018-03-24T11:34:53Z</time>
      </trkpt>
      <trkpt lat="46.00409" lon="4.75849">
        <ele>214</ele>
        <time>2018-03-24T11:34:54Z</time>
      </trkpt>
      <trkpt lat="46.00404" lon="4.75837">
        <ele>214</ele>
        <time>2018-03-24T11:34:55Z</time>
      </trkpt>
      <trkpt lat="46.00397" lon="4.75826">
        <ele>213</ele>
        <time>2018-03-24T11:34:56Z</time>
      </trkpt>
      <trkpt lat="46.0039" lon="4.75815">
        <ele>213</ele>
        <time>2018-03-24T11:34:57Z</time>
      </trkpt>
      <trkpt lat="46.00384" lon="4.75805">
        <ele>213</ele>
        <time>2018-03-24T11:34:58Z</time>
      </trkpt>
      <trkpt lat="46.00377" lon="4.75794">
        <ele>213</ele>
        <time>2018-03-24T11:34:59Z</time>
      </trkpt>
      <trkpt lat="46.00371" lon="4.75784">
        <ele>213</ele>
        <time>2018-03-24T11:35:00Z</time>
      </trkpt>
      <trkpt lat="46.00364" lon="4.75776">
        <ele>212</ele>
        <time>2018-03-24T11:35:01Z</time>
      </trkpt>
      <trkpt lat="46.00357" lon="4.75764">
        <ele>212</ele>
        <time>2018-03-24T11:35:02Z</time>
      </trkpt>
      <trkpt lat="46.0035" lon="4.75754">
        <ele>211</ele>
        <time>2018-03-24T11:35:03Z</time>
      </trkpt>
      <trkpt lat="46.00343" lon="4.75744">
        <ele>209</ele>
        <time>2018-03-24T11:35:04Z</time>
      </trkpt>
      <trkpt lat="46.00336" lon="4.75734">
        <ele>210</ele>
        <time>2018-03-24T11:35:05Z</time>
      </trkpt>
      <trkpt lat="46.00329" lon="4.75724">
        <ele>208</ele>
        <time>2018-03-24T11:35:06Z</time>
      </trkpt>
      <trkpt lat="46.00322" lon="4.75714">
        <ele>208</ele>
        <time>2018-03-24T11:35:07Z</time>
      </trkpt>
      <trkpt lat="46.00315" lon="4.75703">
        <ele>208</ele>
        <time>2018-03-24T11:35:08Z</time>
      </trkpt>
      <trkpt lat="46.00309" lon="4.75693">
        <ele>208</ele>
        <time>2018-03-24T11:35:09Z</time>
      </trkpt>
      <trkpt lat="46.00302" lon="4.75682">
        <ele>208</ele>
        <time>2018-03-24T11:35:10Z</time>
      </trkpt>
      <trkpt lat="46.00295" lon="4.75672">
        <ele>208</ele>
        <time>2018-03-24T11:35:11Z</time>
      </trkpt>
      <trkpt lat="46.00288" lon="4.75662">
        <ele>207</ele>
        <time>2018-03-24T11:35:12Z</time>
      </trkpt>
      <trkpt lat="46.00281" lon="4.75651">
        <ele>207</ele>
        <time>2018-03-24T11:35:13Z</time>
      </trkpt>
      <trkpt lat="46.00274" lon="4.7564">
        <ele>207</ele>
        <time>2018-03-24T11:35:14Z</time>
      </trkpt>
      <trkpt lat="46.00267" lon="4.7563">
        <ele>206</ele>
        <time>2018-03-24T11:35:15Z</time>
      </trkpt>
      <trkpt lat="46.0026" lon="4.7562">
        <ele>206</ele>
        <time>2018-03-24T11:35:16Z</time>
      </trkpt>
      <trkpt lat="46.00253" lon="4.7561">
        <ele>206</ele>
        <time>2018-03-24T11:35:17Z</time>
      </trkpt>
      <trkpt lat="46.00245" lon="4.75599">
        <ele>209</ele>
        <time>2018-03-24T11:35:18Z</time>
      </trkpt>
      <trkpt lat="46.00239" lon="4.75587">
        <ele>208</ele>
        <time>2018-03-24T11:35:19Z</time>
      </trkpt>
      <trkpt lat="46.00233" lon="4.75576">
        <ele>206</ele>
        <time>2018-03-24T11:35:20Z</time>
      </trkpt>
      <trkpt lat="46.00227" lon="4.75564">
        <ele>206</ele>
        <time>2018-03-24T11:35:21Z</time>
      </trkpt>
      <trkpt lat="46.00222" lon="4.7555">
        <ele>206</ele>
        <time>2018-03-24T11:35:22Z</time>
      </trkpt>
      <trkpt lat="46.00216" lon="4.75538">
        <ele>205</ele>
        <time>2018-03-24T11:35:23Z</time>
      </trkpt>
      <trkpt lat="46.00216" lon="4.75521">
        <ele>204</ele>
        <time>2018-03-24T11:35:24Z</time>
      </trkpt>
      <trkpt lat="46.00215" lon="4.75508">
        <ele>204</ele>
        <time>2018-03-24T11:35:25Z</time>
      </trkpt>
      <trkpt lat="46.00214" lon="4.75493">
        <ele>198</ele>
        <time>2018-03-24T11:35:26Z</time>
      </trkpt>
      <trkpt lat="46.00214" lon="4.75478">
        <ele>198</ele>
        <time>2018-03-24T11:35:27Z</time>
      </trkpt>
      <trkpt lat="46.00216" lon="4.75463">
        <ele>197</ele>
        <time>2018-03-24T11:35:28Z</time>
      </trkpt>
      <trkpt lat="46.00216" lon="4.75447">
        <ele>197</ele>
        <time>2018-03-24T11:35:29Z</time>
      </trkpt>
      <trkpt lat="46.00217" lon="4.75429">
        <ele>196</ele>
        <time>2018-03-24T11:35:30Z</time>
      </trkpt>
      <trkpt lat="46.00216" lon="4.75415">
        <ele>192</ele>
        <time>2018-03-24T11:35:31Z</time>
      </trkpt>
      <trkpt lat="46.00215" lon="4.75401">
        <ele>192</ele>
        <time>2018-03-24T11:35:32Z</time>
      </trkpt>
      <trkpt lat="46.00215" lon="4.75386">
        <ele>192</ele>
        <time>2018-03-24T11:35:33Z</time>
      </trkpt>
      <trkpt lat="46.00216" lon="4.75371">
        <ele>191</ele>
        <time>2018-03-24T11:35:34Z</time>
      </trkpt>
      <trkpt lat="46.00217" lon="4.75357">
        <ele>191</ele>
        <time>2018-03-24T11:35:35Z</time>
      </trkpt>
      <trkpt lat="46.00217" lon="4.75342">
        <ele>190</ele>
        <time>2018-03-24T11:35:36Z</time>
      </trkpt>
      <trkpt lat="46.00217" lon="4.75327">
        <ele>186</ele>
        <time>2018-03-24T11:35:37Z</time>
      </trkpt>
      <trkpt lat="46.00216" lon="4.75313">
        <ele>186</ele>
        <time>2018-03-24T11:35:38Z</time>
      </trkpt>
      <trkpt lat="46.00216" lon="4.753">
        <ele>185</ele>
        <time>2018-03-24T11:35:39Z</time>
      </trkpt>
      <trkpt lat="46.00215" lon="4.75286">
        <ele>185</ele>
        <time>2018-03-24T11:35:40Z</time>
      </trkpt>
      <trkpt lat="46.00215" lon="4.75271">
        <ele>184</ele>
        <time>2018-03-24T11:35:41Z</time>
      </trkpt>
      <trkpt lat="46.00215" lon="4.75257">
        <ele>184</ele>
        <time>2018-03-24T11:35:42Z</time>
      </trkpt>
      <trkpt lat="46.00215" lon="4.75244">
        <ele>180</ele>
        <time>2018-03-24T11:35:43Z</time>
      </trkpt>
      <trkpt lat="46.00214" lon="4.7523">
        <ele>180</ele>
        <time>2018-03-24T11:35:44Z</time>
      </trkpt>
      <trkpt lat="46.00214" lon="4.75217">
        <ele>180</ele>
        <time>2018-03-24T11:35:45Z</time>
      </trkpt>
      <trkpt lat="46.00214" lon="4.75206">
        <ele>179</ele>
        <time>2018-03-24T11:35:46Z</time>
      </trkpt>
      <trkpt lat="46.00213" lon="4.75196">
        <ele>179</ele>
        <time>2018-03-24T11:35:47Z</time>
      </trkpt>
      <trkpt lat="46.00214" lon="4.75184">
        <ele>179</ele>
        <time>2018-03-24T11:35:48Z</time>
      </trkpt>
      <trkpt lat="46.00213" lon="4.75173">
        <ele>179</ele>
        <time>2018-03-24T11:35:49Z</time>
      </trkpt>
      <trkpt lat="46.00212" lon="4.75163">
        <ele>177</ele>
        <time>2018-03-24T11:35:50Z</time>
      </trkpt>
      <trkpt lat="46.00212" lon="4.75154">
        <ele>177</ele>
        <time>2018-03-24T11:35:51Z</time>
      </trkpt>
      <trkpt lat="46.00212" lon="4.75144">
        <ele>177</ele>
        <time>2018-03-24T11:35:52Z</time>
      </trkpt>
      <trkpt lat="46.00213" lon="4.75132">
        <ele>176</ele>
        <time>2018-03-24T11:35:54Z</time>
      </trkpt>
      <trkpt lat="46.00213" lon="4.75129">
        <ele>176</ele>
        <time>2018-03-24T11:35:55Z</time>
      </trkpt>
      <trkpt lat="46.00213" lon="4.75118">
        <ele>176</ele>
        <time>2018-03-24T11:35:59Z</time>
      </trkpt>
      <trkpt lat="46.00213" lon="4.75116">
        <ele>176</ele>
        <time>2018-03-24T11:36:00Z</time>
      </trkpt>
      <trkpt lat="46.00208" lon="4.75109">
        <ele>176</ele>
        <time>2018-03-24T11:36:03Z</time>
      </trkpt>
      <trkpt lat="46.00201" lon="4.75105">
        <ele>176</ele>
        <time>2018-03-24T11:36:04Z</time>
      </trkpt>
      <trkpt lat="46.00194" lon="4.75106">
        <ele>176</ele>
        <time>2018-03-24T11:36:06Z</time>
      </trkpt>
      <trkpt lat="46.00189" lon="4.75104">
        <ele>176</ele>
        <time>2018-03-24T11:36:07Z</time>
      </trkpt>
      <trkpt lat="46.00181" lon="4.75106">
        <ele>176</ele>
        <time>2018-03-24T11:36:09Z</time>
      </trkpt>
      <trkpt lat="46.00175" lon="4.75106">
        <ele>176</ele>
        <time>2018-03-24T11:36:10Z</time>
      </trkpt>
      <trkpt lat="46.00171" lon="4.75104">
        <ele>176</ele>
        <time>2018-03-24T11:36:11Z</time>
      </trkpt>
      <trkpt lat="46.00166" lon="4.75103">
        <ele>175</ele>
        <time>2018-03-24T11:36:12Z</time>
      </trkpt>
      <trkpt lat="46.0016" lon="4.75103">
        <ele>175</ele>
        <time>2018-03-24T11:36:13Z</time>
      </trkpt>
      <trkpt lat="46.00154" lon="4.75103">
        <ele>175</ele>
        <time>2018-03-24T11:36:14Z</time>
      </trkpt>
      <trkpt lat="46.00148" lon="4.75103">
        <ele>175</ele>
        <time>2018-03-24T11:36:15Z</time>
      </trkpt>
      <trkpt lat="46.00143" lon="4.75104">
        <ele>175</ele>
        <time>2018-03-24T11:36:16Z</time>
      </trkpt>
      <trkpt lat="46.00138" lon="4.75104">
        <ele>175</ele>
        <time>2018-03-24T11:36:17Z</time>
      </trkpt>
      <trkpt lat="46.00133" lon="4.75104">
        <ele>175</ele>
        <time>2018-03-24T11:36:18Z</time>
      </trkpt>
      <trkpt lat="46.00128" lon="4.75104">
        <ele>175</ele>
        <time>2018-03-24T11:36:19Z</time>
      </trkpt>
      <trkpt lat="46.00123" lon="4.75104">
        <ele>175</ele>
        <time>2018-03-24T11:36:20Z</time>
      </trkpt>
      <trkpt lat="46.00119" lon="4.75105">
        <ele>175</ele>
        <time>2018-03-24T11:36:21Z</time>
      </trkpt>
      <trkpt lat="46.00113" lon="4.75106">
        <ele>175</ele>
        <time>2018-03-24T11:36:22Z</time>
      </trkpt>
      <trkpt lat="46.00107" lon="4.75106">
        <ele>175</ele>
        <time>2018-03-24T11:36:23Z</time>
      </trkpt>
      <trkpt lat="46.00103" lon="4.75105">
        <ele>175</ele>
        <time>2018-03-24T11:36:24Z</time>
      </trkpt>
      <trkpt lat="46.00097" lon="4.75105">
        <ele>174</ele>
        <time>2018-03-24T11:36:25Z</time>
      </trkpt>
      <trkpt lat="46.00093" lon="4.75104">
        <ele>174</ele>
        <time>2018-03-24T11:36:26Z</time>
      </trkpt>
      <trkpt lat="46.00087" lon="4.75103">
        <ele>174</ele>
        <time>2018-03-24T11:36:27Z</time>
      </trkpt>
      <trkpt lat="46.00081" lon="4.75104">
        <ele>174</ele>
        <time>2018-03-24T11:36:28Z</time>
      </trkpt>
      <trkpt lat="46.00076" lon="4.75104">
        <ele>174</ele>
        <time>2018-03-24T11:36:29Z</time>
      </trkpt>
      <trkpt lat="46.00071" lon="4.75104">
        <ele>174</ele>
        <time>2018-03-24T11:36:30Z</time>
      </trkpt>
      <trkpt lat="46.00065" lon="4.75101">
        <ele>174</ele>
        <time>2018-03-24T11:36:31Z</time>
      </trkpt>
      <trkpt lat="46.0006" lon="4.751">
        <ele>174</ele>
        <time>2018-03-24T11:36:32Z</time>
      </trkpt>
      <trkpt lat="46.00055" lon="4.75101">
        <ele>174</ele>
        <time>2018-03-24T11:36:33Z</time>
      </trkpt>
      <trkpt lat="46.00049" lon="4.75101">
        <ele>174</ele>
        <time>2018-03-24T11:36:34Z</time>
      </trkpt>
      <trkpt lat="46.00042" lon="4.75101">
        <ele>174</ele>
        <time>2018-03-24T11:36:35Z</time>
      </trkpt>
      <trkpt lat="46.00038" lon="4.75102">
        <ele>174</ele>
        <time>2018-03-24T11:36:36Z</time>
      </trkpt>
      <trkpt lat="46.00033" lon="4.75102">
        <ele>174</ele>
        <time>2018-03-24T11:36:37Z</time>
      </trkpt>
      <trkpt lat="46.00027" lon="4.75101">
        <ele>174</ele>
        <time>2018-03-24T11:36:38Z</time>
      </trkpt>
      <trkpt lat="46.00022" lon="4.75102">
        <ele>174</ele>
        <time>2018-03-24T11:36:39Z</time>
      </trkpt>
      <trkpt lat="46.00015" lon="4.75102">
        <ele>174</ele>
        <time>2018-03-24T11:36:40Z</time>
      </trkpt>
      <trkpt lat="46.0001" lon="4.75103">
        <ele>174</ele>
        <time>2018-03-24T11:36:41Z</time>
      </trkpt>
      <trkpt lat="46.00004" lon="4.75105">
        <ele>174</ele>
        <time>2018-03-24T11:36:42Z</time>
      </trkpt>
      <trkpt lat="45.99999" lon="4.75108">
        <ele>173</ele>
        <time>2018-03-24T11:36:43Z</time>
      </trkpt>
      <trkpt lat="45.99993" lon="4.75113">
        <ele>173</ele>
        <time>2018-03-24T11:36:44Z</time>
      </trkpt>
      <trkpt lat="45.99988" lon="4.75115">
        <ele>173</ele>
        <time>2018-03-24T11:36:45Z</time>
      </trkpt>
      <trkpt lat="45.99983" lon="4.75118">
        <ele>173</ele>
        <time>2018-03-24T11:36:46Z</time>
      </trkpt>
      <trkpt lat="45.99978" lon="4.75121">
        <ele>173</ele>
        <time>2018-03-24T11:36:47Z</time>
      </trkpt>
      <trkpt lat="45.99972" lon="4.75125">
        <ele>173</ele>
        <time>2018-03-24T11:36:48Z</time>
      </trkpt>
      <trkpt lat="45.99966" lon="4.75127">
        <ele>173</ele>
        <time>2018-03-24T11:36:49Z</time>
      </trkpt>
      <trkpt lat="45.99961" lon="4.75129">
        <ele>173</ele>
        <time>2018-03-24T11:36:50Z</time>
      </trkpt>
      <trkpt lat="45.99956" lon="4.75132">
        <ele>173</ele>
        <time>2018-03-24T11:36:51Z</time>
      </trkpt>
      <trkpt lat="45.9995" lon="4.75134">
        <ele>173</ele>
        <time>2018-03-24T11:36:52Z</time>
      </trkpt>
      <trkpt lat="45.99944" lon="4.75137">
        <ele>173</ele>
        <time>2018-03-24T11:36:53Z</time>
      </trkpt>
      <trkpt lat="45.99938" lon="4.7514">
        <ele>173</ele>
        <time>2018-03-24T11:36:54Z</time>
      </trkpt>
      <trkpt lat="45.99933" lon="4.75144">
        <ele>173</ele>
        <time>2018-03-24T11:36:55Z</time>
      </trkpt>
      <trkpt lat="45.99927" lon="4.75147">
        <ele>173</ele>
        <time>2018-03-24T11:36:56Z</time>
      </trkpt>
      <trkpt lat="45.99922" lon="4.75149">
        <ele>173</ele>
        <time>2018-03-24T11:36:57Z</time>
      </trkpt>
      <trkpt lat="45.99917" lon="4.7515">
        <ele>172</ele>
        <time>2018-03-24T11:36:58Z</time>
      </trkpt>
      <trkpt lat="45.99912" lon="4.75151">
        <ele>172</ele>
        <time>2018-03-24T11:36:59Z</time>
      </trkpt>
      <trkpt lat="45.99905" lon="4.75153">
        <ele>172</ele>
        <time>2018-03-24T11:37:00Z</time>
      </trkpt>
      <trkpt lat="45.999" lon="4.75156">
        <ele>172</ele>
        <time>2018-03-24T11:37:01Z</time>
      </trkpt>
      <trkpt lat="45.99895" lon="4.75158">
        <ele>172</ele>
        <time>2018-03-24T11:37:02Z</time>
      </trkpt>
      <trkpt lat="45.99891" lon="4.7516">
        <ele>172</ele>
        <time>2018-03-24T11:37:03Z</time>
      </trkpt>
      <trkpt lat="45.99885" lon="4.75164">
        <ele>172</ele>
        <time>2018-03-24T11:37:04Z</time>
      </trkpt>
      <trkpt lat="45.9988" lon="4.75167">
        <ele>174</ele>
        <time>2018-03-24T11:37:05Z</time>
      </trkpt>
      <trkpt lat="45.99875" lon="4.75169">
        <ele>174</ele>
        <time>2018-03-24T11:37:06Z</time>
      </trkpt>
      <trkpt lat="45.99869" lon="4.75171">
        <ele>174</ele>
        <time>2018-03-24T11:37:07Z</time>
      </trkpt>
      <trkpt lat="45.99864" lon="4.75174">
        <ele>174</ele>
        <time>2018-03-24T11:37:08Z</time>
      </trkpt>
      <trkpt lat="45.99859" lon="4.75176">
        <ele>174</ele>
        <time>2018-03-24T11:37:09Z</time>
      </trkpt>
      <trkpt lat="45.99854" lon="4.75179">
        <ele>174</ele>
        <time>2018-03-24T11:37:10Z</time>
      </trkpt>
      <trkpt lat="45.99849" lon="4.75181">
        <ele>174</ele>
        <time>2018-03-24T11:37:11Z</time>
      </trkpt>
      <trkpt lat="45.99844" lon="4.75183">
        <ele>174</ele>
        <time>2018-03-24T11:37:12Z</time>
      </trkpt>
      <trkpt lat="45.99839" lon="4.75185">
        <ele>174</ele>
        <time>2018-03-24T11:37:13Z</time>
      </trkpt>
      <trkpt lat="45.99834" lon="4.75188">
        <ele>174</ele>
        <time>2018-03-24T11:37:14Z</time>
      </trkpt>
      <trkpt lat="45.99828" lon="4.75189">
        <ele>173</ele>
        <time>2018-03-24T11:37:15Z</time>
      </trkpt>
      <trkpt lat="45.99823" lon="4.75191">
        <ele>174</ele>
        <time>2018-03-24T11:37:16Z</time>
      </trkpt>
      <trkpt lat="45.99818" lon="4.75192">
        <ele>174</ele>
        <time>2018-03-24T11:37:17Z</time>
      </trkpt>
      <trkpt lat="45.99814" lon="4.75195">
        <ele>174</ele>
        <time>2018-03-24T11:37:18Z</time>
      </trkpt>
      <trkpt lat="45.99808" lon="4.75197">
        <ele>174</ele>
        <time>2018-03-24T11:37:19Z</time>
      </trkpt>
      <trkpt lat="45.99803" lon="4.75199">
        <ele>174</ele>
        <time>2018-03-24T11:37:20Z</time>
      </trkpt>
      <trkpt lat="45.99797" lon="4.75202">
        <ele>174</ele>
        <time>2018-03-24T11:37:21Z</time>
      </trkpt>
      <trkpt lat="45.99793" lon="4.75205">
        <ele>174</ele>
        <time>2018-03-24T11:37:22Z</time>
      </trkpt>
      <trkpt lat="45.99787" lon="4.75207">
        <ele>174</ele>
        <time>2018-03-24T11:37:23Z</time>
      </trkpt>
      <trkpt lat="45.99783" lon="4.75211">
        <ele>174</ele>
        <time>2018-03-24T11:37:24Z</time>
      </trkpt>
      <trkpt lat="45.99777" lon="4.75213">
        <ele>174</ele>
        <time>2018-03-24T11:37:25Z</time>
      </trkpt>
      <trkpt lat="45.99772" lon="4.75216">
        <ele>174</ele>
        <time>2018-03-24T11:37:26Z</time>
      </trkpt>
      <trkpt lat="45.99766" lon="4.75219">
        <ele>175</ele>
        <time>2018-03-24T11:37:27Z</time>
      </trkpt>
      <trkpt lat="45.99762" lon="4.75222">
        <ele>175</ele>
        <time>2018-03-24T11:37:28Z</time>
      </trkpt>
      <trkpt lat="45.99757" lon="4.75226">
        <ele>175</ele>
        <time>2018-03-24T11:37:29Z</time>
      </trkpt>
      <trkpt lat="45.99752" lon="4.75228">
        <ele>175</ele>
        <time>2018-03-24T11:37:30Z</time>
      </trkpt>
      <trkpt lat="45.99748" lon="4.7523">
        <ele>175</ele>
        <time>2018-03-24T11:37:31Z</time>
      </trkpt>
      <trkpt lat="45.99743" lon="4.75232">
        <ele>175</ele>
        <time>2018-03-24T11:37:32Z</time>
      </trkpt>
      <trkpt lat="45.99739" lon="4.75236">
        <ele>175</ele>
        <time>2018-03-24T11:37:33Z</time>
      </trkpt>
      <trkpt lat="45.99734" lon="4.75238">
        <ele>175</ele>
        <time>2018-03-24T11:37:34Z</time>
      </trkpt>
      <trkpt lat="45.99729" lon="4.75241">
        <ele>175</ele>
        <time>2018-03-24T11:37:35Z</time>
      </trkpt>
      <trkpt lat="45.99724" lon="4.75242">
        <ele>175</ele>
        <time>2018-03-24T11:37:36Z</time>
      </trkpt>
      <trkpt lat="45.99719" lon="4.75244">
        <ele>174</ele>
        <time>2018-03-24T11:37:37Z</time>
      </trkpt>
      <trkpt lat="45.99714" lon="4.75246">
        <ele>174</ele>
        <time>2018-03-24T11:37:38Z</time>
      </trkpt>
      <trkpt lat="45.99709" lon="4.75249">
        <ele>174</ele>
        <time>2018-03-24T11:37:39Z</time>
      </trkpt>
      <trkpt lat="45.99704" lon="4.75251">
        <ele>176</ele>
        <time>2018-03-24T11:37:40Z</time>
      </trkpt>
      <trkpt lat="45.997" lon="4.75255">
        <ele>176</ele>
        <time>2018-03-24T11:37:41Z</time>
      </trkpt>
      <trkpt lat="45.99695" lon="4.75257">
        <ele>176</ele>
        <time>2018-03-24T11:37:42Z</time>
      </trkpt>
      <trkpt lat="45.99691" lon="4.75258">
        <ele>176</ele>
        <time>2018-03-24T11:37:43Z</time>
      </trkpt>
      <trkpt lat="45.99685" lon="4.7526">
        <ele>175</ele>
        <time>2018-03-24T11:37:44Z</time>
      </trkpt>
      <trkpt lat="45.9968" lon="4.75262">
        <ele>175</ele>
        <time>2018-03-24T11:37:45Z</time>
      </trkpt>
      <trkpt lat="45.99676" lon="4.75265">
        <ele>175</ele>
        <time>2018-03-24T11:37:46Z</time>
      </trkpt>
      <trkpt lat="45.99672" lon="4.75267">
        <ele>175</ele>
        <time>2018-03-24T11:37:47Z</time>
      </trkpt>
      <trkpt lat="45.99667" lon="4.75268">
        <ele>175</ele>
        <time>2018-03-24T11:37:48Z</time>
      </trkpt>
      <trkpt lat="45.99663" lon="4.75271">
        <ele>174</ele>
        <time>2018-03-24T11:37:49Z</time>
      </trkpt>
      <trkpt lat="45.99658" lon="4.75272">
        <ele>174</ele>
        <time>2018-03-24T11:37:50Z</time>
      </trkpt>
      <trkpt lat="45.99653" lon="4.75273">
        <ele>174</ele>
        <time>2018-03-24T11:37:51Z</time>
      </trkpt>
      <trkpt lat="45.99649" lon="4.75273">
        <ele>174</ele>
        <time>2018-03-24T11:37:52Z</time>
      </trkpt>
      <trkpt lat="45.99643" lon="4.75273">
        <ele>174</ele>
        <time>2018-03-24T11:37:53Z</time>
      </trkpt>
      <trkpt lat="45.99639" lon="4.75271">
        <ele>174</ele>
        <time>2018-03-24T11:37:54Z</time>
      </trkpt>
      <trkpt lat="45.99632" lon="4.75268">
        <ele>174</ele>
        <time>2018-03-24T11:37:56Z</time>
      </trkpt>
      <trkpt lat="45.99628" lon="4.75267">
        <ele>174</ele>
        <time>2018-03-24T11:37:57Z</time>
      </trkpt>
      <trkpt lat="45.9962" lon="4.75267">
        <ele>174</ele>
        <time>2018-03-24T11:37:59Z</time>
      </trkpt>
      <trkpt lat="45.99615" lon="4.75267">
        <ele>174</ele>
        <time>2018-03-24T11:38:00Z</time>
      </trkpt>
      <trkpt lat="45.99607" lon="4.75269">
        <ele>173</ele>
        <time>2018-03-24T11:38:02Z</time>
      </trkpt>
      <trkpt lat="45.99603" lon="4.75269">
        <ele>173</ele>
        <time>2018-03-24T11:38:03Z</time>
      </trkpt>
      <trkpt lat="45.99595" lon="4.75271">
        <ele>173</ele>
        <time>2018-03-24T11:38:05Z</time>
      </trkpt>
      <trkpt lat="45.99592" lon="4.75271">
        <ele>173</ele>
        <time>2018-03-24T11:38:06Z</time>
      </trkpt>
      <trkpt lat="45.99584" lon="4.75269">
        <ele>173</ele>
        <time>2018-03-24T11:38:08Z</time>
      </trkpt>
      <trkpt lat="45.9958" lon="4.75266">
        <ele>172</ele>
        <time>2018-03-24T11:38:09Z</time>
      </trkpt>
      <trkpt lat="45.99572" lon="4.75262">
        <ele>172</ele>
        <time>2018-03-24T11:38:11Z</time>
      </trkpt>
      <trkpt lat="45.99568" lon="4.75262">
        <ele>172</ele>
        <time>2018-03-24T11:38:12Z</time>
      </trkpt>
      <trkpt lat="45.99563" lon="4.75263">
        <ele>172</ele>
        <time>2018-03-24T11:38:13Z</time>
      </trkpt>
      <trkpt lat="45.99559" lon="4.75266">
        <ele>172</ele>
        <time>2018-03-24T11:38:14Z</time>
      </trkpt>
      <trkpt lat="45.99555" lon="4.75271">
        <ele>172</ele>
        <time>2018-03-24T11:38:15Z</time>
      </trkpt>
      <trkpt lat="45.99551" lon="4.75276">
        <ele>172</ele>
        <time>2018-03-24T11:38:16Z</time>
      </trkpt>
      <trkpt lat="45.99547" lon="4.7528">
        <ele>172</ele>
        <time>2018-03-24T11:38:17Z</time>
      </trkpt>
      <trkpt lat="45.99542" lon="4.75284">
        <ele>172</ele>
        <time>2018-03-24T11:38:18Z</time>
      </trkpt>
      <trkpt lat="45.99537" lon="4.75287">
        <ele>172</ele>
        <time>2018-03-24T11:38:19Z</time>
      </trkpt>
      <trkpt lat="45.99532" lon="4.7529">
        <ele>172</ele>
        <time>2018-03-24T11:38:20Z</time>
      </trkpt>
      <trkpt lat="45.99527" lon="4.75291">
        <ele>172</ele>
        <time>2018-03-24T11:38:21Z</time>
      </trkpt>
      <trkpt lat="45.99521" lon="4.75291">
        <ele>172</ele>
        <time>2018-03-24T11:38:22Z</time>
      </trkpt>
      <trkpt lat="45.99515" lon="4.75293">
        <ele>172</ele>
        <time>2018-03-24T11:38:23Z</time>
      </trkpt>
      <trkpt lat="45.99509" lon="4.75296">
        <ele>172</ele>
        <time>2018-03-24T11:38:24Z</time>
      </trkpt>
      <trkpt lat="45.99503" lon="4.75298">
        <ele>172</ele>
        <time>2018-03-24T11:38:25Z</time>
      </trkpt>
      <trkpt lat="45.99497" lon="4.75299">
        <ele>171</ele>
        <time>2018-03-24T11:38:26Z</time>
      </trkpt>
      <trkpt lat="45.99492" lon="4.75301">
        <ele>171</ele>
        <time>2018-03-24T11:38:27Z</time>
      </trkpt>
      <trkpt lat="45.99486" lon="4.75301">
        <ele>171</ele>
        <time>2018-03-24T11:38:28Z</time>
      </trkpt>
      <trkpt lat="45.9948" lon="4.75302">
        <ele>171</ele>
        <time>2018-03-24T11:38:29Z</time>
      </trkpt>
      <trkpt lat="45.99476" lon="4.75303">
        <ele>171</ele>
        <time>2018-03-24T11:38:30Z</time>
      </trkpt>
      <trkpt lat="45.99471" lon="4.75304">
        <ele>171</ele>
        <time>2018-03-24T11:38:31Z</time>
      </trkpt>
      <trkpt lat="45.99466" lon="4.75305">
        <ele>171</ele>
        <time>2018-03-24T11:38:32Z</time>
      </trkpt>
      <trkpt lat="45.99459" lon="4.75305">
        <ele>171</ele>
        <time>2018-03-24T11:38:33Z</time>
      </trkpt>
      <trkpt lat="45.99453" lon="4.75306">
        <ele>171</ele>
        <time>2018-03-24T11:38:34Z</time>
      </trkpt>
      <trkpt lat="45.99447" lon="4.75307">
        <ele>171</ele>
        <time>2018-03-24T11:38:35Z</time>
      </trkpt>
      <trkpt lat="45.99442" lon="4.75309">
        <ele>171</ele>
        <time>2018-03-24T11:38:36Z</time>
      </trkpt>
      <trkpt lat="45.99436" lon="4.7531">
        <ele>171</ele>
        <time>2018-03-24T11:38:37Z</time>
      </trkpt>
      <trkpt lat="45.99431" lon="4.75311">
        <ele>171</ele>
        <time>2018-03-24T11:38:38Z</time>
      </trkpt>
      <trkpt lat="45.99425" lon="4.75313">
        <ele>171</ele>
        <time>2018-03-24T11:38:39Z</time>
      </trkpt>
      <trkpt lat="45.99421" lon="4.75313">
        <ele>171</ele>
        <time>2018-03-24T11:38:40Z</time>
      </trkpt>
      <trkpt lat="45.99416" lon="4.75314">
        <ele>170</ele>
        <time>2018-03-24T11:38:41Z</time>
      </trkpt>
      <trkpt lat="45.9941" lon="4.75317">
        <ele>170</ele>
        <time>2018-03-24T11:38:42Z</time>
      </trkpt>
      <trkpt lat="45.99405" lon="4.75319">
        <ele>170</ele>
        <time>2018-03-24T11:38:43Z</time>
      </trkpt>
      <trkpt lat="45.994" lon="4.75322">
        <ele>170</ele>
        <time>2018-03-24T11:38:44Z</time>
      </trkpt>
      <trkpt lat="45.99396" lon="4.75325">
        <ele>170</ele>
        <time>2018-03-24T11:38:45Z</time>
      </trkpt>
      <trkpt lat="45.9939" lon="4.75329">
        <ele>170</ele>
        <time>2018-03-24T11:38:46Z</time>
      </trkpt>
      <trkpt lat="45.99384" lon="4.75333">
        <ele>170</ele>
        <time>2018-03-24T11:38:47Z</time>
      </trkpt>
      <trkpt lat="45.99379" lon="4.75339">
        <ele>171</ele>
        <time>2018-03-24T11:38:48Z</time>
      </trkpt>
      <trkpt lat="45.99374" lon="4.75344">
        <ele>172</ele>
        <time>2018-03-24T11:38:49Z</time>
      </trkpt>
      <trkpt lat="45.99369" lon="4.7535">
        <ele>172</ele>
        <time>2018-03-24T11:38:50Z</time>
      </trkpt>
      <trkpt lat="45.99365" lon="4.75356">
        <ele>172</ele>
        <time>2018-03-24T11:38:51Z</time>
      </trkpt>
      <trkpt lat="45.99362" lon="4.75365">
        <ele>172</ele>
        <time>2018-03-24T11:38:52Z</time>
      </trkpt>
      <trkpt lat="45.99359" lon="4.75372">
        <ele>172</ele>
        <time>2018-03-24T11:38:53Z</time>
      </trkpt>
      <trkpt lat="45.99356" lon="4.75378">
        <ele>172</ele>
        <time>2018-03-24T11:38:54Z</time>
      </trkpt>
      <trkpt lat="45.99352" lon="4.75384">
        <ele>172</ele>
        <time>2018-03-24T11:38:55Z</time>
      </trkpt>
      <trkpt lat="45.99349" lon="4.7539">
        <ele>172</ele>
        <time>2018-03-24T11:38:56Z</time>
      </trkpt>
      <trkpt lat="45.99345" lon="4.75395">
        <ele>173</ele>
        <time>2018-03-24T11:38:57Z</time>
      </trkpt>
      <trkpt lat="45.99342" lon="4.754">
        <ele>173</ele>
        <time>2018-03-24T11:38:58Z</time>
      </trkpt>
      <trkpt lat="45.9934" lon="4.75404">
        <ele>173</ele>
        <time>2018-03-24T11:38:59Z</time>
      </trkpt>
      <trkpt lat="45.99338" lon="4.75412">
        <ele>173</ele>
        <time>2018-03-24T11:39:00Z</time>
      </trkpt>
      <trkpt lat="45.99338" lon="4.75421">
        <ele>174</ele>
        <time>2018-03-24T11:39:01Z</time>
      </trkpt>
      <trkpt lat="45.99337" lon="4.75429">
        <ele>175</ele>
        <time>2018-03-24T11:39:02Z</time>
      </trkpt>
      <trkpt lat="45.99336" lon="4.75436">
        <ele>175</ele>
        <time>2018-03-24T11:39:03Z</time>
      </trkpt>
      <trkpt lat="45.99333" lon="4.75442">
        <ele>173</ele>
        <time>2018-03-24T11:39:04Z</time>
      </trkpt>
      <trkpt lat="45.99332" lon="4.7545">
        <ele>173</ele>
        <time>2018-03-24T11:39:05Z</time>
      </trkpt>
      <trkpt lat="45.99329" lon="4.75456">
        <ele>174</ele>
        <time>2018-03-24T11:39:06Z</time>
      </trkpt>
      <trkpt lat="45.99326" lon="4.75462">
        <ele>174</ele>
        <time>2018-03-24T11:39:07Z</time>
      </trkpt>
      <trkpt lat="45.99324" lon="4.75469">
        <ele>174</ele>
        <time>2018-03-24T11:39:08Z</time>
      </trkpt>
      <trkpt lat="45.99321" lon="4.75475">
        <ele>174</ele>
        <time>2018-03-24T11:39:09Z</time>
      </trkpt>
      <trkpt lat="45.99317" lon="4.75481">
        <ele>174</ele>
        <time>2018-03-24T11:39:10Z</time>
      </trkpt>
      <trkpt lat="45.99314" lon="4.75487">
        <ele>175</ele>
        <time>2018-03-24T11:39:11Z</time>
      </trkpt>
      <trkpt lat="45.99311" lon="4.75494">
        <ele>175</ele>
        <time>2018-03-24T11:39:12Z</time>
      </trkpt>
      <trkpt lat="45.99306" lon="4.75499">
        <ele>174</ele>
        <time>2018-03-24T11:39:13Z</time>
      </trkpt>
      <trkpt lat="45.99302" lon="4.75503">
        <ele>177</ele>
        <time>2018-03-24T11:39:14Z</time>
      </trkpt>
      <trkpt lat="45.99299" lon="4.75508">
        <ele>177</ele>
        <time>2018-03-24T11:39:15Z</time>
      </trkpt>
      <trkpt lat="45.99294" lon="4.75512">
        <ele>176</ele>
        <time>2018-03-24T11:39:16Z</time>
      </trkpt>
      <trkpt lat="45.99289" lon="4.75517">
        <ele>176</ele>
        <time>2018-03-24T11:39:17Z</time>
      </trkpt>
      <trkpt lat="45.99285" lon="4.75521">
        <ele>176</ele>
        <time>2018-03-24T11:39:18Z</time>
      </trkpt>
      <trkpt lat="45.99281" lon="4.75525">
        <ele>176</ele>
        <time>2018-03-24T11:39:19Z</time>
      </trkpt>
      <trkpt lat="45.99276" lon="4.75529">
        <ele>176</ele>
        <time>2018-03-24T11:39:20Z</time>
      </trkpt>
      <trkpt lat="45.99272" lon="4.75532">
        <ele>176</ele>
        <time>2018-03-24T11:39:21Z</time>
      </trkpt>
      <trkpt lat="45.99268" lon="4.75535">
        <ele>176</ele>
        <time>2018-03-24T11:39:22Z</time>
      </trkpt>
      <trkpt lat="45.99264" lon="4.75539">
        <ele>176</ele>
        <time>2018-03-24T11:39:23Z</time>
      </trkpt>
      <trkpt lat="45.9926" lon="4.75542">
        <ele>176</ele>
        <time>2018-03-24T11:39:24Z</time>
      </trkpt>
      <trkpt lat="45.99255" lon="4.75545">
        <ele>176</ele>
        <time>2018-03-24T11:39:25Z</time>
      </trkpt>
      <trkpt lat="45.99251" lon="4.75548">
        <ele>176</ele>
        <time>2018-03-24T11:39:26Z</time>
      </trkpt>
      <trkpt lat="45.99247" lon="4.75552">
        <ele>175</ele>
        <time>2018-03-24T11:39:27Z</time>
      </trkpt>
      <trkpt lat="45.99242" lon="4.75556">
        <ele>175</ele>
        <time>2018-03-24T11:39:28Z</time>
      </trkpt>
      <trkpt lat="45.99238" lon="4.75559">
        <ele>175</ele>
        <time>2018-03-24T11:39:29Z</time>
      </trkpt>
      <trkpt lat="45.99233" lon="4.75562">
        <ele>175</ele>
        <time>2018-03-24T11:39:30Z</time>
      </trkpt>
      <trkpt lat="45.99229" lon="4.75565">
        <ele>175</ele>
        <time>2018-03-24T11:39:31Z</time>
      </trkpt>
      <trkpt lat="45.99224" lon="4.75568">
        <ele>175</ele>
        <time>2018-03-24T11:39:32Z</time>
      </trkpt>
      <trkpt lat="45.99219" lon="4.75571">
        <ele>175</ele>
        <time>2018-03-24T11:39:33Z</time>
      </trkpt>
      <trkpt lat="45.99215" lon="4.75574">
        <ele>175</ele>
        <time>2018-03-24T11:39:34Z</time>
      </trkpt>
      <trkpt lat="45.99211" lon="4.75577">
        <ele>175</ele>
        <time>2018-03-24T11:39:35Z</time>
      </trkpt>
      <trkpt lat="45.99206" lon="4.75579">
        <ele>175</ele>
        <time>2018-03-24T11:39:36Z</time>
      </trkpt>
      <trkpt lat="45.99198" lon="4.75584">
        <ele>178</ele>
        <time>2018-03-24T11:39:38Z</time>
      </trkpt>
      <trkpt lat="45.99193" lon="4.75587">
        <ele>178</ele>
        <time>2018-03-24T11:39:39Z</time>
      </trkpt>
      <trkpt lat="45.99185" lon="4.75591">
        <ele>177</ele>
        <time>2018-03-24T11:39:41Z</time>
      </trkpt>
      <trkpt lat="45.99181" lon="4.75593">
        <ele>177</ele>
        <time>2018-03-24T11:39:42Z</time>
      </trkpt>
      <trkpt lat="45.99176" lon="4.75595">
        <ele>177</ele>
        <time>2018-03-24T11:39:43Z</time>
      </trkpt>
      <trkpt lat="45.99172" lon="4.75598">
        <ele>177</ele>
        <time>2018-03-24T11:39:44Z</time>
      </trkpt>
      <trkpt lat="45.99164" lon="4.756">
        <ele>176</ele>
        <time>2018-03-24T11:39:46Z</time>
      </trkpt>
      <trkpt lat="45.99161" lon="4.75601">
        <ele>176</ele>
        <time>2018-03-24T11:39:47Z</time>
      </trkpt>
      <trkpt lat="45.99157" lon="4.75604">
        <ele>176</ele>
        <time>2018-03-24T11:39:48Z</time>
      </trkpt>
      <trkpt lat="45.99152" lon="4.75606">
        <ele>176</ele>
        <time>2018-03-24T11:39:49Z</time>
      </trkpt>
      <trkpt lat="45.99147" lon="4.75607">
        <ele>176</ele>
        <time>2018-03-24T11:39:50Z</time>
      </trkpt>
      <trkpt lat="45.99142" lon="4.75607">
        <ele>176</ele>
        <time>2018-03-24T11:39:51Z</time>
      </trkpt>
      <trkpt lat="45.99137" lon="4.75606">
        <ele>176</ele>
        <time>2018-03-24T11:39:52Z</time>
      </trkpt>
      <trkpt lat="45.99132" lon="4.75606">
        <ele>176</ele>
        <time>2018-03-24T11:39:53Z</time>
      </trkpt>
      <trkpt lat="45.99128" lon="4.75606">
        <ele>176</ele>
        <time>2018-03-24T11:39:54Z</time>
      </trkpt>
      <trkpt lat="45.99123" lon="4.7561">
        <ele>176</ele>
        <time>2018-03-24T11:39:55Z</time>
      </trkpt>
      <trkpt lat="45.9912" lon="4.75615">
        <ele>177</ele>
        <time>2018-03-24T11:39:56Z</time>
      </trkpt>
      <trkpt lat="45.99117" lon="4.75622">
        <ele>177</ele>
        <time>2018-03-24T11:39:57Z</time>
      </trkpt>
      <trkpt lat="45.99114" lon="4.75628">
        <ele>177</ele>
        <time>2018-03-24T11:39:58Z</time>
      </trkpt>
      <trkpt lat="45.99111" lon="4.75634">
        <ele>177</ele>
        <time>2018-03-24T11:39:59Z</time>
      </trkpt>
      <trkpt lat="45.99108" lon="4.75641">
        <ele>178</ele>
        <time>2018-03-24T11:40:00Z</time>
      </trkpt>
      <trkpt lat="45.99104" lon="4.75645">
        <ele>178</ele>
        <time>2018-03-24T11:40:01Z</time>
      </trkpt>
      <trkpt lat="45.991" lon="4.75648">
        <ele>178</ele>
        <time>2018-03-24T11:40:02Z</time>
      </trkpt>
      <trkpt lat="45.99096" lon="4.75651">
        <ele>178</ele>
        <time>2018-03-24T11:40:03Z</time>
      </trkpt>
      <trkpt lat="45.99091" lon="4.75654">
        <ele>179</ele>
        <time>2018-03-24T11:40:04Z</time>
      </trkpt>
      <trkpt lat="45.99086" lon="4.75657">
        <ele>179</ele>
        <time>2018-03-24T11:40:05Z</time>
      </trkpt>
      <trkpt lat="45.99081" lon="4.75659">
        <ele>179</ele>
        <time>2018-03-24T11:40:06Z</time>
      </trkpt>
      <trkpt lat="45.99077" lon="4.7566">
        <ele>179</ele>
        <time>2018-03-24T11:40:07Z</time>
      </trkpt>
      <trkpt lat="45.99068" lon="4.75662">
        <ele>178</ele>
        <time>2018-03-24T11:40:09Z</time>
      </trkpt>
      <trkpt lat="45.99062" lon="4.7566">
        <ele>178</ele>
        <time>2018-03-24T11:40:10Z</time>
      </trkpt>
      <trkpt lat="45.99056" lon="4.7566">
        <ele>178</ele>
        <time>2018-03-24T11:40:11Z</time>
      </trkpt>
      <trkpt lat="45.99051" lon="4.75658">
        <ele>178</ele>
        <time>2018-03-24T11:40:12Z</time>
      </trkpt>
      <trkpt lat="45.99045" lon="4.75664">
        <ele>178</ele>
        <time>2018-03-24T11:40:14Z</time>
      </trkpt>
      <trkpt lat="45.99039" lon="4.75662">
        <ele>178</ele>
        <time>2018-03-24T11:40:15Z</time>
      </trkpt>
      <trkpt lat="45.99034" lon="4.75662">
        <ele>178</ele>
        <time>2018-03-24T11:40:16Z</time>
      </trkpt>
      <trkpt lat="45.99029" lon="4.75661">
        <ele>178</ele>
        <time>2018-03-24T11:40:17Z</time>
      </trkpt>
      <trkpt lat="45.99024" lon="4.7566">
        <ele>178</ele>
        <time>2018-03-24T11:40:18Z</time>
      </trkpt>
      <trkpt lat="45.99019" lon="4.7566">
        <ele>178</ele>
        <time>2018-03-24T11:40:19Z</time>
      </trkpt>
      <trkpt lat="45.99014" lon="4.75659">
        <ele>178</ele>
        <time>2018-03-24T11:40:20Z</time>
      </trkpt>
      <trkpt lat="45.99007" lon="4.75659">
        <ele>179</ele>
        <time>2018-03-24T11:40:21Z</time>
      </trkpt>
      <trkpt lat="45.99002" lon="4.75658">
        <ele>179</ele>
        <time>2018-03-24T11:40:22Z</time>
      </trkpt>
      <trkpt lat="45.98996" lon="4.75656">
        <ele>178</ele>
        <time>2018-03-24T11:40:23Z</time>
      </trkpt>
      <trkpt lat="45.9899" lon="4.75653">
        <ele>178</ele>
        <time>2018-03-24T11:40:24Z</time>
      </trkpt>
      <trkpt lat="45.98985" lon="4.75652">
        <ele>178</ele>
        <time>2018-03-24T11:40:25Z</time>
      </trkpt>
      <trkpt lat="45.9898" lon="4.75653">
        <ele>177</ele>
        <time>2018-03-24T11:40:26Z</time>
      </trkpt>
      <trkpt lat="45.98975" lon="4.75657">
        <ele>177</ele>
        <time>2018-03-24T11:40:27Z</time>
      </trkpt>
      <trkpt lat="45.98969" lon="4.75658">
        <ele>177</ele>
        <time>2018-03-24T11:40:28Z</time>
      </trkpt>
      <trkpt lat="45.98964" lon="4.7566">
        <ele>177</ele>
        <time>2018-03-24T11:40:29Z</time>
      </trkpt>
      <trkpt lat="45.98958" lon="4.75662">
        <ele>177</ele>
        <time>2018-03-24T11:40:30Z</time>
      </trkpt>
      <trkpt lat="45.98953" lon="4.75665">
        <ele>177</ele>
        <time>2018-03-24T11:40:31Z</time>
      </trkpt>
      <trkpt lat="45.98948" lon="4.75666">
        <ele>177</ele>
        <time>2018-03-24T11:40:32Z</time>
      </trkpt>
      <trkpt lat="45.98942" lon="4.75667">
        <ele>180</ele>
        <time>2018-03-24T11:40:33Z</time>
      </trkpt>
      <trkpt lat="45.98936" lon="4.75669">
        <ele>180</ele>
        <time>2018-03-24T11:40:34Z</time>
      </trkpt>
      <trkpt lat="45.98931" lon="4.75671">
        <ele>179</ele>
        <time>2018-03-24T11:40:35Z</time>
      </trkpt>
      <trkpt lat="45.98926" lon="4.75672">
        <ele>179</ele>
        <time>2018-03-24T11:40:36Z</time>
      </trkpt>
      <trkpt lat="45.98921" lon="4.75676">
        <ele>179</ele>
        <time>2018-03-24T11:40:37Z</time>
      </trkpt>
      <trkpt lat="45.98916" lon="4.75679">
        <ele>178</ele>
        <time>2018-03-24T11:40:38Z</time>
      </trkpt>
      <trkpt lat="45.98911" lon="4.75681">
        <ele>179</ele>
        <time>2018-03-24T11:40:39Z</time>
      </trkpt>
      <trkpt lat="45.98906" lon="4.75684">
        <ele>179</ele>
        <time>2018-03-24T11:40:40Z</time>
      </trkpt>
      <trkpt lat="45.98901" lon="4.75686">
        <ele>179</ele>
        <time>2018-03-24T11:40:41Z</time>
      </trkpt>
      <trkpt lat="45.98896" lon="4.75689">
        <ele>179</ele>
        <time>2018-03-24T11:40:42Z</time>
      </trkpt>
      <trkpt lat="45.9889" lon="4.75691">
        <ele>179</ele>
        <time>2018-03-24T11:40:43Z</time>
      </trkpt>
      <trkpt lat="45.98886" lon="4.75695">
        <ele>180</ele>
        <time>2018-03-24T11:40:44Z</time>
      </trkpt>
      <trkpt lat="45.98881" lon="4.75697">
        <ele>180</ele>
        <time>2018-03-24T11:40:45Z</time>
      </trkpt>
      <trkpt lat="45.98877" lon="4.75699">
        <ele>180</ele>
        <time>2018-03-24T11:40:46Z</time>
      </trkpt>
      <trkpt lat="45.98872" lon="4.75701">
        <ele>180</ele>
        <time>2018-03-24T11:40:47Z</time>
      </trkpt>
      <trkpt lat="45.98867" lon="4.75702">
        <ele>180</ele>
        <time>2018-03-24T11:40:48Z</time>
      </trkpt>
      <trkpt lat="45.98863" lon="4.75704">
        <ele>180</ele>
        <time>2018-03-24T11:40:49Z</time>
      </trkpt>
      <trkpt lat="45.98859" lon="4.75705">
        <ele>180</ele>
        <time>2018-03-24T11:40:50Z</time>
      </trkpt>
      <trkpt lat="45.98853" lon="4.75705">
        <ele>180</ele>
        <time>2018-03-24T11:40:51Z</time>
      </trkpt>
      <trkpt lat="45.98848" lon="4.75706">
        <ele>180</ele>
        <time>2018-03-24T11:40:52Z</time>
      </trkpt>
      <trkpt lat="45.98844" lon="4.75707">
        <ele>180</ele>
        <time>2018-03-24T11:40:53Z</time>
      </trkpt>
      <trkpt lat="45.98835" lon="4.75709">
        <ele>180</ele>
        <time>2018-03-24T11:40:55Z</time>
      </trkpt>
      <trkpt lat="45.9883" lon="4.75709">
        <ele>179</ele>
        <time>2018-03-24T11:40:56Z</time>
      </trkpt>
      <trkpt lat="45.98825" lon="4.7571">
        <ele>179</ele>
        <time>2018-03-24T11:40:57Z</time>
      </trkpt>
      <trkpt lat="45.9882" lon="4.75711">
        <ele>179</ele>
        <time>2018-03-24T11:40:58Z</time>
      </trkpt>
      <trkpt lat="45.98815" lon="4.75712">
        <ele>179</ele>
        <time>2018-03-24T11:40:59Z</time>
      </trkpt>
      <trkpt lat="45.98811" lon="4.75714">
        <ele>179</ele>
        <time>2018-03-24T11:41:00Z</time>
      </trkpt>
      <trkpt lat="45.98805" lon="4.75714">
        <ele>178</ele>
        <time>2018-03-24T11:41:01Z</time>
      </trkpt>
      <trkpt lat="45.988" lon="4.75715">
        <ele>178</ele>
        <time>2018-03-24T11:41:02Z</time>
      </trkpt>
      <trkpt lat="45.98795" lon="4.75715">
        <ele>178</ele>
        <time>2018-03-24T11:41:03Z</time>
      </trkpt>
      <trkpt lat="45.9879" lon="4.75716">
        <ele>178</ele>
        <time>2018-03-24T11:41:04Z</time>
      </trkpt>
      <trkpt lat="45.98781" lon="4.75718">
        <ele>178</ele>
        <time>2018-03-24T11:41:06Z</time>
      </trkpt>
      <trkpt lat="45.98777" lon="4.75716">
        <ele>178</ele>
        <time>2018-03-24T11:41:07Z</time>
      </trkpt>
      <trkpt lat="45.98769" lon="4.75714">
        <ele>178</ele>
        <time>2018-03-24T11:41:09Z</time>
      </trkpt>
      <trkpt lat="45.98766" lon="4.75716">
        <ele>178</ele>
        <time>2018-03-24T11:41:10Z</time>
      </trkpt>
      <trkpt lat="45.98761" lon="4.75722">
        <ele>178</ele>
        <time>2018-03-24T11:41:12Z</time>
      </trkpt>
      <trkpt lat="45.98761" lon="4.75727">
        <ele>178</ele>
        <time>2018-03-24T11:41:13Z</time>
      </trkpt>
      <trkpt lat="45.98763" lon="4.75738">
        <ele>178</ele>
        <time>2018-03-24T11:41:15Z</time>
      </trkpt>
      <trkpt lat="45.98764" lon="4.75744">
        <ele>178</ele>
        <time>2018-03-24T11:41:16Z</time>
      </trkpt>
      <trkpt lat="45.98763" lon="4.75752">
        <ele>179</ele>
        <time>2018-03-24T11:41:17Z</time>
      </trkpt>
      <trkpt lat="45.98762" lon="4.75758">
        <ele>179</ele>
        <time>2018-03-24T11:41:18Z</time>
      </trkpt>
      <trkpt lat="45.9876" lon="4.75764">
        <ele>179</ele>
        <time>2018-03-24T11:41:19Z</time>
      </trkpt>
      <trkpt lat="45.98759" lon="4.75772">
        <ele>179</ele>
        <time>2018-03-24T11:41:20Z</time>
      </trkpt>
      <trkpt lat="45.98757" lon="4.75784">
        <ele>179</ele>
        <time>2018-03-24T11:41:22Z</time>
      </trkpt>
      <trkpt lat="45.98756" lon="4.75791">
        <ele>179</ele>
        <time>2018-03-24T11:41:23Z</time>
      </trkpt>
      <trkpt lat="45.98755" lon="4.75798">
        <ele>179</ele>
        <time>2018-03-24T11:41:24Z</time>
      </trkpt>
      <trkpt lat="45.98755" lon="4.75804">
        <ele>179</ele>
        <time>2018-03-24T11:41:25Z</time>
      </trkpt>
      <trkpt lat="45.98753" lon="4.75814">
        <ele>179</ele>
        <time>2018-03-24T11:41:27Z</time>
      </trkpt>
      <trkpt lat="45.98752" lon="4.75819">
        <ele>179</ele>
        <time>2018-03-24T11:41:28Z</time>
      </trkpt>
      <trkpt lat="45.98748" lon="4.7583">
        <ele>178</ele>
        <time>2018-03-24T11:41:30Z</time>
      </trkpt>
      <trkpt lat="45.98747" lon="4.75837">
        <ele>178</ele>
        <time>2018-03-24T11:41:31Z</time>
      </trkpt>
      <trkpt lat="45.98745" lon="4.75847">
        <ele>178</ele>
        <time>2018-03-24T11:41:33Z</time>
      </trkpt>
      <trkpt lat="45.98743" lon="4.75854">
        <ele>179</ele>
        <time>2018-03-24T11:41:34Z</time>
      </trkpt>
      <trkpt lat="45.98741" lon="4.75866">
        <ele>179</ele>
        <time>2018-03-24T11:41:36Z</time>
      </trkpt>
      <trkpt lat="45.9874" lon="4.75872">
        <ele>179</ele>
        <time>2018-03-24T11:41:37Z</time>
      </trkpt>
      <trkpt lat="45.98738" lon="4.75883">
        <ele>179</ele>
        <time>2018-03-24T11:41:39Z</time>
      </trkpt>
      <trkpt lat="45.98737" lon="4.7589">
        <ele>179</ele>
        <time>2018-03-24T11:41:40Z</time>
      </trkpt>
      <trkpt lat="45.98735" lon="4.75902">
        <ele>179</ele>
        <time>2018-03-24T11:41:42Z</time>
      </trkpt>
      <trkpt lat="45.98734" lon="4.75907">
        <ele>179</ele>
        <time>2018-03-24T11:41:43Z</time>
      </trkpt>
      <trkpt lat="45.98733" lon="4.75918">
        <ele>180</ele>
        <time>2018-03-24T11:41:45Z</time>
      </trkpt>
      <trkpt lat="45.98732" lon="4.75923">
        <ele>180</ele>
        <time>2018-03-24T11:41:46Z</time>
      </trkpt>
      <trkpt lat="45.98731" lon="4.75935">
        <ele>180</ele>
        <time>2018-03-24T11:41:48Z</time>
      </trkpt>
      <trkpt lat="45.9873" lon="4.75941">
        <ele>180</ele>
        <time>2018-03-24T11:41:49Z</time>
      </trkpt>
      <trkpt lat="45.9873" lon="4.75947">
        <ele>180</ele>
        <time>2018-03-24T11:41:50Z</time>
      </trkpt>
      <trkpt lat="45.98729" lon="4.75954">
        <ele>180</ele>
        <time>2018-03-24T11:41:51Z</time>
      </trkpt>
      <trkpt lat="45.98728" lon="4.75966">
        <ele>181</ele>
        <time>2018-03-24T11:41:53Z</time>
      </trkpt>
      <trkpt lat="45.98727" lon="4.75973">
        <ele>181</ele>
        <time>2018-03-24T11:41:54Z</time>
      </trkpt>
      <trkpt lat="45.98725" lon="4.75985">
        <ele>181</ele>
        <time>2018-03-24T11:41:56Z</time>
      </trkpt>
      <trkpt lat="45.98724" lon="4.75992">
        <ele>181</ele>
        <time>2018-03-24T11:41:57Z</time>
      </trkpt>
      <trkpt lat="45.98724" lon="4.76003">
        <ele>181</ele>
        <time>2018-03-24T11:41:59Z</time>
      </trkpt>
      <trkpt lat="45.98724" lon="4.7601">
        <ele>181</ele>
        <time>2018-03-24T11:42:00Z</time>
      </trkpt>
      <trkpt lat="45.98723" lon="4.76022">
        <ele>182</ele>
        <time>2018-03-24T11:42:02Z</time>
      </trkpt>
      <trkpt lat="45.98723" lon="4.76028">
        <ele>182</ele>
        <time>2018-03-24T11:42:03Z</time>
      </trkpt>
      <trkpt lat="45.98722" lon="4.76038">
        <ele>182</ele>
        <time>2018-03-24T11:42:05Z</time>
      </trkpt>
      <trkpt lat="45.98721" lon="4.76044">
        <ele>182</ele>
        <time>2018-03-24T11:42:06Z</time>
      </trkpt>
      <trkpt lat="45.98719" lon="4.76055">
        <ele>182</ele>
        <time>2018-03-24T11:42:08Z</time>
      </trkpt>
      <trkpt lat="45.98718" lon="4.7606">
        <ele>182</ele>
        <time>2018-03-24T11:42:09Z</time>
      </trkpt>
      <trkpt lat="45.98718" lon="4.76072">
        <ele>182</ele>
        <time>2018-03-24T11:42:11Z</time>
      </trkpt>
      <trkpt lat="45.98717" lon="4.76074">
        <ele>182</ele>
        <time>2018-03-24T11:42:12Z</time>
      </trkpt>
      <trkpt lat="45.98717" lon="4.76082">
        <ele>182</ele>
        <time>2018-03-24T11:42:13Z</time>
      </trkpt>
      <trkpt lat="45.98716" lon="4.76088">
        <ele>183</ele>
        <time>2018-03-24T11:42:14Z</time>
      </trkpt>
      <trkpt lat="45.98715" lon="4.76099">
        <ele>183</ele>
        <time>2018-03-24T11:42:16Z</time>
      </trkpt>
      <trkpt lat="45.98715" lon="4.76105">
        <ele>183</ele>
        <time>2018-03-24T11:42:17Z</time>
      </trkpt>
      <trkpt lat="45.98713" lon="4.76117">
        <ele>183</ele>
        <time>2018-03-24T11:42:19Z</time>
      </trkpt>
      <trkpt lat="45.98712" lon="4.76123">
        <ele>183</ele>
        <time>2018-03-24T11:42:20Z</time>
      </trkpt>
      <trkpt lat="45.98712" lon="4.76135">
        <ele>183</ele>
        <time>2018-03-24T11:42:22Z</time>
      </trkpt>
      <trkpt lat="45.98711" lon="4.76141">
        <ele>183</ele>
        <time>2018-03-24T11:42:23Z</time>
      </trkpt>
      <trkpt lat="45.9871" lon="4.76153">
        <ele>183</ele>
        <time>2018-03-24T11:42:25Z</time>
      </trkpt>
      <trkpt lat="45.9871" lon="4.76158">
        <ele>184</ele>
        <time>2018-03-24T11:42:26Z</time>
      </trkpt>
      <trkpt lat="45.98709" lon="4.76168">
        <ele>184</ele>
        <time>2018-03-24T11:42:28Z</time>
      </trkpt>
      <trkpt lat="45.98709" lon="4.76171">
        <ele>184</ele>
        <time>2018-03-24T11:42:29Z</time>
      </trkpt>
      <trkpt lat="45.98708" lon="4.76179">
        <ele>184</ele>
        <time>2018-03-24T11:42:30Z</time>
      </trkpt>
      <trkpt lat="45.98707" lon="4.76184">
        <ele>184</ele>
        <time>2018-03-24T11:42:31Z</time>
      </trkpt>
      <trkpt lat="45.98707" lon="4.76194">
        <ele>184</ele>
        <time>2018-03-24T11:42:34Z</time>
      </trkpt>
      <trkpt lat="45.98706" lon="4.76198">
        <ele>184</ele>
        <time>2018-03-24T11:42:35Z</time>
      </trkpt>
      <trkpt lat="45.98703" lon="4.76209">
        <ele>184</ele>
        <time>2018-03-24T11:42:38Z</time>
      </trkpt>
      <trkpt lat="45.98702" lon="4.76212">
        <ele>184</ele>
        <time>2018-03-24T11:42:39Z</time>
      </trkpt>
      <trkpt lat="45.98698" lon="4.7622">
        <ele>184</ele>
        <time>2018-03-24T11:42:41Z</time>
      </trkpt>
      <trkpt lat="45.98692" lon="4.76229">
        <ele>184</ele>
        <time>2018-03-24T11:42:42Z</time>
      </trkpt>
      <trkpt lat="45.98686" lon="4.76232">
        <ele>184</ele>
        <time>2018-03-24T11:42:44Z</time>
      </trkpt>
      <trkpt lat="45.98682" lon="4.76232">
        <ele>184</ele>
        <time>2018-03-24T11:42:45Z</time>
      </trkpt>
      <trkpt lat="45.98674" lon="4.76232">
        <ele>184</ele>
        <time>2018-03-24T11:42:47Z</time>
      </trkpt>
      <trkpt lat="45.9867" lon="4.76231">
        <ele>184</ele>
        <time>2018-03-24T11:42:48Z</time>
      </trkpt>
      <trkpt lat="45.98665" lon="4.76231">
        <ele>185</ele>
        <time>2018-03-24T11:42:50Z</time>
      </trkpt>
      <trkpt lat="45.9866" lon="4.76231">
        <ele>185</ele>
        <time>2018-03-24T11:42:51Z</time>
      </trkpt>
      <trkpt lat="45.98656" lon="4.7623">
        <ele>185</ele>
        <time>2018-03-24T11:42:53Z</time>
      </trkpt>
      <trkpt lat="45.98649" lon="4.7623">
        <ele>185</ele>
        <time>2018-03-24T11:42:54Z</time>
      </trkpt>
      <trkpt lat="45.9864" lon="4.76229">
        <ele>185</ele>
        <time>2018-03-24T11:42:56Z</time>
      </trkpt>
      <trkpt lat="45.98638" lon="4.76228">
        <ele>185</ele>
        <time>2018-03-24T11:42:57Z</time>
      </trkpt>
      <trkpt lat="45.98632" lon="4.76226">
        <ele>186</ele>
        <time>2018-03-24T11:42:59Z</time>
      </trkpt>
      <trkpt lat="45.98629" lon="4.76224">
        <ele>186</ele>
        <time>2018-03-24T11:43:00Z</time>
      </trkpt>
      <trkpt lat="45.98623" lon="4.76219">
        <ele>186</ele>
        <time>2018-03-24T11:43:02Z</time>
      </trkpt>
      <trkpt lat="45.9862" lon="4.76217">
        <ele>186</ele>
        <time>2018-03-24T11:43:03Z</time>
      </trkpt>
      <trkpt lat="45.98612" lon="4.76214">
        <ele>186</ele>
        <time>2018-03-24T11:43:06Z</time>
      </trkpt>
      <trkpt lat="45.9861" lon="4.76215">
        <ele>186</ele>
        <time>2018-03-24T11:43:07Z</time>
      </trkpt>
      <trkpt lat="45.98605" lon="4.76222">
        <ele>187</ele>
        <time>2018-03-24T11:43:10Z</time>
      </trkpt>
      <trkpt lat="45.98604" lon="4.76226">
        <ele>187</ele>
        <time>2018-03-24T11:43:11Z</time>
      </trkpt>
      <trkpt lat="45.98603" lon="4.7623">
        <ele>187</ele>
        <time>2018-03-24T11:43:12Z</time>
      </trkpt>
      <trkpt lat="45.986" lon="4.76242">
        <ele>187</ele>
        <time>2018-03-24T11:43:13Z</time>
      </trkpt>
      <trkpt lat="45.986" lon="4.76253">
        <ele>188</ele>
        <time>2018-03-24T11:43:15Z</time>
      </trkpt>
      <trkpt lat="45.986" lon="4.76258">
        <ele>188</ele>
        <time>2018-03-24T11:43:16Z</time>
      </trkpt>
      <trkpt lat="45.98599" lon="4.76266">
        <ele>187</ele>
        <time>2018-03-24T11:43:18Z</time>
      </trkpt>
      <trkpt lat="45.98599" lon="4.76274">
        <ele>187</ele>
        <time>2018-03-24T11:43:19Z</time>
      </trkpt>
      <trkpt lat="45.98598" lon="4.76286">
        <ele>187</ele>
        <time>2018-03-24T11:43:21Z</time>
      </trkpt>
      <trkpt lat="45.98598" lon="4.76292">
        <ele>187</ele>
        <time>2018-03-24T11:43:22Z</time>
      </trkpt>
      <trkpt lat="45.98599" lon="4.76299">
        <ele>187</ele>
        <time>2018-03-24T11:43:23Z</time>
      </trkpt>
      <trkpt lat="45.98599" lon="4.76305">
        <ele>187</ele>
        <time>2018-03-24T11:43:24Z</time>
      </trkpt>
      <trkpt lat="45.986" lon="4.76316">
        <ele>187</ele>
        <time>2018-03-24T11:43:26Z</time>
      </trkpt>
      <trkpt lat="45.986" lon="4.76322">
        <ele>187</ele>
        <time>2018-03-24T11:43:27Z</time>
      </trkpt>
      <trkpt lat="45.98601" lon="4.7633">
        <ele>188</ele>
        <time>2018-03-24T11:43:28Z</time>
      </trkpt>
      <trkpt lat="45.98602" lon="4.76337">
        <ele>188</ele>
        <time>2018-03-24T11:43:29Z</time>
      </trkpt>
      <trkpt lat="45.98605" lon="4.76344">
        <ele>188</ele>
        <time>2018-03-24T11:43:30Z</time>
      </trkpt>
      <trkpt lat="45.98607" lon="4.76352">
        <ele>188</ele>
        <time>2018-03-24T11:43:31Z</time>
      </trkpt>
      <trkpt lat="45.98608" lon="4.76358">
        <ele>188</ele>
        <time>2018-03-24T11:43:32Z</time>
      </trkpt>
      <trkpt lat="45.98609" lon="4.76365">
        <ele>188</ele>
        <time>2018-03-24T11:43:33Z</time>
      </trkpt>
      <trkpt lat="45.9861" lon="4.76371">
        <ele>188</ele>
        <time>2018-03-24T11:43:34Z</time>
      </trkpt>
      <trkpt lat="45.98611" lon="4.76379">
        <ele>188</ele>
        <time>2018-03-24T11:43:35Z</time>
      </trkpt>
      <trkpt lat="45.98612" lon="4.76385">
        <ele>188</ele>
        <time>2018-03-24T11:43:36Z</time>
      </trkpt>
      <trkpt lat="45.98614" lon="4.76392">
        <ele>188</ele>
        <time>2018-03-24T11:43:37Z</time>
      </trkpt>
      <trkpt lat="45.98617" lon="4.76398">
        <ele>188</ele>
        <time>2018-03-24T11:43:38Z</time>
      </trkpt>
      <trkpt lat="45.98619" lon="4.76403">
        <ele>188</ele>
        <time>2018-03-24T11:43:39Z</time>
      </trkpt>
      <trkpt lat="45.98623" lon="4.76409">
        <ele>188</ele>
        <time>2018-03-24T11:43:40Z</time>
      </trkpt>
      <trkpt lat="45.98627" lon="4.76414">
        <ele>188</ele>
        <time>2018-03-24T11:43:41Z</time>
      </trkpt>
      <trkpt lat="45.98631" lon="4.76418">
        <ele>189</ele>
        <time>2018-03-24T11:43:42Z</time>
      </trkpt>
      <trkpt lat="45.98636" lon="4.76422">
        <ele>189</ele>
        <time>2018-03-24T11:43:43Z</time>
      </trkpt>
      <trkpt lat="45.98641" lon="4.76426">
        <ele>188</ele>
        <time>2018-03-24T11:43:44Z</time>
      </trkpt>
      <trkpt lat="45.98646" lon="4.76428">
        <ele>188</ele>
        <time>2018-03-24T11:43:45Z</time>
      </trkpt>
      <trkpt lat="45.98651" lon="4.76432">
        <ele>188</ele>
        <time>2018-03-24T11:43:46Z</time>
      </trkpt>
      <trkpt lat="45.98656" lon="4.76435">
        <ele>188</ele>
        <time>2018-03-24T11:43:47Z</time>
      </trkpt>
      <trkpt lat="45.98662" lon="4.76438">
        <ele>188</ele>
        <time>2018-03-24T11:43:48Z</time>
      </trkpt>
      <trkpt lat="45.98667" lon="4.76441">
        <ele>187</ele>
        <time>2018-03-24T11:43:49Z</time>
      </trkpt>
      <trkpt lat="45.98671" lon="4.76445">
        <ele>187</ele>
        <time>2018-03-24T11:43:50Z</time>
      </trkpt>
      <trkpt lat="45.98675" lon="4.76448">
        <ele>187</ele>
        <time>2018-03-24T11:43:51Z</time>
      </trkpt>
      <trkpt lat="45.98679" lon="4.76452">
        <ele>187</ele>
        <time>2018-03-24T11:43:52Z</time>
      </trkpt>
      <trkpt lat="45.98682" lon="4.76457">
        <ele>187</ele>
        <time>2018-03-24T11:43:53Z</time>
      </trkpt>
      <trkpt lat="45.98686" lon="4.76461">
        <ele>187</ele>
        <time>2018-03-24T11:43:54Z</time>
      </trkpt>
      <trkpt lat="45.98691" lon="4.76465">
        <ele>187</ele>
        <time>2018-03-24T11:43:55Z</time>
      </trkpt>
      <trkpt lat="45.98695" lon="4.76469">
        <ele>187</ele>
        <time>2018-03-24T11:43:56Z</time>
      </trkpt>
      <trkpt lat="45.98699" lon="4.76473">
        <ele>187</ele>
        <time>2018-03-24T11:43:57Z</time>
      </trkpt>
      <trkpt lat="45.98704" lon="4.76477">
        <ele>187</ele>
        <time>2018-03-24T11:43:58Z</time>
      </trkpt>
      <trkpt lat="45.98707" lon="4.76482">
        <ele>187</ele>
        <time>2018-03-24T11:43:59Z</time>
      </trkpt>
      <trkpt lat="45.98712" lon="4.76486">
        <ele>187</ele>
        <time>2018-03-24T11:44:00Z</time>
      </trkpt>
      <trkpt lat="45.98717" lon="4.7649">
        <ele>187</ele>
        <time>2018-03-24T11:44:01Z</time>
      </trkpt>
      <trkpt lat="45.98721" lon="4.76495">
        <ele>187</ele>
        <time>2018-03-24T11:44:02Z</time>
      </trkpt>
      <trkpt lat="45.98725" lon="4.76499">
        <ele>188</ele>
        <time>2018-03-24T11:44:03Z</time>
      </trkpt>
      <trkpt lat="45.98729" lon="4.76503">
        <ele>188</ele>
        <time>2018-03-24T11:44:04Z</time>
      </trkpt>
      <trkpt lat="45.98734" lon="4.76508">
        <ele>188</ele>
        <time>2018-03-24T11:44:05Z</time>
      </trkpt>
      <trkpt lat="45.98737" lon="4.76511">
        <ele>188</ele>
        <time>2018-03-24T11:44:06Z</time>
      </trkpt>
      <trkpt lat="45.98741" lon="4.76517">
        <ele>188</ele>
        <time>2018-03-24T11:44:07Z</time>
      </trkpt>
      <trkpt lat="45.98748" lon="4.76524">
        <ele>188</ele>
        <time>2018-03-24T11:44:09Z</time>
      </trkpt>
      <trkpt lat="45.98752" lon="4.76528">
        <ele>190</ele>
        <time>2018-03-24T11:44:10Z</time>
      </trkpt>
      <trkpt lat="45.98759" lon="4.76535">
        <ele>190</ele>
        <time>2018-03-24T11:44:12Z</time>
      </trkpt>
      <trkpt lat="45.98763" lon="4.76539">
        <ele>191</ele>
        <time>2018-03-24T11:44:13Z</time>
      </trkpt>
      <trkpt lat="45.98769" lon="4.76547">
        <ele>191</ele>
        <time>2018-03-24T11:44:15Z</time>
      </trkpt>
      <trkpt lat="45.98772" lon="4.7655">
        <ele>191</ele>
        <time>2018-03-24T11:44:16Z</time>
      </trkpt>
      <trkpt lat="45.98778" lon="4.76557">
        <ele>191</ele>
        <time>2018-03-24T11:44:18Z</time>
      </trkpt>
      <trkpt lat="45.98781" lon="4.7656">
        <ele>191</ele>
        <time>2018-03-24T11:44:19Z</time>
      </trkpt>
      <trkpt lat="45.98788" lon="4.76565">
        <ele>191</ele>
        <time>2018-03-24T11:44:21Z</time>
      </trkpt>
      <trkpt lat="45.98791" lon="4.76568">
        <ele>192</ele>
        <time>2018-03-24T11:44:22Z</time>
      </trkpt>
      <trkpt lat="45.98797" lon="4.76575">
        <ele>192</ele>
        <time>2018-03-24T11:44:24Z</time>
      </trkpt>
      <trkpt lat="45.98798" lon="4.76576">
        <ele>192</ele>
        <time>2018-03-24T11:44:25Z</time>
      </trkpt>
      <trkpt lat="45.98805" lon="4.76584">
        <ele>192</ele>
        <time>2018-03-24T11:44:27Z</time>
      </trkpt>
      <trkpt lat="45.98806" lon="4.76585">
        <ele>192</ele>
        <time>2018-03-24T11:44:28Z</time>
      </trkpt>
      <trkpt lat="45.98813" lon="4.76591">
        <ele>193</ele>
        <time>2018-03-24T11:44:31Z</time>
      </trkpt>
      <trkpt lat="45.98816" lon="4.76593">
        <ele>193</ele>
        <time>2018-03-24T11:44:32Z</time>
      </trkpt>
      <trkpt lat="45.98822" lon="4.76599">
        <ele>193</ele>
        <time>2018-03-24T11:44:34Z</time>
      </trkpt>
      <trkpt lat="45.98829" lon="4.76606">
        <ele>193</ele>
        <time>2018-03-24T11:44:35Z</time>
      </trkpt>
      <trkpt lat="45.98834" lon="4.76612">
        <ele>196</ele>
        <time>2018-03-24T11:44:38Z</time>
      </trkpt>
      <trkpt lat="45.98837" lon="4.76614">
        <ele>196</ele>
        <time>2018-03-24T11:44:39Z</time>
      </trkpt>
      <trkpt lat="45.98842" lon="4.76619">
        <ele>196</ele>
        <time>2018-03-24T11:44:41Z</time>
      </trkpt>
      <trkpt lat="45.98848" lon="4.76626">
        <ele>196</ele>
        <time>2018-03-24T11:44:42Z</time>
      </trkpt>
      <trkpt lat="45.98853" lon="4.7663">
        <ele>196</ele>
        <time>2018-03-24T11:44:44Z</time>
      </trkpt>
      <trkpt lat="45.98858" lon="4.76634">
        <ele>196</ele>
        <time>2018-03-24T11:44:45Z</time>
      </trkpt>
      <trkpt lat="45.98864" lon="4.76641">
        <ele>196</ele>
        <time>2018-03-24T11:44:47Z</time>
      </trkpt>
      <trkpt lat="45.98867" lon="4.76645">
        <ele>196</ele>
        <time>2018-03-24T11:44:48Z</time>
      </trkpt>
      <trkpt lat="45.98873" lon="4.76652">
        <ele>196</ele>
        <time>2018-03-24T11:44:50Z</time>
      </trkpt>
      <trkpt lat="45.98877" lon="4.76655">
        <ele>196</ele>
        <time>2018-03-24T11:44:51Z</time>
      </trkpt>
      <trkpt lat="45.98884" lon="4.76662">
        <ele>196</ele>
        <time>2018-03-24T11:44:53Z</time>
      </trkpt>
      <trkpt lat="45.98885" lon="4.76664">
        <ele>196</ele>
        <time>2018-03-24T11:44:54Z</time>
      </trkpt>
      <trkpt lat="45.98887" lon="4.76666">
        <ele>196</ele>
        <time>2018-03-24T11:44:55Z</time>
      </trkpt>
      <trkpt lat="45.98892" lon="4.76672">
        <ele>195</ele>
        <time>2018-03-24T11:44:56Z</time>
      </trkpt>
      <trkpt lat="45.98899" lon="4.76678">
        <ele>195</ele>
        <time>2018-03-24T11:44:58Z</time>
      </trkpt>
      <trkpt lat="45.98902" lon="4.76681">
        <ele>195</ele>
        <time>2018-03-24T11:44:59Z</time>
      </trkpt>
      <trkpt lat="45.98909" lon="4.76688">
        <ele>195</ele>
        <time>2018-03-24T11:45:01Z</time>
      </trkpt>
      <trkpt lat="45.98913" lon="4.76692">
        <ele>195</ele>
        <time>2018-03-24T11:45:02Z</time>
      </trkpt>
      <trkpt lat="45.98919" lon="4.76698">
        <ele>198</ele>
        <time>2018-03-24T11:45:04Z</time>
      </trkpt>
      <trkpt lat="45.98923" lon="4.76702">
        <ele>198</ele>
        <time>2018-03-24T11:45:05Z</time>
      </trkpt>
      <trkpt lat="45.98929" lon="4.76708">
        <ele>198</ele>
        <time>2018-03-24T11:45:07Z</time>
      </trkpt>
      <trkpt lat="45.98932" lon="4.76712">
        <ele>198</ele>
        <time>2018-03-24T11:45:08Z</time>
      </trkpt>
      <trkpt lat="45.98939" lon="4.76719">
        <ele>198</ele>
        <time>2018-03-24T11:45:10Z</time>
      </trkpt>
      <trkpt lat="45.98942" lon="4.76723">
        <ele>198</ele>
        <time>2018-03-24T11:45:11Z</time>
      </trkpt>
      <trkpt lat="45.98949" lon="4.7673">
        <ele>198</ele>
        <time>2018-03-24T11:45:13Z</time>
      </trkpt>
      <trkpt lat="45.98953" lon="4.76734">
        <ele>198</ele>
        <time>2018-03-24T11:45:14Z</time>
      </trkpt>
      <trkpt lat="45.9896" lon="4.7674">
        <ele>198</ele>
        <time>2018-03-24T11:45:16Z</time>
      </trkpt>
      <trkpt lat="45.98964" lon="4.76744">
        <ele>198</ele>
        <time>2018-03-24T11:45:17Z</time>
      </trkpt>
      <trkpt lat="45.98967" lon="4.76748">
        <ele>198</ele>
        <time>2018-03-24T11:45:18Z</time>
      </trkpt>
      <trkpt lat="45.98971" lon="4.76753">
        <ele>196</ele>
        <time>2018-03-24T11:45:19Z</time>
      </trkpt>
      <trkpt lat="45.98974" lon="4.76758">
        <ele>197</ele>
        <time>2018-03-24T11:45:20Z</time>
      </trkpt>
      <trkpt lat="45.98978" lon="4.76762">
        <ele>197</ele>
        <time>2018-03-24T11:45:21Z</time>
      </trkpt>
      <trkpt lat="45.9898" lon="4.76767">
        <ele>197</ele>
        <time>2018-03-24T11:45:22Z</time>
      </trkpt>
      <trkpt lat="45.98983" lon="4.76772">
        <ele>197</ele>
        <time>2018-03-24T11:45:23Z</time>
      </trkpt>
      <trkpt lat="45.98986" lon="4.76778">
        <ele>197</ele>
        <time>2018-03-24T11:45:24Z</time>
      </trkpt>
      <trkpt lat="45.98989" lon="4.76783">
        <ele>197</ele>
        <time>2018-03-24T11:45:25Z</time>
      </trkpt>
      <trkpt lat="45.98991" lon="4.76789">
        <ele>197</ele>
        <time>2018-03-24T11:45:26Z</time>
      </trkpt>
      <trkpt lat="45.98993" lon="4.76795">
        <ele>197</ele>
        <time>2018-03-24T11:45:27Z</time>
      </trkpt>
      <trkpt lat="45.98998" lon="4.76806">
        <ele>197</ele>
        <time>2018-03-24T11:45:29Z</time>
      </trkpt>
      <trkpt lat="45.98999" lon="4.76811">
        <ele>197</ele>
        <time>2018-03-24T11:45:30Z</time>
      </trkpt>
      <trkpt lat="45.99002" lon="4.76816">
        <ele>200</ele>
        <time>2018-03-24T11:45:31Z</time>
      </trkpt>
      <trkpt lat="45.99004" lon="4.76822">
        <ele>200</ele>
        <time>2018-03-24T11:45:32Z</time>
      </trkpt>
      <trkpt lat="45.99006" lon="4.76828">
        <ele>199</ele>
        <time>2018-03-24T11:45:33Z</time>
      </trkpt>
      <trkpt lat="45.99009" lon="4.76834">
        <ele>199</ele>
        <time>2018-03-24T11:45:34Z</time>
      </trkpt>
      <trkpt lat="45.99011" lon="4.76838">
        <ele>199</ele>
        <time>2018-03-24T11:45:35Z</time>
      </trkpt>
      <trkpt lat="45.99015" lon="4.76844">
        <ele>199</ele>
        <time>2018-03-24T11:45:36Z</time>
      </trkpt>
      <trkpt lat="45.99019" lon="4.76853">
        <ele>199</ele>
        <time>2018-03-24T11:45:38Z</time>
      </trkpt>
      <trkpt lat="45.99021" lon="4.76858">
        <ele>199</ele>
        <time>2018-03-24T11:45:39Z</time>
      </trkpt>
      <trkpt lat="45.99025" lon="4.76868">
        <ele>199</ele>
        <time>2018-03-24T11:45:41Z</time>
      </trkpt>
      <trkpt lat="45.99027" lon="4.76874">
        <ele>199</ele>
        <time>2018-03-24T11:45:42Z</time>
      </trkpt>
      <trkpt lat="45.99029" lon="4.76879">
        <ele>199</ele>
        <time>2018-03-24T11:45:43Z</time>
      </trkpt>
      <trkpt lat="45.99032" lon="4.76885">
        <ele>199</ele>
        <time>2018-03-24T11:45:44Z</time>
      </trkpt>
      <trkpt lat="45.99034" lon="4.76891">
        <ele>199</ele>
        <time>2018-03-24T11:45:45Z</time>
      </trkpt>
      <trkpt lat="45.99037" lon="4.76896">
        <ele>199</ele>
        <time>2018-03-24T11:45:46Z</time>
      </trkpt>
      <trkpt lat="45.9904" lon="4.76901">
        <ele>199</ele>
        <time>2018-03-24T11:45:47Z</time>
      </trkpt>
      <trkpt lat="45.99042" lon="4.76906">
        <ele>199</ele>
        <time>2018-03-24T11:45:48Z</time>
      </trkpt>
      <trkpt lat="45.99048" lon="4.76916">
        <ele>199</ele>
        <time>2018-03-24T11:45:50Z</time>
      </trkpt>
      <trkpt lat="45.99051" lon="4.76921">
        <ele>198</ele>
        <time>2018-03-24T11:45:51Z</time>
      </trkpt>
      <trkpt lat="45.99053" lon="4.76926">
        <ele>198</ele>
        <time>2018-03-24T11:45:52Z</time>
      </trkpt>
      <trkpt lat="45.99056" lon="4.76932">
        <ele>198</ele>
        <time>2018-03-24T11:45:53Z</time>
      </trkpt>
      <trkpt lat="45.99061" lon="4.76942">
        <ele>198</ele>
        <time>2018-03-24T11:45:55Z</time>
      </trkpt>
      <trkpt lat="45.99064" lon="4.76947">
        <ele>198</ele>
        <time>2018-03-24T11:45:56Z</time>
      </trkpt>
      <trkpt lat="45.99067" lon="4.76952">
        <ele>198</ele>
        <time>2018-03-24T11:45:57Z</time>
      </trkpt>
      <trkpt lat="45.99071" lon="4.76958">
        <ele>198</ele>
        <time>2018-03-24T11:45:58Z</time>
      </trkpt>
      <trkpt lat="45.99074" lon="4.76964">
        <ele>198</ele>
        <time>2018-03-24T11:45:59Z</time>
      </trkpt>
      <trkpt lat="45.99077" lon="4.7697">
        <ele>198</ele>
        <time>2018-03-24T11:46:00Z</time>
      </trkpt>
      <trkpt lat="45.99082" lon="4.7698">
        <ele>198</ele>
        <time>2018-03-24T11:46:02Z</time>
      </trkpt>
      <trkpt lat="45.99084" lon="4.76988">
        <ele>201</ele>
        <time>2018-03-24T11:46:03Z</time>
      </trkpt>
      <trkpt lat="45.99087" lon="4.76994">
        <ele>200</ele>
        <time>2018-03-24T11:46:04Z</time>
      </trkpt>
      <trkpt lat="45.9909" lon="4.77">
        <ele>200</ele>
        <time>2018-03-24T11:46:05Z</time>
      </trkpt>
      <trkpt lat="45.99093" lon="4.77005">
        <ele>200</ele>
        <time>2018-03-24T11:46:06Z</time>
      </trkpt>
      <trkpt lat="45.99097" lon="4.7701">
        <ele>201</ele>
        <time>2018-03-24T11:46:07Z</time>
      </trkpt>
      <trkpt lat="45.991" lon="4.77015">
        <ele>201</ele>
        <time>2018-03-24T11:46:08Z</time>
      </trkpt>
      <trkpt lat="45.99103" lon="4.77021">
        <ele>201</ele>
        <time>2018-03-24T11:46:09Z</time>
      </trkpt>
      <trkpt lat="45.99105" lon="4.77026">
        <ele>202</ele>
        <time>2018-03-24T11:46:10Z</time>
      </trkpt>
      <trkpt lat="45.99107" lon="4.77032">
        <ele>202</ele>
        <time>2018-03-24T11:46:11Z</time>
      </trkpt>
      <trkpt lat="45.99112" lon="4.77041">
        <ele>202</ele>
        <time>2018-03-24T11:46:13Z</time>
      </trkpt>
      <trkpt lat="45.99114" lon="4.77046">
        <ele>202</ele>
        <time>2018-03-24T11:46:14Z</time>
      </trkpt>
      <trkpt lat="45.99117" lon="4.77057">
        <ele>202</ele>
        <time>2018-03-24T11:46:16Z</time>
      </trkpt>
      <trkpt lat="45.99118" lon="4.77063">
        <ele>202</ele>
        <time>2018-03-24T11:46:17Z</time>
      </trkpt>
      <trkpt lat="45.99121" lon="4.77073">
        <ele>202</ele>
        <time>2018-03-24T11:46:19Z</time>
      </trkpt>
      <trkpt lat="45.99123" lon="4.77078">
        <ele>202</ele>
        <time>2018-03-24T11:46:20Z</time>
      </trkpt>
      <trkpt lat="45.99124" lon="4.77084">
        <ele>201</ele>
        <time>2018-03-24T11:46:21Z</time>
      </trkpt>
      <trkpt lat="45.99126" lon="4.7709">
        <ele>201</ele>
        <time>2018-03-24T11:46:22Z</time>
      </trkpt>
      <trkpt lat="45.99129" lon="4.77102">
        <ele>201</ele>
        <time>2018-03-24T11:46:24Z</time>
      </trkpt>
      <trkpt lat="45.99131" lon="4.77108">
        <ele>201</ele>
        <time>2018-03-24T11:46:25Z</time>
      </trkpt>
      <trkpt lat="45.99134" lon="4.77119">
        <ele>201</ele>
        <time>2018-03-24T11:46:27Z</time>
      </trkpt>
      <trkpt lat="45.99135" lon="4.77125">
        <ele>201</ele>
        <time>2018-03-24T11:46:28Z</time>
      </trkpt>
      <trkpt lat="45.99139" lon="4.77135">
        <ele>201</ele>
        <time>2018-03-24T11:46:30Z</time>
      </trkpt>
      <trkpt lat="45.9914" lon="4.77141">
        <ele>201</ele>
        <time>2018-03-24T11:46:31Z</time>
      </trkpt>
      <trkpt lat="45.99144" lon="4.77151">
        <ele>201</ele>
        <time>2018-03-24T11:46:33Z</time>
      </trkpt>
      <trkpt lat="45.99145" lon="4.77157">
        <ele>201</ele>
        <time>2018-03-24T11:46:34Z</time>
      </trkpt>
      <trkpt lat="45.99149" lon="4.77167">
        <ele>200</ele>
        <time>2018-03-24T11:46:36Z</time>
      </trkpt>
      <trkpt lat="45.9915" lon="4.77173">
        <ele>200</ele>
        <time>2018-03-24T11:46:37Z</time>
      </trkpt>
      <trkpt lat="45.99153" lon="4.77183">
        <ele>200</ele>
        <time>2018-03-24T11:46:39Z</time>
      </trkpt>
      <trkpt lat="45.99154" lon="4.77189">
        <ele>200</ele>
        <time>2018-03-24T11:46:40Z</time>
      </trkpt>
      <trkpt lat="45.99157" lon="4.77199">
        <ele>200</ele>
        <time>2018-03-24T11:46:42Z</time>
      </trkpt>
      <trkpt lat="45.99158" lon="4.77204">
        <ele>200</ele>
        <time>2018-03-24T11:46:43Z</time>
      </trkpt>
      <trkpt lat="45.99159" lon="4.77215">
        <ele>200</ele>
        <time>2018-03-24T11:46:45Z</time>
      </trkpt>
      <trkpt lat="45.9916" lon="4.77221">
        <ele>200</ele>
        <time>2018-03-24T11:46:46Z</time>
      </trkpt>
      <trkpt lat="45.99159" lon="4.77231">
        <ele>200</ele>
        <time>2018-03-24T11:46:48Z</time>
      </trkpt>
      <trkpt lat="45.99159" lon="4.77237">
        <ele>200</ele>
        <time>2018-03-24T11:46:49Z</time>
      </trkpt>
      <trkpt lat="45.99157" lon="4.77248">
        <ele>200</ele>
        <time>2018-03-24T11:46:51Z</time>
      </trkpt>
      <trkpt lat="45.99156" lon="4.77253">
        <ele>200</ele>
        <time>2018-03-24T11:46:52Z</time>
      </trkpt>
      <trkpt lat="45.99155" lon="4.77263">
        <ele>200</ele>
        <time>2018-03-24T11:46:54Z</time>
      </trkpt>
      <trkpt lat="45.99154" lon="4.77267">
        <ele>200</ele>
        <time>2018-03-24T11:46:55Z</time>
      </trkpt>
      <trkpt lat="45.99152" lon="4.77278">
        <ele>200</ele>
        <time>2018-03-24T11:46:57Z</time>
      </trkpt>
      <trkpt lat="45.99152" lon="4.77284">
        <ele>200</ele>
        <time>2018-03-24T11:46:58Z</time>
      </trkpt>
      <trkpt lat="45.99153" lon="4.77297">
        <ele>200</ele>
        <time>2018-03-24T11:47:00Z</time>
      </trkpt>
      <trkpt lat="45.99153" lon="4.77303">
        <ele>200</ele>
        <time>2018-03-24T11:47:01Z</time>
      </trkpt>
      <trkpt lat="45.99153" lon="4.77315">
        <ele>200</ele>
        <time>2018-03-24T11:47:03Z</time>
      </trkpt>
      <trkpt lat="45.99154" lon="4.77322">
        <ele>201</ele>
        <time>2018-03-24T11:47:04Z</time>
      </trkpt>
      <trkpt lat="45.99151" lon="4.77331">
        <ele>201</ele>
        <time>2018-03-24T11:47:06Z</time>
      </trkpt>
      <trkpt lat="45.9915" lon="4.77336">
        <ele>201</ele>
        <time>2018-03-24T11:47:07Z</time>
      </trkpt>
      <trkpt lat="45.99143" lon="4.77343">
        <ele>201</ele>
        <time>2018-03-24T11:47:09Z</time>
      </trkpt>
      <trkpt lat="45.99138" lon="4.77345">
        <ele>201</ele>
        <time>2018-03-24T11:47:10Z</time>
      </trkpt>
      <trkpt lat="45.99134" lon="4.77346">
        <ele>201</ele>
        <time>2018-03-24T11:47:11Z</time>
      </trkpt>
      <trkpt lat="45.9913" lon="4.77347">
        <ele>201</ele>
        <time>2018-03-24T11:47:12Z</time>
      </trkpt>
      <trkpt lat="45.99125" lon="4.77348">
        <ele>201</ele>
        <time>2018-03-24T11:47:13Z</time>
      </trkpt>
      <trkpt lat="45.9912" lon="4.7735">
        <ele>201</ele>
        <time>2018-03-24T11:47:14Z</time>
      </trkpt>
      <trkpt lat="45.99116" lon="4.77352">
        <ele>201</ele>
        <time>2018-03-24T11:47:15Z</time>
      </trkpt>
      <trkpt lat="45.99111" lon="4.77353">
        <ele>201</ele>
        <time>2018-03-24T11:47:16Z</time>
      </trkpt>
      <trkpt lat="45.99106" lon="4.77356">
        <ele>201</ele>
        <time>2018-03-24T11:47:17Z</time>
      </trkpt>
      <trkpt lat="45.99101" lon="4.77357">
        <ele>201</ele>
        <time>2018-03-24T11:47:18Z</time>
      </trkpt>
      <trkpt lat="45.99097" lon="4.77358">
        <ele>201</ele>
        <time>2018-03-24T11:47:19Z</time>
      </trkpt>
      <trkpt lat="45.99092" lon="4.77359">
        <ele>201</ele>
        <time>2018-03-24T11:47:20Z</time>
      </trkpt>
      <trkpt lat="45.99088" lon="4.77359">
        <ele>201</ele>
        <time>2018-03-24T11:47:21Z</time>
      </trkpt>
      <trkpt lat="45.99083" lon="4.77359">
        <ele>200</ele>
        <time>2018-03-24T11:47:22Z</time>
      </trkpt>
      <trkpt lat="45.99078" lon="4.7736">
        <ele>200</ele>
        <time>2018-03-24T11:47:23Z</time>
      </trkpt>
      <trkpt lat="45.99072" lon="4.77359">
        <ele>200</ele>
        <time>2018-03-24T11:47:24Z</time>
      </trkpt>
      <trkpt lat="45.99067" lon="4.77359">
        <ele>200</ele>
        <time>2018-03-24T11:47:25Z</time>
      </trkpt>
      <trkpt lat="45.99063" lon="4.7736">
        <ele>200</ele>
        <time>2018-03-24T11:47:26Z</time>
      </trkpt>
      <trkpt lat="45.99058" lon="4.77359">
        <ele>200</ele>
        <time>2018-03-24T11:47:27Z</time>
      </trkpt>
      <trkpt lat="45.99053" lon="4.7736">
        <ele>200</ele>
        <time>2018-03-24T11:47:28Z</time>
      </trkpt>
      <trkpt lat="45.99047" lon="4.77359">
        <ele>200</ele>
        <time>2018-03-24T11:47:29Z</time>
      </trkpt>
      <trkpt lat="45.99043" lon="4.7736">
        <ele>200</ele>
        <time>2018-03-24T11:47:30Z</time>
      </trkpt>
      <trkpt lat="45.99038" lon="4.77362">
        <ele>200</ele>
        <time>2018-03-24T11:47:31Z</time>
      </trkpt>
      <trkpt lat="45.99034" lon="4.77365">
        <ele>200</ele>
        <time>2018-03-24T11:47:32Z</time>
      </trkpt>
      <trkpt lat="45.99025" lon="4.77368">
        <ele>200</ele>
        <time>2018-03-24T11:47:34Z</time>
      </trkpt>
      <trkpt lat="45.99021" lon="4.7737">
        <ele>200</ele>
        <time>2018-03-24T11:47:35Z</time>
      </trkpt>
      <trkpt lat="45.99014" lon="4.77375">
        <ele>200</ele>
        <time>2018-03-24T11:47:37Z</time>
      </trkpt>
      <trkpt lat="45.99012" lon="4.77376">
        <ele>201</ele>
        <time>2018-03-24T11:47:38Z</time>
      </trkpt>
      <trkpt lat="45.99007" lon="4.77378">
        <ele>201</ele>
        <time>2018-03-24T11:47:40Z</time>
      </trkpt>
      <trkpt lat="45.99001" lon="4.7738">
        <ele>201</ele>
        <time>2018-03-24T11:47:41Z</time>
      </trkpt>
      <trkpt lat="45.98994" lon="4.77382">
        <ele>202</ele>
        <time>2018-03-24T11:47:43Z</time>
      </trkpt>
      <trkpt lat="45.98989" lon="4.77385">
        <ele>202</ele>
        <time>2018-03-24T11:47:44Z</time>
      </trkpt>
      <trkpt lat="45.98982" lon="4.77388">
        <ele>202</ele>
        <time>2018-03-24T11:47:46Z</time>
      </trkpt>
      <trkpt lat="45.98978" lon="4.7739">
        <ele>202</ele>
        <time>2018-03-24T11:47:47Z</time>
      </trkpt>
      <trkpt lat="45.98971" lon="4.77394">
        <ele>202</ele>
        <time>2018-03-24T11:47:49Z</time>
      </trkpt>
      <trkpt lat="45.98969" lon="4.77395">
        <ele>202</ele>
        <time>2018-03-24T11:47:50Z</time>
      </trkpt>
      <trkpt lat="45.98962" lon="4.77398">
        <ele>202</ele>
        <time>2018-03-24T11:47:53Z</time>
      </trkpt>
      <trkpt lat="45.98959" lon="4.774">
        <ele>202</ele>
        <time>2018-03-24T11:47:54Z</time>
      </trkpt>
      <trkpt lat="45.98952" lon="4.77403">
        <ele>203</ele>
        <time>2018-03-24T11:47:57Z</time>
      </trkpt>
      <trkpt lat="45.98949" lon="4.77404">
        <ele>203</ele>
        <time>2018-03-24T11:47:58Z</time>
      </trkpt>
      <trkpt lat="45.98941" lon="4.77409">
        <ele>203</ele>
        <time>2018-03-24T11:48:01Z</time>
      </trkpt>
      <trkpt lat="45.98938" lon="4.7741">
        <ele>203</ele>
        <time>2018-03-24T11:48:02Z</time>
      </trkpt>
      <trkpt lat="45.9893" lon="4.77414">
        <ele>204</ele>
        <time>2018-03-24T11:48:05Z</time>
      </trkpt>
      <trkpt lat="45.98927" lon="4.77415">
        <ele>204</ele>
        <time>2018-03-24T11:48:06Z</time>
      </trkpt>
      <trkpt lat="45.9892" lon="4.7742">
        <ele>205</ele>
        <time>2018-03-24T11:48:09Z</time>
      </trkpt>
      <trkpt lat="45.98917" lon="4.77421">
        <ele>205</ele>
        <time>2018-03-24T11:48:10Z</time>
      </trkpt>
      <trkpt lat="45.9891" lon="4.77424">
        <ele>206</ele>
        <time>2018-03-24T11:48:13Z</time>
      </trkpt>
      <trkpt lat="45.98907" lon="4.77425">
        <ele>206</ele>
        <time>2018-03-24T11:48:14Z</time>
      </trkpt>
      <trkpt lat="45.989" lon="4.77428">
        <ele>207</ele>
        <time>2018-03-24T11:48:17Z</time>
      </trkpt>
      <trkpt lat="45.98898" lon="4.77429">
        <ele>207</ele>
        <time>2018-03-24T11:48:18Z</time>
      </trkpt>
      <trkpt lat="45.9889" lon="4.77435">
        <ele>208</ele>
        <time>2018-03-24T11:48:22Z</time>
      </trkpt>
      <trkpt lat="45.98888" lon="4.77436">
        <ele>208</ele>
        <time>2018-03-24T11:48:23Z</time>
      </trkpt>
      <trkpt lat="45.98879" lon="4.77439">
        <ele>208</ele>
        <time>2018-03-24T11:48:27Z</time>
      </trkpt>
      <trkpt lat="45.98877" lon="4.7744">
        <ele>208</ele>
        <time>2018-03-24T11:48:28Z</time>
      </trkpt>
      <trkpt lat="45.9887" lon="4.77444">
        <ele>209</ele>
        <time>2018-03-24T11:48:32Z</time>
      </trkpt>
      <trkpt lat="45.98868" lon="4.77445">
        <ele>209</ele>
        <time>2018-03-24T11:48:33Z</time>
      </trkpt>
      <trkpt lat="45.98861" lon="4.77448">
        <ele>209</ele>
        <time>2018-03-24T11:48:37Z</time>
      </trkpt>
      <trkpt lat="45.98859" lon="4.7745">
        <ele>209</ele>
        <time>2018-03-24T11:48:38Z</time>
      </trkpt>
      <trkpt lat="45.98851" lon="4.77454">
        <ele>209</ele>
        <time>2018-03-24T11:48:42Z</time>
      </trkpt>
      <trkpt lat="45.98849" lon="4.77455">
        <ele>209</ele>
        <time>2018-03-24T11:48:43Z</time>
      </trkpt>
      <trkpt lat="45.9884" lon="4.77458">
        <ele>210</ele>
        <time>2018-03-24T11:48:47Z</time>
      </trkpt>
      <trkpt lat="45.98838" lon="4.77459">
        <ele>210</ele>
        <time>2018-03-24T11:48:48Z</time>
      </trkpt>
      <trkpt lat="45.98831" lon="4.77464">
        <ele>212</ele>
        <time>2018-03-24T11:48:52Z</time>
      </trkpt>
      <trkpt lat="45.9883" lon="4.77465">
        <ele>212</ele>
        <time>2018-03-24T11:48:53Z</time>
      </trkpt>
      <trkpt lat="45.98825" lon="4.77475">
        <ele>213</ele>
        <time>2018-03-24T11:48:59Z</time>
      </trkpt>
      <trkpt lat="45.98824" lon="4.77477">
        <ele>213</ele>
        <time>2018-03-24T11:49:00Z</time>
      </trkpt>
      <trkpt lat="45.98821" lon="4.77488">
        <ele>214</ele>
        <time>2018-03-24T11:49:05Z</time>
      </trkpt>
      <trkpt lat="45.9882" lon="4.7749">
        <ele>214</ele>
        <time>2018-03-24T11:49:06Z</time>
      </trkpt>
      <trkpt lat="45.98815" lon="4.77499">
        <ele>214</ele>
        <time>2018-03-24T11:49:11Z</time>
      </trkpt>
      <trkpt lat="45.98814" lon="4.77501">
        <ele>216</ele>
        <time>2018-03-24T11:49:12Z</time>
      </trkpt>
      <trkpt lat="45.98809" lon="4.7751">
        <ele>216</ele>
        <time>2018-03-24T11:49:18Z</time>
      </trkpt>
      <trkpt lat="45.98809" lon="4.77512">
        <ele>216</ele>
        <time>2018-03-24T11:49:19Z</time>
      </trkpt>
      <trkpt lat="45.98805" lon="4.77522">
        <ele>217</ele>
        <time>2018-03-24T11:49:25Z</time>
      </trkpt>
      <trkpt lat="45.98804" lon="4.77524">
        <ele>217</ele>
        <time>2018-03-24T11:49:26Z</time>
      </trkpt>
      <trkpt lat="45.98799" lon="4.77533">
        <ele>217</ele>
        <time>2018-03-24T11:49:31Z</time>
      </trkpt>
      <trkpt lat="45.98797" lon="4.77535">
        <ele>217</ele>
        <time>2018-03-24T11:49:32Z</time>
      </trkpt>
      <trkpt lat="45.9879" lon="4.77542">
        <ele>217</ele>
        <time>2018-03-24T11:49:36Z</time>
      </trkpt>
      <trkpt lat="45.98789" lon="4.77543">
        <ele>217</ele>
        <time>2018-03-24T11:49:37Z</time>
      </trkpt>
      <trkpt lat="45.98782" lon="4.77549">
        <ele>217</ele>
        <time>2018-03-24T11:49:41Z</time>
      </trkpt>
      <trkpt lat="45.9878" lon="4.7755">
        <ele>218</ele>
        <time>2018-03-24T11:49:42Z</time>
      </trkpt>
      <trkpt lat="45.98772" lon="4.77556">
        <ele>218</ele>
        <time>2018-03-24T11:49:47Z</time>
      </trkpt>
      <trkpt lat="45.98771" lon="4.77557">
        <ele>218</ele>
        <time>2018-03-24T11:49:48Z</time>
      </trkpt>
      <trkpt lat="45.98765" lon="4.77563">
        <ele>218</ele>
        <time>2018-03-24T11:49:52Z</time>
      </trkpt>
      <trkpt lat="45.98763" lon="4.77565">
        <ele>218</ele>
        <time>2018-03-24T11:49:53Z</time>
      </trkpt>
      <trkpt lat="45.98758" lon="4.77573">
        <ele>219</ele>
        <time>2018-03-24T11:49:57Z</time>
      </trkpt>
      <trkpt lat="45.98756" lon="4.77574">
        <ele>219</ele>
        <time>2018-03-24T11:49:58Z</time>
      </trkpt>
      <trkpt lat="45.98749" lon="4.7758">
        <ele>220</ele>
        <time>2018-03-24T11:50:02Z</time>
      </trkpt>
      <trkpt lat="45.98747" lon="4.77581">
        <ele>220</ele>
        <time>2018-03-24T11:50:03Z</time>
      </trkpt>
      <trkpt lat="45.9874" lon="4.77588">
        <ele>221</ele>
        <time>2018-03-24T11:50:07Z</time>
      </trkpt>
      <trkpt lat="45.98739" lon="4.7759">
        <ele>221</ele>
        <time>2018-03-24T11:50:08Z</time>
      </trkpt>
      <trkpt lat="45.98732" lon="4.77597">
        <ele>222</ele>
        <time>2018-03-24T11:50:12Z</time>
      </trkpt>
      <trkpt lat="45.98731" lon="4.77598">
        <ele>222</ele>
        <time>2018-03-24T11:50:13Z</time>
      </trkpt>
      <trkpt lat="45.98724" lon="4.77604">
        <ele>223</ele>
        <time>2018-03-24T11:50:17Z</time>
      </trkpt>
      <trkpt lat="45.98722" lon="4.77605">
        <ele>223</ele>
        <time>2018-03-24T11:50:18Z</time>
      </trkpt>
      <trkpt lat="45.98715" lon="4.77611">
        <ele>223</ele>
        <time>2018-03-24T11:50:22Z</time>
      </trkpt>
      <trkpt lat="45.98713" lon="4.77613">
        <ele>223</ele>
        <time>2018-03-24T11:50:23Z</time>
      </trkpt>
      <trkpt lat="45.98706" lon="4.77619">
        <ele>223</ele>
        <time>2018-03-24T11:50:27Z</time>
      </trkpt>
      <trkpt lat="45.98705" lon="4.77621">
        <ele>223</ele>
        <time>2018-03-24T11:50:28Z</time>
      </trkpt>
      <trkpt lat="45.98698" lon="4.77628">
        <ele>224</ele>
        <time>2018-03-24T11:50:32Z</time>
      </trkpt>
      <trkpt lat="45.98697" lon="4.77629">
        <ele>224</ele>
        <time>2018-03-24T11:50:33Z</time>
      </trkpt>
      <trkpt lat="45.9869" lon="4.77635">
        <ele>224</ele>
        <time>2018-03-24T11:50:37Z</time>
      </trkpt>
      <trkpt lat="45.98688" lon="4.77637">
        <ele>224</ele>
        <time>2018-03-24T11:50:38Z</time>
      </trkpt>
      <trkpt lat="45.98681" lon="4.77644">
        <ele>225</ele>
        <time>2018-03-24T11:50:42Z</time>
      </trkpt>
      <trkpt lat="45.98679" lon="4.77646">
        <ele>225</ele>
        <time>2018-03-24T11:50:43Z</time>
      </trkpt>
      <trkpt lat="45.98673" lon="4.77655">
        <ele>226</ele>
        <time>2018-03-24T11:50:47Z</time>
      </trkpt>
      <trkpt lat="45.98672" lon="4.77657">
        <ele>226</ele>
        <time>2018-03-24T11:50:48Z</time>
      </trkpt>
      <trkpt lat="45.98666" lon="4.77666">
        <ele>228</ele>
        <time>2018-03-24T11:50:52Z</time>
      </trkpt>
      <trkpt lat="45.98665" lon="4.77668">
        <ele>228</ele>
        <time>2018-03-24T11:50:53Z</time>
      </trkpt>
      <trkpt lat="45.98659" lon="4.77674">
        <ele>229</ele>
        <time>2018-03-24T11:50:57Z</time>
      </trkpt>
      <trkpt lat="45.98657" lon="4.77675">
        <ele>229</ele>
        <time>2018-03-24T11:50:58Z</time>
      </trkpt>
      <trkpt lat="45.98651" lon="4.77683">
        <ele>230</ele>
        <time>2018-03-24T11:51:02Z</time>
      </trkpt>
      <trkpt lat="45.98649" lon="4.77685">
        <ele>230</ele>
        <time>2018-03-24T11:51:03Z</time>
      </trkpt>
      <trkpt lat="45.98641" lon="4.7769">
        <ele>230</ele>
        <time>2018-03-24T11:51:07Z</time>
      </trkpt>
      <trkpt lat="45.9864" lon="4.77691">
        <ele>230</ele>
        <time>2018-03-24T11:51:08Z</time>
      </trkpt>
      <trkpt lat="45.98633" lon="4.77696">
        <ele>230</ele>
        <time>2018-03-24T11:51:12Z</time>
      </trkpt>
      <trkpt lat="45.98632" lon="4.77698">
        <ele>230</ele>
        <time>2018-03-24T11:51:13Z</time>
      </trkpt>
      <trkpt lat="45.98625" lon="4.77703">
        <ele>230</ele>
        <time>2018-03-24T11:51:17Z</time>
      </trkpt>
      <trkpt lat="45.98623" lon="4.77704">
        <ele>230</ele>
        <time>2018-03-24T11:51:18Z</time>
      </trkpt>
      <trkpt lat="45.98616" lon="4.7771">
        <ele>231</ele>
        <time>2018-03-24T11:51:22Z</time>
      </trkpt>
      <trkpt lat="45.98614" lon="4.77711">
        <ele>231</ele>
        <time>2018-03-24T11:51:23Z</time>
      </trkpt>
      <trkpt lat="45.98607" lon="4.77715">
        <ele>231</ele>
        <time>2018-03-24T11:51:27Z</time>
      </trkpt>
      <trkpt lat="45.98605" lon="4.77716">
        <ele>231</ele>
        <time>2018-03-24T11:51:28Z</time>
      </trkpt>
      <trkpt lat="45.98598" lon="4.77721">
        <ele>231</ele>
        <time>2018-03-24T11:51:32Z</time>
      </trkpt>
      <trkpt lat="45.98596" lon="4.77723">
        <ele>231</ele>
        <time>2018-03-24T11:51:33Z</time>
      </trkpt>
      <trkpt lat="45.98588" lon="4.77728">
        <ele>232</ele>
        <time>2018-03-24T11:51:37Z</time>
      </trkpt>
      <trkpt lat="45.98586" lon="4.77729">
        <ele>232</ele>
        <time>2018-03-24T11:51:38Z</time>
      </trkpt>
      <trkpt lat="45.98579" lon="4.77732">
        <ele>233</ele>
        <time>2018-03-24T11:51:42Z</time>
      </trkpt>
      <trkpt lat="45.98577" lon="4.77733">
        <ele>233</ele>
        <time>2018-03-24T11:51:43Z</time>
      </trkpt>
      <trkpt lat="45.9857" lon="4.77736">
        <ele>233</ele>
        <time>2018-03-24T11:51:47Z</time>
      </trkpt>
      <trkpt lat="45.98568" lon="4.77737">
        <ele>233</ele>
        <time>2018-03-24T11:51:48Z</time>
      </trkpt>
      <trkpt lat="45.98561" lon="4.77741">
        <ele>233</ele>
        <time>2018-03-24T11:51:52Z</time>
      </trkpt>
      <trkpt lat="45.9856" lon="4.77743">
        <ele>233</ele>
        <time>2018-03-24T11:51:53Z</time>
      </trkpt>
      <trkpt lat="45.98553" lon="4.77749">
        <ele>233</ele>
        <time>2018-03-24T11:51:57Z</time>
      </trkpt>
      <trkpt lat="45.98551" lon="4.77751">
        <ele>235</ele>
        <time>2018-03-24T11:51:58Z</time>
      </trkpt>
      <trkpt lat="45.98544" lon="4.77756">
        <ele>235</ele>
        <time>2018-03-24T11:52:01Z</time>
      </trkpt>
      <trkpt lat="45.98542" lon="4.77758">
        <ele>235</ele>
        <time>2018-03-24T11:52:02Z</time>
      </trkpt>
      <trkpt lat="45.98534" lon="4.77763">
        <ele>236</ele>
        <time>2018-03-24T11:52:05Z</time>
      </trkpt>
      <trkpt lat="45.98531" lon="4.77764">
        <ele>236</ele>
        <time>2018-03-24T11:52:06Z</time>
      </trkpt>
      <trkpt lat="45.98523" lon="4.77767">
        <ele>236</ele>
        <time>2018-03-24T11:52:09Z</time>
      </trkpt>
      <trkpt lat="45.9852" lon="4.77768">
        <ele>236</ele>
        <time>2018-03-24T11:52:10Z</time>
      </trkpt>
      <trkpt lat="45.98513" lon="4.77775">
        <ele>236</ele>
        <time>2018-03-24T11:52:13Z</time>
      </trkpt>
      <trkpt lat="45.98511" lon="4.77777">
        <ele>236</ele>
        <time>2018-03-24T11:52:14Z</time>
      </trkpt>
      <trkpt lat="45.98505" lon="4.77783">
        <ele>236</ele>
        <time>2018-03-24T11:52:17Z</time>
      </trkpt>
      <trkpt lat="45.98503" lon="4.77784">
        <ele>236</ele>
        <time>2018-03-24T11:52:18Z</time>
      </trkpt>
      <trkpt lat="45.98496" lon="4.77787">
        <ele>238</ele>
        <time>2018-03-24T11:52:21Z</time>
      </trkpt>
      <trkpt lat="45.98494" lon="4.77788">
        <ele>238</ele>
        <time>2018-03-24T11:52:22Z</time>
      </trkpt>
      <trkpt lat="45.98486" lon="4.77791">
        <ele>238</ele>
        <time>2018-03-24T11:52:26Z</time>
      </trkpt>
      <trkpt lat="45.98484" lon="4.77793">
        <ele>238</ele>
        <time>2018-03-24T11:52:27Z</time>
      </trkpt>
      <trkpt lat="45.98476" lon="4.77797">
        <ele>238</ele>
        <time>2018-03-24T11:52:31Z</time>
      </trkpt>
      <trkpt lat="45.98474" lon="4.77797">
        <ele>238</ele>
        <time>2018-03-24T11:52:32Z</time>
      </trkpt>
      <trkpt lat="45.98465" lon="4.77799">
        <ele>238</ele>
        <time>2018-03-24T11:52:36Z</time>
      </trkpt>
      <trkpt lat="45.98463" lon="4.778">
        <ele>239</ele>
        <time>2018-03-24T11:52:37Z</time>
      </trkpt>
      <trkpt lat="45.98457" lon="4.77803">
        <ele>239</ele>
        <time>2018-03-24T11:52:40Z</time>
      </trkpt>
      <trkpt lat="45.98454" lon="4.77804">
        <ele>239</ele>
        <time>2018-03-24T11:52:41Z</time>
      </trkpt>
      <trkpt lat="45.98447" lon="4.77808">
        <ele>239</ele>
        <time>2018-03-24T11:52:44Z</time>
      </trkpt>
      <trkpt lat="45.98444" lon="4.77809">
        <ele>239</ele>
        <time>2018-03-24T11:52:45Z</time>
      </trkpt>
      <trkpt lat="45.98436" lon="4.77811">
        <ele>239</ele>
        <time>2018-03-24T11:52:48Z</time>
      </trkpt>
      <trkpt lat="45.98434" lon="4.77812">
        <ele>239</ele>
        <time>2018-03-24T11:52:49Z</time>
      </trkpt>
      <trkpt lat="45.98425" lon="4.77816">
        <ele>240</ele>
        <time>2018-03-24T11:52:52Z</time>
      </trkpt>
      <trkpt lat="45.98422" lon="4.77817">
        <ele>240</ele>
        <time>2018-03-24T11:52:53Z</time>
      </trkpt>
      <trkpt lat="45.98416" lon="4.77819">
        <ele>241</ele>
        <time>2018-03-24T11:52:55Z</time>
      </trkpt>
      <trkpt lat="45.98413" lon="4.7782">
        <ele>241</ele>
        <time>2018-03-24T11:52:56Z</time>
      </trkpt>
      <trkpt lat="45.98407" lon="4.77822">
        <ele>241</ele>
        <time>2018-03-24T11:52:58Z</time>
      </trkpt>
      <trkpt lat="45.98404" lon="4.77824">
        <ele>241</ele>
        <time>2018-03-24T11:52:59Z</time>
      </trkpt>
      <trkpt lat="45.98398" lon="4.77827">
        <ele>241</ele>
        <time>2018-03-24T11:53:01Z</time>
      </trkpt>
      <trkpt lat="45.98395" lon="4.77828">
        <ele>241</ele>
        <time>2018-03-24T11:53:02Z</time>
      </trkpt>
      <trkpt lat="45.98387" lon="4.77831">
        <ele>241</ele>
        <time>2018-03-24T11:53:05Z</time>
      </trkpt>
      <trkpt lat="45.98384" lon="4.77832">
        <ele>241</ele>
        <time>2018-03-24T11:53:06Z</time>
      </trkpt>
      <trkpt lat="45.98376" lon="4.77836">
        <ele>242</ele>
        <time>2018-03-24T11:53:09Z</time>
      </trkpt>
      <trkpt lat="45.98373" lon="4.77837">
        <ele>242</ele>
        <time>2018-03-24T11:53:10Z</time>
      </trkpt>
      <trkpt lat="45.98368" lon="4.77841">
        <ele>242</ele>
        <time>2018-03-24T11:53:12Z</time>
      </trkpt>
      <trkpt lat="45.98365" lon="4.77842">
        <ele>242</ele>
        <time>2018-03-24T11:53:13Z</time>
      </trkpt>
      <trkpt lat="45.98358" lon="4.77846">
        <ele>242</ele>
        <time>2018-03-24T11:53:15Z</time>
      </trkpt>
      <trkpt lat="45.98355" lon="4.77848">
        <ele>242</ele>
        <time>2018-03-24T11:53:16Z</time>
      </trkpt>
      <trkpt lat="45.98346" lon="4.77851">
        <ele>242</ele>
        <time>2018-03-24T11:53:19Z</time>
      </trkpt>
      <trkpt lat="45.98343" lon="4.77853">
        <ele>242</ele>
        <time>2018-03-24T11:53:20Z</time>
      </trkpt>
      <trkpt lat="45.98336" lon="4.77856">
        <ele>242</ele>
        <time>2018-03-24T11:53:23Z</time>
      </trkpt>
      <trkpt lat="45.98334" lon="4.77858">
        <ele>242</ele>
        <time>2018-03-24T11:53:24Z</time>
      </trkpt>
      <trkpt lat="45.98331" lon="4.77859">
        <ele>243</ele>
        <time>2018-03-24T11:53:25Z</time>
      </trkpt>
      <trkpt lat="45.98322" lon="4.77863">
        <ele>243</ele>
        <time>2018-03-24T11:53:26Z</time>
      </trkpt>
      <trkpt lat="45.98315" lon="4.77865">
        <ele>243</ele>
        <time>2018-03-24T11:53:28Z</time>
      </trkpt>
      <trkpt lat="45.98311" lon="4.77866">
        <ele>243</ele>
        <time>2018-03-24T11:53:29Z</time>
      </trkpt>
      <trkpt lat="45.98305" lon="4.77869">
        <ele>243</ele>
        <time>2018-03-24T11:53:32Z</time>
      </trkpt>
      <trkpt lat="45.98298" lon="4.77871">
        <ele>243</ele>
        <time>2018-03-24T11:53:33Z</time>
      </trkpt>
      <trkpt lat="45.9829" lon="4.77873">
        <ele>243</ele>
        <time>2018-03-24T11:53:36Z</time>
      </trkpt>
      <trkpt lat="45.98288" lon="4.77874">
        <ele>244</ele>
        <time>2018-03-24T11:53:37Z</time>
      </trkpt>
      <trkpt lat="45.9828" lon="4.77877">
        <ele>244</ele>
        <time>2018-03-24T11:53:40Z</time>
      </trkpt>
      <trkpt lat="45.98277" lon="4.77878">
        <ele>244</ele>
        <time>2018-03-24T11:53:41Z</time>
      </trkpt>
      <trkpt lat="45.98271" lon="4.77881">
        <ele>244</ele>
        <time>2018-03-24T11:53:43Z</time>
      </trkpt>
      <trkpt lat="45.98261" lon="4.77886">
        <ele>244</ele>
        <time>2018-03-24T11:53:44Z</time>
      </trkpt>
      <trkpt lat="45.98254" lon="4.77889">
        <ele>244</ele>
        <time>2018-03-24T11:53:46Z</time>
      </trkpt>
      <trkpt lat="45.9825" lon="4.7789">
        <ele>244</ele>
        <time>2018-03-24T11:53:47Z</time>
      </trkpt>
      <trkpt lat="45.98242" lon="4.77893">
        <ele>244</ele>
        <time>2018-03-24T11:53:49Z</time>
      </trkpt>
      <trkpt lat="45.98238" lon="4.77894">
        <ele>244</ele>
        <time>2018-03-24T11:53:50Z</time>
      </trkpt>
      <trkpt lat="45.9823" lon="4.77897">
        <ele>244</ele>
        <time>2018-03-24T11:53:52Z</time>
      </trkpt>
      <trkpt lat="45.98227" lon="4.77899">
        <ele>244</ele>
        <time>2018-03-24T11:53:53Z</time>
      </trkpt>
      <trkpt lat="45.98219" lon="4.77901">
        <ele>244</ele>
        <time>2018-03-24T11:53:55Z</time>
      </trkpt>
      <trkpt lat="45.98216" lon="4.77902">
        <ele>244</ele>
        <time>2018-03-24T11:53:56Z</time>
      </trkpt>
      <trkpt lat="45.98211" lon="4.77904">
        <ele>244</ele>
        <time>2018-03-24T11:53:58Z</time>
      </trkpt>
      <trkpt lat="45.98205" lon="4.77906">
        <ele>244</ele>
        <time>2018-03-24T11:53:59Z</time>
      </trkpt>
      <trkpt lat="45.98198" lon="4.77909">
        <ele>244</ele>
        <time>2018-03-24T11:54:01Z</time>
      </trkpt>
      <trkpt lat="45.98194" lon="4.7791">
        <ele>244</ele>
        <time>2018-03-24T11:54:02Z</time>
      </trkpt>
      <trkpt lat="45.98186" lon="4.77913">
        <ele>245</ele>
        <time>2018-03-24T11:54:04Z</time>
      </trkpt>
      <trkpt lat="45.98183" lon="4.77915">
        <ele>245</ele>
        <time>2018-03-24T11:54:05Z</time>
      </trkpt>
      <trkpt lat="45.98176" lon="4.77918">
        <ele>245</ele>
        <time>2018-03-24T11:54:07Z</time>
      </trkpt>
      <trkpt lat="45.98172" lon="4.77919">
        <ele>245</ele>
        <time>2018-03-24T11:54:08Z</time>
      </trkpt>
      <trkpt lat="45.98165" lon="4.77922">
        <ele>245</ele>
        <time>2018-03-24T11:54:10Z</time>
      </trkpt>
      <trkpt lat="45.98161" lon="4.77924">
        <ele>245</ele>
        <time>2018-03-24T11:54:11Z</time>
      </trkpt>
      <trkpt lat="45.98154" lon="4.77926">
        <ele>246</ele>
        <time>2018-03-24T11:54:13Z</time>
      </trkpt>
      <trkpt lat="45.9815" lon="4.77927">
        <ele>246</ele>
        <time>2018-03-24T11:54:14Z</time>
      </trkpt>
      <trkpt lat="45.98143" lon="4.7793">
        <ele>246</ele>
        <time>2018-03-24T11:54:16Z</time>
      </trkpt>
      <trkpt lat="45.98139" lon="4.77931">
        <ele>246</ele>
        <time>2018-03-24T11:54:17Z</time>
      </trkpt>
      <trkpt lat="45.9813" lon="4.77933">
        <ele>246</ele>
        <time>2018-03-24T11:54:19Z</time>
      </trkpt>
      <trkpt lat="45.98126" lon="4.77933">
        <ele>246</ele>
        <time>2018-03-24T11:54:20Z</time>
      </trkpt>
      <trkpt lat="45.98118" lon="4.77934">
        <ele>246</ele>
        <time>2018-03-24T11:54:22Z</time>
      </trkpt>
      <trkpt lat="45.98114" lon="4.77934">
        <ele>246</ele>
        <time>2018-03-24T11:54:23Z</time>
      </trkpt>
      <trkpt lat="45.98106" lon="4.77935">
        <ele>246</ele>
        <time>2018-03-24T11:54:25Z</time>
      </trkpt>
      <trkpt lat="45.98102" lon="4.77936">
        <ele>246</ele>
        <time>2018-03-24T11:54:26Z</time>
      </trkpt>
      <trkpt lat="45.98094" lon="4.77937">
        <ele>246</ele>
        <time>2018-03-24T11:54:28Z</time>
      </trkpt>
      <trkpt lat="45.9809" lon="4.77937">
        <ele>246</ele>
        <time>2018-03-24T11:54:29Z</time>
      </trkpt>
      <trkpt lat="45.98083" lon="4.77938">
        <ele>247</ele>
        <time>2018-03-24T11:54:31Z</time>
      </trkpt>
      <trkpt lat="45.98081" lon="4.77939">
        <ele>247</ele>
        <time>2018-03-24T11:54:32Z</time>
      </trkpt>
      <trkpt lat="45.98072" lon="4.7794">
        <ele>247</ele>
        <time>2018-03-24T11:54:34Z</time>
      </trkpt>
      <trkpt lat="45.9807" lon="4.77941">
        <ele>247</ele>
        <time>2018-03-24T11:54:35Z</time>
      </trkpt>
      <trkpt lat="45.98061" lon="4.77942">
        <ele>247</ele>
        <time>2018-03-24T11:54:37Z</time>
      </trkpt>
      <trkpt lat="45.98057" lon="4.77942">
        <ele>247</ele>
        <time>2018-03-24T11:54:38Z</time>
      </trkpt>
      <trkpt lat="45.9805" lon="4.77943">
        <ele>247</ele>
        <time>2018-03-24T11:54:40Z</time>
      </trkpt>
      <trkpt lat="45.98046" lon="4.77943">
        <ele>247</ele>
        <time>2018-03-24T11:54:41Z</time>
      </trkpt>
      <trkpt lat="45.98039" lon="4.77943">
        <ele>247</ele>
        <time>2018-03-24T11:54:43Z</time>
      </trkpt>
      <trkpt lat="45.98035" lon="4.77943">
        <ele>247</ele>
        <time>2018-03-24T11:54:44Z</time>
      </trkpt>
      <trkpt lat="45.98027" lon="4.77945">
        <ele>247</ele>
        <time>2018-03-24T11:54:46Z</time>
      </trkpt>
      <trkpt lat="45.98024" lon="4.77945">
        <ele>247</ele>
        <time>2018-03-24T11:54:47Z</time>
      </trkpt>
      <trkpt lat="45.98016" lon="4.77946">
        <ele>247</ele>
        <time>2018-03-24T11:54:49Z</time>
      </trkpt>
      <trkpt lat="45.98012" lon="4.77946">
        <ele>247</ele>
        <time>2018-03-24T11:54:50Z</time>
      </trkpt>
      <trkpt lat="45.98005" lon="4.77947">
        <ele>247</ele>
        <time>2018-03-24T11:54:52Z</time>
      </trkpt>
      <trkpt lat="45.98001" lon="4.77947">
        <ele>247</ele>
        <time>2018-03-24T11:54:53Z</time>
      </trkpt>
      <trkpt lat="45.97994" lon="4.77949">
        <ele>246</ele>
        <time>2018-03-24T11:54:55Z</time>
      </trkpt>
      <trkpt lat="45.9799" lon="4.7795">
        <ele>246</ele>
        <time>2018-03-24T11:54:56Z</time>
      </trkpt>
      <trkpt lat="45.97982" lon="4.77951">
        <ele>246</ele>
        <time>2018-03-24T11:54:58Z</time>
      </trkpt>
      <trkpt lat="45.97979" lon="4.77951">
        <ele>246</ele>
        <time>2018-03-24T11:54:59Z</time>
      </trkpt>
      <trkpt lat="45.97972" lon="4.77952">
        <ele>246</ele>
        <time>2018-03-24T11:55:01Z</time>
      </trkpt>
      <trkpt lat="45.97968" lon="4.77952">
        <ele>246</ele>
        <time>2018-03-24T11:55:02Z</time>
      </trkpt>
      <trkpt lat="45.97963" lon="4.77953">
        <ele>246</ele>
        <time>2018-03-24T11:55:04Z</time>
      </trkpt>
      <trkpt lat="45.97957" lon="4.77954">
        <ele>246</ele>
        <time>2018-03-24T11:55:05Z</time>
      </trkpt>
      <trkpt lat="45.9795" lon="4.77955">
        <ele>246</ele>
        <time>2018-03-24T11:55:07Z</time>
      </trkpt>
      <trkpt lat="45.97946" lon="4.77955">
        <ele>246</ele>
        <time>2018-03-24T11:55:08Z</time>
      </trkpt>
      <trkpt lat="45.97939" lon="4.77956">
        <ele>246</ele>
        <time>2018-03-24T11:55:10Z</time>
      </trkpt>
      <trkpt lat="45.97935" lon="4.77957">
        <ele>246</ele>
        <time>2018-03-24T11:55:11Z</time>
      </trkpt>
      <trkpt lat="45.97927" lon="4.77958">
        <ele>246</ele>
        <time>2018-03-24T11:55:13Z</time>
      </trkpt>
      <trkpt lat="45.97923" lon="4.77958">
        <ele>246</ele>
        <time>2018-03-24T11:55:14Z</time>
      </trkpt>
      <trkpt lat="45.97915" lon="4.77959">
        <ele>246</ele>
        <time>2018-03-24T11:55:16Z</time>
      </trkpt>
      <trkpt lat="45.97911" lon="4.77959">
        <ele>246</ele>
        <time>2018-03-24T11:55:17Z</time>
      </trkpt>
      <trkpt lat="45.97903" lon="4.77961">
        <ele>246</ele>
        <time>2018-03-24T11:55:19Z</time>
      </trkpt>
      <trkpt lat="45.97899" lon="4.77962">
        <ele>246</ele>
        <time>2018-03-24T11:55:20Z</time>
      </trkpt>
      <trkpt lat="45.97891" lon="4.77964">
        <ele>246</ele>
        <time>2018-03-24T11:55:22Z</time>
      </trkpt>
      <trkpt lat="45.97887" lon="4.77965">
        <ele>246</ele>
        <time>2018-03-24T11:55:23Z</time>
      </trkpt>
      <trkpt lat="45.97878" lon="4.77968">
        <ele>246</ele>
        <time>2018-03-24T11:55:25Z</time>
      </trkpt>
      <trkpt lat="45.97874" lon="4.77969">
        <ele>246</ele>
        <time>2018-03-24T11:55:26Z</time>
      </trkpt>
      <trkpt lat="45.97866" lon="4.77973">
        <ele>246</ele>
        <time>2018-03-24T11:55:28Z</time>
      </trkpt>
      <trkpt lat="45.97862" lon="4.77975">
        <ele>246</ele>
        <time>2018-03-24T11:55:29Z</time>
      </trkpt>
      <trkpt lat="45.97854" lon="4.77978">
        <ele>246</ele>
        <time>2018-03-24T11:55:31Z</time>
      </trkpt>
      <trkpt lat="45.9785" lon="4.7798">
        <ele>246</ele>
        <time>2018-03-24T11:55:32Z</time>
      </trkpt>
      <trkpt lat="45.97842" lon="4.77983">
        <ele>246</ele>
        <time>2018-03-24T11:55:34Z</time>
      </trkpt>
      <trkpt lat="45.97838" lon="4.77985">
        <ele>246</ele>
        <time>2018-03-24T11:55:35Z</time>
      </trkpt>
      <trkpt lat="45.97834" lon="4.77987">
        <ele>246</ele>
        <time>2018-03-24T11:55:36Z</time>
      </trkpt>
      <trkpt lat="45.9783" lon="4.77989">
        <ele>246</ele>
        <time>2018-03-24T11:55:37Z</time>
      </trkpt>
      <trkpt lat="45.97825" lon="4.7799">
        <ele>246</ele>
        <time>2018-03-24T11:55:38Z</time>
      </trkpt>
      <trkpt lat="45.9782" lon="4.77991">
        <ele>246</ele>
        <time>2018-03-24T11:55:39Z</time>
      </trkpt>
      <trkpt lat="45.97815" lon="4.77993">
        <ele>246</ele>
        <time>2018-03-24T11:55:40Z</time>
      </trkpt>
      <trkpt lat="45.97811" lon="4.77995">
        <ele>246</ele>
        <time>2018-03-24T11:55:41Z</time>
      </trkpt>
      <trkpt lat="45.97806" lon="4.77997">
        <ele>246</ele>
        <time>2018-03-24T11:55:42Z</time>
      </trkpt>
      <trkpt lat="45.97802" lon="4.77999">
        <ele>246</ele>
        <time>2018-03-24T11:55:43Z</time>
      </trkpt>
      <trkpt lat="45.97793" lon="4.78003">
        <ele>246</ele>
        <time>2018-03-24T11:55:45Z</time>
      </trkpt>
      <trkpt lat="45.9779" lon="4.78004">
        <ele>246</ele>
        <time>2018-03-24T11:55:46Z</time>
      </trkpt>
      <trkpt lat="45.97783" lon="4.78007">
        <ele>246</ele>
        <time>2018-03-24T11:55:48Z</time>
      </trkpt>
      <trkpt lat="45.97779" lon="4.78009">
        <ele>246</ele>
        <time>2018-03-24T11:55:49Z</time>
      </trkpt>
      <trkpt lat="45.97774" lon="4.78011">
        <ele>246</ele>
        <time>2018-03-24T11:55:50Z</time>
      </trkpt>
      <trkpt lat="45.9777" lon="4.78014">
        <ele>246</ele>
        <time>2018-03-24T11:55:51Z</time>
      </trkpt>
      <trkpt lat="45.97761" lon="4.78016">
        <ele>246</ele>
        <time>2018-03-24T11:55:53Z</time>
      </trkpt>
      <trkpt lat="45.97757" lon="4.78018">
        <ele>246</ele>
        <time>2018-03-24T11:55:54Z</time>
      </trkpt>
      <trkpt lat="45.97749" lon="4.78022">
        <ele>247</ele>
        <time>2018-03-24T11:55:56Z</time>
      </trkpt>
      <trkpt lat="45.97745" lon="4.78025">
        <ele>247</ele>
        <time>2018-03-24T11:55:57Z</time>
      </trkpt>
      <trkpt lat="45.97741" lon="4.78026">
        <ele>247</ele>
        <time>2018-03-24T11:55:58Z</time>
      </trkpt>
      <trkpt lat="45.97736" lon="4.78027">
        <ele>247</ele>
        <time>2018-03-24T11:55:59Z</time>
      </trkpt>
      <trkpt lat="45.97731" lon="4.78029">
        <ele>247</ele>
        <time>2018-03-24T11:56:00Z</time>
      </trkpt>
      <trkpt lat="45.97727" lon="4.7803">
        <ele>247</ele>
        <time>2018-03-24T11:56:01Z</time>
      </trkpt>
      <trkpt lat="45.97722" lon="4.78032">
        <ele>247</ele>
        <time>2018-03-24T11:56:02Z</time>
      </trkpt>
      <trkpt lat="45.97717" lon="4.78034">
        <ele>247</ele>
        <time>2018-03-24T11:56:03Z</time>
      </trkpt>
      <trkpt lat="45.97712" lon="4.78036">
        <ele>247</ele>
        <time>2018-03-24T11:56:04Z</time>
      </trkpt>
      <trkpt lat="45.97707" lon="4.78039">
        <ele>247</ele>
        <time>2018-03-24T11:56:05Z</time>
      </trkpt>
      <trkpt lat="45.97702" lon="4.7804">
        <ele>247</ele>
        <time>2018-03-24T11:56:06Z</time>
      </trkpt>
      <trkpt lat="45.97698" lon="4.78042">
        <ele>247</ele>
        <time>2018-03-24T11:56:07Z</time>
      </trkpt>
      <trkpt lat="45.97692" lon="4.78045">
        <ele>247</ele>
        <time>2018-03-24T11:56:08Z</time>
      </trkpt>
      <trkpt lat="45.97688" lon="4.78047">
        <ele>247</ele>
        <time>2018-03-24T11:56:09Z</time>
      </trkpt>
      <trkpt lat="45.97683" lon="4.78049">
        <ele>247</ele>
        <time>2018-03-24T11:56:10Z</time>
      </trkpt>
      <trkpt lat="45.97679" lon="4.78051">
        <ele>247</ele>
        <time>2018-03-24T11:56:11Z</time>
      </trkpt>
      <trkpt lat="45.97671" lon="4.78054">
        <ele>248</ele>
        <time>2018-03-24T11:56:13Z</time>
      </trkpt>
      <trkpt lat="45.97666" lon="4.78055">
        <ele>247</ele>
        <time>2018-03-24T11:56:14Z</time>
      </trkpt>
      <trkpt lat="45.97659" lon="4.78059">
        <ele>247</ele>
        <time>2018-03-24T11:56:16Z</time>
      </trkpt>
      <trkpt lat="45.97654" lon="4.7806">
        <ele>247</ele>
        <time>2018-03-24T11:56:17Z</time>
      </trkpt>
      <trkpt lat="45.9765" lon="4.78063">
        <ele>247</ele>
        <time>2018-03-24T11:56:18Z</time>
      </trkpt>
      <trkpt lat="45.97646" lon="4.78067">
        <ele>247</ele>
        <time>2018-03-24T11:56:19Z</time>
      </trkpt>
      <trkpt lat="45.97642" lon="4.7807">
        <ele>247</ele>
        <time>2018-03-24T11:56:20Z</time>
      </trkpt>
      <trkpt lat="45.97638" lon="4.78074">
        <ele>247</ele>
        <time>2018-03-24T11:56:21Z</time>
      </trkpt>
      <trkpt lat="45.97631" lon="4.78081">
        <ele>246</ele>
        <time>2018-03-24T11:56:23Z</time>
      </trkpt>
      <trkpt lat="45.97627" lon="4.78084">
        <ele>246</ele>
        <time>2018-03-24T11:56:24Z</time>
      </trkpt>
      <trkpt lat="45.97624" lon="4.7809">
        <ele>246</ele>
        <time>2018-03-24T11:56:25Z</time>
      </trkpt>
      <trkpt lat="45.97621" lon="4.78093">
        <ele>246</ele>
        <time>2018-03-24T11:56:26Z</time>
      </trkpt>
      <trkpt lat="45.97614" lon="4.781">
        <ele>246</ele>
        <time>2018-03-24T11:56:28Z</time>
      </trkpt>
      <trkpt lat="45.97611" lon="4.78105">
        <ele>246</ele>
        <time>2018-03-24T11:56:29Z</time>
      </trkpt>
      <trkpt lat="45.97604" lon="4.78112">
        <ele>246</ele>
        <time>2018-03-24T11:56:31Z</time>
      </trkpt>
      <trkpt lat="45.976" lon="4.78116">
        <ele>245</ele>
        <time>2018-03-24T11:56:32Z</time>
      </trkpt>
      <trkpt lat="45.97597" lon="4.7812">
        <ele>245</ele>
        <time>2018-03-24T11:56:33Z</time>
      </trkpt>
      <trkpt lat="45.97593" lon="4.78124">
        <ele>245</ele>
        <time>2018-03-24T11:56:34Z</time>
      </trkpt>
      <trkpt lat="45.97588" lon="4.78129">
        <ele>245</ele>
        <time>2018-03-24T11:56:35Z</time>
      </trkpt>
      <trkpt lat="45.97583" lon="4.78135">
        <ele>242</ele>
        <time>2018-03-24T11:56:36Z</time>
      </trkpt>
      <trkpt lat="45.97578" lon="4.78141">
        <ele>242</ele>
        <time>2018-03-24T11:56:37Z</time>
      </trkpt>
      <trkpt lat="45.97573" lon="4.78148">
        <ele>242</ele>
        <time>2018-03-24T11:56:38Z</time>
      </trkpt>
      <trkpt lat="45.97567" lon="4.78155">
        <ele>242</ele>
        <time>2018-03-24T11:56:39Z</time>
      </trkpt>
      <trkpt lat="45.97561" lon="4.78162">
        <ele>241</ele>
        <time>2018-03-24T11:56:40Z</time>
      </trkpt>
      <trkpt lat="45.97554" lon="4.7817">
        <ele>240</ele>
        <time>2018-03-24T11:56:41Z</time>
      </trkpt>
      <trkpt lat="45.97548" lon="4.7818">
        <ele>239</ele>
        <time>2018-03-24T11:56:42Z</time>
      </trkpt>
      <trkpt lat="45.97541" lon="4.78187">
        <ele>239</ele>
        <time>2018-03-24T11:56:43Z</time>
      </trkpt>
      <trkpt lat="45.97533" lon="4.78194">
        <ele>239</ele>
        <time>2018-03-24T11:56:44Z</time>
      </trkpt>
      <trkpt lat="45.97525" lon="4.78204">
        <ele>238</ele>
        <time>2018-03-24T11:56:45Z</time>
      </trkpt>
      <trkpt lat="45.97518" lon="4.78212">
        <ele>238</ele>
        <time>2018-03-24T11:56:46Z</time>
      </trkpt>
      <trkpt lat="45.97511" lon="4.78221">
        <ele>238</ele>
        <time>2018-03-24T11:56:47Z</time>
      </trkpt>
      <trkpt lat="45.97502" lon="4.78228">
        <ele>237</ele>
        <time>2018-03-24T11:56:48Z</time>
      </trkpt>
      <trkpt lat="45.97495" lon="4.78238">
        <ele>236</ele>
        <time>2018-03-24T11:56:49Z</time>
      </trkpt>
      <trkpt lat="45.97487" lon="4.78246">
        <ele>236</ele>
        <time>2018-03-24T11:56:50Z</time>
      </trkpt>
      <trkpt lat="45.9748" lon="4.78255">
        <ele>235</ele>
        <time>2018-03-24T11:56:51Z</time>
      </trkpt>
      <trkpt lat="45.97472" lon="4.78264">
        <ele>235</ele>
        <time>2018-03-24T11:56:52Z</time>
      </trkpt>
      <trkpt lat="45.97465" lon="4.78272">
        <ele>234</ele>
        <time>2018-03-24T11:56:53Z</time>
      </trkpt>
      <trkpt lat="45.97458" lon="4.7828">
        <ele>234</ele>
        <time>2018-03-24T11:56:54Z</time>
      </trkpt>
      <trkpt lat="45.97451" lon="4.78287">
        <ele>234</ele>
        <time>2018-03-24T11:56:55Z</time>
      </trkpt>
      <trkpt lat="45.97444" lon="4.78295">
        <ele>234</ele>
        <time>2018-03-24T11:56:56Z</time>
      </trkpt>
      <trkpt lat="45.97437" lon="4.78302">
        <ele>234</ele>
        <time>2018-03-24T11:56:57Z</time>
      </trkpt>
      <trkpt lat="45.97431" lon="4.78312">
        <ele>234</ele>
        <time>2018-03-24T11:56:58Z</time>
      </trkpt>
      <trkpt lat="45.97426" lon="4.78319">
        <ele>234</ele>
        <time>2018-03-24T11:56:59Z</time>
      </trkpt>
      <trkpt lat="45.97419" lon="4.78328">
        <ele>233</ele>
        <time>2018-03-24T11:57:00Z</time>
      </trkpt>
      <trkpt lat="45.97413" lon="4.78335">
        <ele>233</ele>
        <time>2018-03-24T11:57:01Z</time>
      </trkpt>
      <trkpt lat="45.97407" lon="4.78342">
        <ele>233</ele>
        <time>2018-03-24T11:57:02Z</time>
      </trkpt>
      <trkpt lat="45.97401" lon="4.78349">
        <ele>233</ele>
        <time>2018-03-24T11:57:03Z</time>
      </trkpt>
      <trkpt lat="45.97395" lon="4.78356">
        <ele>233</ele>
        <time>2018-03-24T11:57:04Z</time>
      </trkpt>
      <trkpt lat="45.97389" lon="4.78361">
        <ele>233</ele>
        <time>2018-03-24T11:57:05Z</time>
      </trkpt>
      <trkpt lat="45.97383" lon="4.78367">
        <ele>233</ele>
        <time>2018-03-24T11:57:06Z</time>
      </trkpt>
      <trkpt lat="45.97377" lon="4.78371">
        <ele>233</ele>
        <time>2018-03-24T11:57:07Z</time>
      </trkpt>
      <trkpt lat="45.97372" lon="4.78377">
        <ele>233</ele>
        <time>2018-03-24T11:57:08Z</time>
      </trkpt>
      <trkpt lat="45.97367" lon="4.78382">
        <ele>233</ele>
        <time>2018-03-24T11:57:09Z</time>
      </trkpt>
      <trkpt lat="45.97363" lon="4.78388">
        <ele>233</ele>
        <time>2018-03-24T11:57:10Z</time>
      </trkpt>
      <trkpt lat="45.97358" lon="4.78393">
        <ele>233</ele>
        <time>2018-03-24T11:57:11Z</time>
      </trkpt>
      <trkpt lat="45.97353" lon="4.78398">
        <ele>233</ele>
        <time>2018-03-24T11:57:12Z</time>
      </trkpt>
      <trkpt lat="45.97345" lon="4.78399">
        <ele>232</ele>
        <time>2018-03-24T11:57:14Z</time>
      </trkpt>
      <trkpt lat="45.97341" lon="4.78396">
        <ele>232</ele>
        <time>2018-03-24T11:57:15Z</time>
      </trkpt>
      <trkpt lat="45.97337" lon="4.78391">
        <ele>233</ele>
        <time>2018-03-24T11:57:16Z</time>
      </trkpt>
      <trkpt lat="45.97333" lon="4.78386">
        <ele>232</ele>
        <time>2018-03-24T11:57:17Z</time>
      </trkpt>
      <trkpt lat="45.97329" lon="4.78381">
        <ele>232</ele>
        <time>2018-03-24T11:57:18Z</time>
      </trkpt>
      <trkpt lat="45.97325" lon="4.78376">
        <ele>232</ele>
        <time>2018-03-24T11:57:19Z</time>
      </trkpt>
      <trkpt lat="45.97319" lon="4.7837">
        <ele>232</ele>
        <time>2018-03-24T11:57:20Z</time>
      </trkpt>
      <trkpt lat="45.97315" lon="4.78365">
        <ele>232</ele>
        <time>2018-03-24T11:57:21Z</time>
      </trkpt>
      <trkpt lat="45.97311" lon="4.7836">
        <ele>232</ele>
        <time>2018-03-24T11:57:22Z</time>
      </trkpt>
      <trkpt lat="45.97307" lon="4.78354">
        <ele>232</ele>
        <time>2018-03-24T11:57:23Z</time>
      </trkpt>
      <trkpt lat="45.97303" lon="4.78348">
        <ele>232</ele>
        <time>2018-03-24T11:57:24Z</time>
      </trkpt>
      <trkpt lat="45.97298" lon="4.78345">
        <ele>232</ele>
        <time>2018-03-24T11:57:25Z</time>
      </trkpt>
      <trkpt lat="45.97295" lon="4.78339">
        <ele>232</ele>
        <time>2018-03-24T11:57:26Z</time>
      </trkpt>
      <trkpt lat="45.97291" lon="4.78334">
        <ele>232</ele>
        <time>2018-03-24T11:57:27Z</time>
      </trkpt>
      <trkpt lat="45.97287" lon="4.7833">
        <ele>232</ele>
        <time>2018-03-24T11:57:28Z</time>
      </trkpt>
      <trkpt lat="45.97284" lon="4.78324">
        <ele>232</ele>
        <time>2018-03-24T11:57:29Z</time>
      </trkpt>
      <trkpt lat="45.9728" lon="4.78319">
        <ele>232</ele>
        <time>2018-03-24T11:57:30Z</time>
      </trkpt>
      <trkpt lat="45.97277" lon="4.78314">
        <ele>232</ele>
        <time>2018-03-24T11:57:31Z</time>
      </trkpt>
      <trkpt lat="45.97273" lon="4.78308">
        <ele>232</ele>
        <time>2018-03-24T11:57:32Z</time>
      </trkpt>
      <trkpt lat="45.97269" lon="4.78303">
        <ele>232</ele>
        <time>2018-03-24T11:57:33Z</time>
      </trkpt>
      <trkpt lat="45.97266" lon="4.78297">
        <ele>232</ele>
        <time>2018-03-24T11:57:34Z</time>
      </trkpt>
      <trkpt lat="45.97263" lon="4.78293">
        <ele>232</ele>
        <time>2018-03-24T11:57:35Z</time>
      </trkpt>
      <trkpt lat="45.97259" lon="4.78285">
        <ele>232</ele>
        <time>2018-03-24T11:57:36Z</time>
      </trkpt>
      <trkpt lat="45.97255" lon="4.78281">
        <ele>232</ele>
        <time>2018-03-24T11:57:37Z</time>
      </trkpt>
      <trkpt lat="45.9725" lon="4.78276">
        <ele>231</ele>
        <time>2018-03-24T11:57:38Z</time>
      </trkpt>
      <trkpt lat="45.97246" lon="4.78271">
        <ele>231</ele>
        <time>2018-03-24T11:57:39Z</time>
      </trkpt>
      <trkpt lat="45.9724" lon="4.78262">
        <ele>231</ele>
        <time>2018-03-24T11:57:41Z</time>
      </trkpt>
      <trkpt lat="45.97237" lon="4.78257">
        <ele>231</ele>
        <time>2018-03-24T11:57:42Z</time>
      </trkpt>
      <trkpt lat="45.97233" lon="4.7825">
        <ele>231</ele>
        <time>2018-03-24T11:57:43Z</time>
      </trkpt>
      <trkpt lat="45.97229" lon="4.78241">
        <ele>231</ele>
        <time>2018-03-24T11:57:44Z</time>
      </trkpt>
      <trkpt lat="45.97225" lon="4.78237">
        <ele>231</ele>
        <time>2018-03-24T11:57:45Z</time>
      </trkpt>
      <trkpt lat="45.9722" lon="4.78235">
        <ele>231</ele>
        <time>2018-03-24T11:57:46Z</time>
      </trkpt>
      <trkpt lat="45.97213" lon="4.78239">
        <ele>231</ele>
        <time>2018-03-24T11:57:48Z</time>
      </trkpt>
      <trkpt lat="45.97208" lon="4.78243">
        <ele>231</ele>
        <time>2018-03-24T11:57:49Z</time>
      </trkpt>
      <trkpt lat="45.97205" lon="4.78247">
        <ele>231</ele>
        <time>2018-03-24T11:57:50Z</time>
      </trkpt>
      <trkpt lat="45.972" lon="4.78251">
        <ele>230</ele>
        <time>2018-03-24T11:57:51Z</time>
      </trkpt>
      <trkpt lat="45.97196" lon="4.78255">
        <ele>230</ele>
        <time>2018-03-24T11:57:52Z</time>
      </trkpt>
      <trkpt lat="45.97192" lon="4.78259">
        <ele>230</ele>
        <time>2018-03-24T11:57:53Z</time>
      </trkpt>
      <trkpt lat="45.97187" lon="4.78262">
        <ele>230</ele>
        <time>2018-03-24T11:57:54Z</time>
      </trkpt>
      <trkpt lat="45.97183" lon="4.78266">
        <ele>230</ele>
        <time>2018-03-24T11:57:55Z</time>
      </trkpt>
      <trkpt lat="45.97178" lon="4.78269">
        <ele>230</ele>
        <time>2018-03-24T11:57:56Z</time>
      </trkpt>
      <trkpt lat="45.97174" lon="4.78273">
        <ele>230</ele>
        <time>2018-03-24T11:57:57Z</time>
      </trkpt>
      <trkpt lat="45.97169" lon="4.78276">
        <ele>230</ele>
        <time>2018-03-24T11:57:58Z</time>
      </trkpt>
      <trkpt lat="45.97165" lon="4.78281">
        <ele>230</ele>
        <time>2018-03-24T11:57:59Z</time>
      </trkpt>
      <trkpt lat="45.97161" lon="4.78283">
        <ele>230</ele>
        <time>2018-03-24T11:58:00Z</time>
      </trkpt>
      <trkpt lat="45.97157" lon="4.78287">
        <ele>230</ele>
        <time>2018-03-24T11:58:01Z</time>
      </trkpt>
      <trkpt lat="45.97152" lon="4.7829">
        <ele>230</ele>
        <time>2018-03-24T11:58:02Z</time>
      </trkpt>
      <trkpt lat="45.97148" lon="4.78294">
        <ele>230</ele>
        <time>2018-03-24T11:58:03Z</time>
      </trkpt>
      <trkpt lat="45.97142" lon="4.783">
        <ele>230</ele>
        <time>2018-03-24T11:58:05Z</time>
      </trkpt>
      <trkpt lat="45.97137" lon="4.78304">
        <ele>230</ele>
        <time>2018-03-24T11:58:06Z</time>
      </trkpt>
      <trkpt lat="45.97133" lon="4.78307">
        <ele>230</ele>
        <time>2018-03-24T11:58:07Z</time>
      </trkpt>
      <trkpt lat="45.97128" lon="4.7831">
        <ele>230</ele>
        <time>2018-03-24T11:58:08Z</time>
      </trkpt>
      <trkpt lat="45.97123" lon="4.78315">
        <ele>231</ele>
        <time>2018-03-24T11:58:09Z</time>
      </trkpt>
      <trkpt lat="45.97119" lon="4.78318">
        <ele>231</ele>
        <time>2018-03-24T11:58:10Z</time>
      </trkpt>
      <trkpt lat="45.97115" lon="4.78321">
        <ele>231</ele>
        <time>2018-03-24T11:58:11Z</time>
      </trkpt>
      <trkpt lat="45.9711" lon="4.78325">
        <ele>231</ele>
        <time>2018-03-24T11:58:12Z</time>
      </trkpt>
      <trkpt lat="45.97105" lon="4.78328">
        <ele>231</ele>
        <time>2018-03-24T11:58:13Z</time>
      </trkpt>
      <trkpt lat="45.97101" lon="4.78331">
        <ele>231</ele>
        <time>2018-03-24T11:58:14Z</time>
      </trkpt>
      <trkpt lat="45.97096" lon="4.78334">
        <ele>231</ele>
        <time>2018-03-24T11:58:15Z</time>
      </trkpt>
      <trkpt lat="45.97092" lon="4.78338">
        <ele>231</ele>
        <time>2018-03-24T11:58:16Z</time>
      </trkpt>
      <trkpt lat="45.97087" lon="4.78343">
        <ele>231</ele>
        <time>2018-03-24T11:58:17Z</time>
      </trkpt>
      <trkpt lat="45.97083" lon="4.78347">
        <ele>230</ele>
        <time>2018-03-24T11:58:18Z</time>
      </trkpt>
      <trkpt lat="45.97079" lon="4.7835">
        <ele>230</ele>
        <time>2018-03-24T11:58:19Z</time>
      </trkpt>
      <trkpt lat="45.97074" lon="4.78354">
        <ele>230</ele>
        <time>2018-03-24T11:58:20Z</time>
      </trkpt>
      <trkpt lat="45.9707" lon="4.78358">
        <ele>230</ele>
        <time>2018-03-24T11:58:21Z</time>
      </trkpt>
      <trkpt lat="45.97066" lon="4.7836">
        <ele>230</ele>
        <time>2018-03-24T11:58:22Z</time>
      </trkpt>
      <trkpt lat="45.97061" lon="4.78364">
        <ele>230</ele>
        <time>2018-03-24T11:58:23Z</time>
      </trkpt>
      <trkpt lat="45.97057" lon="4.78369">
        <ele>230</ele>
        <time>2018-03-24T11:58:24Z</time>
      </trkpt>
      <trkpt lat="45.97052" lon="4.78372">
        <ele>229</ele>
        <time>2018-03-24T11:58:25Z</time>
      </trkpt>
      <trkpt lat="45.97048" lon="4.78375">
        <ele>229</ele>
        <time>2018-03-24T11:58:26Z</time>
      </trkpt>
      <trkpt lat="45.97043" lon="4.7838">
        <ele>229</ele>
        <time>2018-03-24T11:58:27Z</time>
      </trkpt>
      <trkpt lat="45.97038" lon="4.78384">
        <ele>229</ele>
        <time>2018-03-24T11:58:28Z</time>
      </trkpt>
      <trkpt lat="45.97033" lon="4.78388">
        <ele>229</ele>
        <time>2018-03-24T11:58:29Z</time>
      </trkpt>
      <trkpt lat="45.97027" lon="4.78393">
        <ele>229</ele>
        <time>2018-03-24T11:58:30Z</time>
      </trkpt>
      <trkpt lat="45.97022" lon="4.78397">
        <ele>229</ele>
        <time>2018-03-24T11:58:31Z</time>
      </trkpt>
      <trkpt lat="45.97016" lon="4.78402">
        <ele>228</ele>
        <time>2018-03-24T11:58:32Z</time>
      </trkpt>
      <trkpt lat="45.9701" lon="4.78406">
        <ele>228</ele>
        <time>2018-03-24T11:58:33Z</time>
      </trkpt>
      <trkpt lat="45.97003" lon="4.78411">
        <ele>228</ele>
        <time>2018-03-24T11:58:34Z</time>
      </trkpt>
      <trkpt lat="45.96996" lon="4.78415">
        <ele>227</ele>
        <time>2018-03-24T11:58:35Z</time>
      </trkpt>
      <trkpt lat="45.96988" lon="4.78418">
        <ele>225</ele>
        <time>2018-03-24T11:58:36Z</time>
      </trkpt>
      <trkpt lat="45.96979" lon="4.78421">
        <ele>224</ele>
        <time>2018-03-24T11:58:37Z</time>
      </trkpt>
      <trkpt lat="45.96971" lon="4.78423">
        <ele>224</ele>
        <time>2018-03-24T11:58:38Z</time>
      </trkpt>
      <trkpt lat="45.96964" lon="4.78424">
        <ele>223</ele>
        <time>2018-03-24T11:58:39Z</time>
      </trkpt>
      <trkpt lat="45.96955" lon="4.78425">
        <ele>222</ele>
        <time>2018-03-24T11:58:40Z</time>
      </trkpt>
      <trkpt lat="45.96947" lon="4.78427">
        <ele>222</ele>
        <time>2018-03-24T11:58:41Z</time>
      </trkpt>
      <trkpt lat="45.9694" lon="4.7843">
        <ele>222</ele>
        <time>2018-03-24T11:58:42Z</time>
      </trkpt>
      <trkpt lat="45.96933" lon="4.78435">
        <ele>221</ele>
        <time>2018-03-24T11:58:43Z</time>
      </trkpt>
      <trkpt lat="45.96928" lon="4.78443">
        <ele>221</ele>
        <time>2018-03-24T11:58:44Z</time>
      </trkpt>
      <trkpt lat="45.96921" lon="4.78451">
        <ele>221</ele>
        <time>2018-03-24T11:58:45Z</time>
      </trkpt>
      <trkpt lat="45.96915" lon="4.78458">
        <ele>215</ele>
        <time>2018-03-24T11:58:46Z</time>
      </trkpt>
      <trkpt lat="45.96908" lon="4.78466">
        <ele>214</ele>
        <time>2018-03-24T11:58:47Z</time>
      </trkpt>
      <trkpt lat="45.96902" lon="4.78474">
        <ele>214</ele>
        <time>2018-03-24T11:58:48Z</time>
      </trkpt>
      <trkpt lat="45.96895" lon="4.78482">
        <ele>213</ele>
        <time>2018-03-24T11:58:49Z</time>
      </trkpt>
      <trkpt lat="45.96889" lon="4.7849">
        <ele>213</ele>
        <time>2018-03-24T11:58:50Z</time>
      </trkpt>
      <trkpt lat="45.96883" lon="4.78498">
        <ele>212</ele>
        <time>2018-03-24T11:58:51Z</time>
      </trkpt>
      <trkpt lat="45.96877" lon="4.78506">
        <ele>208</ele>
        <time>2018-03-24T11:58:52Z</time>
      </trkpt>
      <trkpt lat="45.9687" lon="4.78513">
        <ele>208</ele>
        <time>2018-03-24T11:58:53Z</time>
      </trkpt>
      <trkpt lat="45.96864" lon="4.7852">
        <ele>207</ele>
        <time>2018-03-24T11:58:54Z</time>
      </trkpt>
      <trkpt lat="45.96858" lon="4.78527">
        <ele>207</ele>
        <time>2018-03-24T11:58:55Z</time>
      </trkpt>
      <trkpt lat="45.96853" lon="4.78533">
        <ele>207</ele>
        <time>2018-03-24T11:58:56Z</time>
      </trkpt>
      <trkpt lat="45.96847" lon="4.78539">
        <ele>207</ele>
        <time>2018-03-24T11:58:57Z</time>
      </trkpt>
      <trkpt lat="45.96842" lon="4.78544">
        <ele>206</ele>
        <time>2018-03-24T11:58:58Z</time>
      </trkpt>
      <trkpt lat="45.96838" lon="4.78549">
        <ele>206</ele>
        <time>2018-03-24T11:58:59Z</time>
      </trkpt>
      <trkpt lat="45.96834" lon="4.78556">
        <ele>206</ele>
        <time>2018-03-24T11:59:00Z</time>
      </trkpt>
      <trkpt lat="45.96826" lon="4.78562">
        <ele>203</ele>
        <time>2018-03-24T11:59:02Z</time>
      </trkpt>
      <trkpt lat="45.96823" lon="4.78564">
        <ele>203</ele>
        <time>2018-03-24T11:59:03Z</time>
      </trkpt>
      <trkpt lat="45.96815" lon="4.78566">
        <ele>203</ele>
        <time>2018-03-24T11:59:05Z</time>
      </trkpt>
      <trkpt lat="45.96811" lon="4.78565">
        <ele>203</ele>
        <time>2018-03-24T11:59:06Z</time>
      </trkpt>
      <trkpt lat="45.96804" lon="4.78558">
        <ele>203</ele>
        <time>2018-03-24T11:59:08Z</time>
      </trkpt>
      <trkpt lat="45.968" lon="4.78553">
        <ele>203</ele>
        <time>2018-03-24T11:59:09Z</time>
      </trkpt>
      <trkpt lat="45.96796" lon="4.78547">
        <ele>203</ele>
        <time>2018-03-24T11:59:10Z</time>
      </trkpt>
      <trkpt lat="45.96793" lon="4.78543">
        <ele>203</ele>
        <time>2018-03-24T11:59:11Z</time>
      </trkpt>
      <trkpt lat="45.96789" lon="4.78536">
        <ele>203</ele>
        <time>2018-03-24T11:59:12Z</time>
      </trkpt>
      <trkpt lat="45.96785" lon="4.78529">
        <ele>203</ele>
        <time>2018-03-24T11:59:13Z</time>
      </trkpt>
      <trkpt lat="45.96781" lon="4.78523">
        <ele>203</ele>
        <time>2018-03-24T11:59:14Z</time>
      </trkpt>
      <trkpt lat="45.96777" lon="4.78517">
        <ele>203</ele>
        <time>2018-03-24T11:59:15Z</time>
      </trkpt>
      <trkpt lat="45.96773" lon="4.78511">
        <ele>203</ele>
        <time>2018-03-24T11:59:16Z</time>
      </trkpt>
      <trkpt lat="45.96769" lon="4.78504">
        <ele>203</ele>
        <time>2018-03-24T11:59:17Z</time>
      </trkpt>
      <trkpt lat="45.96764" lon="4.78499">
        <ele>204</ele>
        <time>2018-03-24T11:59:18Z</time>
      </trkpt>
      <trkpt lat="45.9676" lon="4.78492">
        <ele>204</ele>
        <time>2018-03-24T11:59:19Z</time>
      </trkpt>
      <trkpt lat="45.96756" lon="4.78487">
        <ele>204</ele>
        <time>2018-03-24T11:59:20Z</time>
      </trkpt>
      <trkpt lat="45.96752" lon="4.78483">
        <ele>205</ele>
        <time>2018-03-24T11:59:21Z</time>
      </trkpt>
      <trkpt lat="45.96748" lon="4.78479">
        <ele>203</ele>
        <time>2018-03-24T11:59:22Z</time>
      </trkpt>
      <trkpt lat="45.96745" lon="4.78473">
        <ele>203</ele>
        <time>2018-03-24T11:59:23Z</time>
      </trkpt>
      <trkpt lat="45.9674" lon="4.78469">
        <ele>203</ele>
        <time>2018-03-24T11:59:24Z</time>
      </trkpt>
      <trkpt lat="45.96735" lon="4.78466">
        <ele>203</ele>
        <time>2018-03-24T11:59:25Z</time>
      </trkpt>
      <trkpt lat="45.96731" lon="4.78463">
        <ele>203</ele>
        <time>2018-03-24T11:59:26Z</time>
      </trkpt>
      <trkpt lat="45.96726" lon="4.78459">
        <ele>203</ele>
        <time>2018-03-24T11:59:27Z</time>
      </trkpt>
      <trkpt lat="45.96721" lon="4.78454">
        <ele>203</ele>
        <time>2018-03-24T11:59:28Z</time>
      </trkpt>
      <trkpt lat="45.96717" lon="4.7845">
        <ele>203</ele>
        <time>2018-03-24T11:59:29Z</time>
      </trkpt>
      <trkpt lat="45.96714" lon="4.78445">
        <ele>203</ele>
        <time>2018-03-24T11:59:30Z</time>
      </trkpt>
      <trkpt lat="45.9671" lon="4.78441">
        <ele>203</ele>
        <time>2018-03-24T11:59:31Z</time>
      </trkpt>
      <trkpt lat="45.96706" lon="4.78436">
        <ele>203</ele>
        <time>2018-03-24T11:59:32Z</time>
      </trkpt>
      <trkpt lat="45.96702" lon="4.78432">
        <ele>203</ele>
        <time>2018-03-24T11:59:33Z</time>
      </trkpt>
      <trkpt lat="45.96698" lon="4.78429">
        <ele>203</ele>
        <time>2018-03-24T11:59:34Z</time>
      </trkpt>
      <trkpt lat="45.96694" lon="4.78425">
        <ele>202</ele>
        <time>2018-03-24T11:59:35Z</time>
      </trkpt>
      <trkpt lat="45.96691" lon="4.78419">
        <ele>202</ele>
        <time>2018-03-24T11:59:36Z</time>
      </trkpt>
      <trkpt lat="45.96687" lon="4.78414">
        <ele>204</ele>
        <time>2018-03-24T11:59:37Z</time>
      </trkpt>
      <trkpt lat="45.96682" lon="4.78411">
        <ele>204</ele>
        <time>2018-03-24T11:59:38Z</time>
      </trkpt>
      <trkpt lat="45.96678" lon="4.78408">
        <ele>203</ele>
        <time>2018-03-24T11:59:39Z</time>
      </trkpt>
      <trkpt lat="45.96674" lon="4.78404">
        <ele>204</ele>
        <time>2018-03-24T11:59:40Z</time>
      </trkpt>
      <trkpt lat="45.9667" lon="4.78399">
        <ele>204</ele>
        <time>2018-03-24T11:59:41Z</time>
      </trkpt>
      <trkpt lat="45.96666" lon="4.78394">
        <ele>201</ele>
        <time>2018-03-24T11:59:42Z</time>
      </trkpt>
      <trkpt lat="45.96661" lon="4.78388">
        <ele>201</ele>
        <time>2018-03-24T11:59:43Z</time>
      </trkpt>
      <trkpt lat="45.96655" lon="4.78383">
        <ele>201</ele>
        <time>2018-03-24T11:59:44Z</time>
      </trkpt>
      <trkpt lat="45.9665" lon="4.78379">
        <ele>201</ele>
        <time>2018-03-24T11:59:45Z</time>
      </trkpt>
      <trkpt lat="45.96644" lon="4.78374">
        <ele>201</ele>
        <time>2018-03-24T11:59:46Z</time>
      </trkpt>
      <trkpt lat="45.96639" lon="4.7837">
        <ele>201</ele>
        <time>2018-03-24T11:59:47Z</time>
      </trkpt>
      <trkpt lat="45.96634" lon="4.78364">
        <ele>201</ele>
        <time>2018-03-24T11:59:48Z</time>
      </trkpt>
      <trkpt lat="45.96631" lon="4.7836">
        <ele>201</ele>
        <time>2018-03-24T11:59:49Z</time>
      </trkpt>
      <trkpt lat="45.96625" lon="4.78356">
        <ele>201</ele>
        <time>2018-03-24T11:59:50Z</time>
      </trkpt>
      <trkpt lat="45.9662" lon="4.78352">
        <ele>201</ele>
        <time>2018-03-24T11:59:51Z</time>
      </trkpt>
      <trkpt lat="45.96615" lon="4.78348">
        <ele>201</ele>
        <time>2018-03-24T11:59:52Z</time>
      </trkpt>
      <trkpt lat="45.9661" lon="4.78344">
        <ele>200</ele>
        <time>2018-03-24T11:59:53Z</time>
      </trkpt>
      <trkpt lat="45.96606" lon="4.78341">
        <ele>200</ele>
        <time>2018-03-24T11:59:54Z</time>
      </trkpt>
      <trkpt lat="45.96602" lon="4.78336">
        <ele>200</ele>
        <time>2018-03-24T11:59:55Z</time>
      </trkpt>
      <trkpt lat="45.96598" lon="4.7833">
        <ele>202</ele>
        <time>2018-03-24T11:59:56Z</time>
      </trkpt>
      <trkpt lat="45.96593" lon="4.78325">
        <ele>202</ele>
        <time>2018-03-24T11:59:57Z</time>
      </trkpt>
      <trkpt lat="45.96589" lon="4.7832">
        <ele>202</ele>
        <time>2018-03-24T11:59:58Z</time>
      </trkpt>
      <trkpt lat="45.96584" lon="4.78316">
        <ele>202</ele>
        <time>2018-03-24T11:59:59Z</time>
      </trkpt>
      <trkpt lat="45.96579" lon="4.7831">
        <ele>199</ele>
        <time>2018-03-24T12:00:00Z</time>
      </trkpt>
      <trkpt lat="45.96574" lon="4.78305">
        <ele>200</ele>
        <time>2018-03-24T12:00:01Z</time>
      </trkpt>
      <trkpt lat="45.9657" lon="4.78301">
        <ele>200</ele>
        <time>2018-03-24T12:00:02Z</time>
      </trkpt>
      <trkpt lat="45.96565" lon="4.78297">
        <ele>200</ele>
        <time>2018-03-24T12:00:03Z</time>
      </trkpt>
      <trkpt lat="45.9656" lon="4.78294">
        <ele>200</ele>
        <time>2018-03-24T12:00:04Z</time>
      </trkpt>
      <trkpt lat="45.96556" lon="4.78288">
        <ele>200</ele>
        <time>2018-03-24T12:00:05Z</time>
      </trkpt>
      <trkpt lat="45.96552" lon="4.78285">
        <ele>200</ele>
        <time>2018-03-24T12:00:06Z</time>
      </trkpt>
      <trkpt lat="45.96548" lon="4.7828">
        <ele>200</ele>
        <time>2018-03-24T12:00:07Z</time>
      </trkpt>
      <trkpt lat="45.96544" lon="4.78275">
        <ele>200</ele>
        <time>2018-03-24T12:00:08Z</time>
      </trkpt>
      <trkpt lat="45.9654" lon="4.7827">
        <ele>200</ele>
        <time>2018-03-24T12:00:09Z</time>
      </trkpt>
      <trkpt lat="45.96537" lon="4.78266">
        <ele>200</ele>
        <time>2018-03-24T12:00:10Z</time>
      </trkpt>
      <trkpt lat="45.96534" lon="4.78261">
        <ele>200</ele>
        <time>2018-03-24T12:00:11Z</time>
      </trkpt>
      <trkpt lat="45.96531" lon="4.78256">
        <ele>200</ele>
        <time>2018-03-24T12:00:12Z</time>
      </trkpt>
      <trkpt lat="45.96528" lon="4.7825">
        <ele>204</ele>
        <time>2018-03-24T12:00:13Z</time>
      </trkpt>
      <trkpt lat="45.96523" lon="4.78244">
        <ele>203</ele>
        <time>2018-03-24T12:00:14Z</time>
      </trkpt>
      <trkpt lat="45.9652" lon="4.78237">
        <ele>203</ele>
        <time>2018-03-24T12:00:15Z</time>
      </trkpt>
      <trkpt lat="45.96516" lon="4.78231">
        <ele>203</ele>
        <time>2018-03-24T12:00:16Z</time>
      </trkpt>
      <trkpt lat="45.96513" lon="4.78224">
        <ele>204</ele>
        <time>2018-03-24T12:00:17Z</time>
      </trkpt>
      <trkpt lat="45.96507" lon="4.78214">
        <ele>205</ele>
        <time>2018-03-24T12:00:19Z</time>
      </trkpt>
      <trkpt lat="45.96504" lon="4.78208">
        <ele>205</ele>
        <time>2018-03-24T12:00:20Z</time>
      </trkpt>
      <trkpt lat="45.96498" lon="4.782">
        <ele>201</ele>
        <time>2018-03-24T12:00:22Z</time>
      </trkpt>
      <trkpt lat="45.96494" lon="4.78197">
        <ele>201</ele>
        <time>2018-03-24T12:00:23Z</time>
      </trkpt>
      <trkpt lat="45.9649" lon="4.78193">
        <ele>201</ele>
        <time>2018-03-24T12:00:24Z</time>
      </trkpt>
      <trkpt lat="45.96484" lon="4.78192">
        <ele>201</ele>
        <time>2018-03-24T12:00:25Z</time>
      </trkpt>
      <trkpt lat="45.96479" lon="4.78189">
        <ele>201</ele>
        <time>2018-03-24T12:00:26Z</time>
      </trkpt>
      <trkpt lat="45.96473" lon="4.78185">
        <ele>200</ele>
        <time>2018-03-24T12:00:27Z</time>
      </trkpt>
      <trkpt lat="45.96468" lon="4.78182">
        <ele>200</ele>
        <time>2018-03-24T12:00:28Z</time>
      </trkpt>
      <trkpt lat="45.96463" lon="4.78179">
        <ele>200</ele>
        <time>2018-03-24T12:00:29Z</time>
      </trkpt>
      <trkpt lat="45.96458" lon="4.78174">
        <ele>200</ele>
        <time>2018-03-24T12:00:30Z</time>
      </trkpt>
      <trkpt lat="45.96454" lon="4.78171">
        <ele>200</ele>
        <time>2018-03-24T12:00:31Z</time>
      </trkpt>
      <trkpt lat="45.96449" lon="4.78168">
        <ele>199</ele>
        <time>2018-03-24T12:00:32Z</time>
      </trkpt>
      <trkpt lat="45.96445" lon="4.78165">
        <ele>203</ele>
        <time>2018-03-24T12:00:33Z</time>
      </trkpt>
      <trkpt lat="45.96441" lon="4.78161">
        <ele>203</ele>
        <time>2018-03-24T12:00:34Z</time>
      </trkpt>
      <trkpt lat="45.96437" lon="4.78157">
        <ele>202</ele>
        <time>2018-03-24T12:00:35Z</time>
      </trkpt>
      <trkpt lat="45.96433" lon="4.78154">
        <ele>202</ele>
        <time>2018-03-24T12:00:36Z</time>
      </trkpt>
      <trkpt lat="45.96428" lon="4.78151">
        <ele>202</ele>
        <time>2018-03-24T12:00:37Z</time>
      </trkpt>
      <trkpt lat="45.96421" lon="4.78145">
        <ele>202</ele>
        <time>2018-03-24T12:00:38Z</time>
      </trkpt>
      <trkpt lat="45.96416" lon="4.78141">
        <ele>199</ele>
        <time>2018-03-24T12:00:39Z</time>
      </trkpt>
      <trkpt lat="45.96412" lon="4.78137">
        <ele>199</ele>
        <time>2018-03-24T12:00:40Z</time>
      </trkpt>
      <trkpt lat="45.96408" lon="4.78133">
        <ele>199</ele>
        <time>2018-03-24T12:00:41Z</time>
      </trkpt>
      <trkpt lat="45.96405" lon="4.78129">
        <ele>199</ele>
        <time>2018-03-24T12:00:42Z</time>
      </trkpt>
      <trkpt lat="45.96401" lon="4.78125">
        <ele>200</ele>
        <time>2018-03-24T12:00:43Z</time>
      </trkpt>
      <trkpt lat="45.96395" lon="4.78118">
        <ele>200</ele>
        <time>2018-03-24T12:00:44Z</time>
      </trkpt>
      <trkpt lat="45.9639" lon="4.78115">
        <ele>200</ele>
        <time>2018-03-24T12:00:45Z</time>
      </trkpt>
      <trkpt lat="45.96387" lon="4.7811">
        <ele>200</ele>
        <time>2018-03-24T12:00:46Z</time>
      </trkpt>
      <trkpt lat="45.96383" lon="4.78104">
        <ele>200</ele>
        <time>2018-03-24T12:00:47Z</time>
      </trkpt>
      <trkpt lat="45.96379" lon="4.78101">
        <ele>200</ele>
        <time>2018-03-24T12:00:48Z</time>
      </trkpt>
      <trkpt lat="45.96375" lon="4.78097">
        <ele>200</ele>
        <time>2018-03-24T12:00:49Z</time>
      </trkpt>
      <trkpt lat="45.96371" lon="4.78092">
        <ele>199</ele>
        <time>2018-03-24T12:00:50Z</time>
      </trkpt>
      <trkpt lat="45.96367" lon="4.78089">
        <ele>199</ele>
        <time>2018-03-24T12:00:51Z</time>
      </trkpt>
      <trkpt lat="45.96361" lon="4.78081">
        <ele>202</ele>
        <time>2018-03-24T12:00:53Z</time>
      </trkpt>
      <trkpt lat="45.96357" lon="4.78077">
        <ele>202</ele>
        <time>2018-03-24T12:00:54Z</time>
      </trkpt>
      <trkpt lat="45.96353" lon="4.78071">
        <ele>202</ele>
        <time>2018-03-24T12:00:55Z</time>
      </trkpt>
      <trkpt lat="45.96349" lon="4.78067">
        <ele>202</ele>
        <time>2018-03-24T12:00:56Z</time>
      </trkpt>
      <trkpt lat="45.96343" lon="4.7806">
        <ele>202</ele>
        <time>2018-03-24T12:00:58Z</time>
      </trkpt>
      <trkpt lat="45.96339" lon="4.78055">
        <ele>202</ele>
        <time>2018-03-24T12:00:59Z</time>
      </trkpt>
      <trkpt lat="45.96335" lon="4.7805">
        <ele>202</ele>
        <time>2018-03-24T12:01:00Z</time>
      </trkpt>
      <trkpt lat="45.96331" lon="4.78047">
        <ele>199</ele>
        <time>2018-03-24T12:01:01Z</time>
      </trkpt>
      <trkpt lat="45.96328" lon="4.78041">
        <ele>199</ele>
        <time>2018-03-24T12:01:02Z</time>
      </trkpt>
      <trkpt lat="45.96324" lon="4.78035">
        <ele>200</ele>
        <time>2018-03-24T12:01:03Z</time>
      </trkpt>
      <trkpt lat="45.9632" lon="4.78031">
        <ele>200</ele>
        <time>2018-03-24T12:01:04Z</time>
      </trkpt>
      <trkpt lat="45.96317" lon="4.78026">
        <ele>200</ele>
        <time>2018-03-24T12:01:05Z</time>
      </trkpt>
      <trkpt lat="45.96313" lon="4.78022">
        <ele>200</ele>
        <time>2018-03-24T12:01:06Z</time>
      </trkpt>
      <trkpt lat="45.96309" lon="4.78018">
        <ele>200</ele>
        <time>2018-03-24T12:01:07Z</time>
      </trkpt>
      <trkpt lat="45.96305" lon="4.78014">
        <ele>200</ele>
        <time>2018-03-24T12:01:08Z</time>
      </trkpt>
      <trkpt lat="45.96301" lon="4.7801">
        <ele>200</ele>
        <time>2018-03-24T12:01:09Z</time>
      </trkpt>
      <trkpt lat="45.96294" lon="4.78005">
        <ele>199</ele>
        <time>2018-03-24T12:01:10Z</time>
      </trkpt>
      <trkpt lat="45.96289" lon="4.77999">
        <ele>204</ele>
        <time>2018-03-24T12:01:11Z</time>
      </trkpt>
      <trkpt lat="45.96285" lon="4.77995">
        <ele>204</ele>
        <time>2018-03-24T12:01:12Z</time>
      </trkpt>
      <trkpt lat="45.96281" lon="4.77991">
        <ele>203</ele>
        <time>2018-03-24T12:01:13Z</time>
      </trkpt>
      <trkpt lat="45.96274" lon="4.77985">
        <ele>203</ele>
        <time>2018-03-24T12:01:15Z</time>
      </trkpt>
      <trkpt lat="45.96271" lon="4.77982">
        <ele>203</ele>
        <time>2018-03-24T12:01:16Z</time>
      </trkpt>
      <trkpt lat="45.96264" lon="4.77975">
        <ele>203</ele>
        <time>2018-03-24T12:01:18Z</time>
      </trkpt>
      <trkpt lat="45.96259" lon="4.77972">
        <ele>203</ele>
        <time>2018-03-24T12:01:19Z</time>
      </trkpt>
      <trkpt lat="45.96251" lon="4.77966">
        <ele>204</ele>
        <time>2018-03-24T12:01:21Z</time>
      </trkpt>
      <trkpt lat="45.96247" lon="4.77962">
        <ele>199</ele>
        <time>2018-03-24T12:01:22Z</time>
      </trkpt>
      <trkpt lat="45.9624" lon="4.77956">
        <ele>199</ele>
        <time>2018-03-24T12:01:24Z</time>
      </trkpt>
      <trkpt lat="45.9624" lon="4.77953">
        <ele>200</ele>
        <time>2018-03-24T12:01:25Z</time>
      </trkpt>
      <trkpt lat="45.96236" lon="4.77947">
        <ele>200</ele>
        <time>2018-03-24T12:01:27Z</time>
      </trkpt>
      <trkpt lat="45.96232" lon="4.77943">
        <ele>200</ele>
        <time>2018-03-24T12:01:28Z</time>
      </trkpt>
      <trkpt lat="45.96228" lon="4.77939">
        <ele>200</ele>
        <time>2018-03-24T12:01:29Z</time>
      </trkpt>
      <trkpt lat="45.96224" lon="4.77934">
        <ele>200</ele>
        <time>2018-03-24T12:01:30Z</time>
      </trkpt>
      <trkpt lat="45.96219" lon="4.77925">
        <ele>200</ele>
        <time>2018-03-24T12:01:32Z</time>
      </trkpt>
      <trkpt lat="45.96214" lon="4.77919">
        <ele>200</ele>
        <time>2018-03-24T12:01:33Z</time>
      </trkpt>
      <trkpt lat="45.9621" lon="4.77914">
        <ele>202</ele>
        <time>2018-03-24T12:01:34Z</time>
      </trkpt>
      <trkpt lat="45.96206" lon="4.77908">
        <ele>202</ele>
        <time>2018-03-24T12:01:35Z</time>
      </trkpt>
      <trkpt lat="45.96203" lon="4.77904">
        <ele>202</ele>
        <time>2018-03-24T12:01:36Z</time>
      </trkpt>
      <trkpt lat="45.962" lon="4.77899">
        <ele>202</ele>
        <time>2018-03-24T12:01:37Z</time>
      </trkpt>
      <trkpt lat="45.96196" lon="4.77894">
        <ele>201</ele>
        <time>2018-03-24T12:01:38Z</time>
      </trkpt>
      <trkpt lat="45.96193" lon="4.77888">
        <ele>201</ele>
        <time>2018-03-24T12:01:39Z</time>
      </trkpt>
      <trkpt lat="45.96189" lon="4.77881">
        <ele>201</ele>
        <time>2018-03-24T12:01:40Z</time>
      </trkpt>
      <trkpt lat="45.96185" lon="4.77874">
        <ele>201</ele>
        <time>2018-03-24T12:01:41Z</time>
      </trkpt>
      <trkpt lat="45.96181" lon="4.77869">
        <ele>201</ele>
        <time>2018-03-24T12:01:42Z</time>
      </trkpt>
      <trkpt lat="45.96178" lon="4.77862">
        <ele>201</ele>
        <time>2018-03-24T12:01:43Z</time>
      </trkpt>
      <trkpt lat="45.96174" lon="4.77857">
        <ele>201</ele>
        <time>2018-03-24T12:01:44Z</time>
      </trkpt>
      <trkpt lat="45.9617" lon="4.77852">
        <ele>201</ele>
        <time>2018-03-24T12:01:45Z</time>
      </trkpt>
      <trkpt lat="45.96167" lon="4.77847">
        <ele>197</ele>
        <time>2018-03-24T12:01:46Z</time>
      </trkpt>
      <trkpt lat="45.96163" lon="4.77841">
        <ele>198</ele>
        <time>2018-03-24T12:01:47Z</time>
      </trkpt>
      <trkpt lat="45.96159" lon="4.77835">
        <ele>198</ele>
        <time>2018-03-24T12:01:48Z</time>
      </trkpt>
      <trkpt lat="45.96156" lon="4.77829">
        <ele>198</ele>
        <time>2018-03-24T12:01:49Z</time>
      </trkpt>
      <trkpt lat="45.96152" lon="4.77823">
        <ele>198</ele>
        <time>2018-03-24T12:01:50Z</time>
      </trkpt>
      <trkpt lat="45.96148" lon="4.77817">
        <ele>198</ele>
        <time>2018-03-24T12:01:51Z</time>
      </trkpt>
      <trkpt lat="45.96145" lon="4.77812">
        <ele>198</ele>
        <time>2018-03-24T12:01:52Z</time>
      </trkpt>
      <trkpt lat="45.96142" lon="4.77808">
        <ele>198</ele>
        <time>2018-03-24T12:01:53Z</time>
      </trkpt>
      <trkpt lat="45.96138" lon="4.77803">
        <ele>198</ele>
        <time>2018-03-24T12:01:54Z</time>
      </trkpt>
      <trkpt lat="45.96135" lon="4.77798">
        <ele>198</ele>
        <time>2018-03-24T12:01:55Z</time>
      </trkpt>
      <trkpt lat="45.9613" lon="4.77787">
        <ele>198</ele>
        <time>2018-03-24T12:01:57Z</time>
      </trkpt>
      <trkpt lat="45.96128" lon="4.77782">
        <ele>198</ele>
        <time>2018-03-24T12:01:58Z</time>
      </trkpt>
      <trkpt lat="45.96125" lon="4.77777">
        <ele>197</ele>
        <time>2018-03-24T12:01:59Z</time>
      </trkpt>
      <trkpt lat="45.96122" lon="4.77769">
        <ele>197</ele>
        <time>2018-03-24T12:02:00Z</time>
      </trkpt>
      <trkpt lat="45.96119" lon="4.77763">
        <ele>197</ele>
        <time>2018-03-24T12:02:01Z</time>
      </trkpt>
      <trkpt lat="45.96116" lon="4.77757">
        <ele>197</ele>
        <time>2018-03-24T12:02:02Z</time>
      </trkpt>
      <trkpt lat="45.96112" lon="4.77751">
        <ele>197</ele>
        <time>2018-03-24T12:02:03Z</time>
      </trkpt>
      <trkpt lat="45.96111" lon="4.77746">
        <ele>199</ele>
        <time>2018-03-24T12:02:04Z</time>
      </trkpt>
      <trkpt lat="45.96106" lon="4.77739">
        <ele>199</ele>
        <time>2018-03-24T12:02:05Z</time>
      </trkpt>
      <trkpt lat="45.96103" lon="4.77733">
        <ele>199</ele>
        <time>2018-03-24T12:02:06Z</time>
      </trkpt>
      <trkpt lat="45.96099" lon="4.77727">
        <ele>199</ele>
        <time>2018-03-24T12:02:07Z</time>
      </trkpt>
      <trkpt lat="45.96094" lon="4.7772">
        <ele>199</ele>
        <time>2018-03-24T12:02:08Z</time>
      </trkpt>
      <trkpt lat="45.96089" lon="4.77713">
        <ele>200</ele>
        <time>2018-03-24T12:02:09Z</time>
      </trkpt>
      <trkpt lat="45.96085" lon="4.77708">
        <ele>200</ele>
        <time>2018-03-24T12:02:10Z</time>
      </trkpt>
      <trkpt lat="45.96083" lon="4.77703">
        <ele>200</ele>
        <time>2018-03-24T12:02:11Z</time>
      </trkpt>
      <trkpt lat="45.96079" lon="4.77697">
        <ele>197</ele>
        <time>2018-03-24T12:02:12Z</time>
      </trkpt>
      <trkpt lat="45.96074" lon="4.77686">
        <ele>198</ele>
        <time>2018-03-24T12:02:14Z</time>
      </trkpt>
      <trkpt lat="45.9607" lon="4.77679">
        <ele>198</ele>
        <time>2018-03-24T12:02:15Z</time>
      </trkpt>
      <trkpt lat="45.96067" lon="4.77674">
        <ele>198</ele>
        <time>2018-03-24T12:02:16Z</time>
      </trkpt>
      <trkpt lat="45.96063" lon="4.77667">
        <ele>198</ele>
        <time>2018-03-24T12:02:17Z</time>
      </trkpt>
      <trkpt lat="45.96059" lon="4.77663">
        <ele>200</ele>
        <time>2018-03-24T12:02:18Z</time>
      </trkpt>
      <trkpt lat="45.96055" lon="4.77657">
        <ele>200</ele>
        <time>2018-03-24T12:02:19Z</time>
      </trkpt>
      <trkpt lat="45.96051" lon="4.77652">
        <ele>200</ele>
        <time>2018-03-24T12:02:20Z</time>
      </trkpt>
      <trkpt lat="45.96046" lon="4.77647">
        <ele>200</ele>
        <time>2018-03-24T12:02:21Z</time>
      </trkpt>
      <trkpt lat="45.96042" lon="4.77642">
        <ele>199</ele>
        <time>2018-03-24T12:02:22Z</time>
      </trkpt>
      <trkpt lat="45.96038" lon="4.77637">
        <ele>199</ele>
        <time>2018-03-24T12:02:23Z</time>
      </trkpt>
      <trkpt lat="45.96033" lon="4.77631">
        <ele>199</ele>
        <time>2018-03-24T12:02:24Z</time>
      </trkpt>
      <trkpt lat="45.96029" lon="4.77626">
        <ele>199</ele>
        <time>2018-03-24T12:02:25Z</time>
      </trkpt>
      <trkpt lat="45.96025" lon="4.77621">
        <ele>199</ele>
        <time>2018-03-24T12:02:26Z</time>
      </trkpt>
      <trkpt lat="45.96021" lon="4.77616">
        <ele>199</ele>
        <time>2018-03-24T12:02:27Z</time>
      </trkpt>
      <trkpt lat="45.96016" lon="4.77611">
        <ele>199</ele>
        <time>2018-03-24T12:02:28Z</time>
      </trkpt>
      <trkpt lat="45.96012" lon="4.77607">
        <ele>199</ele>
        <time>2018-03-24T12:02:29Z</time>
      </trkpt>
      <trkpt lat="45.96008" lon="4.776">
        <ele>198</ele>
        <time>2018-03-24T12:02:30Z</time>
      </trkpt>
      <trkpt lat="45.96002" lon="4.77596">
        <ele>198</ele>
        <time>2018-03-24T12:02:31Z</time>
      </trkpt>
      <trkpt lat="45.95998" lon="4.77591">
        <ele>196</ele>
        <time>2018-03-24T12:02:32Z</time>
      </trkpt>
      <trkpt lat="45.95995" lon="4.77586">
        <ele>196</ele>
        <time>2018-03-24T12:02:33Z</time>
      </trkpt>
      <trkpt lat="45.95993" lon="4.7758">
        <ele>196</ele>
        <time>2018-03-24T12:02:34Z</time>
      </trkpt>
      <trkpt lat="45.95991" lon="4.77574">
        <ele>196</ele>
        <time>2018-03-24T12:02:35Z</time>
      </trkpt>
      <trkpt lat="45.95989" lon="4.77568">
        <ele>196</ele>
        <time>2018-03-24T12:02:36Z</time>
      </trkpt>
      <trkpt lat="45.95986" lon="4.77562">
        <ele>196</ele>
        <time>2018-03-24T12:02:37Z</time>
      </trkpt>
      <trkpt lat="45.95981" lon="4.77551">
        <ele>196</ele>
        <time>2018-03-24T12:02:39Z</time>
      </trkpt>
      <trkpt lat="45.95981" lon="4.77549">
        <ele>196</ele>
        <time>2018-03-24T12:02:40Z</time>
      </trkpt>
      <trkpt lat="45.9598" lon="4.77542">
        <ele>196</ele>
        <time>2018-03-24T12:02:41Z</time>
      </trkpt>
      <trkpt lat="45.95977" lon="4.77537">
        <ele>196</ele>
        <time>2018-03-24T12:02:42Z</time>
      </trkpt>
      <trkpt lat="45.95972" lon="4.77529">
        <ele>196</ele>
        <time>2018-03-24T12:02:44Z</time>
      </trkpt>
      <trkpt lat="45.9597" lon="4.77523">
        <ele>196</ele>
        <time>2018-03-24T12:02:45Z</time>
      </trkpt>
      <trkpt lat="45.95966" lon="4.77517">
        <ele>195</ele>
        <time>2018-03-24T12:02:46Z</time>
      </trkpt>
      <trkpt lat="45.95963" lon="4.7751">
        <ele>195</ele>
        <time>2018-03-24T12:02:47Z</time>
      </trkpt>
      <trkpt lat="45.95961" lon="4.77503">
        <ele>195</ele>
        <time>2018-03-24T12:02:48Z</time>
      </trkpt>
      <trkpt lat="45.95958" lon="4.77496">
        <ele>196</ele>
        <time>2018-03-24T12:02:49Z</time>
      </trkpt>
      <trkpt lat="45.95954" lon="4.77488">
        <ele>196</ele>
        <time>2018-03-24T12:02:50Z</time>
      </trkpt>
      <trkpt lat="45.95951" lon="4.7748">
        <ele>196</ele>
        <time>2018-03-24T12:02:51Z</time>
      </trkpt>
      <trkpt lat="45.95949" lon="4.77472">
        <ele>196</ele>
        <time>2018-03-24T12:02:52Z</time>
      </trkpt>
      <trkpt lat="45.95946" lon="4.77463">
        <ele>196</ele>
        <time>2018-03-24T12:02:53Z</time>
      </trkpt>
      <trkpt lat="45.95943" lon="4.77455">
        <ele>196</ele>
        <time>2018-03-24T12:02:54Z</time>
      </trkpt>
      <trkpt lat="45.9594" lon="4.77447">
        <ele>196</ele>
        <time>2018-03-24T12:02:55Z</time>
      </trkpt>
      <trkpt lat="45.95936" lon="4.77439">
        <ele>195</ele>
        <time>2018-03-24T12:02:56Z</time>
      </trkpt>
      <trkpt lat="45.95932" lon="4.77431">
        <ele>195</ele>
        <time>2018-03-24T12:02:57Z</time>
      </trkpt>
      <trkpt lat="45.9593" lon="4.77424">
        <ele>195</ele>
        <time>2018-03-24T12:02:58Z</time>
      </trkpt>
      <trkpt lat="45.95927" lon="4.77416">
        <ele>195</ele>
        <time>2018-03-24T12:02:59Z</time>
      </trkpt>
      <trkpt lat="45.95925" lon="4.77408">
        <ele>195</ele>
        <time>2018-03-24T12:03:00Z</time>
      </trkpt>
      <trkpt lat="45.95922" lon="4.77401">
        <ele>196</ele>
        <time>2018-03-24T12:03:01Z</time>
      </trkpt>
      <trkpt lat="45.95919" lon="4.77393">
        <ele>196</ele>
        <time>2018-03-24T12:03:02Z</time>
      </trkpt>
      <trkpt lat="45.95916" lon="4.77384">
        <ele>193</ele>
        <time>2018-03-24T12:03:03Z</time>
      </trkpt>
      <trkpt lat="45.95913" lon="4.77377">
        <ele>193</ele>
        <time>2018-03-24T12:03:04Z</time>
      </trkpt>
      <trkpt lat="45.9591" lon="4.77371">
        <ele>193</ele>
        <time>2018-03-24T12:03:05Z</time>
      </trkpt>
      <trkpt lat="45.95907" lon="4.77364">
        <ele>193</ele>
        <time>2018-03-24T12:03:06Z</time>
      </trkpt>
      <trkpt lat="45.95904" lon="4.77357">
        <ele>193</ele>
        <time>2018-03-24T12:03:07Z</time>
      </trkpt>
      <trkpt lat="45.95902" lon="4.7735">
        <ele>193</ele>
        <time>2018-03-24T12:03:08Z</time>
      </trkpt>
      <trkpt lat="45.95899" lon="4.77342">
        <ele>193</ele>
        <time>2018-03-24T12:03:09Z</time>
      </trkpt>
      <trkpt lat="45.95897" lon="4.77333">
        <ele>193</ele>
        <time>2018-03-24T12:03:10Z</time>
      </trkpt>
      <trkpt lat="45.95895" lon="4.77327">
        <ele>193</ele>
        <time>2018-03-24T12:03:11Z</time>
      </trkpt>
      <trkpt lat="45.95893" lon="4.7732">
        <ele>193</ele>
        <time>2018-03-24T12:03:12Z</time>
      </trkpt>
      <trkpt lat="45.95892" lon="4.77312">
        <ele>193</ele>
        <time>2018-03-24T12:03:13Z</time>
      </trkpt>
      <trkpt lat="45.9589" lon="4.77303">
        <ele>193</ele>
        <time>2018-03-24T12:03:14Z</time>
      </trkpt>
      <trkpt lat="45.95889" lon="4.77295">
        <ele>193</ele>
        <time>2018-03-24T12:03:15Z</time>
      </trkpt>
      <trkpt lat="45.95887" lon="4.77287">
        <ele>193</ele>
        <time>2018-03-24T12:03:16Z</time>
      </trkpt>
      <trkpt lat="45.95885" lon="4.77279">
        <ele>193</ele>
        <time>2018-03-24T12:03:17Z</time>
      </trkpt>
      <trkpt lat="45.95883" lon="4.77271">
        <ele>193</ele>
        <time>2018-03-24T12:03:18Z</time>
      </trkpt>
      <trkpt lat="45.95881" lon="4.77263">
        <ele>193</ele>
        <time>2018-03-24T12:03:19Z</time>
      </trkpt>
      <trkpt lat="45.95879" lon="4.77255">
        <ele>193</ele>
        <time>2018-03-24T12:03:20Z</time>
      </trkpt>
      <trkpt lat="45.95876" lon="4.77247">
        <ele>193</ele>
        <time>2018-03-24T12:03:21Z</time>
      </trkpt>
      <trkpt lat="45.95875" lon="4.77239">
        <ele>193</ele>
        <time>2018-03-24T12:03:22Z</time>
      </trkpt>
      <trkpt lat="45.95873" lon="4.77233">
        <ele>193</ele>
        <time>2018-03-24T12:03:23Z</time>
      </trkpt>
      <trkpt lat="45.95871" lon="4.77225">
        <ele>193</ele>
        <time>2018-03-24T12:03:24Z</time>
      </trkpt>
      <trkpt lat="45.9587" lon="4.77218">
        <ele>193</ele>
        <time>2018-03-24T12:03:25Z</time>
      </trkpt>
      <trkpt lat="45.95868" lon="4.77212">
        <ele>193</ele>
        <time>2018-03-24T12:03:26Z</time>
      </trkpt>
      <trkpt lat="45.95866" lon="4.77205">
        <ele>193</ele>
        <time>2018-03-24T12:03:27Z</time>
      </trkpt>
      <trkpt lat="45.95865" lon="4.77198">
        <ele>193</ele>
        <time>2018-03-24T12:03:28Z</time>
      </trkpt>
      <trkpt lat="45.95863" lon="4.7719">
        <ele>192</ele>
        <time>2018-03-24T12:03:29Z</time>
      </trkpt>
      <trkpt lat="45.95861" lon="4.77183">
        <ele>192</ele>
        <time>2018-03-24T12:03:30Z</time>
      </trkpt>
      <trkpt lat="45.9586" lon="4.77176">
        <ele>192</ele>
        <time>2018-03-24T12:03:31Z</time>
      </trkpt>
      <trkpt lat="45.95858" lon="4.7717">
        <ele>192</ele>
        <time>2018-03-24T12:03:32Z</time>
      </trkpt>
      <trkpt lat="45.95856" lon="4.77161">
        <ele>192</ele>
        <time>2018-03-24T12:03:33Z</time>
      </trkpt>
      <trkpt lat="45.95854" lon="4.77153">
        <ele>192</ele>
        <time>2018-03-24T12:03:34Z</time>
      </trkpt>
      <trkpt lat="45.95851" lon="4.77144">
        <ele>193</ele>
        <time>2018-03-24T12:03:35Z</time>
      </trkpt>
      <trkpt lat="45.95849" lon="4.77135">
        <ele>193</ele>
        <time>2018-03-24T12:03:36Z</time>
      </trkpt>
      <trkpt lat="45.95847" lon="4.77127">
        <ele>193</ele>
        <time>2018-03-24T12:03:37Z</time>
      </trkpt>
      <trkpt lat="45.95846" lon="4.77119">
        <ele>193</ele>
        <time>2018-03-24T12:03:38Z</time>
      </trkpt>
      <trkpt lat="45.95844" lon="4.77111">
        <ele>193</ele>
        <time>2018-03-24T12:03:39Z</time>
      </trkpt>
      <trkpt lat="45.95841" lon="4.77103">
        <ele>193</ele>
        <time>2018-03-24T12:03:40Z</time>
      </trkpt>
      <trkpt lat="45.95839" lon="4.77095">
        <ele>193</ele>
        <time>2018-03-24T12:03:41Z</time>
      </trkpt>
      <trkpt lat="45.95836" lon="4.77088">
        <ele>192</ele>
        <time>2018-03-24T12:03:42Z</time>
      </trkpt>
      <trkpt lat="45.95834" lon="4.7708">
        <ele>192</ele>
        <time>2018-03-24T12:03:43Z</time>
      </trkpt>
      <trkpt lat="45.95831" lon="4.77074">
        <ele>191</ele>
        <time>2018-03-24T12:03:44Z</time>
      </trkpt>
      <trkpt lat="45.95828" lon="4.77067">
        <ele>191</ele>
        <time>2018-03-24T12:03:45Z</time>
      </trkpt>
      <trkpt lat="45.95825" lon="4.7706">
        <ele>190</ele>
        <time>2018-03-24T12:03:46Z</time>
      </trkpt>
      <trkpt lat="45.95821" lon="4.77054">
        <ele>190</ele>
        <time>2018-03-24T12:03:47Z</time>
      </trkpt>
      <trkpt lat="45.95818" lon="4.77047">
        <ele>190</ele>
        <time>2018-03-24T12:03:48Z</time>
      </trkpt>
      <trkpt lat="45.95815" lon="4.77041">
        <ele>190</ele>
        <time>2018-03-24T12:03:49Z</time>
      </trkpt>
      <trkpt lat="45.95812" lon="4.77034">
        <ele>190</ele>
        <time>2018-03-24T12:03:50Z</time>
      </trkpt>
      <trkpt lat="45.95809" lon="4.77027">
        <ele>190</ele>
        <time>2018-03-24T12:03:51Z</time>
      </trkpt>
      <trkpt lat="45.95806" lon="4.7702">
        <ele>190</ele>
        <time>2018-03-24T12:03:52Z</time>
      </trkpt>
      <trkpt lat="45.95804" lon="4.77013">
        <ele>190</ele>
        <time>2018-03-24T12:03:53Z</time>
      </trkpt>
      <trkpt lat="45.95803" lon="4.77005">
        <ele>190</ele>
        <time>2018-03-24T12:03:54Z</time>
      </trkpt>
      <trkpt lat="45.95802" lon="4.76997">
        <ele>189</ele>
        <time>2018-03-24T12:03:55Z</time>
      </trkpt>
      <trkpt lat="45.95801" lon="4.76989">
        <ele>189</ele>
        <time>2018-03-24T12:03:56Z</time>
      </trkpt>
      <trkpt lat="45.95801" lon="4.76982">
        <ele>189</ele>
        <time>2018-03-24T12:03:57Z</time>
      </trkpt>
      <trkpt lat="45.95801" lon="4.76974">
        <ele>189</ele>
        <time>2018-03-24T12:03:58Z</time>
      </trkpt>
      <trkpt lat="45.95801" lon="4.76967">
        <ele>189</ele>
        <time>2018-03-24T12:03:59Z</time>
      </trkpt>
      <trkpt lat="45.95802" lon="4.76959">
        <ele>189</ele>
        <time>2018-03-24T12:04:00Z</time>
      </trkpt>
      <trkpt lat="45.95802" lon="4.76952">
        <ele>189</ele>
        <time>2018-03-24T12:04:01Z</time>
      </trkpt>
      <trkpt lat="45.95804" lon="4.76945">
        <ele>189</ele>
        <time>2018-03-24T12:04:02Z</time>
      </trkpt>
      <trkpt lat="45.95805" lon="4.76938">
        <ele>189</ele>
        <time>2018-03-24T12:04:03Z</time>
      </trkpt>
      <trkpt lat="45.95807" lon="4.76931">
        <ele>189</ele>
        <time>2018-03-24T12:04:04Z</time>
      </trkpt>
      <trkpt lat="45.95809" lon="4.76924">
        <ele>189</ele>
        <time>2018-03-24T12:04:05Z</time>
      </trkpt>
      <trkpt lat="45.95812" lon="4.76917">
        <ele>189</ele>
        <time>2018-03-24T12:04:06Z</time>
      </trkpt>
      <trkpt lat="45.95813" lon="4.76911">
        <ele>189</ele>
        <time>2018-03-24T12:04:07Z</time>
      </trkpt>
      <trkpt lat="45.95814" lon="4.76904">
        <ele>189</ele>
        <time>2018-03-24T12:04:08Z</time>
      </trkpt>
      <trkpt lat="45.95815" lon="4.76897">
        <ele>189</ele>
        <time>2018-03-24T12:04:09Z</time>
      </trkpt>
      <trkpt lat="45.95817" lon="4.7689">
        <ele>189</ele>
        <time>2018-03-24T12:04:10Z</time>
      </trkpt>
      <trkpt lat="45.95818" lon="4.76883">
        <ele>189</ele>
        <time>2018-03-24T12:04:11Z</time>
      </trkpt>
      <trkpt lat="45.95819" lon="4.76876">
        <ele>189</ele>
        <time>2018-03-24T12:04:12Z</time>
      </trkpt>
      <trkpt lat="45.9582" lon="4.76869">
        <ele>189</ele>
        <time>2018-03-24T12:04:13Z</time>
      </trkpt>
      <trkpt lat="45.95821" lon="4.76862">
        <ele>189</ele>
        <time>2018-03-24T12:04:14Z</time>
      </trkpt>
      <trkpt lat="45.95823" lon="4.76854">
        <ele>189</ele>
        <time>2018-03-24T12:04:15Z</time>
      </trkpt>
      <trkpt lat="45.95824" lon="4.76845">
        <ele>190</ele>
        <time>2018-03-24T12:04:16Z</time>
      </trkpt>
      <trkpt lat="45.95827" lon="4.76838">
        <ele>190</ele>
        <time>2018-03-24T12:04:17Z</time>
      </trkpt>
      <trkpt lat="45.95828" lon="4.76831">
        <ele>190</ele>
        <time>2018-03-24T12:04:18Z</time>
      </trkpt>
      <trkpt lat="45.9583" lon="4.76824">
        <ele>190</ele>
        <time>2018-03-24T12:04:19Z</time>
      </trkpt>
      <trkpt lat="45.95831" lon="4.76817">
        <ele>190</ele>
        <time>2018-03-24T12:04:20Z</time>
      </trkpt>
      <trkpt lat="45.95833" lon="4.76811">
        <ele>190</ele>
        <time>2018-03-24T12:04:21Z</time>
      </trkpt>
      <trkpt lat="45.95835" lon="4.76799">
        <ele>191</ele>
        <time>2018-03-24T12:04:23Z</time>
      </trkpt>
      <trkpt lat="45.95836" lon="4.76793">
        <ele>191</ele>
        <time>2018-03-24T12:04:24Z</time>
      </trkpt>
      <trkpt lat="45.95834" lon="4.7678">
        <ele>191</ele>
        <time>2018-03-24T12:04:26Z</time>
      </trkpt>
      <trkpt lat="45.95833" lon="4.76775">
        <ele>190</ele>
        <time>2018-03-24T12:04:27Z</time>
      </trkpt>
      <trkpt lat="45.9583" lon="4.76768">
        <ele>190</ele>
        <time>2018-03-24T12:04:28Z</time>
      </trkpt>
      <trkpt lat="45.95829" lon="4.76761">
        <ele>191</ele>
        <time>2018-03-24T12:04:29Z</time>
      </trkpt>
      <trkpt lat="45.95827" lon="4.76755">
        <ele>191</ele>
        <time>2018-03-24T12:04:30Z</time>
      </trkpt>
      <trkpt lat="45.95826" lon="4.76747">
        <ele>190</ele>
        <time>2018-03-24T12:04:31Z</time>
      </trkpt>
      <trkpt lat="45.95824" lon="4.76739">
        <ele>190</ele>
        <time>2018-03-24T12:04:32Z</time>
      </trkpt>
      <trkpt lat="45.95823" lon="4.76731">
        <ele>190</ele>
        <time>2018-03-24T12:04:33Z</time>
      </trkpt>
      <trkpt lat="45.95821" lon="4.76723">
        <ele>190</ele>
        <time>2018-03-24T12:04:34Z</time>
      </trkpt>
      <trkpt lat="45.9582" lon="4.76714">
        <ele>189</ele>
        <time>2018-03-24T12:04:35Z</time>
      </trkpt>
      <trkpt lat="45.95819" lon="4.76706">
        <ele>189</ele>
        <time>2018-03-24T12:04:36Z</time>
      </trkpt>
      <trkpt lat="45.95818" lon="4.76696">
        <ele>189</ele>
        <time>2018-03-24T12:04:37Z</time>
      </trkpt>
      <trkpt lat="45.95817" lon="4.76687">
        <ele>189</ele>
        <time>2018-03-24T12:04:38Z</time>
      </trkpt>
      <trkpt lat="45.95816" lon="4.76678">
        <ele>189</ele>
        <time>2018-03-24T12:04:39Z</time>
      </trkpt>
      <trkpt lat="45.95814" lon="4.7667">
        <ele>189</ele>
        <time>2018-03-24T12:04:40Z</time>
      </trkpt>
      <trkpt lat="45.95812" lon="4.76661">
        <ele>188</ele>
        <time>2018-03-24T12:04:41Z</time>
      </trkpt>
      <trkpt lat="45.95811" lon="4.76652">
        <ele>188</ele>
        <time>2018-03-24T12:04:42Z</time>
      </trkpt>
      <trkpt lat="45.9581" lon="4.76643">
        <ele>188</ele>
        <time>2018-03-24T12:04:43Z</time>
      </trkpt>
      <trkpt lat="45.95809" lon="4.76634">
        <ele>188</ele>
        <time>2018-03-24T12:04:44Z</time>
      </trkpt>
      <trkpt lat="45.95808" lon="4.76625">
        <ele>188</ele>
        <time>2018-03-24T12:04:45Z</time>
      </trkpt>
      <trkpt lat="45.95807" lon="4.76617">
        <ele>188</ele>
        <time>2018-03-24T12:04:46Z</time>
      </trkpt>
      <trkpt lat="45.95806" lon="4.76609">
        <ele>188</ele>
        <time>2018-03-24T12:04:47Z</time>
      </trkpt>
      <trkpt lat="45.95805" lon="4.766">
        <ele>188</ele>
        <time>2018-03-24T12:04:48Z</time>
      </trkpt>
      <trkpt lat="45.95804" lon="4.76594">
        <ele>188</ele>
        <time>2018-03-24T12:04:49Z</time>
      </trkpt>
      <trkpt lat="45.95802" lon="4.76586">
        <ele>187</ele>
        <time>2018-03-24T12:04:50Z</time>
      </trkpt>
      <trkpt lat="45.95801" lon="4.76578">
        <ele>187</ele>
        <time>2018-03-24T12:04:51Z</time>
      </trkpt>
      <trkpt lat="45.958" lon="4.7657">
        <ele>187</ele>
        <time>2018-03-24T12:04:52Z</time>
      </trkpt>
      <trkpt lat="45.958" lon="4.7656">
        <ele>187</ele>
        <time>2018-03-24T12:04:53Z</time>
      </trkpt>
      <trkpt lat="45.95799" lon="4.76552">
        <ele>187</ele>
        <time>2018-03-24T12:04:54Z</time>
      </trkpt>
      <trkpt lat="45.95798" lon="4.76545">
        <ele>187</ele>
        <time>2018-03-24T12:04:55Z</time>
      </trkpt>
      <trkpt lat="45.95796" lon="4.76537">
        <ele>187</ele>
        <time>2018-03-24T12:04:56Z</time>
      </trkpt>
      <trkpt lat="45.95795" lon="4.76531">
        <ele>187</ele>
        <time>2018-03-24T12:04:57Z</time>
      </trkpt>
      <trkpt lat="45.95794" lon="4.76523">
        <ele>187</ele>
        <time>2018-03-24T12:04:58Z</time>
      </trkpt>
      <trkpt lat="45.95793" lon="4.76515">
        <ele>187</ele>
        <time>2018-03-24T12:04:59Z</time>
      </trkpt>
      <trkpt lat="45.95791" lon="4.76507">
        <ele>187</ele>
        <time>2018-03-24T12:05:00Z</time>
      </trkpt>
      <trkpt lat="45.9579" lon="4.76499">
        <ele>186</ele>
        <time>2018-03-24T12:05:01Z</time>
      </trkpt>
      <trkpt lat="45.95789" lon="4.76492">
        <ele>186</ele>
        <time>2018-03-24T12:05:02Z</time>
      </trkpt>
      <trkpt lat="45.95788" lon="4.76485">
        <ele>186</ele>
        <time>2018-03-24T12:05:03Z</time>
      </trkpt>
      <trkpt lat="45.95787" lon="4.76477">
        <ele>186</ele>
        <time>2018-03-24T12:05:04Z</time>
      </trkpt>
      <trkpt lat="45.95785" lon="4.76469">
        <ele>186</ele>
        <time>2018-03-24T12:05:05Z</time>
      </trkpt>
      <trkpt lat="45.95784" lon="4.76463">
        <ele>186</ele>
        <time>2018-03-24T12:05:06Z</time>
      </trkpt>
      <trkpt lat="45.95783" lon="4.76456">
        <ele>186</ele>
        <time>2018-03-24T12:05:07Z</time>
      </trkpt>
      <trkpt lat="45.95782" lon="4.76449">
        <ele>186</ele>
        <time>2018-03-24T12:05:08Z</time>
      </trkpt>
      <trkpt lat="45.95781" lon="4.76442">
        <ele>186</ele>
        <time>2018-03-24T12:05:09Z</time>
      </trkpt>
      <trkpt lat="45.9578" lon="4.76434">
        <ele>186</ele>
        <time>2018-03-24T12:05:10Z</time>
      </trkpt>
      <trkpt lat="45.95779" lon="4.76426">
        <ele>186</ele>
        <time>2018-03-24T12:05:11Z</time>
      </trkpt>
      <trkpt lat="45.95778" lon="4.76418">
        <ele>186</ele>
        <time>2018-03-24T12:05:12Z</time>
      </trkpt>
      <trkpt lat="45.95777" lon="4.76411">
        <ele>186</ele>
        <time>2018-03-24T12:05:13Z</time>
      </trkpt>
      <trkpt lat="45.95777" lon="4.76402">
        <ele>186</ele>
        <time>2018-03-24T12:05:14Z</time>
      </trkpt>
      <trkpt lat="45.95775" lon="4.76395">
        <ele>186</ele>
        <time>2018-03-24T12:05:15Z</time>
      </trkpt>
      <trkpt lat="45.95774" lon="4.76387">
        <ele>186</ele>
        <time>2018-03-24T12:05:16Z</time>
      </trkpt>
      <trkpt lat="45.95774" lon="4.76379">
        <ele>186</ele>
        <time>2018-03-24T12:05:17Z</time>
      </trkpt>
      <trkpt lat="45.95774" lon="4.76372">
        <ele>186</ele>
        <time>2018-03-24T12:05:18Z</time>
      </trkpt>
      <trkpt lat="45.95774" lon="4.76365">
        <ele>186</ele>
        <time>2018-03-24T12:05:19Z</time>
      </trkpt>
      <trkpt lat="45.95773" lon="4.76358">
        <ele>186</ele>
        <time>2018-03-24T12:05:20Z</time>
      </trkpt>
      <trkpt lat="45.95772" lon="4.76351">
        <ele>186</ele>
        <time>2018-03-24T12:05:21Z</time>
      </trkpt>
      <trkpt lat="45.95773" lon="4.76342">
        <ele>186</ele>
        <time>2018-03-24T12:05:22Z</time>
      </trkpt>
      <trkpt lat="45.95772" lon="4.76335">
        <ele>186</ele>
        <time>2018-03-24T12:05:23Z</time>
      </trkpt>
      <trkpt lat="45.95771" lon="4.76327">
        <ele>185</ele>
        <time>2018-03-24T12:05:24Z</time>
      </trkpt>
      <trkpt lat="45.9577" lon="4.76319">
        <ele>185</ele>
        <time>2018-03-24T12:05:25Z</time>
      </trkpt>
      <trkpt lat="45.9577" lon="4.76312">
        <ele>185</ele>
        <time>2018-03-24T12:05:26Z</time>
      </trkpt>
      <trkpt lat="45.95769" lon="4.76304">
        <ele>186</ele>
        <time>2018-03-24T12:05:27Z</time>
      </trkpt>
      <trkpt lat="45.95769" lon="4.76296">
        <ele>186</ele>
        <time>2018-03-24T12:05:28Z</time>
      </trkpt>
      <trkpt lat="45.95768" lon="4.76287">
        <ele>186</ele>
        <time>2018-03-24T12:05:29Z</time>
      </trkpt>
      <trkpt lat="45.95769" lon="4.76278">
        <ele>186</ele>
        <time>2018-03-24T12:05:30Z</time>
      </trkpt>
      <trkpt lat="45.95768" lon="4.7627">
        <ele>186</ele>
        <time>2018-03-24T12:05:31Z</time>
      </trkpt>
      <trkpt lat="45.95767" lon="4.76263">
        <ele>185</ele>
        <time>2018-03-24T12:05:32Z</time>
      </trkpt>
      <trkpt lat="45.95767" lon="4.76256">
        <ele>185</ele>
        <time>2018-03-24T12:05:33Z</time>
      </trkpt>
      <trkpt lat="45.95765" lon="4.7625">
        <ele>185</ele>
        <time>2018-03-24T12:05:34Z</time>
      </trkpt>
      <trkpt lat="45.95766" lon="4.76243">
        <ele>186</ele>
        <time>2018-03-24T12:05:35Z</time>
      </trkpt>
      <trkpt lat="45.95765" lon="4.76236">
        <ele>186</ele>
        <time>2018-03-24T12:05:36Z</time>
      </trkpt>
      <trkpt lat="45.95765" lon="4.76228">
        <ele>186</ele>
        <time>2018-03-24T12:05:37Z</time>
      </trkpt>
      <trkpt lat="45.95765" lon="4.7622">
        <ele>186</ele>
        <time>2018-03-24T12:05:38Z</time>
      </trkpt>
      <trkpt lat="45.95765" lon="4.76212">
        <ele>186</ele>
        <time>2018-03-24T12:05:39Z</time>
      </trkpt>
      <trkpt lat="45.95765" lon="4.76205">
        <ele>186</ele>
        <time>2018-03-24T12:05:40Z</time>
      </trkpt>
      <trkpt lat="45.95765" lon="4.76197">
        <ele>186</ele>
        <time>2018-03-24T12:05:41Z</time>
      </trkpt>
      <trkpt lat="45.95764" lon="4.76189">
        <ele>186</ele>
        <time>2018-03-24T12:05:42Z</time>
      </trkpt>
      <trkpt lat="45.95764" lon="4.76179">
        <ele>186</ele>
        <time>2018-03-24T12:05:43Z</time>
      </trkpt>
      <trkpt lat="45.95764" lon="4.76171">
        <ele>185</ele>
        <time>2018-03-24T12:05:44Z</time>
      </trkpt>
      <trkpt lat="45.95763" lon="4.76162">
        <ele>186</ele>
        <time>2018-03-24T12:05:45Z</time>
      </trkpt>
      <trkpt lat="45.95763" lon="4.76153">
        <ele>186</ele>
        <time>2018-03-24T12:05:46Z</time>
      </trkpt>
      <trkpt lat="45.95762" lon="4.76145">
        <ele>186</ele>
        <time>2018-03-24T12:05:47Z</time>
      </trkpt>
      <trkpt lat="45.95761" lon="4.76136">
        <ele>186</ele>
        <time>2018-03-24T12:05:48Z</time>
      </trkpt>
      <trkpt lat="45.9576" lon="4.76127">
        <ele>186</ele>
        <time>2018-03-24T12:05:49Z</time>
      </trkpt>
      <trkpt lat="45.9576" lon="4.76119">
        <ele>186</ele>
        <time>2018-03-24T12:05:50Z</time>
      </trkpt>
      <trkpt lat="45.95759" lon="4.76111">
        <ele>186</ele>
        <time>2018-03-24T12:05:51Z</time>
      </trkpt>
      <trkpt lat="45.95757" lon="4.76104">
        <ele>186</ele>
        <time>2018-03-24T12:05:52Z</time>
      </trkpt>
      <trkpt lat="45.95755" lon="4.76098">
        <ele>186</ele>
        <time>2018-03-24T12:05:53Z</time>
      </trkpt>
      <trkpt lat="45.95753" lon="4.76093">
        <ele>185</ele>
        <time>2018-03-24T12:05:54Z</time>
      </trkpt>
      <trkpt lat="45.9575" lon="4.76087">
        <ele>185</ele>
        <time>2018-03-24T12:05:55Z</time>
      </trkpt>
      <trkpt lat="45.95747" lon="4.76078">
        <ele>185</ele>
        <time>2018-03-24T12:05:56Z</time>
      </trkpt>
      <trkpt lat="45.95744" lon="4.7607">
        <ele>185</ele>
        <time>2018-03-24T12:05:57Z</time>
      </trkpt>
      <trkpt lat="45.95741" lon="4.76061">
        <ele>184</ele>
        <time>2018-03-24T12:05:58Z</time>
      </trkpt>
      <trkpt lat="45.95738" lon="4.76054">
        <ele>184</ele>
        <time>2018-03-24T12:05:59Z</time>
      </trkpt>
      <trkpt lat="45.95735" lon="4.76046">
        <ele>184</ele>
        <time>2018-03-24T12:06:00Z</time>
      </trkpt>
      <trkpt lat="45.95732" lon="4.76039">
        <ele>184</ele>
        <time>2018-03-24T12:06:01Z</time>
      </trkpt>
      <trkpt lat="45.95728" lon="4.76032">
        <ele>184</ele>
        <time>2018-03-24T12:06:02Z</time>
      </trkpt>
      <trkpt lat="45.95725" lon="4.76026">
        <ele>184</ele>
        <time>2018-03-24T12:06:03Z</time>
      </trkpt>
      <trkpt lat="45.95722" lon="4.76019">
        <ele>184</ele>
        <time>2018-03-24T12:06:04Z</time>
      </trkpt>
      <trkpt lat="45.95719" lon="4.76013">
        <ele>184</ele>
        <time>2018-03-24T12:06:05Z</time>
      </trkpt>
      <trkpt lat="45.95717" lon="4.76007">
        <ele>184</ele>
        <time>2018-03-24T12:06:06Z</time>
      </trkpt>
      <trkpt lat="45.95713" lon="4.75999">
        <ele>185</ele>
        <time>2018-03-24T12:06:07Z</time>
      </trkpt>
      <trkpt lat="45.9571" lon="4.75993">
        <ele>185</ele>
        <time>2018-03-24T12:06:08Z</time>
      </trkpt>
      <trkpt lat="45.95707" lon="4.75986">
        <ele>185</ele>
        <time>2018-03-24T12:06:09Z</time>
      </trkpt>
      <trkpt lat="45.95704" lon="4.7598">
        <ele>185</ele>
        <time>2018-03-24T12:06:10Z</time>
      </trkpt>
      <trkpt lat="45.95702" lon="4.75974">
        <ele>185</ele>
        <time>2018-03-24T12:06:11Z</time>
      </trkpt>
      <trkpt lat="45.95699" lon="4.75962">
        <ele>185</ele>
        <time>2018-03-24T12:06:13Z</time>
      </trkpt>
      <trkpt lat="45.95697" lon="4.75953">
        <ele>185</ele>
        <time>2018-03-24T12:06:14Z</time>
      </trkpt>
      <trkpt lat="45.95694" lon="4.75946">
        <ele>185</ele>
        <time>2018-03-24T12:06:15Z</time>
      </trkpt>
      <trkpt lat="45.95689" lon="4.75939">
        <ele>185</ele>
        <time>2018-03-24T12:06:16Z</time>
      </trkpt>
      <trkpt lat="45.95685" lon="4.75934">
        <ele>185</ele>
        <time>2018-03-24T12:06:17Z</time>
      </trkpt>
      <trkpt lat="45.95683" lon="4.75928">
        <ele>185</ele>
        <time>2018-03-24T12:06:18Z</time>
      </trkpt>
      <trkpt lat="45.9568" lon="4.75921">
        <ele>185</ele>
        <time>2018-03-24T12:06:19Z</time>
      </trkpt>
      <trkpt lat="45.95678" lon="4.75914">
        <ele>185</ele>
        <time>2018-03-24T12:06:20Z</time>
      </trkpt>
      <trkpt lat="45.95675" lon="4.75906">
        <ele>185</ele>
        <time>2018-03-24T12:06:21Z</time>
      </trkpt>
      <trkpt lat="45.95672" lon="4.75899">
        <ele>185</ele>
        <time>2018-03-24T12:06:22Z</time>
      </trkpt>
      <trkpt lat="45.95669" lon="4.75892">
        <ele>186</ele>
        <time>2018-03-24T12:06:23Z</time>
      </trkpt>
      <trkpt lat="45.95666" lon="4.75885">
        <ele>184</ele>
        <time>2018-03-24T12:06:24Z</time>
      </trkpt>
      <trkpt lat="45.95663" lon="4.75879">
        <ele>184</ele>
        <time>2018-03-24T12:06:25Z</time>
      </trkpt>
      <trkpt lat="45.9566" lon="4.7587">
        <ele>184</ele>
        <time>2018-03-24T12:06:26Z</time>
      </trkpt>
      <trkpt lat="45.95658" lon="4.75864">
        <ele>184</ele>
        <time>2018-03-24T12:06:27Z</time>
      </trkpt>
      <trkpt lat="45.95656" lon="4.75857">
        <ele>184</ele>
        <time>2018-03-24T12:06:28Z</time>
      </trkpt>
      <trkpt lat="45.95653" lon="4.7585">
        <ele>185</ele>
        <time>2018-03-24T12:06:29Z</time>
      </trkpt>
      <trkpt lat="45.95652" lon="4.75844">
        <ele>185</ele>
        <time>2018-03-24T12:06:30Z</time>
      </trkpt>
      <trkpt lat="45.9565" lon="4.75837">
        <ele>185</ele>
        <time>2018-03-24T12:06:31Z</time>
      </trkpt>
      <trkpt lat="45.95649" lon="4.75829">
        <ele>185</ele>
        <time>2018-03-24T12:06:32Z</time>
      </trkpt>
      <trkpt lat="45.95648" lon="4.75822">
        <ele>185</ele>
        <time>2018-03-24T12:06:33Z</time>
      </trkpt>
      <trkpt lat="45.95646" lon="4.75815">
        <ele>185</ele>
        <time>2018-03-24T12:06:34Z</time>
      </trkpt>
      <trkpt lat="45.95645" lon="4.75808">
        <ele>185</ele>
        <time>2018-03-24T12:06:35Z</time>
      </trkpt>
      <trkpt lat="45.95644" lon="4.758">
        <ele>185</ele>
        <time>2018-03-24T12:06:36Z</time>
      </trkpt>
      <trkpt lat="45.95642" lon="4.75793">
        <ele>185</ele>
        <time>2018-03-24T12:06:37Z</time>
      </trkpt>
      <trkpt lat="45.95641" lon="4.75786">
        <ele>185</ele>
        <time>2018-03-24T12:06:38Z</time>
      </trkpt>
      <trkpt lat="45.9564" lon="4.75778">
        <ele>186</ele>
        <time>2018-03-24T12:06:39Z</time>
      </trkpt>
      <trkpt lat="45.95639" lon="4.7577">
        <ele>186</ele>
        <time>2018-03-24T12:06:40Z</time>
      </trkpt>
      <trkpt lat="45.95639" lon="4.75761">
        <ele>186</ele>
        <time>2018-03-24T12:06:41Z</time>
      </trkpt>
      <trkpt lat="45.95637" lon="4.75753">
        <ele>186</ele>
        <time>2018-03-24T12:06:42Z</time>
      </trkpt>
      <trkpt lat="45.95636" lon="4.75745">
        <ele>187</ele>
        <time>2018-03-24T12:06:43Z</time>
      </trkpt>
      <trkpt lat="45.95635" lon="4.75737">
        <ele>187</ele>
        <time>2018-03-24T12:06:44Z</time>
      </trkpt>
      <trkpt lat="45.95634" lon="4.75729">
        <ele>187</ele>
        <time>2018-03-24T12:06:45Z</time>
      </trkpt>
      <trkpt lat="45.95633" lon="4.7572">
        <ele>187</ele>
        <time>2018-03-24T12:06:46Z</time>
      </trkpt>
      <trkpt lat="45.95631" lon="4.75711">
        <ele>187</ele>
        <time>2018-03-24T12:06:47Z</time>
      </trkpt>
      <trkpt lat="45.9563" lon="4.75703">
        <ele>187</ele>
        <time>2018-03-24T12:06:48Z</time>
      </trkpt>
      <trkpt lat="45.95628" lon="4.75696">
        <ele>187</ele>
        <time>2018-03-24T12:06:49Z</time>
      </trkpt>
      <trkpt lat="45.95627" lon="4.75687">
        <ele>187</ele>
        <time>2018-03-24T12:06:50Z</time>
      </trkpt>
      <trkpt lat="45.95626" lon="4.75679">
        <ele>187</ele>
        <time>2018-03-24T12:06:51Z</time>
      </trkpt>
      <trkpt lat="45.95625" lon="4.7567">
        <ele>187</ele>
        <time>2018-03-24T12:06:52Z</time>
      </trkpt>
      <trkpt lat="45.95623" lon="4.75664">
        <ele>188</ele>
        <time>2018-03-24T12:06:53Z</time>
      </trkpt>
      <trkpt lat="45.95622" lon="4.75656">
        <ele>188</ele>
        <time>2018-03-24T12:06:54Z</time>
      </trkpt>
      <trkpt lat="45.95621" lon="4.7565">
        <ele>188</ele>
        <time>2018-03-24T12:06:55Z</time>
      </trkpt>
      <trkpt lat="45.95618" lon="4.75643">
        <ele>188</ele>
        <time>2018-03-24T12:06:56Z</time>
      </trkpt>
      <trkpt lat="45.95617" lon="4.75636">
        <ele>188</ele>
        <time>2018-03-24T12:06:57Z</time>
      </trkpt>
      <trkpt lat="45.95614" lon="4.75629">
        <ele>188</ele>
        <time>2018-03-24T12:06:58Z</time>
      </trkpt>
      <trkpt lat="45.95612" lon="4.75623">
        <ele>188</ele>
        <time>2018-03-24T12:06:59Z</time>
      </trkpt>
      <trkpt lat="45.95609" lon="4.75616">
        <ele>188</ele>
        <time>2018-03-24T12:07:00Z</time>
      </trkpt>
      <trkpt lat="45.95607" lon="4.75608">
        <ele>188</ele>
        <time>2018-03-24T12:07:01Z</time>
      </trkpt>
      <trkpt lat="45.95604" lon="4.756">
        <ele>187</ele>
        <time>2018-03-24T12:07:02Z</time>
      </trkpt>
      <trkpt lat="45.956" lon="4.75593">
        <ele>187</ele>
        <time>2018-03-24T12:07:03Z</time>
      </trkpt>
      <trkpt lat="45.95598" lon="4.75585">
        <ele>187</ele>
        <time>2018-03-24T12:07:04Z</time>
      </trkpt>
      <trkpt lat="45.95595" lon="4.75579">
        <ele>187</ele>
        <time>2018-03-24T12:07:05Z</time>
      </trkpt>
      <trkpt lat="45.95592" lon="4.75572">
        <ele>188</ele>
        <time>2018-03-24T12:07:06Z</time>
      </trkpt>
      <trkpt lat="45.95588" lon="4.75565">
        <ele>188</ele>
        <time>2018-03-24T12:07:07Z</time>
      </trkpt>
      <trkpt lat="45.95584" lon="4.75559">
        <ele>188</ele>
        <time>2018-03-24T12:07:08Z</time>
      </trkpt>
      <trkpt lat="45.95578" lon="4.75553">
        <ele>186</ele>
        <time>2018-03-24T12:07:09Z</time>
      </trkpt>
      <trkpt lat="45.95572" lon="4.75543">
        <ele>186</ele>
        <time>2018-03-24T12:07:10Z</time>
      </trkpt>
      <trkpt lat="45.95567" lon="4.75537">
        <ele>186</ele>
        <time>2018-03-24T12:07:11Z</time>
      </trkpt>
      <trkpt lat="45.95562" lon="4.75532">
        <ele>186</ele>
        <time>2018-03-24T12:07:12Z</time>
      </trkpt>
      <trkpt lat="45.95557" lon="4.75526">
        <ele>186</ele>
        <time>2018-03-24T12:07:13Z</time>
      </trkpt>
      <trkpt lat="45.95552" lon="4.75522">
        <ele>186</ele>
        <time>2018-03-24T12:07:14Z</time>
      </trkpt>
      <trkpt lat="45.95546" lon="4.75516">
        <ele>186</ele>
        <time>2018-03-24T12:07:15Z</time>
      </trkpt>
      <trkpt lat="45.95541" lon="4.75511">
        <ele>186</ele>
        <time>2018-03-24T12:07:16Z</time>
      </trkpt>
      <trkpt lat="45.95538" lon="4.75506">
        <ele>186</ele>
        <time>2018-03-24T12:07:17Z</time>
      </trkpt>
      <trkpt lat="45.95536" lon="4.75498">
        <ele>187</ele>
        <time>2018-03-24T12:07:18Z</time>
      </trkpt>
      <trkpt lat="45.95534" lon="4.75492">
        <ele>187</ele>
        <time>2018-03-24T12:07:19Z</time>
      </trkpt>
      <trkpt lat="45.95533" lon="4.75484">
        <ele>187</ele>
        <time>2018-03-24T12:07:20Z</time>
      </trkpt>
      <trkpt lat="45.95533" lon="4.75471">
        <ele>187</ele>
        <time>2018-03-24T12:07:22Z</time>
      </trkpt>
      <trkpt lat="45.95533" lon="4.75463">
        <ele>187</ele>
        <time>2018-03-24T12:07:23Z</time>
      </trkpt>
      <trkpt lat="45.95531" lon="4.75456">
        <ele>187</ele>
        <time>2018-03-24T12:07:24Z</time>
      </trkpt>
      <trkpt lat="45.95528" lon="4.7545">
        <ele>187</ele>
        <time>2018-03-24T12:07:25Z</time>
      </trkpt>
      <trkpt lat="45.95524" lon="4.75444">
        <ele>187</ele>
        <time>2018-03-24T12:07:26Z</time>
      </trkpt>
      <trkpt lat="45.9552" lon="4.75435">
        <ele>187</ele>
        <time>2018-03-24T12:07:27Z</time>
      </trkpt>
      <trkpt lat="45.95517" lon="4.75429">
        <ele>187</ele>
        <time>2018-03-24T12:07:28Z</time>
      </trkpt>
      <trkpt lat="45.95514" lon="4.75423">
        <ele>186</ele>
        <time>2018-03-24T12:07:29Z</time>
      </trkpt>
      <trkpt lat="45.95512" lon="4.75415">
        <ele>187</ele>
        <time>2018-03-24T12:07:30Z</time>
      </trkpt>
      <trkpt lat="45.9551" lon="4.75407">
        <ele>187</ele>
        <time>2018-03-24T12:07:31Z</time>
      </trkpt>
      <trkpt lat="45.95507" lon="4.754">
        <ele>187</ele>
        <time>2018-03-24T12:07:32Z</time>
      </trkpt>
      <trkpt lat="45.95505" lon="4.75393">
        <ele>188</ele>
        <time>2018-03-24T12:07:33Z</time>
      </trkpt>
      <trkpt lat="45.95503" lon="4.75387">
        <ele>188</ele>
        <time>2018-03-24T12:07:34Z</time>
      </trkpt>
      <trkpt lat="45.955" lon="4.7538">
        <ele>185</ele>
        <time>2018-03-24T12:07:35Z</time>
      </trkpt>
      <trkpt lat="45.95498" lon="4.75372">
        <ele>186</ele>
        <time>2018-03-24T12:07:36Z</time>
      </trkpt>
      <trkpt lat="45.95495" lon="4.75366">
        <ele>186</ele>
        <time>2018-03-24T12:07:37Z</time>
      </trkpt>
      <trkpt lat="45.95492" lon="4.7536">
        <ele>186</ele>
        <time>2018-03-24T12:07:38Z</time>
      </trkpt>
      <trkpt lat="45.95489" lon="4.75354">
        <ele>186</ele>
        <time>2018-03-24T12:07:39Z</time>
      </trkpt>
      <trkpt lat="45.95486" lon="4.75348">
        <ele>186</ele>
        <time>2018-03-24T12:07:40Z</time>
      </trkpt>
      <trkpt lat="45.95482" lon="4.75343">
        <ele>186</ele>
        <time>2018-03-24T12:07:41Z</time>
      </trkpt>
      <trkpt lat="45.95477" lon="4.75333">
        <ele>188</ele>
        <time>2018-03-24T12:07:43Z</time>
      </trkpt>
      <trkpt lat="45.95474" lon="4.75328">
        <ele>188</ele>
        <time>2018-03-24T12:07:44Z</time>
      </trkpt>
      <trkpt lat="45.95471" lon="4.75322">
        <ele>188</ele>
        <time>2018-03-24T12:07:45Z</time>
      </trkpt>
      <trkpt lat="45.95468" lon="4.75316">
        <ele>188</ele>
        <time>2018-03-24T12:07:46Z</time>
      </trkpt>
      <trkpt lat="45.95464" lon="4.7531">
        <ele>188</ele>
        <time>2018-03-24T12:07:47Z</time>
      </trkpt>
      <trkpt lat="45.95461" lon="4.75305">
        <ele>188</ele>
        <time>2018-03-24T12:07:48Z</time>
      </trkpt>
      <trkpt lat="45.95458" lon="4.75298">
        <ele>188</ele>
        <time>2018-03-24T12:07:49Z</time>
      </trkpt>
      <trkpt lat="45.95455" lon="4.75292">
        <ele>188</ele>
        <time>2018-03-24T12:07:50Z</time>
      </trkpt>
      <trkpt lat="45.95452" lon="4.75286">
        <ele>188</ele>
        <time>2018-03-24T12:07:51Z</time>
      </trkpt>
      <trkpt lat="45.95449" lon="4.75281">
        <ele>189</ele>
        <time>2018-03-24T12:07:52Z</time>
      </trkpt>
      <trkpt lat="45.95445" lon="4.75275">
        <ele>189</ele>
        <time>2018-03-24T12:07:53Z</time>
      </trkpt>
      <trkpt lat="45.95442" lon="4.7527">
        <ele>189</ele>
        <time>2018-03-24T12:07:54Z</time>
      </trkpt>
      <trkpt lat="45.95438" lon="4.75264">
        <ele>189</ele>
        <time>2018-03-24T12:07:55Z</time>
      </trkpt>
      <trkpt lat="45.95435" lon="4.75259">
        <ele>189</ele>
        <time>2018-03-24T12:07:56Z</time>
      </trkpt>
      <trkpt lat="45.95431" lon="4.75254">
        <ele>189</ele>
        <time>2018-03-24T12:07:57Z</time>
      </trkpt>
      <trkpt lat="45.95428" lon="4.75248">
        <ele>190</ele>
        <time>2018-03-24T12:07:58Z</time>
      </trkpt>
      <trkpt lat="45.95424" lon="4.75243">
        <ele>190</ele>
        <time>2018-03-24T12:07:59Z</time>
      </trkpt>
      <trkpt lat="45.95422" lon="4.75237">
        <ele>190</ele>
        <time>2018-03-24T12:08:00Z</time>
      </trkpt>
      <trkpt lat="45.9542" lon="4.75231">
        <ele>190</ele>
        <time>2018-03-24T12:08:01Z</time>
      </trkpt>
      <trkpt lat="45.95415" lon="4.75226">
        <ele>189</ele>
        <time>2018-03-24T12:08:02Z</time>
      </trkpt>
      <trkpt lat="45.9541" lon="4.75216">
        <ele>189</ele>
        <time>2018-03-24T12:08:04Z</time>
      </trkpt>
      <trkpt lat="45.95407" lon="4.7521">
        <ele>189</ele>
        <time>2018-03-24T12:08:05Z</time>
      </trkpt>
      <trkpt lat="45.95404" lon="4.75204">
        <ele>189</ele>
        <time>2018-03-24T12:08:06Z</time>
      </trkpt>
      <trkpt lat="45.95401" lon="4.75198">
        <ele>189</ele>
        <time>2018-03-24T12:08:07Z</time>
      </trkpt>
      <trkpt lat="45.95398" lon="4.75193">
        <ele>189</ele>
        <time>2018-03-24T12:08:08Z</time>
      </trkpt>
      <trkpt lat="45.95395" lon="4.75188">
        <ele>189</ele>
        <time>2018-03-24T12:08:09Z</time>
      </trkpt>
      <trkpt lat="45.95392" lon="4.75183">
        <ele>189</ele>
        <time>2018-03-24T12:08:10Z</time>
      </trkpt>
      <trkpt lat="45.95389" lon="4.75178">
        <ele>189</ele>
        <time>2018-03-24T12:08:11Z</time>
      </trkpt>
      <trkpt lat="45.95383" lon="4.75169">
        <ele>189</ele>
        <time>2018-03-24T12:08:13Z</time>
      </trkpt>
      <trkpt lat="45.95381" lon="4.75163">
        <ele>191</ele>
        <time>2018-03-24T12:08:14Z</time>
      </trkpt>
      <trkpt lat="45.95374" lon="4.75156">
        <ele>191</ele>
        <time>2018-03-24T12:08:16Z</time>
      </trkpt>
      <trkpt lat="45.95371" lon="4.75151">
        <ele>191</ele>
        <time>2018-03-24T12:08:17Z</time>
      </trkpt>
      <trkpt lat="45.95365" lon="4.75143">
        <ele>191</ele>
        <time>2018-03-24T12:08:19Z</time>
      </trkpt>
      <trkpt lat="45.95362" lon="4.75137">
        <ele>191</ele>
        <time>2018-03-24T12:08:20Z</time>
      </trkpt>
      <trkpt lat="45.95357" lon="4.75128">
        <ele>191</ele>
        <time>2018-03-24T12:08:22Z</time>
      </trkpt>
      <trkpt lat="45.95354" lon="4.75124">
        <ele>191</ele>
        <time>2018-03-24T12:08:23Z</time>
      </trkpt>
      <trkpt lat="45.95348" lon="4.75115">
        <ele>192</ele>
        <time>2018-03-24T12:08:25Z</time>
      </trkpt>
      <trkpt lat="45.95345" lon="4.7511">
        <ele>192</ele>
        <time>2018-03-24T12:08:26Z</time>
      </trkpt>
      <trkpt lat="45.95342" lon="4.75105">
        <ele>192</ele>
        <time>2018-03-24T12:08:27Z</time>
      </trkpt>
      <trkpt lat="45.95338" lon="4.75099">
        <ele>192</ele>
        <time>2018-03-24T12:08:28Z</time>
      </trkpt>
      <trkpt lat="45.95332" lon="4.75091">
        <ele>192</ele>
        <time>2018-03-24T12:08:30Z</time>
      </trkpt>
      <trkpt lat="45.95329" lon="4.75086">
        <ele>192</ele>
        <time>2018-03-24T12:08:31Z</time>
      </trkpt>
      <trkpt lat="45.95326" lon="4.75082">
        <ele>192</ele>
        <time>2018-03-24T12:08:32Z</time>
      </trkpt>
      <trkpt lat="45.95323" lon="4.75076">
        <ele>192</ele>
        <time>2018-03-24T12:08:33Z</time>
      </trkpt>
      <trkpt lat="45.95319" lon="4.7507">
        <ele>192</ele>
        <time>2018-03-24T12:08:34Z</time>
      </trkpt>
      <trkpt lat="45.95317" lon="4.75066">
        <ele>192</ele>
        <time>2018-03-24T12:08:35Z</time>
      </trkpt>
      <trkpt lat="45.9531" lon="4.75057">
        <ele>192</ele>
        <time>2018-03-24T12:08:37Z</time>
      </trkpt>
      <trkpt lat="45.95307" lon="4.75051">
        <ele>192</ele>
        <time>2018-03-24T12:08:38Z</time>
      </trkpt>
      <trkpt lat="45.95301" lon="4.75042">
        <ele>191</ele>
        <time>2018-03-24T12:08:40Z</time>
      </trkpt>
      <trkpt lat="45.95298" lon="4.75036">
        <ele>191</ele>
        <time>2018-03-24T12:08:41Z</time>
      </trkpt>
      <trkpt lat="45.95295" lon="4.75031">
        <ele>191</ele>
        <time>2018-03-24T12:08:42Z</time>
      </trkpt>
      <trkpt lat="45.95291" lon="4.75024">
        <ele>191</ele>
        <time>2018-03-24T12:08:43Z</time>
      </trkpt>
      <trkpt lat="45.95286" lon="4.75016">
        <ele>191</ele>
        <time>2018-03-24T12:08:45Z</time>
      </trkpt>
      <trkpt lat="45.95284" lon="4.75012">
        <ele>191</ele>
        <time>2018-03-24T12:08:46Z</time>
      </trkpt>
      <trkpt lat="45.95279" lon="4.75005">
        <ele>191</ele>
        <time>2018-03-24T12:08:48Z</time>
      </trkpt>
      <trkpt lat="45.95275" lon="4.75001">
        <ele>191</ele>
        <time>2018-03-24T12:08:49Z</time>
      </trkpt>
      <trkpt lat="45.95272" lon="4.74997">
        <ele>192</ele>
        <time>2018-03-24T12:08:50Z</time>
      </trkpt>
      <trkpt lat="45.95268" lon="4.74992">
        <ele>192</ele>
        <time>2018-03-24T12:08:51Z</time>
      </trkpt>
      <trkpt lat="45.95264" lon="4.74988">
        <ele>192</ele>
        <time>2018-03-24T12:08:52Z</time>
      </trkpt>
      <trkpt lat="45.95261" lon="4.74983">
        <ele>192</ele>
        <time>2018-03-24T12:08:53Z</time>
      </trkpt>
      <trkpt lat="45.95258" lon="4.74977">
        <ele>192</ele>
        <time>2018-03-24T12:08:54Z</time>
      </trkpt>
      <trkpt lat="45.95254" lon="4.74973">
        <ele>192</ele>
        <time>2018-03-24T12:08:55Z</time>
      </trkpt>
      <trkpt lat="45.95248" lon="4.74963">
        <ele>191</ele>
        <time>2018-03-24T12:08:57Z</time>
      </trkpt>
      <trkpt lat="45.95246" lon="4.74959">
        <ele>192</ele>
        <time>2018-03-24T12:08:58Z</time>
      </trkpt>
      <trkpt lat="45.9524" lon="4.74949">
        <ele>192</ele>
        <time>2018-03-24T12:09:00Z</time>
      </trkpt>
      <trkpt lat="45.95237" lon="4.74944">
        <ele>192</ele>
        <time>2018-03-24T12:09:01Z</time>
      </trkpt>
      <trkpt lat="45.95232" lon="4.74936">
        <ele>192</ele>
        <time>2018-03-24T12:09:03Z</time>
      </trkpt>
      <trkpt lat="45.95229" lon="4.7493">
        <ele>192</ele>
        <time>2018-03-24T12:09:04Z</time>
      </trkpt>
      <trkpt lat="45.95226" lon="4.74926">
        <ele>192</ele>
        <time>2018-03-24T12:09:05Z</time>
      </trkpt>
      <trkpt lat="45.95222" lon="4.74921">
        <ele>192</ele>
        <time>2018-03-24T12:09:06Z</time>
      </trkpt>
      <trkpt lat="45.95218" lon="4.74913">
        <ele>193</ele>
        <time>2018-03-24T12:09:08Z</time>
      </trkpt>
      <trkpt lat="45.95215" lon="4.74908">
        <ele>193</ele>
        <time>2018-03-24T12:09:09Z</time>
      </trkpt>
      <trkpt lat="45.95211" lon="4.74903">
        <ele>193</ele>
        <time>2018-03-24T12:09:10Z</time>
      </trkpt>
      <trkpt lat="45.95208" lon="4.74898">
        <ele>194</ele>
        <time>2018-03-24T12:09:11Z</time>
      </trkpt>
      <trkpt lat="45.95206" lon="4.74893">
        <ele>194</ele>
        <time>2018-03-24T12:09:12Z</time>
      </trkpt>
      <trkpt lat="45.95203" lon="4.74886">
        <ele>194</ele>
        <time>2018-03-24T12:09:13Z</time>
      </trkpt>
      <trkpt lat="45.95199" lon="4.74881">
        <ele>194</ele>
        <time>2018-03-24T12:09:14Z</time>
      </trkpt>
      <trkpt lat="45.95196" lon="4.74874">
        <ele>194</ele>
        <time>2018-03-24T12:09:15Z</time>
      </trkpt>
      <trkpt lat="45.95192" lon="4.74869">
        <ele>194</ele>
        <time>2018-03-24T12:09:16Z</time>
      </trkpt>
      <trkpt lat="45.95189" lon="4.74863">
        <ele>194</ele>
        <time>2018-03-24T12:09:17Z</time>
      </trkpt>
      <trkpt lat="45.95185" lon="4.74858">
        <ele>194</ele>
        <time>2018-03-24T12:09:18Z</time>
      </trkpt>
      <trkpt lat="45.95182" lon="4.74852">
        <ele>194</ele>
        <time>2018-03-24T12:09:19Z</time>
      </trkpt>
      <trkpt lat="45.95178" lon="4.74846">
        <ele>194</ele>
        <time>2018-03-24T12:09:20Z</time>
      </trkpt>
      <trkpt lat="45.95175" lon="4.7484">
        <ele>194</ele>
        <time>2018-03-24T12:09:21Z</time>
      </trkpt>
      <trkpt lat="45.95171" lon="4.74834">
        <ele>194</ele>
        <time>2018-03-24T12:09:22Z</time>
      </trkpt>
      <trkpt lat="45.95167" lon="4.74829">
        <ele>194</ele>
        <time>2018-03-24T12:09:23Z</time>
      </trkpt>
      <trkpt lat="45.95163" lon="4.74821">
        <ele>194</ele>
        <time>2018-03-24T12:09:24Z</time>
      </trkpt>
      <trkpt lat="45.95159" lon="4.74815">
        <ele>194</ele>
        <time>2018-03-24T12:09:25Z</time>
      </trkpt>
      <trkpt lat="45.95156" lon="4.7481">
        <ele>194</ele>
        <time>2018-03-24T12:09:26Z</time>
      </trkpt>
      <trkpt lat="45.95152" lon="4.74806">
        <ele>194</ele>
        <time>2018-03-24T12:09:27Z</time>
      </trkpt>
      <trkpt lat="45.95149" lon="4.74801">
        <ele>194</ele>
        <time>2018-03-24T12:09:28Z</time>
      </trkpt>
      <trkpt lat="45.95146" lon="4.74794">
        <ele>194</ele>
        <time>2018-03-24T12:09:29Z</time>
      </trkpt>
      <trkpt lat="45.95143" lon="4.74788">
        <ele>194</ele>
        <time>2018-03-24T12:09:30Z</time>
      </trkpt>
      <trkpt lat="45.9514" lon="4.74783">
        <ele>194</ele>
        <time>2018-03-24T12:09:31Z</time>
      </trkpt>
      <trkpt lat="45.95137" lon="4.74777">
        <ele>194</ele>
        <time>2018-03-24T12:09:32Z</time>
      </trkpt>
      <trkpt lat="45.95133" lon="4.74772">
        <ele>194</ele>
        <time>2018-03-24T12:09:33Z</time>
      </trkpt>
      <trkpt lat="45.95126" lon="4.74763">
        <ele>194</ele>
        <time>2018-03-24T12:09:35Z</time>
      </trkpt>
      <trkpt lat="45.95123" lon="4.74758">
        <ele>194</ele>
        <time>2018-03-24T12:09:36Z</time>
      </trkpt>
      <trkpt lat="45.9512" lon="4.74753">
        <ele>194</ele>
        <time>2018-03-24T12:09:37Z</time>
      </trkpt>
      <trkpt lat="45.95117" lon="4.74748">
        <ele>194</ele>
        <time>2018-03-24T12:09:38Z</time>
      </trkpt>
      <trkpt lat="45.95112" lon="4.74742">
        <ele>194</ele>
        <time>2018-03-24T12:09:39Z</time>
      </trkpt>
      <trkpt lat="45.95109" lon="4.74736">
        <ele>194</ele>
        <time>2018-03-24T12:09:40Z</time>
      </trkpt>
      <trkpt lat="45.95106" lon="4.74729">
        <ele>194</ele>
        <time>2018-03-24T12:09:41Z</time>
      </trkpt>
      <trkpt lat="45.95103" lon="4.74724">
        <ele>194</ele>
        <time>2018-03-24T12:09:42Z</time>
      </trkpt>
      <trkpt lat="45.951" lon="4.74718">
        <ele>194</ele>
        <time>2018-03-24T12:09:43Z</time>
      </trkpt>
      <trkpt lat="45.95097" lon="4.74712">
        <ele>194</ele>
        <time>2018-03-24T12:09:44Z</time>
      </trkpt>
      <trkpt lat="45.95093" lon="4.74707">
        <ele>194</ele>
        <time>2018-03-24T12:09:45Z</time>
      </trkpt>
      <trkpt lat="45.95088" lon="4.74701">
        <ele>194</ele>
        <time>2018-03-24T12:09:46Z</time>
      </trkpt>
      <trkpt lat="45.95084" lon="4.74695">
        <ele>194</ele>
        <time>2018-03-24T12:09:47Z</time>
      </trkpt>
      <trkpt lat="45.9508" lon="4.74691">
        <ele>194</ele>
        <time>2018-03-24T12:09:48Z</time>
      </trkpt>
      <trkpt lat="45.95077" lon="4.74687">
        <ele>194</ele>
        <time>2018-03-24T12:09:49Z</time>
      </trkpt>
      <trkpt lat="45.95072" lon="4.74682">
        <ele>194</ele>
        <time>2018-03-24T12:09:50Z</time>
      </trkpt>
      <trkpt lat="45.9507" lon="4.74676">
        <ele>194</ele>
        <time>2018-03-24T12:09:51Z</time>
      </trkpt>
      <trkpt lat="45.95066" lon="4.74669">
        <ele>194</ele>
        <time>2018-03-24T12:09:52Z</time>
      </trkpt>
      <trkpt lat="45.95063" lon="4.74664">
        <ele>195</ele>
        <time>2018-03-24T12:09:53Z</time>
      </trkpt>
      <trkpt lat="45.9506" lon="4.74658">
        <ele>194</ele>
        <time>2018-03-24T12:09:54Z</time>
      </trkpt>
      <trkpt lat="45.95055" lon="4.74651">
        <ele>194</ele>
        <time>2018-03-24T12:09:55Z</time>
      </trkpt>
      <trkpt lat="45.95053" lon="4.74646">
        <ele>194</ele>
        <time>2018-03-24T12:09:56Z</time>
      </trkpt>
      <trkpt lat="45.95049" lon="4.7464">
        <ele>194</ele>
        <time>2018-03-24T12:09:57Z</time>
      </trkpt>
      <trkpt lat="45.95046" lon="4.74634">
        <ele>194</ele>
        <time>2018-03-24T12:09:58Z</time>
      </trkpt>
      <trkpt lat="45.95043" lon="4.74628">
        <ele>194</ele>
        <time>2018-03-24T12:09:59Z</time>
      </trkpt>
      <trkpt lat="45.9504" lon="4.74622">
        <ele>194</ele>
        <time>2018-03-24T12:10:00Z</time>
      </trkpt>
      <trkpt lat="45.95037" lon="4.74615">
        <ele>194</ele>
        <time>2018-03-24T12:10:01Z</time>
      </trkpt>
      <trkpt lat="45.95034" lon="4.7461">
        <ele>194</ele>
        <time>2018-03-24T12:10:02Z</time>
      </trkpt>
      <trkpt lat="45.95029" lon="4.74599">
        <ele>194</ele>
        <time>2018-03-24T12:10:04Z</time>
      </trkpt>
      <trkpt lat="45.95026" lon="4.74594">
        <ele>194</ele>
        <time>2018-03-24T12:10:05Z</time>
      </trkpt>
      <trkpt lat="45.95023" lon="4.74589">
        <ele>194</ele>
        <time>2018-03-24T12:10:06Z</time>
      </trkpt>
      <trkpt lat="45.9502" lon="4.74583">
        <ele>194</ele>
        <time>2018-03-24T12:10:07Z</time>
      </trkpt>
      <trkpt lat="45.95017" lon="4.74577">
        <ele>194</ele>
        <time>2018-03-24T12:10:08Z</time>
      </trkpt>
      <trkpt lat="45.95014" lon="4.74571">
        <ele>194</ele>
        <time>2018-03-24T12:10:09Z</time>
      </trkpt>
      <trkpt lat="45.95009" lon="4.74565">
        <ele>194</ele>
        <time>2018-03-24T12:10:10Z</time>
      </trkpt>
      <trkpt lat="45.95007" lon="4.74558">
        <ele>194</ele>
        <time>2018-03-24T12:10:11Z</time>
      </trkpt>
      <trkpt lat="45.95004" lon="4.74553">
        <ele>194</ele>
        <time>2018-03-24T12:10:12Z</time>
      </trkpt>
      <trkpt lat="45.95" lon="4.74547">
        <ele>193</ele>
        <time>2018-03-24T12:10:13Z</time>
      </trkpt>
      <trkpt lat="45.94997" lon="4.74542">
        <ele>193</ele>
        <time>2018-03-24T12:10:14Z</time>
      </trkpt>
      <trkpt lat="45.94994" lon="4.74535">
        <ele>193</ele>
        <time>2018-03-24T12:10:15Z</time>
      </trkpt>
      <trkpt lat="45.94992" lon="4.74529">
        <ele>193</ele>
        <time>2018-03-24T12:10:16Z</time>
      </trkpt>
      <trkpt lat="45.94989" lon="4.74524">
        <ele>193</ele>
        <time>2018-03-24T12:10:17Z</time>
      </trkpt>
      <trkpt lat="45.94986" lon="4.74517">
        <ele>193</ele>
        <time>2018-03-24T12:10:18Z</time>
      </trkpt>
      <trkpt lat="45.94983" lon="4.74508">
        <ele>193</ele>
        <time>2018-03-24T12:10:19Z</time>
      </trkpt>
      <trkpt lat="45.94979" lon="4.74501">
        <ele>193</ele>
        <time>2018-03-24T12:10:20Z</time>
      </trkpt>
      <trkpt lat="45.94975" lon="4.74491">
        <ele>193</ele>
        <time>2018-03-24T12:10:21Z</time>
      </trkpt>
      <trkpt lat="45.94973" lon="4.74485">
        <ele>193</ele>
        <time>2018-03-24T12:10:22Z</time>
      </trkpt>
      <trkpt lat="45.94969" lon="4.74478">
        <ele>193</ele>
        <time>2018-03-24T12:10:23Z</time>
      </trkpt>
      <trkpt lat="45.94965" lon="4.74471">
        <ele>193</ele>
        <time>2018-03-24T12:10:24Z</time>
      </trkpt>
      <trkpt lat="45.94962" lon="4.74465">
        <ele>193</ele>
        <time>2018-03-24T12:10:25Z</time>
      </trkpt>
      <trkpt lat="45.94958" lon="4.74457">
        <ele>192</ele>
        <time>2018-03-24T12:10:26Z</time>
      </trkpt>
      <trkpt lat="45.94954" lon="4.7445">
        <ele>192</ele>
        <time>2018-03-24T12:10:27Z</time>
      </trkpt>
      <trkpt lat="45.94949" lon="4.7444">
        <ele>192</ele>
        <time>2018-03-24T12:10:28Z</time>
      </trkpt>
      <trkpt lat="45.94945" lon="4.74432">
        <ele>192</ele>
        <time>2018-03-24T12:10:29Z</time>
      </trkpt>
      <trkpt lat="45.94942" lon="4.74421">
        <ele>192</ele>
        <time>2018-03-24T12:10:30Z</time>
      </trkpt>
      <trkpt lat="45.94937" lon="4.74413">
        <ele>192</ele>
        <time>2018-03-24T12:10:31Z</time>
      </trkpt>
      <trkpt lat="45.94931" lon="4.74402">
        <ele>192</ele>
        <time>2018-03-24T12:10:32Z</time>
      </trkpt>
      <trkpt lat="45.94928" lon="4.74395">
        <ele>192</ele>
        <time>2018-03-24T12:10:33Z</time>
      </trkpt>
      <trkpt lat="45.94924" lon="4.74387">
        <ele>192</ele>
        <time>2018-03-24T12:10:34Z</time>
      </trkpt>
      <trkpt lat="45.9492" lon="4.74379">
        <ele>192</ele>
        <time>2018-03-24T12:10:35Z</time>
      </trkpt>
      <trkpt lat="45.94917" lon="4.74373">
        <ele>191</ele>
        <time>2018-03-24T12:10:36Z</time>
      </trkpt>
      <trkpt lat="45.94913" lon="4.74365">
        <ele>191</ele>
        <time>2018-03-24T12:10:37Z</time>
      </trkpt>
      <trkpt lat="45.94909" lon="4.74358">
        <ele>191</ele>
        <time>2018-03-24T12:10:38Z</time>
      </trkpt>
      <trkpt lat="45.94904" lon="4.74352">
        <ele>191</ele>
        <time>2018-03-24T12:10:39Z</time>
      </trkpt>
      <trkpt lat="45.949" lon="4.74344">
        <ele>191</ele>
        <time>2018-03-24T12:10:40Z</time>
      </trkpt>
      <trkpt lat="45.94897" lon="4.74337">
        <ele>191</ele>
        <time>2018-03-24T12:10:41Z</time>
      </trkpt>
      <trkpt lat="45.94892" lon="4.7433">
        <ele>191</ele>
        <time>2018-03-24T12:10:42Z</time>
      </trkpt>
      <trkpt lat="45.94889" lon="4.74325">
        <ele>191</ele>
        <time>2018-03-24T12:10:43Z</time>
      </trkpt>
      <trkpt lat="45.94885" lon="4.74318">
        <ele>191</ele>
        <time>2018-03-24T12:10:44Z</time>
      </trkpt>
      <trkpt lat="45.94882" lon="4.74312">
        <ele>191</ele>
        <time>2018-03-24T12:10:45Z</time>
      </trkpt>
      <trkpt lat="45.94878" lon="4.74306">
        <ele>191</ele>
        <time>2018-03-24T12:10:46Z</time>
      </trkpt>
      <trkpt lat="45.94875" lon="4.74298">
        <ele>191</ele>
        <time>2018-03-24T12:10:47Z</time>
      </trkpt>
      <trkpt lat="45.94871" lon="4.74293">
        <ele>191</ele>
        <time>2018-03-24T12:10:48Z</time>
      </trkpt>
      <trkpt lat="45.94867" lon="4.74287">
        <ele>191</ele>
        <time>2018-03-24T12:10:49Z</time>
      </trkpt>
      <trkpt lat="45.94863" lon="4.74282">
        <ele>191</ele>
        <time>2018-03-24T12:10:50Z</time>
      </trkpt>
      <trkpt lat="45.9486" lon="4.74275">
        <ele>190</ele>
        <time>2018-03-24T12:10:51Z</time>
      </trkpt>
      <trkpt lat="45.94857" lon="4.7427">
        <ele>190</ele>
        <time>2018-03-24T12:10:52Z</time>
      </trkpt>
      <trkpt lat="45.94854" lon="4.74264">
        <ele>190</ele>
        <time>2018-03-24T12:10:53Z</time>
      </trkpt>
      <trkpt lat="45.94851" lon="4.74259">
        <ele>190</ele>
        <time>2018-03-24T12:10:54Z</time>
      </trkpt>
      <trkpt lat="45.94847" lon="4.74252">
        <ele>190</ele>
        <time>2018-03-24T12:10:55Z</time>
      </trkpt>
      <trkpt lat="45.94844" lon="4.74245">
        <ele>190</ele>
        <time>2018-03-24T12:10:56Z</time>
      </trkpt>
      <trkpt lat="45.94841" lon="4.74237">
        <ele>190</ele>
        <time>2018-03-24T12:10:57Z</time>
      </trkpt>
      <trkpt lat="45.94838" lon="4.7423">
        <ele>190</ele>
        <time>2018-03-24T12:10:58Z</time>
      </trkpt>
      <trkpt lat="45.94835" lon="4.74223">
        <ele>190</ele>
        <time>2018-03-24T12:10:59Z</time>
      </trkpt>
      <trkpt lat="45.94831" lon="4.74216">
        <ele>188</ele>
        <time>2018-03-24T12:11:00Z</time>
      </trkpt>
      <trkpt lat="45.94826" lon="4.7421">
        <ele>189</ele>
        <time>2018-03-24T12:11:01Z</time>
      </trkpt>
      <trkpt lat="45.94823" lon="4.74204">
        <ele>189</ele>
        <time>2018-03-24T12:11:02Z</time>
      </trkpt>
      <trkpt lat="45.94819" lon="4.74198">
        <ele>189</ele>
        <time>2018-03-24T12:11:03Z</time>
      </trkpt>
      <trkpt lat="45.94816" lon="4.74191">
        <ele>189</ele>
        <time>2018-03-24T12:11:04Z</time>
      </trkpt>
      <trkpt lat="45.94812" lon="4.74183">
        <ele>189</ele>
        <time>2018-03-24T12:11:05Z</time>
      </trkpt>
      <trkpt lat="45.94809" lon="4.74175">
        <ele>189</ele>
        <time>2018-03-24T12:11:06Z</time>
      </trkpt>
      <trkpt lat="45.94806" lon="4.74169">
        <ele>189</ele>
        <time>2018-03-24T12:11:07Z</time>
      </trkpt>
      <trkpt lat="45.94802" lon="4.74163">
        <ele>189</ele>
        <time>2018-03-24T12:11:08Z</time>
      </trkpt>
      <trkpt lat="45.94798" lon="4.74155">
        <ele>189</ele>
        <time>2018-03-24T12:11:09Z</time>
      </trkpt>
      <trkpt lat="45.94795" lon="4.74149">
        <ele>189</ele>
        <time>2018-03-24T12:11:10Z</time>
      </trkpt>
      <trkpt lat="45.94791" lon="4.74141">
        <ele>189</ele>
        <time>2018-03-24T12:11:11Z</time>
      </trkpt>
      <trkpt lat="45.94787" lon="4.74135">
        <ele>189</ele>
        <time>2018-03-24T12:11:12Z</time>
      </trkpt>
      <trkpt lat="45.94783" lon="4.74129">
        <ele>189</ele>
        <time>2018-03-24T12:11:13Z</time>
      </trkpt>
      <trkpt lat="45.94778" lon="4.74122">
        <ele>189</ele>
        <time>2018-03-24T12:11:14Z</time>
      </trkpt>
      <trkpt lat="45.94774" lon="4.74114">
        <ele>189</ele>
        <time>2018-03-24T12:11:15Z</time>
      </trkpt>
      <trkpt lat="45.94771" lon="4.74108">
        <ele>189</ele>
        <time>2018-03-24T12:11:16Z</time>
      </trkpt>
      <trkpt lat="45.94767" lon="4.74103">
        <ele>189</ele>
        <time>2018-03-24T12:11:17Z</time>
      </trkpt>
      <trkpt lat="45.94763" lon="4.74097">
        <ele>189</ele>
        <time>2018-03-24T12:11:18Z</time>
      </trkpt>
      <trkpt lat="45.94759" lon="4.74091">
        <ele>189</ele>
        <time>2018-03-24T12:11:19Z</time>
      </trkpt>
      <trkpt lat="45.94755" lon="4.74086">
        <ele>189</ele>
        <time>2018-03-24T12:11:20Z</time>
      </trkpt>
      <trkpt lat="45.94751" lon="4.74081">
        <ele>189</ele>
        <time>2018-03-24T12:11:21Z</time>
      </trkpt>
      <trkpt lat="45.94747" lon="4.74077">
        <ele>189</ele>
        <time>2018-03-24T12:11:22Z</time>
      </trkpt>
      <trkpt lat="45.94743" lon="4.74073">
        <ele>188</ele>
        <time>2018-03-24T12:11:23Z</time>
      </trkpt>
      <trkpt lat="45.94738" lon="4.74066">
        <ele>188</ele>
        <time>2018-03-24T12:11:24Z</time>
      </trkpt>
      <trkpt lat="45.94733" lon="4.7406">
        <ele>188</ele>
        <time>2018-03-24T12:11:25Z</time>
      </trkpt>
      <trkpt lat="45.94729" lon="4.74054">
        <ele>188</ele>
        <time>2018-03-24T12:11:26Z</time>
      </trkpt>
      <trkpt lat="45.94725" lon="4.74048">
        <ele>188</ele>
        <time>2018-03-24T12:11:27Z</time>
      </trkpt>
      <trkpt lat="45.94722" lon="4.74044">
        <ele>187</ele>
        <time>2018-03-24T12:11:28Z</time>
      </trkpt>
      <trkpt lat="45.94719" lon="4.74038">
        <ele>187</ele>
        <time>2018-03-24T12:11:29Z</time>
      </trkpt>
      <trkpt lat="45.94716" lon="4.74033">
        <ele>187</ele>
        <time>2018-03-24T12:11:30Z</time>
      </trkpt>
      <trkpt lat="45.94711" lon="4.74029">
        <ele>187</ele>
        <time>2018-03-24T12:11:31Z</time>
      </trkpt>
      <trkpt lat="45.94707" lon="4.74023">
        <ele>187</ele>
        <time>2018-03-24T12:11:32Z</time>
      </trkpt>
      <trkpt lat="45.94703" lon="4.74015">
        <ele>187</ele>
        <time>2018-03-24T12:11:33Z</time>
      </trkpt>
      <trkpt lat="45.94699" lon="4.74011">
        <ele>187</ele>
        <time>2018-03-24T12:11:34Z</time>
      </trkpt>
      <trkpt lat="45.94695" lon="4.74007">
        <ele>187</ele>
        <time>2018-03-24T12:11:35Z</time>
      </trkpt>
      <trkpt lat="45.94691" lon="4.74002">
        <ele>187</ele>
        <time>2018-03-24T12:11:36Z</time>
      </trkpt>
      <trkpt lat="45.94688" lon="4.73997">
        <ele>187</ele>
        <time>2018-03-24T12:11:37Z</time>
      </trkpt>
      <trkpt lat="45.94683" lon="4.73992">
        <ele>187</ele>
        <time>2018-03-24T12:11:38Z</time>
      </trkpt>
      <trkpt lat="45.94679" lon="4.73988">
        <ele>187</ele>
        <time>2018-03-24T12:11:39Z</time>
      </trkpt>
      <trkpt lat="45.94675" lon="4.73981">
        <ele>187</ele>
        <time>2018-03-24T12:11:40Z</time>
      </trkpt>
      <trkpt lat="45.94671" lon="4.73974">
        <ele>187</ele>
        <time>2018-03-24T12:11:41Z</time>
      </trkpt>
      <trkpt lat="45.94667" lon="4.73968">
        <ele>187</ele>
        <time>2018-03-24T12:11:42Z</time>
      </trkpt>
      <trkpt lat="45.94662" lon="4.73963">
        <ele>187</ele>
        <time>2018-03-24T12:11:43Z</time>
      </trkpt>
      <trkpt lat="45.94658" lon="4.73958">
        <ele>187</ele>
        <time>2018-03-24T12:11:44Z</time>
      </trkpt>
      <trkpt lat="45.94654" lon="4.73951">
        <ele>187</ele>
        <time>2018-03-24T12:11:45Z</time>
      </trkpt>
      <trkpt lat="45.94648" lon="4.73946">
        <ele>187</ele>
        <time>2018-03-24T12:11:46Z</time>
      </trkpt>
      <trkpt lat="45.94644" lon="4.7394">
        <ele>187</ele>
        <time>2018-03-24T12:11:47Z</time>
      </trkpt>
      <trkpt lat="45.94639" lon="4.73934">
        <ele>187</ele>
        <time>2018-03-24T12:11:48Z</time>
      </trkpt>
      <trkpt lat="45.94635" lon="4.73928">
        <ele>187</ele>
        <time>2018-03-24T12:11:49Z</time>
      </trkpt>
      <trkpt lat="45.9463" lon="4.73922">
        <ele>187</ele>
        <time>2018-03-24T12:11:50Z</time>
      </trkpt>
      <trkpt lat="45.94626" lon="4.73917">
        <ele>187</ele>
        <time>2018-03-24T12:11:51Z</time>
      </trkpt>
      <trkpt lat="45.94622" lon="4.73911">
        <ele>187</ele>
        <time>2018-03-24T12:11:52Z</time>
      </trkpt>
      <trkpt lat="45.94615" lon="4.73906">
        <ele>187</ele>
        <time>2018-03-24T12:11:53Z</time>
      </trkpt>
      <trkpt lat="45.9461" lon="4.739">
        <ele>187</ele>
        <time>2018-03-24T12:11:54Z</time>
      </trkpt>
      <trkpt lat="45.94605" lon="4.73895">
        <ele>187</ele>
        <time>2018-03-24T12:11:55Z</time>
      </trkpt>
      <trkpt lat="45.946" lon="4.73889">
        <ele>187</ele>
        <time>2018-03-24T12:11:56Z</time>
      </trkpt>
      <trkpt lat="45.94595" lon="4.73882">
        <ele>187</ele>
        <time>2018-03-24T12:11:57Z</time>
      </trkpt>
      <trkpt lat="45.94591" lon="4.73876">
        <ele>187</ele>
        <time>2018-03-24T12:11:58Z</time>
      </trkpt>
      <trkpt lat="45.94586" lon="4.73871">
        <ele>187</ele>
        <time>2018-03-24T12:11:59Z</time>
      </trkpt>
      <trkpt lat="45.94582" lon="4.73866">
        <ele>186</ele>
        <time>2018-03-24T12:12:00Z</time>
      </trkpt>
      <trkpt lat="45.94578" lon="4.7386">
        <ele>186</ele>
        <time>2018-03-24T12:12:01Z</time>
      </trkpt>
      <trkpt lat="45.94573" lon="4.73854">
        <ele>186</ele>
        <time>2018-03-24T12:12:02Z</time>
      </trkpt>
      <trkpt lat="45.94569" lon="4.73849">
        <ele>186</ele>
        <time>2018-03-24T12:12:03Z</time>
      </trkpt>
      <trkpt lat="45.94564" lon="4.73844">
        <ele>186</ele>
        <time>2018-03-24T12:12:04Z</time>
      </trkpt>
      <trkpt lat="45.94559" lon="4.7384">
        <ele>186</ele>
        <time>2018-03-24T12:12:05Z</time>
      </trkpt>
      <trkpt lat="45.94554" lon="4.73836">
        <ele>186</ele>
        <time>2018-03-24T12:12:06Z</time>
      </trkpt>
      <trkpt lat="45.94549" lon="4.73831">
        <ele>186</ele>
        <time>2018-03-24T12:12:07Z</time>
      </trkpt>
      <trkpt lat="45.94544" lon="4.73826">
        <ele>186</ele>
        <time>2018-03-24T12:12:08Z</time>
      </trkpt>
      <trkpt lat="45.9454" lon="4.73821">
        <ele>186</ele>
        <time>2018-03-24T12:12:09Z</time>
      </trkpt>
      <trkpt lat="45.94535" lon="4.73816">
        <ele>186</ele>
        <time>2018-03-24T12:12:10Z</time>
      </trkpt>
      <trkpt lat="45.9453" lon="4.73812">
        <ele>186</ele>
        <time>2018-03-24T12:12:11Z</time>
      </trkpt>
      <trkpt lat="45.94526" lon="4.73807">
        <ele>186</ele>
        <time>2018-03-24T12:12:12Z</time>
      </trkpt>
      <trkpt lat="45.94521" lon="4.73802">
        <ele>186</ele>
        <time>2018-03-24T12:12:13Z</time>
      </trkpt>
      <trkpt lat="45.94516" lon="4.73795">
        <ele>186</ele>
        <time>2018-03-24T12:12:14Z</time>
      </trkpt>
      <trkpt lat="45.94512" lon="4.7379">
        <ele>186</ele>
        <time>2018-03-24T12:12:15Z</time>
      </trkpt>
      <trkpt lat="45.94507" lon="4.73785">
        <ele>186</ele>
        <time>2018-03-24T12:12:16Z</time>
      </trkpt>
      <trkpt lat="45.94503" lon="4.7378">
        <ele>186</ele>
        <time>2018-03-24T12:12:17Z</time>
      </trkpt>
      <trkpt lat="45.94498" lon="4.73775">
        <ele>186</ele>
        <time>2018-03-24T12:12:18Z</time>
      </trkpt>
      <trkpt lat="45.94495" lon="4.7377">
        <ele>186</ele>
        <time>2018-03-24T12:12:19Z</time>
      </trkpt>
      <trkpt lat="45.94491" lon="4.73765">
        <ele>186</ele>
        <time>2018-03-24T12:12:20Z</time>
      </trkpt>
      <trkpt lat="45.94487" lon="4.73761">
        <ele>186</ele>
        <time>2018-03-24T12:12:21Z</time>
      </trkpt>
      <trkpt lat="45.94483" lon="4.73756">
        <ele>186</ele>
        <time>2018-03-24T12:12:22Z</time>
      </trkpt>
      <trkpt lat="45.94479" lon="4.73746">
        <ele>186</ele>
        <time>2018-03-24T12:12:24Z</time>
      </trkpt>
      <trkpt lat="45.94479" lon="4.7374">
        <ele>186</ele>
        <time>2018-03-24T12:12:25Z</time>
      </trkpt>
      <trkpt lat="45.9448" lon="4.73732">
        <ele>186</ele>
        <time>2018-03-24T12:12:26Z</time>
      </trkpt>
      <trkpt lat="45.9448" lon="4.73724">
        <ele>186</ele>
        <time>2018-03-24T12:12:27Z</time>
      </trkpt>
      <trkpt lat="45.94482" lon="4.73717">
        <ele>186</ele>
        <time>2018-03-24T12:12:28Z</time>
      </trkpt>
      <trkpt lat="45.94483" lon="4.7371">
        <ele>186</ele>
        <time>2018-03-24T12:12:29Z</time>
      </trkpt>
      <trkpt lat="45.94484" lon="4.73703">
        <ele>186</ele>
        <time>2018-03-24T12:12:30Z</time>
      </trkpt>
      <trkpt lat="45.94485" lon="4.73696">
        <ele>186</ele>
        <time>2018-03-24T12:12:31Z</time>
      </trkpt>
      <trkpt lat="45.94486" lon="4.73688">
        <ele>186</ele>
        <time>2018-03-24T12:12:32Z</time>
      </trkpt>
      <trkpt lat="45.94487" lon="4.7368">
        <ele>186</ele>
        <time>2018-03-24T12:12:33Z</time>
      </trkpt>
      <trkpt lat="45.94489" lon="4.73673">
        <ele>185</ele>
        <time>2018-03-24T12:12:34Z</time>
      </trkpt>
      <trkpt lat="45.94489" lon="4.73666">
        <ele>185</ele>
        <time>2018-03-24T12:12:35Z</time>
      </trkpt>
      <trkpt lat="45.9449" lon="4.73658">
        <ele>185</ele>
        <time>2018-03-24T12:12:36Z</time>
      </trkpt>
      <trkpt lat="45.94491" lon="4.73651">
        <ele>185</ele>
        <time>2018-03-24T12:12:37Z</time>
      </trkpt>
      <trkpt lat="45.94493" lon="4.73641">
        <ele>186</ele>
        <time>2018-03-24T12:12:38Z</time>
      </trkpt>
      <trkpt lat="45.94494" lon="4.73633">
        <ele>186</ele>
        <time>2018-03-24T12:12:39Z</time>
      </trkpt>
      <trkpt lat="45.94495" lon="4.73625">
        <ele>186</ele>
        <time>2018-03-24T12:12:40Z</time>
      </trkpt>
      <trkpt lat="45.94496" lon="4.73617">
        <ele>186</ele>
        <time>2018-03-24T12:12:41Z</time>
      </trkpt>
      <trkpt lat="45.94497" lon="4.7361">
        <ele>186</ele>
        <time>2018-03-24T12:12:42Z</time>
      </trkpt>
      <trkpt lat="45.94498" lon="4.73602">
        <ele>185</ele>
        <time>2018-03-24T12:12:43Z</time>
      </trkpt>
      <trkpt lat="45.94499" lon="4.73593">
        <ele>185</ele>
        <time>2018-03-24T12:12:44Z</time>
      </trkpt>
      <trkpt lat="45.94499" lon="4.73584">
        <ele>185</ele>
        <time>2018-03-24T12:12:45Z</time>
      </trkpt>
      <trkpt lat="45.94501" lon="4.73572">
        <ele>184</ele>
        <time>2018-03-24T12:12:46Z</time>
      </trkpt>
      <trkpt lat="45.94501" lon="4.73562">
        <ele>184</ele>
        <time>2018-03-24T12:12:47Z</time>
      </trkpt>
      <trkpt lat="45.94502" lon="4.73553">
        <ele>183</ele>
        <time>2018-03-24T12:12:48Z</time>
      </trkpt>
      <trkpt lat="45.94502" lon="4.73543">
        <ele>183</ele>
        <time>2018-03-24T12:12:49Z</time>
      </trkpt>
      <trkpt lat="45.94502" lon="4.73534">
        <ele>183</ele>
        <time>2018-03-24T12:12:50Z</time>
      </trkpt>
      <trkpt lat="45.94502" lon="4.73524">
        <ele>183</ele>
        <time>2018-03-24T12:12:51Z</time>
      </trkpt>
      <trkpt lat="45.94502" lon="4.73514">
        <ele>183</ele>
        <time>2018-03-24T12:12:52Z</time>
      </trkpt>
      <trkpt lat="45.94502" lon="4.73504">
        <ele>183</ele>
        <time>2018-03-24T12:12:53Z</time>
      </trkpt>
      <trkpt lat="45.94502" lon="4.73493">
        <ele>183</ele>
        <time>2018-03-24T12:12:54Z</time>
      </trkpt>
      <trkpt lat="45.94502" lon="4.73483">
        <ele>182</ele>
        <time>2018-03-24T12:12:55Z</time>
      </trkpt>
      <trkpt lat="45.94502" lon="4.73473">
        <ele>182</ele>
        <time>2018-03-24T12:12:56Z</time>
      </trkpt>
      <trkpt lat="45.94502" lon="4.73459">
        <ele>181</ele>
        <time>2018-03-24T12:12:57Z</time>
      </trkpt>
      <trkpt lat="45.94503" lon="4.73449">
        <ele>181</ele>
        <time>2018-03-24T12:12:58Z</time>
      </trkpt>
      <trkpt lat="45.94503" lon="4.73438">
        <ele>181</ele>
        <time>2018-03-24T12:12:59Z</time>
      </trkpt>
      <trkpt lat="45.94503" lon="4.73428">
        <ele>180</ele>
        <time>2018-03-24T12:13:00Z</time>
      </trkpt>
      <trkpt lat="45.94502" lon="4.73418">
        <ele>180</ele>
        <time>2018-03-24T12:13:01Z</time>
      </trkpt>
      <trkpt lat="45.94503" lon="4.73405">
        <ele>179</ele>
        <time>2018-03-24T12:13:02Z</time>
      </trkpt>
      <trkpt lat="45.94502" lon="4.73395">
        <ele>179</ele>
        <time>2018-03-24T12:13:03Z</time>
      </trkpt>
      <trkpt lat="45.945" lon="4.73385">
        <ele>179</ele>
        <time>2018-03-24T12:13:04Z</time>
      </trkpt>
      <trkpt lat="45.945" lon="4.73374">
        <ele>179</ele>
        <time>2018-03-24T12:13:05Z</time>
      </trkpt>
      <trkpt lat="45.94499" lon="4.73363">
        <ele>179</ele>
        <time>2018-03-24T12:13:06Z</time>
      </trkpt>
      <trkpt lat="45.94498" lon="4.73353">
        <ele>178</ele>
        <time>2018-03-24T12:13:07Z</time>
      </trkpt>
      <trkpt lat="45.94497" lon="4.73342">
        <ele>178</ele>
        <time>2018-03-24T12:13:08Z</time>
      </trkpt>
      <trkpt lat="45.94496" lon="4.7333">
        <ele>177</ele>
        <time>2018-03-24T12:13:09Z</time>
      </trkpt>
      <trkpt lat="45.94494" lon="4.73319">
        <ele>177</ele>
        <time>2018-03-24T12:13:10Z</time>
      </trkpt>
      <trkpt lat="45.94492" lon="4.73308">
        <ele>177</ele>
        <time>2018-03-24T12:13:11Z</time>
      </trkpt>
      <trkpt lat="45.9449" lon="4.73296">
        <ele>177</ele>
        <time>2018-03-24T12:13:12Z</time>
      </trkpt>
      <trkpt lat="45.94489" lon="4.73284">
        <ele>177</ele>
        <time>2018-03-24T12:13:13Z</time>
      </trkpt>
      <trkpt lat="45.94487" lon="4.73273">
        <ele>177</ele>
        <time>2018-03-24T12:13:14Z</time>
      </trkpt>
      <trkpt lat="45.94485" lon="4.73261">
        <ele>176</ele>
        <time>2018-03-24T12:13:15Z</time>
      </trkpt>
      <trkpt lat="45.94483" lon="4.7325">
        <ele>175</ele>
        <time>2018-03-24T12:13:16Z</time>
      </trkpt>
      <trkpt lat="45.94481" lon="4.73238">
        <ele>175</ele>
        <time>2018-03-24T12:13:17Z</time>
      </trkpt>
      <trkpt lat="45.9448" lon="4.73226">
        <ele>175</ele>
        <time>2018-03-24T12:13:18Z</time>
      </trkpt>
      <trkpt lat="45.94479" lon="4.73214">
        <ele>175</ele>
        <time>2018-03-24T12:13:19Z</time>
      </trkpt>
      <trkpt lat="45.94477" lon="4.73203">
        <ele>175</ele>
        <time>2018-03-24T12:13:20Z</time>
      </trkpt>
      <trkpt lat="45.94476" lon="4.73191">
        <ele>174</ele>
        <time>2018-03-24T12:13:21Z</time>
      </trkpt>
      <trkpt lat="45.94474" lon="4.7318">
        <ele>174</ele>
        <time>2018-03-24T12:13:22Z</time>
      </trkpt>
      <trkpt lat="45.94473" lon="4.73168">
        <ele>174</ele>
        <time>2018-03-24T12:13:23Z</time>
      </trkpt>
      <trkpt lat="45.94471" lon="4.73158">
        <ele>172</ele>
        <time>2018-03-24T12:13:24Z</time>
      </trkpt>
      <trkpt lat="45.9447" lon="4.73148">
        <ele>172</ele>
        <time>2018-03-24T12:13:25Z</time>
      </trkpt>
      <trkpt lat="45.94469" lon="4.73137">
        <ele>172</ele>
        <time>2018-03-24T12:13:26Z</time>
      </trkpt>
      <trkpt lat="45.94468" lon="4.73127">
        <ele>172</ele>
        <time>2018-03-24T12:13:27Z</time>
      </trkpt>
      <trkpt lat="45.94469" lon="4.73119">
        <ele>172</ele>
        <time>2018-03-24T12:13:28Z</time>
      </trkpt>
      <trkpt lat="45.94468" lon="4.73109">
        <ele>172</ele>
        <time>2018-03-24T12:13:29Z</time>
      </trkpt>
      <trkpt lat="45.94466" lon="4.73099">
        <ele>172</ele>
        <time>2018-03-24T12:13:30Z</time>
      </trkpt>
      <trkpt lat="45.94464" lon="4.73089">
        <ele>171</ele>
        <time>2018-03-24T12:13:31Z</time>
      </trkpt>
      <trkpt lat="45.94463" lon="4.7308">
        <ele>170</ele>
        <time>2018-03-24T12:13:32Z</time>
      </trkpt>
      <trkpt lat="45.94462" lon="4.73071">
        <ele>170</ele>
        <time>2018-03-24T12:13:33Z</time>
      </trkpt>
      <trkpt lat="45.9446" lon="4.73063">
        <ele>170</ele>
        <time>2018-03-24T12:13:34Z</time>
      </trkpt>
      <trkpt lat="45.94459" lon="4.73055">
        <ele>170</ele>
        <time>2018-03-24T12:13:35Z</time>
      </trkpt>
      <trkpt lat="45.94457" lon="4.73048">
        <ele>170</ele>
        <time>2018-03-24T12:13:36Z</time>
      </trkpt>
      <trkpt lat="45.94457" lon="4.73039">
        <ele>169</ele>
        <time>2018-03-24T12:13:37Z</time>
      </trkpt>
      <trkpt lat="45.94456" lon="4.73031">
        <ele>169</ele>
        <time>2018-03-24T12:13:38Z</time>
      </trkpt>
      <trkpt lat="45.94454" lon="4.73024">
        <ele>169</ele>
        <time>2018-03-24T12:13:39Z</time>
      </trkpt>
      <trkpt lat="45.94453" lon="4.73017">
        <ele>169</ele>
        <time>2018-03-24T12:13:40Z</time>
      </trkpt>
      <trkpt lat="45.94453" lon="4.7301">
        <ele>169</ele>
        <time>2018-03-24T12:13:41Z</time>
      </trkpt>
      <trkpt lat="45.94451" lon="4.73003">
        <ele>169</ele>
        <time>2018-03-24T12:13:42Z</time>
      </trkpt>
      <trkpt lat="45.94451" lon="4.72997">
        <ele>167</ele>
        <time>2018-03-24T12:13:43Z</time>
      </trkpt>
      <trkpt lat="45.9445" lon="4.7299">
        <ele>167</ele>
        <time>2018-03-24T12:13:44Z</time>
      </trkpt>
      <trkpt lat="45.94449" lon="4.72983">
        <ele>167</ele>
        <time>2018-03-24T12:13:45Z</time>
      </trkpt>
      <trkpt lat="45.94448" lon="4.72977">
        <ele>167</ele>
        <time>2018-03-24T12:13:46Z</time>
      </trkpt>
      <trkpt lat="45.94446" lon="4.7297">
        <ele>167</ele>
        <time>2018-03-24T12:13:47Z</time>
      </trkpt>
      <trkpt lat="45.94444" lon="4.7296">
        <ele>167</ele>
        <time>2018-03-24T12:13:49Z</time>
      </trkpt>
      <trkpt lat="45.94443" lon="4.72954">
        <ele>167</ele>
        <time>2018-03-24T12:13:50Z</time>
      </trkpt>
      <trkpt lat="45.94442" lon="4.72942">
        <ele>167</ele>
        <time>2018-03-24T12:13:52Z</time>
      </trkpt>
      <trkpt lat="45.94441" lon="4.72937">
        <ele>167</ele>
        <time>2018-03-24T12:13:53Z</time>
      </trkpt>
      <trkpt lat="45.9444" lon="4.72926">
        <ele>167</ele>
        <time>2018-03-24T12:13:55Z</time>
      </trkpt>
      <trkpt lat="45.94439" lon="4.72921">
        <ele>167</ele>
        <time>2018-03-24T12:13:56Z</time>
      </trkpt>
      <trkpt lat="45.94437" lon="4.7291">
        <ele>166</ele>
        <time>2018-03-24T12:13:58Z</time>
      </trkpt>
      <trkpt lat="45.94436" lon="4.72904">
        <ele>166</ele>
        <time>2018-03-24T12:13:59Z</time>
      </trkpt>
      <trkpt lat="45.94435" lon="4.72892">
        <ele>166</ele>
        <time>2018-03-24T12:14:01Z</time>
      </trkpt>
      <trkpt lat="45.94434" lon="4.72886">
        <ele>166</ele>
        <time>2018-03-24T12:14:02Z</time>
      </trkpt>
      <trkpt lat="45.94432" lon="4.72874">
        <ele>166</ele>
        <time>2018-03-24T12:14:04Z</time>
      </trkpt>
      <trkpt lat="45.9443" lon="4.72866">
        <ele>166</ele>
        <time>2018-03-24T12:14:05Z</time>
      </trkpt>
      <trkpt lat="45.94429" lon="4.72858">
        <ele>166</ele>
        <time>2018-03-24T12:14:06Z</time>
      </trkpt>
      <trkpt lat="45.94427" lon="4.72851">
        <ele>166</ele>
        <time>2018-03-24T12:14:07Z</time>
      </trkpt>
      <trkpt lat="45.94427" lon="4.72844">
        <ele>166</ele>
        <time>2018-03-24T12:14:08Z</time>
      </trkpt>
      <trkpt lat="45.94426" lon="4.72837">
        <ele>166</ele>
        <time>2018-03-24T12:14:09Z</time>
      </trkpt>
      <trkpt lat="45.94424" lon="4.72828">
        <ele>166</ele>
        <time>2018-03-24T12:14:10Z</time>
      </trkpt>
      <trkpt lat="45.94424" lon="4.7282">
        <ele>167</ele>
        <time>2018-03-24T12:14:11Z</time>
      </trkpt>
      <trkpt lat="45.94423" lon="4.72811">
        <ele>167</ele>
        <time>2018-03-24T12:14:12Z</time>
      </trkpt>
      <trkpt lat="45.94423" lon="4.72803">
        <ele>167</ele>
        <time>2018-03-24T12:14:13Z</time>
      </trkpt>
      <trkpt lat="45.94422" lon="4.72793">
        <ele>168</ele>
        <time>2018-03-24T12:14:14Z</time>
      </trkpt>
      <trkpt lat="45.94421" lon="4.72784">
        <ele>168</ele>
        <time>2018-03-24T12:14:15Z</time>
      </trkpt>
      <trkpt lat="45.94419" lon="4.72775">
        <ele>169</ele>
        <time>2018-03-24T12:14:16Z</time>
      </trkpt>
      <trkpt lat="45.94418" lon="4.72764">
        <ele>169</ele>
        <time>2018-03-24T12:14:17Z</time>
      </trkpt>
      <trkpt lat="45.94418" lon="4.72755">
        <ele>170</ele>
        <time>2018-03-24T12:14:18Z</time>
      </trkpt>
      <trkpt lat="45.94417" lon="4.72745">
        <ele>171</ele>
        <time>2018-03-24T12:14:19Z</time>
      </trkpt>
      <trkpt lat="45.94416" lon="4.72735">
        <ele>171</ele>
        <time>2018-03-24T12:14:20Z</time>
      </trkpt>
      <trkpt lat="45.94415" lon="4.72724">
        <ele>172</ele>
        <time>2018-03-24T12:14:21Z</time>
      </trkpt>
      <trkpt lat="45.94414" lon="4.72715">
        <ele>172</ele>
        <time>2018-03-24T12:14:22Z</time>
      </trkpt>
      <trkpt lat="45.94413" lon="4.72705">
        <ele>172</ele>
        <time>2018-03-24T12:14:23Z</time>
      </trkpt>
      <trkpt lat="45.94412" lon="4.72697">
        <ele>173</ele>
        <time>2018-03-24T12:14:24Z</time>
      </trkpt>
      <trkpt lat="45.94411" lon="4.72688">
        <ele>173</ele>
        <time>2018-03-24T12:14:25Z</time>
      </trkpt>
      <trkpt lat="45.9441" lon="4.72678">
        <ele>173</ele>
        <time>2018-03-24T12:14:26Z</time>
      </trkpt>
      <trkpt lat="45.94409" lon="4.72669">
        <ele>173</ele>
        <time>2018-03-24T12:14:27Z</time>
      </trkpt>
      <trkpt lat="45.94408" lon="4.72659">
        <ele>174</ele>
        <time>2018-03-24T12:14:28Z</time>
      </trkpt>
      <trkpt lat="45.94407" lon="4.72648">
        <ele>174</ele>
        <time>2018-03-24T12:14:29Z</time>
      </trkpt>
      <trkpt lat="45.94406" lon="4.72638">
        <ele>174</ele>
        <time>2018-03-24T12:14:30Z</time>
      </trkpt>
      <trkpt lat="45.94405" lon="4.7263">
        <ele>174</ele>
        <time>2018-03-24T12:14:31Z</time>
      </trkpt>
      <trkpt lat="45.94403" lon="4.7262">
        <ele>173</ele>
        <time>2018-03-24T12:14:32Z</time>
      </trkpt>
      <trkpt lat="45.94402" lon="4.72611">
        <ele>173</ele>
        <time>2018-03-24T12:14:33Z</time>
      </trkpt>
      <trkpt lat="45.94401" lon="4.72602">
        <ele>173</ele>
        <time>2018-03-24T12:14:34Z</time>
      </trkpt>
      <trkpt lat="45.944" lon="4.72594">
        <ele>173</ele>
        <time>2018-03-24T12:14:35Z</time>
      </trkpt>
      <trkpt lat="45.94398" lon="4.72586">
        <ele>173</ele>
        <time>2018-03-24T12:14:36Z</time>
      </trkpt>
      <trkpt lat="45.94397" lon="4.72578">
        <ele>173</ele>
        <time>2018-03-24T12:14:37Z</time>
      </trkpt>
      <trkpt lat="45.94393" lon="4.7257">
        <ele>173</ele>
        <time>2018-03-24T12:14:38Z</time>
      </trkpt>
      <trkpt lat="45.94392" lon="4.72562">
        <ele>173</ele>
        <time>2018-03-24T12:14:39Z</time>
      </trkpt>
      <trkpt lat="45.94391" lon="4.72553">
        <ele>173</ele>
        <time>2018-03-24T12:14:40Z</time>
      </trkpt>
      <trkpt lat="45.94389" lon="4.72545">
        <ele>173</ele>
        <time>2018-03-24T12:14:41Z</time>
      </trkpt>
      <trkpt lat="45.94387" lon="4.72538">
        <ele>174</ele>
        <time>2018-03-24T12:14:42Z</time>
      </trkpt>
      <trkpt lat="45.94385" lon="4.72531">
        <ele>174</ele>
        <time>2018-03-24T12:14:43Z</time>
      </trkpt>
      <trkpt lat="45.94384" lon="4.72524">
        <ele>174</ele>
        <time>2018-03-24T12:14:44Z</time>
      </trkpt>
      <trkpt lat="45.94382" lon="4.72517">
        <ele>174</ele>
        <time>2018-03-24T12:14:45Z</time>
      </trkpt>
      <trkpt lat="45.9438" lon="4.7251">
        <ele>174</ele>
        <time>2018-03-24T12:14:46Z</time>
      </trkpt>
      <trkpt lat="45.94377" lon="4.72502">
        <ele>174</ele>
        <time>2018-03-24T12:14:47Z</time>
      </trkpt>
      <trkpt lat="45.94375" lon="4.72494">
        <ele>173</ele>
        <time>2018-03-24T12:14:48Z</time>
      </trkpt>
      <trkpt lat="45.94373" lon="4.72488">
        <ele>173</ele>
        <time>2018-03-24T12:14:49Z</time>
      </trkpt>
      <trkpt lat="45.9437" lon="4.72481">
        <ele>173</ele>
        <time>2018-03-24T12:14:50Z</time>
      </trkpt>
      <trkpt lat="45.94368" lon="4.72475">
        <ele>173</ele>
        <time>2018-03-24T12:14:51Z</time>
      </trkpt>
      <trkpt lat="45.94365" lon="4.72469">
        <ele>173</ele>
        <time>2018-03-24T12:14:52Z</time>
      </trkpt>
      <trkpt lat="45.94363" lon="4.72463">
        <ele>173</ele>
        <time>2018-03-24T12:14:53Z</time>
      </trkpt>
      <trkpt lat="45.94361" lon="4.72457">
        <ele>173</ele>
        <time>2018-03-24T12:14:54Z</time>
      </trkpt>
      <trkpt lat="45.94357" lon="4.72451">
        <ele>173</ele>
        <time>2018-03-24T12:14:55Z</time>
      </trkpt>
      <trkpt lat="45.94354" lon="4.72445">
        <ele>173</ele>
        <time>2018-03-24T12:14:56Z</time>
      </trkpt>
      <trkpt lat="45.94352" lon="4.72439">
        <ele>173</ele>
        <time>2018-03-24T12:14:57Z</time>
      </trkpt>
      <trkpt lat="45.9435" lon="4.72432">
        <ele>173</ele>
        <time>2018-03-24T12:14:58Z</time>
      </trkpt>
      <trkpt lat="45.94346" lon="4.72426">
        <ele>173</ele>
        <time>2018-03-24T12:14:59Z</time>
      </trkpt>
      <trkpt lat="45.94344" lon="4.72419">
        <ele>173</ele>
        <time>2018-03-24T12:15:00Z</time>
      </trkpt>
      <trkpt lat="45.9434" lon="4.72414">
        <ele>173</ele>
        <time>2018-03-24T12:15:01Z</time>
      </trkpt>
      <trkpt lat="45.94336" lon="4.72407">
        <ele>173</ele>
        <time>2018-03-24T12:15:02Z</time>
      </trkpt>
      <trkpt lat="45.94333" lon="4.724">
        <ele>173</ele>
        <time>2018-03-24T12:15:03Z</time>
      </trkpt>
      <trkpt lat="45.9433" lon="4.72392">
        <ele>172</ele>
        <time>2018-03-24T12:15:04Z</time>
      </trkpt>
      <trkpt lat="45.94328" lon="4.72385">
        <ele>172</ele>
        <time>2018-03-24T12:15:05Z</time>
      </trkpt>
      <trkpt lat="45.94325" lon="4.72377">
        <ele>172</ele>
        <time>2018-03-24T12:15:06Z</time>
      </trkpt>
      <trkpt lat="45.94322" lon="4.72371">
        <ele>172</ele>
        <time>2018-03-24T12:15:07Z</time>
      </trkpt>
      <trkpt lat="45.94319" lon="4.72364">
        <ele>172</ele>
        <time>2018-03-24T12:15:08Z</time>
      </trkpt>
      <trkpt lat="45.94316" lon="4.72355">
        <ele>172</ele>
        <time>2018-03-24T12:15:09Z</time>
      </trkpt>
      <trkpt lat="45.94312" lon="4.72348">
        <ele>172</ele>
        <time>2018-03-24T12:15:10Z</time>
      </trkpt>
      <trkpt lat="45.9431" lon="4.72342">
        <ele>172</ele>
        <time>2018-03-24T12:15:11Z</time>
      </trkpt>
      <trkpt lat="45.94307" lon="4.72336">
        <ele>172</ele>
        <time>2018-03-24T12:15:12Z</time>
      </trkpt>
      <trkpt lat="45.94304" lon="4.72331">
        <ele>171</ele>
        <time>2018-03-24T12:15:13Z</time>
      </trkpt>
      <trkpt lat="45.94303" lon="4.72329">
        <ele>171</ele>
        <time>2018-03-24T12:15:14Z</time>
      </trkpt>
      <trkpt lat="45.94299" lon="4.72318">
        <ele>171</ele>
        <time>2018-03-24T12:15:15Z</time>
      </trkpt>
      <trkpt lat="45.94297" lon="4.72313">
        <ele>171</ele>
        <time>2018-03-24T12:15:16Z</time>
      </trkpt>
      <trkpt lat="45.94294" lon="4.72306">
        <ele>171</ele>
        <time>2018-03-24T12:15:17Z</time>
      </trkpt>
      <trkpt lat="45.94292" lon="4.72299">
        <ele>171</ele>
        <time>2018-03-24T12:15:18Z</time>
      </trkpt>
      <trkpt lat="45.94288" lon="4.72293">
        <ele>171</ele>
        <time>2018-03-24T12:15:19Z</time>
      </trkpt>
      <trkpt lat="45.94285" lon="4.72284">
        <ele>171</ele>
        <time>2018-03-24T12:15:20Z</time>
      </trkpt>
      <trkpt lat="45.94282" lon="4.72277">
        <ele>171</ele>
        <time>2018-03-24T12:15:21Z</time>
      </trkpt>
      <trkpt lat="45.94277" lon="4.72272">
        <ele>171</ele>
        <time>2018-03-24T12:15:22Z</time>
      </trkpt>
      <trkpt lat="45.94273" lon="4.72268">
        <ele>171</ele>
        <time>2018-03-24T12:15:23Z</time>
      </trkpt>
      <trkpt lat="45.94269" lon="4.72268">
        <ele>171</ele>
        <time>2018-03-24T12:15:24Z</time>
      </trkpt>
      <trkpt lat="45.94264" lon="4.72269">
        <ele>171</ele>
        <time>2018-03-24T12:15:25Z</time>
      </trkpt>
      <trkpt lat="45.94258" lon="4.72271">
        <ele>171</ele>
        <time>2018-03-24T12:15:26Z</time>
      </trkpt>
      <trkpt lat="45.94254" lon="4.72272">
        <ele>171</ele>
        <time>2018-03-24T12:15:27Z</time>
      </trkpt>
      <trkpt lat="45.94249" lon="4.72273">
        <ele>171</ele>
        <time>2018-03-24T12:15:28Z</time>
      </trkpt>
      <trkpt lat="45.94245" lon="4.72276">
        <ele>171</ele>
        <time>2018-03-24T12:15:29Z</time>
      </trkpt>
      <trkpt lat="45.94241" lon="4.72279">
        <ele>171</ele>
        <time>2018-03-24T12:15:30Z</time>
      </trkpt>
      <trkpt lat="45.94236" lon="4.72281">
        <ele>171</ele>
        <time>2018-03-24T12:15:31Z</time>
      </trkpt>
      <trkpt lat="45.9423" lon="4.72283">
        <ele>171</ele>
        <time>2018-03-24T12:15:32Z</time>
      </trkpt>
      <trkpt lat="45.94225" lon="4.72283">
        <ele>171</ele>
        <time>2018-03-24T12:15:33Z</time>
      </trkpt>
      <trkpt lat="45.9422" lon="4.72285">
        <ele>171</ele>
        <time>2018-03-24T12:15:34Z</time>
      </trkpt>
      <trkpt lat="45.94215" lon="4.72286">
        <ele>171</ele>
        <time>2018-03-24T12:15:35Z</time>
      </trkpt>
      <trkpt lat="45.94209" lon="4.72287">
        <ele>171</ele>
        <time>2018-03-24T12:15:36Z</time>
      </trkpt>
      <trkpt lat="45.94204" lon="4.72286">
        <ele>171</ele>
        <time>2018-03-24T12:15:37Z</time>
      </trkpt>
      <trkpt lat="45.94198" lon="4.72287">
        <ele>171</ele>
        <time>2018-03-24T12:15:38Z</time>
      </trkpt>
      <trkpt lat="45.94193" lon="4.72286">
        <ele>171</ele>
        <time>2018-03-24T12:15:39Z</time>
      </trkpt>
      <trkpt lat="45.94188" lon="4.72286">
        <ele>171</ele>
        <time>2018-03-24T12:15:40Z</time>
      </trkpt>
      <trkpt lat="45.94182" lon="4.72286">
        <ele>171</ele>
        <time>2018-03-24T12:15:41Z</time>
      </trkpt>
      <trkpt lat="45.94177" lon="4.72287">
        <ele>171</ele>
        <time>2018-03-24T12:15:42Z</time>
      </trkpt>
      <trkpt lat="45.94173" lon="4.72287">
        <ele>171</ele>
        <time>2018-03-24T12:15:43Z</time>
      </trkpt>
      <trkpt lat="45.94164" lon="4.72285">
        <ele>171</ele>
        <time>2018-03-24T12:15:45Z</time>
      </trkpt>
      <trkpt lat="45.94159" lon="4.72283">
        <ele>171</ele>
        <time>2018-03-24T12:15:46Z</time>
      </trkpt>
      <trkpt lat="45.94154" lon="4.72282">
        <ele>171</ele>
        <time>2018-03-24T12:15:47Z</time>
      </trkpt>
      <trkpt lat="45.94149" lon="4.72282">
        <ele>171</ele>
        <time>2018-03-24T12:15:48Z</time>
      </trkpt>
      <trkpt lat="45.94145" lon="4.7228">
        <ele>171</ele>
        <time>2018-03-24T12:15:49Z</time>
      </trkpt>
      <trkpt lat="45.9414" lon="4.72278">
        <ele>171</ele>
        <time>2018-03-24T12:15:50Z</time>
      </trkpt>
      <trkpt lat="45.94135" lon="4.72277">
        <ele>171</ele>
        <time>2018-03-24T12:15:51Z</time>
      </trkpt>
      <trkpt lat="45.94131" lon="4.72274">
        <ele>171</ele>
        <time>2018-03-24T12:15:52Z</time>
      </trkpt>
      <trkpt lat="45.94127" lon="4.72272">
        <ele>171</ele>
        <time>2018-03-24T12:15:53Z</time>
      </trkpt>
      <trkpt lat="45.94122" lon="4.72269">
        <ele>171</ele>
        <time>2018-03-24T12:15:54Z</time>
      </trkpt>
      <trkpt lat="45.94117" lon="4.72267">
        <ele>171</ele>
        <time>2018-03-24T12:15:55Z</time>
      </trkpt>
      <trkpt lat="45.94112" lon="4.72265">
        <ele>171</ele>
        <time>2018-03-24T12:15:56Z</time>
      </trkpt>
      <trkpt lat="45.94108" lon="4.72263">
        <ele>171</ele>
        <time>2018-03-24T12:15:57Z</time>
      </trkpt>
      <trkpt lat="45.94102" lon="4.72263">
        <ele>171</ele>
        <time>2018-03-24T12:15:58Z</time>
      </trkpt>
      <trkpt lat="45.94097" lon="4.72262">
        <ele>171</ele>
        <time>2018-03-24T12:15:59Z</time>
      </trkpt>
      <trkpt lat="45.94092" lon="4.72262">
        <ele>171</ele>
        <time>2018-03-24T12:16:00Z</time>
      </trkpt>
      <trkpt lat="45.94087" lon="4.72262">
        <ele>171</ele>
        <time>2018-03-24T12:16:01Z</time>
      </trkpt>
      <trkpt lat="45.94082" lon="4.72264">
        <ele>171</ele>
        <time>2018-03-24T12:16:02Z</time>
      </trkpt>
      <trkpt lat="45.94077" lon="4.72266">
        <ele>171</ele>
        <time>2018-03-24T12:16:03Z</time>
      </trkpt>
      <trkpt lat="45.94072" lon="4.7227">
        <ele>171</ele>
        <time>2018-03-24T12:16:04Z</time>
      </trkpt>
      <trkpt lat="45.94067" lon="4.72274">
        <ele>171</ele>
        <time>2018-03-24T12:16:05Z</time>
      </trkpt>
      <trkpt lat="45.94064" lon="4.72277">
        <ele>171</ele>
        <time>2018-03-24T12:16:06Z</time>
      </trkpt>
      <trkpt lat="45.9406" lon="4.72282">
        <ele>171</ele>
        <time>2018-03-24T12:16:07Z</time>
      </trkpt>
      <trkpt lat="45.94056" lon="4.72287">
        <ele>171</ele>
        <time>2018-03-24T12:16:08Z</time>
      </trkpt>
      <trkpt lat="45.94051" lon="4.72291">
        <ele>171</ele>
        <time>2018-03-24T12:16:09Z</time>
      </trkpt>
      <trkpt lat="45.94047" lon="4.72296">
        <ele>171</ele>
        <time>2018-03-24T12:16:10Z</time>
      </trkpt>
      <trkpt lat="45.94043" lon="4.723">
        <ele>171</ele>
        <time>2018-03-24T12:16:11Z</time>
      </trkpt>
      <trkpt lat="45.94039" lon="4.72305">
        <ele>171</ele>
        <time>2018-03-24T12:16:12Z</time>
      </trkpt>
      <trkpt lat="45.94035" lon="4.7231">
        <ele>171</ele>
        <time>2018-03-24T12:16:13Z</time>
      </trkpt>
      <trkpt lat="45.9403" lon="4.72315">
        <ele>171</ele>
        <time>2018-03-24T12:16:14Z</time>
      </trkpt>
      <trkpt lat="45.94026" lon="4.7232">
        <ele>171</ele>
        <time>2018-03-24T12:16:15Z</time>
      </trkpt>
      <trkpt lat="45.94021" lon="4.72326">
        <ele>171</ele>
        <time>2018-03-24T12:16:16Z</time>
      </trkpt>
      <trkpt lat="45.94016" lon="4.72332">
        <ele>171</ele>
        <time>2018-03-24T12:16:17Z</time>
      </trkpt>
      <trkpt lat="45.94012" lon="4.72339">
        <ele>171</ele>
        <time>2018-03-24T12:16:18Z</time>
      </trkpt>
      <trkpt lat="45.94008" lon="4.72344">
        <ele>171</ele>
        <time>2018-03-24T12:16:19Z</time>
      </trkpt>
      <trkpt lat="45.94003" lon="4.72348">
        <ele>171</ele>
        <time>2018-03-24T12:16:20Z</time>
      </trkpt>
      <trkpt lat="45.93999" lon="4.72354">
        <ele>171</ele>
        <time>2018-03-24T12:16:21Z</time>
      </trkpt>
      <trkpt lat="45.93996" lon="4.72359">
        <ele>171</ele>
        <time>2018-03-24T12:16:22Z</time>
      </trkpt>
      <trkpt lat="45.93992" lon="4.72366">
        <ele>171</ele>
        <time>2018-03-24T12:16:23Z</time>
      </trkpt>
      <trkpt lat="45.93988" lon="4.7237">
        <ele>171</ele>
        <time>2018-03-24T12:16:24Z</time>
      </trkpt>
      <trkpt lat="45.93984" lon="4.72376">
        <ele>171</ele>
        <time>2018-03-24T12:16:25Z</time>
      </trkpt>
      <trkpt lat="45.9398" lon="4.72382">
        <ele>171</ele>
        <time>2018-03-24T12:16:26Z</time>
      </trkpt>
      <trkpt lat="45.93976" lon="4.72386">
        <ele>171</ele>
        <time>2018-03-24T12:16:27Z</time>
      </trkpt>
      <trkpt lat="45.93972" lon="4.72391">
        <ele>171</ele>
        <time>2018-03-24T12:16:28Z</time>
      </trkpt>
      <trkpt lat="45.93968" lon="4.72396">
        <ele>171</ele>
        <time>2018-03-24T12:16:29Z</time>
      </trkpt>
      <trkpt lat="45.93964" lon="4.724">
        <ele>171</ele>
        <time>2018-03-24T12:16:30Z</time>
      </trkpt>
      <trkpt lat="45.9396" lon="4.72405">
        <ele>171</ele>
        <time>2018-03-24T12:16:31Z</time>
      </trkpt>
      <trkpt lat="45.93956" lon="4.7241">
        <ele>171</ele>
        <time>2018-03-24T12:16:32Z</time>
      </trkpt>
      <trkpt lat="45.93952" lon="4.72414">
        <ele>171</ele>
        <time>2018-03-24T12:16:33Z</time>
      </trkpt>
      <trkpt lat="45.93948" lon="4.72419">
        <ele>171</ele>
        <time>2018-03-24T12:16:34Z</time>
      </trkpt>
      <trkpt lat="45.93944" lon="4.72423">
        <ele>171</ele>
        <time>2018-03-24T12:16:35Z</time>
      </trkpt>
      <trkpt lat="45.93941" lon="4.72429">
        <ele>171</ele>
        <time>2018-03-24T12:16:36Z</time>
      </trkpt>
      <trkpt lat="45.93937" lon="4.72433">
        <ele>171</ele>
        <time>2018-03-24T12:16:37Z</time>
      </trkpt>
      <trkpt lat="45.93934" lon="4.72438">
        <ele>171</ele>
        <time>2018-03-24T12:16:38Z</time>
      </trkpt>
      <trkpt lat="45.9393" lon="4.72443">
        <ele>171</ele>
        <time>2018-03-24T12:16:39Z</time>
      </trkpt>
      <trkpt lat="45.93926" lon="4.72447">
        <ele>171</ele>
        <time>2018-03-24T12:16:40Z</time>
      </trkpt>
      <trkpt lat="45.93922" lon="4.72452">
        <ele>171</ele>
        <time>2018-03-24T12:16:41Z</time>
      </trkpt>
      <trkpt lat="45.93919" lon="4.72457">
        <ele>171</ele>
        <time>2018-03-24T12:16:42Z</time>
      </trkpt>
      <trkpt lat="45.93915" lon="4.72461">
        <ele>172</ele>
        <time>2018-03-24T12:16:43Z</time>
      </trkpt>
      <trkpt lat="45.93911" lon="4.72466">
        <ele>172</ele>
        <time>2018-03-24T12:16:44Z</time>
      </trkpt>
      <trkpt lat="45.93907" lon="4.7247">
        <ele>172</ele>
        <time>2018-03-24T12:16:45Z</time>
      </trkpt>
      <trkpt lat="45.93903" lon="4.72474">
        <ele>172</ele>
        <time>2018-03-24T12:16:46Z</time>
      </trkpt>
      <trkpt lat="45.93899" lon="4.72479">
        <ele>172</ele>
        <time>2018-03-24T12:16:47Z</time>
      </trkpt>
      <trkpt lat="45.93896" lon="4.72484">
        <ele>172</ele>
        <time>2018-03-24T12:16:48Z</time>
      </trkpt>
      <trkpt lat="45.93892" lon="4.72489">
        <ele>172</ele>
        <time>2018-03-24T12:16:49Z</time>
      </trkpt>
      <trkpt lat="45.93889" lon="4.72494">
        <ele>172</ele>
        <time>2018-03-24T12:16:50Z</time>
      </trkpt>
      <trkpt lat="45.93886" lon="4.72498">
        <ele>172</ele>
        <time>2018-03-24T12:16:51Z</time>
      </trkpt>
      <trkpt lat="45.93883" lon="4.72504">
        <ele>173</ele>
        <time>2018-03-24T12:16:52Z</time>
      </trkpt>
      <trkpt lat="45.93878" lon="4.72507">
        <ele>173</ele>
        <time>2018-03-24T12:16:53Z</time>
      </trkpt>
      <trkpt lat="45.93874" lon="4.72511">
        <ele>173</ele>
        <time>2018-03-24T12:16:54Z</time>
      </trkpt>
      <trkpt lat="45.93869" lon="4.72511">
        <ele>173</ele>
        <time>2018-03-24T12:16:55Z</time>
      </trkpt>
      <trkpt lat="45.93864" lon="4.72511">
        <ele>173</ele>
        <time>2018-03-24T12:16:56Z</time>
      </trkpt>
      <trkpt lat="45.93859" lon="4.7251">
        <ele>173</ele>
        <time>2018-03-24T12:16:57Z</time>
      </trkpt>
      <trkpt lat="45.93853" lon="4.72507">
        <ele>173</ele>
        <time>2018-03-24T12:16:58Z</time>
      </trkpt>
      <trkpt lat="45.93847" lon="4.72502">
        <ele>174</ele>
        <time>2018-03-24T12:17:04Z</time>
      </trkpt>
      <trkpt lat="45.93833" lon="4.72488">
        <ele>173</ele>
        <time>2018-03-24T12:17:05Z</time>
      </trkpt>
      <trkpt lat="45.93824" lon="4.72477">
        <ele>173</ele>
        <time>2018-03-24T12:17:06Z</time>
      </trkpt>
      <trkpt lat="45.93819" lon="4.72477">
        <ele>172</ele>
        <time>2018-03-24T12:17:07Z</time>
      </trkpt>
      <trkpt lat="45.93815" lon="4.72474">
        <ele>172</ele>
        <time>2018-03-24T12:17:08Z</time>
      </trkpt>
      <trkpt lat="45.93809" lon="4.72469">
        <ele>172</ele>
        <time>2018-03-24T12:17:10Z</time>
      </trkpt>
      <trkpt lat="45.93806" lon="4.72458">
        <ele>172</ele>
        <time>2018-03-24T12:17:11Z</time>
      </trkpt>
      <trkpt lat="45.93804" lon="4.72454">
        <ele>172</ele>
        <time>2018-03-24T12:17:12Z</time>
      </trkpt>
      <trkpt lat="45.93797" lon="4.7245">
        <ele>172</ele>
        <time>2018-03-24T12:17:13Z</time>
      </trkpt>
      <trkpt lat="45.93791" lon="4.72446">
        <ele>172</ele>
        <time>2018-03-24T12:17:14Z</time>
      </trkpt>
      <trkpt lat="45.93787" lon="4.72441">
        <ele>172</ele>
        <time>2018-03-24T12:17:15Z</time>
      </trkpt>
      <trkpt lat="45.9378" lon="4.72438">
        <ele>172</ele>
        <time>2018-03-24T12:17:16Z</time>
      </trkpt>
      <trkpt lat="45.93775" lon="4.72434">
        <ele>171</ele>
        <time>2018-03-24T12:17:17Z</time>
      </trkpt>
      <trkpt lat="45.9377" lon="4.72431">
        <ele>171</ele>
        <time>2018-03-24T12:17:18Z</time>
      </trkpt>
      <trkpt lat="45.93766" lon="4.72427">
        <ele>171</ele>
        <time>2018-03-24T12:17:19Z</time>
      </trkpt>
      <trkpt lat="45.9376" lon="4.72423">
        <ele>171</ele>
        <time>2018-03-24T12:17:20Z</time>
      </trkpt>
      <trkpt lat="45.93757" lon="4.72419">
        <ele>171</ele>
        <time>2018-03-24T12:17:21Z</time>
      </trkpt>
      <trkpt lat="45.93751" lon="4.72411">
        <ele>171</ele>
        <time>2018-03-24T12:17:23Z</time>
      </trkpt>
      <trkpt lat="45.93748" lon="4.72406">
        <ele>171</ele>
        <time>2018-03-24T12:17:24Z</time>
      </trkpt>
      <trkpt lat="45.93744" lon="4.72401">
        <ele>171</ele>
        <time>2018-03-24T12:17:25Z</time>
      </trkpt>
      <trkpt lat="45.93739" lon="4.72395">
        <ele>171</ele>
        <time>2018-03-24T12:17:26Z</time>
      </trkpt>
      <trkpt lat="45.93732" lon="4.72388">
        <ele>171</ele>
        <time>2018-03-24T12:17:28Z</time>
      </trkpt>
      <trkpt lat="45.93728" lon="4.72385">
        <ele>171</ele>
        <time>2018-03-24T12:17:29Z</time>
      </trkpt>
      <trkpt lat="45.93724" lon="4.7238">
        <ele>171</ele>
        <time>2018-03-24T12:17:30Z</time>
      </trkpt>
      <trkpt lat="45.9372" lon="4.72377">
        <ele>171</ele>
        <time>2018-03-24T12:17:31Z</time>
      </trkpt>
      <trkpt lat="45.93716" lon="4.72372">
        <ele>172</ele>
        <time>2018-03-24T12:17:32Z</time>
      </trkpt>
      <trkpt lat="45.93711" lon="4.72368">
        <ele>172</ele>
        <time>2018-03-24T12:17:33Z</time>
      </trkpt>
      <trkpt lat="45.93706" lon="4.72364">
        <ele>171</ele>
        <time>2018-03-24T12:17:34Z</time>
      </trkpt>
      <trkpt lat="45.93701" lon="4.72359">
        <ele>171</ele>
        <time>2018-03-24T12:17:35Z</time>
      </trkpt>
      <trkpt lat="45.93695" lon="4.72352">
        <ele>171</ele>
        <time>2018-03-24T12:17:39Z</time>
      </trkpt>
      <trkpt lat="45.93688" lon="4.72343">
        <ele>171</ele>
        <time>2018-03-24T12:17:40Z</time>
      </trkpt>
      <trkpt lat="45.93682" lon="4.72338">
        <ele>171</ele>
        <time>2018-03-24T12:17:41Z</time>
      </trkpt>
      <trkpt lat="45.93677" lon="4.72333">
        <ele>171</ele>
        <time>2018-03-24T12:17:42Z</time>
      </trkpt>
      <trkpt lat="45.93673" lon="4.72328">
        <ele>171</ele>
        <time>2018-03-24T12:17:44Z</time>
      </trkpt>
      <trkpt lat="45.93665" lon="4.7232">
        <ele>172</ele>
        <time>2018-03-24T12:17:45Z</time>
      </trkpt>
      <trkpt lat="45.9366" lon="4.72318">
        <ele>172</ele>
        <time>2018-03-24T12:17:46Z</time>
      </trkpt>
      <trkpt lat="45.93657" lon="4.72313">
        <ele>172</ele>
        <time>2018-03-24T12:17:47Z</time>
      </trkpt>
      <trkpt lat="45.93653" lon="4.7231">
        <ele>172</ele>
        <time>2018-03-24T12:17:48Z</time>
      </trkpt>
      <trkpt lat="45.93649" lon="4.72305">
        <ele>172</ele>
        <time>2018-03-24T12:17:49Z</time>
      </trkpt>
      <trkpt lat="45.93645" lon="4.72299">
        <ele>172</ele>
        <time>2018-03-24T12:17:50Z</time>
      </trkpt>
      <trkpt lat="45.9364" lon="4.72295">
        <ele>172</ele>
        <time>2018-03-24T12:17:51Z</time>
      </trkpt>
      <trkpt lat="45.93635" lon="4.72292">
        <ele>172</ele>
        <time>2018-03-24T12:17:52Z</time>
      </trkpt>
      <trkpt lat="45.93632" lon="4.72288">
        <ele>172</ele>
        <time>2018-03-24T12:17:53Z</time>
      </trkpt>
      <trkpt lat="45.93629" lon="4.72283">
        <ele>172</ele>
        <time>2018-03-24T12:17:54Z</time>
      </trkpt>
      <trkpt lat="45.93626" lon="4.72278">
        <ele>172</ele>
        <time>2018-03-24T12:17:55Z</time>
      </trkpt>
      <trkpt lat="45.93621" lon="4.72273">
        <ele>172</ele>
        <time>2018-03-24T12:17:56Z</time>
      </trkpt>
      <trkpt lat="45.93618" lon="4.7227">
        <ele>172</ele>
        <time>2018-03-24T12:17:57Z</time>
      </trkpt>
      <trkpt lat="45.93613" lon="4.72266">
        <ele>172</ele>
        <time>2018-03-24T12:17:58Z</time>
      </trkpt>
      <trkpt lat="45.93609" lon="4.72263">
        <ele>172</ele>
        <time>2018-03-24T12:17:59Z</time>
      </trkpt>
      <trkpt lat="45.93602" lon="4.72257">
        <ele>173</ele>
        <time>2018-03-24T12:18:01Z</time>
      </trkpt>
      <trkpt lat="45.93598" lon="4.72253">
        <ele>173</ele>
        <time>2018-03-24T12:18:02Z</time>
      </trkpt>
      <trkpt lat="45.9359" lon="4.72246">
        <ele>173</ele>
        <time>2018-03-24T12:18:04Z</time>
      </trkpt>
      <trkpt lat="45.93585" lon="4.72243">
        <ele>173</ele>
        <time>2018-03-24T12:18:05Z</time>
      </trkpt>
      <trkpt lat="45.93582" lon="4.72239">
        <ele>173</ele>
        <time>2018-03-24T12:18:06Z</time>
      </trkpt>
      <trkpt lat="45.93577" lon="4.72234">
        <ele>173</ele>
        <time>2018-03-24T12:18:07Z</time>
      </trkpt>
      <trkpt lat="45.93571" lon="4.72225">
        <ele>173</ele>
        <time>2018-03-24T12:18:09Z</time>
      </trkpt>
      <trkpt lat="45.93569" lon="4.72224">
        <ele>173</ele>
        <time>2018-03-24T12:18:10Z</time>
      </trkpt>
      <trkpt lat="45.93561" lon="4.7222">
        <ele>173</ele>
        <time>2018-03-24T12:18:15Z</time>
      </trkpt>
      <trkpt lat="45.9356" lon="4.7222">
        <ele>173</ele>
        <time>2018-03-24T12:18:16Z</time>
      </trkpt>
      <trkpt lat="45.93552" lon="4.72216">
        <ele>173</ele>
        <time>2018-03-24T12:18:44Z</time>
      </trkpt>
      <trkpt lat="45.93551" lon="4.72217">
        <ele>173</ele>
        <time>2018-03-24T12:18:45Z</time>
      </trkpt>
      <trkpt lat="45.93546" lon="4.72228">
        <ele>172</ele>
        <time>2018-03-24T12:18:49Z</time>
      </trkpt>
      <trkpt lat="45.93544" lon="4.72231">
        <ele>172</ele>
        <time>2018-03-24T12:18:50Z</time>
      </trkpt>
      <trkpt lat="45.93541" lon="4.72238">
        <ele>172</ele>
        <time>2018-03-24T12:18:52Z</time>
      </trkpt>
      <trkpt lat="45.93539" lon="4.72242">
        <ele>172</ele>
        <time>2018-03-24T12:18:53Z</time>
      </trkpt>
      <trkpt lat="45.93534" lon="4.72252">
        <ele>172</ele>
        <time>2018-03-24T12:18:54Z</time>
      </trkpt>
      <trkpt lat="45.93533" lon="4.72254">
        <ele>172</ele>
        <time>2018-03-24T12:18:55Z</time>
      </trkpt>
      <trkpt lat="45.93532" lon="4.72257">
        <ele>172</ele>
        <time>2018-03-24T12:18:56Z</time>
      </trkpt>
      <trkpt lat="45.93528" lon="4.72265">
        <ele>172</ele>
        <time>2018-03-24T12:18:57Z</time>
      </trkpt>
      <trkpt lat="45.93523" lon="4.72275">
        <ele>172</ele>
        <time>2018-03-24T12:18:59Z</time>
      </trkpt>
      <trkpt lat="45.93521" lon="4.7228">
        <ele>172</ele>
        <time>2018-03-24T12:19:00Z</time>
      </trkpt>
      <trkpt lat="45.93518" lon="4.72286">
        <ele>172</ele>
        <time>2018-03-24T12:19:01Z</time>
      </trkpt>
      <trkpt lat="45.93516" lon="4.72292">
        <ele>172</ele>
        <time>2018-03-24T12:19:02Z</time>
      </trkpt>
      <trkpt lat="45.93513" lon="4.72297">
        <ele>172</ele>
        <time>2018-03-24T12:19:03Z</time>
      </trkpt>
      <trkpt lat="45.93509" lon="4.72302">
        <ele>172</ele>
        <time>2018-03-24T12:19:04Z</time>
      </trkpt>
      <trkpt lat="45.93505" lon="4.72306">
        <ele>173</ele>
        <time>2018-03-24T12:19:05Z</time>
      </trkpt>
      <trkpt lat="45.93502" lon="4.72312">
        <ele>173</ele>
        <time>2018-03-24T12:19:06Z</time>
      </trkpt>
      <trkpt lat="45.93498" lon="4.72317">
        <ele>173</ele>
        <time>2018-03-24T12:19:07Z</time>
      </trkpt>
      <trkpt lat="45.93495" lon="4.72326">
        <ele>173</ele>
        <time>2018-03-24T12:19:08Z</time>
      </trkpt>
      <trkpt lat="45.93491" lon="4.72331">
        <ele>173</ele>
        <time>2018-03-24T12:19:09Z</time>
      </trkpt>
      <trkpt lat="45.93487" lon="4.72336">
        <ele>173</ele>
        <time>2018-03-24T12:19:10Z</time>
      </trkpt>
      <trkpt lat="45.93483" lon="4.72341">
        <ele>173</ele>
        <time>2018-03-24T12:19:11Z</time>
      </trkpt>
      <trkpt lat="45.93479" lon="4.72345">
        <ele>173</ele>
        <time>2018-03-24T12:19:12Z</time>
      </trkpt>
      <trkpt lat="45.93475" lon="4.72351">
        <ele>173</ele>
        <time>2018-03-24T12:19:13Z</time>
      </trkpt>
      <trkpt lat="45.93472" lon="4.72355">
        <ele>173</ele>
        <time>2018-03-24T12:19:14Z</time>
      </trkpt>
      <trkpt lat="45.93468" lon="4.72361">
        <ele>173</ele>
        <time>2018-03-24T12:19:15Z</time>
      </trkpt>
      <trkpt lat="45.93464" lon="4.72369">
        <ele>173</ele>
        <time>2018-03-24T12:19:16Z</time>
      </trkpt>
      <trkpt lat="45.9346" lon="4.72375">
        <ele>173</ele>
        <time>2018-03-24T12:19:17Z</time>
      </trkpt>
      <trkpt lat="45.93456" lon="4.72381">
        <ele>173</ele>
        <time>2018-03-24T12:19:18Z</time>
      </trkpt>
      <trkpt lat="45.93451" lon="4.72385">
        <ele>173</ele>
        <time>2018-03-24T12:19:19Z</time>
      </trkpt>
      <trkpt lat="45.93447" lon="4.72388">
        <ele>173</ele>
        <time>2018-03-24T12:19:20Z</time>
      </trkpt>
      <trkpt lat="45.93442" lon="4.7239">
        <ele>173</ele>
        <time>2018-03-24T12:19:21Z</time>
      </trkpt>
      <trkpt lat="45.93438" lon="4.72394">
        <ele>173</ele>
        <time>2018-03-24T12:19:22Z</time>
      </trkpt>
      <trkpt lat="45.93433" lon="4.72397">
        <ele>173</ele>
        <time>2018-03-24T12:19:23Z</time>
      </trkpt>
      <trkpt lat="45.93428" lon="4.72399">
        <ele>174</ele>
        <time>2018-03-24T12:19:24Z</time>
      </trkpt>
      <trkpt lat="45.93423" lon="4.72401">
        <ele>174</ele>
        <time>2018-03-24T12:19:25Z</time>
      </trkpt>
      <trkpt lat="45.93419" lon="4.72403">
        <ele>174</ele>
        <time>2018-03-24T12:19:26Z</time>
      </trkpt>
      <trkpt lat="45.9341" lon="4.72406">
        <ele>174</ele>
        <time>2018-03-24T12:19:28Z</time>
      </trkpt>
      <trkpt lat="45.93406" lon="4.72406">
        <ele>174</ele>
        <time>2018-03-24T12:19:29Z</time>
      </trkpt>
      <trkpt lat="45.93401" lon="4.72407">
        <ele>174</ele>
        <time>2018-03-24T12:19:30Z</time>
      </trkpt>
      <trkpt lat="45.93396" lon="4.72407">
        <ele>174</ele>
        <time>2018-03-24T12:19:31Z</time>
      </trkpt>
      <trkpt lat="45.93387" lon="4.72409">
        <ele>174</ele>
        <time>2018-03-24T12:19:33Z</time>
      </trkpt>
      <trkpt lat="45.93384" lon="4.72414">
        <ele>174</ele>
        <time>2018-03-24T12:19:34Z</time>
      </trkpt>
      <trkpt lat="45.93383" lon="4.7242">
        <ele>173</ele>
        <time>2018-03-24T12:19:35Z</time>
      </trkpt>
      <trkpt lat="45.93384" lon="4.72427">
        <ele>173</ele>
        <time>2018-03-24T12:19:36Z</time>
      </trkpt>
      <trkpt lat="45.93386" lon="4.72434">
        <ele>173</ele>
        <time>2018-03-24T12:19:37Z</time>
      </trkpt>
      <trkpt lat="45.93387" lon="4.72441">
        <ele>173</ele>
        <time>2018-03-24T12:19:38Z</time>
      </trkpt>
      <trkpt lat="45.9339" lon="4.7245">
        <ele>173</ele>
        <time>2018-03-24T12:19:39Z</time>
      </trkpt>
      <trkpt lat="45.9339" lon="4.72457">
        <ele>173</ele>
        <time>2018-03-24T12:19:40Z</time>
      </trkpt>
      <trkpt lat="45.93388" lon="4.72463">
        <ele>173</ele>
        <time>2018-03-24T12:19:41Z</time>
      </trkpt>
      <trkpt lat="45.93385" lon="4.72469">
        <ele>173</ele>
        <time>2018-03-24T12:19:42Z</time>
      </trkpt>
      <trkpt lat="45.93381" lon="4.72474">
        <ele>173</ele>
        <time>2018-03-24T12:19:43Z</time>
      </trkpt>
      <trkpt lat="45.93378" lon="4.72478">
        <ele>173</ele>
        <time>2018-03-24T12:19:44Z</time>
      </trkpt>
      <trkpt lat="45.93374" lon="4.72482">
        <ele>173</ele>
        <time>2018-03-24T12:19:45Z</time>
      </trkpt>
      <trkpt lat="45.9337" lon="4.72485">
        <ele>173</ele>
        <time>2018-03-24T12:19:46Z</time>
      </trkpt>
      <trkpt lat="45.93366" lon="4.72489">
        <ele>173</ele>
        <time>2018-03-24T12:19:47Z</time>
      </trkpt>
      <trkpt lat="45.93363" lon="4.72494">
        <ele>173</ele>
        <time>2018-03-24T12:19:48Z</time>
      </trkpt>
      <trkpt lat="45.93355" lon="4.725">
        <ele>173</ele>
        <time>2018-03-24T12:19:50Z</time>
      </trkpt>
      <trkpt lat="45.93352" lon="4.72505">
        <ele>172</ele>
        <time>2018-03-24T12:19:51Z</time>
      </trkpt>
      <trkpt lat="45.93349" lon="4.7251">
        <ele>172</ele>
        <time>2018-03-24T12:19:52Z</time>
      </trkpt>
      <trkpt lat="45.93344" lon="4.72513">
        <ele>172</ele>
        <time>2018-03-24T12:19:53Z</time>
      </trkpt>
      <trkpt lat="45.93339" lon="4.72517">
        <ele>172</ele>
        <time>2018-03-24T12:19:54Z</time>
      </trkpt>
      <trkpt lat="45.93336" lon="4.72523">
        <ele>172</ele>
        <time>2018-03-24T12:19:55Z</time>
      </trkpt>
      <trkpt lat="45.93332" lon="4.72527">
        <ele>172</ele>
        <time>2018-03-24T12:19:56Z</time>
      </trkpt>
      <trkpt lat="45.93328" lon="4.72532">
        <ele>172</ele>
        <time>2018-03-24T12:19:57Z</time>
      </trkpt>
      <trkpt lat="45.93323" lon="4.72536">
        <ele>172</ele>
        <time>2018-03-24T12:19:58Z</time>
      </trkpt>
      <trkpt lat="45.93319" lon="4.7254">
        <ele>172</ele>
        <time>2018-03-24T12:19:59Z</time>
      </trkpt>
      <trkpt lat="45.93315" lon="4.72545">
        <ele>172</ele>
        <time>2018-03-24T12:20:00Z</time>
      </trkpt>
      <trkpt lat="45.93312" lon="4.72548">
        <ele>172</ele>
        <time>2018-03-24T12:20:01Z</time>
      </trkpt>
      <trkpt lat="45.93309" lon="4.72553">
        <ele>172</ele>
        <time>2018-03-24T12:20:02Z</time>
      </trkpt>
      <trkpt lat="45.93305" lon="4.72558">
        <ele>172</ele>
        <time>2018-03-24T12:20:03Z</time>
      </trkpt>
      <trkpt lat="45.93301" lon="4.72562">
        <ele>172</ele>
        <time>2018-03-24T12:20:04Z</time>
      </trkpt>
      <trkpt lat="45.93297" lon="4.72567">
        <ele>172</ele>
        <time>2018-03-24T12:20:05Z</time>
      </trkpt>
      <trkpt lat="45.93293" lon="4.72572">
        <ele>172</ele>
        <time>2018-03-24T12:20:06Z</time>
      </trkpt>
      <trkpt lat="45.93288" lon="4.72576">
        <ele>172</ele>
        <time>2018-03-24T12:20:07Z</time>
      </trkpt>
      <trkpt lat="45.93281" lon="4.72583">
        <ele>171</ele>
        <time>2018-03-24T12:20:09Z</time>
      </trkpt>
      <trkpt lat="45.93276" lon="4.72587">
        <ele>170</ele>
        <time>2018-03-24T12:20:10Z</time>
      </trkpt>
      <trkpt lat="45.93272" lon="4.72593">
        <ele>170</ele>
        <time>2018-03-24T12:20:11Z</time>
      </trkpt>
      <trkpt lat="45.93268" lon="4.72597">
        <ele>170</ele>
        <time>2018-03-24T12:20:12Z</time>
      </trkpt>
      <trkpt lat="45.93265" lon="4.72601">
        <ele>170</ele>
        <time>2018-03-24T12:20:13Z</time>
      </trkpt>
      <trkpt lat="45.9326" lon="4.72605">
        <ele>170</ele>
        <time>2018-03-24T12:20:14Z</time>
      </trkpt>
      <trkpt lat="45.93256" lon="4.7261">
        <ele>170</ele>
        <time>2018-03-24T12:20:15Z</time>
      </trkpt>
      <trkpt lat="45.93253" lon="4.72614">
        <ele>170</ele>
        <time>2018-03-24T12:20:16Z</time>
      </trkpt>
      <trkpt lat="45.9325" lon="4.72618">
        <ele>170</ele>
        <time>2018-03-24T12:20:17Z</time>
      </trkpt>
      <trkpt lat="45.93246" lon="4.72624">
        <ele>170</ele>
        <time>2018-03-24T12:20:18Z</time>
      </trkpt>
      <trkpt lat="45.93242" lon="4.72628">
        <ele>170</ele>
        <time>2018-03-24T12:20:19Z</time>
      </trkpt>
      <trkpt lat="45.93238" lon="4.72632">
        <ele>170</ele>
        <time>2018-03-24T12:20:20Z</time>
      </trkpt>
      <trkpt lat="45.93234" lon="4.72637">
        <ele>170</ele>
        <time>2018-03-24T12:20:21Z</time>
      </trkpt>
      <trkpt lat="45.9323" lon="4.7264">
        <ele>170</ele>
        <time>2018-03-24T12:20:22Z</time>
      </trkpt>
      <trkpt lat="45.93227" lon="4.72645">
        <ele>170</ele>
        <time>2018-03-24T12:20:23Z</time>
      </trkpt>
      <trkpt lat="45.93223" lon="4.72649">
        <ele>170</ele>
        <time>2018-03-24T12:20:24Z</time>
      </trkpt>
      <trkpt lat="45.93219" lon="4.72652">
        <ele>170</ele>
        <time>2018-03-24T12:20:25Z</time>
      </trkpt>
      <trkpt lat="45.93215" lon="4.72657">
        <ele>170</ele>
        <time>2018-03-24T12:20:26Z</time>
      </trkpt>
      <trkpt lat="45.93211" lon="4.72663">
        <ele>170</ele>
        <time>2018-03-24T12:20:27Z</time>
      </trkpt>
      <trkpt lat="45.93208" lon="4.72668">
        <ele>169</ele>
        <time>2018-03-24T12:20:28Z</time>
      </trkpt>
      <trkpt lat="45.93204" lon="4.72673">
        <ele>169</ele>
        <time>2018-03-24T12:20:29Z</time>
      </trkpt>
      <trkpt lat="45.932" lon="4.72676">
        <ele>169</ele>
        <time>2018-03-24T12:20:30Z</time>
      </trkpt>
      <trkpt lat="45.93196" lon="4.72681">
        <ele>169</ele>
        <time>2018-03-24T12:20:31Z</time>
      </trkpt>
      <trkpt lat="45.93192" lon="4.72685">
        <ele>169</ele>
        <time>2018-03-24T12:20:32Z</time>
      </trkpt>
      <trkpt lat="45.93188" lon="4.72691">
        <ele>169</ele>
        <time>2018-03-24T12:20:33Z</time>
      </trkpt>
      <trkpt lat="45.93185" lon="4.72697">
        <ele>169</ele>
        <time>2018-03-24T12:20:34Z</time>
      </trkpt>
      <trkpt lat="45.93181" lon="4.72701">
        <ele>169</ele>
        <time>2018-03-24T12:20:35Z</time>
      </trkpt>
      <trkpt lat="45.93177" lon="4.72706">
        <ele>169</ele>
        <time>2018-03-24T12:20:36Z</time>
      </trkpt>
      <trkpt lat="45.93173" lon="4.72711">
        <ele>170</ele>
        <time>2018-03-24T12:20:37Z</time>
      </trkpt>
      <trkpt lat="45.93169" lon="4.72716">
        <ele>170</ele>
        <time>2018-03-24T12:20:38Z</time>
      </trkpt>
      <trkpt lat="45.93164" lon="4.72719">
        <ele>170</ele>
        <time>2018-03-24T12:20:39Z</time>
      </trkpt>
      <trkpt lat="45.9316" lon="4.72724">
        <ele>170</ele>
        <time>2018-03-24T12:20:40Z</time>
      </trkpt>
      <trkpt lat="45.93155" lon="4.72728">
        <ele>170</ele>
        <time>2018-03-24T12:20:41Z</time>
      </trkpt>
      <trkpt lat="45.93151" lon="4.72732">
        <ele>170</ele>
        <time>2018-03-24T12:20:42Z</time>
      </trkpt>
      <trkpt lat="45.93146" lon="4.72737">
        <ele>170</ele>
        <time>2018-03-24T12:20:43Z</time>
      </trkpt>
      <trkpt lat="45.93143" lon="4.72744">
        <ele>170</ele>
        <time>2018-03-24T12:20:44Z</time>
      </trkpt>
      <trkpt lat="45.93139" lon="4.7275">
        <ele>171</ele>
        <time>2018-03-24T12:20:45Z</time>
      </trkpt>
      <trkpt lat="45.93134" lon="4.72756">
        <ele>171</ele>
        <time>2018-03-24T12:20:46Z</time>
      </trkpt>
      <trkpt lat="45.9313" lon="4.7276">
        <ele>171</ele>
        <time>2018-03-24T12:20:47Z</time>
      </trkpt>
      <trkpt lat="45.93125" lon="4.72765">
        <ele>171</ele>
        <time>2018-03-24T12:20:48Z</time>
      </trkpt>
      <trkpt lat="45.93121" lon="4.72769">
        <ele>171</ele>
        <time>2018-03-24T12:20:49Z</time>
      </trkpt>
      <trkpt lat="45.93117" lon="4.72774">
        <ele>171</ele>
        <time>2018-03-24T12:20:50Z</time>
      </trkpt>
      <trkpt lat="45.93112" lon="4.7278">
        <ele>171</ele>
        <time>2018-03-24T12:20:51Z</time>
      </trkpt>
      <trkpt lat="45.93108" lon="4.72784">
        <ele>171</ele>
        <time>2018-03-24T12:20:52Z</time>
      </trkpt>
      <trkpt lat="45.93103" lon="4.72789">
        <ele>171</ele>
        <time>2018-03-24T12:20:53Z</time>
      </trkpt>
      <trkpt lat="45.93099" lon="4.72795">
        <ele>171</ele>
        <time>2018-03-24T12:20:54Z</time>
      </trkpt>
      <trkpt lat="45.93095" lon="4.72799">
        <ele>171</ele>
        <time>2018-03-24T12:20:55Z</time>
      </trkpt>
      <trkpt lat="45.9309" lon="4.72804">
        <ele>172</ele>
        <time>2018-03-24T12:20:56Z</time>
      </trkpt>
      <trkpt lat="45.93085" lon="4.72809">
        <ele>172</ele>
        <time>2018-03-24T12:20:57Z</time>
      </trkpt>
      <trkpt lat="45.93081" lon="4.72814">
        <ele>172</ele>
        <time>2018-03-24T12:20:58Z</time>
      </trkpt>
      <trkpt lat="45.93077" lon="4.72817">
        <ele>172</ele>
        <time>2018-03-24T12:20:59Z</time>
      </trkpt>
      <trkpt lat="45.93072" lon="4.7282">
        <ele>172</ele>
        <time>2018-03-24T12:21:00Z</time>
      </trkpt>
      <trkpt lat="45.93072" lon="4.72824">
        <ele>173</ele>
        <time>2018-03-24T12:21:04Z</time>
      </trkpt>
      <trkpt lat="45.93069" lon="4.72839">
        <ele>173</ele>
        <time>2018-03-24T12:21:05Z</time>
      </trkpt>
      <trkpt lat="45.93057" lon="4.72849">
        <ele>172</ele>
        <time>2018-03-24T12:21:06Z</time>
      </trkpt>
      <trkpt lat="45.9305" lon="4.72861">
        <ele>172</ele>
        <time>2018-03-24T12:21:07Z</time>
      </trkpt>
      <trkpt lat="45.93043" lon="4.72864">
        <ele>172</ele>
        <time>2018-03-24T12:21:08Z</time>
      </trkpt>
      <trkpt lat="45.93038" lon="4.72872">
        <ele>172</ele>
        <time>2018-03-24T12:21:09Z</time>
      </trkpt>
      <trkpt lat="45.93034" lon="4.72878">
        <ele>172</ele>
        <time>2018-03-24T12:21:10Z</time>
      </trkpt>
      <trkpt lat="45.93029" lon="4.72883">
        <ele>172</ele>
        <time>2018-03-24T12:21:11Z</time>
      </trkpt>
      <trkpt lat="45.93024" lon="4.72888">
        <ele>172</ele>
        <time>2018-03-24T12:21:12Z</time>
      </trkpt>
      <trkpt lat="45.9302" lon="4.72893">
        <ele>172</ele>
        <time>2018-03-24T12:21:13Z</time>
      </trkpt>
      <trkpt lat="45.93015" lon="4.72898">
        <ele>172</ele>
        <time>2018-03-24T12:21:14Z</time>
      </trkpt>
      <trkpt lat="45.93011" lon="4.72902">
        <ele>172</ele>
        <time>2018-03-24T12:21:15Z</time>
      </trkpt>
      <trkpt lat="45.93008" lon="4.72907">
        <ele>171</ele>
        <time>2018-03-24T12:21:16Z</time>
      </trkpt>
      <trkpt lat="45.93003" lon="4.72911">
        <ele>171</ele>
        <time>2018-03-24T12:21:17Z</time>
      </trkpt>
      <trkpt lat="45.92999" lon="4.72915">
        <ele>171</ele>
        <time>2018-03-24T12:21:18Z</time>
      </trkpt>
      <trkpt lat="45.92996" lon="4.7292">
        <ele>171</ele>
        <time>2018-03-24T12:21:19Z</time>
      </trkpt>
      <trkpt lat="45.92992" lon="4.72926">
        <ele>171</ele>
        <time>2018-03-24T12:21:20Z</time>
      </trkpt>
      <trkpt lat="45.92988" lon="4.72929">
        <ele>171</ele>
        <time>2018-03-24T12:21:21Z</time>
      </trkpt>
      <trkpt lat="45.92983" lon="4.72933">
        <ele>171</ele>
        <time>2018-03-24T12:21:22Z</time>
      </trkpt>
      <trkpt lat="45.92979" lon="4.72937">
        <ele>171</ele>
        <time>2018-03-24T12:21:23Z</time>
      </trkpt>
      <trkpt lat="45.92975" lon="4.72943">
        <ele>171</ele>
        <time>2018-03-24T12:21:24Z</time>
      </trkpt>
      <trkpt lat="45.92972" lon="4.72948">
        <ele>171</ele>
        <time>2018-03-24T12:21:25Z</time>
      </trkpt>
      <trkpt lat="45.92969" lon="4.72954">
        <ele>171</ele>
        <time>2018-03-24T12:21:26Z</time>
      </trkpt>
      <trkpt lat="45.92965" lon="4.72959">
        <ele>171</ele>
        <time>2018-03-24T12:21:27Z</time>
      </trkpt>
      <trkpt lat="45.92958" lon="4.72967">
        <ele>171</ele>
        <time>2018-03-24T12:21:29Z</time>
      </trkpt>
      <trkpt lat="45.92955" lon="4.72971">
        <ele>171</ele>
        <time>2018-03-24T12:21:30Z</time>
      </trkpt>
      <trkpt lat="45.9295" lon="4.72974">
        <ele>171</ele>
        <time>2018-03-24T12:21:31Z</time>
      </trkpt>
      <trkpt lat="45.92947" lon="4.72979">
        <ele>171</ele>
        <time>2018-03-24T12:21:32Z</time>
      </trkpt>
      <trkpt lat="45.92943" lon="4.72984">
        <ele>171</ele>
        <time>2018-03-24T12:21:33Z</time>
      </trkpt>
      <trkpt lat="45.92939" lon="4.72988">
        <ele>171</ele>
        <time>2018-03-24T12:21:34Z</time>
      </trkpt>
      <trkpt lat="45.92935" lon="4.72992">
        <ele>172</ele>
        <time>2018-03-24T12:21:35Z</time>
      </trkpt>
      <trkpt lat="45.92931" lon="4.72996">
        <ele>172</ele>
        <time>2018-03-24T12:21:36Z</time>
      </trkpt>
      <trkpt lat="45.92928" lon="4.73001">
        <ele>172</ele>
        <time>2018-03-24T12:21:37Z</time>
      </trkpt>
      <trkpt lat="45.92925" lon="4.73005">
        <ele>172</ele>
        <time>2018-03-24T12:21:38Z</time>
      </trkpt>
      <trkpt lat="45.9292" lon="4.7301">
        <ele>172</ele>
        <time>2018-03-24T12:21:39Z</time>
      </trkpt>
      <trkpt lat="45.92917" lon="4.73014">
        <ele>172</ele>
        <time>2018-03-24T12:21:40Z</time>
      </trkpt>
      <trkpt lat="45.92913" lon="4.73018">
        <ele>172</ele>
        <time>2018-03-24T12:21:41Z</time>
      </trkpt>
      <trkpt lat="45.9291" lon="4.73023">
        <ele>172</ele>
        <time>2018-03-24T12:21:42Z</time>
      </trkpt>
      <trkpt lat="45.92905" lon="4.73028">
        <ele>172</ele>
        <time>2018-03-24T12:21:43Z</time>
      </trkpt>
      <trkpt lat="45.92901" lon="4.73033">
        <ele>172</ele>
        <time>2018-03-24T12:21:44Z</time>
      </trkpt>
      <trkpt lat="45.92897" lon="4.73036">
        <ele>172</ele>
        <time>2018-03-24T12:21:45Z</time>
      </trkpt>
      <trkpt lat="45.92894" lon="4.73045">
        <ele>172</ele>
        <time>2018-03-24T12:21:46Z</time>
      </trkpt>
      <trkpt lat="45.92891" lon="4.7305">
        <ele>172</ele>
        <time>2018-03-24T12:21:47Z</time>
      </trkpt>
      <trkpt lat="45.92887" lon="4.73055">
        <ele>172</ele>
        <time>2018-03-24T12:21:48Z</time>
      </trkpt>
      <trkpt lat="45.92881" lon="4.73064">
        <ele>172</ele>
        <time>2018-03-24T12:21:50Z</time>
      </trkpt>
      <trkpt lat="45.92877" lon="4.73069">
        <ele>172</ele>
        <time>2018-03-24T12:21:51Z</time>
      </trkpt>
      <trkpt lat="45.92874" lon="4.73074">
        <ele>172</ele>
        <time>2018-03-24T12:21:52Z</time>
      </trkpt>
      <trkpt lat="45.92871" lon="4.73079">
        <ele>172</ele>
        <time>2018-03-24T12:21:53Z</time>
      </trkpt>
      <trkpt lat="45.92868" lon="4.73084">
        <ele>172</ele>
        <time>2018-03-24T12:21:54Z</time>
      </trkpt>
      <trkpt lat="45.92864" lon="4.73088">
        <ele>171</ele>
        <time>2018-03-24T12:21:55Z</time>
      </trkpt>
      <trkpt lat="45.92861" lon="4.73093">
        <ele>171</ele>
        <time>2018-03-24T12:21:56Z</time>
      </trkpt>
      <trkpt lat="45.92857" lon="4.73097">
        <ele>171</ele>
        <time>2018-03-24T12:21:57Z</time>
      </trkpt>
      <trkpt lat="45.9285" lon="4.73098">
        <ele>171</ele>
        <time>2018-03-24T12:21:59Z</time>
      </trkpt>
      <trkpt lat="45.92846" lon="4.73095">
        <ele>171</ele>
        <time>2018-03-24T12:22:00Z</time>
      </trkpt>
      <trkpt lat="45.92844" lon="4.73084">
        <ele>171</ele>
        <time>2018-03-24T12:22:02Z</time>
      </trkpt>
      <trkpt lat="45.92843" lon="4.73078">
        <ele>171</ele>
        <time>2018-03-24T12:22:03Z</time>
      </trkpt>
      <trkpt lat="45.92842" lon="4.73066">
        <ele>171</ele>
        <time>2018-03-24T12:22:05Z</time>
      </trkpt>
      <trkpt lat="45.92842" lon="4.73059">
        <ele>171</ele>
        <time>2018-03-24T12:22:06Z</time>
      </trkpt>
      <trkpt lat="45.92841" lon="4.73048">
        <ele>171</ele>
        <time>2018-03-24T12:22:07Z</time>
      </trkpt>
      <trkpt lat="45.9284" lon="4.73042">
        <ele>171</ele>
        <time>2018-03-24T12:22:08Z</time>
      </trkpt>
      <trkpt lat="45.92838" lon="4.73036">
        <ele>171</ele>
        <time>2018-03-24T12:22:09Z</time>
      </trkpt>
      <trkpt lat="45.92836" lon="4.73029">
        <ele>171</ele>
        <time>2018-03-24T12:22:10Z</time>
      </trkpt>
      <trkpt lat="45.92835" lon="4.73022">
        <ele>171</ele>
        <time>2018-03-24T12:22:11Z</time>
      </trkpt>
      <trkpt lat="45.92834" lon="4.73015">
        <ele>171</ele>
        <time>2018-03-24T12:22:12Z</time>
      </trkpt>
      <trkpt lat="45.92833" lon="4.7301">
        <ele>170</ele>
        <time>2018-03-24T12:22:13Z</time>
      </trkpt>
      <trkpt lat="45.92832" lon="4.73002">
        <ele>170</ele>
        <time>2018-03-24T12:22:14Z</time>
      </trkpt>
      <trkpt lat="45.92832" lon="4.72996">
        <ele>170</ele>
        <time>2018-03-24T12:22:15Z</time>
      </trkpt>
      <trkpt lat="45.92831" lon="4.72989">
        <ele>170</ele>
        <time>2018-03-24T12:22:16Z</time>
      </trkpt>
      <trkpt lat="45.92831" lon="4.72981">
        <ele>170</ele>
        <time>2018-03-24T12:22:17Z</time>
      </trkpt>
      <trkpt lat="45.92831" lon="4.72975">
        <ele>170</ele>
        <time>2018-03-24T12:22:18Z</time>
      </trkpt>
      <trkpt lat="45.9283" lon="4.72967">
        <ele>170</ele>
        <time>2018-03-24T12:22:19Z</time>
      </trkpt>
      <trkpt lat="45.92831" lon="4.72958">
        <ele>170</ele>
        <time>2018-03-24T12:22:20Z</time>
      </trkpt>
      <trkpt lat="45.92829" lon="4.72951">
        <ele>170</ele>
        <time>2018-03-24T12:22:21Z</time>
      </trkpt>
      <trkpt lat="45.92829" lon="4.72942">
        <ele>170</ele>
        <time>2018-03-24T12:22:22Z</time>
      </trkpt>
      <trkpt lat="45.92828" lon="4.72935">
        <ele>170</ele>
        <time>2018-03-24T12:22:23Z</time>
      </trkpt>
      <trkpt lat="45.92827" lon="4.72929">
        <ele>170</ele>
        <time>2018-03-24T12:22:24Z</time>
      </trkpt>
      <trkpt lat="45.92828" lon="4.72919">
        <ele>170</ele>
        <time>2018-03-24T12:22:25Z</time>
      </trkpt>
      <trkpt lat="45.92827" lon="4.72913">
        <ele>170</ele>
        <time>2018-03-24T12:22:26Z</time>
      </trkpt>
      <trkpt lat="45.92826" lon="4.72906">
        <ele>170</ele>
        <time>2018-03-24T12:22:27Z</time>
      </trkpt>
      <trkpt lat="45.92825" lon="4.72899">
        <ele>170</ele>
        <time>2018-03-24T12:22:28Z</time>
      </trkpt>
      <trkpt lat="45.92824" lon="4.72892">
        <ele>170</ele>
        <time>2018-03-24T12:22:29Z</time>
      </trkpt>
      <trkpt lat="45.92821" lon="4.72886">
        <ele>170</ele>
        <time>2018-03-24T12:22:30Z</time>
      </trkpt>
      <trkpt lat="45.9282" lon="4.72878">
        <ele>170</ele>
        <time>2018-03-24T12:22:31Z</time>
      </trkpt>
      <trkpt lat="45.92818" lon="4.72872">
        <ele>170</ele>
        <time>2018-03-24T12:22:32Z</time>
      </trkpt>
      <trkpt lat="45.92817" lon="4.72865">
        <ele>170</ele>
        <time>2018-03-24T12:22:33Z</time>
      </trkpt>
      <trkpt lat="45.92815" lon="4.72858">
        <ele>170</ele>
        <time>2018-03-24T12:22:34Z</time>
      </trkpt>
      <trkpt lat="45.92811" lon="4.72847">
        <ele>170</ele>
        <time>2018-03-24T12:22:36Z</time>
      </trkpt>
      <trkpt lat="45.9281" lon="4.72841">
        <ele>170</ele>
        <time>2018-03-24T12:22:37Z</time>
      </trkpt>
      <trkpt lat="45.92809" lon="4.72833">
        <ele>171</ele>
        <time>2018-03-24T12:22:38Z</time>
      </trkpt>
      <trkpt lat="45.92807" lon="4.72827">
        <ele>171</ele>
        <time>2018-03-24T12:22:39Z</time>
      </trkpt>
      <trkpt lat="45.92806" lon="4.72818">
        <ele>171</ele>
        <time>2018-03-24T12:22:40Z</time>
      </trkpt>
      <trkpt lat="45.92805" lon="4.72812">
        <ele>171</ele>
        <time>2018-03-24T12:22:41Z</time>
      </trkpt>
      <trkpt lat="45.92803" lon="4.72805">
        <ele>171</ele>
        <time>2018-03-24T12:22:42Z</time>
      </trkpt>
      <trkpt lat="45.92802" lon="4.72798">
        <ele>171</ele>
        <time>2018-03-24T12:22:43Z</time>
      </trkpt>
      <trkpt lat="45.92799" lon="4.7279">
        <ele>171</ele>
        <time>2018-03-24T12:22:44Z</time>
      </trkpt>
      <trkpt lat="45.92796" lon="4.72786">
        <ele>171</ele>
        <time>2018-03-24T12:22:45Z</time>
      </trkpt>
      <trkpt lat="45.92789" lon="4.72786">
        <ele>171</ele>
        <time>2018-03-24T12:22:47Z</time>
      </trkpt>
      <trkpt lat="45.92785" lon="4.72788">
        <ele>170</ele>
        <time>2018-03-24T12:22:48Z</time>
      </trkpt>
      <trkpt lat="45.92777" lon="4.72792">
        <ele>170</ele>
        <time>2018-03-24T12:22:50Z</time>
      </trkpt>
      <trkpt lat="45.92774" lon="4.72796">
        <ele>170</ele>
        <time>2018-03-24T12:22:51Z</time>
      </trkpt>
      <trkpt lat="45.9277" lon="4.728">
        <ele>170</ele>
        <time>2018-03-24T12:22:52Z</time>
      </trkpt>
      <trkpt lat="45.92766" lon="4.72804">
        <ele>170</ele>
        <time>2018-03-24T12:22:53Z</time>
      </trkpt>
      <trkpt lat="45.92762" lon="4.72808">
        <ele>170</ele>
        <time>2018-03-24T12:22:54Z</time>
      </trkpt>
      <trkpt lat="45.92758" lon="4.72811">
        <ele>170</ele>
        <time>2018-03-24T12:22:55Z</time>
      </trkpt>
      <trkpt lat="45.92755" lon="4.72813">
        <ele>170</ele>
        <time>2018-03-24T12:22:56Z</time>
      </trkpt>
      <trkpt lat="45.92748" lon="4.72818">
        <ele>169</ele>
        <time>2018-03-24T12:22:57Z</time>
      </trkpt>
      <trkpt lat="45.92745" lon="4.72822">
        <ele>169</ele>
        <time>2018-03-24T12:22:58Z</time>
      </trkpt>
      <trkpt lat="45.9274" lon="4.72825">
        <ele>169</ele>
        <time>2018-03-24T12:22:59Z</time>
      </trkpt>
      <trkpt lat="45.92736" lon="4.72827">
        <ele>169</ele>
        <time>2018-03-24T12:23:00Z</time>
      </trkpt>
      <trkpt lat="45.92731" lon="4.72831">
        <ele>169</ele>
        <time>2018-03-24T12:23:01Z</time>
      </trkpt>
      <trkpt lat="45.92727" lon="4.72835">
        <ele>169</ele>
        <time>2018-03-24T12:23:02Z</time>
      </trkpt>
      <trkpt lat="45.92724" lon="4.72839">
        <ele>169</ele>
        <time>2018-03-24T12:23:03Z</time>
      </trkpt>
      <trkpt lat="45.9272" lon="4.72843">
        <ele>169</ele>
        <time>2018-03-24T12:23:04Z</time>
      </trkpt>
      <trkpt lat="45.92716" lon="4.72848">
        <ele>169</ele>
        <time>2018-03-24T12:23:05Z</time>
      </trkpt>
      <trkpt lat="45.92708" lon="4.72853">
        <ele>169</ele>
        <time>2018-03-24T12:23:07Z</time>
      </trkpt>
      <trkpt lat="45.92703" lon="4.72855">
        <ele>169</ele>
        <time>2018-03-24T12:23:08Z</time>
      </trkpt>
      <trkpt lat="45.92699" lon="4.72859">
        <ele>169</ele>
        <time>2018-03-24T12:23:09Z</time>
      </trkpt>
      <trkpt lat="45.92695" lon="4.72862">
        <ele>169</ele>
        <time>2018-03-24T12:23:10Z</time>
      </trkpt>
      <trkpt lat="45.92691" lon="4.72866">
        <ele>169</ele>
        <time>2018-03-24T12:23:11Z</time>
      </trkpt>
      <trkpt lat="45.92687" lon="4.72869">
        <ele>169</ele>
        <time>2018-03-24T12:23:12Z</time>
      </trkpt>
      <trkpt lat="45.92682" lon="4.72872">
        <ele>169</ele>
        <time>2018-03-24T12:23:13Z</time>
      </trkpt>
      <trkpt lat="45.92678" lon="4.72876">
        <ele>170</ele>
        <time>2018-03-24T12:23:14Z</time>
      </trkpt>
      <trkpt lat="45.92674" lon="4.72879">
        <ele>170</ele>
        <time>2018-03-24T12:23:15Z</time>
      </trkpt>
      <trkpt lat="45.9267" lon="4.72883">
        <ele>170</ele>
        <time>2018-03-24T12:23:16Z</time>
      </trkpt>
      <trkpt lat="45.92663" lon="4.72888">
        <ele>169</ele>
        <time>2018-03-24T12:23:18Z</time>
      </trkpt>
      <trkpt lat="45.9266" lon="4.72891">
        <ele>169</ele>
        <time>2018-03-24T12:23:19Z</time>
      </trkpt>
      <trkpt lat="45.92652" lon="4.72896">
        <ele>169</ele>
        <time>2018-03-24T12:23:21Z</time>
      </trkpt>
      <trkpt lat="45.92649" lon="4.72899">
        <ele>169</ele>
        <time>2018-03-24T12:23:22Z</time>
      </trkpt>
      <trkpt lat="45.92641" lon="4.72905">
        <ele>169</ele>
        <time>2018-03-24T12:23:24Z</time>
      </trkpt>
      <trkpt lat="45.92637" lon="4.72909">
        <ele>169</ele>
        <time>2018-03-24T12:23:25Z</time>
      </trkpt>
      <trkpt lat="45.92632" lon="4.72912">
        <ele>169</ele>
        <time>2018-03-24T12:23:26Z</time>
      </trkpt>
      <trkpt lat="45.92628" lon="4.72916">
        <ele>169</ele>
        <time>2018-03-24T12:23:27Z</time>
      </trkpt>
      <trkpt lat="45.92623" lon="4.72921">
        <ele>169</ele>
        <time>2018-03-24T12:23:28Z</time>
      </trkpt>
      <trkpt lat="45.9262" lon="4.72924">
        <ele>169</ele>
        <time>2018-03-24T12:23:29Z</time>
      </trkpt>
      <trkpt lat="45.92616" lon="4.72928">
        <ele>169</ele>
        <time>2018-03-24T12:23:30Z</time>
      </trkpt>
      <trkpt lat="45.92611" lon="4.72932">
        <ele>169</ele>
        <time>2018-03-24T12:23:31Z</time>
      </trkpt>
      <trkpt lat="45.92606" lon="4.72936">
        <ele>169</ele>
        <time>2018-03-24T12:23:32Z</time>
      </trkpt>
      <trkpt lat="45.92602" lon="4.72941">
        <ele>169</ele>
        <time>2018-03-24T12:23:33Z</time>
      </trkpt>
      <trkpt lat="45.92598" lon="4.72945">
        <ele>169</ele>
        <time>2018-03-24T12:23:34Z</time>
      </trkpt>
      <trkpt lat="45.92594" lon="4.72949">
        <ele>169</ele>
        <time>2018-03-24T12:23:35Z</time>
      </trkpt>
      <trkpt lat="45.9259" lon="4.72955">
        <ele>169</ele>
        <time>2018-03-24T12:23:36Z</time>
      </trkpt>
      <trkpt lat="45.92586" lon="4.72959">
        <ele>169</ele>
        <time>2018-03-24T12:23:37Z</time>
      </trkpt>
      <trkpt lat="45.92582" lon="4.72963">
        <ele>169</ele>
        <time>2018-03-24T12:23:38Z</time>
      </trkpt>
      <trkpt lat="45.92579" lon="4.72968">
        <ele>169</ele>
        <time>2018-03-24T12:23:39Z</time>
      </trkpt>
      <trkpt lat="45.92575" lon="4.72973">
        <ele>169</ele>
        <time>2018-03-24T12:23:40Z</time>
      </trkpt>
      <trkpt lat="45.92571" lon="4.72977">
        <ele>169</ele>
        <time>2018-03-24T12:23:41Z</time>
      </trkpt>
      <trkpt lat="45.92563" lon="4.72983">
        <ele>169</ele>
        <time>2018-03-24T12:23:43Z</time>
      </trkpt>
      <trkpt lat="45.92559" lon="4.72986">
        <ele>169</ele>
        <time>2018-03-24T12:23:44Z</time>
      </trkpt>
      <trkpt lat="45.92552" lon="4.72992">
        <ele>169</ele>
        <time>2018-03-24T12:23:46Z</time>
      </trkpt>
      <trkpt lat="45.92549" lon="4.72995">
        <ele>169</ele>
        <time>2018-03-24T12:23:47Z</time>
      </trkpt>
      <trkpt lat="45.92542" lon="4.73002">
        <ele>169</ele>
        <time>2018-03-24T12:23:49Z</time>
      </trkpt>
      <trkpt lat="45.92537" lon="4.73005">
        <ele>169</ele>
        <time>2018-03-24T12:23:50Z</time>
      </trkpt>
      <trkpt lat="45.92529" lon="4.73011">
        <ele>169</ele>
        <time>2018-03-24T12:23:52Z</time>
      </trkpt>
      <trkpt lat="45.92525" lon="4.73015">
        <ele>169</ele>
        <time>2018-03-24T12:23:53Z</time>
      </trkpt>
      <trkpt lat="45.92522" lon="4.73019">
        <ele>169</ele>
        <time>2018-03-24T12:23:54Z</time>
      </trkpt>
      <trkpt lat="45.92518" lon="4.73024">
        <ele>169</ele>
        <time>2018-03-24T12:23:55Z</time>
      </trkpt>
      <trkpt lat="45.92513" lon="4.73028">
        <ele>169</ele>
        <time>2018-03-24T12:23:56Z</time>
      </trkpt>
      <trkpt lat="45.92509" lon="4.73031">
        <ele>169</ele>
        <time>2018-03-24T12:23:57Z</time>
      </trkpt>
      <trkpt lat="45.92505" lon="4.73036">
        <ele>169</ele>
        <time>2018-03-24T12:23:58Z</time>
      </trkpt>
      <trkpt lat="45.925" lon="4.73039">
        <ele>169</ele>
        <time>2018-03-24T12:23:59Z</time>
      </trkpt>
      <trkpt lat="45.92496" lon="4.73044">
        <ele>170</ele>
        <time>2018-03-24T12:24:00Z</time>
      </trkpt>
      <trkpt lat="45.92492" lon="4.73048">
        <ele>170</ele>
        <time>2018-03-24T12:24:01Z</time>
      </trkpt>
      <trkpt lat="45.92488" lon="4.7305">
        <ele>170</ele>
        <time>2018-03-24T12:24:02Z</time>
      </trkpt>
      <trkpt lat="45.92483" lon="4.73054">
        <ele>170</ele>
        <time>2018-03-24T12:24:03Z</time>
      </trkpt>
      <trkpt lat="45.92478" lon="4.73058">
        <ele>170</ele>
        <time>2018-03-24T12:24:04Z</time>
      </trkpt>
      <trkpt lat="45.92473" lon="4.73062">
        <ele>170</ele>
        <time>2018-03-24T12:24:05Z</time>
      </trkpt>
      <trkpt lat="45.9247" lon="4.73066">
        <ele>170</ele>
        <time>2018-03-24T12:24:06Z</time>
      </trkpt>
      <trkpt lat="45.92466" lon="4.7307">
        <ele>170</ele>
        <time>2018-03-24T12:24:07Z</time>
      </trkpt>
      <trkpt lat="45.92461" lon="4.73073">
        <ele>170</ele>
        <time>2018-03-24T12:24:08Z</time>
      </trkpt>
      <trkpt lat="45.92457" lon="4.73075">
        <ele>170</ele>
        <time>2018-03-24T12:24:09Z</time>
      </trkpt>
      <trkpt lat="45.9245" lon="4.73083">
        <ele>170</ele>
        <time>2018-03-24T12:24:11Z</time>
      </trkpt>
      <trkpt lat="45.92445" lon="4.73086">
        <ele>170</ele>
        <time>2018-03-24T12:24:12Z</time>
      </trkpt>
      <trkpt lat="45.92438" lon="4.73093">
        <ele>171</ele>
        <time>2018-03-24T12:24:14Z</time>
      </trkpt>
      <trkpt lat="45.92434" lon="4.73098">
        <ele>171</ele>
        <time>2018-03-24T12:24:15Z</time>
      </trkpt>
      <trkpt lat="45.92426" lon="4.73105">
        <ele>171</ele>
        <time>2018-03-24T12:24:17Z</time>
      </trkpt>
      <trkpt lat="45.92422" lon="4.73108">
        <ele>170</ele>
        <time>2018-03-24T12:24:18Z</time>
      </trkpt>
      <trkpt lat="45.92418" lon="4.73111">
        <ele>170</ele>
        <time>2018-03-24T12:24:19Z</time>
      </trkpt>
      <trkpt lat="45.92414" lon="4.73115">
        <ele>171</ele>
        <time>2018-03-24T12:24:20Z</time>
      </trkpt>
      <trkpt lat="45.92411" lon="4.7312">
        <ele>171</ele>
        <time>2018-03-24T12:24:21Z</time>
      </trkpt>
      <trkpt lat="45.92408" lon="4.73126">
        <ele>171</ele>
        <time>2018-03-24T12:24:22Z</time>
      </trkpt>
      <trkpt lat="45.92407" lon="4.73132">
        <ele>171</ele>
        <time>2018-03-24T12:24:23Z</time>
      </trkpt>
      <trkpt lat="45.92408" lon="4.73139">
        <ele>171</ele>
        <time>2018-03-24T12:24:24Z</time>
      </trkpt>
      <trkpt lat="45.92408" lon="4.73146">
        <ele>171</ele>
        <time>2018-03-24T12:24:25Z</time>
      </trkpt>
      <trkpt lat="45.92409" lon="4.73152">
        <ele>171</ele>
        <time>2018-03-24T12:24:26Z</time>
      </trkpt>
      <trkpt lat="45.92409" lon="4.73159">
        <ele>170</ele>
        <time>2018-03-24T12:24:27Z</time>
      </trkpt>
      <trkpt lat="45.92409" lon="4.73166">
        <ele>170</ele>
        <time>2018-03-24T12:24:28Z</time>
      </trkpt>
      <trkpt lat="45.92409" lon="4.73174">
        <ele>170</ele>
        <time>2018-03-24T12:24:29Z</time>
      </trkpt>
      <trkpt lat="45.92409" lon="4.7318">
        <ele>171</ele>
        <time>2018-03-24T12:24:30Z</time>
      </trkpt>
      <trkpt lat="45.92409" lon="4.73187">
        <ele>171</ele>
        <time>2018-03-24T12:24:31Z</time>
      </trkpt>
      <trkpt lat="45.92409" lon="4.73193">
        <ele>171</ele>
        <time>2018-03-24T12:24:32Z</time>
      </trkpt>
      <trkpt lat="45.92408" lon="4.732">
        <ele>171</ele>
        <time>2018-03-24T12:24:33Z</time>
      </trkpt>
      <trkpt lat="45.92409" lon="4.73207">
        <ele>171</ele>
        <time>2018-03-24T12:24:34Z</time>
      </trkpt>
      <trkpt lat="45.92409" lon="4.73215">
        <ele>171</ele>
        <time>2018-03-24T12:24:35Z</time>
      </trkpt>
      <trkpt lat="45.92409" lon="4.73221">
        <ele>171</ele>
        <time>2018-03-24T12:24:36Z</time>
      </trkpt>
      <trkpt lat="45.9241" lon="4.73226">
        <ele>171</ele>
        <time>2018-03-24T12:24:37Z</time>
      </trkpt>
      <trkpt lat="45.92411" lon="4.73235">
        <ele>171</ele>
        <time>2018-03-24T12:24:38Z</time>
      </trkpt>
      <trkpt lat="45.92412" lon="4.73245">
        <ele>171</ele>
        <time>2018-03-24T12:24:40Z</time>
      </trkpt>
      <trkpt lat="45.92412" lon="4.73251">
        <ele>171</ele>
        <time>2018-03-24T12:24:41Z</time>
      </trkpt>
      <trkpt lat="45.92414" lon="4.73263">
        <ele>171</ele>
        <time>2018-03-24T12:24:43Z</time>
      </trkpt>
      <trkpt lat="45.92415" lon="4.73269">
        <ele>171</ele>
        <time>2018-03-24T12:24:44Z</time>
      </trkpt>
      <trkpt lat="45.92416" lon="4.7328">
        <ele>171</ele>
        <time>2018-03-24T12:24:46Z</time>
      </trkpt>
      <trkpt lat="45.92417" lon="4.73286">
        <ele>171</ele>
        <time>2018-03-24T12:24:47Z</time>
      </trkpt>
      <trkpt lat="45.92418" lon="4.73298">
        <ele>171</ele>
        <time>2018-03-24T12:24:49Z</time>
      </trkpt>
      <trkpt lat="45.92418" lon="4.73304">
        <ele>171</ele>
        <time>2018-03-24T12:24:50Z</time>
      </trkpt>
      <trkpt lat="45.92419" lon="4.73315">
        <ele>171</ele>
        <time>2018-03-24T12:24:52Z</time>
      </trkpt>
      <trkpt lat="45.92419" lon="4.73321">
        <ele>171</ele>
        <time>2018-03-24T12:24:53Z</time>
      </trkpt>
      <trkpt lat="45.92421" lon="4.73333">
        <ele>171</ele>
        <time>2018-03-24T12:24:55Z</time>
      </trkpt>
      <trkpt lat="45.92422" lon="4.73339">
        <ele>171</ele>
        <time>2018-03-24T12:24:56Z</time>
      </trkpt>
      <trkpt lat="45.92423" lon="4.73351">
        <ele>171</ele>
        <time>2018-03-24T12:24:58Z</time>
      </trkpt>
      <trkpt lat="45.92424" lon="4.73359">
        <ele>171</ele>
        <time>2018-03-24T12:24:59Z</time>
      </trkpt>
      <trkpt lat="45.92425" lon="4.73366">
        <ele>172</ele>
        <time>2018-03-24T12:25:00Z</time>
      </trkpt>
      <trkpt lat="45.92426" lon="4.73372">
        <ele>172</ele>
        <time>2018-03-24T12:25:01Z</time>
      </trkpt>
      <trkpt lat="45.92428" lon="4.73384">
        <ele>172</ele>
        <time>2018-03-24T12:25:03Z</time>
      </trkpt>
      <trkpt lat="45.92429" lon="4.73391">
        <ele>172</ele>
        <time>2018-03-24T12:25:04Z</time>
      </trkpt>
      <trkpt lat="45.92431" lon="4.73398">
        <ele>172</ele>
        <time>2018-03-24T12:25:05Z</time>
      </trkpt>
      <trkpt lat="45.92433" lon="4.73404">
        <ele>172</ele>
        <time>2018-03-24T12:25:06Z</time>
      </trkpt>
      <trkpt lat="45.92439" lon="4.73413">
        <ele>172</ele>
        <time>2018-03-24T12:25:08Z</time>
      </trkpt>
      <trkpt lat="45.92443" lon="4.73414">
        <ele>172</ele>
        <time>2018-03-24T12:25:09Z</time>
      </trkpt>
      <trkpt lat="45.92447" lon="4.73417">
        <ele>173</ele>
        <time>2018-03-24T12:25:10Z</time>
      </trkpt>
      <trkpt lat="45.92452" lon="4.73419">
        <ele>173</ele>
        <time>2018-03-24T12:25:11Z</time>
      </trkpt>
      <trkpt lat="45.92458" lon="4.73425">
        <ele>173</ele>
        <time>2018-03-24T12:25:13Z</time>
      </trkpt>
      <trkpt lat="45.9246" lon="4.73429">
        <ele>173</ele>
        <time>2018-03-24T12:25:14Z</time>
      </trkpt>
      <trkpt lat="45.92463" lon="4.73434">
        <ele>173</ele>
        <time>2018-03-24T12:25:15Z</time>
      </trkpt>
      <trkpt lat="45.92465" lon="4.7344">
        <ele>173</ele>
        <time>2018-03-24T12:25:16Z</time>
      </trkpt>
      <trkpt lat="45.92468" lon="4.73447">
        <ele>173</ele>
        <time>2018-03-24T12:25:17Z</time>
      </trkpt>
      <trkpt lat="45.92469" lon="4.73454">
        <ele>173</ele>
        <time>2018-03-24T12:25:18Z</time>
      </trkpt>
      <trkpt lat="45.92469" lon="4.73461">
        <ele>173</ele>
        <time>2018-03-24T12:25:19Z</time>
      </trkpt>
      <trkpt lat="45.9247" lon="4.73468">
        <ele>173</ele>
        <time>2018-03-24T12:25:20Z</time>
      </trkpt>
      <trkpt lat="45.9247" lon="4.73475">
        <ele>173</ele>
        <time>2018-03-24T12:25:21Z</time>
      </trkpt>
      <trkpt lat="45.92471" lon="4.73484">
        <ele>173</ele>
        <time>2018-03-24T12:25:22Z</time>
      </trkpt>
      <trkpt lat="45.92471" lon="4.73492">
        <ele>173</ele>
        <time>2018-03-24T12:25:23Z</time>
      </trkpt>
      <trkpt lat="45.92471" lon="4.735">
        <ele>173</ele>
        <time>2018-03-24T12:25:24Z</time>
      </trkpt>
      <trkpt lat="45.9247" lon="4.73507">
        <ele>174</ele>
        <time>2018-03-24T12:25:25Z</time>
      </trkpt>
      <trkpt lat="45.92469" lon="4.73514">
        <ele>174</ele>
        <time>2018-03-24T12:25:26Z</time>
      </trkpt>
      <trkpt lat="45.92469" lon="4.73522">
        <ele>174</ele>
        <time>2018-03-24T12:25:27Z</time>
      </trkpt>
      <trkpt lat="45.9247" lon="4.7353">
        <ele>174</ele>
        <time>2018-03-24T12:25:28Z</time>
      </trkpt>
      <trkpt lat="45.92468" lon="4.7354">
        <ele>174</ele>
        <time>2018-03-24T12:25:30Z</time>
      </trkpt>
      <trkpt lat="45.92468" lon="4.73547">
        <ele>173</ele>
        <time>2018-03-24T12:25:31Z</time>
      </trkpt>
      <trkpt lat="45.92467" lon="4.73558">
        <ele>173</ele>
        <time>2018-03-24T12:25:33Z</time>
      </trkpt>
      <trkpt lat="45.92468" lon="4.73566">
        <ele>173</ele>
        <time>2018-03-24T12:25:34Z</time>
      </trkpt>
      <trkpt lat="45.92468" lon="4.73573">
        <ele>173</ele>
        <time>2018-03-24T12:25:35Z</time>
      </trkpt>
      <trkpt lat="45.92468" lon="4.73581">
        <ele>173</ele>
        <time>2018-03-24T12:25:36Z</time>
      </trkpt>
      <trkpt lat="45.92467" lon="4.73588">
        <ele>174</ele>
        <time>2018-03-24T12:25:37Z</time>
      </trkpt>
      <trkpt lat="45.92468" lon="4.73595">
        <ele>174</ele>
        <time>2018-03-24T12:25:38Z</time>
      </trkpt>
      <trkpt lat="45.92468" lon="4.73602">
        <ele>174</ele>
        <time>2018-03-24T12:25:39Z</time>
      </trkpt>
      <trkpt lat="45.92468" lon="4.73608">
        <ele>174</ele>
        <time>2018-03-24T12:25:40Z</time>
      </trkpt>
      <trkpt lat="45.92468" lon="4.73616">
        <ele>174</ele>
        <time>2018-03-24T12:25:41Z</time>
      </trkpt>
      <trkpt lat="45.92468" lon="4.73623">
        <ele>174</ele>
        <time>2018-03-24T12:25:42Z</time>
      </trkpt>
      <trkpt lat="45.92469" lon="4.73631">
        <ele>174</ele>
        <time>2018-03-24T12:25:43Z</time>
      </trkpt>
      <trkpt lat="45.92469" lon="4.73637">
        <ele>174</ele>
        <time>2018-03-24T12:25:44Z</time>
      </trkpt>
      <trkpt lat="45.9247" lon="4.73645">
        <ele>174</ele>
        <time>2018-03-24T12:25:45Z</time>
      </trkpt>
      <trkpt lat="45.92469" lon="4.73651">
        <ele>174</ele>
        <time>2018-03-24T12:25:46Z</time>
      </trkpt>
      <trkpt lat="45.92469" lon="4.73657">
        <ele>174</ele>
        <time>2018-03-24T12:25:47Z</time>
      </trkpt>
      <trkpt lat="45.92469" lon="4.73666">
        <ele>174</ele>
        <time>2018-03-24T12:25:48Z</time>
      </trkpt>
      <trkpt lat="45.92467" lon="4.73677">
        <ele>174</ele>
        <time>2018-03-24T12:25:50Z</time>
      </trkpt>
      <trkpt lat="45.92466" lon="4.73685">
        <ele>174</ele>
        <time>2018-03-24T12:25:51Z</time>
      </trkpt>
      <trkpt lat="45.92466" lon="4.73691">
        <ele>174</ele>
        <time>2018-03-24T12:25:52Z</time>
      </trkpt>
      <trkpt lat="45.92466" lon="4.73699">
        <ele>174</ele>
        <time>2018-03-24T12:25:53Z</time>
      </trkpt>
      <trkpt lat="45.92462" lon="4.7371">
        <ele>174</ele>
        <time>2018-03-24T12:26:39Z</time>
      </trkpt>
      <trkpt lat="45.92462" lon="4.7371">
        <ele>174</ele>
        <time>2018-03-24T12:26:40Z</time>
      </trkpt>
      <trkpt lat="45.92461" lon="4.73711">
        <ele>174</ele>
        <time>2018-03-24T12:26:43.066Z</time>
      </trkpt>
    </trkseg>
  </trk>
</gpx>